<?xml version='1.0' encoding='UTF-8'?><gpx version="1.1" creator="JPX - https://github.com/jenetics/jpx" xmlns="http://www.topografix.com/GPX/1/1"><trk><trkseg><trkpt lat="41.6455072" lon="-0.8764123"><ele>222.0</ele><time>2026-05-04T07:08:42.696Z</time></trkpt><trkpt lat="41.6454799" lon="-0.8764907"><ele>222.0</ele><time>2026-05-04T07:09:20.72Z</time></trkpt><trkpt lat="41.6455217" lon="-0.8764144"><ele>222.0</ele><time>2026-05-04T07:21:10.712Z</time></trkpt><trkpt lat="41.645488" lon="-0.8764879"><ele>222.0</ele><time>2026-05-04T07:26:17.741Z</time></trkpt><trkpt lat="41.645517" lon="-0.8765726"><ele>222.0</ele><time>2026-05-04T07:27:46.7Z</time></trkpt><trkpt lat="41.645549" lon="-0.8764944"><ele>222.0</ele><time>2026-05-04T07:29:21.699Z</time></trkpt><trkpt lat="41.6455104" lon="-0.8765624"><ele>222.0</ele><time>2026-05-04T07:33:31.702Z</time></trkpt><trkpt lat="41.6454559" lon="-0.8767017"><ele>221.5</ele><time>2026-05-04T07:33:33.702Z</time></trkpt><trkpt lat="41.6453688" lon="-0.8768044"><ele>221.0</ele><time>2026-05-04T07:33:35.702Z</time></trkpt><trkpt lat="41.6453207" lon="-0.8768968"><ele>220.5</ele><time>2026-05-04T07:33:37.702Z</time></trkpt><trkpt lat="41.6452646" lon="-0.8769433"><ele>220.0</ele><time>2026-05-04T07:33:39.701Z</time></trkpt><trkpt lat="41.6452098" lon="-0.8769971"><ele>219.5</ele><time>2026-05-04T07:34:05.702Z</time></trkpt><trkpt lat="41.6451676" lon="-0.8771255"><ele>219.0</ele><time>2026-05-04T07:34:28.702Z</time></trkpt><trkpt lat="41.6451379" lon="-0.8772626"><ele>218.71428571428572</ele><time>2026-05-04T07:34:30.702Z</time></trkpt><trkpt lat="41.6451275" lon="-0.877346"><ele>218.42857142857142</ele><time>2026-05-04T07:34:31.702Z</time></trkpt><trkpt lat="41.645119" lon="-0.8774361"><ele>218.14285714285714</ele><time>2026-05-04T07:34:32.702Z</time></trkpt><trkpt lat="41.6451052" lon="-0.8775345"><ele>217.85714285714286</ele><time>2026-05-04T07:34:33.702Z</time></trkpt><trkpt lat="41.6450802" lon="-0.8776314"><ele>217.57142857142856</ele><time>2026-05-04T07:34:34.702Z</time></trkpt><trkpt lat="41.6450494" lon="-0.8777129"><ele>217.28571428571428</ele><time>2026-05-04T07:34:35.702Z</time></trkpt><trkpt lat="41.6449822" lon="-0.8778065"><ele>217.0</ele><time>2026-05-04T07:34:37.702Z</time></trkpt><trkpt lat="41.6449203" lon="-0.8778219"><ele>216.99999999999997</ele><time>2026-05-04T07:34:39.702Z</time></trkpt><trkpt lat="41.6448449" lon="-0.8777611"><ele>217.0</ele><time>2026-05-04T07:35:33.703Z</time></trkpt><trkpt lat="41.6447736" lon="-0.8776691"><ele>217.0</ele><time>2026-05-04T07:35:35.703Z</time></trkpt><trkpt lat="41.6447661" lon="-0.8775659"><ele>217.0</ele><time>2026-05-04T07:35:37.702Z</time></trkpt><trkpt lat="41.6448066" lon="-0.8774627"><ele>216.99999999999997</ele><time>2026-05-04T07:35:40.702Z</time></trkpt><trkpt lat="41.6448548" lon="-0.8773651"><ele>217.0</ele><time>2026-05-04T07:36:11.703Z</time></trkpt><trkpt lat="41.6449186" lon="-0.8772882"><ele>217.0</ele><time>2026-05-04T07:36:13.703Z</time></trkpt><trkpt lat="41.644995" lon="-0.8771741"><ele>217.0</ele><time>2026-05-04T07:36:15.703Z</time></trkpt><trkpt lat="41.6450761" lon="-0.8770421"><ele>217.0</ele><time>2026-05-04T07:36:17.703Z</time></trkpt><trkpt lat="41.6451325" lon="-0.8769718"><ele>217.0</ele><time>2026-05-04T07:36:18.703Z</time></trkpt><trkpt lat="41.645168" lon="-0.8768911"><ele>217.0</ele><time>2026-05-04T07:36:19.703Z</time></trkpt><trkpt lat="41.6452105" lon="-0.8768179"><ele>217.83333333333331</ele><time>2026-05-04T07:36:20.703Z</time></trkpt><trkpt lat="41.6452477" lon="-0.8767406"><ele>218.66666666666666</ele><time>2026-05-04T07:36:21.703Z</time></trkpt><trkpt lat="41.6452796" lon="-0.8766506"><ele>219.5</ele><time>2026-05-04T07:36:22.703Z</time></trkpt><trkpt lat="41.6453304" lon="-0.8765659"><ele>220.33333333333331</ele><time>2026-05-04T07:36:23.703Z</time></trkpt><trkpt lat="41.6453836" lon="-0.8764885"><ele>221.16666666666666</ele><time>2026-05-04T07:36:24.703Z</time></trkpt><trkpt lat="41.6454268" lon="-0.8763987"><ele>222.0</ele><time>2026-05-04T07:36:25.703Z</time></trkpt><trkpt lat="41.6454674" lon="-0.8763022"><ele>222.0</ele><time>2026-05-04T07:36:26.703Z</time></trkpt><trkpt lat="41.6455136" lon="-0.8762093"><ele>222.0</ele><time>2026-05-04T07:36:27.703Z</time></trkpt><trkpt lat="41.6455653" lon="-0.876119"><ele>222.0</ele><time>2026-05-04T07:36:28.703Z</time></trkpt><trkpt lat="41.645603" lon="-0.8760175"><ele>222.0</ele><time>2026-05-04T07:36:29.702Z</time></trkpt><trkpt lat="41.6456373" lon="-0.8759246"><ele>222.0</ele><time>2026-05-04T07:36:30.703Z</time></trkpt><trkpt lat="41.6456815" lon="-0.8758474"><ele>222.0</ele><time>2026-05-04T07:36:31.703Z</time></trkpt><trkpt lat="41.6457154" lon="-0.8757755"><ele>223.16666666666666</ele><time>2026-05-04T07:36:32.702Z</time></trkpt><trkpt lat="41.645752" lon="-0.8756323"><ele>224.33333333333331</ele><time>2026-05-04T07:36:34.703Z</time></trkpt><trkpt lat="41.6457959" lon="-0.8755006"><ele>225.5</ele><time>2026-05-04T07:36:36.703Z</time></trkpt><trkpt lat="41.6458188" lon="-0.8754197"><ele>226.66666666666666</ele><time>2026-05-04T07:36:37.703Z</time></trkpt><trkpt lat="41.6458472" lon="-0.8753398"><ele>227.83333333333331</ele><time>2026-05-04T07:36:38.703Z</time></trkpt><trkpt lat="41.6458782" lon="-0.8752541"><ele>229.0</ele><time>2026-05-04T07:36:39.703Z</time></trkpt><trkpt lat="41.6459179" lon="-0.8751782"><ele>227.85714285714286</ele><time>2026-05-04T07:36:40.703Z</time></trkpt><trkpt lat="41.6459532" lon="-0.8750994"><ele>226.71428571428572</ele><time>2026-05-04T07:36:41.703Z</time></trkpt><trkpt lat="41.6459875" lon="-0.875019"><ele>225.57142857142858</ele><time>2026-05-04T07:36:42.703Z</time></trkpt><trkpt lat="41.6460316" lon="-0.8749418"><ele>224.42857142857144</ele><time>2026-05-04T07:36:43.703Z</time></trkpt><trkpt lat="41.6460499" lon="-0.8748474"><ele>223.28571428571428</ele><time>2026-05-04T07:36:44.702Z</time></trkpt><trkpt lat="41.646081" lon="-0.8747586"><ele>222.14285714285717</ele><time>2026-05-04T07:36:45.703Z</time></trkpt><trkpt lat="41.6461164" lon="-0.8746756"><ele>221.0</ele><time>2026-05-04T07:36:46.702Z</time></trkpt><trkpt lat="41.6461542" lon="-0.8745946"><ele>220.57142857142858</ele><time>2026-05-04T07:36:47.703Z</time></trkpt><trkpt lat="41.6461923" lon="-0.8745119"><ele>220.14285714285714</ele><time>2026-05-04T07:36:48.702Z</time></trkpt><trkpt lat="41.6462303" lon="-0.8744287"><ele>219.71428571428572</ele><time>2026-05-04T07:36:49.703Z</time></trkpt><trkpt lat="41.6462646" lon="-0.8743462"><ele>219.28571428571428</ele><time>2026-05-04T07:36:50.703Z</time></trkpt><trkpt lat="41.6463049" lon="-0.8742658"><ele>218.85714285714286</ele><time>2026-05-04T07:36:51.703Z</time></trkpt><trkpt lat="41.6463409" lon="-0.8741786"><ele>218.42857142857144</ele><time>2026-05-04T07:36:52.703Z</time></trkpt><trkpt lat="41.6463746" lon="-0.874095"><ele>218.0</ele><time>2026-05-04T07:36:53.703Z</time></trkpt><trkpt lat="41.6464144" lon="-0.8740099"><ele>218.00000000000003</ele><time>2026-05-04T07:36:54.703Z</time></trkpt><trkpt lat="41.6464573" lon="-0.8739241"><ele>218.0</ele><time>2026-05-04T07:36:55.703Z</time></trkpt><trkpt lat="41.6464975" lon="-0.8738276"><ele>218.0</ele><time>2026-05-04T07:36:56.702Z</time></trkpt><trkpt lat="41.6465425" lon="-0.8737375"><ele>218.0</ele><time>2026-05-04T07:36:57.703Z</time></trkpt><trkpt lat="41.6465868" lon="-0.8736461"><ele>218.00000000000003</ele><time>2026-05-04T07:36:58.703Z</time></trkpt><trkpt lat="41.6466302" lon="-0.8735516"><ele>218.0</ele><time>2026-05-04T07:36:59.703Z</time></trkpt><trkpt lat="41.6466701" lon="-0.8734654"><ele>218.16666666666669</ele><time>2026-05-04T07:37:00.703Z</time></trkpt><trkpt lat="41.6467147" lon="-0.8733867"><ele>218.33333333333334</ele><time>2026-05-04T07:37:01.703Z</time></trkpt><trkpt lat="41.6467571" lon="-0.8733032"><ele>218.5</ele><time>2026-05-04T07:37:02.703Z</time></trkpt><trkpt lat="41.6467992" lon="-0.8732125"><ele>218.66666666666669</ele><time>2026-05-04T07:37:03.703Z</time></trkpt><trkpt lat="41.6468443" lon="-0.8731137"><ele>218.83333333333334</ele><time>2026-05-04T07:37:04.703Z</time></trkpt><trkpt lat="41.6468799" lon="-0.8730115"><ele>219.0</ele><time>2026-05-04T07:37:05.703Z</time></trkpt><trkpt lat="41.6469057" lon="-0.8729109"><ele>219.0</ele><time>2026-05-04T07:37:06.703Z</time></trkpt><trkpt lat="41.6469376" lon="-0.8728142"><ele>219.0</ele><time>2026-05-04T07:37:07.702Z</time></trkpt><trkpt lat="41.6469763" lon="-0.8727197"><ele>219.0</ele><time>2026-05-04T07:37:08.703Z</time></trkpt><trkpt lat="41.6470178" lon="-0.8726304"><ele>219.0</ele><time>2026-05-04T07:37:09.703Z</time></trkpt><trkpt lat="41.6470549" lon="-0.8725434"><ele>219.0</ele><time>2026-05-04T07:37:10.703Z</time></trkpt><trkpt lat="41.6470979" lon="-0.8724481"><ele>219.0</ele><time>2026-05-04T07:37:11.702Z</time></trkpt><trkpt lat="41.6471363" lon="-0.8723509"><ele>217.39999999999998</ele><time>2026-05-04T07:37:12.703Z</time></trkpt><trkpt lat="41.647181" lon="-0.8722512"><ele>215.79999999999998</ele><time>2026-05-04T07:37:13.703Z</time></trkpt><trkpt lat="41.6472204" lon="-0.8721451"><ele>214.2</ele><time>2026-05-04T07:37:14.702Z</time></trkpt><trkpt lat="41.6472645" lon="-0.8720415"><ele>212.60000000000002</ele><time>2026-05-04T07:37:15.703Z</time></trkpt><trkpt lat="41.6472914" lon="-0.8719188"><ele>211.0</ele><time>2026-05-04T07:37:16.703Z</time></trkpt><trkpt lat="41.6473206" lon="-0.8717983"><ele>210.49999999999997</ele><time>2026-05-04T07:37:17.703Z</time></trkpt><trkpt lat="41.647354" lon="-0.8716762"><ele>210.0</ele><time>2026-05-04T07:37:18.703Z</time></trkpt><trkpt lat="41.6473852" lon="-0.8715556"><ele>209.5</ele><time>2026-05-04T07:37:19.703Z</time></trkpt><trkpt lat="41.6474108" lon="-0.8714441"><ele>209.0</ele><time>2026-05-04T07:37:20.703Z</time></trkpt><trkpt lat="41.6474365" lon="-0.8713313"><ele>208.49999999999997</ele><time>2026-05-04T07:37:21.703Z</time></trkpt><trkpt lat="41.6474581" lon="-0.8712302"><ele>208.0</ele><time>2026-05-04T07:37:22.703Z</time></trkpt><trkpt lat="41.6474793" lon="-0.8711135"><ele>207.99999999999997</ele><time>2026-05-04T07:37:23.702Z</time></trkpt><trkpt lat="41.6475046" lon="-0.8709947"><ele>208.0</ele><time>2026-05-04T07:37:24.702Z</time></trkpt><trkpt lat="41.6475272" lon="-0.8708756"><ele>208.0</ele><time>2026-05-04T07:37:25.702Z</time></trkpt><trkpt lat="41.6475469" lon="-0.8707556"><ele>208.0</ele><time>2026-05-04T07:37:26.703Z</time></trkpt><trkpt lat="41.6475668" lon="-0.8706397"><ele>207.99999999999997</ele><time>2026-05-04T07:37:27.703Z</time></trkpt><trkpt lat="41.6475791" lon="-0.8705348"><ele>208.0</ele><time>2026-05-04T07:37:28.703Z</time></trkpt><trkpt lat="41.6475998" lon="-0.87044"><ele>208.0</ele><time>2026-05-04T07:37:29.702Z</time></trkpt><trkpt lat="41.6476179" lon="-0.8703586"><ele>208.0</ele><time>2026-05-04T07:37:30.703Z</time></trkpt><trkpt lat="41.6476249" lon="-0.8702711"><ele>208.0</ele><time>2026-05-04T07:37:33.704Z</time></trkpt><trkpt lat="41.6476659" lon="-0.8701837"><ele>208.0</ele><time>2026-05-04T07:38:22.704Z</time></trkpt><trkpt lat="41.6476824" lon="-0.8700944"><ele>208.0</ele><time>2026-05-04T07:38:23.704Z</time></trkpt><trkpt lat="41.6477172" lon="-0.870004"><ele>208.0</ele><time>2026-05-04T07:38:24.704Z</time></trkpt><trkpt lat="41.6477535" lon="-0.8699084"><ele>208.0</ele><time>2026-05-04T07:38:25.703Z</time></trkpt><trkpt lat="41.6477989" lon="-0.8698092"><ele>207.2</ele><time>2026-05-04T07:38:26.704Z</time></trkpt><trkpt lat="41.6478521" lon="-0.8697017"><ele>206.4</ele><time>2026-05-04T07:38:27.703Z</time></trkpt><trkpt lat="41.6479055" lon="-0.869598"><ele>205.6</ele><time>2026-05-04T07:38:28.704Z</time></trkpt><trkpt lat="41.6479623" lon="-0.8694957"><ele>204.79999999999998</ele><time>2026-05-04T07:38:29.704Z</time></trkpt><trkpt lat="41.6480102" lon="-0.869373"><ele>204.0</ele><time>2026-05-04T07:38:30.703Z</time></trkpt><trkpt lat="41.6480573" lon="-0.8692516"><ele>203.6</ele><time>2026-05-04T07:38:31.704Z</time></trkpt><trkpt lat="41.648095" lon="-0.8691297"><ele>203.2</ele><time>2026-05-04T07:38:32.704Z</time></trkpt><trkpt lat="41.6481407" lon="-0.869004"><ele>202.79999999999998</ele><time>2026-05-04T07:38:33.703Z</time></trkpt><trkpt lat="41.6481825" lon="-0.8688729"><ele>202.39999999999998</ele><time>2026-05-04T07:38:34.704Z</time></trkpt><trkpt lat="41.6482226" lon="-0.8687367"><ele>202.0</ele><time>2026-05-04T07:38:35.704Z</time></trkpt><trkpt lat="41.6482573" lon="-0.8685956"><ele>202.0</ele><time>2026-05-04T07:38:36.704Z</time></trkpt><trkpt lat="41.6482912" lon="-0.8684526"><ele>202.0</ele><time>2026-05-04T07:38:37.704Z</time></trkpt><trkpt lat="41.6483254" lon="-0.8683081"><ele>202.0</ele><time>2026-05-04T07:38:38.704Z</time></trkpt><trkpt lat="41.6483598" lon="-0.8681612"><ele>202.0</ele><time>2026-05-04T07:38:39.703Z</time></trkpt><trkpt lat="41.6483948" lon="-0.8680119"><ele>201.5</ele><time>2026-05-04T07:38:40.704Z</time></trkpt><trkpt lat="41.6484306" lon="-0.8678628"><ele>201.0</ele><time>2026-05-04T07:38:41.703Z</time></trkpt><trkpt lat="41.6484666" lon="-0.8677115"><ele>200.5</ele><time>2026-05-04T07:38:42.704Z</time></trkpt><trkpt lat="41.6484998" lon="-0.8675629"><ele>200.0</ele><time>2026-05-04T07:38:43.704Z</time></trkpt><trkpt lat="41.6485311" lon="-0.8674211"><ele>200.0</ele><time>2026-05-04T07:38:44.704Z</time></trkpt><trkpt lat="41.6485664" lon="-0.867283"><ele>200.0</ele><time>2026-05-04T07:38:45.704Z</time></trkpt><trkpt lat="41.6486009" lon="-0.867143"><ele>200.0</ele><time>2026-05-04T07:38:46.704Z</time></trkpt><trkpt lat="41.6486356" lon="-0.8670027"><ele>200.0</ele><time>2026-05-04T07:38:47.703Z</time></trkpt><trkpt lat="41.6486705" lon="-0.8668655"><ele>200.0</ele><time>2026-05-04T07:38:48.704Z</time></trkpt><trkpt lat="41.6487018" lon="-0.866724"><ele>199.4</ele><time>2026-05-04T07:38:49.704Z</time></trkpt><trkpt lat="41.6487352" lon="-0.8665823"><ele>198.8</ele><time>2026-05-04T07:38:50.704Z</time></trkpt><trkpt lat="41.6487678" lon="-0.8664431"><ele>198.2</ele><time>2026-05-04T07:38:51.703Z</time></trkpt><trkpt lat="41.6487994" lon="-0.8663047"><ele>197.6</ele><time>2026-05-04T07:38:52.704Z</time></trkpt><trkpt lat="41.6488326" lon="-0.8661651"><ele>197.0</ele><time>2026-05-04T07:38:53.704Z</time></trkpt><trkpt lat="41.6488648" lon="-0.8660264"><ele>197.8</ele><time>2026-05-04T07:38:54.704Z</time></trkpt><trkpt lat="41.6488973" lon="-0.86589"><ele>198.6</ele><time>2026-05-04T07:38:55.704Z</time></trkpt><trkpt lat="41.6489307" lon="-0.8657626"><ele>199.4</ele><time>2026-05-04T07:38:56.704Z</time></trkpt><trkpt lat="41.6489667" lon="-0.8656486"><ele>200.20000000000002</ele><time>2026-05-04T07:38:57.704Z</time></trkpt><trkpt lat="41.6490022" lon="-0.8655301"><ele>201.0</ele><time>2026-05-04T07:38:58.704Z</time></trkpt><trkpt lat="41.6490398" lon="-0.8654208"><ele>201.0</ele><time>2026-05-04T07:38:59.704Z</time></trkpt><trkpt lat="41.6490803" lon="-0.8653263"><ele>201.0</ele><time>2026-05-04T07:39:00.704Z</time></trkpt><trkpt lat="41.649121" lon="-0.8652339"><ele>201.0</ele><time>2026-05-04T07:39:01.704Z</time></trkpt><trkpt lat="41.6491633" lon="-0.8651422"><ele>201.0</ele><time>2026-05-04T07:39:02.704Z</time></trkpt><trkpt lat="41.6492138" lon="-0.8650505"><ele>201.0</ele><time>2026-05-04T07:39:03.704Z</time></trkpt><trkpt lat="41.6492661" lon="-0.864958"><ele>201.0</ele><time>2026-05-04T07:39:04.704Z</time></trkpt><trkpt lat="41.6493195" lon="-0.8648698"><ele>200.66666666666666</ele><time>2026-05-04T07:39:05.704Z</time></trkpt><trkpt lat="41.6493731" lon="-0.8647835"><ele>200.33333333333331</ele><time>2026-05-04T07:39:06.704Z</time></trkpt><trkpt lat="41.6494321" lon="-0.8646964"><ele>200.0</ele><time>2026-05-04T07:39:07.703Z</time></trkpt><trkpt lat="41.6494957" lon="-0.8646101"><ele>199.66666666666666</ele><time>2026-05-04T07:39:08.704Z</time></trkpt><trkpt lat="41.6495609" lon="-0.8645279"><ele>199.33333333333331</ele><time>2026-05-04T07:39:09.704Z</time></trkpt><trkpt lat="41.6496293" lon="-0.8644501"><ele>199.0</ele><time>2026-05-04T07:39:10.703Z</time></trkpt><trkpt lat="41.6497022" lon="-0.8643744"><ele>199.0</ele><time>2026-05-04T07:39:11.704Z</time></trkpt><trkpt lat="41.6497805" lon="-0.8643061"><ele>199.0</ele><time>2026-05-04T07:39:12.704Z</time></trkpt><trkpt lat="41.6498631" lon="-0.8642398"><ele>199.0</ele><time>2026-05-04T07:39:13.704Z</time></trkpt><trkpt lat="41.6499504" lon="-0.8641757"><ele>199.0</ele><time>2026-05-04T07:39:14.704Z</time></trkpt><trkpt lat="41.6500384" lon="-0.8641108"><ele>199.0</ele><time>2026-05-04T07:39:15.704Z</time></trkpt><trkpt lat="41.6501245" lon="-0.8640487"><ele>199.0</ele><time>2026-05-04T07:39:16.704Z</time></trkpt><trkpt lat="41.6502084" lon="-0.8639922"><ele>199.0</ele><time>2026-05-04T07:39:17.704Z</time></trkpt><trkpt lat="41.6502924" lon="-0.8639356"><ele>199.0</ele><time>2026-05-04T07:39:18.704Z</time></trkpt><trkpt lat="41.6503793" lon="-0.8638819"><ele>199.0</ele><time>2026-05-04T07:39:19.704Z</time></trkpt><trkpt lat="41.6504643" lon="-0.8638251"><ele>199.0</ele><time>2026-05-04T07:39:20.704Z</time></trkpt><trkpt lat="41.6505488" lon="-0.8637683"><ele>198.79999999999998</ele><time>2026-05-04T07:39:21.703Z</time></trkpt><trkpt lat="41.6506326" lon="-0.863713"><ele>198.6</ele><time>2026-05-04T07:39:22.704Z</time></trkpt><trkpt lat="41.6507181" lon="-0.8636555"><ele>198.4</ele><time>2026-05-04T07:39:23.704Z</time></trkpt><trkpt lat="41.6508012" lon="-0.863597"><ele>198.2</ele><time>2026-05-04T07:39:24.704Z</time></trkpt><trkpt lat="41.6508853" lon="-0.8635404"><ele>198.0</ele><time>2026-05-04T07:39:25.704Z</time></trkpt><trkpt lat="41.6509697" lon="-0.8634855"><ele>197.8</ele><time>2026-05-04T07:39:26.704Z</time></trkpt><trkpt lat="41.6510541" lon="-0.863427"><ele>197.60000000000002</ele><time>2026-05-04T07:39:27.704Z</time></trkpt><trkpt lat="41.6511376" lon="-0.8633715"><ele>197.39999999999998</ele><time>2026-05-04T07:39:28.704Z</time></trkpt><trkpt lat="41.651221" lon="-0.8633165"><ele>197.2</ele><time>2026-05-04T07:39:29.704Z</time></trkpt><trkpt lat="41.6513047" lon="-0.863261"><ele>197.0</ele><time>2026-05-04T07:39:30.704Z</time></trkpt><trkpt lat="41.6513871" lon="-0.8632044"><ele>197.0</ele><time>2026-05-04T07:39:31.704Z</time></trkpt><trkpt lat="41.6514702" lon="-0.8631494"><ele>197.0</ele><time>2026-05-04T07:39:32.703Z</time></trkpt><trkpt lat="41.651552" lon="-0.8630956"><ele>197.0</ele><time>2026-05-04T07:39:33.703Z</time></trkpt><trkpt lat="41.6516348" lon="-0.8630431"><ele>197.0</ele><time>2026-05-04T07:39:34.704Z</time></trkpt><trkpt lat="41.6517181" lon="-0.8629864"><ele>197.0</ele><time>2026-05-04T07:39:35.704Z</time></trkpt><trkpt lat="41.6518019" lon="-0.8629294"><ele>197.0</ele><time>2026-05-04T07:39:36.704Z</time></trkpt><trkpt lat="41.6518863" lon="-0.8628712"><ele>197.0</ele><time>2026-05-04T07:39:37.704Z</time></trkpt><trkpt lat="41.6519712" lon="-0.8628138"><ele>197.0</ele><time>2026-05-04T07:39:38.704Z</time></trkpt><trkpt lat="41.6520572" lon="-0.8627539"><ele>197.0</ele><time>2026-05-04T07:39:39.704Z</time></trkpt><trkpt lat="41.6521441" lon="-0.8626955"><ele>197.0</ele><time>2026-05-04T07:39:40.704Z</time></trkpt><trkpt lat="41.6522306" lon="-0.8626346"><ele>195.6</ele><time>2026-05-04T07:39:41.704Z</time></trkpt><trkpt lat="41.6523201" lon="-0.8625777"><ele>194.2</ele><time>2026-05-04T07:39:42.703Z</time></trkpt><trkpt lat="41.6524119" lon="-0.8625169"><ele>192.8</ele><time>2026-05-04T07:39:43.704Z</time></trkpt><trkpt lat="41.6525028" lon="-0.8624553"><ele>191.4</ele><time>2026-05-04T07:39:44.704Z</time></trkpt><trkpt lat="41.6525955" lon="-0.8623917"><ele>190.0</ele><time>2026-05-04T07:39:45.704Z</time></trkpt><trkpt lat="41.6526899" lon="-0.8623254"><ele>190.0</ele><time>2026-05-04T07:39:46.704Z</time></trkpt><trkpt lat="41.6527774" lon="-0.8622638"><ele>190.0</ele><time>2026-05-04T07:39:47.704Z</time></trkpt><trkpt lat="41.6528632" lon="-0.8622072"><ele>190.0</ele><time>2026-05-04T07:39:48.704Z</time></trkpt><trkpt lat="41.652951" lon="-0.8621502"><ele>190.0</ele><time>2026-05-04T07:39:49.704Z</time></trkpt><trkpt lat="41.6530403" lon="-0.8620916"><ele>190.0</ele><time>2026-05-04T07:39:50.704Z</time></trkpt><trkpt lat="41.6531321" lon="-0.8620305"><ele>190.2</ele><time>2026-05-04T07:39:51.703Z</time></trkpt><trkpt lat="41.6532241" lon="-0.8619689"><ele>190.4</ele><time>2026-05-04T07:39:52.704Z</time></trkpt><trkpt lat="41.6533173" lon="-0.8619057"><ele>190.60000000000002</ele><time>2026-05-04T07:39:53.703Z</time></trkpt><trkpt lat="41.6534114" lon="-0.8618424"><ele>190.8</ele><time>2026-05-04T07:39:54.703Z</time></trkpt><trkpt lat="41.6535032" lon="-0.8617819"><ele>191.0</ele><time>2026-05-04T07:39:55.704Z</time></trkpt><trkpt lat="41.6535888" lon="-0.8617223"><ele>191.8</ele><time>2026-05-04T07:39:56.704Z</time></trkpt><trkpt lat="41.6536745" lon="-0.861664"><ele>192.60000000000002</ele><time>2026-05-04T07:39:57.703Z</time></trkpt><trkpt lat="41.6537606" lon="-0.8616056"><ele>193.4</ele><time>2026-05-04T07:39:58.704Z</time></trkpt><trkpt lat="41.6538488" lon="-0.861542"><ele>194.2</ele><time>2026-05-04T07:39:59.704Z</time></trkpt><trkpt lat="41.6539454" lon="-0.8614874"><ele>195.0</ele><time>2026-05-04T07:40:00.704Z</time></trkpt><trkpt lat="41.6540386" lon="-0.8614257"><ele>195.0</ele><time>2026-05-04T07:40:01.704Z</time></trkpt><trkpt lat="41.6541352" lon="-0.8613612"><ele>195.0</ele><time>2026-05-04T07:40:02.704Z</time></trkpt><trkpt lat="41.6542359" lon="-0.8612925"><ele>195.0</ele><time>2026-05-04T07:40:03.704Z</time></trkpt><trkpt lat="41.6543343" lon="-0.8612235"><ele>195.0</ele><time>2026-05-04T07:40:04.704Z</time></trkpt><trkpt lat="41.6544284" lon="-0.8611587"><ele>195.0</ele><time>2026-05-04T07:40:05.704Z</time></trkpt><trkpt lat="41.6545214" lon="-0.8610998"><ele>195.2</ele><time>2026-05-04T07:40:06.704Z</time></trkpt><trkpt lat="41.6546109" lon="-0.8610424"><ele>195.4</ele><time>2026-05-04T07:40:07.704Z</time></trkpt><trkpt lat="41.6546966" lon="-0.8609867"><ele>195.60000000000002</ele><time>2026-05-04T07:40:08.703Z</time></trkpt><trkpt lat="41.6547787" lon="-0.8609349"><ele>195.8</ele><time>2026-05-04T07:40:09.704Z</time></trkpt><trkpt lat="41.6548556" lon="-0.8608815"><ele>196.0</ele><time>2026-05-04T07:40:10.704Z</time></trkpt><trkpt lat="41.6549245" lon="-0.8608235"><ele>196.16666666666666</ele><time>2026-05-04T07:40:11.704Z</time></trkpt><trkpt lat="41.6549898" lon="-0.8607676"><ele>196.33333333333331</ele><time>2026-05-04T07:40:12.704Z</time></trkpt><trkpt lat="41.6550496" lon="-0.8607246"><ele>196.5</ele><time>2026-05-04T07:40:13.704Z</time></trkpt><trkpt lat="41.6551132" lon="-0.8606809"><ele>196.66666666666669</ele><time>2026-05-04T07:40:14.704Z</time></trkpt><trkpt lat="41.6551818" lon="-0.8606361"><ele>196.83333333333334</ele><time>2026-05-04T07:40:15.703Z</time></trkpt><trkpt lat="41.6552682" lon="-0.8605848"><ele>197.0</ele><time>2026-05-04T07:40:16.704Z</time></trkpt><trkpt lat="41.6553578" lon="-0.8605333"><ele>197.0</ele><time>2026-05-04T07:40:17.705Z</time></trkpt><trkpt lat="41.6554523" lon="-0.8604792"><ele>197.0</ele><time>2026-05-04T07:40:18.704Z</time></trkpt><trkpt lat="41.6555461" lon="-0.8604287"><ele>197.0</ele><time>2026-05-04T07:40:19.704Z</time></trkpt><trkpt lat="41.6556458" lon="-0.8603822"><ele>197.0</ele><time>2026-05-04T07:40:20.705Z</time></trkpt><trkpt lat="41.6557499" lon="-0.8603404"><ele>197.0</ele><time>2026-05-04T07:40:21.704Z</time></trkpt><trkpt lat="41.655851" lon="-0.8603053"><ele>197.0</ele><time>2026-05-04T07:40:22.705Z</time></trkpt><trkpt lat="41.6559549" lon="-0.8602772"><ele>197.0</ele><time>2026-05-04T07:40:23.705Z</time></trkpt><trkpt lat="41.6560618" lon="-0.8602537"><ele>197.0</ele><time>2026-05-04T07:40:24.705Z</time></trkpt><trkpt lat="41.6561703" lon="-0.860239"><ele>197.0</ele><time>2026-05-04T07:40:25.705Z</time></trkpt><trkpt lat="41.6562766" lon="-0.8602316"><ele>197.0</ele><time>2026-05-04T07:40:26.705Z</time></trkpt><trkpt lat="41.6563843" lon="-0.8602307"><ele>196.39999999999998</ele><time>2026-05-04T07:40:27.704Z</time></trkpt><trkpt lat="41.6564918" lon="-0.8602361"><ele>195.79999999999998</ele><time>2026-05-04T07:40:28.704Z</time></trkpt><trkpt lat="41.6566001" lon="-0.8602477"><ele>195.2</ele><time>2026-05-04T07:40:29.704Z</time></trkpt><trkpt lat="41.6567067" lon="-0.860264"><ele>194.6</ele><time>2026-05-04T07:40:30.705Z</time></trkpt><trkpt lat="41.6568079" lon="-0.8602882"><ele>194.0</ele><time>2026-05-04T07:40:31.705Z</time></trkpt><trkpt lat="41.6569044" lon="-0.8603158"><ele>193.79999999999998</ele><time>2026-05-04T07:40:32.705Z</time></trkpt><trkpt lat="41.6569984" lon="-0.8603473"><ele>193.6</ele><time>2026-05-04T07:40:33.705Z</time></trkpt><trkpt lat="41.6570903" lon="-0.8603889"><ele>193.4</ele><time>2026-05-04T07:40:34.705Z</time></trkpt><trkpt lat="41.6571806" lon="-0.860438"><ele>193.2</ele><time>2026-05-04T07:40:35.705Z</time></trkpt><trkpt lat="41.6572725" lon="-0.8604867"><ele>193.0</ele><time>2026-05-04T07:40:36.705Z</time></trkpt><trkpt lat="41.6573616" lon="-0.8605413"><ele>193.0</ele><time>2026-05-04T07:40:37.704Z</time></trkpt><trkpt lat="41.6574468" lon="-0.8606061"><ele>193.0</ele><time>2026-05-04T07:40:38.705Z</time></trkpt><trkpt lat="41.6575282" lon="-0.8606779"><ele>193.0</ele><time>2026-05-04T07:40:39.705Z</time></trkpt><trkpt lat="41.6576093" lon="-0.8607506"><ele>193.0</ele><time>2026-05-04T07:40:40.704Z</time></trkpt><trkpt lat="41.6576914" lon="-0.8608199"><ele>193.0</ele><time>2026-05-04T07:40:41.704Z</time></trkpt><trkpt lat="41.6577692" lon="-0.8608962"><ele>193.4</ele><time>2026-05-04T07:40:42.705Z</time></trkpt><trkpt lat="41.657847" lon="-0.8609769"><ele>193.8</ele><time>2026-05-04T07:40:43.704Z</time></trkpt><trkpt lat="41.6579231" lon="-0.861059"><ele>194.2</ele><time>2026-05-04T07:40:44.705Z</time></trkpt><trkpt lat="41.6579975" lon="-0.8611444"><ele>194.6</ele><time>2026-05-04T07:40:45.704Z</time></trkpt><trkpt lat="41.6580684" lon="-0.8612275"><ele>195.0</ele><time>2026-05-04T07:40:46.705Z</time></trkpt><trkpt lat="41.6581414" lon="-0.8613126"><ele>195.0</ele><time>2026-05-04T07:40:47.705Z</time></trkpt><trkpt lat="41.6582156" lon="-0.8613967"><ele>195.0</ele><time>2026-05-04T07:40:48.705Z</time></trkpt><trkpt lat="41.658286" lon="-0.8614825"><ele>195.0</ele><time>2026-05-04T07:40:49.705Z</time></trkpt><trkpt lat="41.6583595" lon="-0.8615701"><ele>195.0</ele><time>2026-05-04T07:40:50.705Z</time></trkpt><trkpt lat="41.6584311" lon="-0.8616576"><ele>195.0</ele><time>2026-05-04T07:40:51.705Z</time></trkpt><trkpt lat="41.6585032" lon="-0.8617468"><ele>195.2</ele><time>2026-05-04T07:40:52.704Z</time></trkpt><trkpt lat="41.6585758" lon="-0.8618392"><ele>195.4</ele><time>2026-05-04T07:40:53.705Z</time></trkpt><trkpt lat="41.6586486" lon="-0.8619325"><ele>195.60000000000002</ele><time>2026-05-04T07:40:54.705Z</time></trkpt><trkpt lat="41.6587196" lon="-0.862021"><ele>195.8</ele><time>2026-05-04T07:40:55.705Z</time></trkpt><trkpt lat="41.6587868" lon="-0.862104"><ele>196.0</ele><time>2026-05-04T07:40:56.704Z</time></trkpt><trkpt lat="41.6588503" lon="-0.862185"><ele>195.99999999999997</ele><time>2026-05-04T07:40:57.704Z</time></trkpt><trkpt lat="41.6589155" lon="-0.8622669"><ele>196.0</ele><time>2026-05-04T07:40:58.705Z</time></trkpt><trkpt lat="41.6589772" lon="-0.8623413"><ele>196.0</ele><time>2026-05-04T07:40:59.705Z</time></trkpt><trkpt lat="41.6590344" lon="-0.8624086"><ele>196.0</ele><time>2026-05-04T07:41:00.705Z</time></trkpt><trkpt lat="41.6590861" lon="-0.8624713"><ele>195.99999999999997</ele><time>2026-05-04T07:41:01.705Z</time></trkpt><trkpt lat="41.6591402" lon="-0.8625368"><ele>196.0</ele><time>2026-05-04T07:41:02.705Z</time></trkpt><trkpt lat="41.6591917" lon="-0.8625931"><ele>195.66666666666666</ele><time>2026-05-04T07:41:03.705Z</time></trkpt><trkpt lat="41.6592734" lon="-0.8626867"><ele>195.33333333333331</ele><time>2026-05-04T07:41:05.705Z</time></trkpt><trkpt lat="41.6593335" lon="-0.86276"><ele>195.0</ele><time>2026-05-04T07:41:26.705Z</time></trkpt><trkpt lat="41.6594153" lon="-0.8628419"><ele>194.66666666666669</ele><time>2026-05-04T07:41:28.705Z</time></trkpt><trkpt lat="41.6594704" lon="-0.8628999"><ele>194.33333333333334</ele><time>2026-05-04T07:41:29.705Z</time></trkpt><trkpt lat="41.6595347" lon="-0.8629624"><ele>194.0</ele><time>2026-05-04T07:41:30.705Z</time></trkpt><trkpt lat="41.6596002" lon="-0.8630212"><ele>195.16666666666669</ele><time>2026-05-04T07:41:31.705Z</time></trkpt><trkpt lat="41.6596677" lon="-0.8630795"><ele>196.33333333333334</ele><time>2026-05-04T07:41:32.705Z</time></trkpt><trkpt lat="41.6597356" lon="-0.8631396"><ele>197.5</ele><time>2026-05-04T07:41:33.705Z</time></trkpt><trkpt lat="41.6598071" lon="-0.8632017"><ele>198.66666666666669</ele><time>2026-05-04T07:41:34.704Z</time></trkpt><trkpt lat="41.6598807" lon="-0.8632644"><ele>199.83333333333334</ele><time>2026-05-04T07:41:35.705Z</time></trkpt><trkpt lat="41.6599547" lon="-0.8633276"><ele>201.0</ele><time>2026-05-04T07:41:36.705Z</time></trkpt><trkpt lat="41.6600327" lon="-0.8633876"><ele>201.4</ele><time>2026-05-04T07:41:37.705Z</time></trkpt><trkpt lat="41.660112" lon="-0.8634473"><ele>201.8</ele><time>2026-05-04T07:41:38.704Z</time></trkpt><trkpt lat="41.6601975" lon="-0.86351"><ele>202.20000000000002</ele><time>2026-05-04T07:41:39.705Z</time></trkpt><trkpt lat="41.6602806" lon="-0.8635726"><ele>202.60000000000002</ele><time>2026-05-04T07:41:40.705Z</time></trkpt><trkpt lat="41.6603638" lon="-0.8636412"><ele>203.0</ele><time>2026-05-04T07:41:41.705Z</time></trkpt><trkpt lat="41.6604487" lon="-0.8637041"><ele>204.2</ele><time>2026-05-04T07:41:42.705Z</time></trkpt><trkpt lat="41.6605339" lon="-0.8637674"><ele>205.4</ele><time>2026-05-04T07:41:43.705Z</time></trkpt><trkpt lat="41.6606159" lon="-0.863826"><ele>206.6</ele><time>2026-05-04T07:41:44.705Z</time></trkpt><trkpt lat="41.6606933" lon="-0.8638876"><ele>207.79999999999998</ele><time>2026-05-04T07:41:45.705Z</time></trkpt><trkpt lat="41.6607766" lon="-0.8639536"><ele>209.0</ele><time>2026-05-04T07:41:46.705Z</time></trkpt><trkpt lat="41.6608558" lon="-0.8640198"><ele>209.00000000000003</ele><time>2026-05-04T07:41:47.705Z</time></trkpt><trkpt lat="41.6609312" lon="-0.8640795"><ele>209.0</ele><time>2026-05-04T07:41:48.705Z</time></trkpt><trkpt lat="41.6610015" lon="-0.8641376"><ele>209.0</ele><time>2026-05-04T07:41:49.705Z</time></trkpt><trkpt lat="41.661071" lon="-0.8641943"><ele>209.0</ele><time>2026-05-04T07:41:50.705Z</time></trkpt><trkpt lat="41.6611384" lon="-0.8642451"><ele>209.00000000000003</ele><time>2026-05-04T07:41:51.705Z</time></trkpt><trkpt lat="41.6612008" lon="-0.8642907"><ele>209.0</ele><time>2026-05-04T07:41:52.704Z</time></trkpt><trkpt lat="41.6612633" lon="-0.8643315"><ele>207.57142857142856</ele><time>2026-05-04T07:41:53.704Z</time></trkpt><trkpt lat="41.6613251" lon="-0.864366"><ele>206.14285714285714</ele><time>2026-05-04T07:41:54.705Z</time></trkpt><trkpt lat="41.661388" lon="-0.8644082"><ele>204.71428571428572</ele><time>2026-05-04T07:41:55.705Z</time></trkpt><trkpt lat="41.6614514" lon="-0.8644522"><ele>203.28571428571428</ele><time>2026-05-04T07:41:56.705Z</time></trkpt><trkpt lat="41.6615119" lon="-0.8644931"><ele>201.85714285714286</ele><time>2026-05-04T07:41:57.705Z</time></trkpt><trkpt lat="41.6615691" lon="-0.8645382"><ele>200.42857142857142</ele><time>2026-05-04T07:41:58.705Z</time></trkpt><trkpt lat="41.6616279" lon="-0.8645822"><ele>199.0</ele><time>2026-05-04T07:41:59.704Z</time></trkpt><trkpt lat="41.6616922" lon="-0.8646307"><ele>198.99999999999997</ele><time>2026-05-04T07:42:00.705Z</time></trkpt><trkpt lat="41.6617585" lon="-0.8646814"><ele>199.0</ele><time>2026-05-04T07:42:01.705Z</time></trkpt><trkpt lat="41.6618245" lon="-0.8647258"><ele>199.0</ele><time>2026-05-04T07:42:02.704Z</time></trkpt><trkpt lat="41.6618854" lon="-0.864763"><ele>199.0</ele><time>2026-05-04T07:42:03.705Z</time></trkpt><trkpt lat="41.6619483" lon="-0.864786"><ele>199.0</ele><time>2026-05-04T07:42:04.705Z</time></trkpt><trkpt lat="41.6620441" lon="-0.8647858"><ele>198.99999999999997</ele><time>2026-05-04T07:42:06.705Z</time></trkpt><trkpt lat="41.6621096" lon="-0.8647489"><ele>199.0</ele><time>2026-05-04T07:42:10.705Z</time></trkpt><trkpt lat="41.6621761" lon="-0.8647133"><ele>198.6</ele><time>2026-05-04T07:42:12.705Z</time></trkpt><trkpt lat="41.6622497" lon="-0.8646465"><ele>198.2</ele><time>2026-05-04T07:42:14.704Z</time></trkpt><trkpt lat="41.6623084" lon="-0.8645437"><ele>197.79999999999998</ele><time>2026-05-04T07:42:16.705Z</time></trkpt><trkpt lat="41.6623552" lon="-0.8644345"><ele>197.39999999999998</ele><time>2026-05-04T07:42:18.705Z</time></trkpt><trkpt lat="41.6624057" lon="-0.8643226"><ele>197.0</ele><time>2026-05-04T07:42:20.705Z</time></trkpt><trkpt lat="41.662447" lon="-0.8642233"><ele>198.0</ele><time>2026-05-04T07:42:22.705Z</time></trkpt><trkpt lat="41.6624963" lon="-0.8641137"><ele>199.0</ele><time>2026-05-04T07:42:24.705Z</time></trkpt><trkpt lat="41.6625554" lon="-0.8639601"><ele>200.0</ele><time>2026-05-04T07:42:26.705Z</time></trkpt><trkpt lat="41.6625892" lon="-0.863872"><ele>201.0</ele><time>2026-05-04T07:42:27.704Z</time></trkpt><trkpt lat="41.6626228" lon="-0.8637786"><ele>202.0</ele><time>2026-05-04T07:42:28.705Z</time></trkpt><trkpt lat="41.6626602" lon="-0.8636814"><ele>202.0</ele><time>2026-05-04T07:42:29.704Z</time></trkpt><trkpt lat="41.6627024" lon="-0.8635801"><ele>202.0</ele><time>2026-05-04T07:42:30.705Z</time></trkpt><trkpt lat="41.6627461" lon="-0.8634758"><ele>202.0</ele><time>2026-05-04T07:42:31.704Z</time></trkpt><trkpt lat="41.6627935" lon="-0.8633649"><ele>202.0</ele><time>2026-05-04T07:42:32.705Z</time></trkpt><trkpt lat="41.6628401" lon="-0.8632539"><ele>202.0</ele><time>2026-05-04T07:42:33.705Z</time></trkpt><trkpt lat="41.6628817" lon="-0.8631494"><ele>202.0</ele><time>2026-05-04T07:42:34.704Z</time></trkpt><trkpt lat="41.662924" lon="-0.8630463"><ele>202.0</ele><time>2026-05-04T07:42:35.705Z</time></trkpt><trkpt lat="41.6629685" lon="-0.8629346"><ele>202.0</ele><time>2026-05-04T07:42:36.705Z</time></trkpt><trkpt lat="41.6630131" lon="-0.8628258"><ele>202.0</ele><time>2026-05-04T07:42:37.705Z</time></trkpt><trkpt lat="41.6630605" lon="-0.8627137"><ele>202.0</ele><time>2026-05-04T07:42:38.705Z</time></trkpt><trkpt lat="41.66311" lon="-0.8626014"><ele>201.99999999999997</ele><time>2026-05-04T07:42:39.705Z</time></trkpt><trkpt lat="41.6631612" lon="-0.862488"><ele>202.0</ele><time>2026-05-04T07:42:40.704Z</time></trkpt><trkpt lat="41.6632105" lon="-0.862373"><ele>202.0</ele><time>2026-05-04T07:42:41.705Z</time></trkpt><trkpt lat="41.663257" lon="-0.8622652"><ele>202.0</ele><time>2026-05-04T07:42:42.705Z</time></trkpt><trkpt lat="41.6632965" lon="-0.8621689"><ele>201.99999999999997</ele><time>2026-05-04T07:42:43.704Z</time></trkpt><trkpt lat="41.6633288" lon="-0.862088"><ele>202.0</ele><time>2026-05-04T07:42:44.704Z</time></trkpt><trkpt lat="41.66338" lon="-0.8619578"><ele>201.99999999999997</ele><time>2026-05-04T07:42:46.705Z</time></trkpt><trkpt lat="41.6634155" lon="-0.8618633"><ele>202.0</ele><time>2026-05-04T07:42:49.705Z</time></trkpt><trkpt lat="41.6634679" lon="-0.8617626"><ele>202.0</ele><time>2026-05-04T07:43:21.706Z</time></trkpt><trkpt lat="41.663521" lon="-0.8616248"><ele>202.0</ele><time>2026-05-04T07:43:23.706Z</time></trkpt><trkpt lat="41.663553" lon="-0.8615426"><ele>201.99999999999997</ele><time>2026-05-04T07:43:24.706Z</time></trkpt><trkpt lat="41.6635886" lon="-0.861458"><ele>202.0</ele><time>2026-05-04T07:43:25.705Z</time></trkpt><trkpt lat="41.6636281" lon="-0.8613633"><ele>201.33333333333331</ele><time>2026-05-04T07:43:26.705Z</time></trkpt><trkpt lat="41.6636706" lon="-0.8612665"><ele>200.66666666666666</ele><time>2026-05-04T07:43:27.706Z</time></trkpt><trkpt lat="41.6637126" lon="-0.8611618"><ele>200.0</ele><time>2026-05-04T07:43:28.706Z</time></trkpt><trkpt lat="41.6637533" lon="-0.8610629"><ele>199.33333333333331</ele><time>2026-05-04T07:43:29.706Z</time></trkpt><trkpt lat="41.6637964" lon="-0.8609582"><ele>198.66666666666666</ele><time>2026-05-04T07:43:30.706Z</time></trkpt><trkpt lat="41.6638416" lon="-0.8608541"><ele>198.0</ele><time>2026-05-04T07:43:31.706Z</time></trkpt><trkpt lat="41.6638875" lon="-0.8607443"><ele>198.0</ele><time>2026-05-04T07:43:32.706Z</time></trkpt><trkpt lat="41.6639359" lon="-0.8606303"><ele>198.0</ele><time>2026-05-04T07:43:33.706Z</time></trkpt><trkpt lat="41.6639852" lon="-0.8605173"><ele>198.0</ele><time>2026-05-04T07:43:34.706Z</time></trkpt><trkpt lat="41.6640307" lon="-0.8604048"><ele>198.0</ele><time>2026-05-04T07:43:35.706Z</time></trkpt><trkpt lat="41.6640764" lon="-0.8602953"><ele>198.0</ele><time>2026-05-04T07:43:36.706Z</time></trkpt><trkpt lat="41.6641214" lon="-0.8601867"><ele>198.8</ele><time>2026-05-04T07:43:37.705Z</time></trkpt><trkpt lat="41.6641637" lon="-0.860082"><ele>199.60000000000002</ele><time>2026-05-04T07:43:38.706Z</time></trkpt><trkpt lat="41.6642097" lon="-0.8599779"><ele>200.39999999999998</ele><time>2026-05-04T07:43:39.706Z</time></trkpt><trkpt lat="41.6642546" lon="-0.8598703"><ele>201.2</ele><time>2026-05-04T07:43:40.706Z</time></trkpt><trkpt lat="41.6642995" lon="-0.85976"><ele>202.0</ele><time>2026-05-04T07:43:41.706Z</time></trkpt><trkpt lat="41.6643473" lon="-0.859643"><ele>202.0</ele><time>2026-05-04T07:43:42.705Z</time></trkpt><trkpt lat="41.6643958" lon="-0.8595285"><ele>202.0</ele><time>2026-05-04T07:43:43.706Z</time></trkpt><trkpt lat="41.6644434" lon="-0.8594156"><ele>202.0</ele><time>2026-05-04T07:43:44.706Z</time></trkpt><trkpt lat="41.6644909" lon="-0.8592968"><ele>202.0</ele><time>2026-05-04T07:43:45.706Z</time></trkpt><trkpt lat="41.6645384" lon="-0.8591744"><ele>202.0</ele><time>2026-05-04T07:43:46.706Z</time></trkpt><trkpt lat="41.6645837" lon="-0.8590554"><ele>201.33333333333331</ele><time>2026-05-04T07:43:47.705Z</time></trkpt><trkpt lat="41.664616" lon="-0.858938"><ele>200.66666666666666</ele><time>2026-05-04T07:43:48.706Z</time></trkpt><trkpt lat="41.664635" lon="-0.8588256"><ele>200.0</ele><time>2026-05-04T07:43:49.706Z</time></trkpt><trkpt lat="41.6646383" lon="-0.8587205"><ele>199.33333333333331</ele><time>2026-05-04T07:43:50.706Z</time></trkpt><trkpt lat="41.6646358" lon="-0.8586079"><ele>198.66666666666666</ele><time>2026-05-04T07:43:51.706Z</time></trkpt><trkpt lat="41.6646269" lon="-0.8584961"><ele>198.0</ele><time>2026-05-04T07:43:52.706Z</time></trkpt><trkpt lat="41.6646194" lon="-0.8583819"><ele>198.0</ele><time>2026-05-04T07:43:53.706Z</time></trkpt><trkpt lat="41.6646234" lon="-0.8582661"><ele>198.0</ele><time>2026-05-04T07:43:54.706Z</time></trkpt><trkpt lat="41.6646246" lon="-0.8581451"><ele>198.0</ele><time>2026-05-04T07:43:55.706Z</time></trkpt><trkpt lat="41.6646351" lon="-0.8580263"><ele>198.0</ele><time>2026-05-04T07:43:56.706Z</time></trkpt><trkpt lat="41.6646546" lon="-0.8579147"><ele>198.0</ele><time>2026-05-04T07:43:57.706Z</time></trkpt><trkpt lat="41.6646855" lon="-0.8578077"><ele>198.0</ele><time>2026-05-04T07:43:58.706Z</time></trkpt><trkpt lat="41.6647275" lon="-0.8577207"><ele>198.0</ele><time>2026-05-04T07:43:59.706Z</time></trkpt><trkpt lat="41.6647781" lon="-0.8576347"><ele>198.0</ele><time>2026-05-04T07:44:00.706Z</time></trkpt><trkpt lat="41.6648402" lon="-0.8575603"><ele>198.0</ele><time>2026-05-04T07:44:01.706Z</time></trkpt><trkpt lat="41.6649117" lon="-0.8575"><ele>198.0</ele><time>2026-05-04T07:44:02.706Z</time></trkpt><trkpt lat="41.6649882" lon="-0.8574461"><ele>198.0</ele><time>2026-05-04T07:44:03.706Z</time></trkpt><trkpt lat="41.6650692" lon="-0.857392"><ele>198.0</ele><time>2026-05-04T07:44:04.705Z</time></trkpt><trkpt lat="41.6651533" lon="-0.8573419"><ele>198.0</ele><time>2026-05-04T07:44:05.706Z</time></trkpt><trkpt lat="41.6652352" lon="-0.8572784"><ele>198.0</ele><time>2026-05-04T07:44:06.706Z</time></trkpt><trkpt lat="41.6653072" lon="-0.8572042"><ele>198.0</ele><time>2026-05-04T07:44:07.706Z</time></trkpt><trkpt lat="41.6653687" lon="-0.8571166"><ele>198.0</ele><time>2026-05-04T07:44:08.706Z</time></trkpt><trkpt lat="41.6654163" lon="-0.8570182"><ele>198.0</ele><time>2026-05-04T07:44:09.706Z</time></trkpt><trkpt lat="41.6654606" lon="-0.8569119"><ele>198.33333333333334</ele><time>2026-05-04T07:44:10.705Z</time></trkpt><trkpt lat="41.6655038" lon="-0.8568098"><ele>198.66666666666669</ele><time>2026-05-04T07:44:11.706Z</time></trkpt><trkpt lat="41.6655456" lon="-0.8567078"><ele>199.0</ele><time>2026-05-04T07:44:12.706Z</time></trkpt><trkpt lat="41.6655835" lon="-0.8566131"><ele>199.33333333333334</ele><time>2026-05-04T07:44:13.706Z</time></trkpt><trkpt lat="41.6656226" lon="-0.8565256"><ele>199.66666666666669</ele><time>2026-05-04T07:44:14.706Z</time></trkpt><trkpt lat="41.665655" lon="-0.8564437"><ele>200.0</ele><time>2026-05-04T07:44:15.706Z</time></trkpt><trkpt lat="41.6656865" lon="-0.8563671"><ele>200.00000000000003</ele><time>2026-05-04T07:44:16.706Z</time></trkpt><trkpt lat="41.665719" lon="-0.8562936"><ele>200.0</ele><time>2026-05-04T07:44:17.706Z</time></trkpt><trkpt lat="41.6657691" lon="-0.8561707"><ele>200.0</ele><time>2026-05-04T07:44:19.706Z</time></trkpt><trkpt lat="41.665807" lon="-0.8560815"><ele>200.0</ele><time>2026-05-04T07:44:21.705Z</time></trkpt><trkpt lat="41.6658436" lon="-0.8559938"><ele>200.00000000000003</ele><time>2026-05-04T07:44:46.706Z</time></trkpt><trkpt lat="41.6658882" lon="-0.855888"><ele>200.0</ele><time>2026-05-04T07:44:48.705Z</time></trkpt><trkpt lat="41.665953" lon="-0.8557365"><ele>200.00000000000003</ele><time>2026-05-04T07:44:50.706Z</time></trkpt><trkpt lat="41.6659887" lon="-0.8556486"><ele>200.0</ele><time>2026-05-04T07:44:51.705Z</time></trkpt><trkpt lat="41.6660293" lon="-0.8555535"><ele>200.0</ele><time>2026-05-04T07:44:52.706Z</time></trkpt><trkpt lat="41.6660703" lon="-0.8554544"><ele>200.0</ele><time>2026-05-04T07:44:53.706Z</time></trkpt><trkpt lat="41.6661137" lon="-0.8553547"><ele>200.00000000000003</ele><time>2026-05-04T07:44:54.705Z</time></trkpt><trkpt lat="41.6661595" lon="-0.8552504"><ele>200.0</ele><time>2026-05-04T07:44:55.706Z</time></trkpt><trkpt lat="41.6662063" lon="-0.8551409"><ele>199.2</ele><time>2026-05-04T07:44:56.705Z</time></trkpt><trkpt lat="41.666253" lon="-0.8550312"><ele>198.4</ele><time>2026-05-04T07:44:57.705Z</time></trkpt><trkpt lat="41.6663018" lon="-0.8549208"><ele>197.60000000000002</ele><time>2026-05-04T07:44:58.706Z</time></trkpt><trkpt lat="41.6663484" lon="-0.8548048"><ele>196.8</ele><time>2026-05-04T07:44:59.706Z</time></trkpt><trkpt lat="41.6663966" lon="-0.8546885"><ele>196.0</ele><time>2026-05-04T07:45:00.706Z</time></trkpt><trkpt lat="41.6664452" lon="-0.8545712"><ele>196.0</ele><time>2026-05-04T07:45:01.706Z</time></trkpt><trkpt lat="41.6664935" lon="-0.854458"><ele>196.0</ele><time>2026-05-04T07:45:02.706Z</time></trkpt><trkpt lat="41.6665428" lon="-0.8543427"><ele>196.0</ele><time>2026-05-04T07:45:03.706Z</time></trkpt><trkpt lat="41.666592" lon="-0.8542241"><ele>196.0</ele><time>2026-05-04T07:45:04.706Z</time></trkpt><trkpt lat="41.666641" lon="-0.8541091"><ele>196.0</ele><time>2026-05-04T07:45:05.706Z</time></trkpt><trkpt lat="41.6666904" lon="-0.8539921"><ele>196.20000000000002</ele><time>2026-05-04T07:45:06.706Z</time></trkpt><trkpt lat="41.666735" lon="-0.853876"><ele>196.4</ele><time>2026-05-04T07:45:07.706Z</time></trkpt><trkpt lat="41.6667849" lon="-0.8537594"><ele>196.6</ele><time>2026-05-04T07:45:08.706Z</time></trkpt><trkpt lat="41.6668373" lon="-0.8536419"><ele>196.8</ele><time>2026-05-04T07:45:09.706Z</time></trkpt><trkpt lat="41.6668877" lon="-0.8535241"><ele>197.0</ele><time>2026-05-04T07:45:10.705Z</time></trkpt><trkpt lat="41.666937" lon="-0.8534035"><ele>197.2</ele><time>2026-05-04T07:45:11.705Z</time></trkpt><trkpt lat="41.6669866" lon="-0.853284"><ele>197.39999999999998</ele><time>2026-05-04T07:45:12.706Z</time></trkpt><trkpt lat="41.6670366" lon="-0.8531636"><ele>197.60000000000002</ele><time>2026-05-04T07:45:13.706Z</time></trkpt><trkpt lat="41.6670867" lon="-0.8530443"><ele>197.8</ele><time>2026-05-04T07:45:14.706Z</time></trkpt><trkpt lat="41.6671375" lon="-0.8529213"><ele>198.0</ele><time>2026-05-04T07:45:15.706Z</time></trkpt><trkpt lat="41.6671869" lon="-0.8527993"><ele>198.0</ele><time>2026-05-04T07:45:16.706Z</time></trkpt><trkpt lat="41.6672356" lon="-0.8526759"><ele>198.0</ele><time>2026-05-04T07:45:17.706Z</time></trkpt><trkpt lat="41.6672861" lon="-0.8525569"><ele>198.0</ele><time>2026-05-04T07:45:18.706Z</time></trkpt><trkpt lat="41.6673309" lon="-0.8524434"><ele>198.0</ele><time>2026-05-04T07:45:19.706Z</time></trkpt><trkpt lat="41.667377" lon="-0.8523343"><ele>198.0</ele><time>2026-05-04T07:45:20.706Z</time></trkpt><trkpt lat="41.6674207" lon="-0.8522269"><ele>197.83333333333334</ele><time>2026-05-04T07:45:21.706Z</time></trkpt><trkpt lat="41.667463" lon="-0.8521205"><ele>197.66666666666669</ele><time>2026-05-04T07:45:22.706Z</time></trkpt><trkpt lat="41.6674998" lon="-0.8520236"><ele>197.5</ele><time>2026-05-04T07:45:23.706Z</time></trkpt><trkpt lat="41.667534" lon="-0.8519308"><ele>197.33333333333334</ele><time>2026-05-04T07:45:24.706Z</time></trkpt><trkpt lat="41.6675604" lon="-0.8518492"><ele>197.16666666666669</ele><time>2026-05-04T07:45:25.705Z</time></trkpt><trkpt lat="41.6675895" lon="-0.851697"><ele>197.0</ele><time>2026-05-04T07:45:27.706Z</time></trkpt><trkpt lat="41.6675852" lon="-0.8515517"><ele>197.00000000000003</ele><time>2026-05-04T07:45:29.706Z</time></trkpt><trkpt lat="41.6675576" lon="-0.8514193"><ele>197.0</ele><time>2026-05-04T07:45:31.705Z</time></trkpt><trkpt lat="41.6675191" lon="-0.8513028"><ele>197.0</ele><time>2026-05-04T07:45:33.705Z</time></trkpt><trkpt lat="41.6674966" lon="-0.8511993"><ele>197.0</ele><time>2026-05-04T07:45:35.706Z</time></trkpt><trkpt lat="41.6674613" lon="-0.8510943"><ele>197.00000000000003</ele><time>2026-05-04T07:48:22.707Z</time></trkpt><trkpt lat="41.6674827" lon="-0.8510096"><ele>197.0</ele><time>2026-05-04T07:48:28.707Z</time></trkpt><trkpt lat="41.6675597" lon="-0.8510638"><ele>197.00000000000003</ele><time>2026-05-04T08:04:44.713Z</time></trkpt><trkpt lat="41.6676456" lon="-0.8510781"><ele>197.0</ele><time>2026-05-04T08:04:46.713Z</time></trkpt><trkpt lat="41.6677254" lon="-0.8510952"><ele>197.0</ele><time>2026-05-04T08:04:49.713Z</time></trkpt><trkpt lat="41.6677935" lon="-0.8510519"><ele>197.0</ele><time>2026-05-04T08:04:54.713Z</time></trkpt><trkpt lat="41.6678594" lon="-0.8510263"><ele>197.00000000000003</ele><time>2026-05-04T08:04:58.713Z</time></trkpt><trkpt lat="41.6679428" lon="-0.8509921"><ele>197.0</ele><time>2026-05-04T08:05:02.713Z</time></trkpt><trkpt lat="41.6680128" lon="-0.8508957"><ele>197.16666666666669</ele><time>2026-05-04T08:05:05.713Z</time></trkpt><trkpt lat="41.6680655" lon="-0.8507898"><ele>197.33333333333334</ele><time>2026-05-04T08:05:07.713Z</time></trkpt><trkpt lat="41.6681137" lon="-0.8506642"><ele>197.5</ele><time>2026-05-04T08:05:09.713Z</time></trkpt><trkpt lat="41.6681465" lon="-0.8505875"><ele>197.66666666666669</ele><time>2026-05-04T08:05:10.713Z</time></trkpt><trkpt lat="41.6681816" lon="-0.85051"><ele>197.83333333333334</ele><time>2026-05-04T08:05:11.713Z</time></trkpt><trkpt lat="41.6682148" lon="-0.8504254"><ele>198.0</ele><time>2026-05-04T08:05:12.713Z</time></trkpt><trkpt lat="41.6682491" lon="-0.8503442"><ele>198.0</ele><time>2026-05-04T08:05:13.713Z</time></trkpt><trkpt lat="41.6682821" lon="-0.8502593"><ele>198.0</ele><time>2026-05-04T08:05:14.713Z</time></trkpt><trkpt lat="41.6683197" lon="-0.8501742"><ele>198.0</ele><time>2026-05-04T08:05:15.712Z</time></trkpt><trkpt lat="41.6683569" lon="-0.8500854"><ele>198.0</ele><time>2026-05-04T08:05:16.714Z</time></trkpt><trkpt lat="41.6683967" lon="-0.849993"><ele>198.0</ele><time>2026-05-04T08:05:17.714Z</time></trkpt><trkpt lat="41.6684401" lon="-0.8498976"><ele>198.0</ele><time>2026-05-04T08:05:18.714Z</time></trkpt><trkpt lat="41.668483" lon="-0.8498019"><ele>197.8</ele><time>2026-05-04T08:05:19.714Z</time></trkpt><trkpt lat="41.6685263" lon="-0.8497014"><ele>197.60000000000002</ele><time>2026-05-04T08:05:20.714Z</time></trkpt><trkpt lat="41.6685677" lon="-0.8495946"><ele>197.39999999999998</ele><time>2026-05-04T08:05:21.714Z</time></trkpt><trkpt lat="41.6686178" lon="-0.8494777"><ele>197.2</ele><time>2026-05-04T08:05:22.714Z</time></trkpt><trkpt lat="41.6686605" lon="-0.8493628"><ele>197.0</ele><time>2026-05-04T08:05:23.714Z</time></trkpt><trkpt lat="41.6687083" lon="-0.8492524"><ele>197.39999999999998</ele><time>2026-05-04T08:05:24.714Z</time></trkpt><trkpt lat="41.6687548" lon="-0.8491392"><ele>197.79999999999998</ele><time>2026-05-04T08:05:25.713Z</time></trkpt><trkpt lat="41.6688037" lon="-0.8490228"><ele>198.2</ele><time>2026-05-04T08:05:26.714Z</time></trkpt><trkpt lat="41.6688521" lon="-0.8488974"><ele>198.6</ele><time>2026-05-04T08:05:27.714Z</time></trkpt><trkpt lat="41.6689082" lon="-0.8487775"><ele>199.0</ele><time>2026-05-04T08:05:28.714Z</time></trkpt><trkpt lat="41.6689581" lon="-0.8486568"><ele>199.0</ele><time>2026-05-04T08:05:29.714Z</time></trkpt><trkpt lat="41.6690084" lon="-0.8485322"><ele>199.0</ele><time>2026-05-04T08:05:30.714Z</time></trkpt><trkpt lat="41.6690605" lon="-0.8484117"><ele>199.0</ele><time>2026-05-04T08:05:31.714Z</time></trkpt><trkpt lat="41.6691118" lon="-0.8482902"><ele>199.0</ele><time>2026-05-04T08:05:32.714Z</time></trkpt><trkpt lat="41.6691587" lon="-0.8481687"><ele>199.0</ele><time>2026-05-04T08:05:33.714Z</time></trkpt><trkpt lat="41.6692093" lon="-0.8480485"><ele>199.2</ele><time>2026-05-04T08:05:34.714Z</time></trkpt><trkpt lat="41.6692613" lon="-0.8479293"><ele>199.39999999999998</ele><time>2026-05-04T08:05:35.714Z</time></trkpt><trkpt lat="41.6693143" lon="-0.8478122"><ele>199.6</ele><time>2026-05-04T08:05:36.714Z</time></trkpt><trkpt lat="41.6693669" lon="-0.8476901"><ele>199.8</ele><time>2026-05-04T08:05:37.714Z</time></trkpt><trkpt lat="41.669417" lon="-0.8475762"><ele>200.0</ele><time>2026-05-04T08:05:38.714Z</time></trkpt><trkpt lat="41.6694685" lon="-0.8474537"><ele>200.2</ele><time>2026-05-04T08:05:39.714Z</time></trkpt><trkpt lat="41.6695201" lon="-0.847326"><ele>200.4</ele><time>2026-05-04T08:05:40.714Z</time></trkpt><trkpt lat="41.6695684" lon="-0.8472039"><ele>200.60000000000002</ele><time>2026-05-04T08:05:41.714Z</time></trkpt><trkpt lat="41.6696192" lon="-0.8470896"><ele>200.8</ele><time>2026-05-04T08:05:42.714Z</time></trkpt><trkpt lat="41.6696641" lon="-0.8469762"><ele>201.0</ele><time>2026-05-04T08:05:43.714Z</time></trkpt><trkpt lat="41.669707" lon="-0.846879"><ele>201.5</ele><time>2026-05-04T08:05:44.714Z</time></trkpt><trkpt lat="41.6697436" lon="-0.846786"><ele>202.0</ele><time>2026-05-04T08:05:45.714Z</time></trkpt><trkpt lat="41.6697744" lon="-0.8467042"><ele>202.5</ele><time>2026-05-04T08:05:46.714Z</time></trkpt><trkpt lat="41.6698332" lon="-0.8465647"><ele>203.0</ele><time>2026-05-04T08:05:48.714Z</time></trkpt><trkpt lat="41.6698852" lon="-0.8464429"><ele>203.5</ele><time>2026-05-04T08:05:50.714Z</time></trkpt><trkpt lat="41.6699203" lon="-0.846354"><ele>204.0</ele><time>2026-05-04T08:05:52.714Z</time></trkpt><trkpt lat="41.6699517" lon="-0.8462731"><ele>204.0</ele><time>2026-05-04T08:05:55.714Z</time></trkpt><trkpt lat="41.6699981" lon="-0.8461842"><ele>204.0</ele><time>2026-05-04T08:06:23.714Z</time></trkpt><trkpt lat="41.6700482" lon="-0.8460779"><ele>204.0</ele><time>2026-05-04T08:06:25.714Z</time></trkpt><trkpt lat="41.6700828" lon="-0.8460043"><ele>204.0</ele><time>2026-05-04T08:06:26.714Z</time></trkpt><trkpt lat="41.670123" lon="-0.8459239"><ele>204.0</ele><time>2026-05-04T08:06:27.714Z</time></trkpt><trkpt lat="41.6701595" lon="-0.8458323"><ele>204.0</ele><time>2026-05-04T08:06:28.714Z</time></trkpt><trkpt lat="41.6701952" lon="-0.8457389"><ele>204.2</ele><time>2026-05-04T08:06:29.713Z</time></trkpt><trkpt lat="41.6702437" lon="-0.8456371"><ele>204.39999999999998</ele><time>2026-05-04T08:06:30.714Z</time></trkpt><trkpt lat="41.6702883" lon="-0.8455263"><ele>204.6</ele><time>2026-05-04T08:06:31.714Z</time></trkpt><trkpt lat="41.6703313" lon="-0.8454133"><ele>204.8</ele><time>2026-05-04T08:06:32.714Z</time></trkpt><trkpt lat="41.6703771" lon="-0.8452996"><ele>205.0</ele><time>2026-05-04T08:06:33.713Z</time></trkpt><trkpt lat="41.6704285" lon="-0.8451828"><ele>204.6</ele><time>2026-05-04T08:06:34.714Z</time></trkpt><trkpt lat="41.670483" lon="-0.8450724"><ele>204.2</ele><time>2026-05-04T08:06:35.713Z</time></trkpt><trkpt lat="41.670532" lon="-0.8449521"><ele>203.8</ele><time>2026-05-04T08:06:36.714Z</time></trkpt><trkpt lat="41.6705821" lon="-0.8448336"><ele>203.4</ele><time>2026-05-04T08:06:37.714Z</time></trkpt><trkpt lat="41.6706288" lon="-0.8447185"><ele>203.0</ele><time>2026-05-04T08:06:38.714Z</time></trkpt><trkpt lat="41.6706757" lon="-0.8445968"><ele>203.0</ele><time>2026-05-04T08:06:39.714Z</time></trkpt><trkpt lat="41.6707259" lon="-0.8444715"><ele>203.0</ele><time>2026-05-04T08:06:40.714Z</time></trkpt><trkpt lat="41.6707723" lon="-0.8443455"><ele>203.0</ele><time>2026-05-04T08:06:41.714Z</time></trkpt><trkpt lat="41.6708196" lon="-0.8442159"><ele>203.0</ele><time>2026-05-04T08:06:42.714Z</time></trkpt><trkpt lat="41.6708661" lon="-0.8440835"><ele>203.0</ele><time>2026-05-04T08:06:43.714Z</time></trkpt><trkpt lat="41.6709057" lon="-0.843958"><ele>203.0</ele><time>2026-05-04T08:06:44.714Z</time></trkpt><trkpt lat="41.670934" lon="-0.8438277"><ele>203.0</ele><time>2026-05-04T08:06:45.714Z</time></trkpt><trkpt lat="41.6709569" lon="-0.8436967"><ele>203.0</ele><time>2026-05-04T08:06:46.714Z</time></trkpt><trkpt lat="41.6709732" lon="-0.8435656"><ele>203.0</ele><time>2026-05-04T08:06:47.714Z</time></trkpt><trkpt lat="41.6709828" lon="-0.8434276"><ele>203.0</ele><time>2026-05-04T08:06:48.714Z</time></trkpt><trkpt lat="41.6709852" lon="-0.8432873"><ele>203.0</ele><time>2026-05-04T08:06:49.714Z</time></trkpt><trkpt lat="41.6709836" lon="-0.8431475"><ele>203.0</ele><time>2026-05-04T08:06:50.714Z</time></trkpt><trkpt lat="41.6709692" lon="-0.8430078"><ele>203.0</ele><time>2026-05-04T08:06:51.714Z</time></trkpt><trkpt lat="41.6709533" lon="-0.8428711"><ele>203.0</ele><time>2026-05-04T08:06:52.713Z</time></trkpt><trkpt lat="41.6709386" lon="-0.842731"><ele>203.0</ele><time>2026-05-04T08:06:53.714Z</time></trkpt><trkpt lat="41.6709213" lon="-0.8425899"><ele>202.4</ele><time>2026-05-04T08:06:54.713Z</time></trkpt><trkpt lat="41.670907" lon="-0.8424477"><ele>201.8</ele><time>2026-05-04T08:06:55.713Z</time></trkpt><trkpt lat="41.6708886" lon="-0.842303"><ele>201.2</ele><time>2026-05-04T08:06:56.714Z</time></trkpt><trkpt lat="41.6708745" lon="-0.8421555"><ele>200.6</ele><time>2026-05-04T08:06:57.714Z</time></trkpt><trkpt lat="41.6708653" lon="-0.842005"><ele>200.0</ele><time>2026-05-04T08:06:58.713Z</time></trkpt><trkpt lat="41.6708539" lon="-0.8418561"><ele>199.75</ele><time>2026-05-04T08:06:59.713Z</time></trkpt><trkpt lat="41.6708407" lon="-0.8417064"><ele>199.5</ele><time>2026-05-04T08:07:00.713Z</time></trkpt><trkpt lat="41.6708274" lon="-0.8415574"><ele>199.25</ele><time>2026-05-04T08:07:01.713Z</time></trkpt><trkpt lat="41.6708142" lon="-0.8414022"><ele>199.0</ele><time>2026-05-04T08:07:02.713Z</time></trkpt><trkpt lat="41.6707972" lon="-0.8412427"><ele>199.0</ele><time>2026-05-04T08:07:03.713Z</time></trkpt><trkpt lat="41.6707799" lon="-0.8410821"><ele>199.0</ele><time>2026-05-04T08:07:04.713Z</time></trkpt><trkpt lat="41.67076" lon="-0.8409275"><ele>199.0</ele><time>2026-05-04T08:07:05.713Z</time></trkpt><trkpt lat="41.6707296" lon="-0.8407759"><ele>199.0</ele><time>2026-05-04T08:07:06.713Z</time></trkpt><trkpt lat="41.670689" lon="-0.8406367"><ele>199.0</ele><time>2026-05-04T08:07:07.713Z</time></trkpt><trkpt lat="41.6706329" lon="-0.8405004"><ele>199.0</ele><time>2026-05-04T08:07:08.713Z</time></trkpt><trkpt lat="41.670572" lon="-0.8403767"><ele>199.0</ele><time>2026-05-04T08:07:09.712Z</time></trkpt><trkpt lat="41.6705091" lon="-0.840271"><ele>199.0</ele><time>2026-05-04T08:07:10.713Z</time></trkpt><trkpt lat="41.6704426" lon="-0.8401751"><ele>199.0</ele><time>2026-05-04T08:07:11.713Z</time></trkpt><trkpt lat="41.6703741" lon="-0.8400965"><ele>199.49999999999997</ele><time>2026-05-04T08:07:12.714Z</time></trkpt><trkpt lat="41.6703135" lon="-0.840011"><ele>200.0</ele><time>2026-05-04T08:07:13.714Z</time></trkpt><trkpt lat="41.6702536" lon="-0.8399274"><ele>200.5</ele><time>2026-05-04T08:07:14.714Z</time></trkpt><trkpt lat="41.6701932" lon="-0.8398431"><ele>201.0</ele><time>2026-05-04T08:07:15.714Z</time></trkpt><trkpt lat="41.6701378" lon="-0.8397614"><ele>201.49999999999997</ele><time>2026-05-04T08:07:16.714Z</time></trkpt><trkpt lat="41.6700861" lon="-0.8396879"><ele>202.0</ele><time>2026-05-04T08:07:17.714Z</time></trkpt><trkpt lat="41.6700365" lon="-0.8396184"><ele>202.66666666666666</ele><time>2026-05-04T08:07:18.714Z</time></trkpt><trkpt lat="41.6699884" lon="-0.8395532"><ele>203.33333333333331</ele><time>2026-05-04T08:07:19.714Z</time></trkpt><trkpt lat="41.6699383" lon="-0.8394898"><ele>204.0</ele><time>2026-05-04T08:07:20.713Z</time></trkpt><trkpt lat="41.6698887" lon="-0.8394256"><ele>204.66666666666669</ele><time>2026-05-04T08:07:21.714Z</time></trkpt><trkpt lat="41.6698484" lon="-0.8393517"><ele>205.33333333333334</ele><time>2026-05-04T08:07:22.713Z</time></trkpt><trkpt lat="41.6698028" lon="-0.8392883"><ele>206.0</ele><time>2026-05-04T08:07:23.714Z</time></trkpt><trkpt lat="41.6697176" lon="-0.8391604"><ele>206.00000000000003</ele><time>2026-05-04T08:07:25.714Z</time></trkpt><trkpt lat="41.66967" lon="-0.8390868"><ele>206.0</ele><time>2026-05-04T08:07:26.714Z</time></trkpt><trkpt lat="41.669619" lon="-0.8390103"><ele>206.0</ele><time>2026-05-04T08:07:27.714Z</time></trkpt><trkpt lat="41.6695613" lon="-0.8389254"><ele>206.0</ele><time>2026-05-04T08:07:28.714Z</time></trkpt><trkpt lat="41.6694995" lon="-0.838841"><ele>206.00000000000003</ele><time>2026-05-04T08:07:29.714Z</time></trkpt><trkpt lat="41.6694407" lon="-0.8387532"><ele>206.0</ele><time>2026-05-04T08:07:30.714Z</time></trkpt><trkpt lat="41.6693875" lon="-0.838672"><ele>205.99999999999997</ele><time>2026-05-04T08:07:31.714Z</time></trkpt><trkpt lat="41.6693342" lon="-0.838589"><ele>206.0</ele><time>2026-05-04T08:07:32.713Z</time></trkpt><trkpt lat="41.6692828" lon="-0.838513"><ele>206.0</ele><time>2026-05-04T08:07:33.714Z</time></trkpt><trkpt lat="41.6692354" lon="-0.8384439"><ele>206.0</ele><time>2026-05-04T08:07:34.714Z</time></trkpt><trkpt lat="41.6691875" lon="-0.8383704"><ele>206.0</ele><time>2026-05-04T08:07:35.714Z</time></trkpt><trkpt lat="41.6691411" lon="-0.8382906"><ele>205.99999999999997</ele><time>2026-05-04T08:07:36.714Z</time></trkpt><trkpt lat="41.6690999" lon="-0.838226"><ele>206.0</ele><time>2026-05-04T08:07:37.714Z</time></trkpt><trkpt lat="41.6690544" lon="-0.8381606"><ele>205.99999999999997</ele><time>2026-05-04T08:07:38.714Z</time></trkpt><trkpt lat="41.6690078" lon="-0.8380944"><ele>206.0</ele><time>2026-05-04T08:07:39.714Z</time></trkpt><trkpt lat="41.6689563" lon="-0.8380253"><ele>206.0</ele><time>2026-05-04T08:07:40.714Z</time></trkpt><trkpt lat="41.6689054" lon="-0.837955"><ele>206.0</ele><time>2026-05-04T08:07:41.714Z</time></trkpt><trkpt lat="41.6688519" lon="-0.8378877"><ele>206.0</ele><time>2026-05-04T08:07:42.713Z</time></trkpt><trkpt lat="41.668799" lon="-0.8378252"><ele>205.99999999999997</ele><time>2026-05-04T08:07:43.714Z</time></trkpt><trkpt lat="41.6687508" lon="-0.8377542"><ele>206.0</ele><time>2026-05-04T08:07:44.714Z</time></trkpt><trkpt lat="41.6687002" lon="-0.8376846"><ele>206.00000000000003</ele><time>2026-05-04T08:07:45.714Z</time></trkpt><trkpt lat="41.6686545" lon="-0.837614"><ele>206.0</ele><time>2026-05-04T08:07:46.714Z</time></trkpt><trkpt lat="41.6686136" lon="-0.8375412"><ele>206.0</ele><time>2026-05-04T08:07:47.714Z</time></trkpt><trkpt lat="41.6685681" lon="-0.8374755"><ele>206.0</ele><time>2026-05-04T08:07:48.714Z</time></trkpt><trkpt lat="41.6685249" lon="-0.837407"><ele>206.00000000000003</ele><time>2026-05-04T08:07:49.714Z</time></trkpt><trkpt lat="41.6684839" lon="-0.8373411"><ele>206.0</ele><time>2026-05-04T08:07:50.714Z</time></trkpt><trkpt lat="41.6683953" lon="-0.8372448"><ele>206.00000000000003</ele><time>2026-05-04T08:07:52.714Z</time></trkpt><trkpt lat="41.6682892" lon="-0.8372136"><ele>206.0</ele><time>2026-05-04T08:07:54.714Z</time></trkpt><trkpt lat="41.6682222" lon="-0.8372085"><ele>206.0</ele><time>2026-05-04T08:07:55.714Z</time></trkpt><trkpt lat="41.6681514" lon="-0.8371896"><ele>206.0</ele><time>2026-05-04T08:07:56.714Z</time></trkpt><trkpt lat="41.6680821" lon="-0.8371409"><ele>206.00000000000003</ele><time>2026-05-04T08:07:57.714Z</time></trkpt><trkpt lat="41.6680272" lon="-0.8370712"><ele>206.0</ele><time>2026-05-04T08:07:58.714Z</time></trkpt><trkpt lat="41.667998" lon="-0.8369871"><ele>205.99999999999997</ele><time>2026-05-04T08:07:59.714Z</time></trkpt><trkpt lat="41.6679892" lon="-0.8368991"><ele>206.0</ele><time>2026-05-04T08:08:00.714Z</time></trkpt><trkpt lat="41.6679898" lon="-0.8368136"><ele>206.0</ele><time>2026-05-04T08:08:01.714Z</time></trkpt><trkpt lat="41.6679916" lon="-0.8367284"><ele>206.0</ele><time>2026-05-04T08:08:02.714Z</time></trkpt><trkpt lat="41.6679832" lon="-0.8366367"><ele>206.0</ele><time>2026-05-04T08:08:03.714Z</time></trkpt><trkpt lat="41.667958" lon="-0.8365478"><ele>205.99999999999997</ele><time>2026-05-04T08:08:04.714Z</time></trkpt><trkpt lat="41.6679184" lon="-0.8364657"><ele>206.0</ele><time>2026-05-04T08:08:05.713Z</time></trkpt><trkpt lat="41.6678702" lon="-0.8363842"><ele>206.50000000000003</ele><time>2026-05-04T08:08:06.714Z</time></trkpt><trkpt lat="41.6678186" lon="-0.836299"><ele>207.0</ele><time>2026-05-04T08:08:07.714Z</time></trkpt><trkpt lat="41.6677666" lon="-0.8362015"><ele>207.5</ele><time>2026-05-04T08:08:08.714Z</time></trkpt><trkpt lat="41.6677141" lon="-0.836103"><ele>208.0</ele><time>2026-05-04T08:08:09.714Z</time></trkpt><trkpt lat="41.6676658" lon="-0.8360038"><ele>208.50000000000003</ele><time>2026-05-04T08:08:10.714Z</time></trkpt><trkpt lat="41.6676282" lon="-0.8359118"><ele>209.0</ele><time>2026-05-04T08:08:11.714Z</time></trkpt><trkpt lat="41.6675979" lon="-0.8358217"><ele>209.50000000000003</ele><time>2026-05-04T08:08:12.714Z</time></trkpt><trkpt lat="41.6675714" lon="-0.8357333"><ele>210.0</ele><time>2026-05-04T08:08:13.713Z</time></trkpt><trkpt lat="41.6675514" lon="-0.8356421"><ele>210.5</ele><time>2026-05-04T08:08:14.714Z</time></trkpt><trkpt lat="41.6675354" lon="-0.8355408"><ele>211.0</ele><time>2026-05-04T08:08:15.714Z</time></trkpt><trkpt lat="41.6675177" lon="-0.835434"><ele>211.50000000000003</ele><time>2026-05-04T08:08:16.713Z</time></trkpt><trkpt lat="41.6675031" lon="-0.8353303"><ele>212.0</ele><time>2026-05-04T08:08:17.713Z</time></trkpt><trkpt lat="41.6674932" lon="-0.83523"><ele>212.16666666666669</ele><time>2026-05-04T08:08:18.714Z</time></trkpt><trkpt lat="41.6674768" lon="-0.835135"><ele>212.33333333333334</ele><time>2026-05-04T08:08:19.714Z</time></trkpt><trkpt lat="41.6674631" lon="-0.8350422"><ele>212.5</ele><time>2026-05-04T08:08:20.714Z</time></trkpt><trkpt lat="41.6674388" lon="-0.8348827"><ele>212.66666666666669</ele><time>2026-05-04T08:08:22.713Z</time></trkpt><trkpt lat="41.6674182" lon="-0.834763"><ele>212.83333333333334</ele><time>2026-05-04T08:08:24.714Z</time></trkpt><trkpt lat="41.6674079" lon="-0.8346718"><ele>213.0</ele><time>2026-05-04T08:08:26.713Z</time></trkpt><trkpt lat="41.6673812" lon="-0.8345664"><ele>213.0</ele><time>2026-05-04T08:08:52.714Z</time></trkpt><trkpt lat="41.6673641" lon="-0.83446"><ele>213.0</ele><time>2026-05-04T08:08:54.714Z</time></trkpt><trkpt lat="41.6673452" lon="-0.8343522"><ele>213.0</ele><time>2026-05-04T08:08:56.714Z</time></trkpt><trkpt lat="41.6673407" lon="-0.834231"><ele>213.0</ele><time>2026-05-04T08:08:58.714Z</time></trkpt><trkpt lat="41.6673245" lon="-0.8341192"><ele>213.0</ele><time>2026-05-04T08:09:00.714Z</time></trkpt><trkpt lat="41.6673083" lon="-0.834034"><ele>213.0</ele><time>2026-05-04T08:09:02.713Z</time></trkpt><trkpt lat="41.667292" lon="-0.8339136"><ele>213.28571428571428</ele><time>2026-05-04T08:09:05.714Z</time></trkpt><trkpt lat="41.66728" lon="-0.83383"><ele>213.57142857142856</ele><time>2026-05-04T08:09:07.714Z</time></trkpt><trkpt lat="41.6672654" lon="-0.8337308"><ele>213.85714285714283</ele><time>2026-05-04T08:09:10.714Z</time></trkpt><trkpt lat="41.667253" lon="-0.8336373"><ele>214.14285714285714</ele><time>2026-05-04T08:09:13.714Z</time></trkpt><trkpt lat="41.6672292" lon="-0.8335197"><ele>214.42857142857144</ele><time>2026-05-04T08:09:32.714Z</time></trkpt><trkpt lat="41.6672184" lon="-0.833426"><ele>214.7142857142857</ele><time>2026-05-04T08:09:34.714Z</time></trkpt><trkpt lat="41.6672033" lon="-0.8333308"><ele>215.0</ele><time>2026-05-04T08:09:36.713Z</time></trkpt><trkpt lat="41.6671857" lon="-0.8331866"><ele>214.83333333333334</ele><time>2026-05-04T08:09:38.714Z</time></trkpt><trkpt lat="41.667174" lon="-0.8330546"><ele>214.66666666666669</ele><time>2026-05-04T08:09:40.714Z</time></trkpt><trkpt lat="41.6671554" lon="-0.8329482"><ele>214.5</ele><time>2026-05-04T08:09:42.714Z</time></trkpt><trkpt lat="41.6671307" lon="-0.8328371"><ele>214.33333333333331</ele><time>2026-05-04T08:09:44.714Z</time></trkpt><trkpt lat="41.667122" lon="-0.8327505"><ele>214.16666666666666</ele><time>2026-05-04T08:09:45.714Z</time></trkpt><trkpt lat="41.6671116" lon="-0.8326594"><ele>214.0</ele><time>2026-05-04T08:09:46.714Z</time></trkpt><trkpt lat="41.667096" lon="-0.8325585"><ele>213.99999999999997</ele><time>2026-05-04T08:09:47.714Z</time></trkpt><trkpt lat="41.6670745" lon="-0.8324583"><ele>214.0</ele><time>2026-05-04T08:09:48.714Z</time></trkpt><trkpt lat="41.667063" lon="-0.8323582"><ele>214.0</ele><time>2026-05-04T08:09:49.713Z</time></trkpt><trkpt lat="41.6670509" lon="-0.8322579"><ele>214.0</ele><time>2026-05-04T08:09:50.714Z</time></trkpt><trkpt lat="41.6670387" lon="-0.832159"><ele>213.99999999999997</ele><time>2026-05-04T08:09:51.714Z</time></trkpt><trkpt lat="41.6670296" lon="-0.8320605"><ele>214.0</ele><time>2026-05-04T08:09:52.713Z</time></trkpt><trkpt lat="41.6670141" lon="-0.8319581"><ele>213.99999999999997</ele><time>2026-05-04T08:09:53.714Z</time></trkpt><trkpt lat="41.6670064" lon="-0.8318595"><ele>214.0</ele><time>2026-05-04T08:09:54.714Z</time></trkpt><trkpt lat="41.6669918" lon="-0.8317616"><ele>214.0</ele><time>2026-05-04T08:09:55.714Z</time></trkpt><trkpt lat="41.6669753" lon="-0.8316637"><ele>214.0</ele><time>2026-05-04T08:09:56.714Z</time></trkpt><trkpt lat="41.6669613" lon="-0.8315644"><ele>213.99999999999997</ele><time>2026-05-04T08:09:57.714Z</time></trkpt><trkpt lat="41.666946" lon="-0.8314569"><ele>214.0</ele><time>2026-05-04T08:09:58.715Z</time></trkpt><trkpt lat="41.6669283" lon="-0.8313457"><ele>213.99999999999997</ele><time>2026-05-04T08:09:59.714Z</time></trkpt><trkpt lat="41.6669087" lon="-0.8312324"><ele>214.0</ele><time>2026-05-04T08:10:00.715Z</time></trkpt><trkpt lat="41.6668938" lon="-0.8311178"><ele>214.0</ele><time>2026-05-04T08:10:01.715Z</time></trkpt><trkpt lat="41.6668761" lon="-0.8310007"><ele>214.0</ele><time>2026-05-04T08:10:02.715Z</time></trkpt><trkpt lat="41.6668574" lon="-0.8308807"><ele>213.99999999999997</ele><time>2026-05-04T08:10:03.714Z</time></trkpt><trkpt lat="41.6668357" lon="-0.8307597"><ele>214.0</ele><time>2026-05-04T08:10:04.714Z</time></trkpt><trkpt lat="41.6668168" lon="-0.8306348"><ele>213.79999999999998</ele><time>2026-05-04T08:10:05.715Z</time></trkpt><trkpt lat="41.6668012" lon="-0.8305123"><ele>213.59999999999997</ele><time>2026-05-04T08:10:06.715Z</time></trkpt><trkpt lat="41.6667917" lon="-0.8303852"><ele>213.4</ele><time>2026-05-04T08:10:07.715Z</time></trkpt><trkpt lat="41.6667864" lon="-0.8302501"><ele>213.2</ele><time>2026-05-04T08:10:08.714Z</time></trkpt><trkpt lat="41.666793" lon="-0.8301125"><ele>213.0</ele><time>2026-05-04T08:10:09.715Z</time></trkpt><trkpt lat="41.6667962" lon="-0.8299755"><ele>213.0</ele><time>2026-05-04T08:10:10.715Z</time></trkpt><trkpt lat="41.6668024" lon="-0.8298543"><ele>213.0</ele><time>2026-05-04T08:10:11.715Z</time></trkpt><trkpt lat="41.6668078" lon="-0.8297311"><ele>213.0</ele><time>2026-05-04T08:10:12.714Z</time></trkpt><trkpt lat="41.6668146" lon="-0.8296018"><ele>213.0</ele><time>2026-05-04T08:10:13.715Z</time></trkpt><trkpt lat="41.6668243" lon="-0.8294683"><ele>213.0</ele><time>2026-05-04T08:10:14.715Z</time></trkpt><trkpt lat="41.6668307" lon="-0.8293345"><ele>213.2</ele><time>2026-05-04T08:10:15.715Z</time></trkpt><trkpt lat="41.6668407" lon="-0.8292009"><ele>213.4</ele><time>2026-05-04T08:10:16.715Z</time></trkpt><trkpt lat="41.6668477" lon="-0.8290704"><ele>213.59999999999997</ele><time>2026-05-04T08:10:17.715Z</time></trkpt><trkpt lat="41.6668541" lon="-0.8289383"><ele>213.79999999999998</ele><time>2026-05-04T08:10:18.715Z</time></trkpt><trkpt lat="41.6668636" lon="-0.8288021"><ele>214.0</ele><time>2026-05-04T08:10:19.715Z</time></trkpt><trkpt lat="41.6668733" lon="-0.828668"><ele>214.0</ele><time>2026-05-04T08:10:20.715Z</time></trkpt><trkpt lat="41.6668826" lon="-0.8285358"><ele>213.99999999999997</ele><time>2026-05-04T08:10:21.714Z</time></trkpt><trkpt lat="41.6668925" lon="-0.8284026"><ele>213.99999999999997</ele><time>2026-05-04T08:10:22.714Z</time></trkpt><trkpt lat="41.6668955" lon="-0.8282671"><ele>214.0</ele><time>2026-05-04T08:10:23.715Z</time></trkpt><trkpt lat="41.6668893" lon="-0.828133"><ele>214.0</ele><time>2026-05-04T08:10:24.715Z</time></trkpt><trkpt lat="41.6668771" lon="-0.828004"><ele>213.99999999999997</ele><time>2026-05-04T08:10:25.715Z</time></trkpt><trkpt lat="41.6668603" lon="-0.8278824"><ele>214.0</ele><time>2026-05-04T08:10:26.715Z</time></trkpt><trkpt lat="41.6668451" lon="-0.8277671"><ele>214.0</ele><time>2026-05-04T08:10:27.714Z</time></trkpt><trkpt lat="41.6668298" lon="-0.8276581"><ele>214.0</ele><time>2026-05-04T08:10:28.715Z</time></trkpt><trkpt lat="41.6668138" lon="-0.827548"><ele>213.99999999999997</ele><time>2026-05-04T08:10:29.715Z</time></trkpt><trkpt lat="41.6667966" lon="-0.8274362"><ele>214.0</ele><time>2026-05-04T08:10:30.714Z</time></trkpt><trkpt lat="41.6667847" lon="-0.8273154"><ele>213.99999999999997</ele><time>2026-05-04T08:10:31.714Z</time></trkpt><trkpt lat="41.6667689" lon="-0.8272075"><ele>214.0</ele><time>2026-05-04T08:10:32.715Z</time></trkpt><trkpt lat="41.6667544" lon="-0.8271016"><ele>214.0</ele><time>2026-05-04T08:10:33.715Z</time></trkpt><trkpt lat="41.6667435" lon="-0.8269913"><ele>214.0</ele><time>2026-05-04T08:10:34.715Z</time></trkpt><trkpt lat="41.6667298" lon="-0.8268755"><ele>213.99999999999997</ele><time>2026-05-04T08:10:35.715Z</time></trkpt><trkpt lat="41.6667174" lon="-0.8267515"><ele>214.0</ele><time>2026-05-04T08:10:36.715Z</time></trkpt><trkpt lat="41.6667027" lon="-0.8266258"><ele>214.2</ele><time>2026-05-04T08:10:37.714Z</time></trkpt><trkpt lat="41.6666912" lon="-0.8264925"><ele>214.39999999999998</ele><time>2026-05-04T08:10:38.715Z</time></trkpt><trkpt lat="41.6666773" lon="-0.8263671"><ele>214.6</ele><time>2026-05-04T08:10:39.715Z</time></trkpt><trkpt lat="41.6666598" lon="-0.8262474"><ele>214.8</ele><time>2026-05-04T08:10:40.715Z</time></trkpt><trkpt lat="41.6666537" lon="-0.826124"><ele>215.0</ele><time>2026-05-04T08:10:41.715Z</time></trkpt><trkpt lat="41.6666303" lon="-0.8259967"><ele>214.8</ele><time>2026-05-04T08:10:42.715Z</time></trkpt><trkpt lat="41.6666034" lon="-0.8258646"><ele>214.6</ele><time>2026-05-04T08:10:43.714Z</time></trkpt><trkpt lat="41.6665731" lon="-0.8257382"><ele>214.39999999999998</ele><time>2026-05-04T08:10:44.715Z</time></trkpt><trkpt lat="41.6665361" lon="-0.825629"><ele>214.2</ele><time>2026-05-04T08:10:45.715Z</time></trkpt><trkpt lat="41.6664911" lon="-0.8255374"><ele>214.0</ele><time>2026-05-04T08:10:46.715Z</time></trkpt><trkpt lat="41.6664472" lon="-0.8254466"><ele>214.0</ele><time>2026-05-04T08:10:47.715Z</time></trkpt><trkpt lat="41.6664096" lon="-0.8253637"><ele>213.99999999999997</ele><time>2026-05-04T08:10:48.715Z</time></trkpt><trkpt lat="41.6663492" lon="-0.8252384"><ele>213.99999999999997</ele><time>2026-05-04T08:10:50.715Z</time></trkpt><trkpt lat="41.6663001" lon="-0.8251438"><ele>214.0</ele><time>2026-05-04T08:10:52.715Z</time></trkpt><trkpt lat="41.6662157" lon="-0.8250506"><ele>214.0</ele><time>2026-05-04T08:10:54.715Z</time></trkpt><trkpt lat="41.6661559" lon="-0.824994"><ele>213.6</ele><time>2026-05-04T08:10:55.715Z</time></trkpt><trkpt lat="41.6660903" lon="-0.8249267"><ele>213.2</ele><time>2026-05-04T08:10:56.715Z</time></trkpt><trkpt lat="41.6660125" lon="-0.8248581"><ele>212.79999999999998</ele><time>2026-05-04T08:10:57.715Z</time></trkpt><trkpt lat="41.6659327" lon="-0.8247887"><ele>212.39999999999998</ele><time>2026-05-04T08:10:58.715Z</time></trkpt><trkpt lat="41.6658532" lon="-0.8247146"><ele>212.0</ele><time>2026-05-04T08:10:59.715Z</time></trkpt><trkpt lat="41.665774" lon="-0.824631"><ele>212.0</ele><time>2026-05-04T08:11:00.715Z</time></trkpt><trkpt lat="41.6656922" lon="-0.8245428"><ele>212.0</ele><time>2026-05-04T08:11:01.715Z</time></trkpt><trkpt lat="41.6656051" lon="-0.8244511"><ele>212.0</ele><time>2026-05-04T08:11:02.715Z</time></trkpt><trkpt lat="41.6655246" lon="-0.8243536"><ele>212.0</ele><time>2026-05-04T08:11:03.715Z</time></trkpt><trkpt lat="41.6654451" lon="-0.8242529"><ele>212.0</ele><time>2026-05-04T08:11:04.715Z</time></trkpt><trkpt lat="41.6653669" lon="-0.8241529"><ele>212.25</ele><time>2026-05-04T08:11:05.715Z</time></trkpt><trkpt lat="41.6652817" lon="-0.8240509"><ele>212.5</ele><time>2026-05-04T08:11:06.715Z</time></trkpt><trkpt lat="41.6651982" lon="-0.8239489"><ele>212.75</ele><time>2026-05-04T08:11:07.715Z</time></trkpt><trkpt lat="41.6651124" lon="-0.8238496"><ele>213.0</ele><time>2026-05-04T08:11:08.715Z</time></trkpt><trkpt lat="41.6650277" lon="-0.8237479"><ele>213.0</ele><time>2026-05-04T08:11:09.715Z</time></trkpt><trkpt lat="41.6649395" lon="-0.8236433"><ele>213.0</ele><time>2026-05-04T08:11:10.715Z</time></trkpt><trkpt lat="41.6648514" lon="-0.8235398"><ele>213.0</ele><time>2026-05-04T08:11:11.715Z</time></trkpt><trkpt lat="41.6647607" lon="-0.823438"><ele>213.0</ele><time>2026-05-04T08:11:12.715Z</time></trkpt><trkpt lat="41.6646709" lon="-0.8233334"><ele>213.0</ele><time>2026-05-04T08:11:13.715Z</time></trkpt><trkpt lat="41.6645792" lon="-0.82323"><ele>213.0</ele><time>2026-05-04T08:11:14.715Z</time></trkpt><trkpt lat="41.6644926" lon="-0.8231217"><ele>213.0</ele><time>2026-05-04T08:11:15.715Z</time></trkpt><trkpt lat="41.664405" lon="-0.8230092"><ele>213.0</ele><time>2026-05-04T08:11:16.715Z</time></trkpt><trkpt lat="41.6643181" lon="-0.8228921"><ele>211.75</ele><time>2026-05-04T08:11:17.715Z</time></trkpt><trkpt lat="41.6642287" lon="-0.8227795"><ele>210.5</ele><time>2026-05-04T08:11:18.715Z</time></trkpt><trkpt lat="41.664145" lon="-0.8226617"><ele>209.25</ele><time>2026-05-04T08:11:19.715Z</time></trkpt><trkpt lat="41.6640657" lon="-0.8225364"><ele>208.0</ele><time>2026-05-04T08:11:20.715Z</time></trkpt><trkpt lat="41.6639839" lon="-0.8224101"><ele>208.0</ele><time>2026-05-04T08:11:21.714Z</time></trkpt><trkpt lat="41.6639017" lon="-0.8222779"><ele>208.0</ele><time>2026-05-04T08:11:22.715Z</time></trkpt><trkpt lat="41.6638262" lon="-0.8221405"><ele>208.0</ele><time>2026-05-04T08:11:23.715Z</time></trkpt><trkpt lat="41.6637543" lon="-0.8220039"><ele>208.0</ele><time>2026-05-04T08:11:24.714Z</time></trkpt><trkpt lat="41.6636886" lon="-0.8218758"><ele>208.4</ele><time>2026-05-04T08:11:25.715Z</time></trkpt><trkpt lat="41.6636267" lon="-0.8217591"><ele>208.8</ele><time>2026-05-04T08:11:26.715Z</time></trkpt><trkpt lat="41.6635606" lon="-0.8216678"><ele>209.2</ele><time>2026-05-04T08:11:27.715Z</time></trkpt><trkpt lat="41.6634865" lon="-0.8215951"><ele>209.6</ele><time>2026-05-04T08:11:28.715Z</time></trkpt><trkpt lat="41.6634052" lon="-0.8215608"><ele>210.0</ele><time>2026-05-04T08:11:29.715Z</time></trkpt><trkpt lat="41.6633212" lon="-0.8215623"><ele>208.83333333333334</ele><time>2026-05-04T08:11:30.715Z</time></trkpt><trkpt lat="41.6632304" lon="-0.8215751"><ele>207.66666666666669</ele><time>2026-05-04T08:11:31.715Z</time></trkpt><trkpt lat="41.6631437" lon="-0.8215689"><ele>206.5</ele><time>2026-05-04T08:11:32.715Z</time></trkpt><trkpt lat="41.6630745" lon="-0.8215295"><ele>205.33333333333334</ele><time>2026-05-04T08:11:33.715Z</time></trkpt><trkpt lat="41.6630161" lon="-0.8214542"><ele>204.16666666666669</ele><time>2026-05-04T08:11:34.714Z</time></trkpt><trkpt lat="41.6629836" lon="-0.8213486"><ele>203.0</ele><time>2026-05-04T08:11:35.715Z</time></trkpt><trkpt lat="41.6629905" lon="-0.8212475"><ele>203.0</ele><time>2026-05-04T08:11:36.715Z</time></trkpt><trkpt lat="41.6630132" lon="-0.8211316"><ele>203.0</ele><time>2026-05-04T08:11:37.715Z</time></trkpt><trkpt lat="41.6630389" lon="-0.8210076"><ele>203.0</ele><time>2026-05-04T08:11:38.715Z</time></trkpt><trkpt lat="41.6630464" lon="-0.8208788"><ele>203.0</ele><time>2026-05-04T08:11:39.715Z</time></trkpt><trkpt lat="41.6630299" lon="-0.820745"><ele>203.0</ele><time>2026-05-04T08:11:40.715Z</time></trkpt><trkpt lat="41.6629957" lon="-0.8206126"><ele>203.5</ele><time>2026-05-04T08:11:41.715Z</time></trkpt><trkpt lat="41.6629518" lon="-0.8204774"><ele>204.0</ele><time>2026-05-04T08:11:42.715Z</time></trkpt><trkpt lat="41.6628982" lon="-0.8203463"><ele>204.5</ele><time>2026-05-04T08:11:43.715Z</time></trkpt><trkpt lat="41.6628359" lon="-0.8202168"><ele>205.0</ele><time>2026-05-04T08:11:44.715Z</time></trkpt><trkpt lat="41.6627636" lon="-0.8200869"><ele>204.0</ele><time>2026-05-04T08:11:45.714Z</time></trkpt><trkpt lat="41.6626893" lon="-0.8199621"><ele>203.0</ele><time>2026-05-04T08:11:46.715Z</time></trkpt><trkpt lat="41.6626191" lon="-0.8198444"><ele>202.0</ele><time>2026-05-04T08:11:47.715Z</time></trkpt><trkpt lat="41.6625498" lon="-0.8197246"><ele>201.0</ele><time>2026-05-04T08:11:48.715Z</time></trkpt><trkpt lat="41.6624794" lon="-0.8196076"><ele>201.0</ele><time>2026-05-04T08:11:49.715Z</time></trkpt><trkpt lat="41.6624079" lon="-0.8194927"><ele>201.0</ele><time>2026-05-04T08:11:50.714Z</time></trkpt><trkpt lat="41.6623409" lon="-0.8193784"><ele>201.0</ele><time>2026-05-04T08:11:51.715Z</time></trkpt><trkpt lat="41.6622752" lon="-0.8192627"><ele>201.0</ele><time>2026-05-04T08:11:52.714Z</time></trkpt><trkpt lat="41.6622085" lon="-0.8191444"><ele>201.0</ele><time>2026-05-04T08:11:53.714Z</time></trkpt><trkpt lat="41.6621442" lon="-0.8190282"><ele>201.0</ele><time>2026-05-04T08:11:54.715Z</time></trkpt><trkpt lat="41.6620808" lon="-0.8189072"><ele>201.0</ele><time>2026-05-04T08:11:55.715Z</time></trkpt><trkpt lat="41.6620208" lon="-0.818784"><ele>201.0</ele><time>2026-05-04T08:11:56.715Z</time></trkpt><trkpt lat="41.6619696" lon="-0.8186659"><ele>201.0</ele><time>2026-05-04T08:11:57.715Z</time></trkpt><trkpt lat="41.6619186" lon="-0.8185467"><ele>201.0</ele><time>2026-05-04T08:11:58.715Z</time></trkpt><trkpt lat="41.6618674" lon="-0.8184159"><ele>201.0</ele><time>2026-05-04T08:11:59.715Z</time></trkpt><trkpt lat="41.6618167" lon="-0.8182821"><ele>201.0</ele><time>2026-05-04T08:12:00.714Z</time></trkpt><trkpt lat="41.661766" lon="-0.8181468"><ele>201.0</ele><time>2026-05-04T08:12:01.715Z</time></trkpt><trkpt lat="41.6617172" lon="-0.8180068"><ele>201.0</ele><time>2026-05-04T08:12:02.715Z</time></trkpt><trkpt lat="41.6616701" lon="-0.8178657"><ele>201.0</ele><time>2026-05-04T08:12:03.715Z</time></trkpt><trkpt lat="41.6616232" lon="-0.8177201"><ele>201.0</ele><time>2026-05-04T08:12:04.715Z</time></trkpt><trkpt lat="41.6615762" lon="-0.8175744"><ele>201.0</ele><time>2026-05-04T08:12:05.714Z</time></trkpt><trkpt lat="41.6615291" lon="-0.8174309"><ele>201.0</ele><time>2026-05-04T08:12:06.714Z</time></trkpt><trkpt lat="41.6614813" lon="-0.8172867"><ele>201.25</ele><time>2026-05-04T08:12:07.714Z</time></trkpt><trkpt lat="41.661433" lon="-0.8171416"><ele>201.5</ele><time>2026-05-04T08:12:08.715Z</time></trkpt><trkpt lat="41.661384" lon="-0.8170018"><ele>201.75</ele><time>2026-05-04T08:12:09.715Z</time></trkpt><trkpt lat="41.6613346" lon="-0.8168592"><ele>202.0</ele><time>2026-05-04T08:12:10.714Z</time></trkpt><trkpt lat="41.6612871" lon="-0.8167153"><ele>202.5</ele><time>2026-05-04T08:12:11.715Z</time></trkpt><trkpt lat="41.6612395" lon="-0.8165662"><ele>203.0</ele><time>2026-05-04T08:12:12.714Z</time></trkpt><trkpt lat="41.6611913" lon="-0.8164159"><ele>203.5</ele><time>2026-05-04T08:12:13.714Z</time></trkpt><trkpt lat="41.6611436" lon="-0.8162659"><ele>204.0</ele><time>2026-05-04T08:12:14.715Z</time></trkpt><trkpt lat="41.6610924" lon="-0.8161162"><ele>203.25</ele><time>2026-05-04T08:12:15.715Z</time></trkpt><trkpt lat="41.6610422" lon="-0.8159648"><ele>202.5</ele><time>2026-05-04T08:12:16.715Z</time></trkpt><trkpt lat="41.660993" lon="-0.8158129"><ele>201.75</ele><time>2026-05-04T08:12:17.715Z</time></trkpt><trkpt lat="41.6609431" lon="-0.8156609"><ele>201.0</ele><time>2026-05-04T08:12:18.715Z</time></trkpt><trkpt lat="41.6608918" lon="-0.8155054"><ele>201.0</ele><time>2026-05-04T08:12:19.715Z</time></trkpt><trkpt lat="41.660842" lon="-0.8153527"><ele>201.0</ele><time>2026-05-04T08:12:20.715Z</time></trkpt><trkpt lat="41.6607903" lon="-0.8151991"><ele>201.0</ele><time>2026-05-04T08:12:21.715Z</time></trkpt><trkpt lat="41.6607385" lon="-0.8150458"><ele>201.0</ele><time>2026-05-04T08:12:22.715Z</time></trkpt><trkpt lat="41.6606871" lon="-0.8148943"><ele>202.25</ele><time>2026-05-04T08:12:23.715Z</time></trkpt><trkpt lat="41.6606329" lon="-0.8147386"><ele>203.5</ele><time>2026-05-04T08:12:24.714Z</time></trkpt><trkpt lat="41.6605813" lon="-0.8145809"><ele>204.75</ele><time>2026-05-04T08:12:25.715Z</time></trkpt><trkpt lat="41.6605294" lon="-0.8144258"><ele>206.0</ele><time>2026-05-04T08:12:26.715Z</time></trkpt><trkpt lat="41.6604775" lon="-0.81427"><ele>206.75</ele><time>2026-05-04T08:12:27.715Z</time></trkpt><trkpt lat="41.6604241" lon="-0.8141138"><ele>207.5</ele><time>2026-05-04T08:12:28.715Z</time></trkpt><trkpt lat="41.6603746" lon="-0.8139585"><ele>208.25</ele><time>2026-05-04T08:12:29.715Z</time></trkpt><trkpt lat="41.6603238" lon="-0.8137992"><ele>209.0</ele><time>2026-05-04T08:12:30.715Z</time></trkpt><trkpt lat="41.6602725" lon="-0.8136366"><ele>206.75</ele><time>2026-05-04T08:12:31.714Z</time></trkpt><trkpt lat="41.6602256" lon="-0.8134707"><ele>204.5</ele><time>2026-05-04T08:12:32.715Z</time></trkpt><trkpt lat="41.6601817" lon="-0.8133023"><ele>202.25</ele><time>2026-05-04T08:12:33.715Z</time></trkpt><trkpt lat="41.6601421" lon="-0.8131393"><ele>200.0</ele><time>2026-05-04T08:12:34.715Z</time></trkpt><trkpt lat="41.6601112" lon="-0.8129701"><ele>200.0</ele><time>2026-05-04T08:12:35.715Z</time></trkpt><trkpt lat="41.6600962" lon="-0.8128035"><ele>200.0</ele><time>2026-05-04T08:12:36.715Z</time></trkpt><trkpt lat="41.6600955" lon="-0.8126365"><ele>200.0</ele><time>2026-05-04T08:12:37.715Z</time></trkpt><trkpt lat="41.6601045" lon="-0.8124675"><ele>200.0</ele><time>2026-05-04T08:12:38.715Z</time></trkpt><trkpt lat="41.6601241" lon="-0.8123058"><ele>200.16666666666669</ele><time>2026-05-04T08:12:39.715Z</time></trkpt><trkpt lat="41.6601472" lon="-0.8121556"><ele>200.33333333333334</ele><time>2026-05-04T08:12:40.715Z</time></trkpt><trkpt lat="41.6601691" lon="-0.8120244"><ele>200.5</ele><time>2026-05-04T08:12:41.714Z</time></trkpt><trkpt lat="41.6601834" lon="-0.8119065"><ele>200.66666666666669</ele><time>2026-05-04T08:12:42.714Z</time></trkpt><trkpt lat="41.660179" lon="-0.8118034"><ele>200.83333333333334</ele><time>2026-05-04T08:12:43.715Z</time></trkpt><trkpt lat="41.6601503" lon="-0.8117224"><ele>201.0</ele><time>2026-05-04T08:12:44.715Z</time></trkpt><trkpt lat="41.6600995" lon="-0.8116499"><ele>201.83333333333334</ele><time>2026-05-04T08:12:45.715Z</time></trkpt><trkpt lat="41.660033" lon="-0.811586"><ele>202.66666666666669</ele><time>2026-05-04T08:12:46.716Z</time></trkpt><trkpt lat="41.6599508" lon="-0.8115363"><ele>203.5</ele><time>2026-05-04T08:12:47.716Z</time></trkpt><trkpt lat="41.6598643" lon="-0.8115147"><ele>204.33333333333334</ele><time>2026-05-04T08:12:48.716Z</time></trkpt><trkpt lat="41.6597761" lon="-0.8115259"><ele>205.16666666666669</ele><time>2026-05-04T08:12:49.716Z</time></trkpt><trkpt lat="41.6596828" lon="-0.8115467"><ele>206.0</ele><time>2026-05-04T08:12:50.716Z</time></trkpt><trkpt lat="41.6595806" lon="-0.8115598"><ele>206.0</ele><time>2026-05-04T08:12:51.716Z</time></trkpt><trkpt lat="41.6594784" lon="-0.8115748"><ele>206.0</ele><time>2026-05-04T08:12:52.716Z</time></trkpt><trkpt lat="41.6593786" lon="-0.8115934"><ele>206.0</ele><time>2026-05-04T08:12:53.715Z</time></trkpt><trkpt lat="41.6592861" lon="-0.8116305"><ele>206.0</ele><time>2026-05-04T08:12:54.716Z</time></trkpt><trkpt lat="41.6592135" lon="-0.811692"><ele>206.0</ele><time>2026-05-04T08:12:55.716Z</time></trkpt><trkpt lat="41.6591463" lon="-0.8117579"><ele>204.28571428571428</ele><time>2026-05-04T08:12:56.716Z</time></trkpt><trkpt lat="41.6590681" lon="-0.811807"><ele>202.57142857142856</ele><time>2026-05-04T08:12:57.716Z</time></trkpt><trkpt lat="41.65899" lon="-0.8118095"><ele>200.85714285714283</ele><time>2026-05-04T08:12:58.716Z</time></trkpt><trkpt lat="41.6589234" lon="-0.8117749"><ele>199.14285714285714</ele><time>2026-05-04T08:12:59.716Z</time></trkpt><trkpt lat="41.658882" lon="-0.811709"><ele>197.42857142857144</ele><time>2026-05-04T08:13:00.716Z</time></trkpt><trkpt lat="41.6588717" lon="-0.811623"><ele>195.7142857142857</ele><time>2026-05-04T08:13:01.715Z</time></trkpt><trkpt lat="41.6588886" lon="-0.8115344"><ele>194.0</ele><time>2026-05-04T08:13:02.716Z</time></trkpt><trkpt lat="41.6589361" lon="-0.8114602"><ele>194.00000000000003</ele><time>2026-05-04T08:13:03.716Z</time></trkpt><trkpt lat="41.6590013" lon="-0.8113997"><ele>194.0</ele><time>2026-05-04T08:13:04.716Z</time></trkpt><trkpt lat="41.6590708" lon="-0.8113344"><ele>194.0</ele><time>2026-05-04T08:13:05.716Z</time></trkpt><trkpt lat="41.6591284" lon="-0.8112518"><ele>194.0</ele><time>2026-05-04T08:13:06.716Z</time></trkpt><trkpt lat="41.6591677" lon="-0.8111479"><ele>194.00000000000003</ele><time>2026-05-04T08:13:07.716Z</time></trkpt><trkpt lat="41.6591934" lon="-0.811024"><ele>194.0</ele><time>2026-05-04T08:13:08.716Z</time></trkpt><trkpt lat="41.659211" lon="-0.8108848"><ele>194.25</ele><time>2026-05-04T08:13:09.716Z</time></trkpt><trkpt lat="41.6592267" lon="-0.8107389"><ele>194.5</ele><time>2026-05-04T08:13:10.716Z</time></trkpt><trkpt lat="41.6592373" lon="-0.8105791"><ele>194.75</ele><time>2026-05-04T08:13:11.716Z</time></trkpt><trkpt lat="41.6592504" lon="-0.8104213"><ele>195.0</ele><time>2026-05-04T08:13:12.716Z</time></trkpt><trkpt lat="41.6592585" lon="-0.8102602"><ele>194.75</ele><time>2026-05-04T08:13:13.716Z</time></trkpt><trkpt lat="41.6592637" lon="-0.810099"><ele>194.5</ele><time>2026-05-04T08:13:14.716Z</time></trkpt><trkpt lat="41.6592659" lon="-0.8099492"><ele>194.25</ele><time>2026-05-04T08:13:15.716Z</time></trkpt><trkpt lat="41.659277" lon="-0.809796"><ele>194.0</ele><time>2026-05-04T08:13:16.716Z</time></trkpt><trkpt lat="41.6592807" lon="-0.8096466"><ele>194.0</ele><time>2026-05-04T08:13:17.715Z</time></trkpt><trkpt lat="41.65928" lon="-0.8094984"><ele>194.0</ele><time>2026-05-04T08:13:18.716Z</time></trkpt><trkpt lat="41.6592734" lon="-0.8093509"><ele>194.0</ele><time>2026-05-04T08:13:19.716Z</time></trkpt><trkpt lat="41.6592653" lon="-0.8092023"><ele>194.0</ele><time>2026-05-04T08:13:20.716Z</time></trkpt><trkpt lat="41.6592571" lon="-0.8090526"><ele>194.0</ele><time>2026-05-04T08:13:21.715Z</time></trkpt><trkpt lat="41.6592486" lon="-0.8088974"><ele>194.5</ele><time>2026-05-04T08:13:22.716Z</time></trkpt><trkpt lat="41.6592406" lon="-0.8087408"><ele>195.0</ele><time>2026-05-04T08:13:23.715Z</time></trkpt><trkpt lat="41.6592341" lon="-0.808589"><ele>195.5</ele><time>2026-05-04T08:13:24.716Z</time></trkpt><trkpt lat="41.6592256" lon="-0.8084384"><ele>196.0</ele><time>2026-05-04T08:13:25.716Z</time></trkpt><trkpt lat="41.6592179" lon="-0.8082821"><ele>196.25</ele><time>2026-05-04T08:13:26.716Z</time></trkpt><trkpt lat="41.6592106" lon="-0.8081308"><ele>196.5</ele><time>2026-05-04T08:13:27.716Z</time></trkpt><trkpt lat="41.6592023" lon="-0.8079804"><ele>196.75</ele><time>2026-05-04T08:13:28.716Z</time></trkpt><trkpt lat="41.6591922" lon="-0.8078295"><ele>197.0</ele><time>2026-05-04T08:13:29.716Z</time></trkpt><trkpt lat="41.659182" lon="-0.8076726"><ele>197.75</ele><time>2026-05-04T08:13:30.716Z</time></trkpt><trkpt lat="41.6591685" lon="-0.8075172"><ele>198.5</ele><time>2026-05-04T08:13:31.716Z</time></trkpt><trkpt lat="41.6591535" lon="-0.8073563"><ele>199.25</ele><time>2026-05-04T08:13:32.715Z</time></trkpt><trkpt lat="41.6591416" lon="-0.8071985"><ele>200.0</ele><time>2026-05-04T08:13:33.716Z</time></trkpt><trkpt lat="41.6591283" lon="-0.8070412"><ele>200.0</ele><time>2026-05-04T08:13:34.715Z</time></trkpt><trkpt lat="41.6591169" lon="-0.8068808"><ele>200.0</ele><time>2026-05-04T08:13:35.716Z</time></trkpt><trkpt lat="41.6591049" lon="-0.8067218"><ele>200.0</ele><time>2026-05-04T08:13:36.716Z</time></trkpt><trkpt lat="41.6590923" lon="-0.806562"><ele>200.0</ele><time>2026-05-04T08:13:37.716Z</time></trkpt><trkpt lat="41.6590788" lon="-0.806404"><ele>200.25</ele><time>2026-05-04T08:13:38.716Z</time></trkpt><trkpt lat="41.6590584" lon="-0.8062436"><ele>200.5</ele><time>2026-05-04T08:13:39.716Z</time></trkpt><trkpt lat="41.6590354" lon="-0.806086"><ele>200.75</ele><time>2026-05-04T08:13:40.716Z</time></trkpt><trkpt lat="41.6590045" lon="-0.8059279"><ele>201.0</ele><time>2026-05-04T08:13:41.715Z</time></trkpt><trkpt lat="41.6589676" lon="-0.8057736"><ele>201.5</ele><time>2026-05-04T08:13:42.716Z</time></trkpt><trkpt lat="41.658922" lon="-0.805624"><ele>202.0</ele><time>2026-05-04T08:13:43.716Z</time></trkpt><trkpt lat="41.6588692" lon="-0.8054736"><ele>202.5</ele><time>2026-05-04T08:13:44.716Z</time></trkpt><trkpt lat="41.6588166" lon="-0.8053254"><ele>203.0</ele><time>2026-05-04T08:13:45.716Z</time></trkpt><trkpt lat="41.6587592" lon="-0.8051789"><ele>203.0</ele><time>2026-05-04T08:13:46.715Z</time></trkpt><trkpt lat="41.6587014" lon="-0.8050297"><ele>203.0</ele><time>2026-05-04T08:13:47.716Z</time></trkpt><trkpt lat="41.6586448" lon="-0.8048813"><ele>203.0</ele><time>2026-05-04T08:13:48.715Z</time></trkpt><trkpt lat="41.6585849" lon="-0.8047318"><ele>203.0</ele><time>2026-05-04T08:13:49.715Z</time></trkpt><trkpt lat="41.658527" lon="-0.804583"><ele>202.0</ele><time>2026-05-04T08:13:50.715Z</time></trkpt><trkpt lat="41.6584666" lon="-0.8044304"><ele>201.0</ele><time>2026-05-04T08:13:51.716Z</time></trkpt><trkpt lat="41.6584042" lon="-0.8042769"><ele>200.0</ele><time>2026-05-04T08:13:52.716Z</time></trkpt><trkpt lat="41.6583432" lon="-0.8041243"><ele>199.0</ele><time>2026-05-04T08:13:53.716Z</time></trkpt><trkpt lat="41.6582801" lon="-0.8039728"><ele>199.0</ele><time>2026-05-04T08:13:54.716Z</time></trkpt><trkpt lat="41.6582192" lon="-0.80382"><ele>199.0</ele><time>2026-05-04T08:13:55.715Z</time></trkpt><trkpt lat="41.6581579" lon="-0.8036619"><ele>199.0</ele><time>2026-05-04T08:13:56.716Z</time></trkpt><trkpt lat="41.6580953" lon="-0.8035036"><ele>199.0</ele><time>2026-05-04T08:13:57.716Z</time></trkpt><trkpt lat="41.6580336" lon="-0.803342"><ele>200.0</ele><time>2026-05-04T08:13:58.716Z</time></trkpt><trkpt lat="41.6579675" lon="-0.8031802"><ele>201.0</ele><time>2026-05-04T08:13:59.715Z</time></trkpt><trkpt lat="41.6579025" lon="-0.8030185"><ele>202.0</ele><time>2026-05-04T08:14:00.716Z</time></trkpt><trkpt lat="41.6578339" lon="-0.8028575"><ele>203.0</ele><time>2026-05-04T08:14:01.716Z</time></trkpt><trkpt lat="41.6577654" lon="-0.8026951"><ele>201.5</ele><time>2026-05-04T08:14:02.716Z</time></trkpt><trkpt lat="41.6576944" lon="-0.8025317"><ele>200.0</ele><time>2026-05-04T08:14:03.716Z</time></trkpt><trkpt lat="41.6576262" lon="-0.8023677"><ele>198.5</ele><time>2026-05-04T08:14:04.716Z</time></trkpt><trkpt lat="41.6575499" lon="-0.802208"><ele>197.0</ele><time>2026-05-04T08:14:05.716Z</time></trkpt><trkpt lat="41.6574656" lon="-0.8020577"><ele>197.0</ele><time>2026-05-04T08:14:06.716Z</time></trkpt><trkpt lat="41.6573739" lon="-0.8019093"><ele>197.0</ele><time>2026-05-04T08:14:07.716Z</time></trkpt><trkpt lat="41.6572792" lon="-0.8017649"><ele>197.0</ele><time>2026-05-04T08:14:08.715Z</time></trkpt><trkpt lat="41.6571778" lon="-0.801628"><ele>197.0</ele><time>2026-05-04T08:14:09.716Z</time></trkpt><trkpt lat="41.6570728" lon="-0.8014955"><ele>196.75</ele><time>2026-05-04T08:14:10.716Z</time></trkpt><trkpt lat="41.6569677" lon="-0.8013674"><ele>196.5</ele><time>2026-05-04T08:14:11.716Z</time></trkpt><trkpt lat="41.6568609" lon="-0.8012405"><ele>196.25</ele><time>2026-05-04T08:14:12.716Z</time></trkpt><trkpt lat="41.6567524" lon="-0.8011094"><ele>196.0</ele><time>2026-05-04T08:14:13.716Z</time></trkpt><trkpt lat="41.6566471" lon="-0.8009779"><ele>197.5</ele><time>2026-05-04T08:14:14.716Z</time></trkpt><trkpt lat="41.6565408" lon="-0.8008487"><ele>199.0</ele><time>2026-05-04T08:14:15.716Z</time></trkpt><trkpt lat="41.6564344" lon="-0.8007188"><ele>200.5</ele><time>2026-05-04T08:14:16.716Z</time></trkpt><trkpt lat="41.6563298" lon="-0.8005883"><ele>202.0</ele><time>2026-05-04T08:14:17.715Z</time></trkpt><trkpt lat="41.6562243" lon="-0.8004602"><ele>202.0</ele><time>2026-05-04T08:14:18.716Z</time></trkpt><trkpt lat="41.6561208" lon="-0.8003386"><ele>202.0</ele><time>2026-05-04T08:14:19.715Z</time></trkpt><trkpt lat="41.6560174" lon="-0.8002147"><ele>202.0</ele><time>2026-05-04T08:14:20.716Z</time></trkpt><trkpt lat="41.6559148" lon="-0.8000893"><ele>202.0</ele><time>2026-05-04T08:14:21.716Z</time></trkpt><trkpt lat="41.6558097" lon="-0.7999651"><ele>201.0</ele><time>2026-05-04T08:14:22.716Z</time></trkpt><trkpt lat="41.6557065" lon="-0.7998419"><ele>200.0</ele><time>2026-05-04T08:14:23.716Z</time></trkpt><trkpt lat="41.6556024" lon="-0.7997195"><ele>199.0</ele><time>2026-05-04T08:14:24.716Z</time></trkpt><trkpt lat="41.6554994" lon="-0.7995978"><ele>198.0</ele><time>2026-05-04T08:14:25.716Z</time></trkpt><trkpt lat="41.655396" lon="-0.7994753"><ele>198.0</ele><time>2026-05-04T08:14:26.716Z</time></trkpt><trkpt lat="41.6552972" lon="-0.7993542"><ele>198.0</ele><time>2026-05-04T08:14:27.716Z</time></trkpt><trkpt lat="41.6551955" lon="-0.7992296"><ele>198.0</ele><time>2026-05-04T08:14:28.715Z</time></trkpt><trkpt lat="41.6550901" lon="-0.7991047"><ele>198.0</ele><time>2026-05-04T08:14:29.716Z</time></trkpt><trkpt lat="41.6549854" lon="-0.7989803"><ele>198.25</ele><time>2026-05-04T08:14:30.716Z</time></trkpt><trkpt lat="41.6548818" lon="-0.7988583"><ele>198.5</ele><time>2026-05-04T08:14:31.716Z</time></trkpt><trkpt lat="41.6547801" lon="-0.7987332"><ele>198.75</ele><time>2026-05-04T08:14:32.716Z</time></trkpt><trkpt lat="41.6546765" lon="-0.7986065"><ele>199.0</ele><time>2026-05-04T08:14:33.716Z</time></trkpt><trkpt lat="41.6545732" lon="-0.7984827"><ele>199.0</ele><time>2026-05-04T08:14:34.716Z</time></trkpt><trkpt lat="41.6544703" lon="-0.7983593"><ele>199.0</ele><time>2026-05-04T08:14:35.716Z</time></trkpt><trkpt lat="41.6543648" lon="-0.7982365"><ele>199.0</ele><time>2026-05-04T08:14:36.715Z</time></trkpt><trkpt lat="41.6542615" lon="-0.7981131"><ele>199.0</ele><time>2026-05-04T08:14:37.716Z</time></trkpt><trkpt lat="41.6541574" lon="-0.7979891"><ele>199.5</ele><time>2026-05-04T08:14:38.716Z</time></trkpt><trkpt lat="41.6540538" lon="-0.7978634"><ele>200.0</ele><time>2026-05-04T08:14:39.716Z</time></trkpt><trkpt lat="41.6539482" lon="-0.7977369"><ele>200.5</ele><time>2026-05-04T08:14:40.716Z</time></trkpt><trkpt lat="41.6538417" lon="-0.7976098"><ele>201.0</ele><time>2026-05-04T08:14:41.715Z</time></trkpt><trkpt lat="41.653742" lon="-0.7974841"><ele>201.0</ele><time>2026-05-04T08:14:42.715Z</time></trkpt><trkpt lat="41.6536397" lon="-0.7973528"><ele>201.0</ele><time>2026-05-04T08:14:43.715Z</time></trkpt><trkpt lat="41.6535368" lon="-0.7972213"><ele>201.0</ele><time>2026-05-04T08:14:44.716Z</time></trkpt><trkpt lat="41.6534366" lon="-0.7970892"><ele>201.0</ele><time>2026-05-04T08:14:45.716Z</time></trkpt><trkpt lat="41.6533397" lon="-0.7969525"><ele>201.0</ele><time>2026-05-04T08:14:46.716Z</time></trkpt><trkpt lat="41.6532466" lon="-0.7968167"><ele>201.0</ele><time>2026-05-04T08:14:47.716Z</time></trkpt><trkpt lat="41.6531532" lon="-0.7966813"><ele>201.0</ele><time>2026-05-04T08:14:48.715Z</time></trkpt><trkpt lat="41.6530601" lon="-0.7965441"><ele>201.0</ele><time>2026-05-04T08:14:49.716Z</time></trkpt><trkpt lat="41.6529714" lon="-0.7964089"><ele>201.0</ele><time>2026-05-04T08:14:50.715Z</time></trkpt><trkpt lat="41.6528835" lon="-0.7962765"><ele>201.0</ele><time>2026-05-04T08:14:51.716Z</time></trkpt><trkpt lat="41.6527953" lon="-0.7961456"><ele>201.0</ele><time>2026-05-04T08:14:52.715Z</time></trkpt><trkpt lat="41.6527117" lon="-0.796022"><ele>201.0</ele><time>2026-05-04T08:14:53.716Z</time></trkpt><trkpt lat="41.6526235" lon="-0.7958946"><ele>200.25</ele><time>2026-05-04T08:14:54.716Z</time></trkpt><trkpt lat="41.6525371" lon="-0.7957691"><ele>199.5</ele><time>2026-05-04T08:14:55.716Z</time></trkpt><trkpt lat="41.6524538" lon="-0.795643"><ele>198.75</ele><time>2026-05-04T08:14:56.716Z</time></trkpt><trkpt lat="41.6523682" lon="-0.7955176"><ele>198.0</ele><time>2026-05-04T08:14:57.716Z</time></trkpt><trkpt lat="41.6522838" lon="-0.7953904"><ele>198.0</ele><time>2026-05-04T08:14:58.716Z</time></trkpt><trkpt lat="41.6522004" lon="-0.7952663"><ele>198.0</ele><time>2026-05-04T08:14:59.716Z</time></trkpt><trkpt lat="41.6521183" lon="-0.795145"><ele>198.0</ele><time>2026-05-04T08:15:00.716Z</time></trkpt><trkpt lat="41.6520331" lon="-0.7950216"><ele>198.0</ele><time>2026-05-04T08:15:01.716Z</time></trkpt><trkpt lat="41.65195" lon="-0.7949015"><ele>197.25</ele><time>2026-05-04T08:15:02.716Z</time></trkpt><trkpt lat="41.6518679" lon="-0.7947799"><ele>196.5</ele><time>2026-05-04T08:15:03.715Z</time></trkpt><trkpt lat="41.651783" lon="-0.7946555"><ele>195.75</ele><time>2026-05-04T08:15:04.716Z</time></trkpt><trkpt lat="41.6516974" lon="-0.7945312"><ele>195.0</ele><time>2026-05-04T08:15:05.716Z</time></trkpt><trkpt lat="41.6516102" lon="-0.7944055"><ele>196.25</ele><time>2026-05-04T08:15:06.715Z</time></trkpt><trkpt lat="41.6515196" lon="-0.7942774"><ele>197.5</ele><time>2026-05-04T08:15:07.716Z</time></trkpt><trkpt lat="41.651429" lon="-0.7941479"><ele>198.75</ele><time>2026-05-04T08:15:08.716Z</time></trkpt><trkpt lat="41.6513373" lon="-0.7940149"><ele>200.0</ele><time>2026-05-04T08:15:09.716Z</time></trkpt><trkpt lat="41.6512476" lon="-0.7938804"><ele>200.0</ele><time>2026-05-04T08:15:10.716Z</time></trkpt><trkpt lat="41.6511558" lon="-0.7937451"><ele>200.0</ele><time>2026-05-04T08:15:11.716Z</time></trkpt><trkpt lat="41.6510636" lon="-0.7936064"><ele>200.0</ele><time>2026-05-04T08:15:12.715Z</time></trkpt><trkpt lat="41.6509698" lon="-0.7934701"><ele>200.0</ele><time>2026-05-04T08:15:13.715Z</time></trkpt><trkpt lat="41.6508747" lon="-0.793333"><ele>199.0</ele><time>2026-05-04T08:15:14.716Z</time></trkpt><trkpt lat="41.6507792" lon="-0.7931947"><ele>198.0</ele><time>2026-05-04T08:15:15.716Z</time></trkpt><trkpt lat="41.6506839" lon="-0.793057"><ele>197.0</ele><time>2026-05-04T08:15:16.716Z</time></trkpt><trkpt lat="41.6505919" lon="-0.792918"><ele>196.0</ele><time>2026-05-04T08:15:17.716Z</time></trkpt><trkpt lat="41.6504981" lon="-0.7927793"><ele>195.0</ele><time>2026-05-04T08:15:18.716Z</time></trkpt><trkpt lat="41.6504058" lon="-0.7926389"><ele>194.0</ele><time>2026-05-04T08:15:19.715Z</time></trkpt><trkpt lat="41.6503132" lon="-0.792498"><ele>193.0</ele><time>2026-05-04T08:15:20.716Z</time></trkpt><trkpt lat="41.6502218" lon="-0.7923535"><ele>192.0</ele><time>2026-05-04T08:15:21.716Z</time></trkpt><trkpt lat="41.6501339" lon="-0.7922038"><ele>192.0</ele><time>2026-05-04T08:15:22.715Z</time></trkpt><trkpt lat="41.650052" lon="-0.7920457"><ele>192.0</ele><time>2026-05-04T08:15:23.716Z</time></trkpt><trkpt lat="41.6499792" lon="-0.791882"><ele>192.0</ele><time>2026-05-04T08:15:24.716Z</time></trkpt><trkpt lat="41.64991" lon="-0.791711"><ele>192.0</ele><time>2026-05-04T08:15:25.716Z</time></trkpt><trkpt lat="41.6498491" lon="-0.7915413"><ele>193.0</ele><time>2026-05-04T08:15:26.716Z</time></trkpt><trkpt lat="41.6497855" lon="-0.7913689"><ele>194.0</ele><time>2026-05-04T08:15:27.717Z</time></trkpt><trkpt lat="41.649722" lon="-0.7911987"><ele>195.0</ele><time>2026-05-04T08:15:28.717Z</time></trkpt><trkpt lat="41.6496584" lon="-0.7910298"><ele>196.0</ele><time>2026-05-04T08:15:29.717Z</time></trkpt><trkpt lat="41.6495959" lon="-0.7908596"><ele>195.5</ele><time>2026-05-04T08:15:30.717Z</time></trkpt><trkpt lat="41.6495323" lon="-0.7906879"><ele>195.0</ele><time>2026-05-04T08:15:31.716Z</time></trkpt><trkpt lat="41.6494711" lon="-0.7905207"><ele>194.5</ele><time>2026-05-04T08:15:32.717Z</time></trkpt><trkpt lat="41.6494117" lon="-0.7903576"><ele>194.0</ele><time>2026-05-04T08:15:33.716Z</time></trkpt><trkpt lat="41.6493539" lon="-0.7901983"><ele>194.5</ele><time>2026-05-04T08:15:34.717Z</time></trkpt><trkpt lat="41.6492991" lon="-0.7900447"><ele>195.0</ele><time>2026-05-04T08:15:35.717Z</time></trkpt><trkpt lat="41.6492495" lon="-0.7898996"><ele>195.5</ele><time>2026-05-04T08:15:36.717Z</time></trkpt><trkpt lat="41.6491978" lon="-0.789753"><ele>196.0</ele><time>2026-05-04T08:15:37.716Z</time></trkpt><trkpt lat="41.6491501" lon="-0.7896082"><ele>196.0</ele><time>2026-05-04T08:15:38.717Z</time></trkpt><trkpt lat="41.6491006" lon="-0.7894533"><ele>196.0</ele><time>2026-05-04T08:15:39.717Z</time></trkpt><trkpt lat="41.6490441" lon="-0.7893046"><ele>196.0</ele><time>2026-05-04T08:15:40.716Z</time></trkpt><trkpt lat="41.6489877" lon="-0.7891603"><ele>196.0</ele><time>2026-05-04T08:15:41.717Z</time></trkpt><trkpt lat="41.6489377" lon="-0.7890109"><ele>196.5</ele><time>2026-05-04T08:15:42.717Z</time></trkpt><trkpt lat="41.648885" lon="-0.788859"><ele>197.0</ele><time>2026-05-04T08:15:43.717Z</time></trkpt><trkpt lat="41.6488269" lon="-0.7887128"><ele>197.5</ele><time>2026-05-04T08:15:44.716Z</time></trkpt><trkpt lat="41.6487661" lon="-0.7885635"><ele>198.0</ele><time>2026-05-04T08:15:45.717Z</time></trkpt><trkpt lat="41.6487097" lon="-0.7884127"><ele>199.75</ele><time>2026-05-04T08:15:46.717Z</time></trkpt><trkpt lat="41.6486508" lon="-0.7882521"><ele>201.5</ele><time>2026-05-04T08:15:47.717Z</time></trkpt><trkpt lat="41.6485946" lon="-0.7880928"><ele>203.25</ele><time>2026-05-04T08:15:48.717Z</time></trkpt><trkpt lat="41.6485353" lon="-0.7879318"><ele>205.0</ele><time>2026-05-04T08:15:49.717Z</time></trkpt><trkpt lat="41.648472" lon="-0.7877707"><ele>203.0</ele><time>2026-05-04T08:15:50.716Z</time></trkpt><trkpt lat="41.648407" lon="-0.7876124"><ele>201.0</ele><time>2026-05-04T08:15:51.717Z</time></trkpt><trkpt lat="41.6483395" lon="-0.7874561"><ele>199.0</ele><time>2026-05-04T08:15:52.717Z</time></trkpt><trkpt lat="41.6482651" lon="-0.7873041"><ele>197.0</ele><time>2026-05-04T08:15:53.717Z</time></trkpt><trkpt lat="41.6481851" lon="-0.7871611"><ele>197.0</ele><time>2026-05-04T08:15:54.716Z</time></trkpt><trkpt lat="41.6480956" lon="-0.7870232"><ele>197.0</ele><time>2026-05-04T08:15:55.717Z</time></trkpt><trkpt lat="41.6480059" lon="-0.7868906"><ele>197.0</ele><time>2026-05-04T08:15:56.717Z</time></trkpt><trkpt lat="41.647916" lon="-0.786758"><ele>197.0</ele><time>2026-05-04T08:15:57.717Z</time></trkpt><trkpt lat="41.6478244" lon="-0.7866237"><ele>195.0</ele><time>2026-05-04T08:15:58.716Z</time></trkpt><trkpt lat="41.6477341" lon="-0.7864914"><ele>193.0</ele><time>2026-05-04T08:15:59.717Z</time></trkpt><trkpt lat="41.647645" lon="-0.7863581"><ele>191.0</ele><time>2026-05-04T08:16:00.717Z</time></trkpt><trkpt lat="41.6475571" lon="-0.7862253"><ele>189.0</ele><time>2026-05-04T08:16:01.717Z</time></trkpt><trkpt lat="41.6474699" lon="-0.78609"><ele>191.0</ele><time>2026-05-04T08:16:02.717Z</time></trkpt><trkpt lat="41.6473824" lon="-0.7859557"><ele>193.0</ele><time>2026-05-04T08:16:03.717Z</time></trkpt><trkpt lat="41.6472951" lon="-0.7858157"><ele>195.0</ele><time>2026-05-04T08:16:04.717Z</time></trkpt><trkpt lat="41.6472119" lon="-0.7856729"><ele>197.0</ele><time>2026-05-04T08:16:05.717Z</time></trkpt><trkpt lat="41.6471366" lon="-0.7855208"><ele>197.0</ele><time>2026-05-04T08:16:06.717Z</time></trkpt><trkpt lat="41.647066" lon="-0.7853616"><ele>197.0</ele><time>2026-05-04T08:16:07.717Z</time></trkpt><trkpt lat="41.6469986" lon="-0.7852002"><ele>197.0</ele><time>2026-05-04T08:16:08.716Z</time></trkpt><trkpt lat="41.6469304" lon="-0.7850353"><ele>197.0</ele><time>2026-05-04T08:16:09.717Z</time></trkpt><trkpt lat="41.6468633" lon="-0.7848694"><ele>196.0</ele><time>2026-05-04T08:16:10.717Z</time></trkpt><trkpt lat="41.6467945" lon="-0.7847034"><ele>195.0</ele><time>2026-05-04T08:16:11.717Z</time></trkpt><trkpt lat="41.6467255" lon="-0.7845351"><ele>194.0</ele><time>2026-05-04T08:16:12.717Z</time></trkpt><trkpt lat="41.6466574" lon="-0.7843668"><ele>193.0</ele><time>2026-05-04T08:16:13.717Z</time></trkpt><trkpt lat="41.6465857" lon="-0.7841969"><ele>193.0</ele><time>2026-05-04T08:16:14.716Z</time></trkpt><trkpt lat="41.6465154" lon="-0.7840251"><ele>193.0</ele><time>2026-05-04T08:16:15.717Z</time></trkpt><trkpt lat="41.6464463" lon="-0.7838556"><ele>193.0</ele><time>2026-05-04T08:16:16.717Z</time></trkpt><trkpt lat="41.6463781" lon="-0.7836854"><ele>193.0</ele><time>2026-05-04T08:16:17.717Z</time></trkpt><trkpt lat="41.6463096" lon="-0.7835135"><ele>191.75</ele><time>2026-05-04T08:16:18.717Z</time></trkpt><trkpt lat="41.6462381" lon="-0.7833421"><ele>190.5</ele><time>2026-05-04T08:16:19.717Z</time></trkpt><trkpt lat="41.6461675" lon="-0.7831712"><ele>189.25</ele><time>2026-05-04T08:16:20.717Z</time></trkpt><trkpt lat="41.6460972" lon="-0.7829985"><ele>188.0</ele><time>2026-05-04T08:16:21.717Z</time></trkpt><trkpt lat="41.6460273" lon="-0.782826"><ele>189.5</ele><time>2026-05-04T08:16:22.717Z</time></trkpt><trkpt lat="41.6459583" lon="-0.7826538"><ele>191.0</ele><time>2026-05-04T08:16:23.716Z</time></trkpt><trkpt lat="41.6458877" lon="-0.7824844"><ele>192.5</ele><time>2026-05-04T08:16:24.717Z</time></trkpt><trkpt lat="41.6458148" lon="-0.7823119"><ele>194.0</ele><time>2026-05-04T08:16:25.717Z</time></trkpt><trkpt lat="41.6457444" lon="-0.78214"><ele>194.0</ele><time>2026-05-04T08:16:26.717Z</time></trkpt><trkpt lat="41.6456745" lon="-0.7819666"><ele>194.0</ele><time>2026-05-04T08:16:27.717Z</time></trkpt><trkpt lat="41.6456043" lon="-0.7817928"><ele>194.0</ele><time>2026-05-04T08:16:28.717Z</time></trkpt><trkpt lat="41.6455339" lon="-0.7816201"><ele>194.0</ele><time>2026-05-04T08:16:29.717Z</time></trkpt><trkpt lat="41.6454619" lon="-0.7814468"><ele>193.25</ele><time>2026-05-04T08:16:30.717Z</time></trkpt><trkpt lat="41.6453901" lon="-0.7812727"><ele>192.5</ele><time>2026-05-04T08:16:31.717Z</time></trkpt><trkpt lat="41.6453176" lon="-0.7810996"><ele>191.75</ele><time>2026-05-04T08:16:32.717Z</time></trkpt><trkpt lat="41.645248" lon="-0.7809278"><ele>191.0</ele><time>2026-05-04T08:16:33.716Z</time></trkpt><trkpt lat="41.6451761" lon="-0.7807549"><ele>191.0</ele><time>2026-05-04T08:16:34.717Z</time></trkpt><trkpt lat="41.6451037" lon="-0.7805823"><ele>191.0</ele><time>2026-05-04T08:16:35.717Z</time></trkpt><trkpt lat="41.6450314" lon="-0.7804081"><ele>191.0</ele><time>2026-05-04T08:16:36.717Z</time></trkpt><trkpt lat="41.6449609" lon="-0.7802367"><ele>191.0</ele><time>2026-05-04T08:16:37.716Z</time></trkpt><trkpt lat="41.6448894" lon="-0.7800627"><ele>192.5</ele><time>2026-05-04T08:16:38.717Z</time></trkpt><trkpt lat="41.6448152" lon="-0.7798901"><ele>194.0</ele><time>2026-05-04T08:16:39.717Z</time></trkpt><trkpt lat="41.6447465" lon="-0.7797162"><ele>195.5</ele><time>2026-05-04T08:16:40.716Z</time></trkpt><trkpt lat="41.6446758" lon="-0.7795389"><ele>197.0</ele><time>2026-05-04T08:16:41.717Z</time></trkpt><trkpt lat="41.6446057" lon="-0.7793655"><ele>197.25</ele><time>2026-05-04T08:16:42.717Z</time></trkpt><trkpt lat="41.6445358" lon="-0.7791919"><ele>197.5</ele><time>2026-05-04T08:16:43.717Z</time></trkpt><trkpt lat="41.6444657" lon="-0.7790193"><ele>197.75</ele><time>2026-05-04T08:16:44.717Z</time></trkpt><trkpt lat="41.6443917" lon="-0.7788475"><ele>198.0</ele><time>2026-05-04T08:16:45.717Z</time></trkpt><trkpt lat="41.6443187" lon="-0.778678"><ele>196.25</ele><time>2026-05-04T08:16:46.717Z</time></trkpt><trkpt lat="41.6442492" lon="-0.7785086"><ele>194.5</ele><time>2026-05-04T08:16:47.717Z</time></trkpt><trkpt lat="41.6441785" lon="-0.7783388"><ele>192.75</ele><time>2026-05-04T08:16:48.717Z</time></trkpt><trkpt lat="41.6441122" lon="-0.7781693"><ele>191.0</ele><time>2026-05-04T08:16:49.717Z</time></trkpt><trkpt lat="41.6440484" lon="-0.7779991"><ele>191.0</ele><time>2026-05-04T08:16:50.717Z</time></trkpt><trkpt lat="41.6439878" lon="-0.7778271"><ele>191.0</ele><time>2026-05-04T08:16:51.717Z</time></trkpt><trkpt lat="41.6439312" lon="-0.7776538"><ele>191.0</ele><time>2026-05-04T08:16:52.717Z</time></trkpt><trkpt lat="41.6438801" lon="-0.7774861"><ele>191.0</ele><time>2026-05-04T08:16:53.717Z</time></trkpt><trkpt lat="41.6438333" lon="-0.7773215"><ele>191.75</ele><time>2026-05-04T08:16:54.717Z</time></trkpt><trkpt lat="41.6437897" lon="-0.7771596"><ele>192.5</ele><time>2026-05-04T08:16:55.717Z</time></trkpt><trkpt lat="41.6437458" lon="-0.7770045"><ele>193.25</ele><time>2026-05-04T08:16:56.717Z</time></trkpt><trkpt lat="41.6436971" lon="-0.7768498"><ele>194.0</ele><time>2026-05-04T08:16:57.716Z</time></trkpt><trkpt lat="41.6436537" lon="-0.7766939"><ele>192.75</ele><time>2026-05-04T08:16:58.717Z</time></trkpt><trkpt lat="41.6436089" lon="-0.7765376"><ele>191.5</ele><time>2026-05-04T08:16:59.716Z</time></trkpt><trkpt lat="41.6435641" lon="-0.7763807"><ele>190.25</ele><time>2026-05-04T08:17:00.717Z</time></trkpt><trkpt lat="41.6435202" lon="-0.7762227"><ele>189.0</ele><time>2026-05-04T08:17:01.717Z</time></trkpt><trkpt lat="41.643475" lon="-0.7760586"><ele>189.5</ele><time>2026-05-04T08:17:02.716Z</time></trkpt><trkpt lat="41.6434287" lon="-0.7758943"><ele>190.0</ele><time>2026-05-04T08:17:03.717Z</time></trkpt><trkpt lat="41.6433815" lon="-0.7757254"><ele>190.5</ele><time>2026-05-04T08:17:04.716Z</time></trkpt><trkpt lat="41.643334" lon="-0.7755574"><ele>191.0</ele><time>2026-05-04T08:17:05.717Z</time></trkpt><trkpt lat="41.6432876" lon="-0.7753869"><ele>191.0</ele><time>2026-05-04T08:17:06.717Z</time></trkpt><trkpt lat="41.6432403" lon="-0.775218"><ele>191.0</ele><time>2026-05-04T08:17:07.717Z</time></trkpt><trkpt lat="41.6431921" lon="-0.7750458"><ele>191.0</ele><time>2026-05-04T08:17:08.717Z</time></trkpt><trkpt lat="41.6431451" lon="-0.774876"><ele>191.0</ele><time>2026-05-04T08:17:09.717Z</time></trkpt><trkpt lat="41.6430952" lon="-0.7747015"><ele>191.0</ele><time>2026-05-04T08:17:10.717Z</time></trkpt><trkpt lat="41.6430496" lon="-0.7745257"><ele>191.0</ele><time>2026-05-04T08:17:11.716Z</time></trkpt><trkpt lat="41.6430011" lon="-0.7743491"><ele>191.0</ele><time>2026-05-04T08:17:12.717Z</time></trkpt><trkpt lat="41.642951" lon="-0.774171"><ele>191.0</ele><time>2026-05-04T08:17:13.717Z</time></trkpt><trkpt lat="41.6429033" lon="-0.7739932"><ele>191.25</ele><time>2026-05-04T08:17:14.716Z</time></trkpt><trkpt lat="41.6428521" lon="-0.7738156"><ele>191.5</ele><time>2026-05-04T08:17:15.717Z</time></trkpt><trkpt lat="41.6428026" lon="-0.7736365"><ele>191.75</ele><time>2026-05-04T08:17:16.717Z</time></trkpt><trkpt lat="41.6427498" lon="-0.7734585"><ele>192.0</ele><time>2026-05-04T08:17:17.716Z</time></trkpt><trkpt lat="41.6426986" lon="-0.773281"><ele>192.0</ele><time>2026-05-04T08:17:18.717Z</time></trkpt><trkpt lat="41.6426509" lon="-0.7731172"><ele>192.0</ele><time>2026-05-04T08:17:19.717Z</time></trkpt><trkpt lat="41.6426053" lon="-0.7729535"><ele>192.0</ele><time>2026-05-04T08:17:20.716Z</time></trkpt><trkpt lat="41.6425588" lon="-0.7727906"><ele>192.0</ele><time>2026-05-04T08:17:21.717Z</time></trkpt><trkpt lat="41.642514" lon="-0.7726296"><ele>191.75</ele><time>2026-05-04T08:17:22.717Z</time></trkpt><trkpt lat="41.6424694" lon="-0.7724686"><ele>191.5</ele><time>2026-05-04T08:17:23.716Z</time></trkpt><trkpt lat="41.6424238" lon="-0.7723044"><ele>191.25</ele><time>2026-05-04T08:17:24.717Z</time></trkpt><trkpt lat="41.6423795" lon="-0.772145"><ele>191.0</ele><time>2026-05-04T08:17:25.716Z</time></trkpt><trkpt lat="41.6423341" lon="-0.771987"><ele>192.25</ele><time>2026-05-04T08:17:26.716Z</time></trkpt><trkpt lat="41.6422894" lon="-0.7718279"><ele>193.5</ele><time>2026-05-04T08:17:27.717Z</time></trkpt><trkpt lat="41.6422466" lon="-0.7716725"><ele>194.75</ele><time>2026-05-04T08:17:28.717Z</time></trkpt><trkpt lat="41.642201" lon="-0.7715142"><ele>196.0</ele><time>2026-05-04T08:17:29.717Z</time></trkpt><trkpt lat="41.6421537" lon="-0.7713552"><ele>196.0</ele><time>2026-05-04T08:17:30.717Z</time></trkpt><trkpt lat="41.6421026" lon="-0.7711993"><ele>196.0</ele><time>2026-05-04T08:17:31.717Z</time></trkpt><trkpt lat="41.6420473" lon="-0.7710457"><ele>196.0</ele><time>2026-05-04T08:17:32.716Z</time></trkpt><trkpt lat="41.6419878" lon="-0.7708942"><ele>196.0</ele><time>2026-05-04T08:17:33.717Z</time></trkpt><trkpt lat="41.6419239" lon="-0.7707491"><ele>195.5</ele><time>2026-05-04T08:17:34.717Z</time></trkpt><trkpt lat="41.6418516" lon="-0.7706093"><ele>195.0</ele><time>2026-05-04T08:17:35.717Z</time></trkpt><trkpt lat="41.6417747" lon="-0.7704685"><ele>194.5</ele><time>2026-05-04T08:17:36.717Z</time></trkpt><trkpt lat="41.6416988" lon="-0.770325"><ele>194.0</ele><time>2026-05-04T08:17:37.717Z</time></trkpt><trkpt lat="41.6416225" lon="-0.7701833"><ele>193.75</ele><time>2026-05-04T08:17:38.717Z</time></trkpt><trkpt lat="41.6415475" lon="-0.7700421"><ele>193.5</ele><time>2026-05-04T08:17:39.717Z</time></trkpt><trkpt lat="41.6414738" lon="-0.7698986"><ele>193.25</ele><time>2026-05-04T08:17:40.717Z</time></trkpt><trkpt lat="41.6413991" lon="-0.7697566"><ele>193.0</ele><time>2026-05-04T08:17:41.717Z</time></trkpt><trkpt lat="41.6413219" lon="-0.7696118"><ele>193.0</ele><time>2026-05-04T08:17:42.716Z</time></trkpt><trkpt lat="41.6412444" lon="-0.769469"><ele>193.0</ele><time>2026-05-04T08:17:43.717Z</time></trkpt><trkpt lat="41.6411662" lon="-0.7693218"><ele>193.0</ele><time>2026-05-04T08:17:44.717Z</time></trkpt><trkpt lat="41.6410901" lon="-0.7691725"><ele>193.0</ele><time>2026-05-04T08:17:45.717Z</time></trkpt><trkpt lat="41.6410132" lon="-0.7690237"><ele>193.0</ele><time>2026-05-04T08:17:46.717Z</time></trkpt><trkpt lat="41.6409345" lon="-0.7688747"><ele>193.0</ele><time>2026-05-04T08:17:47.717Z</time></trkpt><trkpt lat="41.6408581" lon="-0.7687247"><ele>193.0</ele><time>2026-05-04T08:17:48.717Z</time></trkpt><trkpt lat="41.6407773" lon="-0.7685749"><ele>193.0</ele><time>2026-05-04T08:17:49.717Z</time></trkpt><trkpt lat="41.6406955" lon="-0.7684225"><ele>193.0</ele><time>2026-05-04T08:17:50.717Z</time></trkpt><trkpt lat="41.6406133" lon="-0.7682708"><ele>193.0</ele><time>2026-05-04T08:17:51.717Z</time></trkpt><trkpt lat="41.6405304" lon="-0.7681169"><ele>193.0</ele><time>2026-05-04T08:17:52.717Z</time></trkpt><trkpt lat="41.6404535" lon="-0.7679682"><ele>193.0</ele><time>2026-05-04T08:17:53.717Z</time></trkpt><trkpt lat="41.6403746" lon="-0.767819"><ele>193.5</ele><time>2026-05-04T08:17:54.716Z</time></trkpt><trkpt lat="41.6402952" lon="-0.7676688"><ele>194.0</ele><time>2026-05-04T08:17:55.717Z</time></trkpt><trkpt lat="41.6402168" lon="-0.7675189"><ele>194.5</ele><time>2026-05-04T08:17:56.717Z</time></trkpt><trkpt lat="41.6401419" lon="-0.7673692"><ele>195.0</ele><time>2026-05-04T08:17:57.717Z</time></trkpt><trkpt lat="41.6400651" lon="-0.7672193"><ele>195.0</ele><time>2026-05-04T08:17:58.716Z</time></trkpt><trkpt lat="41.6399883" lon="-0.7670678"><ele>195.0</ele><time>2026-05-04T08:17:59.717Z</time></trkpt><trkpt lat="41.639907" lon="-0.7669135"><ele>195.0</ele><time>2026-05-04T08:18:00.717Z</time></trkpt><trkpt lat="41.6398251" lon="-0.766761"><ele>195.0</ele><time>2026-05-04T08:18:01.717Z</time></trkpt><trkpt lat="41.6397429" lon="-0.7666077"><ele>194.75</ele><time>2026-05-04T08:18:02.717Z</time></trkpt><trkpt lat="41.6396613" lon="-0.7664536"><ele>194.5</ele><time>2026-05-04T08:18:03.718Z</time></trkpt><trkpt lat="41.639581" lon="-0.7662981"><ele>194.25</ele><time>2026-05-04T08:18:04.718Z</time></trkpt><trkpt lat="41.6395014" lon="-0.7661409"><ele>194.0</ele><time>2026-05-04T08:18:05.718Z</time></trkpt><trkpt lat="41.6394199" lon="-0.7659838"><ele>194.0</ele><time>2026-05-04T08:18:06.718Z</time></trkpt><trkpt lat="41.6393392" lon="-0.7658298"><ele>194.0</ele><time>2026-05-04T08:18:07.718Z</time></trkpt><trkpt lat="41.6392573" lon="-0.7656719"><ele>194.0</ele><time>2026-05-04T08:18:08.718Z</time></trkpt><trkpt lat="41.6391735" lon="-0.7655141"><ele>194.0</ele><time>2026-05-04T08:18:09.718Z</time></trkpt><trkpt lat="41.6390884" lon="-0.7653548"><ele>194.0</ele><time>2026-05-04T08:18:10.717Z</time></trkpt><trkpt lat="41.6390065" lon="-0.7651954"><ele>194.0</ele><time>2026-05-04T08:18:11.718Z</time></trkpt><trkpt lat="41.6389228" lon="-0.7650385"><ele>194.0</ele><time>2026-05-04T08:18:12.718Z</time></trkpt><trkpt lat="41.638839" lon="-0.7648835"><ele>194.0</ele><time>2026-05-04T08:18:13.718Z</time></trkpt><trkpt lat="41.6387537" lon="-0.7647336"><ele>194.0</ele><time>2026-05-04T08:18:14.718Z</time></trkpt><trkpt lat="41.6386726" lon="-0.7645954"><ele>194.0</ele><time>2026-05-04T08:18:15.718Z</time></trkpt><trkpt lat="41.6385978" lon="-0.7644719"><ele>194.0</ele><time>2026-05-04T08:18:16.718Z</time></trkpt><trkpt lat="41.6385242" lon="-0.7643568"><ele>194.0</ele><time>2026-05-04T08:18:17.718Z</time></trkpt><trkpt lat="41.6384605" lon="-0.7642582"><ele>193.39999999999998</ele><time>2026-05-04T08:18:18.717Z</time></trkpt><trkpt lat="41.6384023" lon="-0.764174"><ele>192.8</ele><time>2026-05-04T08:18:19.718Z</time></trkpt><trkpt lat="41.6383469" lon="-0.7641049"><ele>192.2</ele><time>2026-05-04T08:18:20.718Z</time></trkpt><trkpt lat="41.6382626" lon="-0.7640339"><ele>191.60000000000002</ele><time>2026-05-04T08:18:22.718Z</time></trkpt><trkpt lat="41.6381706" lon="-0.7640104"><ele>191.0</ele><time>2026-05-04T08:18:26.717Z</time></trkpt><trkpt lat="41.6380584" lon="-0.7639702"><ele>191.0</ele><time>2026-05-04T08:18:28.718Z</time></trkpt><trkpt lat="41.6379969" lon="-0.7639116"><ele>191.0</ele><time>2026-05-04T08:18:29.718Z</time></trkpt><trkpt lat="41.6379458" lon="-0.7638307"><ele>191.0</ele><time>2026-05-04T08:18:30.718Z</time></trkpt><trkpt lat="41.6379142" lon="-0.7637272"><ele>191.0</ele><time>2026-05-04T08:18:31.718Z</time></trkpt><trkpt lat="41.6379094" lon="-0.763615"><ele>191.0</ele><time>2026-05-04T08:18:32.718Z</time></trkpt><trkpt lat="41.6378919" lon="-0.7634965"><ele>191.0</ele><time>2026-05-04T08:18:33.718Z</time></trkpt><trkpt lat="41.6378486" lon="-0.7633851"><ele>190.60000000000002</ele><time>2026-05-04T08:18:34.718Z</time></trkpt><trkpt lat="41.637784" lon="-0.763276"><ele>190.2</ele><time>2026-05-04T08:18:35.718Z</time></trkpt><trkpt lat="41.6377091" lon="-0.7631708"><ele>189.8</ele><time>2026-05-04T08:18:36.718Z</time></trkpt><trkpt lat="41.6376358" lon="-0.7630684"><ele>189.39999999999998</ele><time>2026-05-04T08:18:37.718Z</time></trkpt><trkpt lat="41.6375584" lon="-0.7629594"><ele>189.0</ele><time>2026-05-04T08:18:38.718Z</time></trkpt><trkpt lat="41.6374791" lon="-0.7628482"><ele>189.0</ele><time>2026-05-04T08:18:39.718Z</time></trkpt><trkpt lat="41.6373965" lon="-0.7627332"><ele>189.0</ele><time>2026-05-04T08:18:40.718Z</time></trkpt><trkpt lat="41.6373106" lon="-0.7626132"><ele>189.0</ele><time>2026-05-04T08:18:41.717Z</time></trkpt><trkpt lat="41.6372299" lon="-0.7624946"><ele>189.0</ele><time>2026-05-04T08:18:42.718Z</time></trkpt><trkpt lat="41.6371535" lon="-0.7623798"><ele>188.0</ele><time>2026-05-04T08:18:43.717Z</time></trkpt><trkpt lat="41.6370741" lon="-0.7622623"><ele>187.0</ele><time>2026-05-04T08:18:44.717Z</time></trkpt><trkpt lat="41.6369954" lon="-0.7621442"><ele>186.0</ele><time>2026-05-04T08:18:45.717Z</time></trkpt><trkpt lat="41.6369133" lon="-0.7620225"><ele>185.0</ele><time>2026-05-04T08:18:46.718Z</time></trkpt><trkpt lat="41.6368319" lon="-0.7619046"><ele>187.0</ele><time>2026-05-04T08:18:47.718Z</time></trkpt><trkpt lat="41.6367543" lon="-0.761791"><ele>189.0</ele><time>2026-05-04T08:18:48.718Z</time></trkpt><trkpt lat="41.6366732" lon="-0.7616773"><ele>191.0</ele><time>2026-05-04T08:18:49.718Z</time></trkpt><trkpt lat="41.6365946" lon="-0.7615638"><ele>193.0</ele><time>2026-05-04T08:18:50.718Z</time></trkpt><trkpt lat="41.6365142" lon="-0.7614464"><ele>193.0</ele><time>2026-05-04T08:18:51.718Z</time></trkpt><trkpt lat="41.636436" lon="-0.7613312"><ele>193.0</ele><time>2026-05-04T08:18:52.718Z</time></trkpt><trkpt lat="41.6363562" lon="-0.761217"><ele>193.0</ele><time>2026-05-04T08:18:53.718Z</time></trkpt><trkpt lat="41.636277" lon="-0.7611013"><ele>193.0</ele><time>2026-05-04T08:18:54.718Z</time></trkpt><trkpt lat="41.6361977" lon="-0.7609792"><ele>191.5</ele><time>2026-05-04T08:18:55.718Z</time></trkpt><trkpt lat="41.6361164" lon="-0.7608599"><ele>190.0</ele><time>2026-05-04T08:18:56.717Z</time></trkpt><trkpt lat="41.636035" lon="-0.7607343"><ele>188.5</ele><time>2026-05-04T08:18:57.717Z</time></trkpt><trkpt lat="41.6359556" lon="-0.7606084"><ele>187.0</ele><time>2026-05-04T08:18:58.718Z</time></trkpt><trkpt lat="41.6358759" lon="-0.7604814"><ele>187.0</ele><time>2026-05-04T08:18:59.717Z</time></trkpt><trkpt lat="41.6357978" lon="-0.7603465"><ele>187.0</ele><time>2026-05-04T08:19:00.718Z</time></trkpt><trkpt lat="41.6357204" lon="-0.7602114"><ele>187.0</ele><time>2026-05-04T08:19:01.717Z</time></trkpt><trkpt lat="41.6356463" lon="-0.7600745"><ele>187.0</ele><time>2026-05-04T08:19:02.718Z</time></trkpt><trkpt lat="41.635571" lon="-0.7599317"><ele>188.25</ele><time>2026-05-04T08:19:03.718Z</time></trkpt><trkpt lat="41.6354968" lon="-0.7597928"><ele>189.5</ele><time>2026-05-04T08:19:04.717Z</time></trkpt><trkpt lat="41.6354216" lon="-0.7596513"><ele>190.75</ele><time>2026-05-04T08:19:05.718Z</time></trkpt><trkpt lat="41.6353436" lon="-0.7595052"><ele>192.0</ele><time>2026-05-04T08:19:06.718Z</time></trkpt><trkpt lat="41.635264" lon="-0.7593592"><ele>192.0</ele><time>2026-05-04T08:19:07.718Z</time></trkpt><trkpt lat="41.63519" lon="-0.7592208"><ele>192.0</ele><time>2026-05-04T08:19:08.718Z</time></trkpt><trkpt lat="41.6351091" lon="-0.7590736"><ele>192.0</ele><time>2026-05-04T08:19:09.718Z</time></trkpt><trkpt lat="41.6350287" lon="-0.7589248"><ele>192.0</ele><time>2026-05-04T08:19:10.717Z</time></trkpt><trkpt lat="41.634949" lon="-0.7587746"><ele>192.0</ele><time>2026-05-04T08:19:11.718Z</time></trkpt><trkpt lat="41.6348684" lon="-0.7586224"><ele>192.0</ele><time>2026-05-04T08:19:12.718Z</time></trkpt><trkpt lat="41.634789" lon="-0.7584773"><ele>192.0</ele><time>2026-05-04T08:19:13.718Z</time></trkpt><trkpt lat="41.6347176" lon="-0.7583441"><ele>192.0</ele><time>2026-05-04T08:19:14.718Z</time></trkpt><trkpt lat="41.6346457" lon="-0.75821"><ele>191.2</ele><time>2026-05-04T08:19:15.718Z</time></trkpt><trkpt lat="41.6345768" lon="-0.7580819"><ele>190.39999999999998</ele><time>2026-05-04T08:19:16.718Z</time></trkpt><trkpt lat="41.6345153" lon="-0.7579679"><ele>189.60000000000002</ele><time>2026-05-04T08:19:17.718Z</time></trkpt><trkpt lat="41.6344552" lon="-0.7578655"><ele>188.8</ele><time>2026-05-04T08:19:18.717Z</time></trkpt><trkpt lat="41.6343998" lon="-0.757771"><ele>188.0</ele><time>2026-05-04T08:19:19.718Z</time></trkpt><trkpt lat="41.63434" lon="-0.7577147"><ele>188.42857142857142</ele><time>2026-05-04T08:19:20.718Z</time></trkpt><trkpt lat="41.6342669" lon="-0.7576826"><ele>188.85714285714283</ele><time>2026-05-04T08:19:21.717Z</time></trkpt><trkpt lat="41.6341908" lon="-0.7576669"><ele>189.28571428571428</ele><time>2026-05-04T08:19:22.718Z</time></trkpt><trkpt lat="41.6341146" lon="-0.7576305"><ele>189.71428571428572</ele><time>2026-05-04T08:19:23.718Z</time></trkpt><trkpt lat="41.6340572" lon="-0.7575703"><ele>190.14285714285714</ele><time>2026-05-04T08:19:24.718Z</time></trkpt><trkpt lat="41.6340236" lon="-0.757495"><ele>190.57142857142858</ele><time>2026-05-04T08:19:25.718Z</time></trkpt><trkpt lat="41.6340018" lon="-0.7573985"><ele>191.0</ele><time>2026-05-04T08:19:26.718Z</time></trkpt><trkpt lat="41.6340037" lon="-0.7572933"><ele>191.0</ele><time>2026-05-04T08:19:27.718Z</time></trkpt><trkpt lat="41.6340167" lon="-0.7571815"><ele>191.0</ele><time>2026-05-04T08:19:28.717Z</time></trkpt><trkpt lat="41.6340175" lon="-0.7570765"><ele>191.0</ele><time>2026-05-04T08:19:29.718Z</time></trkpt><trkpt lat="41.6339935" lon="-0.7569704"><ele>191.0</ele><time>2026-05-04T08:19:30.718Z</time></trkpt><trkpt lat="41.6339385" lon="-0.7568545"><ele>191.0</ele><time>2026-05-04T08:19:31.717Z</time></trkpt><trkpt lat="41.6338797" lon="-0.7567519"><ele>191.0</ele><time>2026-05-04T08:19:32.718Z</time></trkpt><trkpt lat="41.6338167" lon="-0.7566431"><ele>191.20000000000002</ele><time>2026-05-04T08:19:33.717Z</time></trkpt><trkpt lat="41.633757" lon="-0.7565215"><ele>191.4</ele><time>2026-05-04T08:19:34.718Z</time></trkpt><trkpt lat="41.6336968" lon="-0.7564031"><ele>191.6</ele><time>2026-05-04T08:19:35.718Z</time></trkpt><trkpt lat="41.6336391" lon="-0.756285"><ele>191.8</ele><time>2026-05-04T08:19:36.718Z</time></trkpt><trkpt lat="41.633581" lon="-0.7561659"><ele>192.0</ele><time>2026-05-04T08:19:37.718Z</time></trkpt><trkpt lat="41.6335285" lon="-0.7560441"><ele>192.6</ele><time>2026-05-04T08:19:38.718Z</time></trkpt><trkpt lat="41.6334784" lon="-0.7559251"><ele>193.2</ele><time>2026-05-04T08:19:39.718Z</time></trkpt><trkpt lat="41.6334312" lon="-0.7558079"><ele>193.8</ele><time>2026-05-04T08:19:40.717Z</time></trkpt><trkpt lat="41.6333862" lon="-0.7556971"><ele>194.4</ele><time>2026-05-04T08:19:41.718Z</time></trkpt><trkpt lat="41.6333385" lon="-0.7555882"><ele>195.0</ele><time>2026-05-04T08:19:42.718Z</time></trkpt><trkpt lat="41.6332897" lon="-0.755478"><ele>195.0</ele><time>2026-05-04T08:19:43.717Z</time></trkpt><trkpt lat="41.6332456" lon="-0.7553759"><ele>195.0</ele><time>2026-05-04T08:19:44.718Z</time></trkpt><trkpt lat="41.6332049" lon="-0.755272"><ele>195.0</ele><time>2026-05-04T08:19:45.718Z</time></trkpt><trkpt lat="41.6331609" lon="-0.7551672"><ele>195.0</ele><time>2026-05-04T08:19:46.717Z</time></trkpt><trkpt lat="41.6331194" lon="-0.7550584"><ele>195.0</ele><time>2026-05-04T08:19:47.718Z</time></trkpt><trkpt lat="41.6330759" lon="-0.7549449"><ele>195.0</ele><time>2026-05-04T08:19:48.718Z</time></trkpt><trkpt lat="41.6330393" lon="-0.7548299"><ele>195.0</ele><time>2026-05-04T08:19:49.718Z</time></trkpt><trkpt lat="41.6329988" lon="-0.7547142"><ele>195.0</ele><time>2026-05-04T08:19:50.717Z</time></trkpt><trkpt lat="41.6329509" lon="-0.7545968"><ele>195.0</ele><time>2026-05-04T08:19:51.718Z</time></trkpt><trkpt lat="41.6329041" lon="-0.7544765"><ele>195.0</ele><time>2026-05-04T08:19:52.718Z</time></trkpt><trkpt lat="41.6328588" lon="-0.7543578"><ele>194.8</ele><time>2026-05-04T08:19:53.717Z</time></trkpt><trkpt lat="41.6328124" lon="-0.7542423"><ele>194.6</ele><time>2026-05-04T08:19:54.717Z</time></trkpt><trkpt lat="41.6327695" lon="-0.754128"><ele>194.39999999999998</ele><time>2026-05-04T08:19:55.718Z</time></trkpt><trkpt lat="41.6327251" lon="-0.7540102"><ele>194.2</ele><time>2026-05-04T08:19:56.718Z</time></trkpt><trkpt lat="41.6326816" lon="-0.7538917"><ele>194.0</ele><time>2026-05-04T08:19:57.718Z</time></trkpt><trkpt lat="41.6326415" lon="-0.7537666"><ele>194.39999999999998</ele><time>2026-05-04T08:19:58.718Z</time></trkpt><trkpt lat="41.6325955" lon="-0.7536459"><ele>194.8</ele><time>2026-05-04T08:19:59.718Z</time></trkpt><trkpt lat="41.6325447" lon="-0.7535296"><ele>195.2</ele><time>2026-05-04T08:20:00.718Z</time></trkpt><trkpt lat="41.6324963" lon="-0.7534208"><ele>195.60000000000002</ele><time>2026-05-04T08:20:01.718Z</time></trkpt><trkpt lat="41.6324546" lon="-0.7533164"><ele>196.0</ele><time>2026-05-04T08:20:02.718Z</time></trkpt><trkpt lat="41.6324136" lon="-0.7532239"><ele>196.33333333333331</ele><time>2026-05-04T08:20:03.718Z</time></trkpt><trkpt lat="41.6323792" lon="-0.7531373"><ele>196.66666666666666</ele><time>2026-05-04T08:20:04.717Z</time></trkpt><trkpt lat="41.6323471" lon="-0.7530519"><ele>197.0</ele><time>2026-05-04T08:20:05.718Z</time></trkpt><trkpt lat="41.6322983" lon="-0.7529176"><ele>197.33333333333331</ele><time>2026-05-04T08:20:07.718Z</time></trkpt><trkpt lat="41.6322602" lon="-0.7528223"><ele>197.66666666666666</ele><time>2026-05-04T08:20:09.718Z</time></trkpt><trkpt lat="41.6322175" lon="-0.7527049"><ele>198.0</ele><time>2026-05-04T08:20:11.717Z</time></trkpt><trkpt lat="41.6321847" lon="-0.7526243"><ele>198.0</ele><time>2026-05-04T08:20:12.718Z</time></trkpt><trkpt lat="41.6321442" lon="-0.7525318"><ele>198.0</ele><time>2026-05-04T08:20:13.717Z</time></trkpt><trkpt lat="41.6320987" lon="-0.7524299"><ele>198.0</ele><time>2026-05-04T08:20:14.718Z</time></trkpt><trkpt lat="41.6320509" lon="-0.7523228"><ele>198.0</ele><time>2026-05-04T08:20:15.718Z</time></trkpt><trkpt lat="41.6320079" lon="-0.7522186"><ele>198.0</ele><time>2026-05-04T08:20:16.718Z</time></trkpt><trkpt lat="41.6319604" lon="-0.7521157"><ele>198.0</ele><time>2026-05-04T08:20:17.718Z</time></trkpt><trkpt lat="41.6319131" lon="-0.7520099"><ele>198.0</ele><time>2026-05-04T08:20:18.718Z</time></trkpt><trkpt lat="41.6318579" lon="-0.751899"><ele>198.0</ele><time>2026-05-04T08:20:19.718Z</time></trkpt><trkpt lat="41.6318073" lon="-0.7517851"><ele>198.0</ele><time>2026-05-04T08:20:20.718Z</time></trkpt><trkpt lat="41.6317579" lon="-0.7516727"><ele>198.0</ele><time>2026-05-04T08:20:21.718Z</time></trkpt><trkpt lat="41.631706" lon="-0.7515592"><ele>198.0</ele><time>2026-05-04T08:20:22.718Z</time></trkpt><trkpt lat="41.631654" lon="-0.7514421"><ele>198.60000000000002</ele><time>2026-05-04T08:20:23.718Z</time></trkpt><trkpt lat="41.6316003" lon="-0.7513199"><ele>199.20000000000002</ele><time>2026-05-04T08:20:24.718Z</time></trkpt><trkpt lat="41.6315458" lon="-0.7512002"><ele>199.8</ele><time>2026-05-04T08:20:25.718Z</time></trkpt><trkpt lat="41.6314887" lon="-0.7510817"><ele>200.4</ele><time>2026-05-04T08:20:26.718Z</time></trkpt><trkpt lat="41.631436" lon="-0.7509598"><ele>201.0</ele><time>2026-05-04T08:20:27.718Z</time></trkpt><trkpt lat="41.6313771" lon="-0.7508399"><ele>201.20000000000002</ele><time>2026-05-04T08:20:28.717Z</time></trkpt><trkpt lat="41.6313216" lon="-0.7507195"><ele>201.4</ele><time>2026-05-04T08:20:29.718Z</time></trkpt><trkpt lat="41.6312692" lon="-0.7505998"><ele>201.6</ele><time>2026-05-04T08:20:30.718Z</time></trkpt><trkpt lat="41.6312155" lon="-0.7504776"><ele>201.8</ele><time>2026-05-04T08:20:31.718Z</time></trkpt><trkpt lat="41.6311647" lon="-0.7503536"><ele>202.0</ele><time>2026-05-04T08:20:32.717Z</time></trkpt><trkpt lat="41.6311135" lon="-0.75023"><ele>202.0</ele><time>2026-05-04T08:20:33.718Z</time></trkpt><trkpt lat="41.6310573" lon="-0.750106"><ele>202.0</ele><time>2026-05-04T08:20:34.718Z</time></trkpt><trkpt lat="41.6310094" lon="-0.7499789"><ele>202.0</ele><time>2026-05-04T08:20:35.718Z</time></trkpt><trkpt lat="41.6309664" lon="-0.7498458"><ele>202.0</ele><time>2026-05-04T08:20:36.718Z</time></trkpt><trkpt lat="41.6309285" lon="-0.7497124"><ele>202.0</ele><time>2026-05-04T08:20:37.717Z</time></trkpt><trkpt lat="41.6308983" lon="-0.7495704"><ele>202.0</ele><time>2026-05-04T08:20:38.718Z</time></trkpt><trkpt lat="41.6308718" lon="-0.7494208"><ele>202.0</ele><time>2026-05-04T08:20:39.718Z</time></trkpt><trkpt lat="41.6308472" lon="-0.7492707"><ele>202.0</ele><time>2026-05-04T08:20:40.719Z</time></trkpt><trkpt lat="41.6308225" lon="-0.7491227"><ele>202.0</ele><time>2026-05-04T08:20:41.719Z</time></trkpt><trkpt lat="41.6307946" lon="-0.7489754"><ele>202.0</ele><time>2026-05-04T08:20:42.719Z</time></trkpt><trkpt lat="41.6307584" lon="-0.7488293"><ele>202.0</ele><time>2026-05-04T08:20:43.719Z</time></trkpt><trkpt lat="41.6307146" lon="-0.7486811"><ele>202.0</ele><time>2026-05-04T08:20:44.719Z</time></trkpt><trkpt lat="41.6306689" lon="-0.7485376"><ele>202.0</ele><time>2026-05-04T08:20:45.719Z</time></trkpt><trkpt lat="41.6306183" lon="-0.7483917"><ele>201.75</ele><time>2026-05-04T08:20:46.719Z</time></trkpt><trkpt lat="41.6305649" lon="-0.7482481"><ele>201.5</ele><time>2026-05-04T08:20:47.719Z</time></trkpt><trkpt lat="41.6305117" lon="-0.7481041"><ele>201.25</ele><time>2026-05-04T08:20:48.719Z</time></trkpt><trkpt lat="41.6304646" lon="-0.7479565"><ele>201.0</ele><time>2026-05-04T08:20:49.719Z</time></trkpt><trkpt lat="41.6304171" lon="-0.7478154"><ele>200.5</ele><time>2026-05-04T08:20:50.719Z</time></trkpt><trkpt lat="41.6303733" lon="-0.7476795"><ele>200.0</ele><time>2026-05-04T08:20:51.719Z</time></trkpt><trkpt lat="41.630327" lon="-0.7475464"><ele>199.5</ele><time>2026-05-04T08:20:52.719Z</time></trkpt><trkpt lat="41.6302686" lon="-0.7473907"><ele>199.0</ele><time>2026-05-04T08:20:53.719Z</time></trkpt><trkpt lat="41.6302244" lon="-0.7472455"><ele>198.75</ele><time>2026-05-04T08:20:54.718Z</time></trkpt><trkpt lat="41.6301807" lon="-0.7470966"><ele>198.5</ele><time>2026-05-04T08:20:55.719Z</time></trkpt><trkpt lat="41.6301321" lon="-0.7469476"><ele>198.25</ele><time>2026-05-04T08:20:56.719Z</time></trkpt><trkpt lat="41.6300831" lon="-0.7467961"><ele>198.0</ele><time>2026-05-04T08:20:57.719Z</time></trkpt><trkpt lat="41.6300723" lon="-0.7466179"><ele>198.0</ele><time>2026-05-04T08:20:58.718Z</time></trkpt><trkpt lat="41.6300198" lon="-0.7464628"><ele>198.0</ele><time>2026-05-04T08:20:59.718Z</time></trkpt><trkpt lat="41.6299721" lon="-0.746309"><ele>198.0</ele><time>2026-05-04T08:21:00.719Z</time></trkpt><trkpt lat="41.6299246" lon="-0.746147"><ele>198.0</ele><time>2026-05-04T08:21:01.718Z</time></trkpt><trkpt lat="41.6298821" lon="-0.7459771"><ele>197.75</ele><time>2026-05-04T08:21:02.719Z</time></trkpt><trkpt lat="41.6298403" lon="-0.7458021"><ele>197.5</ele><time>2026-05-04T08:21:03.719Z</time></trkpt><trkpt lat="41.6298059" lon="-0.7456331"><ele>197.25</ele><time>2026-05-04T08:21:04.718Z</time></trkpt><trkpt lat="41.6297701" lon="-0.7454684"><ele>197.0</ele><time>2026-05-04T08:21:05.719Z</time></trkpt><trkpt lat="41.6297368" lon="-0.7453062"><ele>196.75</ele><time>2026-05-04T08:21:06.719Z</time></trkpt><trkpt lat="41.6296992" lon="-0.7451378"><ele>196.5</ele><time>2026-05-04T08:21:07.719Z</time></trkpt><trkpt lat="41.6296675" lon="-0.7449721"><ele>196.25</ele><time>2026-05-04T08:21:08.719Z</time></trkpt><trkpt lat="41.6296326" lon="-0.7448004"><ele>196.0</ele><time>2026-05-04T08:21:09.719Z</time></trkpt><trkpt lat="41.6295954" lon="-0.7446328"><ele>196.0</ele><time>2026-05-04T08:21:10.718Z</time></trkpt><trkpt lat="41.6295597" lon="-0.7444598"><ele>196.0</ele><time>2026-05-04T08:21:11.719Z</time></trkpt><trkpt lat="41.6295216" lon="-0.7442869"><ele>196.0</ele><time>2026-05-04T08:21:12.719Z</time></trkpt><trkpt lat="41.6294884" lon="-0.7441134"><ele>196.0</ele><time>2026-05-04T08:21:13.719Z</time></trkpt><trkpt lat="41.6294523" lon="-0.7439414"><ele>195.25</ele><time>2026-05-04T08:21:14.719Z</time></trkpt><trkpt lat="41.6294184" lon="-0.7437725"><ele>194.5</ele><time>2026-05-04T08:21:15.719Z</time></trkpt><trkpt lat="41.6293809" lon="-0.743597"><ele>193.75</ele><time>2026-05-04T08:21:16.719Z</time></trkpt><trkpt lat="41.6293449" lon="-0.7434195"><ele>193.0</ele><time>2026-05-04T08:21:17.719Z</time></trkpt><trkpt lat="41.6293126" lon="-0.7432365"><ele>193.0</ele><time>2026-05-04T08:21:18.719Z</time></trkpt><trkpt lat="41.6292795" lon="-0.7430565"><ele>193.0</ele><time>2026-05-04T08:21:19.719Z</time></trkpt><trkpt lat="41.6292456" lon="-0.7428805"><ele>193.0</ele><time>2026-05-04T08:21:20.719Z</time></trkpt><trkpt lat="41.6292106" lon="-0.7427014"><ele>193.0</ele><time>2026-05-04T08:21:21.719Z</time></trkpt><trkpt lat="41.6291716" lon="-0.74252"><ele>193.0</ele><time>2026-05-04T08:21:22.719Z</time></trkpt><trkpt lat="41.6291317" lon="-0.7423418"><ele>193.0</ele><time>2026-05-04T08:21:23.719Z</time></trkpt><trkpt lat="41.6290953" lon="-0.7421654"><ele>193.0</ele><time>2026-05-04T08:21:24.719Z</time></trkpt><trkpt lat="41.6290577" lon="-0.7419989"><ele>193.0</ele><time>2026-05-04T08:21:25.719Z</time></trkpt><trkpt lat="41.6290195" lon="-0.7418288"><ele>193.0</ele><time>2026-05-04T08:21:26.718Z</time></trkpt><trkpt lat="41.6289814" lon="-0.7416668"><ele>193.0</ele><time>2026-05-04T08:21:27.719Z</time></trkpt><trkpt lat="41.6289521" lon="-0.7415046"><ele>193.0</ele><time>2026-05-04T08:21:28.719Z</time></trkpt><trkpt lat="41.6289179" lon="-0.7413404"><ele>193.0</ele><time>2026-05-04T08:21:29.719Z</time></trkpt><trkpt lat="41.6288835" lon="-0.7411826"><ele>193.0</ele><time>2026-05-04T08:21:30.719Z</time></trkpt><trkpt lat="41.6288482" lon="-0.7410165"><ele>193.0</ele><time>2026-05-04T08:21:31.719Z</time></trkpt><trkpt lat="41.6288134" lon="-0.7408578"><ele>193.0</ele><time>2026-05-04T08:21:32.719Z</time></trkpt><trkpt lat="41.6287818" lon="-0.740695"><ele>193.0</ele><time>2026-05-04T08:21:33.718Z</time></trkpt><trkpt lat="41.6287512" lon="-0.7405327"><ele>193.0</ele><time>2026-05-04T08:21:34.719Z</time></trkpt><trkpt lat="41.6287138" lon="-0.7403622"><ele>193.0</ele><time>2026-05-04T08:21:35.719Z</time></trkpt><trkpt lat="41.6286776" lon="-0.740195"><ele>193.0</ele><time>2026-05-04T08:21:36.719Z</time></trkpt><trkpt lat="41.6286398" lon="-0.7400274"><ele>193.0</ele><time>2026-05-04T08:21:37.718Z</time></trkpt><trkpt lat="41.6286073" lon="-0.7398542"><ele>191.75</ele><time>2026-05-04T08:21:38.719Z</time></trkpt><trkpt lat="41.6285742" lon="-0.7396827"><ele>190.5</ele><time>2026-05-04T08:21:39.719Z</time></trkpt><trkpt lat="41.6285398" lon="-0.7395113"><ele>189.25</ele><time>2026-05-04T08:21:40.719Z</time></trkpt><trkpt lat="41.6285054" lon="-0.7393404"><ele>188.0</ele><time>2026-05-04T08:21:41.719Z</time></trkpt><trkpt lat="41.6284694" lon="-0.7391663"><ele>188.0</ele><time>2026-05-04T08:21:42.718Z</time></trkpt><trkpt lat="41.6284311" lon="-0.7389875"><ele>188.0</ele><time>2026-05-04T08:21:43.718Z</time></trkpt><trkpt lat="41.6283963" lon="-0.7388059"><ele>188.0</ele><time>2026-05-04T08:21:44.719Z</time></trkpt><trkpt lat="41.6283597" lon="-0.7386286"><ele>188.0</ele><time>2026-05-04T08:21:45.719Z</time></trkpt><trkpt lat="41.6283212" lon="-0.7384484"><ele>188.75</ele><time>2026-05-04T08:21:46.719Z</time></trkpt><trkpt lat="41.6282805" lon="-0.7382683"><ele>189.5</ele><time>2026-05-04T08:21:47.718Z</time></trkpt><trkpt lat="41.6282467" lon="-0.7380911"><ele>190.25</ele><time>2026-05-04T08:21:48.719Z</time></trkpt><trkpt lat="41.6282105" lon="-0.7379181"><ele>191.0</ele><time>2026-05-04T08:21:49.719Z</time></trkpt><trkpt lat="41.6281746" lon="-0.7377405"><ele>191.25</ele><time>2026-05-04T08:21:50.719Z</time></trkpt><trkpt lat="41.6281384" lon="-0.7375628"><ele>191.5</ele><time>2026-05-04T08:21:51.719Z</time></trkpt><trkpt lat="41.6281039" lon="-0.7373859"><ele>191.75</ele><time>2026-05-04T08:21:52.718Z</time></trkpt><trkpt lat="41.6280641" lon="-0.7372084"><ele>192.0</ele><time>2026-05-04T08:21:53.719Z</time></trkpt><trkpt lat="41.6280205" lon="-0.7370316"><ele>192.75</ele><time>2026-05-04T08:21:54.719Z</time></trkpt><trkpt lat="41.627971" lon="-0.7368555"><ele>193.5</ele><time>2026-05-04T08:21:55.719Z</time></trkpt><trkpt lat="41.6279198" lon="-0.7366847"><ele>194.25</ele><time>2026-05-04T08:21:56.718Z</time></trkpt><trkpt lat="41.6278526" lon="-0.7365214"><ele>195.0</ele><time>2026-05-04T08:21:57.719Z</time></trkpt><trkpt lat="41.6277791" lon="-0.7363582"><ele>194.25</ele><time>2026-05-04T08:21:58.719Z</time></trkpt><trkpt lat="41.6277028" lon="-0.7362085"><ele>193.5</ele><time>2026-05-04T08:21:59.719Z</time></trkpt><trkpt lat="41.6276177" lon="-0.7360686"><ele>192.75</ele><time>2026-05-04T08:22:00.718Z</time></trkpt><trkpt lat="41.6275264" lon="-0.7359321"><ele>192.0</ele><time>2026-05-04T08:22:01.719Z</time></trkpt><trkpt lat="41.6274258" lon="-0.735813"><ele>192.0</ele><time>2026-05-04T08:22:02.719Z</time></trkpt><trkpt lat="41.6273227" lon="-0.7356981"><ele>192.0</ele><time>2026-05-04T08:22:03.719Z</time></trkpt><trkpt lat="41.627215" lon="-0.73559"><ele>192.0</ele><time>2026-05-04T08:22:04.719Z</time></trkpt><trkpt lat="41.6271005" lon="-0.7354902"><ele>192.0</ele><time>2026-05-04T08:22:05.719Z</time></trkpt><trkpt lat="41.626987" lon="-0.7353869"><ele>192.0</ele><time>2026-05-04T08:22:06.719Z</time></trkpt><trkpt lat="41.6268719" lon="-0.7352913"><ele>192.0</ele><time>2026-05-04T08:22:07.719Z</time></trkpt><trkpt lat="41.6267537" lon="-0.7352013"><ele>192.0</ele><time>2026-05-04T08:22:08.719Z</time></trkpt><trkpt lat="41.6266368" lon="-0.7351094"><ele>192.0</ele><time>2026-05-04T08:22:09.719Z</time></trkpt><trkpt lat="41.6265256" lon="-0.7350136"><ele>192.0</ele><time>2026-05-04T08:22:10.719Z</time></trkpt><trkpt lat="41.6264152" lon="-0.7349254"><ele>192.0</ele><time>2026-05-04T08:22:11.718Z</time></trkpt><trkpt lat="41.6263087" lon="-0.734843"><ele>192.0</ele><time>2026-05-04T08:22:12.719Z</time></trkpt><trkpt lat="41.6262041" lon="-0.7347615"><ele>192.0</ele><time>2026-05-04T08:22:13.719Z</time></trkpt><trkpt lat="41.6260995" lon="-0.7346755"><ele>191.75</ele><time>2026-05-04T08:22:14.719Z</time></trkpt><trkpt lat="41.6259962" lon="-0.7345942"><ele>191.5</ele><time>2026-05-04T08:22:15.719Z</time></trkpt><trkpt lat="41.6258928" lon="-0.734513"><ele>191.25</ele><time>2026-05-04T08:22:16.719Z</time></trkpt><trkpt lat="41.6257868" lon="-0.7344323"><ele>191.0</ele><time>2026-05-04T08:22:17.719Z</time></trkpt><trkpt lat="41.6256843" lon="-0.7343498"><ele>191.0</ele><time>2026-05-04T08:22:18.719Z</time></trkpt><trkpt lat="41.6255778" lon="-0.7342647"><ele>191.0</ele><time>2026-05-04T08:22:19.719Z</time></trkpt><trkpt lat="41.6254687" lon="-0.7341779"><ele>191.0</ele><time>2026-05-04T08:22:20.718Z</time></trkpt><trkpt lat="41.6253582" lon="-0.7340909"><ele>191.0</ele><time>2026-05-04T08:22:21.718Z</time></trkpt><trkpt lat="41.6252532" lon="-0.7339983"><ele>191.0</ele><time>2026-05-04T08:22:22.719Z</time></trkpt><trkpt lat="41.6251482" lon="-0.7339116"><ele>191.0</ele><time>2026-05-04T08:22:23.719Z</time></trkpt><trkpt lat="41.6250395" lon="-0.7338143"><ele>191.0</ele><time>2026-05-04T08:22:24.719Z</time></trkpt><trkpt lat="41.6249344" lon="-0.7337137"><ele>191.0</ele><time>2026-05-04T08:22:25.719Z</time></trkpt><trkpt lat="41.6248354" lon="-0.7336003"><ele>191.5</ele><time>2026-05-04T08:22:26.719Z</time></trkpt><trkpt lat="41.6247375" lon="-0.7334787"><ele>192.0</ele><time>2026-05-04T08:22:27.718Z</time></trkpt><trkpt lat="41.6246463" lon="-0.7333519"><ele>192.5</ele><time>2026-05-04T08:22:28.719Z</time></trkpt><trkpt lat="41.6245666" lon="-0.7332175"><ele>193.0</ele><time>2026-05-04T08:22:29.719Z</time></trkpt><trkpt lat="41.6244894" lon="-0.7330744"><ele>193.25</ele><time>2026-05-04T08:22:30.719Z</time></trkpt><trkpt lat="41.6244206" lon="-0.7329259"><ele>193.5</ele><time>2026-05-04T08:22:31.718Z</time></trkpt><trkpt lat="41.6243532" lon="-0.7327738"><ele>193.75</ele><time>2026-05-04T08:22:32.719Z</time></trkpt><trkpt lat="41.6242843" lon="-0.7326185"><ele>194.0</ele><time>2026-05-04T08:22:33.719Z</time></trkpt><trkpt lat="41.6242228" lon="-0.7324552"><ele>193.25</ele><time>2026-05-04T08:22:34.719Z</time></trkpt><trkpt lat="41.6241563" lon="-0.732298"><ele>192.5</ele><time>2026-05-04T08:22:35.719Z</time></trkpt><trkpt lat="41.6240872" lon="-0.732133"><ele>191.75</ele><time>2026-05-04T08:22:36.718Z</time></trkpt><trkpt lat="41.6240214" lon="-0.7319728"><ele>191.0</ele><time>2026-05-04T08:22:37.719Z</time></trkpt><trkpt lat="41.6239536" lon="-0.7318151"><ele>190.5</ele><time>2026-05-04T08:22:38.718Z</time></trkpt><trkpt lat="41.6238902" lon="-0.7316513"><ele>190.0</ele><time>2026-05-04T08:22:39.718Z</time></trkpt><trkpt lat="41.6238316" lon="-0.7314964"><ele>189.5</ele><time>2026-05-04T08:22:40.719Z</time></trkpt><trkpt lat="41.6237666" lon="-0.7313434"><ele>189.0</ele><time>2026-05-04T08:22:41.719Z</time></trkpt><trkpt lat="41.623707" lon="-0.7311895"><ele>189.75</ele><time>2026-05-04T08:22:42.719Z</time></trkpt><trkpt lat="41.6236454" lon="-0.7310389"><ele>190.5</ele><time>2026-05-04T08:22:43.719Z</time></trkpt><trkpt lat="41.6235868" lon="-0.7308831"><ele>191.25</ele><time>2026-05-04T08:22:44.718Z</time></trkpt><trkpt lat="41.6235237" lon="-0.7307313"><ele>192.0</ele><time>2026-05-04T08:22:45.719Z</time></trkpt><trkpt lat="41.6234615" lon="-0.730574"><ele>192.0</ele><time>2026-05-04T08:22:46.718Z</time></trkpt><trkpt lat="41.6233981" lon="-0.7304124"><ele>192.0</ele><time>2026-05-04T08:22:47.719Z</time></trkpt><trkpt lat="41.6233359" lon="-0.730249"><ele>192.0</ele><time>2026-05-04T08:22:48.718Z</time></trkpt><trkpt lat="41.6232716" lon="-0.7300857"><ele>192.0</ele><time>2026-05-04T08:22:49.719Z</time></trkpt><trkpt lat="41.6232094" lon="-0.7299237"><ele>192.5</ele><time>2026-05-04T08:22:50.718Z</time></trkpt><trkpt lat="41.6231484" lon="-0.7297669"><ele>193.0</ele><time>2026-05-04T08:22:51.719Z</time></trkpt><trkpt lat="41.6230831" lon="-0.7296094"><ele>193.5</ele><time>2026-05-04T08:22:52.719Z</time></trkpt><trkpt lat="41.6230202" lon="-0.7294471"><ele>194.0</ele><time>2026-05-04T08:22:53.719Z</time></trkpt><trkpt lat="41.6229606" lon="-0.7292863"><ele>194.25</ele><time>2026-05-04T08:22:54.718Z</time></trkpt><trkpt lat="41.6229018" lon="-0.7291247"><ele>194.5</ele><time>2026-05-04T08:22:55.719Z</time></trkpt><trkpt lat="41.6228474" lon="-0.7289475"><ele>194.75</ele><time>2026-05-04T08:22:56.719Z</time></trkpt><trkpt lat="41.622795" lon="-0.7287723"><ele>195.0</ele><time>2026-05-04T08:22:57.718Z</time></trkpt><trkpt lat="41.6227462" lon="-0.7285997"><ele>194.0</ele><time>2026-05-04T08:22:58.719Z</time></trkpt><trkpt lat="41.6227027" lon="-0.7284165"><ele>193.0</ele><time>2026-05-04T08:22:59.719Z</time></trkpt><trkpt lat="41.6226668" lon="-0.7282411"><ele>192.0</ele><time>2026-05-04T08:23:00.719Z</time></trkpt><trkpt lat="41.6226347" lon="-0.7280734"><ele>191.0</ele><time>2026-05-04T08:23:01.719Z</time></trkpt><trkpt lat="41.6226073" lon="-0.727905"><ele>191.0</ele><time>2026-05-04T08:23:02.719Z</time></trkpt><trkpt lat="41.6225817" lon="-0.7277359"><ele>191.0</ele><time>2026-05-04T08:23:03.719Z</time></trkpt><trkpt lat="41.6225584" lon="-0.7275667"><ele>191.0</ele><time>2026-05-04T08:23:04.718Z</time></trkpt><trkpt lat="41.6225371" lon="-0.7273979"><ele>191.0</ele><time>2026-05-04T08:23:05.719Z</time></trkpt><trkpt lat="41.6225193" lon="-0.7272293"><ele>191.5</ele><time>2026-05-04T08:23:06.719Z</time></trkpt><trkpt lat="41.622503" lon="-0.7270626"><ele>192.0</ele><time>2026-05-04T08:23:07.719Z</time></trkpt><trkpt lat="41.6224827" lon="-0.7268922"><ele>192.5</ele><time>2026-05-04T08:23:08.719Z</time></trkpt><trkpt lat="41.6224621" lon="-0.7267316"><ele>193.0</ele><time>2026-05-04T08:23:09.719Z</time></trkpt><trkpt lat="41.6224393" lon="-0.7265664"><ele>193.0</ele><time>2026-05-04T08:23:10.719Z</time></trkpt><trkpt lat="41.6224184" lon="-0.726401"><ele>193.0</ele><time>2026-05-04T08:23:11.719Z</time></trkpt><trkpt lat="41.6223996" lon="-0.7262362"><ele>193.0</ele><time>2026-05-04T08:23:12.719Z</time></trkpt><trkpt lat="41.6223802" lon="-0.7260764"><ele>193.0</ele><time>2026-05-04T08:23:13.718Z</time></trkpt><trkpt lat="41.6223597" lon="-0.7259016"><ele>192.25</ele><time>2026-05-04T08:23:14.719Z</time></trkpt><trkpt lat="41.6223386" lon="-0.7257323"><ele>191.5</ele><time>2026-05-04T08:23:15.72Z</time></trkpt><trkpt lat="41.6223192" lon="-0.7255626"><ele>190.75</ele><time>2026-05-04T08:23:16.72Z</time></trkpt><trkpt lat="41.6223009" lon="-0.7253966"><ele>190.0</ele><time>2026-05-04T08:23:17.72Z</time></trkpt><trkpt lat="41.6222851" lon="-0.7252324"><ele>189.75</ele><time>2026-05-04T08:23:18.72Z</time></trkpt><trkpt lat="41.6222662" lon="-0.7250591"><ele>189.5</ele><time>2026-05-04T08:23:19.719Z</time></trkpt><trkpt lat="41.6222433" lon="-0.7248872"><ele>189.25</ele><time>2026-05-04T08:23:20.72Z</time></trkpt><trkpt lat="41.6222259" lon="-0.7247101"><ele>189.0</ele><time>2026-05-04T08:23:21.72Z</time></trkpt><trkpt lat="41.6222032" lon="-0.7245358"><ele>190.0</ele><time>2026-05-04T08:23:22.72Z</time></trkpt><trkpt lat="41.6221857" lon="-0.7243601"><ele>191.0</ele><time>2026-05-04T08:23:23.72Z</time></trkpt><trkpt lat="41.6221624" lon="-0.7241819"><ele>192.0</ele><time>2026-05-04T08:23:24.72Z</time></trkpt><trkpt lat="41.6221475" lon="-0.7240089"><ele>193.0</ele><time>2026-05-04T08:23:25.719Z</time></trkpt><trkpt lat="41.6221299" lon="-0.7238285"><ele>193.0</ele><time>2026-05-04T08:23:26.72Z</time></trkpt><trkpt lat="41.6221084" lon="-0.723646"><ele>193.0</ele><time>2026-05-04T08:23:27.72Z</time></trkpt><trkpt lat="41.6220823" lon="-0.7234638"><ele>193.0</ele><time>2026-05-04T08:23:28.72Z</time></trkpt><trkpt lat="41.6220593" lon="-0.7232846"><ele>193.0</ele><time>2026-05-04T08:23:29.72Z</time></trkpt><trkpt lat="41.6220366" lon="-0.7231011"><ele>193.75</ele><time>2026-05-04T08:23:30.72Z</time></trkpt><trkpt lat="41.622015" lon="-0.7229168"><ele>194.5</ele><time>2026-05-04T08:23:31.72Z</time></trkpt><trkpt lat="41.6219941" lon="-0.7227341"><ele>195.25</ele><time>2026-05-04T08:23:32.72Z</time></trkpt><trkpt lat="41.6219695" lon="-0.722547"><ele>196.0</ele><time>2026-05-04T08:23:33.72Z</time></trkpt><trkpt lat="41.6219422" lon="-0.7223621"><ele>193.75</ele><time>2026-05-04T08:23:34.72Z</time></trkpt><trkpt lat="41.6219199" lon="-0.7221781"><ele>191.5</ele><time>2026-05-04T08:23:35.72Z</time></trkpt><trkpt lat="41.6218956" lon="-0.7219938"><ele>189.25</ele><time>2026-05-04T08:23:36.72Z</time></trkpt><trkpt lat="41.6218706" lon="-0.7218025"><ele>187.0</ele><time>2026-05-04T08:23:37.719Z</time></trkpt><trkpt lat="41.6218364" lon="-0.7216178"><ele>187.0</ele><time>2026-05-04T08:23:38.719Z</time></trkpt><trkpt lat="41.6217905" lon="-0.7214439"><ele>187.0</ele><time>2026-05-04T08:23:39.72Z</time></trkpt><trkpt lat="41.6217365" lon="-0.7212689"><ele>187.0</ele><time>2026-05-04T08:23:40.72Z</time></trkpt><trkpt lat="41.6216728" lon="-0.7211049"><ele>187.0</ele><time>2026-05-04T08:23:41.72Z</time></trkpt><trkpt lat="41.6216083" lon="-0.7209424"><ele>187.5</ele><time>2026-05-04T08:23:42.72Z</time></trkpt><trkpt lat="41.6215405" lon="-0.7207801"><ele>188.0</ele><time>2026-05-04T08:23:43.72Z</time></trkpt><trkpt lat="41.6214731" lon="-0.7206179"><ele>188.5</ele><time>2026-05-04T08:23:44.72Z</time></trkpt><trkpt lat="41.6214062" lon="-0.7204542"><ele>189.0</ele><time>2026-05-04T08:23:45.72Z</time></trkpt><trkpt lat="41.6213353" lon="-0.7202917"><ele>189.75</ele><time>2026-05-04T08:23:46.72Z</time></trkpt><trkpt lat="41.6212653" lon="-0.7201274"><ele>190.5</ele><time>2026-05-04T08:23:47.719Z</time></trkpt><trkpt lat="41.6211945" lon="-0.7199647"><ele>191.25</ele><time>2026-05-04T08:23:48.72Z</time></trkpt><trkpt lat="41.6211258" lon="-0.7197981"><ele>192.0</ele><time>2026-05-04T08:23:49.72Z</time></trkpt><trkpt lat="41.6210589" lon="-0.7196292"><ele>190.5</ele><time>2026-05-04T08:23:50.72Z</time></trkpt><trkpt lat="41.6209896" lon="-0.7194592"><ele>189.0</ele><time>2026-05-04T08:23:51.719Z</time></trkpt><trkpt lat="41.6209205" lon="-0.7192898"><ele>187.5</ele><time>2026-05-04T08:23:52.72Z</time></trkpt><trkpt lat="41.6208503" lon="-0.7191215"><ele>186.0</ele><time>2026-05-04T08:23:53.72Z</time></trkpt><trkpt lat="41.6207784" lon="-0.7189593"><ele>186.0</ele><time>2026-05-04T08:23:54.72Z</time></trkpt><trkpt lat="41.6207091" lon="-0.7187928"><ele>186.0</ele><time>2026-05-04T08:23:55.72Z</time></trkpt><trkpt lat="41.6206397" lon="-0.7186282"><ele>186.0</ele><time>2026-05-04T08:23:56.72Z</time></trkpt><trkpt lat="41.62057" lon="-0.7184645"><ele>186.0</ele><time>2026-05-04T08:23:57.72Z</time></trkpt><trkpt lat="41.6205031" lon="-0.7183024"><ele>186.0</ele><time>2026-05-04T08:23:58.72Z</time></trkpt><trkpt lat="41.6204382" lon="-0.7181458"><ele>186.0</ele><time>2026-05-04T08:23:59.719Z</time></trkpt><trkpt lat="41.6203726" lon="-0.7179885"><ele>186.0</ele><time>2026-05-04T08:24:00.72Z</time></trkpt><trkpt lat="41.6203026" lon="-0.7178292"><ele>186.0</ele><time>2026-05-04T08:24:01.72Z</time></trkpt><trkpt lat="41.6202408" lon="-0.7176752"><ele>185.75</ele><time>2026-05-04T08:24:02.719Z</time></trkpt><trkpt lat="41.6201769" lon="-0.7175214"><ele>185.5</ele><time>2026-05-04T08:24:03.72Z</time></trkpt><trkpt lat="41.620113" lon="-0.7173697"><ele>185.25</ele><time>2026-05-04T08:24:04.72Z</time></trkpt><trkpt lat="41.6200484" lon="-0.7172146"><ele>185.0</ele><time>2026-05-04T08:24:05.72Z</time></trkpt><trkpt lat="41.6199837" lon="-0.7170635"><ele>185.0</ele><time>2026-05-04T08:24:06.72Z</time></trkpt><trkpt lat="41.6199212" lon="-0.7169136"><ele>185.0</ele><time>2026-05-04T08:24:07.72Z</time></trkpt><trkpt lat="41.6198541" lon="-0.7167556"><ele>185.0</ele><time>2026-05-04T08:24:08.72Z</time></trkpt><trkpt lat="41.6197912" lon="-0.7166018"><ele>185.0</ele><time>2026-05-04T08:24:09.719Z</time></trkpt><trkpt lat="41.619733" lon="-0.7164544"><ele>185.5</ele><time>2026-05-04T08:24:10.72Z</time></trkpt><trkpt lat="41.6196721" lon="-0.7163016"><ele>186.0</ele><time>2026-05-04T08:24:11.72Z</time></trkpt><trkpt lat="41.6196074" lon="-0.716149"><ele>186.5</ele><time>2026-05-04T08:24:12.72Z</time></trkpt><trkpt lat="41.6195423" lon="-0.7159934"><ele>187.0</ele><time>2026-05-04T08:24:13.72Z</time></trkpt><trkpt lat="41.6194788" lon="-0.7158347"><ele>187.5</ele><time>2026-05-04T08:24:14.72Z</time></trkpt><trkpt lat="41.6194143" lon="-0.7156794"><ele>188.0</ele><time>2026-05-04T08:24:15.72Z</time></trkpt><trkpt lat="41.6193518" lon="-0.7155295"><ele>188.5</ele><time>2026-05-04T08:24:16.72Z</time></trkpt><trkpt lat="41.6192843" lon="-0.7153673"><ele>189.0</ele><time>2026-05-04T08:24:17.72Z</time></trkpt><trkpt lat="41.6192175" lon="-0.715213"><ele>189.0</ele><time>2026-05-04T08:24:18.72Z</time></trkpt><trkpt lat="41.6191489" lon="-0.7150547"><ele>189.0</ele><time>2026-05-04T08:24:19.72Z</time></trkpt><trkpt lat="41.6190827" lon="-0.7148941"><ele>189.0</ele><time>2026-05-04T08:24:20.72Z</time></trkpt><trkpt lat="41.619018" lon="-0.7147352"><ele>189.0</ele><time>2026-05-04T08:24:21.72Z</time></trkpt><trkpt lat="41.6189446" lon="-0.714572"><ele>189.0</ele><time>2026-05-04T08:24:22.72Z</time></trkpt><trkpt lat="41.618881" lon="-0.7144092"><ele>189.0</ele><time>2026-05-04T08:24:23.72Z</time></trkpt><trkpt lat="41.6188141" lon="-0.7142528"><ele>189.0</ele><time>2026-05-04T08:24:24.719Z</time></trkpt><trkpt lat="41.6187491" lon="-0.7141062"><ele>189.0</ele><time>2026-05-04T08:24:25.72Z</time></trkpt><trkpt lat="41.618689" lon="-0.7139451"><ele>188.25</ele><time>2026-05-04T08:24:26.72Z</time></trkpt><trkpt lat="41.6186246" lon="-0.7137851"><ele>187.5</ele><time>2026-05-04T08:24:27.719Z</time></trkpt><trkpt lat="41.6185593" lon="-0.7136308"><ele>186.75</ele><time>2026-05-04T08:24:28.72Z</time></trkpt><trkpt lat="41.6184941" lon="-0.7134761"><ele>186.0</ele><time>2026-05-04T08:24:29.719Z</time></trkpt><trkpt lat="41.6184309" lon="-0.7133212"><ele>186.0</ele><time>2026-05-04T08:24:30.72Z</time></trkpt><trkpt lat="41.6183672" lon="-0.7131717"><ele>186.0</ele><time>2026-05-04T08:24:31.72Z</time></trkpt><trkpt lat="41.6182992" lon="-0.7130194"><ele>186.0</ele><time>2026-05-04T08:24:32.72Z</time></trkpt><trkpt lat="41.6182364" lon="-0.7128671"><ele>186.0</ele><time>2026-05-04T08:24:33.72Z</time></trkpt><trkpt lat="41.6181719" lon="-0.7127121"><ele>186.0</ele><time>2026-05-04T08:24:34.72Z</time></trkpt><trkpt lat="41.6181092" lon="-0.7125568"><ele>186.0</ele><time>2026-05-04T08:24:35.72Z</time></trkpt><trkpt lat="41.6180462" lon="-0.7124006"><ele>186.0</ele><time>2026-05-04T08:24:36.72Z</time></trkpt><trkpt lat="41.6179844" lon="-0.7122479"><ele>186.0</ele><time>2026-05-04T08:24:37.72Z</time></trkpt><trkpt lat="41.6179207" lon="-0.7120884"><ele>186.0</ele><time>2026-05-04T08:24:38.72Z</time></trkpt><trkpt lat="41.617859" lon="-0.7119308"><ele>186.0</ele><time>2026-05-04T08:24:39.72Z</time></trkpt><trkpt lat="41.6177986" lon="-0.7117839"><ele>186.0</ele><time>2026-05-04T08:24:40.719Z</time></trkpt><trkpt lat="41.6177374" lon="-0.7116346"><ele>186.0</ele><time>2026-05-04T08:24:41.72Z</time></trkpt><trkpt lat="41.6176717" lon="-0.7114771"><ele>185.75</ele><time>2026-05-04T08:24:42.72Z</time></trkpt><trkpt lat="41.6176044" lon="-0.711321"><ele>185.5</ele><time>2026-05-04T08:24:43.72Z</time></trkpt><trkpt lat="41.6175385" lon="-0.7111663"><ele>185.25</ele><time>2026-05-04T08:24:44.72Z</time></trkpt><trkpt lat="41.617473" lon="-0.7110089"><ele>185.0</ele><time>2026-05-04T08:24:45.72Z</time></trkpt><trkpt lat="41.6174085" lon="-0.7108472"><ele>185.75</ele><time>2026-05-04T08:24:46.72Z</time></trkpt><trkpt lat="41.6173448" lon="-0.7106921"><ele>186.5</ele><time>2026-05-04T08:24:47.72Z</time></trkpt><trkpt lat="41.617277" lon="-0.7105259"><ele>187.25</ele><time>2026-05-04T08:24:48.72Z</time></trkpt><trkpt lat="41.6172094" lon="-0.7103659"><ele>188.0</ele><time>2026-05-04T08:24:49.719Z</time></trkpt><trkpt lat="41.6171437" lon="-0.7102085"><ele>188.0</ele><time>2026-05-04T08:24:50.72Z</time></trkpt><trkpt lat="41.6170744" lon="-0.7100527"><ele>188.0</ele><time>2026-05-04T08:24:51.72Z</time></trkpt><trkpt lat="41.6170032" lon="-0.709894"><ele>188.0</ele><time>2026-05-04T08:24:52.72Z</time></trkpt><trkpt lat="41.6169377" lon="-0.7097346"><ele>188.0</ele><time>2026-05-04T08:24:53.72Z</time></trkpt><trkpt lat="41.6168713" lon="-0.7095758"><ele>187.75</ele><time>2026-05-04T08:24:54.72Z</time></trkpt><trkpt lat="41.616805" lon="-0.70942"><ele>187.5</ele><time>2026-05-04T08:24:55.72Z</time></trkpt><trkpt lat="41.6167429" lon="-0.7092647"><ele>187.25</ele><time>2026-05-04T08:24:56.72Z</time></trkpt><trkpt lat="41.6166827" lon="-0.7091079"><ele>187.0</ele><time>2026-05-04T08:24:57.72Z</time></trkpt><trkpt lat="41.6166183" lon="-0.7089541"><ele>187.0</ele><time>2026-05-04T08:24:58.72Z</time></trkpt><trkpt lat="41.6165539" lon="-0.708801"><ele>187.0</ele><time>2026-05-04T08:24:59.72Z</time></trkpt><trkpt lat="41.6164905" lon="-0.7086425"><ele>187.0</ele><time>2026-05-04T08:25:00.72Z</time></trkpt><trkpt lat="41.6164324" lon="-0.7084857"><ele>187.0</ele><time>2026-05-04T08:25:01.72Z</time></trkpt><trkpt lat="41.6163749" lon="-0.7083463"><ele>187.0</ele><time>2026-05-04T08:25:02.72Z</time></trkpt><trkpt lat="41.6163149" lon="-0.7082032"><ele>187.0</ele><time>2026-05-04T08:25:03.719Z</time></trkpt><trkpt lat="41.6162583" lon="-0.7080624"><ele>187.0</ele><time>2026-05-04T08:25:04.72Z</time></trkpt><trkpt lat="41.6162012" lon="-0.7079158"><ele>187.0</ele><time>2026-05-04T08:25:05.72Z</time></trkpt><trkpt lat="41.6161414" lon="-0.7077709"><ele>187.5</ele><time>2026-05-04T08:25:06.72Z</time></trkpt><trkpt lat="41.6160813" lon="-0.707628"><ele>188.0</ele><time>2026-05-04T08:25:07.72Z</time></trkpt><trkpt lat="41.6160173" lon="-0.7074873"><ele>188.5</ele><time>2026-05-04T08:25:08.719Z</time></trkpt><trkpt lat="41.61596" lon="-0.7073532"><ele>189.0</ele><time>2026-05-04T08:25:09.719Z</time></trkpt><trkpt lat="41.615904" lon="-0.7072194"><ele>189.0</ele><time>2026-05-04T08:25:10.72Z</time></trkpt><trkpt lat="41.6158492" lon="-0.7070836"><ele>189.0</ele><time>2026-05-04T08:25:11.72Z</time></trkpt><trkpt lat="41.615792" lon="-0.7069462"><ele>189.0</ele><time>2026-05-04T08:25:12.719Z</time></trkpt><trkpt lat="41.6157403" lon="-0.7068082"><ele>189.0</ele><time>2026-05-04T08:25:13.72Z</time></trkpt><trkpt lat="41.6156821" lon="-0.7066753"><ele>189.5</ele><time>2026-05-04T08:25:14.72Z</time></trkpt><trkpt lat="41.6156244" lon="-0.7065447"><ele>190.0</ele><time>2026-05-04T08:25:15.72Z</time></trkpt><trkpt lat="41.6155692" lon="-0.7064105"><ele>190.5</ele><time>2026-05-04T08:25:16.72Z</time></trkpt><trkpt lat="41.6155165" lon="-0.7062768"><ele>191.0</ele><time>2026-05-04T08:25:17.72Z</time></trkpt><trkpt lat="41.6154599" lon="-0.7061427"><ele>191.0</ele><time>2026-05-04T08:25:18.72Z</time></trkpt><trkpt lat="41.6154036" lon="-0.7060068"><ele>191.0</ele><time>2026-05-04T08:25:19.72Z</time></trkpt><trkpt lat="41.6153474" lon="-0.7058688"><ele>191.0</ele><time>2026-05-04T08:25:20.72Z</time></trkpt><trkpt lat="41.6152921" lon="-0.7057311"><ele>191.0</ele><time>2026-05-04T08:25:21.719Z</time></trkpt><trkpt lat="41.6152365" lon="-0.7055924"><ele>190.75</ele><time>2026-05-04T08:25:22.72Z</time></trkpt><trkpt lat="41.6151775" lon="-0.7054486"><ele>190.5</ele><time>2026-05-04T08:25:23.72Z</time></trkpt><trkpt lat="41.6151188" lon="-0.7053141"><ele>190.25</ele><time>2026-05-04T08:25:24.719Z</time></trkpt><trkpt lat="41.6150586" lon="-0.7051732"><ele>190.0</ele><time>2026-05-04T08:25:25.72Z</time></trkpt><trkpt lat="41.6150002" lon="-0.70503"><ele>190.5</ele><time>2026-05-04T08:25:26.719Z</time></trkpt><trkpt lat="41.6149397" lon="-0.7048869"><ele>191.0</ele><time>2026-05-04T08:25:27.72Z</time></trkpt><trkpt lat="41.6148792" lon="-0.704752"><ele>191.5</ele><time>2026-05-04T08:25:28.72Z</time></trkpt><trkpt lat="41.6148226" lon="-0.7046197"><ele>192.0</ele><time>2026-05-04T08:25:29.72Z</time></trkpt><trkpt lat="41.6147687" lon="-0.7044871"><ele>192.2</ele><time>2026-05-04T08:25:30.72Z</time></trkpt><trkpt lat="41.6147141" lon="-0.7043531"><ele>192.39999999999998</ele><time>2026-05-04T08:25:31.72Z</time></trkpt><trkpt lat="41.6146605" lon="-0.7042231"><ele>192.60000000000002</ele><time>2026-05-04T08:25:32.72Z</time></trkpt><trkpt lat="41.6146046" lon="-0.7040947"><ele>192.8</ele><time>2026-05-04T08:25:33.72Z</time></trkpt><trkpt lat="41.6145496" lon="-0.7039706"><ele>193.0</ele><time>2026-05-04T08:25:34.72Z</time></trkpt><trkpt lat="41.6144811" lon="-0.703849"><ele>192.5</ele><time>2026-05-04T08:25:35.72Z</time></trkpt><trkpt lat="41.6144078" lon="-0.7037364"><ele>192.0</ele><time>2026-05-04T08:25:36.72Z</time></trkpt><trkpt lat="41.6143272" lon="-0.7036179"><ele>191.5</ele><time>2026-05-04T08:25:37.72Z</time></trkpt><trkpt lat="41.6142456" lon="-0.7035039"><ele>191.0</ele><time>2026-05-04T08:25:38.72Z</time></trkpt><trkpt lat="41.6141692" lon="-0.7033772"><ele>191.0</ele><time>2026-05-04T08:25:39.72Z</time></trkpt><trkpt lat="41.614097" lon="-0.7032561"><ele>191.0</ele><time>2026-05-04T08:25:40.72Z</time></trkpt><trkpt lat="41.614024" lon="-0.7031294"><ele>191.0</ele><time>2026-05-04T08:25:41.72Z</time></trkpt><trkpt lat="41.61395" lon="-0.7030042"><ele>191.0</ele><time>2026-05-04T08:25:42.719Z</time></trkpt><trkpt lat="41.613874" lon="-0.7028777"><ele>191.0</ele><time>2026-05-04T08:25:43.72Z</time></trkpt><trkpt lat="41.6137954" lon="-0.7027523"><ele>191.0</ele><time>2026-05-04T08:25:44.72Z</time></trkpt><trkpt lat="41.6137133" lon="-0.7026295"><ele>191.0</ele><time>2026-05-04T08:25:45.72Z</time></trkpt><trkpt lat="41.613631" lon="-0.7025022"><ele>191.0</ele><time>2026-05-04T08:25:46.72Z</time></trkpt><trkpt lat="41.613547" lon="-0.7023785"><ele>190.75</ele><time>2026-05-04T08:25:47.72Z</time></trkpt><trkpt lat="41.6134652" lon="-0.7022483"><ele>190.5</ele><time>2026-05-04T08:25:48.72Z</time></trkpt><trkpt lat="41.6133873" lon="-0.702119"><ele>190.25</ele><time>2026-05-04T08:25:49.719Z</time></trkpt><trkpt lat="41.6133072" lon="-0.7019864"><ele>190.0</ele><time>2026-05-04T08:25:50.721Z</time></trkpt><trkpt lat="41.6132282" lon="-0.7018504"><ele>190.5</ele><time>2026-05-04T08:25:51.72Z</time></trkpt><trkpt lat="41.6131514" lon="-0.7017128"><ele>191.0</ele><time>2026-05-04T08:25:52.721Z</time></trkpt><trkpt lat="41.6130748" lon="-0.7015769"><ele>191.5</ele><time>2026-05-04T08:25:53.721Z</time></trkpt><trkpt lat="41.6129933" lon="-0.7014459"><ele>192.0</ele><time>2026-05-04T08:25:54.72Z</time></trkpt><trkpt lat="41.6129076" lon="-0.7013191"><ele>192.0</ele><time>2026-05-04T08:25:55.721Z</time></trkpt><trkpt lat="41.6128232" lon="-0.7011889"><ele>192.0</ele><time>2026-05-04T08:25:56.721Z</time></trkpt><trkpt lat="41.6127385" lon="-0.7010625"><ele>192.0</ele><time>2026-05-04T08:25:57.721Z</time></trkpt><trkpt lat="41.6126537" lon="-0.7009302"><ele>192.0</ele><time>2026-05-04T08:25:58.721Z</time></trkpt><trkpt lat="41.6125697" lon="-0.7007963"><ele>191.75</ele><time>2026-05-04T08:25:59.721Z</time></trkpt><trkpt lat="41.6124854" lon="-0.7006636"><ele>191.5</ele><time>2026-05-04T08:26:00.721Z</time></trkpt><trkpt lat="41.6124028" lon="-0.7005382"><ele>191.25</ele><time>2026-05-04T08:26:01.721Z</time></trkpt><trkpt lat="41.6123171" lon="-0.7004134"><ele>191.0</ele><time>2026-05-04T08:26:02.72Z</time></trkpt><trkpt lat="41.6122315" lon="-0.7002917"><ele>191.25</ele><time>2026-05-04T08:26:03.721Z</time></trkpt><trkpt lat="41.6121494" lon="-0.7001674"><ele>191.5</ele><time>2026-05-04T08:26:04.721Z</time></trkpt><trkpt lat="41.6120689" lon="-0.7000442"><ele>191.75</ele><time>2026-05-04T08:26:05.721Z</time></trkpt><trkpt lat="41.6119861" lon="-0.6999247"><ele>192.0</ele><time>2026-05-04T08:26:06.721Z</time></trkpt><trkpt lat="41.6119003" lon="-0.699801"><ele>192.0</ele><time>2026-05-04T08:26:07.72Z</time></trkpt><trkpt lat="41.6118062" lon="-0.6996904"><ele>192.0</ele><time>2026-05-04T08:26:08.721Z</time></trkpt><trkpt lat="41.6117103" lon="-0.6995863"><ele>192.0</ele><time>2026-05-04T08:26:09.721Z</time></trkpt><trkpt lat="41.6116143" lon="-0.6994917"><ele>192.0</ele><time>2026-05-04T08:26:10.72Z</time></trkpt><trkpt lat="41.6115102" lon="-0.6993983"><ele>192.0</ele><time>2026-05-04T08:26:11.72Z</time></trkpt><trkpt lat="41.6114062" lon="-0.6993156"><ele>192.0</ele><time>2026-05-04T08:26:12.721Z</time></trkpt><trkpt lat="41.6112972" lon="-0.6992399"><ele>192.0</ele><time>2026-05-04T08:26:13.72Z</time></trkpt><trkpt lat="41.6111874" lon="-0.6991786"><ele>192.0</ele><time>2026-05-04T08:26:14.721Z</time></trkpt><trkpt lat="41.6110731" lon="-0.6991286"><ele>191.25</ele><time>2026-05-04T08:26:15.721Z</time></trkpt><trkpt lat="41.6109566" lon="-0.6990861"><ele>190.5</ele><time>2026-05-04T08:26:16.721Z</time></trkpt><trkpt lat="41.6108361" lon="-0.6990459"><ele>189.75</ele><time>2026-05-04T08:26:17.721Z</time></trkpt><trkpt lat="41.6107194" lon="-0.6990116"><ele>189.0</ele><time>2026-05-04T08:26:18.721Z</time></trkpt><trkpt lat="41.610598" lon="-0.6989799"><ele>189.0</ele><time>2026-05-04T08:26:19.721Z</time></trkpt><trkpt lat="41.6104728" lon="-0.6989453"><ele>189.0</ele><time>2026-05-04T08:26:20.721Z</time></trkpt><trkpt lat="41.6103459" lon="-0.6989097"><ele>189.0</ele><time>2026-05-04T08:26:21.72Z</time></trkpt><trkpt lat="41.6102222" lon="-0.6988751"><ele>189.0</ele><time>2026-05-04T08:26:22.721Z</time></trkpt><trkpt lat="41.6100965" lon="-0.698832"><ele>188.75</ele><time>2026-05-04T08:26:23.721Z</time></trkpt><trkpt lat="41.6099768" lon="-0.6987893"><ele>188.5</ele><time>2026-05-04T08:26:24.721Z</time></trkpt><trkpt lat="41.6098604" lon="-0.6987373"><ele>188.25</ele><time>2026-05-04T08:26:25.721Z</time></trkpt><trkpt lat="41.6097398" lon="-0.6986755"><ele>188.0</ele><time>2026-05-04T08:26:26.721Z</time></trkpt><trkpt lat="41.6096167" lon="-0.698605"><ele>188.0</ele><time>2026-05-04T08:26:27.72Z</time></trkpt><trkpt lat="41.6094963" lon="-0.6985305"><ele>188.0</ele><time>2026-05-04T08:26:28.721Z</time></trkpt><trkpt lat="41.6093793" lon="-0.6984364"><ele>188.0</ele><time>2026-05-04T08:26:29.72Z</time></trkpt><trkpt lat="41.6092624" lon="-0.6983341"><ele>188.0</ele><time>2026-05-04T08:26:30.721Z</time></trkpt><trkpt lat="41.6091494" lon="-0.6982294"><ele>188.0</ele><time>2026-05-04T08:26:31.721Z</time></trkpt><trkpt lat="41.6090512" lon="-0.6981086"><ele>188.0</ele><time>2026-05-04T08:26:32.721Z</time></trkpt><trkpt lat="41.6089539" lon="-0.6979882"><ele>188.0</ele><time>2026-05-04T08:26:33.721Z</time></trkpt><trkpt lat="41.6088543" lon="-0.6978682"><ele>188.0</ele><time>2026-05-04T08:26:34.721Z</time></trkpt><trkpt lat="41.6087594" lon="-0.6977443"><ele>187.5</ele><time>2026-05-04T08:26:35.721Z</time></trkpt><trkpt lat="41.6086644" lon="-0.6976137"><ele>187.0</ele><time>2026-05-04T08:26:36.721Z</time></trkpt><trkpt lat="41.6085764" lon="-0.6974836"><ele>186.5</ele><time>2026-05-04T08:26:37.721Z</time></trkpt><trkpt lat="41.6084958" lon="-0.6973455"><ele>186.0</ele><time>2026-05-04T08:26:38.721Z</time></trkpt><trkpt lat="41.6084222" lon="-0.6971988"><ele>186.0</ele><time>2026-05-04T08:26:39.721Z</time></trkpt><trkpt lat="41.6083509" lon="-0.6970474"><ele>186.0</ele><time>2026-05-04T08:26:40.721Z</time></trkpt><trkpt lat="41.6082814" lon="-0.6968976"><ele>186.0</ele><time>2026-05-04T08:26:41.721Z</time></trkpt><trkpt lat="41.6082148" lon="-0.6967469"><ele>186.0</ele><time>2026-05-04T08:26:42.721Z</time></trkpt><trkpt lat="41.6081528" lon="-0.696588"><ele>186.5</ele><time>2026-05-04T08:26:43.721Z</time></trkpt><trkpt lat="41.6080953" lon="-0.6964284"><ele>187.0</ele><time>2026-05-04T08:26:44.721Z</time></trkpt><trkpt lat="41.60805" lon="-0.6962616"><ele>187.5</ele><time>2026-05-04T08:26:45.721Z</time></trkpt><trkpt lat="41.6080132" lon="-0.6960899"><ele>188.0</ele><time>2026-05-04T08:26:46.721Z</time></trkpt><trkpt lat="41.6079736" lon="-0.6959168"><ele>187.5</ele><time>2026-05-04T08:26:47.721Z</time></trkpt><trkpt lat="41.6079412" lon="-0.6957483"><ele>187.0</ele><time>2026-05-04T08:26:48.72Z</time></trkpt><trkpt lat="41.6079113" lon="-0.6955785"><ele>186.5</ele><time>2026-05-04T08:26:49.721Z</time></trkpt><trkpt lat="41.6078839" lon="-0.6954038"><ele>186.0</ele><time>2026-05-04T08:26:50.721Z</time></trkpt><trkpt lat="41.607866" lon="-0.6952343"><ele>186.0</ele><time>2026-05-04T08:26:51.721Z</time></trkpt><trkpt lat="41.6078416" lon="-0.6950617"><ele>186.0</ele><time>2026-05-04T08:26:52.72Z</time></trkpt><trkpt lat="41.607815" lon="-0.6948856"><ele>186.0</ele><time>2026-05-04T08:26:53.721Z</time></trkpt><trkpt lat="41.6077914" lon="-0.6947008"><ele>186.0</ele><time>2026-05-04T08:26:54.721Z</time></trkpt><trkpt lat="41.6077641" lon="-0.6945131"><ele>186.0</ele><time>2026-05-04T08:26:55.721Z</time></trkpt><trkpt lat="41.6077384" lon="-0.6943401"><ele>186.0</ele><time>2026-05-04T08:26:56.721Z</time></trkpt><trkpt lat="41.6077064" lon="-0.6941611"><ele>186.0</ele><time>2026-05-04T08:26:57.72Z</time></trkpt><trkpt lat="41.6076726" lon="-0.6939902"><ele>186.0</ele><time>2026-05-04T08:26:58.72Z</time></trkpt><trkpt lat="41.6076381" lon="-0.6938276"><ele>186.0</ele><time>2026-05-04T08:26:59.721Z</time></trkpt><trkpt lat="41.6075951" lon="-0.6936649"><ele>186.0</ele><time>2026-05-04T08:27:00.721Z</time></trkpt><trkpt lat="41.6075465" lon="-0.6935072"><ele>186.0</ele><time>2026-05-04T08:27:01.721Z</time></trkpt><trkpt lat="41.6074937" lon="-0.6933432"><ele>186.0</ele><time>2026-05-04T08:27:02.72Z</time></trkpt><trkpt lat="41.6074359" lon="-0.6931864"><ele>186.0</ele><time>2026-05-04T08:27:03.721Z</time></trkpt><trkpt lat="41.6073787" lon="-0.6930256"><ele>186.0</ele><time>2026-05-04T08:27:04.721Z</time></trkpt><trkpt lat="41.6073167" lon="-0.6928671"><ele>186.0</ele><time>2026-05-04T08:27:05.72Z</time></trkpt><trkpt lat="41.6072494" lon="-0.6927079"><ele>186.0</ele><time>2026-05-04T08:27:06.721Z</time></trkpt><trkpt lat="41.607179" lon="-0.6925645"><ele>186.0</ele><time>2026-05-04T08:27:07.72Z</time></trkpt><trkpt lat="41.6070969" lon="-0.692424"><ele>186.0</ele><time>2026-05-04T08:27:08.72Z</time></trkpt><trkpt lat="41.6070216" lon="-0.6922918"><ele>186.0</ele><time>2026-05-04T08:27:09.721Z</time></trkpt><trkpt lat="41.60694" lon="-0.6921674"><ele>186.0</ele><time>2026-05-04T08:27:10.721Z</time></trkpt><trkpt lat="41.6068608" lon="-0.6920512"><ele>185.8</ele><time>2026-05-04T08:27:11.72Z</time></trkpt><trkpt lat="41.6067893" lon="-0.6919389"><ele>185.60000000000002</ele><time>2026-05-04T08:27:12.72Z</time></trkpt><trkpt lat="41.6067214" lon="-0.6918305"><ele>185.4</ele><time>2026-05-04T08:27:13.72Z</time></trkpt><trkpt lat="41.6066562" lon="-0.6917294"><ele>185.2</ele><time>2026-05-04T08:27:14.721Z</time></trkpt><trkpt lat="41.6065914" lon="-0.6916291"><ele>185.0</ele><time>2026-05-04T08:27:15.721Z</time></trkpt><trkpt lat="41.6065217" lon="-0.6915216"><ele>185.4</ele><time>2026-05-04T08:27:16.721Z</time></trkpt><trkpt lat="41.6064492" lon="-0.6914203"><ele>185.8</ele><time>2026-05-04T08:27:17.721Z</time></trkpt><trkpt lat="41.6063811" lon="-0.6913171"><ele>186.2</ele><time>2026-05-04T08:27:18.72Z</time></trkpt><trkpt lat="41.6063125" lon="-0.6912158"><ele>186.6</ele><time>2026-05-04T08:27:19.72Z</time></trkpt><trkpt lat="41.6062465" lon="-0.6911097"><ele>187.0</ele><time>2026-05-04T08:27:20.721Z</time></trkpt><trkpt lat="41.6061791" lon="-0.6910016"><ele>186.75</ele><time>2026-05-04T08:27:21.721Z</time></trkpt><trkpt lat="41.6061092" lon="-0.6908942"><ele>186.5</ele><time>2026-05-04T08:27:22.721Z</time></trkpt><trkpt lat="41.6060412" lon="-0.6907756"><ele>186.25</ele><time>2026-05-04T08:27:23.721Z</time></trkpt><trkpt lat="41.6059614" lon="-0.6906589"><ele>186.0</ele><time>2026-05-04T08:27:24.721Z</time></trkpt><trkpt lat="41.6058784" lon="-0.6905357"><ele>186.0</ele><time>2026-05-04T08:27:25.721Z</time></trkpt><trkpt lat="41.6057924" lon="-0.6904085"><ele>186.0</ele><time>2026-05-04T08:27:26.721Z</time></trkpt><trkpt lat="41.6057087" lon="-0.6902756"><ele>186.0</ele><time>2026-05-04T08:27:27.721Z</time></trkpt><trkpt lat="41.605627" lon="-0.6901374"><ele>186.0</ele><time>2026-05-04T08:27:28.721Z</time></trkpt><trkpt lat="41.6055432" lon="-0.6900081"><ele>186.0</ele><time>2026-05-04T08:27:29.72Z</time></trkpt><trkpt lat="41.6054574" lon="-0.6898765"><ele>186.0</ele><time>2026-05-04T08:27:30.721Z</time></trkpt><trkpt lat="41.6053825" lon="-0.6897508"><ele>186.0</ele><time>2026-05-04T08:27:31.72Z</time></trkpt><trkpt lat="41.6053084" lon="-0.6896379"><ele>186.0</ele><time>2026-05-04T08:27:32.721Z</time></trkpt><trkpt lat="41.6052318" lon="-0.6895189"><ele>185.60000000000002</ele><time>2026-05-04T08:27:33.721Z</time></trkpt><trkpt lat="41.6051563" lon="-0.6894127"><ele>185.2</ele><time>2026-05-04T08:27:34.721Z</time></trkpt><trkpt lat="41.6050854" lon="-0.6893089"><ele>184.8</ele><time>2026-05-04T08:27:35.72Z</time></trkpt><trkpt lat="41.6050126" lon="-0.6892058"><ele>184.39999999999998</ele><time>2026-05-04T08:27:36.721Z</time></trkpt><trkpt lat="41.6049351" lon="-0.6891116"><ele>184.0</ele><time>2026-05-04T08:27:37.721Z</time></trkpt><trkpt lat="41.6048632" lon="-0.6890279"><ele>184.0</ele><time>2026-05-04T08:27:38.721Z</time></trkpt><trkpt lat="41.6047936" lon="-0.6889524"><ele>184.0</ele><time>2026-05-04T08:27:39.721Z</time></trkpt><trkpt lat="41.604719" lon="-0.688891"><ele>184.0</ele><time>2026-05-04T08:27:40.721Z</time></trkpt><trkpt lat="41.6046347" lon="-0.6888398"><ele>184.0</ele><time>2026-05-04T08:27:41.721Z</time></trkpt><trkpt lat="41.6045515" lon="-0.6887931"><ele>184.0</ele><time>2026-05-04T08:27:42.721Z</time></trkpt><trkpt lat="41.6044779" lon="-0.6887204"><ele>183.83333333333334</ele><time>2026-05-04T08:27:43.721Z</time></trkpt><trkpt lat="41.6044289" lon="-0.6886374"><ele>183.66666666666669</ele><time>2026-05-04T08:27:44.721Z</time></trkpt><trkpt lat="41.6044015" lon="-0.6885467"><ele>183.5</ele><time>2026-05-04T08:27:45.721Z</time></trkpt><trkpt lat="41.6043803" lon="-0.6884412"><ele>183.33333333333334</ele><time>2026-05-04T08:27:46.721Z</time></trkpt><trkpt lat="41.6043596" lon="-0.688329"><ele>183.16666666666666</ele><time>2026-05-04T08:27:47.721Z</time></trkpt><trkpt lat="41.6043273" lon="-0.6882196"><ele>183.0</ele><time>2026-05-04T08:27:48.721Z</time></trkpt><trkpt lat="41.6042818" lon="-0.6881113"><ele>182.75</ele><time>2026-05-04T08:27:49.72Z</time></trkpt><trkpt lat="41.6042135" lon="-0.6879964"><ele>182.5</ele><time>2026-05-04T08:27:50.721Z</time></trkpt><trkpt lat="41.6041446" lon="-0.6878801"><ele>182.25</ele><time>2026-05-04T08:27:51.72Z</time></trkpt><trkpt lat="41.6040607" lon="-0.6877528"><ele>182.0</ele><time>2026-05-04T08:27:52.721Z</time></trkpt><trkpt lat="41.60398" lon="-0.6876306"><ele>182.0</ele><time>2026-05-04T08:27:53.721Z</time></trkpt><trkpt lat="41.6038956" lon="-0.6875014"><ele>182.0</ele><time>2026-05-04T08:27:54.721Z</time></trkpt><trkpt lat="41.6038138" lon="-0.6873704"><ele>182.0</ele><time>2026-05-04T08:27:55.721Z</time></trkpt><trkpt lat="41.6037201" lon="-0.6872332"><ele>182.0</ele><time>2026-05-04T08:27:56.721Z</time></trkpt><trkpt lat="41.6036321" lon="-0.6870939"><ele>181.75</ele><time>2026-05-04T08:27:57.72Z</time></trkpt><trkpt lat="41.6035354" lon="-0.6869491"><ele>181.5</ele><time>2026-05-04T08:27:58.721Z</time></trkpt><trkpt lat="41.603444" lon="-0.6868038"><ele>181.25</ele><time>2026-05-04T08:27:59.721Z</time></trkpt><trkpt lat="41.6033567" lon="-0.6866561"><ele>181.0</ele><time>2026-05-04T08:28:00.721Z</time></trkpt><trkpt lat="41.6032662" lon="-0.6865125"><ele>181.0</ele><time>2026-05-04T08:28:01.721Z</time></trkpt><trkpt lat="41.6031736" lon="-0.6863693"><ele>181.0</ele><time>2026-05-04T08:28:02.721Z</time></trkpt><trkpt lat="41.6030837" lon="-0.686229"><ele>181.0</ele><time>2026-05-04T08:28:03.721Z</time></trkpt><trkpt lat="41.6029897" lon="-0.6860876"><ele>181.0</ele><time>2026-05-04T08:28:04.721Z</time></trkpt><trkpt lat="41.6028939" lon="-0.6859401"><ele>180.75</ele><time>2026-05-04T08:28:05.721Z</time></trkpt><trkpt lat="41.6027987" lon="-0.685792"><ele>180.5</ele><time>2026-05-04T08:28:06.721Z</time></trkpt><trkpt lat="41.6027087" lon="-0.6856546"><ele>180.25</ele><time>2026-05-04T08:28:07.721Z</time></trkpt><trkpt lat="41.6026201" lon="-0.6855133"><ele>180.0</ele><time>2026-05-04T08:28:08.721Z</time></trkpt><trkpt lat="41.6025324" lon="-0.685371"><ele>180.5</ele><time>2026-05-04T08:28:09.721Z</time></trkpt><trkpt lat="41.602437" lon="-0.6852318"><ele>181.0</ele><time>2026-05-04T08:28:10.721Z</time></trkpt><trkpt lat="41.602347" lon="-0.6850911"><ele>181.5</ele><time>2026-05-04T08:28:11.721Z</time></trkpt><trkpt lat="41.6022551" lon="-0.6849488"><ele>182.0</ele><time>2026-05-04T08:28:12.721Z</time></trkpt><trkpt lat="41.6021671" lon="-0.6848079"><ele>182.0</ele><time>2026-05-04T08:28:13.72Z</time></trkpt><trkpt lat="41.6020762" lon="-0.6846704"><ele>182.0</ele><time>2026-05-04T08:28:14.721Z</time></trkpt><trkpt lat="41.6019861" lon="-0.6845333"><ele>182.0</ele><time>2026-05-04T08:28:15.721Z</time></trkpt><trkpt lat="41.6018975" lon="-0.684399"><ele>182.0</ele><time>2026-05-04T08:28:16.721Z</time></trkpt><trkpt lat="41.6018078" lon="-0.684263"><ele>182.0</ele><time>2026-05-04T08:28:17.721Z</time></trkpt><trkpt lat="41.6017164" lon="-0.6841258"><ele>182.0</ele><time>2026-05-04T08:28:18.721Z</time></trkpt><trkpt lat="41.6016322" lon="-0.683989"><ele>182.0</ele><time>2026-05-04T08:28:19.721Z</time></trkpt><trkpt lat="41.6015421" lon="-0.6838528"><ele>182.0</ele><time>2026-05-04T08:28:20.721Z</time></trkpt><trkpt lat="41.6014532" lon="-0.683714"><ele>181.75</ele><time>2026-05-04T08:28:21.721Z</time></trkpt><trkpt lat="41.6013643" lon="-0.683575"><ele>181.5</ele><time>2026-05-04T08:28:22.721Z</time></trkpt><trkpt lat="41.6012755" lon="-0.6834361"><ele>181.25</ele><time>2026-05-04T08:28:23.721Z</time></trkpt><trkpt lat="41.6011829" lon="-0.6832956"><ele>181.0</ele><time>2026-05-04T08:28:24.721Z</time></trkpt><trkpt lat="41.6010913" lon="-0.6831595"><ele>181.25</ele><time>2026-05-04T08:28:25.72Z</time></trkpt><trkpt lat="41.6010018" lon="-0.6830161"><ele>181.5</ele><time>2026-05-04T08:28:26.722Z</time></trkpt><trkpt lat="41.6009087" lon="-0.682875"><ele>181.75</ele><time>2026-05-04T08:28:27.722Z</time></trkpt><trkpt lat="41.6008161" lon="-0.6827349"><ele>182.0</ele><time>2026-05-04T08:28:28.722Z</time></trkpt><trkpt lat="41.6007242" lon="-0.6825904"><ele>182.0</ele><time>2026-05-04T08:28:29.722Z</time></trkpt><trkpt lat="41.6006319" lon="-0.68245"><ele>182.0</ele><time>2026-05-04T08:28:30.721Z</time></trkpt><trkpt lat="41.6005337" lon="-0.6823085"><ele>182.0</ele><time>2026-05-04T08:28:31.722Z</time></trkpt><trkpt lat="41.6004408" lon="-0.6821661"><ele>182.0</ele><time>2026-05-04T08:28:32.722Z</time></trkpt><trkpt lat="41.6003502" lon="-0.6820195"><ele>182.25</ele><time>2026-05-04T08:28:33.722Z</time></trkpt><trkpt lat="41.6002592" lon="-0.6818749"><ele>182.5</ele><time>2026-05-04T08:28:34.722Z</time></trkpt><trkpt lat="41.6001664" lon="-0.6817325"><ele>182.75</ele><time>2026-05-04T08:28:35.722Z</time></trkpt><trkpt lat="41.6000768" lon="-0.681589"><ele>183.0</ele><time>2026-05-04T08:28:36.721Z</time></trkpt><trkpt lat="41.5999787" lon="-0.6814496"><ele>183.0</ele><time>2026-05-04T08:28:37.722Z</time></trkpt><trkpt lat="41.5998858" lon="-0.6813073"><ele>183.0</ele><time>2026-05-04T08:28:38.722Z</time></trkpt><trkpt lat="41.5997925" lon="-0.6811684"><ele>183.0</ele><time>2026-05-04T08:28:39.722Z</time></trkpt><trkpt lat="41.5997005" lon="-0.6810284"><ele>183.0</ele><time>2026-05-04T08:28:40.722Z</time></trkpt><trkpt lat="41.5996082" lon="-0.6808932"><ele>184.0</ele><time>2026-05-04T08:28:41.722Z</time></trkpt><trkpt lat="41.5995192" lon="-0.6807564"><ele>185.0</ele><time>2026-05-04T08:28:42.722Z</time></trkpt><trkpt lat="41.5994292" lon="-0.6806169"><ele>186.0</ele><time>2026-05-04T08:28:43.722Z</time></trkpt><trkpt lat="41.5993408" lon="-0.6804767"><ele>187.0</ele><time>2026-05-04T08:28:44.722Z</time></trkpt><trkpt lat="41.5992466" lon="-0.680339"><ele>187.25</ele><time>2026-05-04T08:28:45.722Z</time></trkpt><trkpt lat="41.5991528" lon="-0.6802016"><ele>187.5</ele><time>2026-05-04T08:28:46.722Z</time></trkpt><trkpt lat="41.5990645" lon="-0.6800613"><ele>187.75</ele><time>2026-05-04T08:28:47.722Z</time></trkpt><trkpt lat="41.5989733" lon="-0.6799228"><ele>188.0</ele><time>2026-05-04T08:28:48.722Z</time></trkpt><trkpt lat="41.598884" lon="-0.6797883"><ele>188.0</ele><time>2026-05-04T08:28:49.722Z</time></trkpt><trkpt lat="41.5988002" lon="-0.6796547"><ele>188.0</ele><time>2026-05-04T08:28:50.722Z</time></trkpt><trkpt lat="41.5987203" lon="-0.6795238"><ele>188.0</ele><time>2026-05-04T08:28:51.722Z</time></trkpt><trkpt lat="41.5986395" lon="-0.6794001"><ele>188.0</ele><time>2026-05-04T08:28:52.722Z</time></trkpt><trkpt lat="41.5985583" lon="-0.6792787"><ele>188.0</ele><time>2026-05-04T08:28:53.722Z</time></trkpt><trkpt lat="41.5984786" lon="-0.679153"><ele>188.0</ele><time>2026-05-04T08:28:54.722Z</time></trkpt><trkpt lat="41.5983982" lon="-0.6790357"><ele>188.0</ele><time>2026-05-04T08:28:55.722Z</time></trkpt><trkpt lat="41.5983262" lon="-0.6789164"><ele>188.0</ele><time>2026-05-04T08:28:56.722Z</time></trkpt><trkpt lat="41.5982519" lon="-0.6788105"><ele>188.0</ele><time>2026-05-04T08:28:57.721Z</time></trkpt><trkpt lat="41.598182" lon="-0.6787146"><ele>188.0</ele><time>2026-05-04T08:28:58.722Z</time></trkpt><trkpt lat="41.5981103" lon="-0.678638"><ele>188.0</ele><time>2026-05-04T08:28:59.722Z</time></trkpt><trkpt lat="41.5980271" lon="-0.6785685"><ele>188.0</ele><time>2026-05-04T08:29:00.722Z</time></trkpt><trkpt lat="41.5979435" lon="-0.6785163"><ele>188.0</ele><time>2026-05-04T08:29:01.722Z</time></trkpt><trkpt lat="41.5978478" lon="-0.6784844"><ele>188.0</ele><time>2026-05-04T08:29:02.722Z</time></trkpt><trkpt lat="41.5977713" lon="-0.6784311"><ele>188.0</ele><time>2026-05-04T08:29:03.722Z</time></trkpt><trkpt lat="41.5977117" lon="-0.6783602"><ele>188.0</ele><time>2026-05-04T08:29:04.722Z</time></trkpt><trkpt lat="41.5976793" lon="-0.6782675"><ele>188.0</ele><time>2026-05-04T08:29:05.722Z</time></trkpt><trkpt lat="41.5976645" lon="-0.6781556"><ele>188.0</ele><time>2026-05-04T08:29:06.721Z</time></trkpt><trkpt lat="41.5976507" lon="-0.6780518"><ele>188.0</ele><time>2026-05-04T08:29:07.722Z</time></trkpt><trkpt lat="41.5976184" lon="-0.677941"><ele>188.0</ele><time>2026-05-04T08:29:08.721Z</time></trkpt><trkpt lat="41.5975669" lon="-0.6778252"><ele>188.0</ele><time>2026-05-04T08:29:09.722Z</time></trkpt><trkpt lat="41.5975099" lon="-0.6777228"><ele>188.0</ele><time>2026-05-04T08:29:10.721Z</time></trkpt><trkpt lat="41.5974445" lon="-0.6776077"><ele>188.0</ele><time>2026-05-04T08:29:11.721Z</time></trkpt><trkpt lat="41.5973828" lon="-0.6774945"><ele>188.0</ele><time>2026-05-04T08:29:12.721Z</time></trkpt><trkpt lat="41.5973105" lon="-0.6773786"><ele>188.75</ele><time>2026-05-04T08:29:13.722Z</time></trkpt><trkpt lat="41.597232" lon="-0.6772593"><ele>189.5</ele><time>2026-05-04T08:29:14.721Z</time></trkpt><trkpt lat="41.5971538" lon="-0.6771432"><ele>190.25</ele><time>2026-05-04T08:29:15.722Z</time></trkpt><trkpt lat="41.5970707" lon="-0.677022"><ele>191.0</ele><time>2026-05-04T08:29:16.722Z</time></trkpt><trkpt lat="41.5969894" lon="-0.6768946"><ele>191.5</ele><time>2026-05-04T08:29:17.722Z</time></trkpt><trkpt lat="41.5969063" lon="-0.6767688"><ele>192.0</ele><time>2026-05-04T08:29:18.722Z</time></trkpt><trkpt lat="41.5968223" lon="-0.6766403"><ele>192.5</ele><time>2026-05-04T08:29:19.721Z</time></trkpt><trkpt lat="41.5967338" lon="-0.6765129"><ele>193.0</ele><time>2026-05-04T08:29:20.722Z</time></trkpt><trkpt lat="41.5966464" lon="-0.6763807"><ele>193.0</ele><time>2026-05-04T08:29:21.722Z</time></trkpt><trkpt lat="41.5965593" lon="-0.6762478"><ele>193.0</ele><time>2026-05-04T08:29:22.722Z</time></trkpt><trkpt lat="41.5964736" lon="-0.6761138"><ele>193.0</ele><time>2026-05-04T08:29:23.722Z</time></trkpt><trkpt lat="41.596383" lon="-0.6759781"><ele>193.0</ele><time>2026-05-04T08:29:24.722Z</time></trkpt><trkpt lat="41.5962922" lon="-0.6758417"><ele>192.5</ele><time>2026-05-04T08:29:25.721Z</time></trkpt><trkpt lat="41.596197" lon="-0.6757025"><ele>192.0</ele><time>2026-05-04T08:29:26.721Z</time></trkpt><trkpt lat="41.5961047" lon="-0.6755697"><ele>191.5</ele><time>2026-05-04T08:29:27.721Z</time></trkpt><trkpt lat="41.5960137" lon="-0.6754332"><ele>191.0</ele><time>2026-05-04T08:29:28.722Z</time></trkpt><trkpt lat="41.5959184" lon="-0.6752913"><ele>191.0</ele><time>2026-05-04T08:29:29.722Z</time></trkpt><trkpt lat="41.5958287" lon="-0.6751593"><ele>191.0</ele><time>2026-05-04T08:29:30.722Z</time></trkpt><trkpt lat="41.5957414" lon="-0.6750365"><ele>191.0</ele><time>2026-05-04T08:29:31.722Z</time></trkpt><trkpt lat="41.5956525" lon="-0.674905"><ele>191.0</ele><time>2026-05-04T08:29:32.722Z</time></trkpt><trkpt lat="41.5955669" lon="-0.6747793"><ele>191.0</ele><time>2026-05-04T08:29:33.721Z</time></trkpt><trkpt lat="41.5954787" lon="-0.6746507"><ele>191.0</ele><time>2026-05-04T08:29:34.722Z</time></trkpt><trkpt lat="41.5953922" lon="-0.6745196"><ele>191.0</ele><time>2026-05-04T08:29:35.722Z</time></trkpt><trkpt lat="41.5953073" lon="-0.6743922"><ele>191.0</ele><time>2026-05-04T08:29:36.722Z</time></trkpt><trkpt lat="41.595217" lon="-0.6742623"><ele>190.75</ele><time>2026-05-04T08:29:37.722Z</time></trkpt><trkpt lat="41.595128" lon="-0.6741326"><ele>190.5</ele><time>2026-05-04T08:29:38.722Z</time></trkpt><trkpt lat="41.5950383" lon="-0.6739996"><ele>190.25</ele><time>2026-05-04T08:29:39.722Z</time></trkpt><trkpt lat="41.5949486" lon="-0.6738656"><ele>190.0</ele><time>2026-05-04T08:29:40.722Z</time></trkpt><trkpt lat="41.5948592" lon="-0.6737298"><ele>189.75</ele><time>2026-05-04T08:29:41.722Z</time></trkpt><trkpt lat="41.5947705" lon="-0.6735995"><ele>189.5</ele><time>2026-05-04T08:29:42.721Z</time></trkpt><trkpt lat="41.5946812" lon="-0.6734614"><ele>189.25</ele><time>2026-05-04T08:29:43.722Z</time></trkpt><trkpt lat="41.5945885" lon="-0.6733341"><ele>189.0</ele><time>2026-05-04T08:29:44.722Z</time></trkpt><trkpt lat="41.5944967" lon="-0.6731977"><ele>189.0</ele><time>2026-05-04T08:29:45.721Z</time></trkpt><trkpt lat="41.5944039" lon="-0.6730578"><ele>189.0</ele><time>2026-05-04T08:29:46.722Z</time></trkpt><trkpt lat="41.5943125" lon="-0.6729138"><ele>189.0</ele><time>2026-05-04T08:29:47.722Z</time></trkpt><trkpt lat="41.594217" lon="-0.6727728"><ele>189.0</ele><time>2026-05-04T08:29:48.721Z</time></trkpt><trkpt lat="41.5941201" lon="-0.6726388"><ele>190.25</ele><time>2026-05-04T08:29:49.722Z</time></trkpt><trkpt lat="41.5940268" lon="-0.6724976"><ele>191.5</ele><time>2026-05-04T08:29:50.722Z</time></trkpt><trkpt lat="41.5939307" lon="-0.6723577"><ele>192.75</ele><time>2026-05-04T08:29:51.722Z</time></trkpt><trkpt lat="41.593838" lon="-0.6722209"><ele>194.0</ele><time>2026-05-04T08:29:52.722Z</time></trkpt><trkpt lat="41.5937458" lon="-0.6720857"><ele>193.75</ele><time>2026-05-04T08:29:53.722Z</time></trkpt><trkpt lat="41.5936534" lon="-0.6719452"><ele>193.5</ele><time>2026-05-04T08:29:54.722Z</time></trkpt><trkpt lat="41.5935584" lon="-0.6718102"><ele>193.25</ele><time>2026-05-04T08:29:55.722Z</time></trkpt><trkpt lat="41.593473" lon="-0.6716686"><ele>193.0</ele><time>2026-05-04T08:29:56.722Z</time></trkpt><trkpt lat="41.5933812" lon="-0.6715286"><ele>193.0</ele><time>2026-05-04T08:29:57.722Z</time></trkpt><trkpt lat="41.5932848" lon="-0.6713896"><ele>193.0</ele><time>2026-05-04T08:29:58.722Z</time></trkpt><trkpt lat="41.5931846" lon="-0.6712428"><ele>193.0</ele><time>2026-05-04T08:29:59.722Z</time></trkpt><trkpt lat="41.5930786" lon="-0.6710909"><ele>193.0</ele><time>2026-05-04T08:30:00.722Z</time></trkpt><trkpt lat="41.5929704" lon="-0.670938"><ele>193.0</ele><time>2026-05-04T08:30:01.722Z</time></trkpt><trkpt lat="41.5928654" lon="-0.6707854"><ele>193.0</ele><time>2026-05-04T08:30:02.721Z</time></trkpt><trkpt lat="41.5927664" lon="-0.6706344"><ele>193.0</ele><time>2026-05-04T08:30:03.721Z</time></trkpt><trkpt lat="41.5926634" lon="-0.6704863"><ele>192.33333333333331</ele><time>2026-05-04T08:30:04.722Z</time></trkpt><trkpt lat="41.592571" lon="-0.6703378"><ele>191.66666666666666</ele><time>2026-05-04T08:30:05.722Z</time></trkpt><trkpt lat="41.5924687" lon="-0.6701862"><ele>191.0</ele><time>2026-05-04T08:30:06.722Z</time></trkpt><trkpt lat="41.5923655" lon="-0.6700336"><ele>191.0</ele><time>2026-05-04T08:30:07.722Z</time></trkpt><trkpt lat="41.5922641" lon="-0.6698833"><ele>191.0</ele><time>2026-05-04T08:30:08.722Z</time></trkpt><trkpt lat="41.5921597" lon="-0.6697406"><ele>191.0</ele><time>2026-05-04T08:30:09.722Z</time></trkpt><trkpt lat="41.5920584" lon="-0.6695913"><ele>190.5</ele><time>2026-05-04T08:30:10.722Z</time></trkpt><trkpt lat="41.5919584" lon="-0.6694418"><ele>190.0</ele><time>2026-05-04T08:30:11.722Z</time></trkpt><trkpt lat="41.5918624" lon="-0.6692999"><ele>189.5</ele><time>2026-05-04T08:30:12.722Z</time></trkpt><trkpt lat="41.5917678" lon="-0.6691593"><ele>189.0</ele><time>2026-05-04T08:30:13.722Z</time></trkpt><trkpt lat="41.591672" lon="-0.6690245"><ele>189.0</ele><time>2026-05-04T08:30:14.721Z</time></trkpt><trkpt lat="41.5915831" lon="-0.6688796"><ele>189.0</ele><time>2026-05-04T08:30:15.721Z</time></trkpt><trkpt lat="41.5914899" lon="-0.6687425"><ele>189.0</ele><time>2026-05-04T08:30:16.722Z</time></trkpt><trkpt lat="41.5913961" lon="-0.6686112"><ele>189.0</ele><time>2026-05-04T08:30:17.722Z</time></trkpt><trkpt lat="41.5913091" lon="-0.6684814"><ele>189.25</ele><time>2026-05-04T08:30:18.722Z</time></trkpt><trkpt lat="41.5912168" lon="-0.6683534"><ele>189.5</ele><time>2026-05-04T08:30:19.722Z</time></trkpt><trkpt lat="41.591128" lon="-0.668221"><ele>189.75</ele><time>2026-05-04T08:30:20.722Z</time></trkpt><trkpt lat="41.5910352" lon="-0.6680865"><ele>190.0</ele><time>2026-05-04T08:30:21.722Z</time></trkpt><trkpt lat="41.5909456" lon="-0.6679448"><ele>189.0</ele><time>2026-05-04T08:30:22.722Z</time></trkpt><trkpt lat="41.5908573" lon="-0.6678106"><ele>188.0</ele><time>2026-05-04T08:30:23.721Z</time></trkpt><trkpt lat="41.5907672" lon="-0.6676755"><ele>187.0</ele><time>2026-05-04T08:30:24.722Z</time></trkpt><trkpt lat="41.5906746" lon="-0.6675435"><ele>186.0</ele><time>2026-05-04T08:30:25.722Z</time></trkpt><trkpt lat="41.5905816" lon="-0.6674057"><ele>185.75</ele><time>2026-05-04T08:30:26.722Z</time></trkpt><trkpt lat="41.5904878" lon="-0.6672709"><ele>185.5</ele><time>2026-05-04T08:30:27.722Z</time></trkpt><trkpt lat="41.5903984" lon="-0.6671311"><ele>185.25</ele><time>2026-05-04T08:30:28.722Z</time></trkpt><trkpt lat="41.5903066" lon="-0.666995"><ele>185.0</ele><time>2026-05-04T08:30:29.722Z</time></trkpt><trkpt lat="41.5902158" lon="-0.6668538"><ele>185.0</ele><time>2026-05-04T08:30:30.722Z</time></trkpt><trkpt lat="41.5901236" lon="-0.6667149"><ele>185.0</ele><time>2026-05-04T08:30:31.722Z</time></trkpt><trkpt lat="41.5900305" lon="-0.6665744"><ele>185.0</ele><time>2026-05-04T08:30:32.721Z</time></trkpt><trkpt lat="41.5899322" lon="-0.6664315"><ele>185.0</ele><time>2026-05-04T08:30:33.722Z</time></trkpt><trkpt lat="41.5898332" lon="-0.6662866"><ele>185.0</ele><time>2026-05-04T08:30:34.722Z</time></trkpt><trkpt lat="41.5897363" lon="-0.666146"><ele>185.0</ele><time>2026-05-04T08:30:35.722Z</time></trkpt><trkpt lat="41.5896382" lon="-0.665999"><ele>185.0</ele><time>2026-05-04T08:30:36.722Z</time></trkpt><trkpt lat="41.5895409" lon="-0.6658574"><ele>185.0</ele><time>2026-05-04T08:30:37.722Z</time></trkpt><trkpt lat="41.5894482" lon="-0.665717"><ele>185.0</ele><time>2026-05-04T08:30:38.722Z</time></trkpt><trkpt lat="41.5893531" lon="-0.6655762"><ele>185.0</ele><time>2026-05-04T08:30:39.722Z</time></trkpt><trkpt lat="41.5892576" lon="-0.6654329"><ele>185.0</ele><time>2026-05-04T08:30:40.722Z</time></trkpt><trkpt lat="41.5891623" lon="-0.66529"><ele>185.0</ele><time>2026-05-04T08:30:41.722Z</time></trkpt><trkpt lat="41.5890707" lon="-0.6651477"><ele>185.0</ele><time>2026-05-04T08:30:42.722Z</time></trkpt><trkpt lat="41.5889695" lon="-0.6650081"><ele>185.0</ele><time>2026-05-04T08:30:43.722Z</time></trkpt><trkpt lat="41.5888675" lon="-0.6648638"><ele>185.0</ele><time>2026-05-04T08:30:44.722Z</time></trkpt><trkpt lat="41.5887763" lon="-0.6647302"><ele>185.0</ele><time>2026-05-04T08:30:45.722Z</time></trkpt><trkpt lat="41.5886881" lon="-0.6645944"><ele>185.25</ele><time>2026-05-04T08:30:46.721Z</time></trkpt><trkpt lat="41.5885952" lon="-0.6644655"><ele>185.5</ele><time>2026-05-04T08:30:47.722Z</time></trkpt><trkpt lat="41.5885037" lon="-0.6643307"><ele>185.75</ele><time>2026-05-04T08:30:48.722Z</time></trkpt><trkpt lat="41.5884142" lon="-0.6641984"><ele>186.0</ele><time>2026-05-04T08:30:49.722Z</time></trkpt><trkpt lat="41.5883203" lon="-0.6640691"><ele>186.0</ele><time>2026-05-04T08:30:50.722Z</time></trkpt><trkpt lat="41.5882297" lon="-0.6639342"><ele>186.0</ele><time>2026-05-04T08:30:51.722Z</time></trkpt><trkpt lat="41.58814" lon="-0.6637995"><ele>186.0</ele><time>2026-05-04T08:30:52.721Z</time></trkpt><trkpt lat="41.588049" lon="-0.6636604"><ele>186.0</ele><time>2026-05-04T08:30:53.722Z</time></trkpt><trkpt lat="41.5879599" lon="-0.663522"><ele>186.0</ele><time>2026-05-04T08:30:54.722Z</time></trkpt><trkpt lat="41.5878685" lon="-0.6633877"><ele>186.0</ele><time>2026-05-04T08:30:55.722Z</time></trkpt><trkpt lat="41.5877754" lon="-0.6632515"><ele>186.0</ele><time>2026-05-04T08:30:56.722Z</time></trkpt><trkpt lat="41.5876801" lon="-0.663114"><ele>186.0</ele><time>2026-05-04T08:30:57.722Z</time></trkpt><trkpt lat="41.5875877" lon="-0.66297"><ele>186.0</ele><time>2026-05-04T08:30:58.722Z</time></trkpt><trkpt lat="41.5874935" lon="-0.6628289"><ele>186.0</ele><time>2026-05-04T08:30:59.723Z</time></trkpt><trkpt lat="41.5873922" lon="-0.662687"><ele>186.0</ele><time>2026-05-04T08:31:00.723Z</time></trkpt><trkpt lat="41.5872967" lon="-0.6625414"><ele>186.0</ele><time>2026-05-04T08:31:01.722Z</time></trkpt><trkpt lat="41.5871982" lon="-0.6623962"><ele>186.25</ele><time>2026-05-04T08:31:02.723Z</time></trkpt><trkpt lat="41.5871021" lon="-0.6622543"><ele>186.5</ele><time>2026-05-04T08:31:03.722Z</time></trkpt><trkpt lat="41.5870101" lon="-0.6621026"><ele>186.75</ele><time>2026-05-04T08:31:04.723Z</time></trkpt><trkpt lat="41.5869117" lon="-0.6619554"><ele>187.0</ele><time>2026-05-04T08:31:05.723Z</time></trkpt><trkpt lat="41.5868155" lon="-0.6618078"><ele>186.33333333333334</ele><time>2026-05-04T08:31:06.723Z</time></trkpt><trkpt lat="41.586715" lon="-0.6616581"><ele>185.66666666666666</ele><time>2026-05-04T08:31:07.723Z</time></trkpt><trkpt lat="41.5866179" lon="-0.6615055"><ele>185.0</ele><time>2026-05-04T08:31:08.723Z</time></trkpt><trkpt lat="41.5865169" lon="-0.6613505"><ele>185.0</ele><time>2026-05-04T08:31:09.723Z</time></trkpt><trkpt lat="41.5864139" lon="-0.6612011"><ele>185.0</ele><time>2026-05-04T08:31:10.723Z</time></trkpt><trkpt lat="41.5863102" lon="-0.6610507"><ele>185.0</ele><time>2026-05-04T08:31:11.723Z</time></trkpt><trkpt lat="41.5862083" lon="-0.6608989"><ele>183.66666666666666</ele><time>2026-05-04T08:31:12.723Z</time></trkpt><trkpt lat="41.586107" lon="-0.6607459"><ele>182.33333333333334</ele><time>2026-05-04T08:31:13.723Z</time></trkpt><trkpt lat="41.5860068" lon="-0.660593"><ele>181.0</ele><time>2026-05-04T08:31:14.723Z</time></trkpt><trkpt lat="41.5859018" lon="-0.660442"><ele>181.0</ele><time>2026-05-04T08:31:15.723Z</time></trkpt><trkpt lat="41.5857994" lon="-0.6602895"><ele>181.0</ele><time>2026-05-04T08:31:16.723Z</time></trkpt><trkpt lat="41.5857015" lon="-0.6601372"><ele>181.0</ele><time>2026-05-04T08:31:17.723Z</time></trkpt><trkpt lat="41.5856053" lon="-0.6599908"><ele>181.0</ele><time>2026-05-04T08:31:18.723Z</time></trkpt><trkpt lat="41.5855123" lon="-0.6598561"><ele>180.75</ele><time>2026-05-04T08:31:19.722Z</time></trkpt><trkpt lat="41.5854189" lon="-0.6597134"><ele>180.5</ele><time>2026-05-04T08:31:20.723Z</time></trkpt><trkpt lat="41.5853266" lon="-0.6595762"><ele>180.25</ele><time>2026-05-04T08:31:21.723Z</time></trkpt><trkpt lat="41.5852377" lon="-0.6594375"><ele>180.0</ele><time>2026-05-04T08:31:22.722Z</time></trkpt><trkpt lat="41.5851463" lon="-0.659299"><ele>180.0</ele><time>2026-05-04T08:31:23.723Z</time></trkpt><trkpt lat="41.5850488" lon="-0.6591629"><ele>180.0</ele><time>2026-05-04T08:31:24.723Z</time></trkpt><trkpt lat="41.5849529" lon="-0.6590209"><ele>180.0</ele><time>2026-05-04T08:31:25.722Z</time></trkpt><trkpt lat="41.584858" lon="-0.6588809"><ele>180.0</ele><time>2026-05-04T08:31:26.723Z</time></trkpt><trkpt lat="41.5847622" lon="-0.6587399"><ele>179.75</ele><time>2026-05-04T08:31:27.723Z</time></trkpt><trkpt lat="41.5846671" lon="-0.6586012"><ele>179.5</ele><time>2026-05-04T08:31:28.723Z</time></trkpt><trkpt lat="41.5845767" lon="-0.6584558"><ele>179.25</ele><time>2026-05-04T08:31:29.723Z</time></trkpt><trkpt lat="41.5844833" lon="-0.6583129"><ele>179.0</ele><time>2026-05-04T08:31:30.723Z</time></trkpt><trkpt lat="41.5843877" lon="-0.6581761"><ele>179.0</ele><time>2026-05-04T08:31:31.723Z</time></trkpt><trkpt lat="41.5842934" lon="-0.658037"><ele>179.0</ele><time>2026-05-04T08:31:32.723Z</time></trkpt><trkpt lat="41.5842035" lon="-0.657901"><ele>179.0</ele><time>2026-05-04T08:31:33.722Z</time></trkpt><trkpt lat="41.5841094" lon="-0.6577643"><ele>179.0</ele><time>2026-05-04T08:31:34.723Z</time></trkpt><trkpt lat="41.5840171" lon="-0.6576224"><ele>178.75</ele><time>2026-05-04T08:31:35.722Z</time></trkpt><trkpt lat="41.5839256" lon="-0.6574815"><ele>178.5</ele><time>2026-05-04T08:31:36.723Z</time></trkpt><trkpt lat="41.5838351" lon="-0.6573422"><ele>178.25</ele><time>2026-05-04T08:31:37.723Z</time></trkpt><trkpt lat="41.5837394" lon="-0.657205"><ele>178.0</ele><time>2026-05-04T08:31:38.723Z</time></trkpt><trkpt lat="41.5836449" lon="-0.6570648"><ele>179.0</ele><time>2026-05-04T08:31:39.723Z</time></trkpt><trkpt lat="41.5835569" lon="-0.656918"><ele>180.0</ele><time>2026-05-04T08:31:40.723Z</time></trkpt><trkpt lat="41.5834653" lon="-0.6567744"><ele>181.0</ele><time>2026-05-04T08:31:41.723Z</time></trkpt><trkpt lat="41.5833708" lon="-0.6566299"><ele>182.0</ele><time>2026-05-04T08:31:42.723Z</time></trkpt><trkpt lat="41.583277" lon="-0.6564883"><ele>182.0</ele><time>2026-05-04T08:31:43.723Z</time></trkpt><trkpt lat="41.5831824" lon="-0.656346"><ele>182.0</ele><time>2026-05-04T08:31:44.723Z</time></trkpt><trkpt lat="41.5830908" lon="-0.6562046"><ele>182.0</ele><time>2026-05-04T08:31:45.723Z</time></trkpt><trkpt lat="41.5829902" lon="-0.6560557"><ele>182.0</ele><time>2026-05-04T08:31:46.723Z</time></trkpt><trkpt lat="41.5828902" lon="-0.6559123"><ele>181.0</ele><time>2026-05-04T08:31:47.723Z</time></trkpt><trkpt lat="41.5827929" lon="-0.6557722"><ele>180.0</ele><time>2026-05-04T08:31:48.723Z</time></trkpt><trkpt lat="41.5826977" lon="-0.6556328"><ele>179.0</ele><time>2026-05-04T08:31:49.723Z</time></trkpt><trkpt lat="41.5826026" lon="-0.6554854"><ele>178.0</ele><time>2026-05-04T08:31:50.723Z</time></trkpt><trkpt lat="41.5825068" lon="-0.6553446"><ele>179.25</ele><time>2026-05-04T08:31:51.723Z</time></trkpt><trkpt lat="41.5824154" lon="-0.6552"><ele>180.5</ele><time>2026-05-04T08:31:52.723Z</time></trkpt><trkpt lat="41.5823208" lon="-0.6550549"><ele>181.75</ele><time>2026-05-04T08:31:53.723Z</time></trkpt><trkpt lat="41.5822244" lon="-0.654911"><ele>183.0</ele><time>2026-05-04T08:31:54.723Z</time></trkpt><trkpt lat="41.5821253" lon="-0.6547679"><ele>183.0</ele><time>2026-05-04T08:31:55.723Z</time></trkpt><trkpt lat="41.5820285" lon="-0.6546274"><ele>183.0</ele><time>2026-05-04T08:31:56.723Z</time></trkpt><trkpt lat="41.5819347" lon="-0.6544835"><ele>183.0</ele><time>2026-05-04T08:31:57.723Z</time></trkpt><trkpt lat="41.5818407" lon="-0.6543406"><ele>183.0</ele><time>2026-05-04T08:31:58.723Z</time></trkpt><trkpt lat="41.581746" lon="-0.6541971"><ele>181.75</ele><time>2026-05-04T08:31:59.723Z</time></trkpt><trkpt lat="41.5816521" lon="-0.6540546"><ele>180.5</ele><time>2026-05-04T08:32:00.723Z</time></trkpt><trkpt lat="41.5815589" lon="-0.6539169"><ele>179.25</ele><time>2026-05-04T08:32:01.723Z</time></trkpt><trkpt lat="41.5814677" lon="-0.6537827"><ele>178.0</ele><time>2026-05-04T08:32:02.723Z</time></trkpt><trkpt lat="41.5813776" lon="-0.6536481"><ele>178.5</ele><time>2026-05-04T08:32:03.723Z</time></trkpt><trkpt lat="41.58129" lon="-0.6535149"><ele>179.0</ele><time>2026-05-04T08:32:04.723Z</time></trkpt><trkpt lat="41.5812011" lon="-0.6533839"><ele>179.5</ele><time>2026-05-04T08:32:05.722Z</time></trkpt><trkpt lat="41.5811142" lon="-0.6532513"><ele>180.0</ele><time>2026-05-04T08:32:06.722Z</time></trkpt><trkpt lat="41.5810248" lon="-0.6531166"><ele>180.0</ele><time>2026-05-04T08:32:07.723Z</time></trkpt><trkpt lat="41.5809391" lon="-0.6529847"><ele>180.0</ele><time>2026-05-04T08:32:08.723Z</time></trkpt><trkpt lat="41.5808491" lon="-0.6528508"><ele>180.0</ele><time>2026-05-04T08:32:09.723Z</time></trkpt><trkpt lat="41.5807564" lon="-0.6527177"><ele>180.0</ele><time>2026-05-04T08:32:10.723Z</time></trkpt><trkpt lat="41.5806647" lon="-0.6525831"><ele>179.25</ele><time>2026-05-04T08:32:11.723Z</time></trkpt><trkpt lat="41.5805778" lon="-0.6524532"><ele>178.5</ele><time>2026-05-04T08:32:12.723Z</time></trkpt><trkpt lat="41.5804897" lon="-0.6523196"><ele>177.75</ele><time>2026-05-04T08:32:13.723Z</time></trkpt><trkpt lat="41.5804017" lon="-0.6521873"><ele>177.0</ele><time>2026-05-04T08:32:14.723Z</time></trkpt><trkpt lat="41.5803122" lon="-0.6520532"><ele>177.75</ele><time>2026-05-04T08:32:15.723Z</time></trkpt><trkpt lat="41.5802237" lon="-0.6519213"><ele>178.5</ele><time>2026-05-04T08:32:16.723Z</time></trkpt><trkpt lat="41.5801336" lon="-0.6517937"><ele>179.25</ele><time>2026-05-04T08:32:17.722Z</time></trkpt><trkpt lat="41.5800477" lon="-0.6516633"><ele>180.0</ele><time>2026-05-04T08:32:18.723Z</time></trkpt><trkpt lat="41.5799655" lon="-0.6515315"><ele>180.0</ele><time>2026-05-04T08:32:19.723Z</time></trkpt><trkpt lat="41.5798816" lon="-0.6514014"><ele>180.0</ele><time>2026-05-04T08:32:20.722Z</time></trkpt><trkpt lat="41.5797917" lon="-0.6512675"><ele>180.0</ele><time>2026-05-04T08:32:21.723Z</time></trkpt><trkpt lat="41.5797054" lon="-0.6511344"><ele>180.0</ele><time>2026-05-04T08:32:22.722Z</time></trkpt><trkpt lat="41.5796184" lon="-0.6510068"><ele>180.75</ele><time>2026-05-04T08:32:23.723Z</time></trkpt><trkpt lat="41.5795339" lon="-0.6508821"><ele>181.5</ele><time>2026-05-04T08:32:24.722Z</time></trkpt><trkpt lat="41.5794466" lon="-0.6507595"><ele>182.25</ele><time>2026-05-04T08:32:25.723Z</time></trkpt><trkpt lat="41.5793643" lon="-0.6506371"><ele>183.0</ele><time>2026-05-04T08:32:26.722Z</time></trkpt><trkpt lat="41.5792811" lon="-0.6505093"><ele>183.0</ele><time>2026-05-04T08:32:27.723Z</time></trkpt><trkpt lat="41.5791987" lon="-0.6503886"><ele>183.0</ele><time>2026-05-04T08:32:28.723Z</time></trkpt><trkpt lat="41.5791161" lon="-0.6502621"><ele>183.0</ele><time>2026-05-04T08:32:29.723Z</time></trkpt><trkpt lat="41.5790366" lon="-0.6501365"><ele>183.0</ele><time>2026-05-04T08:32:30.723Z</time></trkpt><trkpt lat="41.5789582" lon="-0.6500192"><ele>183.0</ele><time>2026-05-04T08:32:31.722Z</time></trkpt><trkpt lat="41.5788794" lon="-0.6499"><ele>183.0</ele><time>2026-05-04T08:32:32.723Z</time></trkpt><trkpt lat="41.5788036" lon="-0.649786"><ele>183.0</ele><time>2026-05-04T08:32:33.723Z</time></trkpt><trkpt lat="41.5787196" lon="-0.6496648"><ele>183.0</ele><time>2026-05-04T08:32:34.722Z</time></trkpt><trkpt lat="41.5786392" lon="-0.6495409"><ele>183.5</ele><time>2026-05-04T08:32:35.723Z</time></trkpt><trkpt lat="41.5785583" lon="-0.6494158"><ele>184.0</ele><time>2026-05-04T08:32:36.723Z</time></trkpt><trkpt lat="41.5784777" lon="-0.6492952"><ele>184.5</ele><time>2026-05-04T08:32:37.723Z</time></trkpt><trkpt lat="41.5783928" lon="-0.6491746"><ele>185.0</ele><time>2026-05-04T08:32:38.723Z</time></trkpt><trkpt lat="41.5783131" lon="-0.6490488"><ele>185.0</ele><time>2026-05-04T08:32:39.723Z</time></trkpt><trkpt lat="41.5782338" lon="-0.648924"><ele>185.0</ele><time>2026-05-04T08:32:40.723Z</time></trkpt><trkpt lat="41.5781542" lon="-0.6488057"><ele>185.0</ele><time>2026-05-04T08:32:41.723Z</time></trkpt><trkpt lat="41.5780714" lon="-0.6486821"><ele>185.0</ele><time>2026-05-04T08:32:42.723Z</time></trkpt><trkpt lat="41.5779867" lon="-0.6485555"><ele>185.0</ele><time>2026-05-04T08:32:43.723Z</time></trkpt><trkpt lat="41.5779027" lon="-0.6484334"><ele>185.0</ele><time>2026-05-04T08:32:44.723Z</time></trkpt><trkpt lat="41.5778158" lon="-0.6483023"><ele>185.0</ele><time>2026-05-04T08:32:45.722Z</time></trkpt><trkpt lat="41.5777336" lon="-0.6481746"><ele>185.0</ele><time>2026-05-04T08:32:46.723Z</time></trkpt><trkpt lat="41.5776431" lon="-0.6480445"><ele>185.0</ele><time>2026-05-04T08:32:47.723Z</time></trkpt><trkpt lat="41.5775568" lon="-0.647912"><ele>185.0</ele><time>2026-05-04T08:32:48.723Z</time></trkpt><trkpt lat="41.5774667" lon="-0.6477778"><ele>185.0</ele><time>2026-05-04T08:32:49.723Z</time></trkpt><trkpt lat="41.5773748" lon="-0.6476497"><ele>185.0</ele><time>2026-05-04T08:32:50.723Z</time></trkpt><trkpt lat="41.577287" lon="-0.6475146"><ele>185.5</ele><time>2026-05-04T08:32:51.723Z</time></trkpt><trkpt lat="41.5771999" lon="-0.6473829"><ele>186.0</ele><time>2026-05-04T08:32:52.723Z</time></trkpt><trkpt lat="41.5771121" lon="-0.6472543"><ele>186.5</ele><time>2026-05-04T08:32:53.722Z</time></trkpt><trkpt lat="41.5770255" lon="-0.6471219"><ele>187.0</ele><time>2026-05-04T08:32:54.723Z</time></trkpt><trkpt lat="41.5769366" lon="-0.6469885"><ele>186.5</ele><time>2026-05-04T08:32:55.723Z</time></trkpt><trkpt lat="41.5768477" lon="-0.6468638"><ele>186.0</ele><time>2026-05-04T08:32:56.722Z</time></trkpt><trkpt lat="41.5767577" lon="-0.6467351"><ele>185.5</ele><time>2026-05-04T08:32:57.723Z</time></trkpt><trkpt lat="41.5766686" lon="-0.6466005"><ele>185.0</ele><time>2026-05-04T08:32:58.723Z</time></trkpt><trkpt lat="41.5765765" lon="-0.6464658"><ele>185.0</ele><time>2026-05-04T08:32:59.723Z</time></trkpt><trkpt lat="41.5764881" lon="-0.6463408"><ele>185.0</ele><time>2026-05-04T08:33:00.723Z</time></trkpt><trkpt lat="41.576399" lon="-0.6462058"><ele>185.0</ele><time>2026-05-04T08:33:01.723Z</time></trkpt><trkpt lat="41.576311" lon="-0.6460713"><ele>185.0</ele><time>2026-05-04T08:33:02.723Z</time></trkpt><trkpt lat="41.5762209" lon="-0.6459356"><ele>185.25</ele><time>2026-05-04T08:33:03.723Z</time></trkpt><trkpt lat="41.5761328" lon="-0.6457969"><ele>185.5</ele><time>2026-05-04T08:33:04.723Z</time></trkpt><trkpt lat="41.5760393" lon="-0.645667"><ele>185.75</ele><time>2026-05-04T08:33:05.723Z</time></trkpt><trkpt lat="41.5759494" lon="-0.6455343"><ele>186.0</ele><time>2026-05-04T08:33:06.723Z</time></trkpt><trkpt lat="41.5758597" lon="-0.6453962"><ele>186.0</ele><time>2026-05-04T08:33:07.722Z</time></trkpt><trkpt lat="41.5757673" lon="-0.6452604"><ele>186.0</ele><time>2026-05-04T08:33:08.723Z</time></trkpt><trkpt lat="41.5756703" lon="-0.6451221"><ele>186.0</ele><time>2026-05-04T08:33:09.723Z</time></trkpt><trkpt lat="41.5755754" lon="-0.6449811"><ele>186.0</ele><time>2026-05-04T08:33:10.723Z</time></trkpt><trkpt lat="41.5754829" lon="-0.6448396"><ele>186.0</ele><time>2026-05-04T08:33:11.723Z</time></trkpt><trkpt lat="41.5753933" lon="-0.6446885"><ele>186.0</ele><time>2026-05-04T08:33:12.723Z</time></trkpt><trkpt lat="41.5753027" lon="-0.6445443"><ele>186.0</ele><time>2026-05-04T08:33:13.723Z</time></trkpt><trkpt lat="41.5752136" lon="-0.6443973"><ele>186.0</ele><time>2026-05-04T08:33:14.723Z</time></trkpt><trkpt lat="41.5751258" lon="-0.6442622"><ele>185.0</ele><time>2026-05-04T08:33:15.723Z</time></trkpt><trkpt lat="41.5750375" lon="-0.6441256"><ele>184.0</ele><time>2026-05-04T08:33:16.722Z</time></trkpt><trkpt lat="41.5749455" lon="-0.6439916"><ele>183.0</ele><time>2026-05-04T08:33:17.723Z</time></trkpt><trkpt lat="41.5748494" lon="-0.6438537"><ele>182.0</ele><time>2026-05-04T08:33:18.723Z</time></trkpt><trkpt lat="41.5747561" lon="-0.6437126"><ele>182.0</ele><time>2026-05-04T08:33:19.722Z</time></trkpt><trkpt lat="41.5746626" lon="-0.6435683"><ele>182.0</ele><time>2026-05-04T08:33:20.723Z</time></trkpt><trkpt lat="41.574568" lon="-0.6434277"><ele>182.0</ele><time>2026-05-04T08:33:21.723Z</time></trkpt><trkpt lat="41.5744674" lon="-0.6432857"><ele>182.0</ele><time>2026-05-04T08:33:22.723Z</time></trkpt><trkpt lat="41.5743755" lon="-0.6431459"><ele>182.0</ele><time>2026-05-04T08:33:23.723Z</time></trkpt><trkpt lat="41.5742874" lon="-0.6430121"><ele>182.0</ele><time>2026-05-04T08:33:24.723Z</time></trkpt><trkpt lat="41.5741947" lon="-0.6428775"><ele>182.0</ele><time>2026-05-04T08:33:25.723Z</time></trkpt><trkpt lat="41.5741055" lon="-0.6427365"><ele>182.0</ele><time>2026-05-04T08:33:26.722Z</time></trkpt><trkpt lat="41.5740147" lon="-0.6425954"><ele>181.5</ele><time>2026-05-04T08:33:27.723Z</time></trkpt><trkpt lat="41.5739247" lon="-0.6424574"><ele>181.0</ele><time>2026-05-04T08:33:28.722Z</time></trkpt><trkpt lat="41.5738327" lon="-0.6423186"><ele>180.5</ele><time>2026-05-04T08:33:29.724Z</time></trkpt><trkpt lat="41.5737414" lon="-0.6421773"><ele>180.0</ele><time>2026-05-04T08:33:30.724Z</time></trkpt><trkpt lat="41.5736484" lon="-0.6420384"><ele>179.25</ele><time>2026-05-04T08:33:31.724Z</time></trkpt><trkpt lat="41.5735523" lon="-0.6418947"><ele>178.5</ele><time>2026-05-04T08:33:32.724Z</time></trkpt><trkpt lat="41.5734615" lon="-0.6417506"><ele>177.75</ele><time>2026-05-04T08:33:33.724Z</time></trkpt><trkpt lat="41.5733679" lon="-0.6416054"><ele>177.0</ele><time>2026-05-04T08:33:34.724Z</time></trkpt><trkpt lat="41.5732795" lon="-0.6414629"><ele>177.0</ele><time>2026-05-04T08:33:35.723Z</time></trkpt><trkpt lat="41.5731835" lon="-0.6413166"><ele>177.0</ele><time>2026-05-04T08:33:36.724Z</time></trkpt><trkpt lat="41.5730937" lon="-0.6411728"><ele>177.0</ele><time>2026-05-04T08:33:37.723Z</time></trkpt><trkpt lat="41.5730036" lon="-0.6410247"><ele>177.0</ele><time>2026-05-04T08:33:38.724Z</time></trkpt><trkpt lat="41.5729094" lon="-0.6408744"><ele>176.0</ele><time>2026-05-04T08:33:39.723Z</time></trkpt><trkpt lat="41.5728132" lon="-0.6407242"><ele>175.0</ele><time>2026-05-04T08:33:40.724Z</time></trkpt><trkpt lat="41.5727153" lon="-0.6405784"><ele>174.0</ele><time>2026-05-04T08:33:41.724Z</time></trkpt><trkpt lat="41.5726189" lon="-0.6404308"><ele>173.0</ele><time>2026-05-04T08:33:42.724Z</time></trkpt><trkpt lat="41.5725206" lon="-0.6402781"><ele>173.0</ele><time>2026-05-04T08:33:43.724Z</time></trkpt><trkpt lat="41.5724258" lon="-0.6401248"><ele>173.0</ele><time>2026-05-04T08:33:44.723Z</time></trkpt><trkpt lat="41.5723261" lon="-0.6399701"><ele>173.0</ele><time>2026-05-04T08:33:45.724Z</time></trkpt><trkpt lat="41.5722278" lon="-0.6398211"><ele>173.0</ele><time>2026-05-04T08:33:46.724Z</time></trkpt><trkpt lat="41.5721316" lon="-0.6396784"><ele>173.0</ele><time>2026-05-04T08:33:47.724Z</time></trkpt><trkpt lat="41.5720352" lon="-0.6395318"><ele>173.0</ele><time>2026-05-04T08:33:48.724Z</time></trkpt><trkpt lat="41.5719415" lon="-0.6393816"><ele>173.0</ele><time>2026-05-04T08:33:49.724Z</time></trkpt><trkpt lat="41.5718446" lon="-0.6392322"><ele>173.25</ele><time>2026-05-04T08:33:50.724Z</time></trkpt><trkpt lat="41.571753" lon="-0.6390803"><ele>173.5</ele><time>2026-05-04T08:33:51.724Z</time></trkpt><trkpt lat="41.5716613" lon="-0.6389363"><ele>173.75</ele><time>2026-05-04T08:33:52.724Z</time></trkpt><trkpt lat="41.5715714" lon="-0.6387949"><ele>174.0</ele><time>2026-05-04T08:33:53.724Z</time></trkpt><trkpt lat="41.5714789" lon="-0.6386482"><ele>173.5</ele><time>2026-05-04T08:33:54.724Z</time></trkpt><trkpt lat="41.5713873" lon="-0.6384994"><ele>173.0</ele><time>2026-05-04T08:33:55.724Z</time></trkpt><trkpt lat="41.5712955" lon="-0.6383586"><ele>172.5</ele><time>2026-05-04T08:33:56.724Z</time></trkpt><trkpt lat="41.5712054" lon="-0.6382174"><ele>172.0</ele><time>2026-05-04T08:33:57.724Z</time></trkpt><trkpt lat="41.5711106" lon="-0.6380776"><ele>172.0</ele><time>2026-05-04T08:33:58.724Z</time></trkpt><trkpt lat="41.5710169" lon="-0.6379384"><ele>172.0</ele><time>2026-05-04T08:33:59.724Z</time></trkpt><trkpt lat="41.5709237" lon="-0.6377951"><ele>172.0</ele><time>2026-05-04T08:34:00.724Z</time></trkpt><trkpt lat="41.5708362" lon="-0.6376504"><ele>172.0</ele><time>2026-05-04T08:34:01.724Z</time></trkpt><trkpt lat="41.5707416" lon="-0.6375069"><ele>172.25</ele><time>2026-05-04T08:34:02.724Z</time></trkpt><trkpt lat="41.5706534" lon="-0.6373626"><ele>172.5</ele><time>2026-05-04T08:34:03.723Z</time></trkpt><trkpt lat="41.5705612" lon="-0.6372211"><ele>172.75</ele><time>2026-05-04T08:34:04.724Z</time></trkpt><trkpt lat="41.5704758" lon="-0.6370816"><ele>173.0</ele><time>2026-05-04T08:34:05.723Z</time></trkpt><trkpt lat="41.5703863" lon="-0.6369419"><ele>173.25</ele><time>2026-05-04T08:34:06.724Z</time></trkpt><trkpt lat="41.5702977" lon="-0.6368021"><ele>173.5</ele><time>2026-05-04T08:34:07.724Z</time></trkpt><trkpt lat="41.5702056" lon="-0.6366602"><ele>173.75</ele><time>2026-05-04T08:34:08.724Z</time></trkpt><trkpt lat="41.5701082" lon="-0.6365242"><ele>174.0</ele><time>2026-05-04T08:34:09.724Z</time></trkpt><trkpt lat="41.5700166" lon="-0.6363829"><ele>174.0</ele><time>2026-05-04T08:34:10.724Z</time></trkpt><trkpt lat="41.5699222" lon="-0.6362435"><ele>174.0</ele><time>2026-05-04T08:34:11.724Z</time></trkpt><trkpt lat="41.5698264" lon="-0.6361117"><ele>174.0</ele><time>2026-05-04T08:34:12.724Z</time></trkpt><trkpt lat="41.5697372" lon="-0.6359681"><ele>174.0</ele><time>2026-05-04T08:34:13.723Z</time></trkpt><trkpt lat="41.5696423" lon="-0.6358231"><ele>174.25</ele><time>2026-05-04T08:34:14.723Z</time></trkpt><trkpt lat="41.5695566" lon="-0.635682"><ele>174.5</ele><time>2026-05-04T08:34:15.723Z</time></trkpt><trkpt lat="41.5694765" lon="-0.6355547"><ele>174.75</ele><time>2026-05-04T08:34:16.723Z</time></trkpt><trkpt lat="41.5693845" lon="-0.6354148"><ele>175.0</ele><time>2026-05-04T08:34:17.724Z</time></trkpt><trkpt lat="41.569301" lon="-0.6352731"><ele>174.25</ele><time>2026-05-04T08:34:18.724Z</time></trkpt><trkpt lat="41.5692147" lon="-0.6351327"><ele>173.5</ele><time>2026-05-04T08:34:19.724Z</time></trkpt><trkpt lat="41.5691269" lon="-0.6349988"><ele>172.75</ele><time>2026-05-04T08:34:20.724Z</time></trkpt><trkpt lat="41.5690395" lon="-0.6348649"><ele>172.0</ele><time>2026-05-04T08:34:21.724Z</time></trkpt><trkpt lat="41.5689544" lon="-0.6347288"><ele>172.0</ele><time>2026-05-04T08:34:22.724Z</time></trkpt><trkpt lat="41.5688628" lon="-0.6345917"><ele>172.0</ele><time>2026-05-04T08:34:23.724Z</time></trkpt><trkpt lat="41.568776" lon="-0.6344556"><ele>172.0</ele><time>2026-05-04T08:34:24.724Z</time></trkpt><trkpt lat="41.5686907" lon="-0.6343184"><ele>172.0</ele><time>2026-05-04T08:34:25.724Z</time></trkpt><trkpt lat="41.5686052" lon="-0.6341868"><ele>171.75</ele><time>2026-05-04T08:34:26.724Z</time></trkpt><trkpt lat="41.5685185" lon="-0.6340548"><ele>171.5</ele><time>2026-05-04T08:34:27.724Z</time></trkpt><trkpt lat="41.5684327" lon="-0.6339212"><ele>171.25</ele><time>2026-05-04T08:34:28.724Z</time></trkpt><trkpt lat="41.5683444" lon="-0.6337873"><ele>171.0</ele><time>2026-05-04T08:34:29.723Z</time></trkpt><trkpt lat="41.5682608" lon="-0.6336509"><ele>171.0</ele><time>2026-05-04T08:34:30.724Z</time></trkpt><trkpt lat="41.568175" lon="-0.6335177"><ele>171.0</ele><time>2026-05-04T08:34:31.724Z</time></trkpt><trkpt lat="41.568089" lon="-0.6333828"><ele>171.0</ele><time>2026-05-04T08:34:32.724Z</time></trkpt><trkpt lat="41.5680041" lon="-0.6332529"><ele>171.0</ele><time>2026-05-04T08:34:33.724Z</time></trkpt><trkpt lat="41.5679219" lon="-0.6331184"><ele>170.75</ele><time>2026-05-04T08:34:34.724Z</time></trkpt><trkpt lat="41.5678368" lon="-0.6329859"><ele>170.5</ele><time>2026-05-04T08:34:35.724Z</time></trkpt><trkpt lat="41.567747" lon="-0.6328512"><ele>170.25</ele><time>2026-05-04T08:34:36.724Z</time></trkpt><trkpt lat="41.5676613" lon="-0.6327194"><ele>170.0</ele><time>2026-05-04T08:34:37.724Z</time></trkpt><trkpt lat="41.5675762" lon="-0.6325886"><ele>169.75</ele><time>2026-05-04T08:34:38.724Z</time></trkpt><trkpt lat="41.5674925" lon="-0.6324598"><ele>169.5</ele><time>2026-05-04T08:34:39.724Z</time></trkpt><trkpt lat="41.5674082" lon="-0.6323273"><ele>169.25</ele><time>2026-05-04T08:34:40.724Z</time></trkpt><trkpt lat="41.5673289" lon="-0.6321945"><ele>169.0</ele><time>2026-05-04T08:34:41.724Z</time></trkpt><trkpt lat="41.5672449" lon="-0.6320654"><ele>169.75</ele><time>2026-05-04T08:34:42.724Z</time></trkpt><trkpt lat="41.5671613" lon="-0.6319371"><ele>170.5</ele><time>2026-05-04T08:34:43.724Z</time></trkpt><trkpt lat="41.5670777" lon="-0.631808"><ele>171.25</ele><time>2026-05-04T08:34:44.724Z</time></trkpt><trkpt lat="41.5669981" lon="-0.6316818"><ele>172.0</ele><time>2026-05-04T08:34:45.724Z</time></trkpt><trkpt lat="41.5669184" lon="-0.6315596"><ele>172.0</ele><time>2026-05-04T08:34:46.724Z</time></trkpt><trkpt lat="41.566834" lon="-0.6314371"><ele>172.0</ele><time>2026-05-04T08:34:47.724Z</time></trkpt><trkpt lat="41.5667547" lon="-0.6313074"><ele>172.0</ele><time>2026-05-04T08:34:48.724Z</time></trkpt><trkpt lat="41.5666732" lon="-0.6311794"><ele>172.0</ele><time>2026-05-04T08:34:49.724Z</time></trkpt><trkpt lat="41.5665932" lon="-0.6310524"><ele>172.75</ele><time>2026-05-04T08:34:50.724Z</time></trkpt><trkpt lat="41.5665139" lon="-0.6309224"><ele>173.5</ele><time>2026-05-04T08:34:51.723Z</time></trkpt><trkpt lat="41.5664303" lon="-0.6307926"><ele>174.25</ele><time>2026-05-04T08:34:52.724Z</time></trkpt><trkpt lat="41.5663456" lon="-0.6306681"><ele>175.0</ele><time>2026-05-04T08:34:53.724Z</time></trkpt><trkpt lat="41.5662704" lon="-0.6305351"><ele>174.25</ele><time>2026-05-04T08:34:54.723Z</time></trkpt><trkpt lat="41.5661899" lon="-0.6304067"><ele>173.5</ele><time>2026-05-04T08:34:55.724Z</time></trkpt><trkpt lat="41.5661072" lon="-0.6302811"><ele>172.75</ele><time>2026-05-04T08:34:56.724Z</time></trkpt><trkpt lat="41.5660281" lon="-0.630158"><ele>172.0</ele><time>2026-05-04T08:34:57.724Z</time></trkpt><trkpt lat="41.5659473" lon="-0.6300356"><ele>172.0</ele><time>2026-05-04T08:34:58.724Z</time></trkpt><trkpt lat="41.5658637" lon="-0.6299088"><ele>172.0</ele><time>2026-05-04T08:34:59.724Z</time></trkpt><trkpt lat="41.5657883" lon="-0.6297819"><ele>172.0</ele><time>2026-05-04T08:35:00.724Z</time></trkpt><trkpt lat="41.5657095" lon="-0.6296544"><ele>172.0</ele><time>2026-05-04T08:35:01.724Z</time></trkpt><trkpt lat="41.5656313" lon="-0.629529"><ele>171.75</ele><time>2026-05-04T08:35:02.724Z</time></trkpt><trkpt lat="41.5655566" lon="-0.6293962"><ele>171.5</ele><time>2026-05-04T08:35:03.724Z</time></trkpt><trkpt lat="41.5654754" lon="-0.6292684"><ele>171.25</ele><time>2026-05-04T08:35:04.724Z</time></trkpt><trkpt lat="41.5653975" lon="-0.6291363"><ele>171.0</ele><time>2026-05-04T08:35:05.724Z</time></trkpt><trkpt lat="41.5653165" lon="-0.6290006"><ele>171.0</ele><time>2026-05-04T08:35:06.724Z</time></trkpt><trkpt lat="41.5652383" lon="-0.6288649"><ele>171.0</ele><time>2026-05-04T08:35:07.724Z</time></trkpt><trkpt lat="41.5651625" lon="-0.6287314"><ele>171.0</ele><time>2026-05-04T08:35:08.724Z</time></trkpt><trkpt lat="41.5650864" lon="-0.6285932"><ele>171.0</ele><time>2026-05-04T08:35:09.724Z</time></trkpt><trkpt lat="41.5650102" lon="-0.6284541"><ele>171.0</ele><time>2026-05-04T08:35:10.724Z</time></trkpt><trkpt lat="41.564933" lon="-0.6283167"><ele>171.0</ele><time>2026-05-04T08:35:11.724Z</time></trkpt><trkpt lat="41.5648552" lon="-0.6281741"><ele>171.0</ele><time>2026-05-04T08:35:12.724Z</time></trkpt><trkpt lat="41.5647759" lon="-0.6280317"><ele>171.0</ele><time>2026-05-04T08:35:13.724Z</time></trkpt><trkpt lat="41.5646959" lon="-0.6278836"><ele>171.0</ele><time>2026-05-04T08:35:14.724Z</time></trkpt><trkpt lat="41.564614" lon="-0.6277383"><ele>171.0</ele><time>2026-05-04T08:35:15.724Z</time></trkpt><trkpt lat="41.5645301" lon="-0.6275921"><ele>171.0</ele><time>2026-05-04T08:35:16.724Z</time></trkpt><trkpt lat="41.5644489" lon="-0.6274479"><ele>171.0</ele><time>2026-05-04T08:35:17.724Z</time></trkpt><trkpt lat="41.5643686" lon="-0.6273027"><ele>171.0</ele><time>2026-05-04T08:35:18.724Z</time></trkpt><trkpt lat="41.5642857" lon="-0.6271575"><ele>171.0</ele><time>2026-05-04T08:35:19.723Z</time></trkpt><trkpt lat="41.5642043" lon="-0.6270071"><ele>171.0</ele><time>2026-05-04T08:35:20.724Z</time></trkpt><trkpt lat="41.5641208" lon="-0.6268638"><ele>171.0</ele><time>2026-05-04T08:35:21.724Z</time></trkpt><trkpt lat="41.5640403" lon="-0.6267178"><ele>170.75</ele><time>2026-05-04T08:35:22.724Z</time></trkpt><trkpt lat="41.5639607" lon="-0.6265754"><ele>170.5</ele><time>2026-05-04T08:35:23.723Z</time></trkpt><trkpt lat="41.5638817" lon="-0.6264303"><ele>170.25</ele><time>2026-05-04T08:35:24.723Z</time></trkpt><trkpt lat="41.5638047" lon="-0.6262774"><ele>170.0</ele><time>2026-05-04T08:35:25.724Z</time></trkpt><trkpt lat="41.5637286" lon="-0.6261311"><ele>169.5</ele><time>2026-05-04T08:35:26.724Z</time></trkpt><trkpt lat="41.5636465" lon="-0.6259866"><ele>169.0</ele><time>2026-05-04T08:35:27.724Z</time></trkpt><trkpt lat="41.5635602" lon="-0.6258478"><ele>168.5</ele><time>2026-05-04T08:35:28.724Z</time></trkpt><trkpt lat="41.5634795" lon="-0.6257056"><ele>168.0</ele><time>2026-05-04T08:35:29.724Z</time></trkpt><trkpt lat="41.5634004" lon="-0.6255656"><ele>168.0</ele><time>2026-05-04T08:35:30.724Z</time></trkpt><trkpt lat="41.5633244" lon="-0.6254235"><ele>168.0</ele><time>2026-05-04T08:35:31.724Z</time></trkpt><trkpt lat="41.563247" lon="-0.6252756"><ele>168.0</ele><time>2026-05-04T08:35:32.724Z</time></trkpt><trkpt lat="41.5631699" lon="-0.6251337"><ele>168.0</ele><time>2026-05-04T08:35:33.724Z</time></trkpt><trkpt lat="41.5630858" lon="-0.6249892"><ele>168.75</ele><time>2026-05-04T08:35:34.724Z</time></trkpt><trkpt lat="41.5630038" lon="-0.6248394"><ele>169.5</ele><time>2026-05-04T08:35:35.724Z</time></trkpt><trkpt lat="41.5629183" lon="-0.6246944"><ele>170.25</ele><time>2026-05-04T08:35:36.724Z</time></trkpt><trkpt lat="41.5628414" lon="-0.6245487"><ele>171.0</ele><time>2026-05-04T08:35:37.724Z</time></trkpt><trkpt lat="41.5627601" lon="-0.6244017"><ele>171.25</ele><time>2026-05-04T08:35:38.724Z</time></trkpt><trkpt lat="41.5626841" lon="-0.6242579"><ele>171.5</ele><time>2026-05-04T08:35:39.724Z</time></trkpt><trkpt lat="41.5626138" lon="-0.6241236"><ele>171.75</ele><time>2026-05-04T08:35:40.724Z</time></trkpt><trkpt lat="41.5625421" lon="-0.6239902"><ele>172.0</ele><time>2026-05-04T08:35:41.724Z</time></trkpt><trkpt lat="41.5624658" lon="-0.6238603"><ele>172.0</ele><time>2026-05-04T08:35:42.724Z</time></trkpt><trkpt lat="41.562392" lon="-0.6237194"><ele>172.0</ele><time>2026-05-04T08:35:43.724Z</time></trkpt><trkpt lat="41.5623135" lon="-0.6235796"><ele>172.0</ele><time>2026-05-04T08:35:44.724Z</time></trkpt><trkpt lat="41.5622339" lon="-0.6234403"><ele>172.0</ele><time>2026-05-04T08:35:45.724Z</time></trkpt><trkpt lat="41.5621565" lon="-0.6232964"><ele>172.0</ele><time>2026-05-04T08:35:46.724Z</time></trkpt><trkpt lat="41.5620765" lon="-0.6231523"><ele>172.0</ele><time>2026-05-04T08:35:47.724Z</time></trkpt><trkpt lat="41.5619931" lon="-0.6230119"><ele>172.0</ele><time>2026-05-04T08:35:48.724Z</time></trkpt><trkpt lat="41.5619169" lon="-0.6228663"><ele>172.0</ele><time>2026-05-04T08:35:49.724Z</time></trkpt><trkpt lat="41.5618401" lon="-0.6227168"><ele>171.5</ele><time>2026-05-04T08:35:50.724Z</time></trkpt><trkpt lat="41.5617618" lon="-0.6225701"><ele>171.0</ele><time>2026-05-04T08:35:51.724Z</time></trkpt><trkpt lat="41.5616793" lon="-0.6224307"><ele>170.5</ele><time>2026-05-04T08:35:52.723Z</time></trkpt><trkpt lat="41.5615977" lon="-0.6222938"><ele>170.0</ele><time>2026-05-04T08:35:53.724Z</time></trkpt><trkpt lat="41.5615167" lon="-0.6221492"><ele>170.0</ele><time>2026-05-04T08:35:54.724Z</time></trkpt><trkpt lat="41.5614377" lon="-0.6220039"><ele>170.0</ele><time>2026-05-04T08:35:55.724Z</time></trkpt><trkpt lat="41.5613589" lon="-0.6218611"><ele>170.0</ele><time>2026-05-04T08:35:56.724Z</time></trkpt><trkpt lat="41.5612818" lon="-0.6217153"><ele>170.0</ele><time>2026-05-04T08:35:57.725Z</time></trkpt><trkpt lat="41.5612029" lon="-0.6215672"><ele>170.0</ele><time>2026-05-04T08:35:58.725Z</time></trkpt><trkpt lat="41.5611273" lon="-0.6214191"><ele>170.0</ele><time>2026-05-04T08:35:59.725Z</time></trkpt><trkpt lat="41.5610558" lon="-0.6212709"><ele>170.0</ele><time>2026-05-04T08:36:00.725Z</time></trkpt><trkpt lat="41.5609821" lon="-0.6211175"><ele>170.0</ele><time>2026-05-04T08:36:01.725Z</time></trkpt><trkpt lat="41.5609134" lon="-0.6209562"><ele>170.5</ele><time>2026-05-04T08:36:02.725Z</time></trkpt><trkpt lat="41.5608447" lon="-0.6207928"><ele>171.0</ele><time>2026-05-04T08:36:03.725Z</time></trkpt><trkpt lat="41.5607795" lon="-0.6206292"><ele>171.5</ele><time>2026-05-04T08:36:04.725Z</time></trkpt><trkpt lat="41.5607152" lon="-0.6204676"><ele>172.0</ele><time>2026-05-04T08:36:05.725Z</time></trkpt><trkpt lat="41.5606484" lon="-0.6202986"><ele>172.0</ele><time>2026-05-04T08:36:06.725Z</time></trkpt><trkpt lat="41.5605813" lon="-0.6201292"><ele>172.0</ele><time>2026-05-04T08:36:07.725Z</time></trkpt><trkpt lat="41.5605137" lon="-0.6199582"><ele>172.0</ele><time>2026-05-04T08:36:08.725Z</time></trkpt><trkpt lat="41.5604454" lon="-0.6197877"><ele>172.0</ele><time>2026-05-04T08:36:09.724Z</time></trkpt><trkpt lat="41.5603801" lon="-0.6196165"><ele>171.75</ele><time>2026-05-04T08:36:10.724Z</time></trkpt><trkpt lat="41.5603131" lon="-0.6194501"><ele>171.5</ele><time>2026-05-04T08:36:11.725Z</time></trkpt><trkpt lat="41.5602474" lon="-0.6192849"><ele>171.25</ele><time>2026-05-04T08:36:12.724Z</time></trkpt><trkpt lat="41.5601816" lon="-0.61912"><ele>171.0</ele><time>2026-05-04T08:36:13.724Z</time></trkpt><trkpt lat="41.5601145" lon="-0.6189527"><ele>171.0</ele><time>2026-05-04T08:36:14.725Z</time></trkpt><trkpt lat="41.5600478" lon="-0.6187866"><ele>171.0</ele><time>2026-05-04T08:36:15.725Z</time></trkpt><trkpt lat="41.5599819" lon="-0.6186175"><ele>171.0</ele><time>2026-05-04T08:36:16.725Z</time></trkpt><trkpt lat="41.5599181" lon="-0.618456"><ele>171.0</ele><time>2026-05-04T08:36:17.725Z</time></trkpt><trkpt lat="41.5598552" lon="-0.6182942"><ele>171.75</ele><time>2026-05-04T08:36:18.725Z</time></trkpt><trkpt lat="41.5597919" lon="-0.6181303"><ele>172.5</ele><time>2026-05-04T08:36:19.725Z</time></trkpt><trkpt lat="41.5597234" lon="-0.6179667"><ele>173.25</ele><time>2026-05-04T08:36:20.724Z</time></trkpt><trkpt lat="41.5596608" lon="-0.6178028"><ele>174.0</ele><time>2026-05-04T08:36:21.724Z</time></trkpt><trkpt lat="41.5595947" lon="-0.6176412"><ele>173.25</ele><time>2026-05-04T08:36:22.725Z</time></trkpt><trkpt lat="41.5595318" lon="-0.6174805"><ele>172.5</ele><time>2026-05-04T08:36:23.725Z</time></trkpt><trkpt lat="41.5594679" lon="-0.617323"><ele>171.75</ele><time>2026-05-04T08:36:24.725Z</time></trkpt><trkpt lat="41.5594065" lon="-0.617164"><ele>171.0</ele><time>2026-05-04T08:36:25.725Z</time></trkpt><trkpt lat="41.5593437" lon="-0.6170042"><ele>172.0</ele><time>2026-05-04T08:36:26.725Z</time></trkpt><trkpt lat="41.5592829" lon="-0.6168444"><ele>173.0</ele><time>2026-05-04T08:36:27.725Z</time></trkpt><trkpt lat="41.5592178" lon="-0.6166866"><ele>174.0</ele><time>2026-05-04T08:36:28.725Z</time></trkpt><trkpt lat="41.5591503" lon="-0.6165253"><ele>175.0</ele><time>2026-05-04T08:36:29.725Z</time></trkpt><trkpt lat="41.559086" lon="-0.6163674"><ele>175.0</ele><time>2026-05-04T08:36:30.725Z</time></trkpt><trkpt lat="41.5590205" lon="-0.6162037"><ele>175.0</ele><time>2026-05-04T08:36:31.725Z</time></trkpt><trkpt lat="41.5589491" lon="-0.6160391"><ele>175.0</ele><time>2026-05-04T08:36:32.724Z</time></trkpt><trkpt lat="41.5588793" lon="-0.6158813"><ele>175.0</ele><time>2026-05-04T08:36:33.725Z</time></trkpt><trkpt lat="41.5588099" lon="-0.6157248"><ele>175.0</ele><time>2026-05-04T08:36:34.724Z</time></trkpt><trkpt lat="41.5587391" lon="-0.6155733"><ele>175.0</ele><time>2026-05-04T08:36:35.725Z</time></trkpt><trkpt lat="41.5586657" lon="-0.6154229"><ele>175.0</ele><time>2026-05-04T08:36:36.725Z</time></trkpt><trkpt lat="41.5585847" lon="-0.6152839"><ele>175.0</ele><time>2026-05-04T08:36:37.725Z</time></trkpt><trkpt lat="41.5585019" lon="-0.61514"><ele>173.75</ele><time>2026-05-04T08:36:38.725Z</time></trkpt><trkpt lat="41.5584216" lon="-0.614999"><ele>172.5</ele><time>2026-05-04T08:36:39.724Z</time></trkpt><trkpt lat="41.5583345" lon="-0.6148652"><ele>171.25</ele><time>2026-05-04T08:36:40.725Z</time></trkpt><trkpt lat="41.5582475" lon="-0.6147323"><ele>170.0</ele><time>2026-05-04T08:36:41.725Z</time></trkpt><trkpt lat="41.5581582" lon="-0.6146034"><ele>170.25</ele><time>2026-05-04T08:36:42.725Z</time></trkpt><trkpt lat="41.5580659" lon="-0.614479"><ele>170.5</ele><time>2026-05-04T08:36:43.724Z</time></trkpt><trkpt lat="41.5579764" lon="-0.6143606"><ele>170.75</ele><time>2026-05-04T08:36:44.725Z</time></trkpt><trkpt lat="41.5578886" lon="-0.6142427"><ele>171.0</ele><time>2026-05-04T08:36:45.724Z</time></trkpt><trkpt lat="41.5578001" lon="-0.6141276"><ele>171.0</ele><time>2026-05-04T08:36:46.725Z</time></trkpt><trkpt lat="41.5577122" lon="-0.6140114"><ele>171.0</ele><time>2026-05-04T08:36:47.725Z</time></trkpt><trkpt lat="41.5576268" lon="-0.6138963"><ele>171.0</ele><time>2026-05-04T08:36:48.725Z</time></trkpt><trkpt lat="41.5575434" lon="-0.6137784"><ele>171.0</ele><time>2026-05-04T08:36:49.725Z</time></trkpt><trkpt lat="41.5574563" lon="-0.6136638"><ele>171.5</ele><time>2026-05-04T08:36:50.725Z</time></trkpt><trkpt lat="41.5573677" lon="-0.6135467"><ele>172.0</ele><time>2026-05-04T08:36:51.725Z</time></trkpt><trkpt lat="41.5572783" lon="-0.6134273"><ele>172.5</ele><time>2026-05-04T08:36:52.724Z</time></trkpt><trkpt lat="41.5571902" lon="-0.6133126"><ele>173.0</ele><time>2026-05-04T08:36:53.725Z</time></trkpt><trkpt lat="41.5570958" lon="-0.613197"><ele>173.0</ele><time>2026-05-04T08:36:54.725Z</time></trkpt><trkpt lat="41.5570026" lon="-0.6130789"><ele>173.0</ele><time>2026-05-04T08:36:55.725Z</time></trkpt><trkpt lat="41.5569086" lon="-0.6129567"><ele>173.0</ele><time>2026-05-04T08:36:56.725Z</time></trkpt><trkpt lat="41.5568143" lon="-0.6128294"><ele>173.0</ele><time>2026-05-04T08:36:57.725Z</time></trkpt><trkpt lat="41.5567203" lon="-0.6127087"><ele>173.0</ele><time>2026-05-04T08:36:58.725Z</time></trkpt><trkpt lat="41.5566255" lon="-0.6125828"><ele>173.0</ele><time>2026-05-04T08:36:59.725Z</time></trkpt><trkpt lat="41.55653" lon="-0.6124587"><ele>173.0</ele><time>2026-05-04T08:37:00.725Z</time></trkpt><trkpt lat="41.5564306" lon="-0.6123352"><ele>173.0</ele><time>2026-05-04T08:37:01.725Z</time></trkpt><trkpt lat="41.5563377" lon="-0.6122144"><ele>173.0</ele><time>2026-05-04T08:37:02.725Z</time></trkpt><trkpt lat="41.5562439" lon="-0.6120893"><ele>173.0</ele><time>2026-05-04T08:37:03.725Z</time></trkpt><trkpt lat="41.5561501" lon="-0.6119593"><ele>173.0</ele><time>2026-05-04T08:37:04.724Z</time></trkpt><trkpt lat="41.5560546" lon="-0.6118335"><ele>173.0</ele><time>2026-05-04T08:37:05.725Z</time></trkpt><trkpt lat="41.5559553" lon="-0.6117099"><ele>172.75</ele><time>2026-05-04T08:37:06.725Z</time></trkpt><trkpt lat="41.5558601" lon="-0.611585"><ele>172.5</ele><time>2026-05-04T08:37:07.725Z</time></trkpt><trkpt lat="41.5557687" lon="-0.6114604"><ele>172.25</ele><time>2026-05-04T08:37:08.725Z</time></trkpt><trkpt lat="41.5556708" lon="-0.6113323"><ele>172.0</ele><time>2026-05-04T08:37:09.725Z</time></trkpt><trkpt lat="41.5555769" lon="-0.6112054"><ele>171.75</ele><time>2026-05-04T08:37:10.725Z</time></trkpt><trkpt lat="41.5554822" lon="-0.6110847"><ele>171.5</ele><time>2026-05-04T08:37:11.724Z</time></trkpt><trkpt lat="41.5553885" lon="-0.6109572"><ele>171.25</ele><time>2026-05-04T08:37:12.724Z</time></trkpt><trkpt lat="41.5552961" lon="-0.6108271"><ele>171.0</ele><time>2026-05-04T08:37:13.725Z</time></trkpt><trkpt lat="41.5552021" lon="-0.6106958"><ele>171.0</ele><time>2026-05-04T08:37:14.725Z</time></trkpt><trkpt lat="41.5551081" lon="-0.6105724"><ele>171.0</ele><time>2026-05-04T08:37:15.725Z</time></trkpt><trkpt lat="41.5550109" lon="-0.6104479"><ele>171.0</ele><time>2026-05-04T08:37:16.724Z</time></trkpt><trkpt lat="41.5549146" lon="-0.6103213"><ele>171.0</ele><time>2026-05-04T08:37:17.725Z</time></trkpt><trkpt lat="41.5548185" lon="-0.6101948"><ele>171.25</ele><time>2026-05-04T08:37:18.725Z</time></trkpt><trkpt lat="41.5547234" lon="-0.6100725"><ele>171.5</ele><time>2026-05-04T08:37:19.725Z</time></trkpt><trkpt lat="41.5546285" lon="-0.60995"><ele>171.75</ele><time>2026-05-04T08:37:20.725Z</time></trkpt><trkpt lat="41.5545384" lon="-0.6098233"><ele>172.0</ele><time>2026-05-04T08:37:21.725Z</time></trkpt><trkpt lat="41.5544439" lon="-0.6096987"><ele>172.0</ele><time>2026-05-04T08:37:22.724Z</time></trkpt><trkpt lat="41.5543492" lon="-0.6095806"><ele>172.0</ele><time>2026-05-04T08:37:23.725Z</time></trkpt><trkpt lat="41.5542567" lon="-0.6094551"><ele>172.0</ele><time>2026-05-04T08:37:24.724Z</time></trkpt><trkpt lat="41.5541572" lon="-0.6093287"><ele>172.0</ele><time>2026-05-04T08:37:25.725Z</time></trkpt><trkpt lat="41.5540611" lon="-0.6092024"><ele>171.5</ele><time>2026-05-04T08:37:26.725Z</time></trkpt><trkpt lat="41.5539625" lon="-0.6090738"><ele>171.0</ele><time>2026-05-04T08:37:27.725Z</time></trkpt><trkpt lat="41.5538609" lon="-0.6089482"><ele>170.5</ele><time>2026-05-04T08:37:28.725Z</time></trkpt><trkpt lat="41.5537651" lon="-0.6088227"><ele>170.0</ele><time>2026-05-04T08:37:29.725Z</time></trkpt><trkpt lat="41.5536715" lon="-0.6086899"><ele>170.75</ele><time>2026-05-04T08:37:30.725Z</time></trkpt><trkpt lat="41.553578" lon="-0.608549"><ele>171.5</ele><time>2026-05-04T08:37:31.725Z</time></trkpt><trkpt lat="41.5534809" lon="-0.6084149"><ele>172.25</ele><time>2026-05-04T08:37:32.725Z</time></trkpt><trkpt lat="41.5533838" lon="-0.6082776"><ele>173.0</ele><time>2026-05-04T08:37:33.725Z</time></trkpt><trkpt lat="41.5532889" lon="-0.6081364"><ele>173.0</ele><time>2026-05-04T08:37:34.725Z</time></trkpt><trkpt lat="41.5532012" lon="-0.6079861"><ele>173.0</ele><time>2026-05-04T08:37:35.725Z</time></trkpt><trkpt lat="41.5531122" lon="-0.607836"><ele>173.0</ele><time>2026-05-04T08:37:36.725Z</time></trkpt><trkpt lat="41.553023" lon="-0.6076882"><ele>173.0</ele><time>2026-05-04T08:37:37.725Z</time></trkpt><trkpt lat="41.5529414" lon="-0.6075346"><ele>173.0</ele><time>2026-05-04T08:37:38.725Z</time></trkpt><trkpt lat="41.5528567" lon="-0.6073871"><ele>173.0</ele><time>2026-05-04T08:37:39.724Z</time></trkpt><trkpt lat="41.5527763" lon="-0.6072349"><ele>173.0</ele><time>2026-05-04T08:37:40.724Z</time></trkpt><trkpt lat="41.552699" lon="-0.607079"><ele>173.0</ele><time>2026-05-04T08:37:41.724Z</time></trkpt><trkpt lat="41.5526247" lon="-0.6069265"><ele>174.0</ele><time>2026-05-04T08:37:42.725Z</time></trkpt><trkpt lat="41.5525535" lon="-0.6067693"><ele>175.0</ele><time>2026-05-04T08:37:43.725Z</time></trkpt><trkpt lat="41.5524849" lon="-0.6066156"><ele>176.0</ele><time>2026-05-04T08:37:44.724Z</time></trkpt><trkpt lat="41.5524187" lon="-0.6064595"><ele>177.0</ele><time>2026-05-04T08:37:45.725Z</time></trkpt><trkpt lat="41.5523517" lon="-0.6063051"><ele>177.75</ele><time>2026-05-04T08:37:46.725Z</time></trkpt><trkpt lat="41.5522845" lon="-0.6061523"><ele>178.5</ele><time>2026-05-04T08:37:47.725Z</time></trkpt><trkpt lat="41.5522213" lon="-0.6059975"><ele>179.25</ele><time>2026-05-04T08:37:48.725Z</time></trkpt><trkpt lat="41.5521582" lon="-0.6058409"><ele>180.0</ele><time>2026-05-04T08:37:49.725Z</time></trkpt><trkpt lat="41.552097" lon="-0.6056847"><ele>180.0</ele><time>2026-05-04T08:37:50.725Z</time></trkpt><trkpt lat="41.5520328" lon="-0.6055228"><ele>180.0</ele><time>2026-05-04T08:37:51.725Z</time></trkpt><trkpt lat="41.5519691" lon="-0.6053663"><ele>180.0</ele><time>2026-05-04T08:37:52.724Z</time></trkpt><trkpt lat="41.5519053" lon="-0.6052151"><ele>180.0</ele><time>2026-05-04T08:37:53.725Z</time></trkpt><trkpt lat="41.5518393" lon="-0.6050631"><ele>180.0</ele><time>2026-05-04T08:37:54.725Z</time></trkpt><trkpt lat="41.5517731" lon="-0.6049077"><ele>180.0</ele><time>2026-05-04T08:37:55.725Z</time></trkpt><trkpt lat="41.5517116" lon="-0.6047459"><ele>180.0</ele><time>2026-05-04T08:37:56.725Z</time></trkpt><trkpt lat="41.551652" lon="-0.6045881"><ele>180.0</ele><time>2026-05-04T08:37:57.725Z</time></trkpt><trkpt lat="41.5515909" lon="-0.6044269"><ele>180.0</ele><time>2026-05-04T08:37:58.724Z</time></trkpt><trkpt lat="41.5515301" lon="-0.6042662"><ele>180.0</ele><time>2026-05-04T08:37:59.725Z</time></trkpt><trkpt lat="41.5514747" lon="-0.6041014"><ele>180.0</ele><time>2026-05-04T08:38:00.725Z</time></trkpt><trkpt lat="41.5514152" lon="-0.6039377"><ele>180.0</ele><time>2026-05-04T08:38:01.725Z</time></trkpt><trkpt lat="41.5513602" lon="-0.6037744"><ele>180.5</ele><time>2026-05-04T08:38:02.725Z</time></trkpt><trkpt lat="41.5513038" lon="-0.6036116"><ele>181.0</ele><time>2026-05-04T08:38:03.724Z</time></trkpt><trkpt lat="41.5512452" lon="-0.6034452"><ele>181.5</ele><time>2026-05-04T08:38:04.725Z</time></trkpt><trkpt lat="41.5511885" lon="-0.6032782"><ele>182.0</ele><time>2026-05-04T08:38:05.724Z</time></trkpt><trkpt lat="41.5511371" lon="-0.6031069"><ele>181.5</ele><time>2026-05-04T08:38:06.724Z</time></trkpt><trkpt lat="41.5510813" lon="-0.6029356"><ele>181.0</ele><time>2026-05-04T08:38:07.725Z</time></trkpt><trkpt lat="41.5510251" lon="-0.602766"><ele>180.5</ele><time>2026-05-04T08:38:08.725Z</time></trkpt><trkpt lat="41.5509714" lon="-0.6025987"><ele>180.0</ele><time>2026-05-04T08:38:09.725Z</time></trkpt><trkpt lat="41.5509223" lon="-0.6024279"><ele>180.0</ele><time>2026-05-04T08:38:10.724Z</time></trkpt><trkpt lat="41.550871" lon="-0.6022565"><ele>180.0</ele><time>2026-05-04T08:38:11.724Z</time></trkpt><trkpt lat="41.5508246" lon="-0.6020806"><ele>180.0</ele><time>2026-05-04T08:38:12.725Z</time></trkpt><trkpt lat="41.5507785" lon="-0.6019046"><ele>180.0</ele><time>2026-05-04T08:38:13.725Z</time></trkpt><trkpt lat="41.5507297" lon="-0.6017295"><ele>179.75</ele><time>2026-05-04T08:38:14.725Z</time></trkpt><trkpt lat="41.5506829" lon="-0.6015505"><ele>179.5</ele><time>2026-05-04T08:38:15.724Z</time></trkpt><trkpt lat="41.5506365" lon="-0.6013773"><ele>179.25</ele><time>2026-05-04T08:38:16.725Z</time></trkpt><trkpt lat="41.5505896" lon="-0.6012004"><ele>179.0</ele><time>2026-05-04T08:38:17.725Z</time></trkpt><trkpt lat="41.5505424" lon="-0.6010217"><ele>178.75</ele><time>2026-05-04T08:38:18.725Z</time></trkpt><trkpt lat="41.5504988" lon="-0.6008458"><ele>178.5</ele><time>2026-05-04T08:38:19.725Z</time></trkpt><trkpt lat="41.5504555" lon="-0.6006608"><ele>178.25</ele><time>2026-05-04T08:38:20.724Z</time></trkpt><trkpt lat="41.5504148" lon="-0.6004796"><ele>178.0</ele><time>2026-05-04T08:38:21.725Z</time></trkpt><trkpt lat="41.5503693" lon="-0.6002978"><ele>177.75</ele><time>2026-05-04T08:38:22.725Z</time></trkpt><trkpt lat="41.5503265" lon="-0.6001151"><ele>177.5</ele><time>2026-05-04T08:38:23.725Z</time></trkpt><trkpt lat="41.5502815" lon="-0.5999326"><ele>177.25</ele><time>2026-05-04T08:38:24.725Z</time></trkpt><trkpt lat="41.5502369" lon="-0.59975"><ele>177.0</ele><time>2026-05-04T08:38:25.724Z</time></trkpt><trkpt lat="41.5501975" lon="-0.5995641"><ele>176.75</ele><time>2026-05-04T08:38:26.725Z</time></trkpt><trkpt lat="41.5501549" lon="-0.5993828"><ele>176.5</ele><time>2026-05-04T08:38:27.725Z</time></trkpt><trkpt lat="41.5501118" lon="-0.5992031"><ele>176.25</ele><time>2026-05-04T08:38:28.726Z</time></trkpt><trkpt lat="41.5500717" lon="-0.5990188"><ele>176.0</ele><time>2026-05-04T08:38:29.726Z</time></trkpt><trkpt lat="41.5500281" lon="-0.5988336"><ele>176.5</ele><time>2026-05-04T08:38:30.726Z</time></trkpt><trkpt lat="41.5499818" lon="-0.598655"><ele>177.0</ele><time>2026-05-04T08:38:31.726Z</time></trkpt><trkpt lat="41.5499385" lon="-0.5984775"><ele>177.5</ele><time>2026-05-04T08:38:32.726Z</time></trkpt><trkpt lat="41.5498942" lon="-0.5982987"><ele>178.0</ele><time>2026-05-04T08:38:33.726Z</time></trkpt><trkpt lat="41.549845" lon="-0.5981265"><ele>178.0</ele><time>2026-05-04T08:38:34.725Z</time></trkpt><trkpt lat="41.5497852" lon="-0.5979537"><ele>178.0</ele><time>2026-05-04T08:38:35.726Z</time></trkpt><trkpt lat="41.5497211" lon="-0.5977849"><ele>178.0</ele><time>2026-05-04T08:38:36.726Z</time></trkpt><trkpt lat="41.549664" lon="-0.5976207"><ele>178.0</ele><time>2026-05-04T08:38:37.726Z</time></trkpt><trkpt lat="41.5495994" lon="-0.5974614"><ele>177.75</ele><time>2026-05-04T08:38:38.726Z</time></trkpt><trkpt lat="41.5495293" lon="-0.5973109"><ele>177.5</ele><time>2026-05-04T08:38:39.725Z</time></trkpt><trkpt lat="41.5494597" lon="-0.5971486"><ele>177.25</ele><time>2026-05-04T08:38:40.726Z</time></trkpt><trkpt lat="41.5493838" lon="-0.5969946"><ele>177.0</ele><time>2026-05-04T08:38:41.726Z</time></trkpt><trkpt lat="41.5493088" lon="-0.5968363"><ele>176.75</ele><time>2026-05-04T08:38:42.726Z</time></trkpt><trkpt lat="41.5492312" lon="-0.5966816"><ele>176.5</ele><time>2026-05-04T08:38:43.726Z</time></trkpt><trkpt lat="41.5491581" lon="-0.5965247"><ele>176.25</ele><time>2026-05-04T08:38:44.726Z</time></trkpt><trkpt lat="41.5490857" lon="-0.596368"><ele>176.0</ele><time>2026-05-04T08:38:45.726Z</time></trkpt><trkpt lat="41.5490161" lon="-0.5962105"><ele>175.5</ele><time>2026-05-04T08:38:46.726Z</time></trkpt><trkpt lat="41.5489476" lon="-0.5960498"><ele>175.0</ele><time>2026-05-04T08:38:47.726Z</time></trkpt><trkpt lat="41.548877" lon="-0.5958926"><ele>174.5</ele><time>2026-05-04T08:38:48.725Z</time></trkpt><trkpt lat="41.5488035" lon="-0.5957352"><ele>174.0</ele><time>2026-05-04T08:38:49.725Z</time></trkpt><trkpt lat="41.5487311" lon="-0.5955808"><ele>174.0</ele><time>2026-05-04T08:38:50.726Z</time></trkpt><trkpt lat="41.5486613" lon="-0.5954278"><ele>174.0</ele><time>2026-05-04T08:38:51.726Z</time></trkpt><trkpt lat="41.5485857" lon="-0.5952797"><ele>174.0</ele><time>2026-05-04T08:38:52.726Z</time></trkpt><trkpt lat="41.5485173" lon="-0.5951314"><ele>174.0</ele><time>2026-05-04T08:38:53.726Z</time></trkpt><trkpt lat="41.5484471" lon="-0.5949814"><ele>174.0</ele><time>2026-05-04T08:38:54.725Z</time></trkpt><trkpt lat="41.5483781" lon="-0.5948327"><ele>174.0</ele><time>2026-05-04T08:38:55.726Z</time></trkpt><trkpt lat="41.5483022" lon="-0.5946847"><ele>174.0</ele><time>2026-05-04T08:38:56.726Z</time></trkpt><trkpt lat="41.5482244" lon="-0.5945388"><ele>174.0</ele><time>2026-05-04T08:38:57.726Z</time></trkpt><trkpt lat="41.5481502" lon="-0.5943899"><ele>173.75</ele><time>2026-05-04T08:38:58.725Z</time></trkpt><trkpt lat="41.5480752" lon="-0.5942412"><ele>173.5</ele><time>2026-05-04T08:38:59.726Z</time></trkpt><trkpt lat="41.5479966" lon="-0.5940984"><ele>173.25</ele><time>2026-05-04T08:39:00.725Z</time></trkpt><trkpt lat="41.547914" lon="-0.5939534"><ele>173.0</ele><time>2026-05-04T08:39:01.726Z</time></trkpt><trkpt lat="41.5478341" lon="-0.5938026"><ele>173.0</ele><time>2026-05-04T08:39:02.725Z</time></trkpt><trkpt lat="41.5477505" lon="-0.5936537"><ele>173.0</ele><time>2026-05-04T08:39:03.726Z</time></trkpt><trkpt lat="41.5476706" lon="-0.5935078"><ele>173.0</ele><time>2026-05-04T08:39:04.725Z</time></trkpt><trkpt lat="41.5475917" lon="-0.5933605"><ele>173.0</ele><time>2026-05-04T08:39:05.726Z</time></trkpt><trkpt lat="41.5475114" lon="-0.5932114"><ele>173.0</ele><time>2026-05-04T08:39:06.726Z</time></trkpt><trkpt lat="41.5474279" lon="-0.5930678"><ele>173.0</ele><time>2026-05-04T08:39:07.726Z</time></trkpt><trkpt lat="41.5473466" lon="-0.5929236"><ele>173.0</ele><time>2026-05-04T08:39:08.726Z</time></trkpt><trkpt lat="41.5472672" lon="-0.5927705"><ele>173.0</ele><time>2026-05-04T08:39:09.726Z</time></trkpt><trkpt lat="41.5471883" lon="-0.5926234"><ele>173.0</ele><time>2026-05-04T08:39:10.726Z</time></trkpt><trkpt lat="41.5471055" lon="-0.5924812"><ele>173.0</ele><time>2026-05-04T08:39:11.725Z</time></trkpt><trkpt lat="41.5470208" lon="-0.5923366"><ele>173.0</ele><time>2026-05-04T08:39:12.725Z</time></trkpt><trkpt lat="41.5469408" lon="-0.5921851"><ele>173.0</ele><time>2026-05-04T08:39:13.725Z</time></trkpt><trkpt lat="41.5468641" lon="-0.59204"><ele>172.75</ele><time>2026-05-04T08:39:14.726Z</time></trkpt><trkpt lat="41.546779" lon="-0.591894"><ele>172.5</ele><time>2026-05-04T08:39:15.725Z</time></trkpt><trkpt lat="41.5466961" lon="-0.5917481"><ele>172.25</ele><time>2026-05-04T08:39:16.726Z</time></trkpt><trkpt lat="41.5466144" lon="-0.5915968"><ele>172.0</ele><time>2026-05-04T08:39:17.726Z</time></trkpt><trkpt lat="41.5465345" lon="-0.5914484"><ele>172.0</ele><time>2026-05-04T08:39:18.726Z</time></trkpt><trkpt lat="41.5464539" lon="-0.5913022"><ele>172.0</ele><time>2026-05-04T08:39:19.726Z</time></trkpt><trkpt lat="41.546372" lon="-0.5911539"><ele>172.0</ele><time>2026-05-04T08:39:20.726Z</time></trkpt><trkpt lat="41.5462868" lon="-0.5910061"><ele>172.0</ele><time>2026-05-04T08:39:21.726Z</time></trkpt><trkpt lat="41.546205" lon="-0.5908561"><ele>172.0</ele><time>2026-05-04T08:39:22.726Z</time></trkpt><trkpt lat="41.5461177" lon="-0.5907109"><ele>172.0</ele><time>2026-05-04T08:39:23.726Z</time></trkpt><trkpt lat="41.5460337" lon="-0.590566"><ele>172.0</ele><time>2026-05-04T08:39:24.726Z</time></trkpt><trkpt lat="41.5459529" lon="-0.5904139"><ele>172.0</ele><time>2026-05-04T08:39:25.726Z</time></trkpt><trkpt lat="41.5458673" lon="-0.5902672"><ele>172.0</ele><time>2026-05-04T08:39:26.726Z</time></trkpt><trkpt lat="41.5457809" lon="-0.5901165"><ele>172.0</ele><time>2026-05-04T08:39:27.726Z</time></trkpt><trkpt lat="41.5456938" lon="-0.589974"><ele>172.0</ele><time>2026-05-04T08:39:28.726Z</time></trkpt><trkpt lat="41.5456043" lon="-0.589823"><ele>172.0</ele><time>2026-05-04T08:39:29.726Z</time></trkpt><trkpt lat="41.5455129" lon="-0.5896786"><ele>172.0</ele><time>2026-05-04T08:39:30.726Z</time></trkpt><trkpt lat="41.5454258" lon="-0.5895416"><ele>172.0</ele><time>2026-05-04T08:39:31.726Z</time></trkpt><trkpt lat="41.5453332" lon="-0.5894"><ele>172.0</ele><time>2026-05-04T08:39:32.726Z</time></trkpt><trkpt lat="41.5452413" lon="-0.5892617"><ele>172.0</ele><time>2026-05-04T08:39:33.726Z</time></trkpt><trkpt lat="41.5451473" lon="-0.5891263"><ele>171.75</ele><time>2026-05-04T08:39:34.726Z</time></trkpt><trkpt lat="41.545051" lon="-0.5889921"><ele>171.5</ele><time>2026-05-04T08:39:35.726Z</time></trkpt><trkpt lat="41.544954" lon="-0.5888568"><ele>171.25</ele><time>2026-05-04T08:39:36.726Z</time></trkpt><trkpt lat="41.5448659" lon="-0.5887166"><ele>171.0</ele><time>2026-05-04T08:39:37.725Z</time></trkpt><trkpt lat="41.5447695" lon="-0.5885808"><ele>171.0</ele><time>2026-05-04T08:39:38.725Z</time></trkpt><trkpt lat="41.5446687" lon="-0.5884494"><ele>171.0</ele><time>2026-05-04T08:39:39.726Z</time></trkpt><trkpt lat="41.5445695" lon="-0.5883189"><ele>171.0</ele><time>2026-05-04T08:39:40.726Z</time></trkpt><trkpt lat="41.5444683" lon="-0.588188"><ele>171.0</ele><time>2026-05-04T08:39:41.726Z</time></trkpt><trkpt lat="41.544363" lon="-0.5880586"><ele>171.0</ele><time>2026-05-04T08:39:42.726Z</time></trkpt><trkpt lat="41.54426" lon="-0.5879277"><ele>171.0</ele><time>2026-05-04T08:39:43.726Z</time></trkpt><trkpt lat="41.5441572" lon="-0.5877949"><ele>171.0</ele><time>2026-05-04T08:39:44.726Z</time></trkpt><trkpt lat="41.5440504" lon="-0.5876618"><ele>171.0</ele><time>2026-05-04T08:39:45.726Z</time></trkpt><trkpt lat="41.5439479" lon="-0.5875331"><ele>171.25</ele><time>2026-05-04T08:39:46.726Z</time></trkpt><trkpt lat="41.543848" lon="-0.5874051"><ele>171.5</ele><time>2026-05-04T08:39:47.726Z</time></trkpt><trkpt lat="41.5437421" lon="-0.5872805"><ele>171.75</ele><time>2026-05-04T08:39:48.726Z</time></trkpt><trkpt lat="41.5436353" lon="-0.5871589"><ele>172.0</ele><time>2026-05-04T08:39:49.726Z</time></trkpt><trkpt lat="41.543525" lon="-0.5870344"><ele>171.75</ele><time>2026-05-04T08:39:50.726Z</time></trkpt><trkpt lat="41.5434189" lon="-0.5869045"><ele>171.5</ele><time>2026-05-04T08:39:51.726Z</time></trkpt><trkpt lat="41.5433103" lon="-0.5867827"><ele>171.25</ele><time>2026-05-04T08:39:52.726Z</time></trkpt><trkpt lat="41.5432025" lon="-0.5866605"><ele>171.0</ele><time>2026-05-04T08:39:53.726Z</time></trkpt><trkpt lat="41.5430986" lon="-0.5865438"><ele>171.0</ele><time>2026-05-04T08:39:54.726Z</time></trkpt><trkpt lat="41.5429915" lon="-0.5864224"><ele>171.0</ele><time>2026-05-04T08:39:55.726Z</time></trkpt><trkpt lat="41.5428845" lon="-0.5863023"><ele>171.0</ele><time>2026-05-04T08:39:56.726Z</time></trkpt><trkpt lat="41.5427772" lon="-0.5861825"><ele>171.0</ele><time>2026-05-04T08:39:57.726Z</time></trkpt><trkpt lat="41.5426706" lon="-0.5860629"><ele>171.5</ele><time>2026-05-04T08:39:58.726Z</time></trkpt><trkpt lat="41.5425617" lon="-0.5859493"><ele>172.0</ele><time>2026-05-04T08:39:59.726Z</time></trkpt><trkpt lat="41.542453" lon="-0.5858305"><ele>172.5</ele><time>2026-05-04T08:40:00.726Z</time></trkpt><trkpt lat="41.5423464" lon="-0.5857048"><ele>173.0</ele><time>2026-05-04T08:40:01.726Z</time></trkpt><trkpt lat="41.5422398" lon="-0.5855852"><ele>173.0</ele><time>2026-05-04T08:40:02.726Z</time></trkpt><trkpt lat="41.5421331" lon="-0.58547"><ele>173.0</ele><time>2026-05-04T08:40:03.725Z</time></trkpt><trkpt lat="41.5420244" lon="-0.5853557"><ele>173.0</ele><time>2026-05-04T08:40:04.726Z</time></trkpt><trkpt lat="41.5419141" lon="-0.5852402"><ele>173.0</ele><time>2026-05-04T08:40:05.726Z</time></trkpt><trkpt lat="41.5418083" lon="-0.5851256"><ele>173.0</ele><time>2026-05-04T08:40:06.726Z</time></trkpt><trkpt lat="41.5417023" lon="-0.5850064"><ele>173.0</ele><time>2026-05-04T08:40:07.726Z</time></trkpt><trkpt lat="41.5415926" lon="-0.5848812"><ele>173.0</ele><time>2026-05-04T08:40:08.726Z</time></trkpt><trkpt lat="41.5414888" lon="-0.58476"><ele>173.0</ele><time>2026-05-04T08:40:09.726Z</time></trkpt><trkpt lat="41.5413843" lon="-0.584647"><ele>173.0</ele><time>2026-05-04T08:40:10.726Z</time></trkpt><trkpt lat="41.5412783" lon="-0.5845351"><ele>173.0</ele><time>2026-05-04T08:40:11.726Z</time></trkpt><trkpt lat="41.5411686" lon="-0.5844234"><ele>173.0</ele><time>2026-05-04T08:40:12.726Z</time></trkpt><trkpt lat="41.5410659" lon="-0.5843066"><ele>173.0</ele><time>2026-05-04T08:40:13.726Z</time></trkpt><trkpt lat="41.5409572" lon="-0.5841873"><ele>172.5</ele><time>2026-05-04T08:40:14.726Z</time></trkpt><trkpt lat="41.5408492" lon="-0.5840731"><ele>172.0</ele><time>2026-05-04T08:40:15.726Z</time></trkpt><trkpt lat="41.5407437" lon="-0.5839572"><ele>171.5</ele><time>2026-05-04T08:40:16.726Z</time></trkpt><trkpt lat="41.5406412" lon="-0.58384"><ele>171.0</ele><time>2026-05-04T08:40:17.726Z</time></trkpt><trkpt lat="41.5405343" lon="-0.5837234"><ele>171.25</ele><time>2026-05-04T08:40:18.726Z</time></trkpt><trkpt lat="41.5404266" lon="-0.583609"><ele>171.5</ele><time>2026-05-04T08:40:19.726Z</time></trkpt><trkpt lat="41.5403207" lon="-0.5834961"><ele>171.75</ele><time>2026-05-04T08:40:20.725Z</time></trkpt><trkpt lat="41.5402143" lon="-0.5833806"><ele>172.0</ele><time>2026-05-04T08:40:21.725Z</time></trkpt><trkpt lat="41.540108" lon="-0.5832632"><ele>172.0</ele><time>2026-05-04T08:40:22.726Z</time></trkpt><trkpt lat="41.539997" lon="-0.5831536"><ele>172.0</ele><time>2026-05-04T08:40:23.726Z</time></trkpt><trkpt lat="41.5398909" lon="-0.5830359"><ele>172.0</ele><time>2026-05-04T08:40:24.726Z</time></trkpt><trkpt lat="41.5397806" lon="-0.5829218"><ele>172.0</ele><time>2026-05-04T08:40:25.726Z</time></trkpt><trkpt lat="41.5396775" lon="-0.5828055"><ele>172.5</ele><time>2026-05-04T08:40:26.726Z</time></trkpt><trkpt lat="41.5395745" lon="-0.582692"><ele>173.0</ele><time>2026-05-04T08:40:27.726Z</time></trkpt><trkpt lat="41.5394664" lon="-0.5825751"><ele>173.5</ele><time>2026-05-04T08:40:28.726Z</time></trkpt><trkpt lat="41.5393581" lon="-0.5824564"><ele>174.0</ele><time>2026-05-04T08:40:29.726Z</time></trkpt><trkpt lat="41.5392516" lon="-0.5823367"><ele>174.0</ele><time>2026-05-04T08:40:30.725Z</time></trkpt><trkpt lat="41.5391421" lon="-0.5822143"><ele>174.0</ele><time>2026-05-04T08:40:31.725Z</time></trkpt><trkpt lat="41.5390313" lon="-0.5820969"><ele>174.0</ele><time>2026-05-04T08:40:32.726Z</time></trkpt><trkpt lat="41.5389224" lon="-0.5819762"><ele>174.0</ele><time>2026-05-04T08:40:33.726Z</time></trkpt><trkpt lat="41.5388109" lon="-0.5818529"><ele>173.75</ele><time>2026-05-04T08:40:34.726Z</time></trkpt><trkpt lat="41.5386988" lon="-0.5817288"><ele>173.5</ele><time>2026-05-04T08:40:35.726Z</time></trkpt><trkpt lat="41.5385914" lon="-0.5816077"><ele>173.25</ele><time>2026-05-04T08:40:36.726Z</time></trkpt><trkpt lat="41.5384797" lon="-0.5814867"><ele>173.0</ele><time>2026-05-04T08:40:37.726Z</time></trkpt><trkpt lat="41.5383687" lon="-0.5813699"><ele>173.0</ele><time>2026-05-04T08:40:38.726Z</time></trkpt><trkpt lat="41.53826" lon="-0.5812543"><ele>173.0</ele><time>2026-05-04T08:40:39.726Z</time></trkpt><trkpt lat="41.5381522" lon="-0.5811351"><ele>173.0</ele><time>2026-05-04T08:40:40.726Z</time></trkpt><trkpt lat="41.5380481" lon="-0.5810132"><ele>173.0</ele><time>2026-05-04T08:40:41.725Z</time></trkpt><trkpt lat="41.5379414" lon="-0.5808865"><ele>172.75</ele><time>2026-05-04T08:40:42.726Z</time></trkpt><trkpt lat="41.537835" lon="-0.58076"><ele>172.5</ele><time>2026-05-04T08:40:43.726Z</time></trkpt><trkpt lat="41.5377264" lon="-0.5806405"><ele>172.25</ele><time>2026-05-04T08:40:44.726Z</time></trkpt><trkpt lat="41.5376165" lon="-0.5805289"><ele>172.0</ele><time>2026-05-04T08:40:45.726Z</time></trkpt><trkpt lat="41.5375045" lon="-0.5804189"><ele>172.75</ele><time>2026-05-04T08:40:46.726Z</time></trkpt><trkpt lat="41.53739" lon="-0.5803081"><ele>173.5</ele><time>2026-05-04T08:40:47.725Z</time></trkpt><trkpt lat="41.5372782" lon="-0.5801989"><ele>174.25</ele><time>2026-05-04T08:40:48.726Z</time></trkpt><trkpt lat="41.5371675" lon="-0.5800839"><ele>175.0</ele><time>2026-05-04T08:40:49.726Z</time></trkpt><trkpt lat="41.5370557" lon="-0.5799653"><ele>174.5</ele><time>2026-05-04T08:40:50.726Z</time></trkpt><trkpt lat="41.5369445" lon="-0.5798446"><ele>174.0</ele><time>2026-05-04T08:40:51.726Z</time></trkpt><trkpt lat="41.536835" lon="-0.5797262"><ele>173.5</ele><time>2026-05-04T08:40:52.726Z</time></trkpt><trkpt lat="41.5367267" lon="-0.5796116"><ele>173.0</ele><time>2026-05-04T08:40:53.726Z</time></trkpt><trkpt lat="41.5366168" lon="-0.579498"><ele>173.0</ele><time>2026-05-04T08:40:54.726Z</time></trkpt><trkpt lat="41.5365056" lon="-0.5793757"><ele>173.0</ele><time>2026-05-04T08:40:55.727Z</time></trkpt><trkpt lat="41.5363983" lon="-0.5792504"><ele>173.0</ele><time>2026-05-04T08:40:56.726Z</time></trkpt><trkpt lat="41.5362963" lon="-0.5791251"><ele>173.0</ele><time>2026-05-04T08:40:57.727Z</time></trkpt><trkpt lat="41.5361901" lon="-0.5789937"><ele>173.0</ele><time>2026-05-04T08:40:58.727Z</time></trkpt><trkpt lat="41.5360944" lon="-0.5788536"><ele>173.0</ele><time>2026-05-04T08:40:59.727Z</time></trkpt><trkpt lat="41.5360059" lon="-0.5787106"><ele>173.0</ele><time>2026-05-04T08:41:00.726Z</time></trkpt><trkpt lat="41.5359279" lon="-0.5785655"><ele>173.0</ele><time>2026-05-04T08:41:01.726Z</time></trkpt><trkpt lat="41.5358463" lon="-0.5784144"><ele>173.25</ele><time>2026-05-04T08:41:02.726Z</time></trkpt><trkpt lat="41.5357681" lon="-0.5782645"><ele>173.5</ele><time>2026-05-04T08:41:03.727Z</time></trkpt><trkpt lat="41.5356923" lon="-0.5781105"><ele>173.75</ele><time>2026-05-04T08:41:04.727Z</time></trkpt><trkpt lat="41.5356253" lon="-0.5779631"><ele>174.0</ele><time>2026-05-04T08:41:05.727Z</time></trkpt><trkpt lat="41.5355635" lon="-0.5778119"><ele>174.0</ele><time>2026-05-04T08:41:06.727Z</time></trkpt><trkpt lat="41.5355041" lon="-0.577663"><ele>174.0</ele><time>2026-05-04T08:41:07.727Z</time></trkpt><trkpt lat="41.5354425" lon="-0.5775141"><ele>174.0</ele><time>2026-05-04T08:41:08.727Z</time></trkpt><trkpt lat="41.5353869" lon="-0.5773659"><ele>174.0</ele><time>2026-05-04T08:41:09.727Z</time></trkpt><trkpt lat="41.5353334" lon="-0.5772091"><ele>174.0</ele><time>2026-05-04T08:41:10.727Z</time></trkpt><trkpt lat="41.5352775" lon="-0.5770581"><ele>174.0</ele><time>2026-05-04T08:41:11.727Z</time></trkpt><trkpt lat="41.5352236" lon="-0.5768968"><ele>174.0</ele><time>2026-05-04T08:41:12.727Z</time></trkpt><trkpt lat="41.5351747" lon="-0.5767493"><ele>174.0</ele><time>2026-05-04T08:41:13.726Z</time></trkpt><trkpt lat="41.5351262" lon="-0.5765938"><ele>174.0</ele><time>2026-05-04T08:41:14.727Z</time></trkpt><trkpt lat="41.5350743" lon="-0.5764374"><ele>174.0</ele><time>2026-05-04T08:41:15.727Z</time></trkpt><trkpt lat="41.5350245" lon="-0.5762798"><ele>174.0</ele><time>2026-05-04T08:41:16.727Z</time></trkpt><trkpt lat="41.5349704" lon="-0.576117"><ele>174.0</ele><time>2026-05-04T08:41:17.727Z</time></trkpt><trkpt lat="41.5349176" lon="-0.5759569"><ele>174.25</ele><time>2026-05-04T08:41:18.727Z</time></trkpt><trkpt lat="41.5348615" lon="-0.5757991"><ele>174.5</ele><time>2026-05-04T08:41:19.727Z</time></trkpt><trkpt lat="41.5348111" lon="-0.5756374"><ele>174.75</ele><time>2026-05-04T08:41:20.727Z</time></trkpt><trkpt lat="41.5347518" lon="-0.5754755"><ele>175.0</ele><time>2026-05-04T08:41:21.727Z</time></trkpt><trkpt lat="41.5346963" lon="-0.5753141"><ele>175.0</ele><time>2026-05-04T08:41:22.727Z</time></trkpt><trkpt lat="41.5346385" lon="-0.5751519"><ele>175.0</ele><time>2026-05-04T08:41:23.727Z</time></trkpt><trkpt lat="41.5345823" lon="-0.5749945"><ele>175.0</ele><time>2026-05-04T08:41:24.727Z</time></trkpt><trkpt lat="41.5345291" lon="-0.5748309"><ele>175.0</ele><time>2026-05-04T08:41:25.727Z</time></trkpt><trkpt lat="41.534472" lon="-0.5746785"><ele>175.25</ele><time>2026-05-04T08:41:26.727Z</time></trkpt><trkpt lat="41.5344178" lon="-0.5745114"><ele>175.5</ele><time>2026-05-04T08:41:27.727Z</time></trkpt><trkpt lat="41.5343626" lon="-0.5743562"><ele>175.75</ele><time>2026-05-04T08:41:28.727Z</time></trkpt><trkpt lat="41.5343081" lon="-0.5741982"><ele>176.0</ele><time>2026-05-04T08:41:29.727Z</time></trkpt><trkpt lat="41.5342537" lon="-0.5740401"><ele>176.0</ele><time>2026-05-04T08:41:30.726Z</time></trkpt><trkpt lat="41.5341993" lon="-0.5738785"><ele>176.0</ele><time>2026-05-04T08:41:31.727Z</time></trkpt><trkpt lat="41.5341433" lon="-0.5737158"><ele>176.0</ele><time>2026-05-04T08:41:32.727Z</time></trkpt><trkpt lat="41.5340879" lon="-0.5735549"><ele>176.0</ele><time>2026-05-04T08:41:33.727Z</time></trkpt><trkpt lat="41.5340283" lon="-0.5733938"><ele>176.0</ele><time>2026-05-04T08:41:34.726Z</time></trkpt><trkpt lat="41.533971" lon="-0.5732354"><ele>176.0</ele><time>2026-05-04T08:41:35.727Z</time></trkpt><trkpt lat="41.5339136" lon="-0.5730672"><ele>176.0</ele><time>2026-05-04T08:41:36.727Z</time></trkpt><trkpt lat="41.5338558" lon="-0.5729058"><ele>176.0</ele><time>2026-05-04T08:41:37.727Z</time></trkpt><trkpt lat="41.5338036" lon="-0.5727438"><ele>176.0</ele><time>2026-05-04T08:41:38.727Z</time></trkpt><trkpt lat="41.5337523" lon="-0.5725865"><ele>176.0</ele><time>2026-05-04T08:41:39.727Z</time></trkpt><trkpt lat="41.5337002" lon="-0.5724252"><ele>176.0</ele><time>2026-05-04T08:41:40.727Z</time></trkpt><trkpt lat="41.5336456" lon="-0.5722702"><ele>176.0</ele><time>2026-05-04T08:41:41.727Z</time></trkpt><trkpt lat="41.5335919" lon="-0.5721186"><ele>176.5</ele><time>2026-05-04T08:41:42.726Z</time></trkpt><trkpt lat="41.5335358" lon="-0.5719644"><ele>177.0</ele><time>2026-05-04T08:41:43.726Z</time></trkpt><trkpt lat="41.5334855" lon="-0.5718107"><ele>177.5</ele><time>2026-05-04T08:41:44.726Z</time></trkpt><trkpt lat="41.5334294" lon="-0.571659"><ele>178.0</ele><time>2026-05-04T08:41:45.727Z</time></trkpt><trkpt lat="41.5333756" lon="-0.5715067"><ele>178.0</ele><time>2026-05-04T08:41:46.727Z</time></trkpt><trkpt lat="41.5333229" lon="-0.5713617"><ele>178.0</ele><time>2026-05-04T08:41:47.727Z</time></trkpt><trkpt lat="41.53327" lon="-0.5712137"><ele>178.0</ele><time>2026-05-04T08:41:48.726Z</time></trkpt><trkpt lat="41.5332137" lon="-0.5710628"><ele>178.0</ele><time>2026-05-04T08:41:49.727Z</time></trkpt><trkpt lat="41.5331565" lon="-0.5709133"><ele>177.75</ele><time>2026-05-04T08:41:50.727Z</time></trkpt><trkpt lat="41.5331047" lon="-0.5707646"><ele>177.5</ele><time>2026-05-04T08:41:51.727Z</time></trkpt><trkpt lat="41.5330555" lon="-0.5706106"><ele>177.25</ele><time>2026-05-04T08:41:52.727Z</time></trkpt><trkpt lat="41.5330011" lon="-0.5704557"><ele>177.0</ele><time>2026-05-04T08:41:53.727Z</time></trkpt><trkpt lat="41.5329482" lon="-0.5702987"><ele>177.0</ele><time>2026-05-04T08:41:54.726Z</time></trkpt><trkpt lat="41.5328945" lon="-0.5701419"><ele>177.0</ele><time>2026-05-04T08:41:55.727Z</time></trkpt><trkpt lat="41.5328393" lon="-0.5699894"><ele>177.0</ele><time>2026-05-04T08:41:56.727Z</time></trkpt><trkpt lat="41.5327853" lon="-0.5698332"><ele>177.0</ele><time>2026-05-04T08:41:57.727Z</time></trkpt><trkpt lat="41.5327303" lon="-0.5696724"><ele>177.0</ele><time>2026-05-04T08:41:58.727Z</time></trkpt><trkpt lat="41.5326735" lon="-0.5695108"><ele>177.0</ele><time>2026-05-04T08:41:59.727Z</time></trkpt><trkpt lat="41.5326193" lon="-0.5693509"><ele>177.0</ele><time>2026-05-04T08:42:00.726Z</time></trkpt><trkpt lat="41.5325649" lon="-0.5691884"><ele>177.0</ele><time>2026-05-04T08:42:01.727Z</time></trkpt><trkpt lat="41.53251" lon="-0.5690227"><ele>177.0</ele><time>2026-05-04T08:42:02.726Z</time></trkpt><trkpt lat="41.5324492" lon="-0.568853"><ele>177.0</ele><time>2026-05-04T08:42:03.727Z</time></trkpt><trkpt lat="41.5323899" lon="-0.5686872"><ele>177.0</ele><time>2026-05-04T08:42:04.727Z</time></trkpt><trkpt lat="41.5323337" lon="-0.5685182"><ele>177.0</ele><time>2026-05-04T08:42:05.727Z</time></trkpt><trkpt lat="41.5322746" lon="-0.5683479"><ele>177.0</ele><time>2026-05-04T08:42:06.727Z</time></trkpt><trkpt lat="41.5322165" lon="-0.568177"><ele>177.0</ele><time>2026-05-04T08:42:07.726Z</time></trkpt><trkpt lat="41.5321601" lon="-0.5680077"><ele>177.0</ele><time>2026-05-04T08:42:08.727Z</time></trkpt><trkpt lat="41.5321065" lon="-0.5678389"><ele>177.0</ele><time>2026-05-04T08:42:09.727Z</time></trkpt><trkpt lat="41.5320479" lon="-0.5676719"><ele>177.0</ele><time>2026-05-04T08:42:10.727Z</time></trkpt><trkpt lat="41.5319936" lon="-0.5675063"><ele>177.0</ele><time>2026-05-04T08:42:11.727Z</time></trkpt><trkpt lat="41.5319352" lon="-0.5673387"><ele>177.0</ele><time>2026-05-04T08:42:12.727Z</time></trkpt><trkpt lat="41.5318791" lon="-0.5671715"><ele>177.0</ele><time>2026-05-04T08:42:13.727Z</time></trkpt><trkpt lat="41.5318237" lon="-0.5670069"><ele>177.5</ele><time>2026-05-04T08:42:14.727Z</time></trkpt><trkpt lat="41.5317654" lon="-0.5668416"><ele>178.0</ele><time>2026-05-04T08:42:15.727Z</time></trkpt><trkpt lat="41.5317042" lon="-0.5666775"><ele>178.5</ele><time>2026-05-04T08:42:16.726Z</time></trkpt><trkpt lat="41.5316457" lon="-0.5665058"><ele>179.0</ele><time>2026-05-04T08:42:17.727Z</time></trkpt><trkpt lat="41.5315867" lon="-0.5663314"><ele>179.25</ele><time>2026-05-04T08:42:18.727Z</time></trkpt><trkpt lat="41.53153" lon="-0.5661619"><ele>179.5</ele><time>2026-05-04T08:42:19.727Z</time></trkpt><trkpt lat="41.5314716" lon="-0.5659905"><ele>179.75</ele><time>2026-05-04T08:42:20.727Z</time></trkpt><trkpt lat="41.5314099" lon="-0.5658195"><ele>180.0</ele><time>2026-05-04T08:42:21.727Z</time></trkpt><trkpt lat="41.5313528" lon="-0.5656446"><ele>180.0</ele><time>2026-05-04T08:42:22.727Z</time></trkpt><trkpt lat="41.531298" lon="-0.5654734"><ele>180.0</ele><time>2026-05-04T08:42:23.727Z</time></trkpt><trkpt lat="41.5312464" lon="-0.5653041"><ele>180.0</ele><time>2026-05-04T08:42:24.727Z</time></trkpt><trkpt lat="41.5311946" lon="-0.5651284"><ele>180.0</ele><time>2026-05-04T08:42:25.727Z</time></trkpt><trkpt lat="41.5311406" lon="-0.5649498"><ele>179.5</ele><time>2026-05-04T08:42:26.727Z</time></trkpt><trkpt lat="41.5310937" lon="-0.564777"><ele>179.0</ele><time>2026-05-04T08:42:27.727Z</time></trkpt><trkpt lat="41.5310408" lon="-0.5645975"><ele>178.5</ele><time>2026-05-04T08:42:28.727Z</time></trkpt><trkpt lat="41.5309893" lon="-0.5644177"><ele>178.0</ele><time>2026-05-04T08:42:29.727Z</time></trkpt><trkpt lat="41.5309348" lon="-0.5642391"><ele>178.0</ele><time>2026-05-04T08:42:30.726Z</time></trkpt><trkpt lat="41.5308851" lon="-0.5640567"><ele>178.0</ele><time>2026-05-04T08:42:31.726Z</time></trkpt><trkpt lat="41.5308329" lon="-0.5638714"><ele>178.0</ele><time>2026-05-04T08:42:32.727Z</time></trkpt><trkpt lat="41.5307834" lon="-0.5636949"><ele>178.0</ele><time>2026-05-04T08:42:33.726Z</time></trkpt><trkpt lat="41.5307329" lon="-0.5635122"><ele>177.75</ele><time>2026-05-04T08:42:34.726Z</time></trkpt><trkpt lat="41.5306821" lon="-0.5633346"><ele>177.5</ele><time>2026-05-04T08:42:35.727Z</time></trkpt><trkpt lat="41.5306328" lon="-0.5631496"><ele>177.25</ele><time>2026-05-04T08:42:36.726Z</time></trkpt><trkpt lat="41.5305804" lon="-0.5629634"><ele>177.0</ele><time>2026-05-04T08:42:37.727Z</time></trkpt><trkpt lat="41.5305297" lon="-0.5627816"><ele>177.0</ele><time>2026-05-04T08:42:38.727Z</time></trkpt><trkpt lat="41.5304776" lon="-0.5625989"><ele>177.0</ele><time>2026-05-04T08:42:39.727Z</time></trkpt><trkpt lat="41.5304287" lon="-0.562415"><ele>177.0</ele><time>2026-05-04T08:42:40.727Z</time></trkpt><trkpt lat="41.5303842" lon="-0.56223"><ele>177.0</ele><time>2026-05-04T08:42:41.727Z</time></trkpt><trkpt lat="41.5303347" lon="-0.5620479"><ele>177.0</ele><time>2026-05-04T08:42:42.727Z</time></trkpt><trkpt lat="41.5302799" lon="-0.5618645"><ele>177.0</ele><time>2026-05-04T08:42:43.727Z</time></trkpt><trkpt lat="41.5302293" lon="-0.5616791"><ele>177.0</ele><time>2026-05-04T08:42:44.726Z</time></trkpt><trkpt lat="41.5301784" lon="-0.5615013"><ele>177.0</ele><time>2026-05-04T08:42:45.727Z</time></trkpt><trkpt lat="41.5301284" lon="-0.5613203"><ele>177.0</ele><time>2026-05-04T08:42:46.727Z</time></trkpt><trkpt lat="41.5300776" lon="-0.5611313"><ele>177.0</ele><time>2026-05-04T08:42:47.727Z</time></trkpt><trkpt lat="41.5300271" lon="-0.5609388"><ele>177.0</ele><time>2026-05-04T08:42:48.726Z</time></trkpt><trkpt lat="41.5299701" lon="-0.5607515"><ele>177.0</ele><time>2026-05-04T08:42:49.726Z</time></trkpt><trkpt lat="41.5299233" lon="-0.5605691"><ele>177.0</ele><time>2026-05-04T08:42:50.727Z</time></trkpt><trkpt lat="41.5298694" lon="-0.560379"><ele>177.0</ele><time>2026-05-04T08:42:51.727Z</time></trkpt><trkpt lat="41.5298155" lon="-0.5601903"><ele>177.0</ele><time>2026-05-04T08:42:52.727Z</time></trkpt><trkpt lat="41.5297614" lon="-0.5600029"><ele>177.0</ele><time>2026-05-04T08:42:53.727Z</time></trkpt><trkpt lat="41.5297102" lon="-0.5598195"><ele>177.0</ele><time>2026-05-04T08:42:54.727Z</time></trkpt><trkpt lat="41.5296638" lon="-0.5596342"><ele>177.0</ele><time>2026-05-04T08:42:55.727Z</time></trkpt><trkpt lat="41.5296106" lon="-0.5594516"><ele>177.0</ele><time>2026-05-04T08:42:56.727Z</time></trkpt><trkpt lat="41.5295626" lon="-0.5592631"><ele>176.33333333333334</ele><time>2026-05-04T08:42:57.727Z</time></trkpt><trkpt lat="41.5295163" lon="-0.5590729"><ele>175.66666666666669</ele><time>2026-05-04T08:42:58.727Z</time></trkpt><trkpt lat="41.5294652" lon="-0.5588774"><ele>175.0</ele><time>2026-05-04T08:42:59.727Z</time></trkpt><trkpt lat="41.5294155" lon="-0.5586921"><ele>175.0</ele><time>2026-05-04T08:43:00.727Z</time></trkpt><trkpt lat="41.5293696" lon="-0.5584937"><ele>175.0</ele><time>2026-05-04T08:43:01.727Z</time></trkpt><trkpt lat="41.529324" lon="-0.5583058"><ele>175.0</ele><time>2026-05-04T08:43:02.726Z</time></trkpt><trkpt lat="41.5292767" lon="-0.5581205"><ele>175.0</ele><time>2026-05-04T08:43:03.727Z</time></trkpt><trkpt lat="41.5292341" lon="-0.5579275"><ele>175.0</ele><time>2026-05-04T08:43:04.727Z</time></trkpt><trkpt lat="41.5291903" lon="-0.5577384"><ele>175.0</ele><time>2026-05-04T08:43:05.727Z</time></trkpt><trkpt lat="41.529143" lon="-0.5575481"><ele>175.0</ele><time>2026-05-04T08:43:06.727Z</time></trkpt><trkpt lat="41.5291011" lon="-0.5573608"><ele>175.0</ele><time>2026-05-04T08:43:07.727Z</time></trkpt><trkpt lat="41.5290567" lon="-0.5571717"><ele>175.0</ele><time>2026-05-04T08:43:08.727Z</time></trkpt><trkpt lat="41.5290064" lon="-0.5569812"><ele>175.0</ele><time>2026-05-04T08:43:09.727Z</time></trkpt><trkpt lat="41.5289599" lon="-0.5567929"><ele>175.0</ele><time>2026-05-04T08:43:10.727Z</time></trkpt><trkpt lat="41.5289174" lon="-0.5566005"><ele>175.0</ele><time>2026-05-04T08:43:11.727Z</time></trkpt><trkpt lat="41.5288744" lon="-0.5564102"><ele>175.0</ele><time>2026-05-04T08:43:12.727Z</time></trkpt><trkpt lat="41.5288271" lon="-0.5562181"><ele>175.0</ele><time>2026-05-04T08:43:13.727Z</time></trkpt><trkpt lat="41.5287793" lon="-0.5560285"><ele>175.25</ele><time>2026-05-04T08:43:14.727Z</time></trkpt><trkpt lat="41.5287317" lon="-0.5558343"><ele>175.5</ele><time>2026-05-04T08:43:15.727Z</time></trkpt><trkpt lat="41.5286862" lon="-0.5556463"><ele>175.75</ele><time>2026-05-04T08:43:16.727Z</time></trkpt><trkpt lat="41.5286382" lon="-0.5554607"><ele>176.0</ele><time>2026-05-04T08:43:17.727Z</time></trkpt><trkpt lat="41.5285879" lon="-0.5552696"><ele>175.33333333333331</ele><time>2026-05-04T08:43:18.727Z</time></trkpt><trkpt lat="41.52854" lon="-0.5550723"><ele>174.66666666666666</ele><time>2026-05-04T08:43:19.727Z</time></trkpt><trkpt lat="41.5284924" lon="-0.5548755"><ele>174.0</ele><time>2026-05-04T08:43:20.728Z</time></trkpt><trkpt lat="41.5284433" lon="-0.5546748"><ele>173.66666666666666</ele><time>2026-05-04T08:43:21.727Z</time></trkpt><trkpt lat="41.5283965" lon="-0.5544745"><ele>173.33333333333331</ele><time>2026-05-04T08:43:22.727Z</time></trkpt><trkpt lat="41.5283499" lon="-0.5542799"><ele>173.0</ele><time>2026-05-04T08:43:23.727Z</time></trkpt><trkpt lat="41.5283019" lon="-0.5540896"><ele>173.0</ele><time>2026-05-04T08:43:24.727Z</time></trkpt><trkpt lat="41.5282525" lon="-0.553896"><ele>173.0</ele><time>2026-05-04T08:43:25.728Z</time></trkpt><trkpt lat="41.5282077" lon="-0.553697"><ele>173.0</ele><time>2026-05-04T08:43:26.728Z</time></trkpt><trkpt lat="41.5281615" lon="-0.5535036"><ele>173.0</ele><time>2026-05-04T08:43:27.728Z</time></trkpt><trkpt lat="41.5281183" lon="-0.5533131"><ele>173.0</ele><time>2026-05-04T08:43:28.728Z</time></trkpt><trkpt lat="41.528072" lon="-0.5531129"><ele>173.0</ele><time>2026-05-04T08:43:29.728Z</time></trkpt><trkpt lat="41.5280233" lon="-0.5529161"><ele>173.33333333333331</ele><time>2026-05-04T08:43:30.728Z</time></trkpt><trkpt lat="41.5279751" lon="-0.5527238"><ele>173.66666666666666</ele><time>2026-05-04T08:43:31.728Z</time></trkpt><trkpt lat="41.5279279" lon="-0.5525287"><ele>174.0</ele><time>2026-05-04T08:43:32.728Z</time></trkpt><trkpt lat="41.5278811" lon="-0.5523364"><ele>173.75</ele><time>2026-05-04T08:43:33.728Z</time></trkpt><trkpt lat="41.5278348" lon="-0.5521442"><ele>173.5</ele><time>2026-05-04T08:43:34.728Z</time></trkpt><trkpt lat="41.5277911" lon="-0.5519536"><ele>173.25</ele><time>2026-05-04T08:43:35.728Z</time></trkpt><trkpt lat="41.5277425" lon="-0.5517658"><ele>173.0</ele><time>2026-05-04T08:43:36.728Z</time></trkpt><trkpt lat="41.5276925" lon="-0.5515764"><ele>173.0</ele><time>2026-05-04T08:43:37.727Z</time></trkpt><trkpt lat="41.5276431" lon="-0.5513845"><ele>173.0</ele><time>2026-05-04T08:43:38.728Z</time></trkpt><trkpt lat="41.5275975" lon="-0.5512016"><ele>173.0</ele><time>2026-05-04T08:43:39.728Z</time></trkpt><trkpt lat="41.5275508" lon="-0.5510057"><ele>173.0</ele><time>2026-05-04T08:43:40.728Z</time></trkpt><trkpt lat="41.5275028" lon="-0.5508148"><ele>173.0</ele><time>2026-05-04T08:43:41.728Z</time></trkpt><trkpt lat="41.5274571" lon="-0.5506282"><ele>173.0</ele><time>2026-05-04T08:43:42.728Z</time></trkpt><trkpt lat="41.5274158" lon="-0.550445"><ele>173.0</ele><time>2026-05-04T08:43:43.728Z</time></trkpt><trkpt lat="41.5273676" lon="-0.5502573"><ele>173.0</ele><time>2026-05-04T08:43:44.727Z</time></trkpt><trkpt lat="41.527321" lon="-0.5500679"><ele>173.0</ele><time>2026-05-04T08:43:45.728Z</time></trkpt><trkpt lat="41.5272734" lon="-0.5498764"><ele>173.0</ele><time>2026-05-04T08:43:46.727Z</time></trkpt><trkpt lat="41.5272253" lon="-0.549683"><ele>173.0</ele><time>2026-05-04T08:43:47.728Z</time></trkpt><trkpt lat="41.5271735" lon="-0.5494893"><ele>173.0</ele><time>2026-05-04T08:43:48.755Z</time></trkpt><trkpt lat="41.5271294" lon="-0.549297"><ele>173.0</ele><time>2026-05-04T08:43:49.728Z</time></trkpt><trkpt lat="41.527083" lon="-0.5491088"><ele>172.0</ele><time>2026-05-04T08:43:50.728Z</time></trkpt><trkpt lat="41.5270427" lon="-0.5489224"><ele>171.0</ele><time>2026-05-04T08:43:51.728Z</time></trkpt><trkpt lat="41.5269963" lon="-0.5487412"><ele>170.0</ele><time>2026-05-04T08:43:52.728Z</time></trkpt><trkpt lat="41.5269502" lon="-0.5485556"><ele>169.0</ele><time>2026-05-04T08:43:53.728Z</time></trkpt><trkpt lat="41.5269104" lon="-0.5483752"><ele>169.0</ele><time>2026-05-04T08:43:54.728Z</time></trkpt><trkpt lat="41.5268715" lon="-0.5481916"><ele>169.0</ele><time>2026-05-04T08:43:55.728Z</time></trkpt><trkpt lat="41.526829" lon="-0.5480054"><ele>169.0</ele><time>2026-05-04T08:43:56.728Z</time></trkpt><trkpt lat="41.5267827" lon="-0.5478186"><ele>169.0</ele><time>2026-05-04T08:43:57.728Z</time></trkpt><trkpt lat="41.5267385" lon="-0.547636"><ele>169.5</ele><time>2026-05-04T08:43:58.728Z</time></trkpt><trkpt lat="41.5266957" lon="-0.5474532"><ele>170.0</ele><time>2026-05-04T08:43:59.728Z</time></trkpt><trkpt lat="41.5266528" lon="-0.5472676"><ele>170.5</ele><time>2026-05-04T08:44:00.728Z</time></trkpt><trkpt lat="41.5266101" lon="-0.5470811"><ele>171.0</ele><time>2026-05-04T08:44:01.727Z</time></trkpt><trkpt lat="41.5265648" lon="-0.5468928"><ele>171.25</ele><time>2026-05-04T08:44:02.728Z</time></trkpt><trkpt lat="41.5265199" lon="-0.546704"><ele>171.5</ele><time>2026-05-04T08:44:03.727Z</time></trkpt><trkpt lat="41.5264779" lon="-0.5465204"><ele>171.75</ele><time>2026-05-04T08:44:04.728Z</time></trkpt><trkpt lat="41.5264354" lon="-0.5463387"><ele>172.0</ele><time>2026-05-04T08:44:05.728Z</time></trkpt><trkpt lat="41.5263883" lon="-0.546154"><ele>172.25</ele><time>2026-05-04T08:44:06.728Z</time></trkpt><trkpt lat="41.5263451" lon="-0.5459692"><ele>172.5</ele><time>2026-05-04T08:44:07.728Z</time></trkpt><trkpt lat="41.5263016" lon="-0.54579"><ele>172.75</ele><time>2026-05-04T08:44:08.728Z</time></trkpt><trkpt lat="41.5262595" lon="-0.5456067"><ele>173.0</ele><time>2026-05-04T08:44:09.728Z</time></trkpt><trkpt lat="41.5262152" lon="-0.5454259"><ele>173.0</ele><time>2026-05-04T08:44:10.728Z</time></trkpt><trkpt lat="41.5261703" lon="-0.5452476"><ele>173.0</ele><time>2026-05-04T08:44:11.728Z</time></trkpt><trkpt lat="41.526122" lon="-0.5450674"><ele>173.0</ele><time>2026-05-04T08:44:12.728Z</time></trkpt><trkpt lat="41.5260769" lon="-0.5448901"><ele>173.0</ele><time>2026-05-04T08:44:13.728Z</time></trkpt><trkpt lat="41.5260321" lon="-0.5447069"><ele>173.5</ele><time>2026-05-04T08:44:14.728Z</time></trkpt><trkpt lat="41.5259851" lon="-0.5445258"><ele>174.0</ele><time>2026-05-04T08:44:15.728Z</time></trkpt><trkpt lat="41.5259375" lon="-0.5443384"><ele>174.5</ele><time>2026-05-04T08:44:16.728Z</time></trkpt><trkpt lat="41.525894" lon="-0.5441521"><ele>175.0</ele><time>2026-05-04T08:44:17.728Z</time></trkpt><trkpt lat="41.5258509" lon="-0.543962"><ele>175.0</ele><time>2026-05-04T08:44:18.728Z</time></trkpt><trkpt lat="41.5258069" lon="-0.5437749"><ele>175.0</ele><time>2026-05-04T08:44:19.727Z</time></trkpt><trkpt lat="41.5257624" lon="-0.5435892"><ele>175.0</ele><time>2026-05-04T08:44:20.728Z</time></trkpt><trkpt lat="41.5257152" lon="-0.5434014"><ele>175.0</ele><time>2026-05-04T08:44:21.728Z</time></trkpt><trkpt lat="41.5256713" lon="-0.543211"><ele>174.75</ele><time>2026-05-04T08:44:22.728Z</time></trkpt><trkpt lat="41.5256257" lon="-0.5430232"><ele>174.5</ele><time>2026-05-04T08:44:23.727Z</time></trkpt><trkpt lat="41.5255801" lon="-0.5428344"><ele>174.25</ele><time>2026-05-04T08:44:24.728Z</time></trkpt><trkpt lat="41.5255348" lon="-0.5426404"><ele>174.0</ele><time>2026-05-04T08:44:25.728Z</time></trkpt><trkpt lat="41.5254864" lon="-0.5424552"><ele>174.0</ele><time>2026-05-04T08:44:26.728Z</time></trkpt><trkpt lat="41.5254402" lon="-0.5422691"><ele>174.0</ele><time>2026-05-04T08:44:27.727Z</time></trkpt><trkpt lat="41.5253957" lon="-0.5420763"><ele>174.0</ele><time>2026-05-04T08:44:28.728Z</time></trkpt><trkpt lat="41.5253492" lon="-0.5418846"><ele>174.0</ele><time>2026-05-04T08:44:29.728Z</time></trkpt><trkpt lat="41.5253046" lon="-0.5416976"><ele>173.5</ele><time>2026-05-04T08:44:30.728Z</time></trkpt><trkpt lat="41.5252562" lon="-0.5415087"><ele>173.0</ele><time>2026-05-04T08:44:31.728Z</time></trkpt><trkpt lat="41.5252123" lon="-0.5413193"><ele>172.5</ele><time>2026-05-04T08:44:32.728Z</time></trkpt><trkpt lat="41.5251718" lon="-0.5411378"><ele>172.0</ele><time>2026-05-04T08:44:33.728Z</time></trkpt><trkpt lat="41.5251225" lon="-0.5409539"><ele>171.75</ele><time>2026-05-04T08:44:34.728Z</time></trkpt><trkpt lat="41.5250797" lon="-0.5407675"><ele>171.5</ele><time>2026-05-04T08:44:35.727Z</time></trkpt><trkpt lat="41.5250319" lon="-0.5405742"><ele>171.25</ele><time>2026-05-04T08:44:36.727Z</time></trkpt><trkpt lat="41.524985" lon="-0.5403882"><ele>171.0</ele><time>2026-05-04T08:44:37.727Z</time></trkpt><trkpt lat="41.5249398" lon="-0.5402004"><ele>171.0</ele><time>2026-05-04T08:44:38.728Z</time></trkpt><trkpt lat="41.524899" lon="-0.540006"><ele>171.0</ele><time>2026-05-04T08:44:39.728Z</time></trkpt><trkpt lat="41.5248541" lon="-0.5398163"><ele>171.0</ele><time>2026-05-04T08:44:40.727Z</time></trkpt><trkpt lat="41.5248073" lon="-0.5396321"><ele>171.0</ele><time>2026-05-04T08:44:41.728Z</time></trkpt><trkpt lat="41.5247627" lon="-0.5394456"><ele>171.25</ele><time>2026-05-04T08:44:42.727Z</time></trkpt><trkpt lat="41.524717" lon="-0.5392587"><ele>171.5</ele><time>2026-05-04T08:44:43.728Z</time></trkpt><trkpt lat="41.524668" lon="-0.539071"><ele>171.75</ele><time>2026-05-04T08:44:44.728Z</time></trkpt><trkpt lat="41.524618" lon="-0.5388821"><ele>172.0</ele><time>2026-05-04T08:44:45.728Z</time></trkpt><trkpt lat="41.5245725" lon="-0.5386912"><ele>171.75</ele><time>2026-05-04T08:44:46.728Z</time></trkpt><trkpt lat="41.5245255" lon="-0.5385004"><ele>171.5</ele><time>2026-05-04T08:44:47.728Z</time></trkpt><trkpt lat="41.5244768" lon="-0.5383111"><ele>171.25</ele><time>2026-05-04T08:44:48.728Z</time></trkpt><trkpt lat="41.5244278" lon="-0.5381247"><ele>171.0</ele><time>2026-05-04T08:44:49.728Z</time></trkpt><trkpt lat="41.5243842" lon="-0.5379353"><ele>171.0</ele><time>2026-05-04T08:44:50.728Z</time></trkpt><trkpt lat="41.5243399" lon="-0.5377461"><ele>171.0</ele><time>2026-05-04T08:44:51.727Z</time></trkpt><trkpt lat="41.5242937" lon="-0.5375645"><ele>171.0</ele><time>2026-05-04T08:44:52.728Z</time></trkpt><trkpt lat="41.5242486" lon="-0.537378"><ele>171.0</ele><time>2026-05-04T08:44:53.728Z</time></trkpt><trkpt lat="41.524202" lon="-0.5371862"><ele>171.0</ele><time>2026-05-04T08:44:54.728Z</time></trkpt><trkpt lat="41.5241561" lon="-0.5369938"><ele>171.0</ele><time>2026-05-04T08:44:55.728Z</time></trkpt><trkpt lat="41.5241087" lon="-0.5368025"><ele>171.0</ele><time>2026-05-04T08:44:56.728Z</time></trkpt><trkpt lat="41.5240647" lon="-0.5366099"><ele>171.0</ele><time>2026-05-04T08:44:57.727Z</time></trkpt><trkpt lat="41.5240214" lon="-0.5364224"><ele>171.0</ele><time>2026-05-04T08:44:58.728Z</time></trkpt><trkpt lat="41.5239717" lon="-0.5362323"><ele>171.0</ele><time>2026-05-04T08:44:59.728Z</time></trkpt><trkpt lat="41.5239261" lon="-0.5360432"><ele>171.0</ele><time>2026-05-04T08:45:00.727Z</time></trkpt><trkpt lat="41.5238801" lon="-0.5358534"><ele>171.0</ele><time>2026-05-04T08:45:01.728Z</time></trkpt><trkpt lat="41.5238323" lon="-0.5356687"><ele>171.0</ele><time>2026-05-04T08:45:02.728Z</time></trkpt><trkpt lat="41.523785" lon="-0.5354868"><ele>171.0</ele><time>2026-05-04T08:45:03.728Z</time></trkpt><trkpt lat="41.5237335" lon="-0.5353051"><ele>171.0</ele><time>2026-05-04T08:45:04.728Z</time></trkpt><trkpt lat="41.5236749" lon="-0.5351224"><ele>171.25</ele><time>2026-05-04T08:45:05.728Z</time></trkpt><trkpt lat="41.5236161" lon="-0.5349437"><ele>171.5</ele><time>2026-05-04T08:45:06.728Z</time></trkpt><trkpt lat="41.5235479" lon="-0.5347681"><ele>171.75</ele><time>2026-05-04T08:45:07.727Z</time></trkpt><trkpt lat="41.5234752" lon="-0.5345964"><ele>172.0</ele><time>2026-05-04T08:45:08.728Z</time></trkpt><trkpt lat="41.5234058" lon="-0.534425"><ele>172.0</ele><time>2026-05-04T08:45:09.727Z</time></trkpt><trkpt lat="41.5233375" lon="-0.534254"><ele>172.0</ele><time>2026-05-04T08:45:10.728Z</time></trkpt><trkpt lat="41.523265" lon="-0.5340805"><ele>172.0</ele><time>2026-05-04T08:45:11.727Z</time></trkpt><trkpt lat="41.5231953" lon="-0.5339108"><ele>172.0</ele><time>2026-05-04T08:45:12.728Z</time></trkpt><trkpt lat="41.5231223" lon="-0.5337432"><ele>172.25</ele><time>2026-05-04T08:45:13.727Z</time></trkpt><trkpt lat="41.523051" lon="-0.5335713"><ele>172.5</ele><time>2026-05-04T08:45:14.728Z</time></trkpt><trkpt lat="41.5229782" lon="-0.5333988"><ele>172.75</ele><time>2026-05-04T08:45:15.728Z</time></trkpt><trkpt lat="41.5229101" lon="-0.5332234"><ele>173.0</ele><time>2026-05-04T08:45:16.728Z</time></trkpt><trkpt lat="41.5228417" lon="-0.5330501"><ele>172.75</ele><time>2026-05-04T08:45:17.728Z</time></trkpt><trkpt lat="41.5227754" lon="-0.5328772"><ele>172.5</ele><time>2026-05-04T08:45:18.728Z</time></trkpt><trkpt lat="41.5227016" lon="-0.5327088"><ele>172.25</ele><time>2026-05-04T08:45:19.728Z</time></trkpt><trkpt lat="41.5226302" lon="-0.532535"><ele>172.0</ele><time>2026-05-04T08:45:20.728Z</time></trkpt><trkpt lat="41.5225607" lon="-0.5323621"><ele>172.0</ele><time>2026-05-04T08:45:21.728Z</time></trkpt><trkpt lat="41.5224887" lon="-0.5321884"><ele>172.0</ele><time>2026-05-04T08:45:22.728Z</time></trkpt><trkpt lat="41.5224168" lon="-0.5320156"><ele>172.0</ele><time>2026-05-04T08:45:23.728Z</time></trkpt><trkpt lat="41.5223485" lon="-0.5318448"><ele>172.0</ele><time>2026-05-04T08:45:24.728Z</time></trkpt><trkpt lat="41.5222761" lon="-0.5316701"><ele>172.25</ele><time>2026-05-04T08:45:25.728Z</time></trkpt><trkpt lat="41.5222022" lon="-0.5314994"><ele>172.5</ele><time>2026-05-04T08:45:26.728Z</time></trkpt><trkpt lat="41.5221321" lon="-0.5313314"><ele>172.75</ele><time>2026-05-04T08:45:27.728Z</time></trkpt><trkpt lat="41.5220674" lon="-0.5311611"><ele>173.0</ele><time>2026-05-04T08:45:28.728Z</time></trkpt><trkpt lat="41.5219996" lon="-0.5309886"><ele>172.75</ele><time>2026-05-04T08:45:29.728Z</time></trkpt><trkpt lat="41.5219279" lon="-0.5308127"><ele>172.5</ele><time>2026-05-04T08:45:30.728Z</time></trkpt><trkpt lat="41.5218535" lon="-0.5306424"><ele>172.25</ele><time>2026-05-04T08:45:31.727Z</time></trkpt><trkpt lat="41.5217816" lon="-0.5304706"><ele>172.0</ele><time>2026-05-04T08:45:32.728Z</time></trkpt><trkpt lat="41.5217138" lon="-0.5303038"><ele>172.0</ele><time>2026-05-04T08:45:33.728Z</time></trkpt><trkpt lat="41.5216461" lon="-0.5301311"><ele>172.0</ele><time>2026-05-04T08:45:34.728Z</time></trkpt><trkpt lat="41.5215756" lon="-0.5299589"><ele>172.0</ele><time>2026-05-04T08:45:35.728Z</time></trkpt><trkpt lat="41.5215036" lon="-0.5297846"><ele>172.0</ele><time>2026-05-04T08:45:36.727Z</time></trkpt><trkpt lat="41.5214275" lon="-0.5296109"><ele>172.0</ele><time>2026-05-04T08:45:37.728Z</time></trkpt><trkpt lat="41.5213531" lon="-0.5294368"><ele>172.0</ele><time>2026-05-04T08:45:38.728Z</time></trkpt><trkpt lat="41.5212804" lon="-0.5292645"><ele>172.0</ele><time>2026-05-04T08:45:39.728Z</time></trkpt><trkpt lat="41.5212122" lon="-0.5290876"><ele>172.0</ele><time>2026-05-04T08:45:40.729Z</time></trkpt><trkpt lat="41.5211399" lon="-0.5289137"><ele>172.0</ele><time>2026-05-04T08:45:41.729Z</time></trkpt><trkpt lat="41.5210671" lon="-0.528744"><ele>172.0</ele><time>2026-05-04T08:45:42.729Z</time></trkpt><trkpt lat="41.5209897" lon="-0.5285698"><ele>172.0</ele><time>2026-05-04T08:45:43.729Z</time></trkpt><trkpt lat="41.5209175" lon="-0.5284015"><ele>172.0</ele><time>2026-05-04T08:45:44.729Z</time></trkpt><trkpt lat="41.5208451" lon="-0.5282279"><ele>172.0</ele><time>2026-05-04T08:45:45.729Z</time></trkpt><trkpt lat="41.5207694" lon="-0.5280529"><ele>172.0</ele><time>2026-05-04T08:45:46.729Z</time></trkpt><trkpt lat="41.520697" lon="-0.52788"><ele>172.0</ele><time>2026-05-04T08:45:47.728Z</time></trkpt><trkpt lat="41.5206258" lon="-0.5277177"><ele>172.0</ele><time>2026-05-04T08:45:48.729Z</time></trkpt><trkpt lat="41.5205579" lon="-0.5275567"><ele>172.25</ele><time>2026-05-04T08:45:49.728Z</time></trkpt><trkpt lat="41.520492" lon="-0.5273932"><ele>172.5</ele><time>2026-05-04T08:45:50.729Z</time></trkpt><trkpt lat="41.5204258" lon="-0.527231"><ele>172.75</ele><time>2026-05-04T08:45:51.729Z</time></trkpt><trkpt lat="41.5203562" lon="-0.5270693"><ele>173.0</ele><time>2026-05-04T08:45:52.729Z</time></trkpt><trkpt lat="41.5202849" lon="-0.5269055"><ele>173.0</ele><time>2026-05-04T08:45:53.729Z</time></trkpt><trkpt lat="41.5202143" lon="-0.5267479"><ele>173.0</ele><time>2026-05-04T08:45:54.729Z</time></trkpt><trkpt lat="41.5201449" lon="-0.5265921"><ele>173.0</ele><time>2026-05-04T08:45:55.729Z</time></trkpt><trkpt lat="41.520076" lon="-0.52643"><ele>173.0</ele><time>2026-05-04T08:45:56.729Z</time></trkpt><trkpt lat="41.5200056" lon="-0.526269"><ele>173.5</ele><time>2026-05-04T08:45:57.729Z</time></trkpt><trkpt lat="41.5199364" lon="-0.5260986"><ele>174.0</ele><time>2026-05-04T08:45:58.729Z</time></trkpt><trkpt lat="41.5198598" lon="-0.5259252"><ele>174.5</ele><time>2026-05-04T08:45:59.729Z</time></trkpt><trkpt lat="41.5197862" lon="-0.5257583"><ele>175.0</ele><time>2026-05-04T08:46:00.729Z</time></trkpt><trkpt lat="41.5197167" lon="-0.5255925"><ele>175.0</ele><time>2026-05-04T08:46:01.729Z</time></trkpt><trkpt lat="41.5196417" lon="-0.5254188"><ele>175.0</ele><time>2026-05-04T08:46:02.728Z</time></trkpt><trkpt lat="41.5195679" lon="-0.5252488"><ele>175.0</ele><time>2026-05-04T08:46:03.729Z</time></trkpt><trkpt lat="41.5194975" lon="-0.5250798"><ele>175.0</ele><time>2026-05-04T08:46:04.729Z</time></trkpt><trkpt lat="41.5194255" lon="-0.5249088"><ele>175.0</ele><time>2026-05-04T08:46:05.729Z</time></trkpt><trkpt lat="41.5193557" lon="-0.5247415"><ele>175.0</ele><time>2026-05-04T08:46:06.729Z</time></trkpt><trkpt lat="41.5192874" lon="-0.5245849"><ele>175.0</ele><time>2026-05-04T08:46:07.729Z</time></trkpt><trkpt lat="41.5192195" lon="-0.5244261"><ele>175.0</ele><time>2026-05-04T08:46:08.729Z</time></trkpt><trkpt lat="41.5191541" lon="-0.5242673"><ele>175.0</ele><time>2026-05-04T08:46:09.729Z</time></trkpt><trkpt lat="41.5190914" lon="-0.5241083"><ele>175.0</ele><time>2026-05-04T08:46:10.729Z</time></trkpt><trkpt lat="41.5190218" lon="-0.5239518"><ele>175.0</ele><time>2026-05-04T08:46:11.729Z</time></trkpt><trkpt lat="41.5189537" lon="-0.5238006"><ele>175.0</ele><time>2026-05-04T08:46:12.729Z</time></trkpt><trkpt lat="41.5188838" lon="-0.5236397"><ele>175.25</ele><time>2026-05-04T08:46:13.729Z</time></trkpt><trkpt lat="41.5188135" lon="-0.5234835"><ele>175.5</ele><time>2026-05-04T08:46:14.729Z</time></trkpt><trkpt lat="41.5187461" lon="-0.5233256"><ele>175.75</ele><time>2026-05-04T08:46:15.728Z</time></trkpt><trkpt lat="41.5186798" lon="-0.5231684"><ele>176.0</ele><time>2026-05-04T08:46:16.729Z</time></trkpt><trkpt lat="41.5186145" lon="-0.5230051"><ele>175.5</ele><time>2026-05-04T08:46:17.729Z</time></trkpt><trkpt lat="41.5185471" lon="-0.52284"><ele>175.0</ele><time>2026-05-04T08:46:18.729Z</time></trkpt><trkpt lat="41.5184762" lon="-0.5226755"><ele>174.5</ele><time>2026-05-04T08:46:19.729Z</time></trkpt><trkpt lat="41.5184079" lon="-0.522511"><ele>174.0</ele><time>2026-05-04T08:46:20.728Z</time></trkpt><trkpt lat="41.5183385" lon="-0.5223515"><ele>174.0</ele><time>2026-05-04T08:46:21.729Z</time></trkpt><trkpt lat="41.5182718" lon="-0.5221931"><ele>174.0</ele><time>2026-05-04T08:46:22.729Z</time></trkpt><trkpt lat="41.5181978" lon="-0.5220371"><ele>174.0</ele><time>2026-05-04T08:46:23.729Z</time></trkpt><trkpt lat="41.5181299" lon="-0.5218747"><ele>174.0</ele><time>2026-05-04T08:46:24.729Z</time></trkpt><trkpt lat="41.518061" lon="-0.5217104"><ele>174.25</ele><time>2026-05-04T08:46:25.728Z</time></trkpt><trkpt lat="41.5179952" lon="-0.5215458"><ele>174.5</ele><time>2026-05-04T08:46:26.729Z</time></trkpt><trkpt lat="41.5179237" lon="-0.5213794"><ele>174.75</ele><time>2026-05-04T08:46:27.729Z</time></trkpt><trkpt lat="41.517854" lon="-0.5212178"><ele>175.0</ele><time>2026-05-04T08:46:28.729Z</time></trkpt><trkpt lat="41.5177812" lon="-0.5210587"><ele>175.0</ele><time>2026-05-04T08:46:29.728Z</time></trkpt><trkpt lat="41.517713" lon="-0.5208957"><ele>175.0</ele><time>2026-05-04T08:46:30.728Z</time></trkpt><trkpt lat="41.5176445" lon="-0.520736"><ele>175.0</ele><time>2026-05-04T08:46:31.729Z</time></trkpt><trkpt lat="41.5175695" lon="-0.5205745"><ele>175.0</ele><time>2026-05-04T08:46:32.728Z</time></trkpt><trkpt lat="41.5174964" lon="-0.5204058"><ele>174.75</ele><time>2026-05-04T08:46:33.729Z</time></trkpt><trkpt lat="41.5174207" lon="-0.5202376"><ele>174.5</ele><time>2026-05-04T08:46:34.729Z</time></trkpt><trkpt lat="41.5173483" lon="-0.5200731"><ele>174.25</ele><time>2026-05-04T08:46:35.728Z</time></trkpt><trkpt lat="41.5172712" lon="-0.5199071"><ele>174.0</ele><time>2026-05-04T08:46:36.729Z</time></trkpt><trkpt lat="41.5171992" lon="-0.5197352"><ele>173.75</ele><time>2026-05-04T08:46:37.728Z</time></trkpt><trkpt lat="41.5171236" lon="-0.5195631"><ele>173.5</ele><time>2026-05-04T08:46:38.729Z</time></trkpt><trkpt lat="41.5170486" lon="-0.5193902"><ele>173.25</ele><time>2026-05-04T08:46:39.729Z</time></trkpt><trkpt lat="41.5169758" lon="-0.5192171"><ele>173.0</ele><time>2026-05-04T08:46:40.728Z</time></trkpt><trkpt lat="41.5168993" lon="-0.5190448"><ele>172.5</ele><time>2026-05-04T08:46:41.728Z</time></trkpt><trkpt lat="41.5168242" lon="-0.5188727"><ele>172.0</ele><time>2026-05-04T08:46:42.728Z</time></trkpt><trkpt lat="41.5167496" lon="-0.5186983"><ele>171.5</ele><time>2026-05-04T08:46:43.729Z</time></trkpt><trkpt lat="41.5166753" lon="-0.518526"><ele>171.0</ele><time>2026-05-04T08:46:44.729Z</time></trkpt><trkpt lat="41.5166012" lon="-0.5183572"><ele>172.66666666666666</ele><time>2026-05-04T08:46:45.728Z</time></trkpt><trkpt lat="41.5165276" lon="-0.5181864"><ele>174.33333333333331</ele><time>2026-05-04T08:46:46.729Z</time></trkpt><trkpt lat="41.5164509" lon="-0.5180117"><ele>176.0</ele><time>2026-05-04T08:46:47.729Z</time></trkpt><trkpt lat="41.5163754" lon="-0.5178343"><ele>176.0</ele><time>2026-05-04T08:46:48.729Z</time></trkpt><trkpt lat="41.5163028" lon="-0.5176621"><ele>176.0</ele><time>2026-05-04T08:46:49.728Z</time></trkpt><trkpt lat="41.5162309" lon="-0.517486"><ele>176.0</ele><time>2026-05-04T08:46:50.729Z</time></trkpt><trkpt lat="41.5161637" lon="-0.5173141"><ele>176.0</ele><time>2026-05-04T08:46:51.729Z</time></trkpt><trkpt lat="41.5161002" lon="-0.5171343"><ele>175.5</ele><time>2026-05-04T08:46:52.729Z</time></trkpt><trkpt lat="41.5160325" lon="-0.5169582"><ele>175.0</ele><time>2026-05-04T08:46:53.729Z</time></trkpt><trkpt lat="41.5159717" lon="-0.5167757"><ele>174.5</ele><time>2026-05-04T08:46:54.728Z</time></trkpt><trkpt lat="41.5159131" lon="-0.5165968"><ele>174.0</ele><time>2026-05-04T08:46:55.729Z</time></trkpt><trkpt lat="41.5158552" lon="-0.5164163"><ele>174.0</ele><time>2026-05-04T08:46:56.729Z</time></trkpt><trkpt lat="41.5157919" lon="-0.5162397"><ele>174.0</ele><time>2026-05-04T08:46:57.729Z</time></trkpt><trkpt lat="41.5157287" lon="-0.5160604"><ele>174.0</ele><time>2026-05-04T08:46:58.729Z</time></trkpt><trkpt lat="41.5156667" lon="-0.5158823"><ele>174.0</ele><time>2026-05-04T08:46:59.728Z</time></trkpt><trkpt lat="41.5156115" lon="-0.5156981"><ele>174.33333333333334</ele><time>2026-05-04T08:47:00.729Z</time></trkpt><trkpt lat="41.5155513" lon="-0.5155158"><ele>174.66666666666669</ele><time>2026-05-04T08:47:01.729Z</time></trkpt><trkpt lat="41.5154864" lon="-0.5153318"><ele>175.0</ele><time>2026-05-04T08:47:02.729Z</time></trkpt><trkpt lat="41.515424" lon="-0.5151525"><ele>175.0</ele><time>2026-05-04T08:47:03.729Z</time></trkpt><trkpt lat="41.5153605" lon="-0.5149707"><ele>175.0</ele><time>2026-05-04T08:47:04.729Z</time></trkpt><trkpt lat="41.5153009" lon="-0.5147895"><ele>175.0</ele><time>2026-05-04T08:47:05.729Z</time></trkpt><trkpt lat="41.5152386" lon="-0.5146095"><ele>175.0</ele><time>2026-05-04T08:47:06.729Z</time></trkpt><trkpt lat="41.5151782" lon="-0.5144282"><ele>175.0</ele><time>2026-05-04T08:47:07.729Z</time></trkpt><trkpt lat="41.5151192" lon="-0.5142453"><ele>175.0</ele><time>2026-05-04T08:47:08.729Z</time></trkpt><trkpt lat="41.5150611" lon="-0.5140603"><ele>175.0</ele><time>2026-05-04T08:47:09.729Z</time></trkpt><trkpt lat="41.5149971" lon="-0.513878"><ele>175.25</ele><time>2026-05-04T08:47:10.729Z</time></trkpt><trkpt lat="41.5149336" lon="-0.513696"><ele>175.5</ele><time>2026-05-04T08:47:11.728Z</time></trkpt><trkpt lat="41.5148767" lon="-0.5135177"><ele>175.75</ele><time>2026-05-04T08:47:12.729Z</time></trkpt><trkpt lat="41.5148177" lon="-0.513337"><ele>176.0</ele><time>2026-05-04T08:47:13.729Z</time></trkpt><trkpt lat="41.5147566" lon="-0.5131573"><ele>176.0</ele><time>2026-05-04T08:47:14.728Z</time></trkpt><trkpt lat="41.5146967" lon="-0.5129783"><ele>176.0</ele><time>2026-05-04T08:47:15.729Z</time></trkpt><trkpt lat="41.5146378" lon="-0.512802"><ele>176.0</ele><time>2026-05-04T08:47:16.729Z</time></trkpt><trkpt lat="41.514573" lon="-0.5126229"><ele>176.0</ele><time>2026-05-04T08:47:17.728Z</time></trkpt><trkpt lat="41.5145096" lon="-0.5124409"><ele>176.0</ele><time>2026-05-04T08:47:18.729Z</time></trkpt><trkpt lat="41.5144463" lon="-0.5122611"><ele>176.0</ele><time>2026-05-04T08:47:19.729Z</time></trkpt><trkpt lat="41.5143826" lon="-0.5120769"><ele>176.0</ele><time>2026-05-04T08:47:20.729Z</time></trkpt><trkpt lat="41.5143193" lon="-0.5118936"><ele>176.0</ele><time>2026-05-04T08:47:21.729Z</time></trkpt><trkpt lat="41.514255" lon="-0.5117138"><ele>176.0</ele><time>2026-05-04T08:47:22.729Z</time></trkpt><trkpt lat="41.5141897" lon="-0.5115436"><ele>176.0</ele><time>2026-05-04T08:47:23.728Z</time></trkpt><trkpt lat="41.5141298" lon="-0.5113646"><ele>176.0</ele><time>2026-05-04T08:47:24.729Z</time></trkpt><trkpt lat="41.5140699" lon="-0.5111807"><ele>175.75</ele><time>2026-05-04T08:47:25.728Z</time></trkpt><trkpt lat="41.5140097" lon="-0.5109995"><ele>175.5</ele><time>2026-05-04T08:47:26.729Z</time></trkpt><trkpt lat="41.5139517" lon="-0.5108218"><ele>175.25</ele><time>2026-05-04T08:47:27.729Z</time></trkpt><trkpt lat="41.5138921" lon="-0.51064"><ele>175.0</ele><time>2026-05-04T08:47:28.729Z</time></trkpt><trkpt lat="41.513828" lon="-0.5104551"><ele>174.25</ele><time>2026-05-04T08:47:29.729Z</time></trkpt><trkpt lat="41.513769" lon="-0.5102755"><ele>173.5</ele><time>2026-05-04T08:47:30.729Z</time></trkpt><trkpt lat="41.5137088" lon="-0.5100932"><ele>172.75</ele><time>2026-05-04T08:47:31.729Z</time></trkpt><trkpt lat="41.5136521" lon="-0.5099153"><ele>172.0</ele><time>2026-05-04T08:47:32.728Z</time></trkpt><trkpt lat="41.5135932" lon="-0.5097371"><ele>172.25</ele><time>2026-05-04T08:47:33.728Z</time></trkpt><trkpt lat="41.5135324" lon="-0.5095662"><ele>172.5</ele><time>2026-05-04T08:47:34.728Z</time></trkpt><trkpt lat="41.513473" lon="-0.5094011"><ele>172.75</ele><time>2026-05-04T08:47:35.729Z</time></trkpt><trkpt lat="41.5134189" lon="-0.5092302"><ele>173.0</ele><time>2026-05-04T08:47:36.729Z</time></trkpt><trkpt lat="41.5133618" lon="-0.5090582"><ele>173.0</ele><time>2026-05-04T08:47:37.729Z</time></trkpt><trkpt lat="41.513305" lon="-0.5088865"><ele>173.0</ele><time>2026-05-04T08:47:38.729Z</time></trkpt><trkpt lat="41.5132465" lon="-0.508707"><ele>173.0</ele><time>2026-05-04T08:47:39.729Z</time></trkpt><trkpt lat="41.513189" lon="-0.5085393"><ele>173.0</ele><time>2026-05-04T08:47:40.729Z</time></trkpt><trkpt lat="41.5131345" lon="-0.5083732"><ele>173.75</ele><time>2026-05-04T08:47:41.729Z</time></trkpt><trkpt lat="41.5130797" lon="-0.5082052"><ele>174.5</ele><time>2026-05-04T08:47:42.729Z</time></trkpt><trkpt lat="41.5130236" lon="-0.5080427"><ele>175.25</ele><time>2026-05-04T08:47:43.729Z</time></trkpt><trkpt lat="41.5129654" lon="-0.5078784"><ele>176.0</ele><time>2026-05-04T08:47:44.729Z</time></trkpt><trkpt lat="41.5129087" lon="-0.5077126"><ele>176.0</ele><time>2026-05-04T08:47:45.729Z</time></trkpt><trkpt lat="41.5128533" lon="-0.5075521"><ele>176.0</ele><time>2026-05-04T08:47:46.729Z</time></trkpt><trkpt lat="41.5127948" lon="-0.5073853"><ele>176.0</ele><time>2026-05-04T08:47:47.729Z</time></trkpt><trkpt lat="41.512741" lon="-0.5072152"><ele>176.0</ele><time>2026-05-04T08:47:48.729Z</time></trkpt><trkpt lat="41.5126815" lon="-0.5070446"><ele>176.25</ele><time>2026-05-04T08:47:49.729Z</time></trkpt><trkpt lat="41.512625" lon="-0.5068796"><ele>176.5</ele><time>2026-05-04T08:47:50.729Z</time></trkpt><trkpt lat="41.5125685" lon="-0.5067175"><ele>176.75</ele><time>2026-05-04T08:47:51.729Z</time></trkpt><trkpt lat="41.5125173" lon="-0.5065578"><ele>177.0</ele><time>2026-05-04T08:47:52.728Z</time></trkpt><trkpt lat="41.5124628" lon="-0.5063985"><ele>177.75</ele><time>2026-05-04T08:47:53.729Z</time></trkpt><trkpt lat="41.5124082" lon="-0.5062371"><ele>178.5</ele><time>2026-05-04T08:47:54.729Z</time></trkpt><trkpt lat="41.5123512" lon="-0.5060704"><ele>179.25</ele><time>2026-05-04T08:47:55.729Z</time></trkpt><trkpt lat="41.512294" lon="-0.5059133"><ele>180.0</ele><time>2026-05-04T08:47:56.729Z</time></trkpt><trkpt lat="41.512238" lon="-0.5057571"><ele>180.0</ele><time>2026-05-04T08:47:57.729Z</time></trkpt><trkpt lat="41.512183" lon="-0.5055998"><ele>180.0</ele><time>2026-05-04T08:47:58.73Z</time></trkpt><trkpt lat="41.5121292" lon="-0.5054424"><ele>180.0</ele><time>2026-05-04T08:47:59.73Z</time></trkpt><trkpt lat="41.5120791" lon="-0.5052859"><ele>180.0</ele><time>2026-05-04T08:48:00.73Z</time></trkpt><trkpt lat="41.5120297" lon="-0.5051309"><ele>180.0</ele><time>2026-05-04T08:48:01.73Z</time></trkpt><trkpt lat="41.5119772" lon="-0.5049748"><ele>180.0</ele><time>2026-05-04T08:48:02.729Z</time></trkpt><trkpt lat="41.51192" lon="-0.5048226"><ele>180.0</ele><time>2026-05-04T08:48:03.73Z</time></trkpt><trkpt lat="41.5118631" lon="-0.504671"><ele>180.0</ele><time>2026-05-04T08:48:04.729Z</time></trkpt><trkpt lat="41.5118137" lon="-0.504518"><ele>180.5</ele><time>2026-05-04T08:48:05.73Z</time></trkpt><trkpt lat="41.5117622" lon="-0.5043611"><ele>181.0</ele><time>2026-05-04T08:48:06.729Z</time></trkpt><trkpt lat="41.5117098" lon="-0.504211"><ele>181.5</ele><time>2026-05-04T08:48:07.73Z</time></trkpt><trkpt lat="41.5116594" lon="-0.5040584"><ele>182.0</ele><time>2026-05-04T08:48:08.73Z</time></trkpt><trkpt lat="41.5116093" lon="-0.5038997"><ele>182.25</ele><time>2026-05-04T08:48:09.73Z</time></trkpt><trkpt lat="41.511565" lon="-0.5037467"><ele>182.5</ele><time>2026-05-04T08:48:10.73Z</time></trkpt><trkpt lat="41.511521" lon="-0.5035878"><ele>182.75</ele><time>2026-05-04T08:48:11.73Z</time></trkpt><trkpt lat="41.5114734" lon="-0.5034298"><ele>183.0</ele><time>2026-05-04T08:48:12.73Z</time></trkpt><trkpt lat="41.5114272" lon="-0.5032645"><ele>183.0</ele><time>2026-05-04T08:48:13.729Z</time></trkpt><trkpt lat="41.5113828" lon="-0.5031031"><ele>183.0</ele><time>2026-05-04T08:48:14.73Z</time></trkpt><trkpt lat="41.5113351" lon="-0.5029419"><ele>183.0</ele><time>2026-05-04T08:48:15.73Z</time></trkpt><trkpt lat="41.511289" lon="-0.5027796"><ele>183.0</ele><time>2026-05-04T08:48:16.73Z</time></trkpt><trkpt lat="41.5112411" lon="-0.5026093"><ele>183.25</ele><time>2026-05-04T08:48:17.73Z</time></trkpt><trkpt lat="41.5111957" lon="-0.5024471"><ele>183.5</ele><time>2026-05-04T08:48:18.73Z</time></trkpt><trkpt lat="41.5111491" lon="-0.5022792"><ele>183.75</ele><time>2026-05-04T08:48:19.73Z</time></trkpt><trkpt lat="41.5111034" lon="-0.5021115"><ele>184.0</ele><time>2026-05-04T08:48:20.73Z</time></trkpt><trkpt lat="41.511058" lon="-0.5019434"><ele>184.0</ele><time>2026-05-04T08:48:21.729Z</time></trkpt><trkpt lat="41.5110131" lon="-0.501774"><ele>184.0</ele><time>2026-05-04T08:48:22.73Z</time></trkpt><trkpt lat="41.5109678" lon="-0.5016089"><ele>184.0</ele><time>2026-05-04T08:48:23.73Z</time></trkpt><trkpt lat="41.5109228" lon="-0.5014484"><ele>184.0</ele><time>2026-05-04T08:48:24.73Z</time></trkpt><trkpt lat="41.5108758" lon="-0.5012855"><ele>185.25</ele><time>2026-05-04T08:48:25.73Z</time></trkpt><trkpt lat="41.5108328" lon="-0.5011234"><ele>186.5</ele><time>2026-05-04T08:48:26.729Z</time></trkpt><trkpt lat="41.5107888" lon="-0.5009664"><ele>187.75</ele><time>2026-05-04T08:48:27.73Z</time></trkpt><trkpt lat="41.5107436" lon="-0.5008079"><ele>189.0</ele><time>2026-05-04T08:48:28.73Z</time></trkpt><trkpt lat="41.5107031" lon="-0.5006547"><ele>189.0</ele><time>2026-05-04T08:48:29.73Z</time></trkpt><trkpt lat="41.5106638" lon="-0.5004967"><ele>189.0</ele><time>2026-05-04T08:48:30.73Z</time></trkpt><trkpt lat="41.5106184" lon="-0.5003415"><ele>189.0</ele><time>2026-05-04T08:48:31.73Z</time></trkpt><trkpt lat="41.5105783" lon="-0.5001891"><ele>189.0</ele><time>2026-05-04T08:48:32.73Z</time></trkpt><trkpt lat="41.5105353" lon="-0.5000344"><ele>190.25</ele><time>2026-05-04T08:48:33.729Z</time></trkpt><trkpt lat="41.510496" lon="-0.4998851"><ele>191.5</ele><time>2026-05-04T08:48:34.729Z</time></trkpt><trkpt lat="41.5104586" lon="-0.4997341"><ele>192.75</ele><time>2026-05-04T08:48:35.73Z</time></trkpt><trkpt lat="41.5104194" lon="-0.4995855"><ele>194.0</ele><time>2026-05-04T08:48:36.73Z</time></trkpt><trkpt lat="41.5103823" lon="-0.4994364"><ele>194.0</ele><time>2026-05-04T08:48:37.73Z</time></trkpt><trkpt lat="41.5103518" lon="-0.4992858"><ele>194.0</ele><time>2026-05-04T08:48:38.729Z</time></trkpt><trkpt lat="41.5103249" lon="-0.4991382"><ele>194.0</ele><time>2026-05-04T08:48:39.73Z</time></trkpt><trkpt lat="41.5102988" lon="-0.4989887"><ele>194.0</ele><time>2026-05-04T08:48:40.729Z</time></trkpt><trkpt lat="41.5102765" lon="-0.4988392"><ele>194.25</ele><time>2026-05-04T08:48:41.73Z</time></trkpt><trkpt lat="41.5102585" lon="-0.4986883"><ele>194.5</ele><time>2026-05-04T08:48:42.729Z</time></trkpt><trkpt lat="41.5102417" lon="-0.4985381"><ele>194.75</ele><time>2026-05-04T08:48:43.73Z</time></trkpt><trkpt lat="41.5102299" lon="-0.4983811"><ele>195.0</ele><time>2026-05-04T08:48:44.73Z</time></trkpt><trkpt lat="41.5102204" lon="-0.4982306"><ele>195.0</ele><time>2026-05-04T08:48:45.729Z</time></trkpt><trkpt lat="41.5102172" lon="-0.498088"><ele>195.0</ele><time>2026-05-04T08:48:46.73Z</time></trkpt><trkpt lat="41.5102153" lon="-0.4979374"><ele>195.0</ele><time>2026-05-04T08:48:47.73Z</time></trkpt><trkpt lat="41.5102177" lon="-0.4977889"><ele>195.0</ele><time>2026-05-04T08:48:48.73Z</time></trkpt><trkpt lat="41.5102181" lon="-0.4976442"><ele>195.0</ele><time>2026-05-04T08:48:49.729Z</time></trkpt><trkpt lat="41.5102265" lon="-0.4975007"><ele>195.0</ele><time>2026-05-04T08:48:50.73Z</time></trkpt><trkpt lat="41.5102308" lon="-0.4973573"><ele>195.0</ele><time>2026-05-04T08:48:51.73Z</time></trkpt><trkpt lat="41.5102349" lon="-0.4972133"><ele>195.0</ele><time>2026-05-04T08:48:52.73Z</time></trkpt><trkpt lat="41.510244" lon="-0.4970687"><ele>195.0</ele><time>2026-05-04T08:48:53.73Z</time></trkpt><trkpt lat="41.5102509" lon="-0.4969255"><ele>195.0</ele><time>2026-05-04T08:48:54.73Z</time></trkpt><trkpt lat="41.5102568" lon="-0.49678"><ele>196.2</ele><time>2026-05-04T08:48:55.73Z</time></trkpt><trkpt lat="41.5102607" lon="-0.4966408"><ele>197.4</ele><time>2026-05-04T08:48:56.73Z</time></trkpt><trkpt lat="41.5102646" lon="-0.496503"><ele>198.60000000000002</ele><time>2026-05-04T08:48:57.73Z</time></trkpt><trkpt lat="41.5102633" lon="-0.4963571"><ele>199.8</ele><time>2026-05-04T08:48:58.729Z</time></trkpt><trkpt lat="41.5102628" lon="-0.4962131"><ele>201.0</ele><time>2026-05-04T08:48:59.729Z</time></trkpt><trkpt lat="41.5102615" lon="-0.49607"><ele>201.60000000000002</ele><time>2026-05-04T08:49:00.73Z</time></trkpt><trkpt lat="41.5102594" lon="-0.495928"><ele>202.2</ele><time>2026-05-04T08:49:01.73Z</time></trkpt><trkpt lat="41.5102581" lon="-0.4957903"><ele>202.8</ele><time>2026-05-04T08:49:02.73Z</time></trkpt><trkpt lat="41.510255" lon="-0.4956493"><ele>203.39999999999998</ele><time>2026-05-04T08:49:03.73Z</time></trkpt><trkpt lat="41.5102511" lon="-0.4955048"><ele>204.0</ele><time>2026-05-04T08:49:04.73Z</time></trkpt><trkpt lat="41.5102454" lon="-0.4953565"><ele>204.0</ele><time>2026-05-04T08:49:05.73Z</time></trkpt><trkpt lat="41.5102407" lon="-0.4952075"><ele>204.0</ele><time>2026-05-04T08:49:06.73Z</time></trkpt><trkpt lat="41.5102336" lon="-0.4950565"><ele>204.0</ele><time>2026-05-04T08:49:07.729Z</time></trkpt><trkpt lat="41.5102268" lon="-0.4949084"><ele>204.0</ele><time>2026-05-04T08:49:08.73Z</time></trkpt><trkpt lat="41.5102202" lon="-0.4947602"><ele>204.0</ele><time>2026-05-04T08:49:09.73Z</time></trkpt><trkpt lat="41.5102156" lon="-0.494603"><ele>204.25</ele><time>2026-05-04T08:49:10.73Z</time></trkpt><trkpt lat="41.5102146" lon="-0.4944356"><ele>204.5</ele><time>2026-05-04T08:49:11.729Z</time></trkpt><trkpt lat="41.5102137" lon="-0.4942698"><ele>204.75</ele><time>2026-05-04T08:49:12.73Z</time></trkpt><trkpt lat="41.5102104" lon="-0.4941036"><ele>205.0</ele><time>2026-05-04T08:49:13.73Z</time></trkpt><trkpt lat="41.5102027" lon="-0.4939307"><ele>205.0</ele><time>2026-05-04T08:49:14.729Z</time></trkpt><trkpt lat="41.5102012" lon="-0.4937621"><ele>205.0</ele><time>2026-05-04T08:49:15.729Z</time></trkpt><trkpt lat="41.5101949" lon="-0.4935808"><ele>205.0</ele><time>2026-05-04T08:49:16.73Z</time></trkpt><trkpt lat="41.5101902" lon="-0.4933973"><ele>205.0</ele><time>2026-05-04T08:49:17.73Z</time></trkpt><trkpt lat="41.5101837" lon="-0.4932178"><ele>205.25</ele><time>2026-05-04T08:49:18.73Z</time></trkpt><trkpt lat="41.5101773" lon="-0.4930437"><ele>205.5</ele><time>2026-05-04T08:49:19.73Z</time></trkpt><trkpt lat="41.5101716" lon="-0.4928663"><ele>205.75</ele><time>2026-05-04T08:49:20.729Z</time></trkpt><trkpt lat="41.5101652" lon="-0.4926855"><ele>206.0</ele><time>2026-05-04T08:49:21.73Z</time></trkpt><trkpt lat="41.5101602" lon="-0.4925072"><ele>206.0</ele><time>2026-05-04T08:49:22.73Z</time></trkpt><trkpt lat="41.5101548" lon="-0.4923276"><ele>206.0</ele><time>2026-05-04T08:49:23.73Z</time></trkpt><trkpt lat="41.5101587" lon="-0.4921434"><ele>206.0</ele><time>2026-05-04T08:49:24.729Z</time></trkpt><trkpt lat="41.5101633" lon="-0.4919633"><ele>206.0</ele><time>2026-05-04T08:49:25.73Z</time></trkpt><trkpt lat="41.5101695" lon="-0.4917783"><ele>205.5</ele><time>2026-05-04T08:49:26.729Z</time></trkpt><trkpt lat="41.5101823" lon="-0.4915939"><ele>205.0</ele><time>2026-05-04T08:49:27.729Z</time></trkpt><trkpt lat="41.5102025" lon="-0.4914178"><ele>204.5</ele><time>2026-05-04T08:49:28.73Z</time></trkpt><trkpt lat="41.5102197" lon="-0.4912379"><ele>204.0</ele><time>2026-05-04T08:49:29.729Z</time></trkpt><trkpt lat="41.510237" lon="-0.4910554"><ele>203.5</ele><time>2026-05-04T08:49:30.73Z</time></trkpt><trkpt lat="41.5102561" lon="-0.4908726"><ele>203.0</ele><time>2026-05-04T08:49:31.729Z</time></trkpt><trkpt lat="41.5102747" lon="-0.4906849"><ele>202.5</ele><time>2026-05-04T08:49:32.73Z</time></trkpt><trkpt lat="41.510301" lon="-0.4904955"><ele>202.0</ele><time>2026-05-04T08:49:33.729Z</time></trkpt><trkpt lat="41.5103272" lon="-0.4903031"><ele>201.75</ele><time>2026-05-04T08:49:34.729Z</time></trkpt><trkpt lat="41.5103469" lon="-0.4901125"><ele>201.5</ele><time>2026-05-04T08:49:35.73Z</time></trkpt><trkpt lat="41.5103662" lon="-0.4899216"><ele>201.25</ele><time>2026-05-04T08:49:36.73Z</time></trkpt><trkpt lat="41.5103873" lon="-0.4897258"><ele>201.0</ele><time>2026-05-04T08:49:37.73Z</time></trkpt><trkpt lat="41.5104098" lon="-0.4895335"><ele>200.0</ele><time>2026-05-04T08:49:38.73Z</time></trkpt><trkpt lat="41.5104296" lon="-0.4893345"><ele>199.0</ele><time>2026-05-04T08:49:39.73Z</time></trkpt><trkpt lat="41.5104523" lon="-0.4891365"><ele>198.0</ele><time>2026-05-04T08:49:40.73Z</time></trkpt><trkpt lat="41.510472" lon="-0.4889363"><ele>198.0</ele><time>2026-05-04T08:49:41.729Z</time></trkpt><trkpt lat="41.5104905" lon="-0.4887474"><ele>198.0</ele><time>2026-05-04T08:49:42.729Z</time></trkpt><trkpt lat="41.5105118" lon="-0.4885674"><ele>198.0</ele><time>2026-05-04T08:49:43.73Z</time></trkpt><trkpt lat="41.5105315" lon="-0.4883908"><ele>198.0</ele><time>2026-05-04T08:49:44.73Z</time></trkpt><trkpt lat="41.5105472" lon="-0.4882075"><ele>198.0</ele><time>2026-05-04T08:49:45.73Z</time></trkpt><trkpt lat="41.5105682" lon="-0.4880313"><ele>198.0</ele><time>2026-05-04T08:49:46.73Z</time></trkpt><trkpt lat="41.5105854" lon="-0.4878588"><ele>198.0</ele><time>2026-05-04T08:49:47.73Z</time></trkpt><trkpt lat="41.5106024" lon="-0.4876864"><ele>198.0</ele><time>2026-05-04T08:49:48.729Z</time></trkpt><trkpt lat="41.5106218" lon="-0.487515"><ele>198.25</ele><time>2026-05-04T08:49:49.729Z</time></trkpt><trkpt lat="41.5106448" lon="-0.4873482"><ele>198.5</ele><time>2026-05-04T08:49:50.73Z</time></trkpt><trkpt lat="41.5106692" lon="-0.48718"><ele>198.75</ele><time>2026-05-04T08:49:51.73Z</time></trkpt><trkpt lat="41.5106876" lon="-0.4870123"><ele>199.0</ele><time>2026-05-04T08:49:52.729Z</time></trkpt><trkpt lat="41.5107065" lon="-0.4868473"><ele>199.0</ele><time>2026-05-04T08:49:53.73Z</time></trkpt><trkpt lat="41.5107243" lon="-0.4866849"><ele>199.0</ele><time>2026-05-04T08:49:54.73Z</time></trkpt><trkpt lat="41.5107432" lon="-0.4865235"><ele>199.0</ele><time>2026-05-04T08:49:55.73Z</time></trkpt><trkpt lat="41.510763" lon="-0.4863594"><ele>199.0</ele><time>2026-05-04T08:49:56.729Z</time></trkpt><trkpt lat="41.5107789" lon="-0.486199"><ele>198.75</ele><time>2026-05-04T08:49:57.73Z</time></trkpt><trkpt lat="41.5107957" lon="-0.4860374"><ele>198.5</ele><time>2026-05-04T08:49:58.73Z</time></trkpt><trkpt lat="41.5108158" lon="-0.485876"><ele>198.25</ele><time>2026-05-04T08:49:59.729Z</time></trkpt><trkpt lat="41.5108338" lon="-0.4857124"><ele>198.0</ele><time>2026-05-04T08:50:00.73Z</time></trkpt><trkpt lat="41.5108495" lon="-0.4855575"><ele>197.5</ele><time>2026-05-04T08:50:01.73Z</time></trkpt><trkpt lat="41.5108706" lon="-0.4853906"><ele>197.0</ele><time>2026-05-04T08:50:02.73Z</time></trkpt><trkpt lat="41.5108934" lon="-0.4852269"><ele>196.5</ele><time>2026-05-04T08:50:03.73Z</time></trkpt><trkpt lat="41.5109154" lon="-0.4850586"><ele>196.0</ele><time>2026-05-04T08:50:04.729Z</time></trkpt><trkpt lat="41.5109389" lon="-0.4848942"><ele>196.0</ele><time>2026-05-04T08:50:05.73Z</time></trkpt><trkpt lat="41.5109625" lon="-0.4847259"><ele>196.0</ele><time>2026-05-04T08:50:06.73Z</time></trkpt><trkpt lat="41.5109786" lon="-0.4845606"><ele>196.0</ele><time>2026-05-04T08:50:07.729Z</time></trkpt><trkpt lat="41.5109997" lon="-0.4843933"><ele>196.0</ele><time>2026-05-04T08:50:08.73Z</time></trkpt><trkpt lat="41.5110204" lon="-0.484225"><ele>196.5</ele><time>2026-05-04T08:50:09.73Z</time></trkpt><trkpt lat="41.51104" lon="-0.4840573"><ele>197.0</ele><time>2026-05-04T08:50:10.73Z</time></trkpt><trkpt lat="41.5110604" lon="-0.4838857"><ele>197.5</ele><time>2026-05-04T08:50:11.73Z</time></trkpt><trkpt lat="41.5110838" lon="-0.4837173"><ele>198.0</ele><time>2026-05-04T08:50:12.729Z</time></trkpt><trkpt lat="41.5111044" lon="-0.4835439"><ele>198.0</ele><time>2026-05-04T08:50:13.73Z</time></trkpt><trkpt lat="41.5111229" lon="-0.4833707"><ele>198.0</ele><time>2026-05-04T08:50:14.73Z</time></trkpt><trkpt lat="41.5111452" lon="-0.4831961"><ele>198.0</ele><time>2026-05-04T08:50:15.73Z</time></trkpt><trkpt lat="41.5111644" lon="-0.4830236"><ele>198.0</ele><time>2026-05-04T08:50:16.729Z</time></trkpt><trkpt lat="41.5111882" lon="-0.4828484"><ele>197.75</ele><time>2026-05-04T08:50:17.73Z</time></trkpt><trkpt lat="41.5112102" lon="-0.4826776"><ele>197.5</ele><time>2026-05-04T08:50:18.731Z</time></trkpt><trkpt lat="41.5112313" lon="-0.4825033"><ele>197.25</ele><time>2026-05-04T08:50:19.731Z</time></trkpt><trkpt lat="41.5112518" lon="-0.4823282"><ele>197.0</ele><time>2026-05-04T08:50:20.73Z</time></trkpt><trkpt lat="41.5112747" lon="-0.4821583"><ele>197.5</ele><time>2026-05-04T08:50:21.73Z</time></trkpt><trkpt lat="41.5112992" lon="-0.4819889"><ele>198.0</ele><time>2026-05-04T08:50:22.731Z</time></trkpt><trkpt lat="41.5113226" lon="-0.4818152"><ele>198.5</ele><time>2026-05-04T08:50:23.731Z</time></trkpt><trkpt lat="41.5113439" lon="-0.4816465"><ele>199.0</ele><time>2026-05-04T08:50:24.731Z</time></trkpt><trkpt lat="41.5113639" lon="-0.4814753"><ele>199.0</ele><time>2026-05-04T08:50:25.731Z</time></trkpt><trkpt lat="41.5113869" lon="-0.4813061"><ele>199.0</ele><time>2026-05-04T08:50:26.731Z</time></trkpt><trkpt lat="41.5114078" lon="-0.4811384"><ele>199.0</ele><time>2026-05-04T08:50:27.731Z</time></trkpt><trkpt lat="41.5114324" lon="-0.4809735"><ele>199.0</ele><time>2026-05-04T08:50:28.73Z</time></trkpt><trkpt lat="41.5114569" lon="-0.4808035"><ele>199.0</ele><time>2026-05-04T08:50:29.731Z</time></trkpt><trkpt lat="41.5114773" lon="-0.4806348"><ele>199.0</ele><time>2026-05-04T08:50:30.731Z</time></trkpt><trkpt lat="41.5114941" lon="-0.4804631"><ele>199.0</ele><time>2026-05-04T08:50:31.731Z</time></trkpt><trkpt lat="41.5115094" lon="-0.4802932"><ele>199.0</ele><time>2026-05-04T08:50:32.731Z</time></trkpt><trkpt lat="41.5115256" lon="-0.4801309"><ele>199.5</ele><time>2026-05-04T08:50:33.731Z</time></trkpt><trkpt lat="41.511544" lon="-0.4799723"><ele>200.0</ele><time>2026-05-04T08:50:34.731Z</time></trkpt><trkpt lat="41.5115651" lon="-0.479809"><ele>200.5</ele><time>2026-05-04T08:50:35.73Z</time></trkpt><trkpt lat="41.511583" lon="-0.4796529"><ele>201.0</ele><time>2026-05-04T08:50:36.731Z</time></trkpt><trkpt lat="41.5116032" lon="-0.4794966"><ele>201.5</ele><time>2026-05-04T08:50:37.731Z</time></trkpt><trkpt lat="41.5116217" lon="-0.4793437"><ele>202.0</ele><time>2026-05-04T08:50:38.731Z</time></trkpt><trkpt lat="41.5116419" lon="-0.4791962"><ele>202.5</ele><time>2026-05-04T08:50:39.731Z</time></trkpt><trkpt lat="41.5116626" lon="-0.4790445"><ele>203.0</ele><time>2026-05-04T08:50:40.731Z</time></trkpt><trkpt lat="41.5116826" lon="-0.4788901"><ele>202.5</ele><time>2026-05-04T08:50:41.731Z</time></trkpt><trkpt lat="41.5116972" lon="-0.4787373"><ele>202.0</ele><time>2026-05-04T08:50:42.731Z</time></trkpt><trkpt lat="41.5117153" lon="-0.4785808"><ele>201.5</ele><time>2026-05-04T08:50:43.731Z</time></trkpt><trkpt lat="41.5117319" lon="-0.4784267"><ele>201.0</ele><time>2026-05-04T08:50:44.731Z</time></trkpt><trkpt lat="41.5117516" lon="-0.4782676"><ele>201.0</ele><time>2026-05-04T08:50:45.731Z</time></trkpt><trkpt lat="41.511769" lon="-0.4781116"><ele>201.0</ele><time>2026-05-04T08:50:46.73Z</time></trkpt><trkpt lat="41.5117842" lon="-0.4779526"><ele>201.0</ele><time>2026-05-04T08:50:47.731Z</time></trkpt><trkpt lat="41.5118024" lon="-0.4777952"><ele>201.0</ele><time>2026-05-04T08:50:48.731Z</time></trkpt><trkpt lat="41.511821" lon="-0.4776494"><ele>201.0</ele><time>2026-05-04T08:50:49.731Z</time></trkpt><trkpt lat="41.5118312" lon="-0.4775112"><ele>201.0</ele><time>2026-05-04T08:50:50.731Z</time></trkpt><trkpt lat="41.5118438" lon="-0.4773797"><ele>201.0</ele><time>2026-05-04T08:50:51.73Z</time></trkpt><trkpt lat="41.5118587" lon="-0.4772581"><ele>201.0</ele><time>2026-05-04T08:50:52.73Z</time></trkpt><trkpt lat="41.5118736" lon="-0.477143"><ele>201.0</ele><time>2026-05-04T08:50:53.731Z</time></trkpt><trkpt lat="41.5118965" lon="-0.4770212"><ele>201.16666666666666</ele><time>2026-05-04T08:50:54.73Z</time></trkpt><trkpt lat="41.5119144" lon="-0.4769036"><ele>201.33333333333331</ele><time>2026-05-04T08:50:55.73Z</time></trkpt><trkpt lat="41.511928" lon="-0.4767913"><ele>201.5</ele><time>2026-05-04T08:50:56.731Z</time></trkpt><trkpt lat="41.511941" lon="-0.4766769"><ele>201.66666666666666</ele><time>2026-05-04T08:50:57.731Z</time></trkpt><trkpt lat="41.5119562" lon="-0.4765619"><ele>201.83333333333331</ele><time>2026-05-04T08:50:58.73Z</time></trkpt><trkpt lat="41.5119702" lon="-0.4764442"><ele>202.0</ele><time>2026-05-04T08:50:59.731Z</time></trkpt><trkpt lat="41.5119841" lon="-0.4763143"><ele>202.2</ele><time>2026-05-04T08:51:00.73Z</time></trkpt><trkpt lat="41.5120024" lon="-0.4761857"><ele>202.39999999999998</ele><time>2026-05-04T08:51:01.731Z</time></trkpt><trkpt lat="41.5120232" lon="-0.4760688"><ele>202.60000000000002</ele><time>2026-05-04T08:51:02.731Z</time></trkpt><trkpt lat="41.5120389" lon="-0.4759456"><ele>202.8</ele><time>2026-05-04T08:51:03.731Z</time></trkpt><trkpt lat="41.5120561" lon="-0.4758178"><ele>203.0</ele><time>2026-05-04T08:51:04.731Z</time></trkpt><trkpt lat="41.5120676" lon="-0.4756961"><ele>203.16666666666669</ele><time>2026-05-04T08:51:05.731Z</time></trkpt><trkpt lat="41.5120809" lon="-0.4755796"><ele>203.33333333333334</ele><time>2026-05-04T08:51:06.731Z</time></trkpt><trkpt lat="41.5120893" lon="-0.4754624"><ele>203.5</ele><time>2026-05-04T08:51:07.73Z</time></trkpt><trkpt lat="41.5120936" lon="-0.4753497"><ele>203.66666666666669</ele><time>2026-05-04T08:51:08.731Z</time></trkpt><trkpt lat="41.5121012" lon="-0.4752635"><ele>203.83333333333334</ele><time>2026-05-04T08:51:09.731Z</time></trkpt><trkpt lat="41.5121476" lon="-0.4753302"><ele>204.0</ele><time>2026-05-04T08:51:36.731Z</time></trkpt><trkpt lat="41.5121468" lon="-0.4754276"><ele>204.2</ele><time>2026-05-04T08:51:37.731Z</time></trkpt><trkpt lat="41.5121298" lon="-0.4755231"><ele>204.39999999999998</ele><time>2026-05-04T08:51:38.731Z</time></trkpt><trkpt lat="41.5121057" lon="-0.4756366"><ele>204.6</ele><time>2026-05-04T08:51:39.731Z</time></trkpt><trkpt lat="41.5120912" lon="-0.4757618"><ele>204.8</ele><time>2026-05-04T08:51:40.731Z</time></trkpt><trkpt lat="41.5120769" lon="-0.4759104"><ele>205.0</ele><time>2026-05-04T08:51:41.731Z</time></trkpt><trkpt lat="41.5120616" lon="-0.4760597"><ele>204.5</ele><time>2026-05-04T08:51:42.731Z</time></trkpt><trkpt lat="41.5120429" lon="-0.4762167"><ele>204.0</ele><time>2026-05-04T08:51:43.731Z</time></trkpt><trkpt lat="41.5120247" lon="-0.4763822"><ele>203.5</ele><time>2026-05-04T08:51:44.73Z</time></trkpt><trkpt lat="41.5120073" lon="-0.4765612"><ele>203.0</ele><time>2026-05-04T08:51:45.73Z</time></trkpt><trkpt lat="41.5119841" lon="-0.4767384"><ele>202.75</ele><time>2026-05-04T08:51:46.731Z</time></trkpt><trkpt lat="41.51196" lon="-0.4769194"><ele>202.5</ele><time>2026-05-04T08:51:47.731Z</time></trkpt><trkpt lat="41.5119355" lon="-0.4771113"><ele>202.25</ele><time>2026-05-04T08:51:48.731Z</time></trkpt><trkpt lat="41.5119177" lon="-0.4773014"><ele>202.0</ele><time>2026-05-04T08:51:49.73Z</time></trkpt><trkpt lat="41.5118971" lon="-0.4774949"><ele>201.66666666666666</ele><time>2026-05-04T08:51:50.731Z</time></trkpt><trkpt lat="41.5118718" lon="-0.4776948"><ele>201.33333333333331</ele><time>2026-05-04T08:51:51.731Z</time></trkpt><trkpt lat="41.5118418" lon="-0.4779021"><ele>201.0</ele><time>2026-05-04T08:51:52.731Z</time></trkpt><trkpt lat="41.5118164" lon="-0.4781064"><ele>201.0</ele><time>2026-05-04T08:51:53.731Z</time></trkpt><trkpt lat="41.5117933" lon="-0.4783158"><ele>201.0</ele><time>2026-05-04T08:51:54.73Z</time></trkpt><trkpt lat="41.5117692" lon="-0.4785318"><ele>201.0</ele><time>2026-05-04T08:51:55.731Z</time></trkpt><trkpt lat="41.5117442" lon="-0.4787421"><ele>201.66666666666669</ele><time>2026-05-04T08:51:56.731Z</time></trkpt><trkpt lat="41.5117187" lon="-0.4789533"><ele>202.33333333333334</ele><time>2026-05-04T08:51:57.731Z</time></trkpt><trkpt lat="41.5116951" lon="-0.4791706"><ele>203.0</ele><time>2026-05-04T08:51:58.731Z</time></trkpt><trkpt lat="41.5116691" lon="-0.4793879"><ele>202.33333333333334</ele><time>2026-05-04T08:51:59.73Z</time></trkpt><trkpt lat="41.511641" lon="-0.4796044"><ele>201.66666666666669</ele><time>2026-05-04T08:52:00.731Z</time></trkpt><trkpt lat="41.5116138" lon="-0.4798166"><ele>201.0</ele><time>2026-05-04T08:52:01.731Z</time></trkpt><trkpt lat="41.5115836" lon="-0.4800318"><ele>201.0</ele><time>2026-05-04T08:52:02.731Z</time></trkpt><trkpt lat="41.5115576" lon="-0.4802492"><ele>201.0</ele><time>2026-05-04T08:52:03.731Z</time></trkpt><trkpt lat="41.5115279" lon="-0.4804666"><ele>201.0</ele><time>2026-05-04T08:52:04.731Z</time></trkpt><trkpt lat="41.5115043" lon="-0.4806835"><ele>200.33333333333331</ele><time>2026-05-04T08:52:05.731Z</time></trkpt><trkpt lat="41.511471" lon="-0.4809161"><ele>199.66666666666666</ele><time>2026-05-04T08:52:06.73Z</time></trkpt><trkpt lat="41.5114451" lon="-0.4811338"><ele>199.0</ele><time>2026-05-04T08:52:07.731Z</time></trkpt><trkpt lat="41.5114217" lon="-0.4813514"><ele>199.0</ele><time>2026-05-04T08:52:08.73Z</time></trkpt><trkpt lat="41.511401" lon="-0.4815652"><ele>199.0</ele><time>2026-05-04T08:52:09.731Z</time></trkpt><trkpt lat="41.5113805" lon="-0.4817821"><ele>199.0</ele><time>2026-05-04T08:52:10.73Z</time></trkpt><trkpt lat="41.511327" lon="-0.4820194"><ele>199.0</ele><time>2026-05-04T08:52:11.731Z</time></trkpt><trkpt lat="41.511303" lon="-0.4822362"><ele>199.0</ele><time>2026-05-04T08:52:12.731Z</time></trkpt><trkpt lat="41.5112796" lon="-0.4824571"><ele>199.0</ele><time>2026-05-04T08:52:13.731Z</time></trkpt><trkpt lat="41.5112543" lon="-0.4826758"><ele>198.66666666666666</ele><time>2026-05-04T08:52:14.73Z</time></trkpt><trkpt lat="41.5112279" lon="-0.482895"><ele>198.33333333333331</ele><time>2026-05-04T08:52:15.731Z</time></trkpt><trkpt lat="41.5112018" lon="-0.4831098"><ele>198.0</ele><time>2026-05-04T08:52:16.731Z</time></trkpt><trkpt lat="41.5111766" lon="-0.4833274"><ele>198.0</ele><time>2026-05-04T08:52:17.731Z</time></trkpt><trkpt lat="41.5111512" lon="-0.4835452"><ele>198.0</ele><time>2026-05-04T08:52:18.731Z</time></trkpt><trkpt lat="41.5111253" lon="-0.4837625"><ele>198.0</ele><time>2026-05-04T08:52:19.731Z</time></trkpt><trkpt lat="41.5110992" lon="-0.4839846"><ele>198.0</ele><time>2026-05-04T08:52:20.731Z</time></trkpt><trkpt lat="41.5110745" lon="-0.4842028"><ele>198.0</ele><time>2026-05-04T08:52:21.731Z</time></trkpt><trkpt lat="41.5110511" lon="-0.4844186"><ele>198.0</ele><time>2026-05-04T08:52:22.73Z</time></trkpt><trkpt lat="41.5110232" lon="-0.4846316"><ele>197.33333333333331</ele><time>2026-05-04T08:52:23.731Z</time></trkpt><trkpt lat="41.5109961" lon="-0.4848468"><ele>196.66666666666666</ele><time>2026-05-04T08:52:24.73Z</time></trkpt><trkpt lat="41.5109688" lon="-0.4850637"><ele>196.0</ele><time>2026-05-04T08:52:25.731Z</time></trkpt><trkpt lat="41.5109414" lon="-0.4852773"><ele>196.66666666666666</ele><time>2026-05-04T08:52:26.731Z</time></trkpt><trkpt lat="41.5109183" lon="-0.4854917"><ele>197.33333333333331</ele><time>2026-05-04T08:52:27.731Z</time></trkpt><trkpt lat="41.5108986" lon="-0.4857046"><ele>198.0</ele><time>2026-05-04T08:52:28.731Z</time></trkpt><trkpt lat="41.5108657" lon="-0.4859242"><ele>198.0</ele><time>2026-05-04T08:52:29.731Z</time></trkpt><trkpt lat="41.5108455" lon="-0.48614"><ele>198.0</ele><time>2026-05-04T08:52:30.731Z</time></trkpt><trkpt lat="41.5108283" lon="-0.4863559"><ele>198.0</ele><time>2026-05-04T08:52:31.731Z</time></trkpt><trkpt lat="41.5108073" lon="-0.4865719"><ele>198.33333333333331</ele><time>2026-05-04T08:52:32.731Z</time></trkpt><trkpt lat="41.5107866" lon="-0.4867903"><ele>198.66666666666666</ele><time>2026-05-04T08:52:33.731Z</time></trkpt><trkpt lat="41.5107692" lon="-0.4870053"><ele>199.0</ele><time>2026-05-04T08:52:34.731Z</time></trkpt><trkpt lat="41.5107467" lon="-0.4872206"><ele>199.0</ele><time>2026-05-04T08:52:35.731Z</time></trkpt><trkpt lat="41.5107197" lon="-0.4874354"><ele>199.0</ele><time>2026-05-04T08:52:36.731Z</time></trkpt><trkpt lat="41.5106944" lon="-0.4876498"><ele>199.0</ele><time>2026-05-04T08:52:37.731Z</time></trkpt><trkpt lat="41.510672" lon="-0.4878642"><ele>198.66666666666666</ele><time>2026-05-04T08:52:38.732Z</time></trkpt><trkpt lat="41.5106479" lon="-0.4880786"><ele>198.33333333333331</ele><time>2026-05-04T08:52:39.731Z</time></trkpt><trkpt lat="41.5106229" lon="-0.4882902"><ele>198.0</ele><time>2026-05-04T08:52:40.732Z</time></trkpt><trkpt lat="41.5105989" lon="-0.4885038"><ele>198.0</ele><time>2026-05-04T08:52:41.732Z</time></trkpt><trkpt lat="41.510577" lon="-0.4887168"><ele>198.0</ele><time>2026-05-04T08:52:42.731Z</time></trkpt><trkpt lat="41.51055" lon="-0.488929"><ele>198.0</ele><time>2026-05-04T08:52:43.732Z</time></trkpt><trkpt lat="41.5105236" lon="-0.4891402"><ele>198.0</ele><time>2026-05-04T08:52:44.732Z</time></trkpt><trkpt lat="41.5105025" lon="-0.4893504"><ele>198.0</ele><time>2026-05-04T08:52:45.731Z</time></trkpt><trkpt lat="41.510478" lon="-0.4895599"><ele>198.0</ele><time>2026-05-04T08:52:46.732Z</time></trkpt><trkpt lat="41.5104567" lon="-0.489767"><ele>199.0</ele><time>2026-05-04T08:52:47.731Z</time></trkpt><trkpt lat="41.5104352" lon="-0.4899717"><ele>200.0</ele><time>2026-05-04T08:52:48.731Z</time></trkpt><trkpt lat="41.510416" lon="-0.4901752"><ele>201.0</ele><time>2026-05-04T08:52:49.732Z</time></trkpt><trkpt lat="41.5103941" lon="-0.4903781"><ele>201.33333333333331</ele><time>2026-05-04T08:52:50.732Z</time></trkpt><trkpt lat="41.5103709" lon="-0.4905795"><ele>201.66666666666666</ele><time>2026-05-04T08:52:51.732Z</time></trkpt><trkpt lat="41.5103491" lon="-0.4907769"><ele>202.0</ele><time>2026-05-04T08:52:52.732Z</time></trkpt><trkpt lat="41.5103282" lon="-0.4909784"><ele>202.0</ele><time>2026-05-04T08:52:53.732Z</time></trkpt><trkpt lat="41.5103058" lon="-0.491181"><ele>202.0</ele><time>2026-05-04T08:52:54.732Z</time></trkpt><trkpt lat="41.5102838" lon="-0.491383"><ele>202.0</ele><time>2026-05-04T08:52:55.731Z</time></trkpt><trkpt lat="41.5102636" lon="-0.4915867"><ele>202.66666666666666</ele><time>2026-05-04T08:52:56.732Z</time></trkpt><trkpt lat="41.5102446" lon="-0.4917907"><ele>203.33333333333331</ele><time>2026-05-04T08:52:57.732Z</time></trkpt><trkpt lat="41.5102292" lon="-0.4919934"><ele>204.0</ele><time>2026-05-04T08:52:58.732Z</time></trkpt><trkpt lat="41.5102208" lon="-0.4921993"><ele>204.66666666666669</ele><time>2026-05-04T08:52:59.732Z</time></trkpt><trkpt lat="41.5102223" lon="-0.4924103"><ele>205.33333333333334</ele><time>2026-05-04T08:53:00.732Z</time></trkpt><trkpt lat="41.5102137" lon="-0.4926127"><ele>206.0</ele><time>2026-05-04T08:53:01.731Z</time></trkpt><trkpt lat="41.5102133" lon="-0.4928225"><ele>206.0</ele><time>2026-05-04T08:53:02.732Z</time></trkpt><trkpt lat="41.5102158" lon="-0.4930328"><ele>206.0</ele><time>2026-05-04T08:53:03.732Z</time></trkpt><trkpt lat="41.510222" lon="-0.4932438"><ele>206.0</ele><time>2026-05-04T08:53:04.732Z</time></trkpt><trkpt lat="41.5102285" lon="-0.4934524"><ele>206.0</ele><time>2026-05-04T08:53:05.732Z</time></trkpt><trkpt lat="41.5102342" lon="-0.4936643"><ele>206.0</ele><time>2026-05-04T08:53:06.732Z</time></trkpt><trkpt lat="41.5102447" lon="-0.4938752"><ele>206.0</ele><time>2026-05-04T08:53:07.732Z</time></trkpt><trkpt lat="41.5102539" lon="-0.4940878"><ele>205.66666666666669</ele><time>2026-05-04T08:53:08.732Z</time></trkpt><trkpt lat="41.5102623" lon="-0.4942998"><ele>205.33333333333331</ele><time>2026-05-04T08:53:09.731Z</time></trkpt><trkpt lat="41.5102707" lon="-0.4945104"><ele>205.0</ele><time>2026-05-04T08:53:10.732Z</time></trkpt><trkpt lat="41.5102777" lon="-0.4947221"><ele>204.66666666666666</ele><time>2026-05-04T08:53:11.731Z</time></trkpt><trkpt lat="41.5102808" lon="-0.4949339"><ele>204.33333333333331</ele><time>2026-05-04T08:53:12.732Z</time></trkpt><trkpt lat="41.5102899" lon="-0.4951409"><ele>204.0</ele><time>2026-05-04T08:53:13.731Z</time></trkpt><trkpt lat="41.5102922" lon="-0.4953434"><ele>204.25</ele><time>2026-05-04T08:53:14.732Z</time></trkpt><trkpt lat="41.5102978" lon="-0.4955377"><ele>204.5</ele><time>2026-05-04T08:53:15.732Z</time></trkpt><trkpt lat="41.5103051" lon="-0.4957213"><ele>204.75</ele><time>2026-05-04T08:53:16.732Z</time></trkpt><trkpt lat="41.5103107" lon="-0.4959004"><ele>205.0</ele><time>2026-05-04T08:53:17.732Z</time></trkpt><trkpt lat="41.5103118" lon="-0.4960771"><ele>205.0</ele><time>2026-05-04T08:53:18.732Z</time></trkpt><trkpt lat="41.5103105" lon="-0.4962492"><ele>205.0</ele><time>2026-05-04T08:53:19.732Z</time></trkpt><trkpt lat="41.5103016" lon="-0.496419"><ele>205.0</ele><time>2026-05-04T08:53:20.731Z</time></trkpt><trkpt lat="41.5102879" lon="-0.4965846"><ele>205.0</ele><time>2026-05-04T08:53:21.732Z</time></trkpt><trkpt lat="41.510268" lon="-0.4967421"><ele>204.33333333333331</ele><time>2026-05-04T08:53:22.731Z</time></trkpt><trkpt lat="41.5102556" lon="-0.4968824"><ele>203.66666666666666</ele><time>2026-05-04T08:53:23.732Z</time></trkpt><trkpt lat="41.510239" lon="-0.4970009"><ele>203.0</ele><time>2026-05-04T08:53:24.732Z</time></trkpt><trkpt lat="41.5102245" lon="-0.4971397"><ele>202.33333333333331</ele><time>2026-05-04T08:53:26.731Z</time></trkpt><trkpt lat="41.5102123" lon="-0.4972374"><ele>201.66666666666666</ele><time>2026-05-04T08:53:28.732Z</time></trkpt><trkpt lat="41.5102095" lon="-0.4973266"><ele>201.0</ele><time>2026-05-04T08:56:03.768Z</time></trkpt><trkpt lat="41.5102168" lon="-0.4974265"><ele>201.0</ele><time>2026-05-04T08:56:10.866Z</time></trkpt><trkpt lat="41.5101997" lon="-0.4973413"><ele>201.0</ele><time>2026-05-04T09:01:05.719Z</time></trkpt><trkpt lat="41.5102396" lon="-0.497268"><ele>201.0</ele><time>2026-05-04T09:01:13.774Z</time></trkpt><trkpt lat="41.5102416" lon="-0.4971726"><ele>201.0</ele><time>2026-05-04T09:21:44.746Z</time></trkpt><trkpt lat="41.5102541" lon="-0.4970815"><ele>201.0</ele><time>2026-05-04T09:21:46.747Z</time></trkpt><trkpt lat="41.5102501" lon="-0.4969627"><ele>201.0</ele><time>2026-05-04T09:21:48.747Z</time></trkpt><trkpt lat="41.5102537" lon="-0.4968303"><ele>201.0</ele><time>2026-05-04T09:21:50.746Z</time></trkpt><trkpt lat="41.5102559" lon="-0.49669"><ele>201.0</ele><time>2026-05-04T09:21:52.747Z</time></trkpt><trkpt lat="41.510258" lon="-0.4965983"><ele>201.0</ele><time>2026-05-04T09:21:53.746Z</time></trkpt><trkpt lat="41.5102559" lon="-0.496508"><ele>201.0</ele><time>2026-05-04T09:21:54.747Z</time></trkpt><trkpt lat="41.5102607" lon="-0.4964151"><ele>201.0</ele><time>2026-05-04T09:21:55.747Z</time></trkpt><trkpt lat="41.5102672" lon="-0.4962574"><ele>201.0</ele><time>2026-05-04T09:21:57.746Z</time></trkpt><trkpt lat="41.5102608" lon="-0.4961705"><ele>201.66666666666666</ele><time>2026-05-04T09:21:58.747Z</time></trkpt><trkpt lat="41.5102614" lon="-0.4960809"><ele>202.33333333333331</ele><time>2026-05-04T09:21:59.747Z</time></trkpt><trkpt lat="41.5102626" lon="-0.4959803"><ele>203.0</ele><time>2026-05-04T09:22:00.747Z</time></trkpt><trkpt lat="41.5102632" lon="-0.4958782"><ele>203.66666666666666</ele><time>2026-05-04T09:22:01.747Z</time></trkpt><trkpt lat="41.5102666" lon="-0.4957669"><ele>204.33333333333331</ele><time>2026-05-04T09:22:02.747Z</time></trkpt><trkpt lat="41.5102636" lon="-0.4956552"><ele>205.0</ele><time>2026-05-04T09:22:03.746Z</time></trkpt><trkpt lat="41.5102549" lon="-0.495541"><ele>205.0</ele><time>2026-05-04T09:22:04.747Z</time></trkpt><trkpt lat="41.5102516" lon="-0.4954209"><ele>205.0</ele><time>2026-05-04T09:22:05.747Z</time></trkpt><trkpt lat="41.5102457" lon="-0.4952955"><ele>205.0</ele><time>2026-05-04T09:22:06.747Z</time></trkpt><trkpt lat="41.5102436" lon="-0.4951653"><ele>205.0</ele><time>2026-05-04T09:22:07.746Z</time></trkpt><trkpt lat="41.5102419" lon="-0.4950359"><ele>205.0</ele><time>2026-05-04T09:22:08.747Z</time></trkpt><trkpt lat="41.5102408" lon="-0.494913"><ele>205.0</ele><time>2026-05-04T09:22:09.747Z</time></trkpt><trkpt lat="41.5102359" lon="-0.4947796"><ele>205.0</ele><time>2026-05-04T09:22:10.747Z</time></trkpt><trkpt lat="41.5102298" lon="-0.4946402"><ele>205.0</ele><time>2026-05-04T09:22:11.747Z</time></trkpt><trkpt lat="41.5102226" lon="-0.494511"><ele>205.0</ele><time>2026-05-04T09:22:12.747Z</time></trkpt><trkpt lat="41.5102239" lon="-0.4943784"><ele>205.0</ele><time>2026-05-04T09:22:13.747Z</time></trkpt><trkpt lat="41.5102232" lon="-0.4942465"><ele>205.0</ele><time>2026-05-04T09:22:14.747Z</time></trkpt><trkpt lat="41.5102154" lon="-0.4941235"><ele>205.0</ele><time>2026-05-04T09:22:15.747Z</time></trkpt><trkpt lat="41.5102102" lon="-0.4939964"><ele>205.0</ele><time>2026-05-04T09:22:16.747Z</time></trkpt><trkpt lat="41.5102066" lon="-0.4938712"><ele>205.0</ele><time>2026-05-04T09:22:17.747Z</time></trkpt><trkpt lat="41.510203" lon="-0.4937415"><ele>205.0</ele><time>2026-05-04T09:22:18.746Z</time></trkpt><trkpt lat="41.5101984" lon="-0.4936047"><ele>205.2</ele><time>2026-05-04T09:22:19.747Z</time></trkpt><trkpt lat="41.5101947" lon="-0.493471"><ele>205.4</ele><time>2026-05-04T09:22:20.746Z</time></trkpt><trkpt lat="41.5101911" lon="-0.4933297"><ele>205.60000000000002</ele><time>2026-05-04T09:22:21.746Z</time></trkpt><trkpt lat="41.5101869" lon="-0.4931919"><ele>205.8</ele><time>2026-05-04T09:22:22.747Z</time></trkpt><trkpt lat="41.510183" lon="-0.493058"><ele>206.0</ele><time>2026-05-04T09:22:23.747Z</time></trkpt><trkpt lat="41.5101825" lon="-0.4929161"><ele>206.0</ele><time>2026-05-04T09:22:24.747Z</time></trkpt><trkpt lat="41.5101845" lon="-0.4927749"><ele>206.0</ele><time>2026-05-04T09:22:25.747Z</time></trkpt><trkpt lat="41.5101807" lon="-0.4926319"><ele>206.0</ele><time>2026-05-04T09:22:26.747Z</time></trkpt><trkpt lat="41.5101742" lon="-0.4924877"><ele>206.0</ele><time>2026-05-04T09:22:27.747Z</time></trkpt><trkpt lat="41.5101656" lon="-0.4923379"><ele>206.0</ele><time>2026-05-04T09:22:28.747Z</time></trkpt><trkpt lat="41.5101653" lon="-0.4921855"><ele>205.5</ele><time>2026-05-04T09:22:29.747Z</time></trkpt><trkpt lat="41.5101637" lon="-0.4920357"><ele>205.0</ele><time>2026-05-04T09:22:30.746Z</time></trkpt><trkpt lat="41.5101665" lon="-0.4918805"><ele>204.5</ele><time>2026-05-04T09:22:31.747Z</time></trkpt><trkpt lat="41.5101711" lon="-0.4917225"><ele>204.0</ele><time>2026-05-04T09:22:32.747Z</time></trkpt><trkpt lat="41.5101838" lon="-0.4915645"><ele>204.0</ele><time>2026-05-04T09:22:33.747Z</time></trkpt><trkpt lat="41.510197" lon="-0.4914049"><ele>204.0</ele><time>2026-05-04T09:22:34.747Z</time></trkpt><trkpt lat="41.5102147" lon="-0.4912471"><ele>204.0</ele><time>2026-05-04T09:22:35.746Z</time></trkpt><trkpt lat="41.5102304" lon="-0.4910815"><ele>204.0</ele><time>2026-05-04T09:22:36.747Z</time></trkpt><trkpt lat="41.510246" lon="-0.4909199"><ele>203.5</ele><time>2026-05-04T09:22:37.746Z</time></trkpt><trkpt lat="41.5102651" lon="-0.4907572"><ele>203.0</ele><time>2026-05-04T09:22:38.747Z</time></trkpt><trkpt lat="41.5102815" lon="-0.4905914"><ele>202.5</ele><time>2026-05-04T09:22:39.747Z</time></trkpt><trkpt lat="41.5103" lon="-0.4904208"><ele>202.0</ele><time>2026-05-04T09:22:40.746Z</time></trkpt><trkpt lat="41.510319" lon="-0.4902536"><ele>201.75</ele><time>2026-05-04T09:22:41.746Z</time></trkpt><trkpt lat="41.5103389" lon="-0.4900782"><ele>201.5</ele><time>2026-05-04T09:22:42.747Z</time></trkpt><trkpt lat="41.5103612" lon="-0.4899041"><ele>201.25</ele><time>2026-05-04T09:22:43.747Z</time></trkpt><trkpt lat="41.5103855" lon="-0.4897267"><ele>201.0</ele><time>2026-05-04T09:22:44.747Z</time></trkpt><trkpt lat="41.5104046" lon="-0.4895462"><ele>200.25</ele><time>2026-05-04T09:22:45.747Z</time></trkpt><trkpt lat="41.5104229" lon="-0.4893673"><ele>199.5</ele><time>2026-05-04T09:22:46.747Z</time></trkpt><trkpt lat="41.5104402" lon="-0.4892005"><ele>198.75</ele><time>2026-05-04T09:22:47.747Z</time></trkpt><trkpt lat="41.5104628" lon="-0.4890339"><ele>198.0</ele><time>2026-05-04T09:22:48.747Z</time></trkpt><trkpt lat="41.5104798" lon="-0.488858"><ele>198.0</ele><time>2026-05-04T09:22:49.747Z</time></trkpt><trkpt lat="41.5104991" lon="-0.4886843"><ele>198.0</ele><time>2026-05-04T09:22:50.747Z</time></trkpt><trkpt lat="41.5105182" lon="-0.4885091"><ele>198.0</ele><time>2026-05-04T09:22:51.747Z</time></trkpt><trkpt lat="41.5105371" lon="-0.488338"><ele>198.0</ele><time>2026-05-04T09:22:52.747Z</time></trkpt><trkpt lat="41.5105578" lon="-0.4881685"><ele>198.0</ele><time>2026-05-04T09:22:53.747Z</time></trkpt><trkpt lat="41.5105761" lon="-0.4879973"><ele>198.0</ele><time>2026-05-04T09:22:54.747Z</time></trkpt><trkpt lat="41.5105956" lon="-0.487831"><ele>198.0</ele><time>2026-05-04T09:22:55.747Z</time></trkpt><trkpt lat="41.5106143" lon="-0.4876658"><ele>198.0</ele><time>2026-05-04T09:22:56.747Z</time></trkpt><trkpt lat="41.5106381" lon="-0.4875026"><ele>198.25</ele><time>2026-05-04T09:22:57.746Z</time></trkpt><trkpt lat="41.5106612" lon="-0.48733"><ele>198.5</ele><time>2026-05-04T09:22:58.747Z</time></trkpt><trkpt lat="41.5106849" lon="-0.4871576"><ele>198.75</ele><time>2026-05-04T09:22:59.747Z</time></trkpt><trkpt lat="41.5107047" lon="-0.4869913"><ele>199.0</ele><time>2026-05-04T09:23:00.747Z</time></trkpt><trkpt lat="41.5107301" lon="-0.4868198"><ele>199.0</ele><time>2026-05-04T09:23:01.747Z</time></trkpt><trkpt lat="41.5107511" lon="-0.486639"><ele>199.0</ele><time>2026-05-04T09:23:02.746Z</time></trkpt><trkpt lat="41.5107702" lon="-0.4864636"><ele>199.0</ele><time>2026-05-04T09:23:03.748Z</time></trkpt><trkpt lat="41.5107832" lon="-0.4862837"><ele>199.0</ele><time>2026-05-04T09:23:04.748Z</time></trkpt><trkpt lat="41.5107995" lon="-0.486105"><ele>198.75</ele><time>2026-05-04T09:23:05.747Z</time></trkpt><trkpt lat="41.5108157" lon="-0.4859221"><ele>198.5</ele><time>2026-05-04T09:23:06.748Z</time></trkpt><trkpt lat="41.5108409" lon="-0.4857331"><ele>198.25</ele><time>2026-05-04T09:23:07.748Z</time></trkpt><trkpt lat="41.5108607" lon="-0.4855451"><ele>198.0</ele><time>2026-05-04T09:23:08.747Z</time></trkpt><trkpt lat="41.5108875" lon="-0.4853608"><ele>197.5</ele><time>2026-05-04T09:23:09.748Z</time></trkpt><trkpt lat="41.5109117" lon="-0.4851773"><ele>197.0</ele><time>2026-05-04T09:23:10.748Z</time></trkpt><trkpt lat="41.5109334" lon="-0.484994"><ele>196.5</ele><time>2026-05-04T09:23:11.748Z</time></trkpt><trkpt lat="41.5109569" lon="-0.4848164"><ele>196.0</ele><time>2026-05-04T09:23:12.748Z</time></trkpt><trkpt lat="41.5109776" lon="-0.4846417"><ele>196.5</ele><time>2026-05-04T09:23:13.748Z</time></trkpt><trkpt lat="41.5110008" lon="-0.484459"><ele>197.0</ele><time>2026-05-04T09:23:14.747Z</time></trkpt><trkpt lat="41.5110252" lon="-0.4842805"><ele>197.5</ele><time>2026-05-04T09:23:15.748Z</time></trkpt><trkpt lat="41.5110452" lon="-0.4840967"><ele>198.0</ele><time>2026-05-04T09:23:16.747Z</time></trkpt><trkpt lat="41.5110683" lon="-0.4839178"><ele>198.0</ele><time>2026-05-04T09:23:17.748Z</time></trkpt><trkpt lat="41.5110886" lon="-0.4837398"><ele>198.0</ele><time>2026-05-04T09:23:18.748Z</time></trkpt><trkpt lat="41.5111061" lon="-0.4835548"><ele>198.0</ele><time>2026-05-04T09:23:19.748Z</time></trkpt><trkpt lat="41.5111298" lon="-0.4833776"><ele>198.0</ele><time>2026-05-04T09:23:20.748Z</time></trkpt><trkpt lat="41.5111513" lon="-0.4832"><ele>198.0</ele><time>2026-05-04T09:23:21.748Z</time></trkpt><trkpt lat="41.5111689" lon="-0.4830302"><ele>198.0</ele><time>2026-05-04T09:23:22.747Z</time></trkpt><trkpt lat="41.5111938" lon="-0.4828477"><ele>198.0</ele><time>2026-05-04T09:23:23.748Z</time></trkpt><trkpt lat="41.5112188" lon="-0.4826691"><ele>198.0</ele><time>2026-05-04T09:23:24.748Z</time></trkpt><trkpt lat="41.511241" lon="-0.4824834"><ele>198.25</ele><time>2026-05-04T09:23:25.748Z</time></trkpt><trkpt lat="41.5112613" lon="-0.4823053"><ele>198.5</ele><time>2026-05-04T09:23:26.748Z</time></trkpt><trkpt lat="41.5112842" lon="-0.4821176"><ele>198.75</ele><time>2026-05-04T09:23:27.747Z</time></trkpt><trkpt lat="41.5113017" lon="-0.4819384"><ele>199.0</ele><time>2026-05-04T09:23:28.748Z</time></trkpt><trkpt lat="41.5113223" lon="-0.4817591"><ele>199.0</ele><time>2026-05-04T09:23:29.748Z</time></trkpt><trkpt lat="41.5113442" lon="-0.4815842"><ele>199.0</ele><time>2026-05-04T09:23:30.747Z</time></trkpt><trkpt lat="41.5113621" lon="-0.4814124"><ele>199.0</ele><time>2026-05-04T09:23:31.748Z</time></trkpt><trkpt lat="41.5113841" lon="-0.4812421"><ele>199.0</ele><time>2026-05-04T09:23:32.748Z</time></trkpt><trkpt lat="41.5114074" lon="-0.4810754"><ele>199.0</ele><time>2026-05-04T09:23:33.748Z</time></trkpt><trkpt lat="41.5114229" lon="-0.4809051"><ele>199.0</ele><time>2026-05-04T09:23:34.747Z</time></trkpt><trkpt lat="41.5114427" lon="-0.4807303"><ele>199.0</ele><time>2026-05-04T09:23:35.748Z</time></trkpt><trkpt lat="41.5114628" lon="-0.4805639"><ele>199.0</ele><time>2026-05-04T09:23:36.748Z</time></trkpt><trkpt lat="41.5114825" lon="-0.4803933"><ele>199.5</ele><time>2026-05-04T09:23:37.748Z</time></trkpt><trkpt lat="41.5115048" lon="-0.4802226"><ele>200.0</ele><time>2026-05-04T09:23:38.748Z</time></trkpt><trkpt lat="41.51153" lon="-0.4800593"><ele>200.5</ele><time>2026-05-04T09:23:39.748Z</time></trkpt><trkpt lat="41.5115494" lon="-0.4798954"><ele>201.0</ele><time>2026-05-04T09:23:40.748Z</time></trkpt><trkpt lat="41.51157" lon="-0.4797282"><ele>201.5</ele><time>2026-05-04T09:23:41.748Z</time></trkpt><trkpt lat="41.511593" lon="-0.4795606"><ele>202.0</ele><time>2026-05-04T09:23:42.748Z</time></trkpt><trkpt lat="41.511615" lon="-0.479394"><ele>202.5</ele><time>2026-05-04T09:23:43.748Z</time></trkpt><trkpt lat="41.5116352" lon="-0.4792256"><ele>203.0</ele><time>2026-05-04T09:23:44.747Z</time></trkpt><trkpt lat="41.5116568" lon="-0.4790528"><ele>203.0</ele><time>2026-05-04T09:23:45.748Z</time></trkpt><trkpt lat="41.5116753" lon="-0.4788829"><ele>203.0</ele><time>2026-05-04T09:23:46.747Z</time></trkpt><trkpt lat="41.5116947" lon="-0.4787109"><ele>203.0</ele><time>2026-05-04T09:23:47.747Z</time></trkpt><trkpt lat="41.5117166" lon="-0.478541"><ele>203.0</ele><time>2026-05-04T09:23:48.748Z</time></trkpt><trkpt lat="41.5117395" lon="-0.478367"><ele>202.5</ele><time>2026-05-04T09:23:49.748Z</time></trkpt><trkpt lat="41.5117622" lon="-0.4782035"><ele>202.0</ele><time>2026-05-04T09:23:50.748Z</time></trkpt><trkpt lat="41.5117836" lon="-0.4780292"><ele>201.5</ele><time>2026-05-04T09:23:51.748Z</time></trkpt><trkpt lat="41.5118057" lon="-0.4778593"><ele>201.0</ele><time>2026-05-04T09:23:52.747Z</time></trkpt><trkpt lat="41.511828" lon="-0.477678"><ele>201.0</ele><time>2026-05-04T09:23:53.748Z</time></trkpt><trkpt lat="41.5118484" lon="-0.4774956"><ele>201.0</ele><time>2026-05-04T09:23:54.748Z</time></trkpt><trkpt lat="41.5118687" lon="-0.4773169"><ele>201.0</ele><time>2026-05-04T09:23:55.748Z</time></trkpt><trkpt lat="41.5118906" lon="-0.4771358"><ele>201.0</ele><time>2026-05-04T09:23:56.747Z</time></trkpt><trkpt lat="41.5119153" lon="-0.4769491"><ele>201.25</ele><time>2026-05-04T09:23:57.748Z</time></trkpt><trkpt lat="41.5119398" lon="-0.4767618"><ele>201.5</ele><time>2026-05-04T09:23:58.747Z</time></trkpt><trkpt lat="41.5119618" lon="-0.4765696"><ele>201.75</ele><time>2026-05-04T09:23:59.748Z</time></trkpt><trkpt lat="41.511984" lon="-0.4763752"><ele>202.0</ele><time>2026-05-04T09:24:00.748Z</time></trkpt><trkpt lat="41.5120104" lon="-0.47619"><ele>202.25</ele><time>2026-05-04T09:24:01.748Z</time></trkpt><trkpt lat="41.5120339" lon="-0.4759945"><ele>202.5</ele><time>2026-05-04T09:24:02.748Z</time></trkpt><trkpt lat="41.512057" lon="-0.475799"><ele>202.75</ele><time>2026-05-04T09:24:03.747Z</time></trkpt><trkpt lat="41.512084" lon="-0.475604"><ele>203.0</ele><time>2026-05-04T09:24:04.747Z</time></trkpt><trkpt lat="41.5121082" lon="-0.4754101"><ele>203.33333333333334</ele><time>2026-05-04T09:24:05.748Z</time></trkpt><trkpt lat="41.5121297" lon="-0.4752093"><ele>203.66666666666669</ele><time>2026-05-04T09:24:06.748Z</time></trkpt><trkpt lat="41.5121551" lon="-0.4750097"><ele>204.0</ele><time>2026-05-04T09:24:07.748Z</time></trkpt><trkpt lat="41.51218" lon="-0.4748102"><ele>204.0</ele><time>2026-05-04T09:24:08.747Z</time></trkpt><trkpt lat="41.5122002" lon="-0.4746158"><ele>204.0</ele><time>2026-05-04T09:24:09.748Z</time></trkpt><trkpt lat="41.5122255" lon="-0.4744235"><ele>204.0</ele><time>2026-05-04T09:24:10.748Z</time></trkpt><trkpt lat="41.5122526" lon="-0.4742177"><ele>204.33333333333331</ele><time>2026-05-04T09:24:11.748Z</time></trkpt><trkpt lat="41.5122791" lon="-0.4740177"><ele>204.66666666666666</ele><time>2026-05-04T09:24:12.748Z</time></trkpt><trkpt lat="41.5123034" lon="-0.4738149"><ele>205.0</ele><time>2026-05-04T09:24:13.747Z</time></trkpt><trkpt lat="41.5123286" lon="-0.4736111"><ele>205.0</ele><time>2026-05-04T09:24:14.748Z</time></trkpt><trkpt lat="41.512355" lon="-0.4734104"><ele>205.0</ele><time>2026-05-04T09:24:15.748Z</time></trkpt><trkpt lat="41.5123797" lon="-0.4732035"><ele>205.0</ele><time>2026-05-04T09:24:16.748Z</time></trkpt><trkpt lat="41.5124041" lon="-0.4729981"><ele>205.66666666666666</ele><time>2026-05-04T09:24:17.747Z</time></trkpt><trkpt lat="41.5124286" lon="-0.4727981"><ele>206.33333333333331</ele><time>2026-05-04T09:24:18.748Z</time></trkpt><trkpt lat="41.5124535" lon="-0.472591"><ele>207.0</ele><time>2026-05-04T09:24:19.748Z</time></trkpt><trkpt lat="41.5124767" lon="-0.4723881"><ele>207.0</ele><time>2026-05-04T09:24:20.747Z</time></trkpt><trkpt lat="41.512503" lon="-0.472183"><ele>207.0</ele><time>2026-05-04T09:24:21.748Z</time></trkpt><trkpt lat="41.5125263" lon="-0.4719799"><ele>207.0</ele><time>2026-05-04T09:24:22.748Z</time></trkpt><trkpt lat="41.5125516" lon="-0.4717761"><ele>206.66666666666669</ele><time>2026-05-04T09:24:23.748Z</time></trkpt><trkpt lat="41.5125729" lon="-0.4715751"><ele>206.33333333333334</ele><time>2026-05-04T09:24:24.748Z</time></trkpt><trkpt lat="41.5125964" lon="-0.471373"><ele>206.0</ele><time>2026-05-04T09:24:25.748Z</time></trkpt><trkpt lat="41.5126213" lon="-0.471167"><ele>206.0</ele><time>2026-05-04T09:24:26.748Z</time></trkpt><trkpt lat="41.5126439" lon="-0.4709602"><ele>206.0</ele><time>2026-05-04T09:24:27.747Z</time></trkpt><trkpt lat="41.5126707" lon="-0.4707543"><ele>206.0</ele><time>2026-05-04T09:24:28.747Z</time></trkpt><trkpt lat="41.512695" lon="-0.470555"><ele>205.66666666666669</ele><time>2026-05-04T09:24:29.748Z</time></trkpt><trkpt lat="41.5127184" lon="-0.4703505"><ele>205.33333333333331</ele><time>2026-05-04T09:24:30.748Z</time></trkpt><trkpt lat="41.5127456" lon="-0.4701489"><ele>205.0</ele><time>2026-05-04T09:24:31.748Z</time></trkpt><trkpt lat="41.5127725" lon="-0.4699519"><ele>205.0</ele><time>2026-05-04T09:24:32.748Z</time></trkpt><trkpt lat="41.5127971" lon="-0.4697505"><ele>205.0</ele><time>2026-05-04T09:24:33.748Z</time></trkpt><trkpt lat="41.5128197" lon="-0.4695505"><ele>205.0</ele><time>2026-05-04T09:24:34.748Z</time></trkpt><trkpt lat="41.5128471" lon="-0.4693477"><ele>205.66666666666666</ele><time>2026-05-04T09:24:35.747Z</time></trkpt><trkpt lat="41.5128697" lon="-0.4691482"><ele>206.33333333333331</ele><time>2026-05-04T09:24:36.748Z</time></trkpt><trkpt lat="41.5128951" lon="-0.4689448"><ele>207.0</ele><time>2026-05-04T09:24:37.748Z</time></trkpt><trkpt lat="41.5129189" lon="-0.4687466"><ele>208.33333333333331</ele><time>2026-05-04T09:24:38.748Z</time></trkpt><trkpt lat="41.5129389" lon="-0.4685443"><ele>209.66666666666666</ele><time>2026-05-04T09:24:39.748Z</time></trkpt><trkpt lat="41.5129649" lon="-0.468348"><ele>211.0</ele><time>2026-05-04T09:24:40.747Z</time></trkpt><trkpt lat="41.5129934" lon="-0.4681498"><ele>211.0</ele><time>2026-05-04T09:24:41.748Z</time></trkpt><trkpt lat="41.5130164" lon="-0.4679503"><ele>211.0</ele><time>2026-05-04T09:24:42.748Z</time></trkpt><trkpt lat="41.5130368" lon="-0.4677583"><ele>211.0</ele><time>2026-05-04T09:24:43.748Z</time></trkpt><trkpt lat="41.5130625" lon="-0.4675684"><ele>211.0</ele><time>2026-05-04T09:24:44.748Z</time></trkpt><trkpt lat="41.5130849" lon="-0.467374"><ele>211.0</ele><time>2026-05-04T09:24:45.748Z</time></trkpt><trkpt lat="41.5131063" lon="-0.4671778"><ele>211.0</ele><time>2026-05-04T09:24:46.747Z</time></trkpt><trkpt lat="41.5131308" lon="-0.4669873"><ele>211.0</ele><time>2026-05-04T09:24:47.747Z</time></trkpt><trkpt lat="41.5131575" lon="-0.4667947"><ele>211.0</ele><time>2026-05-04T09:24:48.748Z</time></trkpt><trkpt lat="41.5131782" lon="-0.4666157"><ele>211.0</ele><time>2026-05-04T09:24:49.748Z</time></trkpt><trkpt lat="41.5132013" lon="-0.4664397"><ele>211.0</ele><time>2026-05-04T09:24:50.748Z</time></trkpt><trkpt lat="41.5132227" lon="-0.4662683"><ele>211.0</ele><time>2026-05-04T09:24:51.747Z</time></trkpt><trkpt lat="41.5132418" lon="-0.4660969"><ele>211.0</ele><time>2026-05-04T09:24:52.748Z</time></trkpt><trkpt lat="41.5132629" lon="-0.4659242"><ele>211.25</ele><time>2026-05-04T09:24:53.747Z</time></trkpt><trkpt lat="41.5132805" lon="-0.4657534"><ele>211.5</ele><time>2026-05-04T09:24:54.748Z</time></trkpt><trkpt lat="41.5133026" lon="-0.4655771"><ele>211.75</ele><time>2026-05-04T09:24:55.748Z</time></trkpt><trkpt lat="41.5133242" lon="-0.4654001"><ele>212.0</ele><time>2026-05-04T09:24:56.748Z</time></trkpt><trkpt lat="41.5133452" lon="-0.4652227"><ele>212.0</ele><time>2026-05-04T09:24:57.748Z</time></trkpt><trkpt lat="41.5133696" lon="-0.4650482"><ele>212.0</ele><time>2026-05-04T09:24:58.748Z</time></trkpt><trkpt lat="41.5133941" lon="-0.4648816"><ele>212.0</ele><time>2026-05-04T09:24:59.748Z</time></trkpt><trkpt lat="41.5134227" lon="-0.4647122"><ele>212.0</ele><time>2026-05-04T09:25:00.748Z</time></trkpt><trkpt lat="41.5134531" lon="-0.4645413"><ele>212.0</ele><time>2026-05-04T09:25:01.748Z</time></trkpt><trkpt lat="41.5134867" lon="-0.4643675"><ele>212.0</ele><time>2026-05-04T09:25:02.748Z</time></trkpt><trkpt lat="41.5135208" lon="-0.4642033"><ele>212.0</ele><time>2026-05-04T09:25:03.748Z</time></trkpt><trkpt lat="41.5135546" lon="-0.4640469"><ele>212.0</ele><time>2026-05-04T09:25:04.748Z</time></trkpt><trkpt lat="41.51358" lon="-0.4638906"><ele>212.0</ele><time>2026-05-04T09:25:05.747Z</time></trkpt><trkpt lat="41.5136072" lon="-0.463743"><ele>212.0</ele><time>2026-05-04T09:25:06.748Z</time></trkpt><trkpt lat="41.5136345" lon="-0.4635972"><ele>212.0</ele><time>2026-05-04T09:25:07.748Z</time></trkpt><trkpt lat="41.5136689" lon="-0.4634363"><ele>212.0</ele><time>2026-05-04T09:25:08.749Z</time></trkpt><trkpt lat="41.5137069" lon="-0.4632693"><ele>212.25</ele><time>2026-05-04T09:25:09.749Z</time></trkpt><trkpt lat="41.5137387" lon="-0.4631038"><ele>212.5</ele><time>2026-05-04T09:25:10.748Z</time></trkpt><trkpt lat="41.5137718" lon="-0.4629325"><ele>212.75</ele><time>2026-05-04T09:25:11.749Z</time></trkpt><trkpt lat="41.5138039" lon="-0.4627588"><ele>213.0</ele><time>2026-05-04T09:25:12.749Z</time></trkpt><trkpt lat="41.5138383" lon="-0.4625917"><ele>213.0</ele><time>2026-05-04T09:25:13.749Z</time></trkpt><trkpt lat="41.5138695" lon="-0.462419"><ele>213.0</ele><time>2026-05-04T09:25:14.749Z</time></trkpt><trkpt lat="41.5139073" lon="-0.4622433"><ele>213.0</ele><time>2026-05-04T09:25:15.749Z</time></trkpt><trkpt lat="41.513943" lon="-0.4620724"><ele>213.0</ele><time>2026-05-04T09:25:16.749Z</time></trkpt><trkpt lat="41.5139785" lon="-0.4619015"><ele>213.0</ele><time>2026-05-04T09:25:17.749Z</time></trkpt><trkpt lat="41.5140135" lon="-0.4617331"><ele>213.0</ele><time>2026-05-04T09:25:18.749Z</time></trkpt><trkpt lat="41.5140518" lon="-0.461564"><ele>213.0</ele><time>2026-05-04T09:25:19.749Z</time></trkpt><trkpt lat="41.5140827" lon="-0.4613878"><ele>213.0</ele><time>2026-05-04T09:25:20.748Z</time></trkpt><trkpt lat="41.5141108" lon="-0.4612084"><ele>213.25</ele><time>2026-05-04T09:25:21.748Z</time></trkpt><trkpt lat="41.5141384" lon="-0.4610348"><ele>213.5</ele><time>2026-05-04T09:25:22.749Z</time></trkpt><trkpt lat="41.5141599" lon="-0.4608596"><ele>213.75</ele><time>2026-05-04T09:25:23.749Z</time></trkpt><trkpt lat="41.514168" lon="-0.4606799"><ele>214.0</ele><time>2026-05-04T09:25:24.749Z</time></trkpt><trkpt lat="41.5141676" lon="-0.4604982"><ele>214.0</ele><time>2026-05-04T09:25:25.749Z</time></trkpt><trkpt lat="41.514165" lon="-0.4603135"><ele>214.0</ele><time>2026-05-04T09:25:26.748Z</time></trkpt><trkpt lat="41.514159" lon="-0.4601351"><ele>214.0</ele><time>2026-05-04T09:25:27.748Z</time></trkpt><trkpt lat="41.5141562" lon="-0.4599527"><ele>214.0</ele><time>2026-05-04T09:25:28.748Z</time></trkpt><trkpt lat="41.5141549" lon="-0.4597702"><ele>214.0</ele><time>2026-05-04T09:25:29.749Z</time></trkpt><trkpt lat="41.5141505" lon="-0.4595811"><ele>214.0</ele><time>2026-05-04T09:25:30.749Z</time></trkpt><trkpt lat="41.5141473" lon="-0.4594002"><ele>214.0</ele><time>2026-05-04T09:25:31.749Z</time></trkpt><trkpt lat="41.5141447" lon="-0.4592183"><ele>214.0</ele><time>2026-05-04T09:25:32.749Z</time></trkpt><trkpt lat="41.5141432" lon="-0.4590395"><ele>214.0</ele><time>2026-05-04T09:25:33.749Z</time></trkpt><trkpt lat="41.5141415" lon="-0.4588627"><ele>214.0</ele><time>2026-05-04T09:25:34.749Z</time></trkpt><trkpt lat="41.514144" lon="-0.4586851"><ele>214.0</ele><time>2026-05-04T09:25:35.749Z</time></trkpt><trkpt lat="41.5141419" lon="-0.4585085"><ele>214.0</ele><time>2026-05-04T09:25:36.749Z</time></trkpt><trkpt lat="41.5141403" lon="-0.4583273"><ele>214.5</ele><time>2026-05-04T09:25:37.749Z</time></trkpt><trkpt lat="41.5141371" lon="-0.4581458"><ele>215.0</ele><time>2026-05-04T09:25:38.749Z</time></trkpt><trkpt lat="41.5141337" lon="-0.4579666"><ele>215.5</ele><time>2026-05-04T09:25:39.749Z</time></trkpt><trkpt lat="41.5141284" lon="-0.4577821"><ele>216.0</ele><time>2026-05-04T09:25:40.749Z</time></trkpt><trkpt lat="41.5141214" lon="-0.4576006"><ele>216.5</ele><time>2026-05-04T09:25:41.749Z</time></trkpt><trkpt lat="41.5141145" lon="-0.4574175"><ele>217.0</ele><time>2026-05-04T09:25:42.749Z</time></trkpt><trkpt lat="41.5141138" lon="-0.4572363"><ele>217.5</ele><time>2026-05-04T09:25:43.749Z</time></trkpt><trkpt lat="41.514114" lon="-0.4570587"><ele>218.0</ele><time>2026-05-04T09:25:44.749Z</time></trkpt><trkpt lat="41.5141083" lon="-0.4568765"><ele>218.25</ele><time>2026-05-04T09:25:45.749Z</time></trkpt><trkpt lat="41.5141074" lon="-0.4566916"><ele>218.5</ele><time>2026-05-04T09:25:46.748Z</time></trkpt><trkpt lat="41.5141038" lon="-0.4565069"><ele>218.75</ele><time>2026-05-04T09:25:47.749Z</time></trkpt><trkpt lat="41.514097" lon="-0.4563204"><ele>219.0</ele><time>2026-05-04T09:25:48.749Z</time></trkpt><trkpt lat="41.5140917" lon="-0.4561418"><ele>219.0</ele><time>2026-05-04T09:25:49.748Z</time></trkpt><trkpt lat="41.5140893" lon="-0.4559581"><ele>219.0</ele><time>2026-05-04T09:25:50.749Z</time></trkpt><trkpt lat="41.5140857" lon="-0.4557765"><ele>219.0</ele><time>2026-05-04T09:25:51.749Z</time></trkpt><trkpt lat="41.5140841" lon="-0.455596"><ele>219.0</ele><time>2026-05-04T09:25:52.749Z</time></trkpt><trkpt lat="41.5140781" lon="-0.4554144"><ele>219.75</ele><time>2026-05-04T09:25:53.749Z</time></trkpt><trkpt lat="41.5140779" lon="-0.4552363"><ele>220.5</ele><time>2026-05-04T09:25:54.748Z</time></trkpt><trkpt lat="41.5140783" lon="-0.4550576"><ele>221.25</ele><time>2026-05-04T09:25:55.748Z</time></trkpt><trkpt lat="41.5140784" lon="-0.4548717"><ele>222.0</ele><time>2026-05-04T09:25:56.749Z</time></trkpt><trkpt lat="41.5140759" lon="-0.454688"><ele>222.75</ele><time>2026-05-04T09:25:57.749Z</time></trkpt><trkpt lat="41.5140788" lon="-0.4545074"><ele>223.5</ele><time>2026-05-04T09:25:58.748Z</time></trkpt><trkpt lat="41.5140799" lon="-0.4543359"><ele>224.25</ele><time>2026-05-04T09:25:59.749Z</time></trkpt><trkpt lat="41.5140883" lon="-0.4541706"><ele>225.0</ele><time>2026-05-04T09:26:00.749Z</time></trkpt><trkpt lat="41.5141033" lon="-0.4540046"><ele>225.0</ele><time>2026-05-04T09:26:01.748Z</time></trkpt><trkpt lat="41.5141254" lon="-0.4538324"><ele>225.0</ele><time>2026-05-04T09:26:02.749Z</time></trkpt><trkpt lat="41.5141379" lon="-0.4536701"><ele>225.0</ele><time>2026-05-04T09:26:03.749Z</time></trkpt><trkpt lat="41.5141398" lon="-0.4535205"><ele>225.0</ele><time>2026-05-04T09:26:04.748Z</time></trkpt><trkpt lat="41.5141285" lon="-0.4533738"><ele>225.5</ele><time>2026-05-04T09:26:05.749Z</time></trkpt><trkpt lat="41.5141166" lon="-0.4532293"><ele>226.0</ele><time>2026-05-04T09:26:06.748Z</time></trkpt><trkpt lat="41.5141125" lon="-0.4530841"><ele>226.5</ele><time>2026-05-04T09:26:07.749Z</time></trkpt><trkpt lat="41.5141087" lon="-0.4529275"><ele>227.0</ele><time>2026-05-04T09:26:08.749Z</time></trkpt><trkpt lat="41.514099" lon="-0.4527679"><ele>227.5</ele><time>2026-05-04T09:26:09.749Z</time></trkpt><trkpt lat="41.5140844" lon="-0.4526104"><ele>228.0</ele><time>2026-05-04T09:26:10.749Z</time></trkpt><trkpt lat="41.5140707" lon="-0.4524522"><ele>228.5</ele><time>2026-05-04T09:26:11.749Z</time></trkpt><trkpt lat="41.5140485" lon="-0.452289"><ele>229.0</ele><time>2026-05-04T09:26:12.749Z</time></trkpt><trkpt lat="41.5140283" lon="-0.4521271"><ele>229.5</ele><time>2026-05-04T09:26:13.749Z</time></trkpt><trkpt lat="41.5140111" lon="-0.4519655"><ele>230.0</ele><time>2026-05-04T09:26:14.749Z</time></trkpt><trkpt lat="41.5139964" lon="-0.4518017"><ele>230.5</ele><time>2026-05-04T09:26:15.749Z</time></trkpt><trkpt lat="41.5139788" lon="-0.4516374"><ele>231.0</ele><time>2026-05-04T09:26:16.749Z</time></trkpt><trkpt lat="41.5139614" lon="-0.4514693"><ele>231.0</ele><time>2026-05-04T09:26:17.749Z</time></trkpt><trkpt lat="41.5139419" lon="-0.451303"><ele>231.0</ele><time>2026-05-04T09:26:18.749Z</time></trkpt><trkpt lat="41.5139254" lon="-0.4511274"><ele>231.0</ele><time>2026-05-04T09:26:19.749Z</time></trkpt><trkpt lat="41.5139057" lon="-0.4509597"><ele>231.0</ele><time>2026-05-04T09:26:20.749Z</time></trkpt><trkpt lat="41.5138848" lon="-0.4507874"><ele>231.25</ele><time>2026-05-04T09:26:21.749Z</time></trkpt><trkpt lat="41.5138627" lon="-0.4506254"><ele>231.5</ele><time>2026-05-04T09:26:22.748Z</time></trkpt><trkpt lat="41.5138402" lon="-0.4504638"><ele>231.75</ele><time>2026-05-04T09:26:23.749Z</time></trkpt><trkpt lat="41.5138216" lon="-0.4503105"><ele>232.0</ele><time>2026-05-04T09:26:24.749Z</time></trkpt><trkpt lat="41.5138071" lon="-0.4501636"><ele>232.2</ele><time>2026-05-04T09:26:25.749Z</time></trkpt><trkpt lat="41.5137868" lon="-0.4500221"><ele>232.39999999999998</ele><time>2026-05-04T09:26:26.749Z</time></trkpt><trkpt lat="41.5137712" lon="-0.4498894"><ele>232.60000000000002</ele><time>2026-05-04T09:26:27.748Z</time></trkpt><trkpt lat="41.513755" lon="-0.4497536"><ele>232.8</ele><time>2026-05-04T09:26:28.749Z</time></trkpt><trkpt lat="41.5137436" lon="-0.4496195"><ele>233.0</ele><time>2026-05-04T09:26:29.749Z</time></trkpt><trkpt lat="41.5137327" lon="-0.4494936"><ele>234.4</ele><time>2026-05-04T09:26:30.749Z</time></trkpt><trkpt lat="41.5137205" lon="-0.4493683"><ele>235.8</ele><time>2026-05-04T09:26:31.749Z</time></trkpt><trkpt lat="41.5137031" lon="-0.4492323"><ele>237.2</ele><time>2026-05-04T09:26:32.749Z</time></trkpt><trkpt lat="41.5136822" lon="-0.4490952"><ele>238.6</ele><time>2026-05-04T09:26:33.749Z</time></trkpt><trkpt lat="41.5136661" lon="-0.4489554"><ele>240.0</ele><time>2026-05-04T09:26:34.749Z</time></trkpt><trkpt lat="41.5136522" lon="-0.4488108"><ele>239.6</ele><time>2026-05-04T09:26:35.749Z</time></trkpt><trkpt lat="41.5136414" lon="-0.448664"><ele>239.2</ele><time>2026-05-04T09:26:36.749Z</time></trkpt><trkpt lat="41.5136241" lon="-0.4485164"><ele>238.8</ele><time>2026-05-04T09:26:37.749Z</time></trkpt><trkpt lat="41.5136087" lon="-0.4483679"><ele>238.4</ele><time>2026-05-04T09:26:38.749Z</time></trkpt><trkpt lat="41.5135939" lon="-0.4482215"><ele>238.0</ele><time>2026-05-04T09:26:39.749Z</time></trkpt><trkpt lat="41.5135759" lon="-0.4480684"><ele>238.75</ele><time>2026-05-04T09:26:40.749Z</time></trkpt><trkpt lat="41.5135588" lon="-0.44792"><ele>239.5</ele><time>2026-05-04T09:26:41.748Z</time></trkpt><trkpt lat="41.5135388" lon="-0.4477733"><ele>240.25</ele><time>2026-05-04T09:26:42.748Z</time></trkpt><trkpt lat="41.5135206" lon="-0.447623"><ele>241.0</ele><time>2026-05-04T09:26:43.749Z</time></trkpt><trkpt lat="41.5135038" lon="-0.447472"><ele>241.0</ele><time>2026-05-04T09:26:44.749Z</time></trkpt><trkpt lat="41.5134843" lon="-0.4473192"><ele>241.0</ele><time>2026-05-04T09:26:45.749Z</time></trkpt><trkpt lat="41.5134659" lon="-0.4471657"><ele>241.0</ele><time>2026-05-04T09:26:46.749Z</time></trkpt><trkpt lat="41.513453" lon="-0.4470115"><ele>241.0</ele><time>2026-05-04T09:26:47.749Z</time></trkpt><trkpt lat="41.5134378" lon="-0.4468608"><ele>241.5</ele><time>2026-05-04T09:26:48.749Z</time></trkpt><trkpt lat="41.5134206" lon="-0.4467044"><ele>242.0</ele><time>2026-05-04T09:26:49.749Z</time></trkpt><trkpt lat="41.5134029" lon="-0.4465482"><ele>242.5</ele><time>2026-05-04T09:26:50.749Z</time></trkpt><trkpt lat="41.5133848" lon="-0.4463894"><ele>243.0</ele><time>2026-05-04T09:26:51.749Z</time></trkpt><trkpt lat="41.513365" lon="-0.4462301"><ele>243.5</ele><time>2026-05-04T09:26:52.749Z</time></trkpt><trkpt lat="41.5133451" lon="-0.4460715"><ele>244.0</ele><time>2026-05-04T09:26:53.749Z</time></trkpt><trkpt lat="41.51333" lon="-0.4459152"><ele>244.5</ele><time>2026-05-04T09:26:54.749Z</time></trkpt><trkpt lat="41.5133154" lon="-0.4457587"><ele>245.0</ele><time>2026-05-04T09:26:55.748Z</time></trkpt><trkpt lat="41.5133016" lon="-0.4456053"><ele>245.5</ele><time>2026-05-04T09:26:56.748Z</time></trkpt><trkpt lat="41.5132864" lon="-0.4454498"><ele>246.0</ele><time>2026-05-04T09:26:57.749Z</time></trkpt><trkpt lat="41.5132641" lon="-0.4452977"><ele>246.5</ele><time>2026-05-04T09:26:58.749Z</time></trkpt><trkpt lat="41.5132397" lon="-0.4451423"><ele>247.0</ele><time>2026-05-04T09:26:59.749Z</time></trkpt><trkpt lat="41.5132092" lon="-0.4449884"><ele>247.0</ele><time>2026-05-04T09:27:00.748Z</time></trkpt><trkpt lat="41.5131843" lon="-0.4448314"><ele>247.0</ele><time>2026-05-04T09:27:01.748Z</time></trkpt><trkpt lat="41.5131613" lon="-0.4446739"><ele>247.0</ele><time>2026-05-04T09:27:02.749Z</time></trkpt><trkpt lat="41.513138" lon="-0.4445145"><ele>247.0</ele><time>2026-05-04T09:27:03.748Z</time></trkpt><trkpt lat="41.5131097" lon="-0.4443599"><ele>248.0</ele><time>2026-05-04T09:27:04.749Z</time></trkpt><trkpt lat="41.5130822" lon="-0.4442044"><ele>249.0</ele><time>2026-05-04T09:27:05.749Z</time></trkpt><trkpt lat="41.513057" lon="-0.4440463"><ele>250.0</ele><time>2026-05-04T09:27:06.749Z</time></trkpt><trkpt lat="41.5130306" lon="-0.4438879"><ele>251.0</ele><time>2026-05-04T09:27:07.749Z</time></trkpt><trkpt lat="41.5130018" lon="-0.4437292"><ele>251.5</ele><time>2026-05-04T09:27:08.749Z</time></trkpt><trkpt lat="41.5129725" lon="-0.443568"><ele>252.0</ele><time>2026-05-04T09:27:09.748Z</time></trkpt><trkpt lat="41.512943" lon="-0.4434107"><ele>252.5</ele><time>2026-05-04T09:27:10.749Z</time></trkpt><trkpt lat="41.5129179" lon="-0.4432545"><ele>253.0</ele><time>2026-05-04T09:27:11.748Z</time></trkpt><trkpt lat="41.5128923" lon="-0.4430924"><ele>253.5</ele><time>2026-05-04T09:27:12.749Z</time></trkpt><trkpt lat="41.5128639" lon="-0.442933"><ele>254.0</ele><time>2026-05-04T09:27:13.749Z</time></trkpt><trkpt lat="41.5128398" lon="-0.442778"><ele>254.5</ele><time>2026-05-04T09:27:14.749Z</time></trkpt><trkpt lat="41.5128143" lon="-0.4426205"><ele>255.0</ele><time>2026-05-04T09:27:15.75Z</time></trkpt><trkpt lat="41.5127899" lon="-0.4424763"><ele>255.0</ele><time>2026-05-04T09:27:16.75Z</time></trkpt><trkpt lat="41.5127652" lon="-0.4423307"><ele>255.0</ele><time>2026-05-04T09:27:17.75Z</time></trkpt><trkpt lat="41.5127459" lon="-0.4421879"><ele>255.0</ele><time>2026-05-04T09:27:18.75Z</time></trkpt><trkpt lat="41.5127189" lon="-0.4420455"><ele>255.0</ele><time>2026-05-04T09:27:19.75Z</time></trkpt><trkpt lat="41.5126919" lon="-0.4419055"><ele>255.0</ele><time>2026-05-04T09:27:20.75Z</time></trkpt><trkpt lat="41.5126683" lon="-0.4417618"><ele>255.6</ele><time>2026-05-04T09:27:21.75Z</time></trkpt><trkpt lat="41.5126444" lon="-0.4416221"><ele>256.2</ele><time>2026-05-04T09:27:22.75Z</time></trkpt><trkpt lat="41.5126206" lon="-0.441481"><ele>256.8</ele><time>2026-05-04T09:27:23.749Z</time></trkpt><trkpt lat="41.5125992" lon="-0.4413321"><ele>257.4</ele><time>2026-05-04T09:27:24.75Z</time></trkpt><trkpt lat="41.5125761" lon="-0.4411857"><ele>258.0</ele><time>2026-05-04T09:27:25.749Z</time></trkpt><trkpt lat="41.5125624" lon="-0.4410292"><ele>258.5</ele><time>2026-05-04T09:27:26.75Z</time></trkpt><trkpt lat="41.5125462" lon="-0.4408755"><ele>259.0</ele><time>2026-05-04T09:27:27.75Z</time></trkpt><trkpt lat="41.5125337" lon="-0.4407201"><ele>259.5</ele><time>2026-05-04T09:27:28.75Z</time></trkpt><trkpt lat="41.5125228" lon="-0.4405565"><ele>260.0</ele><time>2026-05-04T09:27:29.749Z</time></trkpt><trkpt lat="41.5125159" lon="-0.4403937"><ele>260.5</ele><time>2026-05-04T09:27:30.75Z</time></trkpt><trkpt lat="41.5125072" lon="-0.4402264"><ele>261.0</ele><time>2026-05-04T09:27:31.75Z</time></trkpt><trkpt lat="41.5125001" lon="-0.4400622"><ele>261.5</ele><time>2026-05-04T09:27:32.749Z</time></trkpt><trkpt lat="41.5124897" lon="-0.439897"><ele>262.0</ele><time>2026-05-04T09:27:33.75Z</time></trkpt><trkpt lat="41.5124849" lon="-0.4397287"><ele>261.25</ele><time>2026-05-04T09:27:34.749Z</time></trkpt><trkpt lat="41.5124758" lon="-0.4395635"><ele>260.5</ele><time>2026-05-04T09:27:35.75Z</time></trkpt><trkpt lat="41.51247" lon="-0.4394011"><ele>259.75</ele><time>2026-05-04T09:27:36.75Z</time></trkpt><trkpt lat="41.5124621" lon="-0.4392317"><ele>259.0</ele><time>2026-05-04T09:27:37.749Z</time></trkpt><trkpt lat="41.5124553" lon="-0.4390722"><ele>259.0</ele><time>2026-05-04T09:27:38.749Z</time></trkpt><trkpt lat="41.512451" lon="-0.4389073"><ele>259.0</ele><time>2026-05-04T09:27:39.75Z</time></trkpt><trkpt lat="41.5124447" lon="-0.438746"><ele>259.0</ele><time>2026-05-04T09:27:40.75Z</time></trkpt><trkpt lat="41.5124357" lon="-0.4385791"><ele>259.0</ele><time>2026-05-04T09:27:41.75Z</time></trkpt><trkpt lat="41.5124282" lon="-0.4384093"><ele>258.75</ele><time>2026-05-04T09:27:42.75Z</time></trkpt><trkpt lat="41.5124219" lon="-0.4382435"><ele>258.5</ele><time>2026-05-04T09:27:43.75Z</time></trkpt><trkpt lat="41.5124143" lon="-0.4380808"><ele>258.25</ele><time>2026-05-04T09:27:44.749Z</time></trkpt><trkpt lat="41.5124077" lon="-0.4379175"><ele>258.0</ele><time>2026-05-04T09:27:45.749Z</time></trkpt><trkpt lat="41.5124002" lon="-0.4377495"><ele>258.0</ele><time>2026-05-04T09:27:46.75Z</time></trkpt><trkpt lat="41.5123908" lon="-0.4375837"><ele>258.0</ele><time>2026-05-04T09:27:47.75Z</time></trkpt><trkpt lat="41.5123829" lon="-0.4374164"><ele>258.0</ele><time>2026-05-04T09:27:48.749Z</time></trkpt><trkpt lat="41.5123779" lon="-0.4372481"><ele>258.0</ele><time>2026-05-04T09:27:49.75Z</time></trkpt><trkpt lat="41.5123702" lon="-0.4370808"><ele>258.0</ele><time>2026-05-04T09:27:50.749Z</time></trkpt><trkpt lat="41.5123626" lon="-0.4369153"><ele>258.0</ele><time>2026-05-04T09:27:51.75Z</time></trkpt><trkpt lat="41.5123526" lon="-0.4367488"><ele>258.0</ele><time>2026-05-04T09:27:52.75Z</time></trkpt><trkpt lat="41.5123472" lon="-0.4365825"><ele>258.0</ele><time>2026-05-04T09:27:53.749Z</time></trkpt><trkpt lat="41.5123405" lon="-0.4364164"><ele>258.0</ele><time>2026-05-04T09:27:54.75Z</time></trkpt><trkpt lat="41.5123372" lon="-0.4362523"><ele>258.0</ele><time>2026-05-04T09:27:55.749Z</time></trkpt><trkpt lat="41.5123299" lon="-0.4360828"><ele>258.0</ele><time>2026-05-04T09:27:56.75Z</time></trkpt><trkpt lat="41.5123273" lon="-0.4359143"><ele>258.0</ele><time>2026-05-04T09:27:57.75Z</time></trkpt><trkpt lat="41.5123215" lon="-0.435743"><ele>258.0</ele><time>2026-05-04T09:27:58.75Z</time></trkpt><trkpt lat="41.5123133" lon="-0.4355752"><ele>258.0</ele><time>2026-05-04T09:27:59.75Z</time></trkpt><trkpt lat="41.5123089" lon="-0.4353989"><ele>258.0</ele><time>2026-05-04T09:28:00.75Z</time></trkpt><trkpt lat="41.5122991" lon="-0.4352162"><ele>258.0</ele><time>2026-05-04T09:28:01.749Z</time></trkpt><trkpt lat="41.5122917" lon="-0.4350352"><ele>257.75</ele><time>2026-05-04T09:28:02.749Z</time></trkpt><trkpt lat="41.5122822" lon="-0.4348481"><ele>257.5</ele><time>2026-05-04T09:28:03.749Z</time></trkpt><trkpt lat="41.5122729" lon="-0.4346715"><ele>257.25</ele><time>2026-05-04T09:28:04.75Z</time></trkpt><trkpt lat="41.5122648" lon="-0.4344879"><ele>257.0</ele><time>2026-05-04T09:28:05.749Z</time></trkpt><trkpt lat="41.5122558" lon="-0.4343028"><ele>256.75</ele><time>2026-05-04T09:28:06.75Z</time></trkpt><trkpt lat="41.5122497" lon="-0.4341156"><ele>256.5</ele><time>2026-05-04T09:28:07.75Z</time></trkpt><trkpt lat="41.5122419" lon="-0.433928"><ele>256.25</ele><time>2026-05-04T09:28:08.75Z</time></trkpt><trkpt lat="41.512236" lon="-0.4337353"><ele>256.0</ele><time>2026-05-04T09:28:09.749Z</time></trkpt><trkpt lat="41.5122286" lon="-0.4335422"><ele>255.75</ele><time>2026-05-04T09:28:10.75Z</time></trkpt><trkpt lat="41.5122231" lon="-0.4333506"><ele>255.5</ele><time>2026-05-04T09:28:11.75Z</time></trkpt><trkpt lat="41.512213" lon="-0.4331598"><ele>255.25</ele><time>2026-05-04T09:28:12.749Z</time></trkpt><trkpt lat="41.5122032" lon="-0.4329701"><ele>255.0</ele><time>2026-05-04T09:28:13.75Z</time></trkpt><trkpt lat="41.5121969" lon="-0.4327823"><ele>255.0</ele><time>2026-05-04T09:28:14.75Z</time></trkpt><trkpt lat="41.5121915" lon="-0.4325839"><ele>255.0</ele><time>2026-05-04T09:28:15.75Z</time></trkpt><trkpt lat="41.5121827" lon="-0.4323928"><ele>255.0</ele><time>2026-05-04T09:28:16.75Z</time></trkpt><trkpt lat="41.5121793" lon="-0.4321998"><ele>255.0</ele><time>2026-05-04T09:28:17.75Z</time></trkpt><trkpt lat="41.5121699" lon="-0.4320088"><ele>255.0</ele><time>2026-05-04T09:28:18.749Z</time></trkpt><trkpt lat="41.5121611" lon="-0.4318208"><ele>255.0</ele><time>2026-05-04T09:28:19.75Z</time></trkpt><trkpt lat="41.5121506" lon="-0.4316276"><ele>255.0</ele><time>2026-05-04T09:28:20.75Z</time></trkpt><trkpt lat="41.5121408" lon="-0.4314317"><ele>255.0</ele><time>2026-05-04T09:28:21.75Z</time></trkpt><trkpt lat="41.5121296" lon="-0.4312374"><ele>254.75</ele><time>2026-05-04T09:28:22.749Z</time></trkpt><trkpt lat="41.5121147" lon="-0.4310446"><ele>254.5</ele><time>2026-05-04T09:28:23.75Z</time></trkpt><trkpt lat="41.5120933" lon="-0.4308602"><ele>254.25</ele><time>2026-05-04T09:28:24.75Z</time></trkpt><trkpt lat="41.5120686" lon="-0.4306666"><ele>254.0</ele><time>2026-05-04T09:28:25.75Z</time></trkpt><trkpt lat="41.5120461" lon="-0.4304728"><ele>255.0</ele><time>2026-05-04T09:28:26.75Z</time></trkpt><trkpt lat="41.5120279" lon="-0.4302788"><ele>256.0</ele><time>2026-05-04T09:28:27.75Z</time></trkpt><trkpt lat="41.5120096" lon="-0.4300869"><ele>257.0</ele><time>2026-05-04T09:28:28.75Z</time></trkpt><trkpt lat="41.5119867" lon="-0.4298937"><ele>258.0</ele><time>2026-05-04T09:28:29.75Z</time></trkpt><trkpt lat="41.511962" lon="-0.4297094"><ele>257.5</ele><time>2026-05-04T09:28:30.75Z</time></trkpt><trkpt lat="41.5119357" lon="-0.4295143"><ele>257.0</ele><time>2026-05-04T09:28:31.75Z</time></trkpt><trkpt lat="41.5119103" lon="-0.4293222"><ele>256.5</ele><time>2026-05-04T09:28:32.75Z</time></trkpt><trkpt lat="41.5118884" lon="-0.4291287"><ele>256.0</ele><time>2026-05-04T09:28:33.75Z</time></trkpt><trkpt lat="41.5118592" lon="-0.4289338"><ele>256.0</ele><time>2026-05-04T09:28:34.749Z</time></trkpt><trkpt lat="41.5118332" lon="-0.4287538"><ele>256.0</ele><time>2026-05-04T09:28:35.75Z</time></trkpt><trkpt lat="41.5118083" lon="-0.4285672"><ele>256.0</ele><time>2026-05-04T09:28:36.75Z</time></trkpt><trkpt lat="41.5117857" lon="-0.4283861"><ele>256.0</ele><time>2026-05-04T09:28:37.75Z</time></trkpt><trkpt lat="41.5117643" lon="-0.4281996"><ele>256.0</ele><time>2026-05-04T09:28:38.75Z</time></trkpt><trkpt lat="41.5117445" lon="-0.4280174"><ele>256.0</ele><time>2026-05-04T09:28:39.75Z</time></trkpt><trkpt lat="41.5117196" lon="-0.4278383"><ele>256.0</ele><time>2026-05-04T09:28:40.75Z</time></trkpt><trkpt lat="41.5116985" lon="-0.4276632"><ele>256.0</ele><time>2026-05-04T09:28:41.75Z</time></trkpt><trkpt lat="41.511682" lon="-0.4274857"><ele>255.75</ele><time>2026-05-04T09:28:42.75Z</time></trkpt><trkpt lat="41.5116583" lon="-0.4273118"><ele>255.5</ele><time>2026-05-04T09:28:43.75Z</time></trkpt><trkpt lat="41.5116375" lon="-0.4271363"><ele>255.25</ele><time>2026-05-04T09:28:44.749Z</time></trkpt><trkpt lat="41.5116121" lon="-0.426965"><ele>255.0</ele><time>2026-05-04T09:28:45.75Z</time></trkpt><trkpt lat="41.5115875" lon="-0.4267918"><ele>255.0</ele><time>2026-05-04T09:28:46.75Z</time></trkpt><trkpt lat="41.5115665" lon="-0.4266162"><ele>255.0</ele><time>2026-05-04T09:28:47.75Z</time></trkpt><trkpt lat="41.5115415" lon="-0.4264364"><ele>255.0</ele><time>2026-05-04T09:28:48.75Z</time></trkpt><trkpt lat="41.5115216" lon="-0.4262669"><ele>255.0</ele><time>2026-05-04T09:28:49.75Z</time></trkpt><trkpt lat="41.5114985" lon="-0.4260949"><ele>255.5</ele><time>2026-05-04T09:28:50.749Z</time></trkpt><trkpt lat="41.5114778" lon="-0.425927"><ele>256.0</ele><time>2026-05-04T09:28:51.75Z</time></trkpt><trkpt lat="41.5114586" lon="-0.4257577"><ele>256.5</ele><time>2026-05-04T09:28:52.75Z</time></trkpt><trkpt lat="41.5114368" lon="-0.4255882"><ele>257.0</ele><time>2026-05-04T09:28:53.75Z</time></trkpt><trkpt lat="41.5114142" lon="-0.4254191"><ele>257.0</ele><time>2026-05-04T09:28:54.75Z</time></trkpt><trkpt lat="41.5113977" lon="-0.4252473"><ele>257.0</ele><time>2026-05-04T09:28:55.75Z</time></trkpt><trkpt lat="41.5113753" lon="-0.4250705"><ele>257.0</ele><time>2026-05-04T09:28:56.75Z</time></trkpt><trkpt lat="41.5113523" lon="-0.4248955"><ele>257.0</ele><time>2026-05-04T09:28:57.75Z</time></trkpt><trkpt lat="41.5113315" lon="-0.4247227"><ele>257.0</ele><time>2026-05-04T09:28:58.75Z</time></trkpt><trkpt lat="41.5113102" lon="-0.4245513"><ele>257.0</ele><time>2026-05-04T09:28:59.749Z</time></trkpt><trkpt lat="41.5112904" lon="-0.4243766"><ele>257.0</ele><time>2026-05-04T09:29:00.75Z</time></trkpt><trkpt lat="41.5112735" lon="-0.4241997"><ele>257.0</ele><time>2026-05-04T09:29:01.749Z</time></trkpt><trkpt lat="41.5112526" lon="-0.4240235"><ele>257.5</ele><time>2026-05-04T09:29:02.75Z</time></trkpt><trkpt lat="41.5112292" lon="-0.4238442"><ele>258.0</ele><time>2026-05-04T09:29:03.75Z</time></trkpt><trkpt lat="41.5112071" lon="-0.4236646"><ele>258.5</ele><time>2026-05-04T09:29:04.75Z</time></trkpt><trkpt lat="41.5111862" lon="-0.4234833"><ele>259.0</ele><time>2026-05-04T09:29:05.75Z</time></trkpt><trkpt lat="41.5111616" lon="-0.4233063"><ele>259.0</ele><time>2026-05-04T09:29:06.75Z</time></trkpt><trkpt lat="41.5111384" lon="-0.4231242"><ele>259.0</ele><time>2026-05-04T09:29:07.75Z</time></trkpt><trkpt lat="41.5111148" lon="-0.422939"><ele>259.0</ele><time>2026-05-04T09:29:08.749Z</time></trkpt><trkpt lat="41.5110921" lon="-0.4227581"><ele>259.0</ele><time>2026-05-04T09:29:09.75Z</time></trkpt><trkpt lat="41.5110688" lon="-0.4225782"><ele>259.25</ele><time>2026-05-04T09:29:10.75Z</time></trkpt><trkpt lat="41.511049" lon="-0.4223951"><ele>259.5</ele><time>2026-05-04T09:29:11.75Z</time></trkpt><trkpt lat="41.5110249" lon="-0.4222096"><ele>259.75</ele><time>2026-05-04T09:29:12.75Z</time></trkpt><trkpt lat="41.5110033" lon="-0.4220241"><ele>260.0</ele><time>2026-05-04T09:29:13.75Z</time></trkpt><trkpt lat="41.5109816" lon="-0.4218403"><ele>260.25</ele><time>2026-05-04T09:29:14.75Z</time></trkpt><trkpt lat="41.5109595" lon="-0.4216573"><ele>260.5</ele><time>2026-05-04T09:29:15.75Z</time></trkpt><trkpt lat="41.510937" lon="-0.4214719"><ele>260.75</ele><time>2026-05-04T09:29:16.75Z</time></trkpt><trkpt lat="41.5109134" lon="-0.42129"><ele>261.0</ele><time>2026-05-04T09:29:17.75Z</time></trkpt><trkpt lat="41.5108909" lon="-0.4211103"><ele>261.75</ele><time>2026-05-04T09:29:18.751Z</time></trkpt><trkpt lat="41.5108702" lon="-0.4209264"><ele>262.5</ele><time>2026-05-04T09:29:19.751Z</time></trkpt><trkpt lat="41.5108473" lon="-0.4207502"><ele>263.25</ele><time>2026-05-04T09:29:20.75Z</time></trkpt><trkpt lat="41.5108204" lon="-0.4205731"><ele>264.0</ele><time>2026-05-04T09:29:21.75Z</time></trkpt><trkpt lat="41.5107995" lon="-0.4203985"><ele>264.0</ele><time>2026-05-04T09:29:22.751Z</time></trkpt><trkpt lat="41.5107783" lon="-0.4202245"><ele>264.0</ele><time>2026-05-04T09:29:23.75Z</time></trkpt><trkpt lat="41.5107568" lon="-0.420049"><ele>264.0</ele><time>2026-05-04T09:29:24.751Z</time></trkpt><trkpt lat="41.5107368" lon="-0.4198802"><ele>264.0</ele><time>2026-05-04T09:29:25.751Z</time></trkpt><trkpt lat="41.510715" lon="-0.4197219"><ele>264.0</ele><time>2026-05-04T09:29:26.751Z</time></trkpt><trkpt lat="41.5106957" lon="-0.419558"><ele>264.0</ele><time>2026-05-04T09:29:27.751Z</time></trkpt><trkpt lat="41.5106757" lon="-0.4193884"><ele>264.0</ele><time>2026-05-04T09:29:28.751Z</time></trkpt><trkpt lat="41.5106549" lon="-0.4192196"><ele>264.0</ele><time>2026-05-04T09:29:29.751Z</time></trkpt><trkpt lat="41.5106314" lon="-0.4190536"><ele>264.0</ele><time>2026-05-04T09:29:30.751Z</time></trkpt><trkpt lat="41.5106119" lon="-0.4188787"><ele>264.0</ele><time>2026-05-04T09:29:31.751Z</time></trkpt><trkpt lat="41.5105903" lon="-0.4187014"><ele>264.0</ele><time>2026-05-04T09:29:32.751Z</time></trkpt><trkpt lat="41.510569" lon="-0.4185225"><ele>264.0</ele><time>2026-05-04T09:29:33.751Z</time></trkpt><trkpt lat="41.5105498" lon="-0.4183422"><ele>263.75</ele><time>2026-05-04T09:29:34.751Z</time></trkpt><trkpt lat="41.5105263" lon="-0.4181649"><ele>263.5</ele><time>2026-05-04T09:29:35.751Z</time></trkpt><trkpt lat="41.5105047" lon="-0.4179854"><ele>263.25</ele><time>2026-05-04T09:29:36.751Z</time></trkpt><trkpt lat="41.5104844" lon="-0.4178002"><ele>263.0</ele><time>2026-05-04T09:29:37.751Z</time></trkpt><trkpt lat="41.5104676" lon="-0.4176147"><ele>262.75</ele><time>2026-05-04T09:29:38.751Z</time></trkpt><trkpt lat="41.5104476" lon="-0.4174413"><ele>262.5</ele><time>2026-05-04T09:29:39.75Z</time></trkpt><trkpt lat="41.5104327" lon="-0.417262"><ele>262.25</ele><time>2026-05-04T09:29:40.751Z</time></trkpt><trkpt lat="41.5104138" lon="-0.4170872"><ele>262.0</ele><time>2026-05-04T09:29:41.751Z</time></trkpt><trkpt lat="41.5104019" lon="-0.4169131"><ele>262.75</ele><time>2026-05-04T09:29:42.751Z</time></trkpt><trkpt lat="41.5103863" lon="-0.4167357"><ele>263.5</ele><time>2026-05-04T09:29:43.75Z</time></trkpt><trkpt lat="41.5103732" lon="-0.4165523"><ele>264.25</ele><time>2026-05-04T09:29:44.751Z</time></trkpt><trkpt lat="41.5103605" lon="-0.416369"><ele>265.0</ele><time>2026-05-04T09:29:45.751Z</time></trkpt><trkpt lat="41.5103514" lon="-0.4161845"><ele>265.5</ele><time>2026-05-04T09:29:46.75Z</time></trkpt><trkpt lat="41.5103448" lon="-0.416004"><ele>266.0</ele><time>2026-05-04T09:29:47.751Z</time></trkpt><trkpt lat="41.5103403" lon="-0.4158249"><ele>266.5</ele><time>2026-05-04T09:29:48.751Z</time></trkpt><trkpt lat="41.5103359" lon="-0.4156395"><ele>267.0</ele><time>2026-05-04T09:29:49.751Z</time></trkpt><trkpt lat="41.5103346" lon="-0.4154566"><ele>267.0</ele><time>2026-05-04T09:29:50.751Z</time></trkpt><trkpt lat="41.5103359" lon="-0.4152738"><ele>267.0</ele><time>2026-05-04T09:29:51.75Z</time></trkpt><trkpt lat="41.5103423" lon="-0.4150982"><ele>267.0</ele><time>2026-05-04T09:29:52.751Z</time></trkpt><trkpt lat="41.5103483" lon="-0.414911"><ele>267.0</ele><time>2026-05-04T09:29:53.75Z</time></trkpt><trkpt lat="41.510352" lon="-0.4147248"><ele>267.25</ele><time>2026-05-04T09:29:54.751Z</time></trkpt><trkpt lat="41.5103593" lon="-0.414544"><ele>267.5</ele><time>2026-05-04T09:29:55.751Z</time></trkpt><trkpt lat="41.5103699" lon="-0.4143653"><ele>267.75</ele><time>2026-05-04T09:29:56.751Z</time></trkpt><trkpt lat="41.5103849" lon="-0.4141835"><ele>268.0</ele><time>2026-05-04T09:29:57.751Z</time></trkpt><trkpt lat="41.5104038" lon="-0.4139987"><ele>267.75</ele><time>2026-05-04T09:29:58.751Z</time></trkpt><trkpt lat="41.5104215" lon="-0.4138172"><ele>267.5</ele><time>2026-05-04T09:29:59.751Z</time></trkpt><trkpt lat="41.5104392" lon="-0.4136313"><ele>267.25</ele><time>2026-05-04T09:30:00.75Z</time></trkpt><trkpt lat="41.5104638" lon="-0.4134454"><ele>267.0</ele><time>2026-05-04T09:30:01.751Z</time></trkpt><trkpt lat="41.5104886" lon="-0.4132645"><ele>267.0</ele><time>2026-05-04T09:30:02.751Z</time></trkpt><trkpt lat="41.5105179" lon="-0.4130806"><ele>267.0</ele><time>2026-05-04T09:30:03.751Z</time></trkpt><trkpt lat="41.5105475" lon="-0.4128967"><ele>267.0</ele><time>2026-05-04T09:30:04.75Z</time></trkpt><trkpt lat="41.5105793" lon="-0.412718"><ele>267.0</ele><time>2026-05-04T09:30:05.751Z</time></trkpt><trkpt lat="41.5106132" lon="-0.4125329"><ele>267.5</ele><time>2026-05-04T09:30:06.751Z</time></trkpt><trkpt lat="41.5106448" lon="-0.4123497"><ele>268.0</ele><time>2026-05-04T09:30:07.75Z</time></trkpt><trkpt lat="41.5106785" lon="-0.4121625"><ele>268.5</ele><time>2026-05-04T09:30:08.751Z</time></trkpt><trkpt lat="41.5107143" lon="-0.411981"><ele>269.0</ele><time>2026-05-04T09:30:09.75Z</time></trkpt><trkpt lat="41.5107516" lon="-0.4118078"><ele>269.25</ele><time>2026-05-04T09:30:10.751Z</time></trkpt><trkpt lat="41.5107901" lon="-0.4116303"><ele>269.5</ele><time>2026-05-04T09:30:11.751Z</time></trkpt><trkpt lat="41.5108281" lon="-0.4114514"><ele>269.75</ele><time>2026-05-04T09:30:12.751Z</time></trkpt><trkpt lat="41.5108619" lon="-0.4112724"><ele>270.0</ele><time>2026-05-04T09:30:13.75Z</time></trkpt><trkpt lat="41.5109055" lon="-0.4110968"><ele>270.0</ele><time>2026-05-04T09:30:14.751Z</time></trkpt><trkpt lat="41.5109443" lon="-0.4109271"><ele>270.0</ele><time>2026-05-04T09:30:15.751Z</time></trkpt><trkpt lat="41.5109923" lon="-0.410749"><ele>270.0</ele><time>2026-05-04T09:30:16.751Z</time></trkpt><trkpt lat="41.5110327" lon="-0.4105751"><ele>270.0</ele><time>2026-05-04T09:30:17.751Z</time></trkpt><trkpt lat="41.5110718" lon="-0.4103991"><ele>271.25</ele><time>2026-05-04T09:30:18.75Z</time></trkpt><trkpt lat="41.5111103" lon="-0.4102227"><ele>272.5</ele><time>2026-05-04T09:30:19.751Z</time></trkpt><trkpt lat="41.5111508" lon="-0.4100486"><ele>273.75</ele><time>2026-05-04T09:30:20.75Z</time></trkpt><trkpt lat="41.5111877" lon="-0.4098814"><ele>275.0</ele><time>2026-05-04T09:30:21.751Z</time></trkpt><trkpt lat="41.5112274" lon="-0.4097098"><ele>274.25</ele><time>2026-05-04T09:30:22.751Z</time></trkpt><trkpt lat="41.5112683" lon="-0.409537"><ele>273.5</ele><time>2026-05-04T09:30:23.751Z</time></trkpt><trkpt lat="41.5113097" lon="-0.409369"><ele>272.75</ele><time>2026-05-04T09:30:24.751Z</time></trkpt><trkpt lat="41.5113456" lon="-0.4092002"><ele>272.0</ele><time>2026-05-04T09:30:25.751Z</time></trkpt><trkpt lat="41.5113813" lon="-0.4090318"><ele>272.0</ele><time>2026-05-04T09:30:26.751Z</time></trkpt><trkpt lat="41.5114203" lon="-0.4088693"><ele>272.0</ele><time>2026-05-04T09:30:27.751Z</time></trkpt><trkpt lat="41.5114584" lon="-0.4087078"><ele>272.0</ele><time>2026-05-04T09:30:28.75Z</time></trkpt><trkpt lat="41.511499" lon="-0.4085454"><ele>272.0</ele><time>2026-05-04T09:30:29.751Z</time></trkpt><trkpt lat="41.5115365" lon="-0.408381"><ele>272.25</ele><time>2026-05-04T09:30:30.751Z</time></trkpt><trkpt lat="41.5115686" lon="-0.4082155"><ele>272.5</ele><time>2026-05-04T09:30:31.75Z</time></trkpt><trkpt lat="41.5116015" lon="-0.4080439"><ele>272.75</ele><time>2026-05-04T09:30:32.751Z</time></trkpt><trkpt lat="41.5116408" lon="-0.4078742"><ele>273.0</ele><time>2026-05-04T09:30:33.751Z</time></trkpt><trkpt lat="41.5116782" lon="-0.4077109"><ele>273.5</ele><time>2026-05-04T09:30:34.751Z</time></trkpt><trkpt lat="41.5117189" lon="-0.4075443"><ele>274.0</ele><time>2026-05-04T09:30:35.751Z</time></trkpt><trkpt lat="41.5117575" lon="-0.4073771"><ele>274.5</ele><time>2026-05-04T09:30:36.751Z</time></trkpt><trkpt lat="41.5117935" lon="-0.4072115"><ele>275.0</ele><time>2026-05-04T09:30:37.751Z</time></trkpt><trkpt lat="41.511829" lon="-0.4070401"><ele>276.0</ele><time>2026-05-04T09:30:38.751Z</time></trkpt><trkpt lat="41.5118647" lon="-0.4068685"><ele>277.0</ele><time>2026-05-04T09:30:39.751Z</time></trkpt><trkpt lat="41.5119042" lon="-0.4066986"><ele>278.0</ele><time>2026-05-04T09:30:40.751Z</time></trkpt><trkpt lat="41.5119458" lon="-0.4065317"><ele>279.0</ele><time>2026-05-04T09:30:41.751Z</time></trkpt><trkpt lat="41.5119873" lon="-0.4063659"><ele>278.75</ele><time>2026-05-04T09:30:42.751Z</time></trkpt><trkpt lat="41.5120253" lon="-0.4062083"><ele>278.5</ele><time>2026-05-04T09:30:43.751Z</time></trkpt><trkpt lat="41.5120588" lon="-0.4060496"><ele>278.25</ele><time>2026-05-04T09:30:44.751Z</time></trkpt><trkpt lat="41.5120917" lon="-0.4058878"><ele>278.0</ele><time>2026-05-04T09:30:45.75Z</time></trkpt><trkpt lat="41.5121266" lon="-0.4057291"><ele>278.0</ele><time>2026-05-04T09:30:46.751Z</time></trkpt><trkpt lat="41.5121618" lon="-0.4055753"><ele>278.0</ele><time>2026-05-04T09:30:47.751Z</time></trkpt><trkpt lat="41.5121986" lon="-0.405422"><ele>278.0</ele><time>2026-05-04T09:30:48.751Z</time></trkpt><trkpt lat="41.5122279" lon="-0.4052651"><ele>278.0</ele><time>2026-05-04T09:30:49.75Z</time></trkpt><trkpt lat="41.5122553" lon="-0.4051121"><ele>278.25</ele><time>2026-05-04T09:30:50.751Z</time></trkpt><trkpt lat="41.5122833" lon="-0.4049584"><ele>278.5</ele><time>2026-05-04T09:30:51.75Z</time></trkpt><trkpt lat="41.512311" lon="-0.4047925"><ele>278.75</ele><time>2026-05-04T09:30:52.751Z</time></trkpt><trkpt lat="41.5123347" lon="-0.4046303"><ele>279.0</ele><time>2026-05-04T09:30:53.751Z</time></trkpt><trkpt lat="41.512357" lon="-0.4044601"><ele>279.25</ele><time>2026-05-04T09:30:54.751Z</time></trkpt><trkpt lat="41.5123765" lon="-0.4042902"><ele>279.5</ele><time>2026-05-04T09:30:55.751Z</time></trkpt><trkpt lat="41.5123889" lon="-0.4041098"><ele>279.75</ele><time>2026-05-04T09:30:56.751Z</time></trkpt><trkpt lat="41.5124012" lon="-0.4039303"><ele>280.0</ele><time>2026-05-04T09:30:57.751Z</time></trkpt><trkpt lat="41.5124084" lon="-0.4037507"><ele>280.0</ele><time>2026-05-04T09:30:58.751Z</time></trkpt><trkpt lat="41.5124113" lon="-0.4035653"><ele>280.0</ele><time>2026-05-04T09:30:59.751Z</time></trkpt><trkpt lat="41.5124076" lon="-0.4033826"><ele>280.0</ele><time>2026-05-04T09:31:00.751Z</time></trkpt><trkpt lat="41.5123998" lon="-0.4032011"><ele>280.0</ele><time>2026-05-04T09:31:01.75Z</time></trkpt><trkpt lat="41.5123942" lon="-0.403018"><ele>280.25</ele><time>2026-05-04T09:31:02.751Z</time></trkpt><trkpt lat="41.5123835" lon="-0.4028354"><ele>280.5</ele><time>2026-05-04T09:31:03.751Z</time></trkpt><trkpt lat="41.5123649" lon="-0.4026536"><ele>280.75</ele><time>2026-05-04T09:31:04.751Z</time></trkpt><trkpt lat="41.5123401" lon="-0.4024736"><ele>281.0</ele><time>2026-05-04T09:31:05.751Z</time></trkpt><trkpt lat="41.5123133" lon="-0.402298"><ele>281.75</ele><time>2026-05-04T09:31:06.75Z</time></trkpt><trkpt lat="41.5122821" lon="-0.4021198"><ele>282.5</ele><time>2026-05-04T09:31:07.751Z</time></trkpt><trkpt lat="41.51225" lon="-0.4019408"><ele>283.25</ele><time>2026-05-04T09:31:08.751Z</time></trkpt><trkpt lat="41.5122142" lon="-0.4017692"><ele>284.0</ele><time>2026-05-04T09:31:09.751Z</time></trkpt><trkpt lat="41.5121747" lon="-0.4015952"><ele>284.0</ele><time>2026-05-04T09:31:10.751Z</time></trkpt><trkpt lat="41.5121301" lon="-0.4014287"><ele>284.0</ele><time>2026-05-04T09:31:11.75Z</time></trkpt><trkpt lat="41.5120812" lon="-0.4012619"><ele>284.0</ele><time>2026-05-04T09:31:12.751Z</time></trkpt><trkpt lat="41.5120297" lon="-0.4010955"><ele>284.0</ele><time>2026-05-04T09:31:13.751Z</time></trkpt><trkpt lat="41.5119743" lon="-0.4009342"><ele>284.75</ele><time>2026-05-04T09:31:14.751Z</time></trkpt><trkpt lat="41.5119205" lon="-0.4007789"><ele>285.5</ele><time>2026-05-04T09:31:15.751Z</time></trkpt><trkpt lat="41.5118663" lon="-0.4006283"><ele>286.25</ele><time>2026-05-04T09:31:16.751Z</time></trkpt><trkpt lat="41.5118076" lon="-0.4004878"><ele>287.0</ele><time>2026-05-04T09:31:17.751Z</time></trkpt><trkpt lat="41.5117483" lon="-0.4003471"><ele>287.0</ele><time>2026-05-04T09:31:18.751Z</time></trkpt><trkpt lat="41.5116899" lon="-0.4002113"><ele>287.0</ele><time>2026-05-04T09:31:19.752Z</time></trkpt><trkpt lat="41.5116224" lon="-0.4000717"><ele>287.0</ele><time>2026-05-04T09:31:20.752Z</time></trkpt><trkpt lat="41.5115563" lon="-0.3999318"><ele>287.0</ele><time>2026-05-04T09:31:21.752Z</time></trkpt><trkpt lat="41.5114796" lon="-0.3997967"><ele>287.75</ele><time>2026-05-04T09:31:22.752Z</time></trkpt><trkpt lat="41.5114029" lon="-0.3996608"><ele>288.5</ele><time>2026-05-04T09:31:23.752Z</time></trkpt><trkpt lat="41.5113197" lon="-0.3995253"><ele>289.25</ele><time>2026-05-04T09:31:24.752Z</time></trkpt><trkpt lat="41.5112355" lon="-0.3993969"><ele>290.0</ele><time>2026-05-04T09:31:25.752Z</time></trkpt><trkpt lat="41.511151" lon="-0.3992683"><ele>290.0</ele><time>2026-05-04T09:31:26.751Z</time></trkpt><trkpt lat="41.5110646" lon="-0.3991394"><ele>290.0</ele><time>2026-05-04T09:31:27.752Z</time></trkpt><trkpt lat="41.5109777" lon="-0.3990077"><ele>290.0</ele><time>2026-05-04T09:31:28.752Z</time></trkpt><trkpt lat="41.5108889" lon="-0.3988795"><ele>290.0</ele><time>2026-05-04T09:31:29.752Z</time></trkpt><trkpt lat="41.5108026" lon="-0.3987483"><ele>290.75</ele><time>2026-05-04T09:31:30.752Z</time></trkpt><trkpt lat="41.5107187" lon="-0.3986137"><ele>291.5</ele><time>2026-05-04T09:31:31.751Z</time></trkpt><trkpt lat="41.5106355" lon="-0.3984828"><ele>292.25</ele><time>2026-05-04T09:31:32.752Z</time></trkpt><trkpt lat="41.5105495" lon="-0.3983522"><ele>293.0</ele><time>2026-05-04T09:31:33.752Z</time></trkpt><trkpt lat="41.510463" lon="-0.39822"><ele>293.5</ele><time>2026-05-04T09:31:34.752Z</time></trkpt><trkpt lat="41.5103782" lon="-0.3980893"><ele>294.0</ele><time>2026-05-04T09:31:35.752Z</time></trkpt><trkpt lat="41.5102935" lon="-0.3979574"><ele>294.5</ele><time>2026-05-04T09:31:36.752Z</time></trkpt><trkpt lat="41.5102105" lon="-0.3978289"><ele>295.0</ele><time>2026-05-04T09:31:37.752Z</time></trkpt><trkpt lat="41.510126" lon="-0.397704"><ele>295.0</ele><time>2026-05-04T09:31:38.752Z</time></trkpt><trkpt lat="41.5100405" lon="-0.3975833"><ele>295.0</ele><time>2026-05-04T09:31:39.752Z</time></trkpt><trkpt lat="41.5099676" lon="-0.397474"><ele>295.0</ele><time>2026-05-04T09:31:40.752Z</time></trkpt><trkpt lat="41.509899" lon="-0.3973738"><ele>295.0</ele><time>2026-05-04T09:31:41.751Z</time></trkpt><trkpt lat="41.5098355" lon="-0.3972723"><ele>295.0</ele><time>2026-05-04T09:31:42.752Z</time></trkpt><trkpt lat="41.5097744" lon="-0.3971813"><ele>295.16666666666663</ele><time>2026-05-04T09:31:43.751Z</time></trkpt><trkpt lat="41.5097122" lon="-0.3970955"><ele>295.3333333333333</ele><time>2026-05-04T09:31:44.752Z</time></trkpt><trkpt lat="41.5096506" lon="-0.3970047"><ele>295.5</ele><time>2026-05-04T09:31:45.752Z</time></trkpt><trkpt lat="41.5095942" lon="-0.3969277"><ele>295.6666666666667</ele><time>2026-05-04T09:31:46.752Z</time></trkpt><trkpt lat="41.5095475" lon="-0.3968607"><ele>295.83333333333337</ele><time>2026-05-04T09:31:47.751Z</time></trkpt><trkpt lat="41.5094755" lon="-0.3967528"><ele>296.0</ele><time>2026-05-04T09:31:49.751Z</time></trkpt><trkpt lat="41.5094143" lon="-0.3966633"><ele>296.0</ele><time>2026-05-04T09:33:43.753Z</time></trkpt><trkpt lat="41.5093554" lon="-0.3965451"><ele>296.0</ele><time>2026-05-04T09:33:45.753Z</time></trkpt><trkpt lat="41.5093022" lon="-0.3964702"><ele>296.0</ele><time>2026-05-04T09:33:46.752Z</time></trkpt><trkpt lat="41.5092535" lon="-0.3963904"><ele>296.0</ele><time>2026-05-04T09:33:47.753Z</time></trkpt><trkpt lat="41.5091974" lon="-0.3963096"><ele>296.0</ele><time>2026-05-04T09:33:48.753Z</time></trkpt><trkpt lat="41.5091401" lon="-0.3962206"><ele>296.0</ele><time>2026-05-04T09:33:49.753Z</time></trkpt><trkpt lat="41.509078" lon="-0.396121"><ele>296.40000000000003</ele><time>2026-05-04T09:33:50.753Z</time></trkpt><trkpt lat="41.5090151" lon="-0.396022"><ele>296.8</ele><time>2026-05-04T09:33:51.753Z</time></trkpt><trkpt lat="41.5089519" lon="-0.3959185"><ele>297.20000000000005</ele><time>2026-05-04T09:33:52.753Z</time></trkpt><trkpt lat="41.5088798" lon="-0.3958047"><ele>297.6</ele><time>2026-05-04T09:33:53.752Z</time></trkpt><trkpt lat="41.5088077" lon="-0.3956859"><ele>298.0</ele><time>2026-05-04T09:33:54.753Z</time></trkpt><trkpt lat="41.5087365" lon="-0.3955685"><ele>297.5</ele><time>2026-05-04T09:33:55.753Z</time></trkpt><trkpt lat="41.5086662" lon="-0.3954519"><ele>297.0</ele><time>2026-05-04T09:33:56.753Z</time></trkpt><trkpt lat="41.5085905" lon="-0.3953326"><ele>296.5</ele><time>2026-05-04T09:33:57.753Z</time></trkpt><trkpt lat="41.5085148" lon="-0.3952148"><ele>296.0</ele><time>2026-05-04T09:33:58.753Z</time></trkpt><trkpt lat="41.5084376" lon="-0.3950958"><ele>296.0</ele><time>2026-05-04T09:33:59.752Z</time></trkpt><trkpt lat="41.5083596" lon="-0.3949806"><ele>296.0</ele><time>2026-05-04T09:34:00.753Z</time></trkpt><trkpt lat="41.5082816" lon="-0.3948576"><ele>296.0</ele><time>2026-05-04T09:34:01.753Z</time></trkpt><trkpt lat="41.5082051" lon="-0.3947308"><ele>296.0</ele><time>2026-05-04T09:34:02.753Z</time></trkpt><trkpt lat="41.5081335" lon="-0.3946066"><ele>297.0</ele><time>2026-05-04T09:34:03.753Z</time></trkpt><trkpt lat="41.508065" lon="-0.3944669"><ele>298.0</ele><time>2026-05-04T09:34:04.753Z</time></trkpt><trkpt lat="41.5079977" lon="-0.3943312"><ele>299.0</ele><time>2026-05-04T09:34:05.753Z</time></trkpt><trkpt lat="41.507929" lon="-0.3941959"><ele>300.0</ele><time>2026-05-04T09:34:06.753Z</time></trkpt><trkpt lat="41.507859" lon="-0.3940569"><ele>300.0</ele><time>2026-05-04T09:34:07.753Z</time></trkpt><trkpt lat="41.5077957" lon="-0.3939207"><ele>300.0</ele><time>2026-05-04T09:34:08.753Z</time></trkpt><trkpt lat="41.5077272" lon="-0.3937801"><ele>300.0</ele><time>2026-05-04T09:34:09.753Z</time></trkpt><trkpt lat="41.5076615" lon="-0.3936437"><ele>300.0</ele><time>2026-05-04T09:34:10.752Z</time></trkpt><trkpt lat="41.5075935" lon="-0.393506"><ele>300.25</ele><time>2026-05-04T09:34:11.753Z</time></trkpt><trkpt lat="41.507526" lon="-0.393363"><ele>300.5</ele><time>2026-05-04T09:34:12.753Z</time></trkpt><trkpt lat="41.5074563" lon="-0.3932204"><ele>300.75</ele><time>2026-05-04T09:34:13.753Z</time></trkpt><trkpt lat="41.5073924" lon="-0.3930876"><ele>301.0</ele><time>2026-05-04T09:34:14.753Z</time></trkpt><trkpt lat="41.5073199" lon="-0.3929509"><ele>301.25</ele><time>2026-05-04T09:34:15.753Z</time></trkpt><trkpt lat="41.5072488" lon="-0.392816"><ele>301.5</ele><time>2026-05-04T09:34:16.753Z</time></trkpt><trkpt lat="41.5071786" lon="-0.3926844"><ele>301.75</ele><time>2026-05-04T09:34:17.753Z</time></trkpt><trkpt lat="41.5071058" lon="-0.3925523"><ele>302.0</ele><time>2026-05-04T09:34:18.753Z</time></trkpt><trkpt lat="41.5070373" lon="-0.392411"><ele>302.0</ele><time>2026-05-04T09:34:19.753Z</time></trkpt><trkpt lat="41.5069703" lon="-0.3922709"><ele>302.0</ele><time>2026-05-04T09:34:20.753Z</time></trkpt><trkpt lat="41.5069021" lon="-0.392136"><ele>302.0</ele><time>2026-05-04T09:34:21.752Z</time></trkpt><trkpt lat="41.5068375" lon="-0.3920022"><ele>302.0</ele><time>2026-05-04T09:34:22.753Z</time></trkpt><trkpt lat="41.5067749" lon="-0.3918676"><ele>302.5</ele><time>2026-05-04T09:34:23.753Z</time></trkpt><trkpt lat="41.5067059" lon="-0.3917319"><ele>303.0</ele><time>2026-05-04T09:34:24.753Z</time></trkpt><trkpt lat="41.5066325" lon="-0.3915966"><ele>303.5</ele><time>2026-05-04T09:34:25.753Z</time></trkpt><trkpt lat="41.5065592" lon="-0.3914604"><ele>304.0</ele><time>2026-05-04T09:34:26.753Z</time></trkpt><trkpt lat="41.506479" lon="-0.3913228"><ele>303.75</ele><time>2026-05-04T09:34:27.753Z</time></trkpt><trkpt lat="41.5064014" lon="-0.3911846"><ele>303.5</ele><time>2026-05-04T09:34:28.753Z</time></trkpt><trkpt lat="41.5063257" lon="-0.3910456"><ele>303.25</ele><time>2026-05-04T09:34:29.752Z</time></trkpt><trkpt lat="41.5062444" lon="-0.3908998"><ele>303.0</ele><time>2026-05-04T09:34:30.753Z</time></trkpt><trkpt lat="41.5061617" lon="-0.3907551"><ele>303.0</ele><time>2026-05-04T09:34:31.752Z</time></trkpt><trkpt lat="41.5060838" lon="-0.3906056"><ele>303.0</ele><time>2026-05-04T09:34:32.753Z</time></trkpt><trkpt lat="41.5060024" lon="-0.3904555"><ele>303.0</ele><time>2026-05-04T09:34:33.753Z</time></trkpt><trkpt lat="41.5059204" lon="-0.3903069"><ele>303.0</ele><time>2026-05-04T09:34:34.753Z</time></trkpt><trkpt lat="41.5058337" lon="-0.3901581"><ele>303.0</ele><time>2026-05-04T09:34:35.753Z</time></trkpt><trkpt lat="41.5057505" lon="-0.3900093"><ele>303.0</ele><time>2026-05-04T09:34:36.753Z</time></trkpt><trkpt lat="41.5056618" lon="-0.3898592"><ele>303.0</ele><time>2026-05-04T09:34:37.753Z</time></trkpt><trkpt lat="41.5055735" lon="-0.3897112"><ele>303.0</ele><time>2026-05-04T09:34:38.753Z</time></trkpt><trkpt lat="41.5054845" lon="-0.3895572"><ele>303.5</ele><time>2026-05-04T09:34:39.753Z</time></trkpt><trkpt lat="41.5054009" lon="-0.389406"><ele>304.0</ele><time>2026-05-04T09:34:40.753Z</time></trkpt><trkpt lat="41.5053156" lon="-0.3892517"><ele>304.5</ele><time>2026-05-04T09:34:41.752Z</time></trkpt><trkpt lat="41.5052246" lon="-0.3890983"><ele>305.0</ele><time>2026-05-04T09:34:42.753Z</time></trkpt><trkpt lat="41.5051363" lon="-0.3889461"><ele>304.25</ele><time>2026-05-04T09:34:43.753Z</time></trkpt><trkpt lat="41.5050533" lon="-0.3887937"><ele>303.5</ele><time>2026-05-04T09:34:44.753Z</time></trkpt><trkpt lat="41.504962" lon="-0.3886359"><ele>302.75</ele><time>2026-05-04T09:34:45.753Z</time></trkpt><trkpt lat="41.504876" lon="-0.3884808"><ele>302.0</ele><time>2026-05-04T09:34:46.752Z</time></trkpt><trkpt lat="41.504786" lon="-0.3883201"><ele>302.0</ele><time>2026-05-04T09:34:47.753Z</time></trkpt><trkpt lat="41.5046986" lon="-0.3881629"><ele>302.0</ele><time>2026-05-04T09:34:48.752Z</time></trkpt><trkpt lat="41.5046124" lon="-0.3880058"><ele>302.0</ele><time>2026-05-04T09:34:49.753Z</time></trkpt><trkpt lat="41.5045275" lon="-0.3878501"><ele>302.0</ele><time>2026-05-04T09:34:50.753Z</time></trkpt><trkpt lat="41.5044331" lon="-0.3876955"><ele>301.25</ele><time>2026-05-04T09:34:51.753Z</time></trkpt><trkpt lat="41.5043455" lon="-0.3875394"><ele>300.5</ele><time>2026-05-04T09:34:52.753Z</time></trkpt><trkpt lat="41.5042525" lon="-0.3873763"><ele>299.75</ele><time>2026-05-04T09:34:53.753Z</time></trkpt><trkpt lat="41.5041652" lon="-0.3872158"><ele>299.0</ele><time>2026-05-04T09:34:54.753Z</time></trkpt><trkpt lat="41.5040796" lon="-0.3870532"><ele>299.0</ele><time>2026-05-04T09:34:55.752Z</time></trkpt><trkpt lat="41.5039951" lon="-0.3868871"><ele>299.0</ele><time>2026-05-04T09:34:56.753Z</time></trkpt><trkpt lat="41.5039114" lon="-0.3867211"><ele>299.0</ele><time>2026-05-04T09:34:57.753Z</time></trkpt><trkpt lat="41.5038324" lon="-0.3865481"><ele>299.0</ele><time>2026-05-04T09:34:58.753Z</time></trkpt><trkpt lat="41.5037548" lon="-0.3863769"><ele>299.0</ele><time>2026-05-04T09:34:59.753Z</time></trkpt><trkpt lat="41.5036788" lon="-0.3862104"><ele>299.0</ele><time>2026-05-04T09:35:00.753Z</time></trkpt><trkpt lat="41.5036054" lon="-0.3860478"><ele>299.0</ele><time>2026-05-04T09:35:01.753Z</time></trkpt><trkpt lat="41.5035273" lon="-0.3858845"><ele>298.25</ele><time>2026-05-04T09:35:02.753Z</time></trkpt><trkpt lat="41.5034525" lon="-0.3857217"><ele>297.5</ele><time>2026-05-04T09:35:03.753Z</time></trkpt><trkpt lat="41.5033766" lon="-0.385556"><ele>296.75</ele><time>2026-05-04T09:35:04.753Z</time></trkpt><trkpt lat="41.5033024" lon="-0.3853874"><ele>296.0</ele><time>2026-05-04T09:35:05.752Z</time></trkpt><trkpt lat="41.5032308" lon="-0.3852225"><ele>296.0</ele><time>2026-05-04T09:35:06.753Z</time></trkpt><trkpt lat="41.5031556" lon="-0.385065"><ele>296.0</ele><time>2026-05-04T09:35:07.753Z</time></trkpt><trkpt lat="41.5030691" lon="-0.3849107"><ele>296.0</ele><time>2026-05-04T09:35:08.752Z</time></trkpt><trkpt lat="41.5029864" lon="-0.384751"><ele>296.0</ele><time>2026-05-04T09:35:09.753Z</time></trkpt><trkpt lat="41.5029146" lon="-0.3845843"><ele>295.0</ele><time>2026-05-04T09:35:10.752Z</time></trkpt><trkpt lat="41.5028432" lon="-0.3844183"><ele>294.0</ele><time>2026-05-04T09:35:11.753Z</time></trkpt><trkpt lat="41.502777" lon="-0.384262"><ele>293.0</ele><time>2026-05-04T09:35:12.753Z</time></trkpt><trkpt lat="41.5027152" lon="-0.3841094"><ele>292.0</ele><time>2026-05-04T09:35:13.753Z</time></trkpt><trkpt lat="41.5026612" lon="-0.3839581"><ele>292.0</ele><time>2026-05-04T09:35:14.753Z</time></trkpt><trkpt lat="41.5026071" lon="-0.3838143"><ele>292.0</ele><time>2026-05-04T09:35:15.752Z</time></trkpt><trkpt lat="41.5025527" lon="-0.3836657"><ele>292.0</ele><time>2026-05-04T09:35:16.753Z</time></trkpt><trkpt lat="41.5024971" lon="-0.383519"><ele>292.0</ele><time>2026-05-04T09:35:17.753Z</time></trkpt><trkpt lat="41.5024448" lon="-0.3833752"><ele>292.0</ele><time>2026-05-04T09:35:18.754Z</time></trkpt><trkpt lat="41.5023901" lon="-0.3832222"><ele>292.0</ele><time>2026-05-04T09:35:19.754Z</time></trkpt><trkpt lat="41.5023367" lon="-0.3830693"><ele>292.0</ele><time>2026-05-04T09:35:20.753Z</time></trkpt><trkpt lat="41.5022802" lon="-0.3829166"><ele>292.0</ele><time>2026-05-04T09:35:21.754Z</time></trkpt><trkpt lat="41.5022199" lon="-0.3827575"><ele>292.25</ele><time>2026-05-04T09:35:22.754Z</time></trkpt><trkpt lat="41.5021669" lon="-0.3826031"><ele>292.5</ele><time>2026-05-04T09:35:23.754Z</time></trkpt><trkpt lat="41.5021115" lon="-0.3824421"><ele>292.75</ele><time>2026-05-04T09:35:24.754Z</time></trkpt><trkpt lat="41.5020521" lon="-0.3822832"><ele>293.0</ele><time>2026-05-04T09:35:25.754Z</time></trkpt><trkpt lat="41.5019932" lon="-0.3821292"><ele>291.5</ele><time>2026-05-04T09:35:26.754Z</time></trkpt><trkpt lat="41.501936" lon="-0.3819721"><ele>290.0</ele><time>2026-05-04T09:35:27.754Z</time></trkpt><trkpt lat="41.5018757" lon="-0.3818104"><ele>288.5</ele><time>2026-05-04T09:35:28.754Z</time></trkpt><trkpt lat="41.5018189" lon="-0.3816474"><ele>287.0</ele><time>2026-05-04T09:35:29.754Z</time></trkpt><trkpt lat="41.5017593" lon="-0.3814861"><ele>287.25</ele><time>2026-05-04T09:35:30.754Z</time></trkpt><trkpt lat="41.5017016" lon="-0.3813184"><ele>287.5</ele><time>2026-05-04T09:35:31.754Z</time></trkpt><trkpt lat="41.5016395" lon="-0.3811494"><ele>287.75</ele><time>2026-05-04T09:35:32.754Z</time></trkpt><trkpt lat="41.5015799" lon="-0.3809845"><ele>288.0</ele><time>2026-05-04T09:35:33.753Z</time></trkpt><trkpt lat="41.5015209" lon="-0.380824"><ele>288.0</ele><time>2026-05-04T09:35:34.753Z</time></trkpt><trkpt lat="41.501464" lon="-0.3806657"><ele>288.0</ele><time>2026-05-04T09:35:35.754Z</time></trkpt><trkpt lat="41.5014075" lon="-0.38051"><ele>288.0</ele><time>2026-05-04T09:35:36.754Z</time></trkpt><trkpt lat="41.5013539" lon="-0.3803636"><ele>288.0</ele><time>2026-05-04T09:35:37.754Z</time></trkpt><trkpt lat="41.5012986" lon="-0.3802163"><ele>287.0</ele><time>2026-05-04T09:35:38.754Z</time></trkpt><trkpt lat="41.5012469" lon="-0.3800691"><ele>286.0</ele><time>2026-05-04T09:35:39.754Z</time></trkpt><trkpt lat="41.5011961" lon="-0.3799242"><ele>285.0</ele><time>2026-05-04T09:35:40.754Z</time></trkpt><trkpt lat="41.5011485" lon="-0.3797817"><ele>284.0</ele><time>2026-05-04T09:35:41.754Z</time></trkpt><trkpt lat="41.5010996" lon="-0.3796316"><ele>283.75</ele><time>2026-05-04T09:35:42.754Z</time></trkpt><trkpt lat="41.501049" lon="-0.37948"><ele>283.5</ele><time>2026-05-04T09:35:43.754Z</time></trkpt><trkpt lat="41.5010017" lon="-0.3793288"><ele>283.25</ele><time>2026-05-04T09:35:44.754Z</time></trkpt><trkpt lat="41.5009557" lon="-0.3791802"><ele>283.0</ele><time>2026-05-04T09:35:45.754Z</time></trkpt><trkpt lat="41.5009075" lon="-0.3790309"><ele>283.0</ele><time>2026-05-04T09:35:46.753Z</time></trkpt><trkpt lat="41.5008673" lon="-0.3788904"><ele>283.0</ele><time>2026-05-04T09:35:47.753Z</time></trkpt><trkpt lat="41.5008242" lon="-0.3787511"><ele>283.0</ele><time>2026-05-04T09:35:48.754Z</time></trkpt><trkpt lat="41.5007752" lon="-0.3786086"><ele>283.0</ele><time>2026-05-04T09:35:49.753Z</time></trkpt><trkpt lat="41.5007284" lon="-0.3784649"><ele>283.0</ele><time>2026-05-04T09:35:50.754Z</time></trkpt><trkpt lat="41.5006842" lon="-0.3783159"><ele>283.0</ele><time>2026-05-04T09:35:51.754Z</time></trkpt><trkpt lat="41.5006378" lon="-0.3781675"><ele>283.0</ele><time>2026-05-04T09:35:52.753Z</time></trkpt><trkpt lat="41.5005916" lon="-0.3780134"><ele>283.0</ele><time>2026-05-04T09:35:53.754Z</time></trkpt><trkpt lat="41.5005418" lon="-0.3778661"><ele>283.0</ele><time>2026-05-04T09:35:54.754Z</time></trkpt><trkpt lat="41.500491" lon="-0.377715"><ele>283.0</ele><time>2026-05-04T09:35:55.753Z</time></trkpt><trkpt lat="41.5004363" lon="-0.3775669"><ele>283.0</ele><time>2026-05-04T09:35:56.753Z</time></trkpt><trkpt lat="41.5003808" lon="-0.3774168"><ele>283.0</ele><time>2026-05-04T09:35:57.754Z</time></trkpt><trkpt lat="41.5003184" lon="-0.3772689"><ele>282.5</ele><time>2026-05-04T09:35:58.754Z</time></trkpt><trkpt lat="41.50026" lon="-0.3771262"><ele>282.0</ele><time>2026-05-04T09:35:59.754Z</time></trkpt><trkpt lat="41.5001956" lon="-0.3769875"><ele>281.5</ele><time>2026-05-04T09:36:00.754Z</time></trkpt><trkpt lat="41.5001314" lon="-0.3768484"><ele>281.0</ele><time>2026-05-04T09:36:01.754Z</time></trkpt><trkpt lat="41.500064" lon="-0.3767097"><ele>281.0</ele><time>2026-05-04T09:36:02.754Z</time></trkpt><trkpt lat="41.4999958" lon="-0.3765754"><ele>281.0</ele><time>2026-05-04T09:36:03.754Z</time></trkpt><trkpt lat="41.4999271" lon="-0.376444"><ele>281.0</ele><time>2026-05-04T09:36:04.754Z</time></trkpt><trkpt lat="41.4998605" lon="-0.3763144"><ele>281.0</ele><time>2026-05-04T09:36:05.754Z</time></trkpt><trkpt lat="41.4997918" lon="-0.3761843"><ele>281.25</ele><time>2026-05-04T09:36:06.753Z</time></trkpt><trkpt lat="41.4997182" lon="-0.3760575"><ele>281.5</ele><time>2026-05-04T09:36:07.754Z</time></trkpt><trkpt lat="41.4996423" lon="-0.3759278"><ele>281.75</ele><time>2026-05-04T09:36:08.754Z</time></trkpt><trkpt lat="41.4995654" lon="-0.3758059"><ele>282.0</ele><time>2026-05-04T09:36:09.754Z</time></trkpt><trkpt lat="41.4994836" lon="-0.3756846"><ele>281.0</ele><time>2026-05-04T09:36:10.754Z</time></trkpt><trkpt lat="41.4994031" lon="-0.3755566"><ele>280.0</ele><time>2026-05-04T09:36:11.754Z</time></trkpt><trkpt lat="41.499316" lon="-0.3754363"><ele>279.0</ele><time>2026-05-04T09:36:12.754Z</time></trkpt><trkpt lat="41.4992256" lon="-0.3753108"><ele>278.0</ele><time>2026-05-04T09:36:13.754Z</time></trkpt><trkpt lat="41.4991367" lon="-0.3751874"><ele>277.5</ele><time>2026-05-04T09:36:14.754Z</time></trkpt><trkpt lat="41.4990494" lon="-0.3750668"><ele>277.0</ele><time>2026-05-04T09:36:15.754Z</time></trkpt><trkpt lat="41.4989568" lon="-0.3749472"><ele>276.5</ele><time>2026-05-04T09:36:16.754Z</time></trkpt><trkpt lat="41.4988593" lon="-0.3748256"><ele>276.0</ele><time>2026-05-04T09:36:17.754Z</time></trkpt><trkpt lat="41.4987658" lon="-0.3747051"><ele>276.5</ele><time>2026-05-04T09:36:18.754Z</time></trkpt><trkpt lat="41.4986696" lon="-0.3745819"><ele>277.0</ele><time>2026-05-04T09:36:19.754Z</time></trkpt><trkpt lat="41.4985803" lon="-0.3744592"><ele>277.5</ele><time>2026-05-04T09:36:20.754Z</time></trkpt><trkpt lat="41.4984937" lon="-0.3743307"><ele>278.0</ele><time>2026-05-04T09:36:21.753Z</time></trkpt><trkpt lat="41.4984012" lon="-0.3742014"><ele>278.0</ele><time>2026-05-04T09:36:22.754Z</time></trkpt><trkpt lat="41.4983115" lon="-0.3740737"><ele>278.0</ele><time>2026-05-04T09:36:23.754Z</time></trkpt><trkpt lat="41.4982294" lon="-0.3739398"><ele>278.0</ele><time>2026-05-04T09:36:24.754Z</time></trkpt><trkpt lat="41.4981486" lon="-0.373802"><ele>278.0</ele><time>2026-05-04T09:36:25.753Z</time></trkpt><trkpt lat="41.4980717" lon="-0.3736649"><ele>278.5</ele><time>2026-05-04T09:36:26.754Z</time></trkpt><trkpt lat="41.4979994" lon="-0.3735234"><ele>279.0</ele><time>2026-05-04T09:36:27.754Z</time></trkpt><trkpt lat="41.4979308" lon="-0.3733746"><ele>279.5</ele><time>2026-05-04T09:36:28.754Z</time></trkpt><trkpt lat="41.4978604" lon="-0.3732244"><ele>280.0</ele><time>2026-05-04T09:36:29.754Z</time></trkpt><trkpt lat="41.4977954" lon="-0.3730716"><ele>279.25</ele><time>2026-05-04T09:36:30.754Z</time></trkpt><trkpt lat="41.4977332" lon="-0.3729209"><ele>278.5</ele><time>2026-05-04T09:36:31.754Z</time></trkpt><trkpt lat="41.4976785" lon="-0.3727695"><ele>277.75</ele><time>2026-05-04T09:36:32.754Z</time></trkpt><trkpt lat="41.4976217" lon="-0.3726228"><ele>277.0</ele><time>2026-05-04T09:36:33.754Z</time></trkpt><trkpt lat="41.4975684" lon="-0.3724716"><ele>277.0</ele><time>2026-05-04T09:36:34.754Z</time></trkpt><trkpt lat="41.49752" lon="-0.3723147"><ele>277.0</ele><time>2026-05-04T09:36:35.754Z</time></trkpt><trkpt lat="41.4974675" lon="-0.3721609"><ele>277.0</ele><time>2026-05-04T09:36:36.753Z</time></trkpt><trkpt lat="41.4974168" lon="-0.3720174"><ele>277.0</ele><time>2026-05-04T09:36:37.754Z</time></trkpt><trkpt lat="41.4973721" lon="-0.371869"><ele>276.75</ele><time>2026-05-04T09:36:38.754Z</time></trkpt><trkpt lat="41.4973283" lon="-0.3717153"><ele>276.5</ele><time>2026-05-04T09:36:39.754Z</time></trkpt><trkpt lat="41.4972819" lon="-0.3715589"><ele>276.25</ele><time>2026-05-04T09:36:40.754Z</time></trkpt><trkpt lat="41.4972415" lon="-0.371409"><ele>276.0</ele><time>2026-05-04T09:36:41.754Z</time></trkpt><trkpt lat="41.4972049" lon="-0.3712518"><ele>275.75</ele><time>2026-05-04T09:36:42.754Z</time></trkpt><trkpt lat="41.497172" lon="-0.3711007"><ele>275.5</ele><time>2026-05-04T09:36:43.754Z</time></trkpt><trkpt lat="41.4971347" lon="-0.3709476"><ele>275.25</ele><time>2026-05-04T09:36:44.754Z</time></trkpt><trkpt lat="41.4970991" lon="-0.3707992"><ele>275.0</ele><time>2026-05-04T09:36:45.754Z</time></trkpt><trkpt lat="41.4970695" lon="-0.3706482"><ele>274.75</ele><time>2026-05-04T09:36:46.754Z</time></trkpt><trkpt lat="41.4970427" lon="-0.370497"><ele>274.5</ele><time>2026-05-04T09:36:47.754Z</time></trkpt><trkpt lat="41.4970179" lon="-0.3703417"><ele>274.25</ele><time>2026-05-04T09:36:48.754Z</time></trkpt><trkpt lat="41.4969951" lon="-0.3701825"><ele>274.0</ele><time>2026-05-04T09:36:49.754Z</time></trkpt><trkpt lat="41.496974" lon="-0.370026"><ele>274.0</ele><time>2026-05-04T09:36:50.754Z</time></trkpt><trkpt lat="41.4969507" lon="-0.369864"><ele>274.0</ele><time>2026-05-04T09:36:51.754Z</time></trkpt><trkpt lat="41.496924" lon="-0.3697043"><ele>274.0</ele><time>2026-05-04T09:36:52.754Z</time></trkpt><trkpt lat="41.4968987" lon="-0.3695342"><ele>274.0</ele><time>2026-05-04T09:36:53.753Z</time></trkpt><trkpt lat="41.4968722" lon="-0.3693671"><ele>274.0</ele><time>2026-05-04T09:36:54.753Z</time></trkpt><trkpt lat="41.4968521" lon="-0.3692056"><ele>274.0</ele><time>2026-05-04T09:36:55.754Z</time></trkpt><trkpt lat="41.4968326" lon="-0.369039"><ele>274.0</ele><time>2026-05-04T09:36:56.754Z</time></trkpt><trkpt lat="41.4968093" lon="-0.3688644"><ele>274.0</ele><time>2026-05-04T09:36:57.754Z</time></trkpt><trkpt lat="41.4967912" lon="-0.3686914"><ele>274.25</ele><time>2026-05-04T09:36:58.753Z</time></trkpt><trkpt lat="41.4967699" lon="-0.3685179"><ele>274.5</ele><time>2026-05-04T09:36:59.754Z</time></trkpt><trkpt lat="41.4967432" lon="-0.3683399"><ele>274.75</ele><time>2026-05-04T09:37:00.754Z</time></trkpt><trkpt lat="41.4967164" lon="-0.3681647"><ele>275.0</ele><time>2026-05-04T09:37:01.754Z</time></trkpt><trkpt lat="41.496688" lon="-0.3679904"><ele>275.0</ele><time>2026-05-04T09:37:02.754Z</time></trkpt><trkpt lat="41.4966675" lon="-0.3678171"><ele>275.0</ele><time>2026-05-04T09:37:03.753Z</time></trkpt><trkpt lat="41.4966432" lon="-0.3676436"><ele>275.0</ele><time>2026-05-04T09:37:04.754Z</time></trkpt><trkpt lat="41.4966152" lon="-0.367469"><ele>275.0</ele><time>2026-05-04T09:37:05.754Z</time></trkpt><trkpt lat="41.4965871" lon="-0.3672973"><ele>275.25</ele><time>2026-05-04T09:37:06.754Z</time></trkpt><trkpt lat="41.4965596" lon="-0.3671277"><ele>275.5</ele><time>2026-05-04T09:37:07.753Z</time></trkpt><trkpt lat="41.496536" lon="-0.366952"><ele>275.75</ele><time>2026-05-04T09:37:08.754Z</time></trkpt><trkpt lat="41.4965161" lon="-0.3667855"><ele>276.0</ele><time>2026-05-04T09:37:09.754Z</time></trkpt><trkpt lat="41.496498" lon="-0.3666143"><ele>276.0</ele><time>2026-05-04T09:37:10.753Z</time></trkpt><trkpt lat="41.4964726" lon="-0.3664413"><ele>276.0</ele><time>2026-05-04T09:37:11.754Z</time></trkpt><trkpt lat="41.496447" lon="-0.3662759"><ele>276.0</ele><time>2026-05-04T09:37:12.754Z</time></trkpt><trkpt lat="41.4964248" lon="-0.3661121"><ele>276.0</ele><time>2026-05-04T09:37:13.754Z</time></trkpt><trkpt lat="41.496405" lon="-0.3659487"><ele>276.0</ele><time>2026-05-04T09:37:14.754Z</time></trkpt><trkpt lat="41.4963808" lon="-0.3657871"><ele>276.0</ele><time>2026-05-04T09:37:15.754Z</time></trkpt><trkpt lat="41.4963592" lon="-0.3656271"><ele>276.0</ele><time>2026-05-04T09:37:16.754Z</time></trkpt><trkpt lat="41.4963382" lon="-0.3654672"><ele>276.0</ele><time>2026-05-04T09:37:17.755Z</time></trkpt><trkpt lat="41.4963141" lon="-0.3653076"><ele>276.25</ele><time>2026-05-04T09:37:18.755Z</time></trkpt><trkpt lat="41.4962923" lon="-0.3651516"><ele>276.5</ele><time>2026-05-04T09:37:19.755Z</time></trkpt><trkpt lat="41.4962738" lon="-0.3649974"><ele>276.75</ele><time>2026-05-04T09:37:20.755Z</time></trkpt><trkpt lat="41.496254" lon="-0.3648417"><ele>277.0</ele><time>2026-05-04T09:37:21.755Z</time></trkpt><trkpt lat="41.4962386" lon="-0.364688"><ele>276.5</ele><time>2026-05-04T09:37:22.754Z</time></trkpt><trkpt lat="41.4962317" lon="-0.3645379"><ele>276.0</ele><time>2026-05-04T09:37:23.755Z</time></trkpt><trkpt lat="41.4962279" lon="-0.3643865"><ele>275.5</ele><time>2026-05-04T09:37:24.755Z</time></trkpt><trkpt lat="41.4962264" lon="-0.3642374"><ele>275.0</ele><time>2026-05-04T09:37:25.755Z</time></trkpt><trkpt lat="41.4962269" lon="-0.3640835"><ele>275.0</ele><time>2026-05-04T09:37:26.755Z</time></trkpt><trkpt lat="41.4962342" lon="-0.3639234"><ele>275.0</ele><time>2026-05-04T09:37:27.755Z</time></trkpt><trkpt lat="41.4962362" lon="-0.3637661"><ele>275.0</ele><time>2026-05-04T09:37:28.755Z</time></trkpt><trkpt lat="41.4962432" lon="-0.3635987"><ele>275.0</ele><time>2026-05-04T09:37:29.754Z</time></trkpt><trkpt lat="41.4962488" lon="-0.3634276"><ele>275.25</ele><time>2026-05-04T09:37:30.755Z</time></trkpt><trkpt lat="41.4962538" lon="-0.3632535"><ele>275.5</ele><time>2026-05-04T09:37:31.755Z</time></trkpt><trkpt lat="41.4962553" lon="-0.3630774"><ele>275.75</ele><time>2026-05-04T09:37:32.755Z</time></trkpt><trkpt lat="41.496261" lon="-0.362904"><ele>276.0</ele><time>2026-05-04T09:37:33.755Z</time></trkpt><trkpt lat="41.4962676" lon="-0.3627325"><ele>276.0</ele><time>2026-05-04T09:37:34.755Z</time></trkpt><trkpt lat="41.4962765" lon="-0.3625579"><ele>276.0</ele><time>2026-05-04T09:37:35.755Z</time></trkpt><trkpt lat="41.496282" lon="-0.3623784"><ele>276.0</ele><time>2026-05-04T09:37:36.755Z</time></trkpt><trkpt lat="41.4962898" lon="-0.3621981"><ele>276.0</ele><time>2026-05-04T09:37:37.755Z</time></trkpt><trkpt lat="41.4963024" lon="-0.3620143"><ele>275.75</ele><time>2026-05-04T09:37:38.755Z</time></trkpt><trkpt lat="41.4963122" lon="-0.3618398"><ele>275.5</ele><time>2026-05-04T09:37:39.755Z</time></trkpt><trkpt lat="41.4963208" lon="-0.3616614"><ele>275.25</ele><time>2026-05-04T09:37:40.755Z</time></trkpt><trkpt lat="41.4963286" lon="-0.3614805"><ele>275.0</ele><time>2026-05-04T09:37:41.754Z</time></trkpt><trkpt lat="41.4963386" lon="-0.3612979"><ele>274.75</ele><time>2026-05-04T09:37:42.754Z</time></trkpt><trkpt lat="41.4963444" lon="-0.3611201"><ele>274.5</ele><time>2026-05-04T09:37:43.755Z</time></trkpt><trkpt lat="41.4963527" lon="-0.3609398"><ele>274.25</ele><time>2026-05-04T09:37:44.754Z</time></trkpt><trkpt lat="41.4963635" lon="-0.360759"><ele>274.0</ele><time>2026-05-04T09:37:45.755Z</time></trkpt><trkpt lat="41.4963716" lon="-0.3605774"><ele>273.75</ele><time>2026-05-04T09:37:46.754Z</time></trkpt><trkpt lat="41.4963723" lon="-0.3603929"><ele>273.5</ele><time>2026-05-04T09:37:47.755Z</time></trkpt><trkpt lat="41.4963682" lon="-0.3602111"><ele>273.25</ele><time>2026-05-04T09:37:48.755Z</time></trkpt><trkpt lat="41.4963551" lon="-0.3600288"><ele>273.0</ele><time>2026-05-04T09:37:49.755Z</time></trkpt><trkpt lat="41.496335" lon="-0.3598495"><ele>272.75</ele><time>2026-05-04T09:37:50.755Z</time></trkpt><trkpt lat="41.4963099" lon="-0.3596672"><ele>272.5</ele><time>2026-05-04T09:37:51.754Z</time></trkpt><trkpt lat="41.4962803" lon="-0.3594838"><ele>272.25</ele><time>2026-05-04T09:37:52.755Z</time></trkpt><trkpt lat="41.4962516" lon="-0.3593018"><ele>272.0</ele><time>2026-05-04T09:37:53.755Z</time></trkpt><trkpt lat="41.4962261" lon="-0.359119"><ele>272.0</ele><time>2026-05-04T09:37:54.755Z</time></trkpt><trkpt lat="41.4961965" lon="-0.3589354"><ele>272.0</ele><time>2026-05-04T09:37:55.755Z</time></trkpt><trkpt lat="41.4961752" lon="-0.3587465"><ele>272.0</ele><time>2026-05-04T09:37:56.755Z</time></trkpt><trkpt lat="41.4961493" lon="-0.3585612"><ele>272.0</ele><time>2026-05-04T09:37:57.754Z</time></trkpt><trkpt lat="41.4961191" lon="-0.358368"><ele>272.0</ele><time>2026-05-04T09:37:58.755Z</time></trkpt><trkpt lat="41.4960957" lon="-0.3581847"><ele>272.0</ele><time>2026-05-04T09:37:59.755Z</time></trkpt><trkpt lat="41.4960643" lon="-0.3579983"><ele>272.0</ele><time>2026-05-04T09:38:00.755Z</time></trkpt><trkpt lat="41.4960358" lon="-0.3578158"><ele>272.0</ele><time>2026-05-04T09:38:01.755Z</time></trkpt><trkpt lat="41.4960037" lon="-0.3576366"><ele>271.5</ele><time>2026-05-04T09:38:02.755Z</time></trkpt><trkpt lat="41.4959676" lon="-0.3574498"><ele>271.0</ele><time>2026-05-04T09:38:03.755Z</time></trkpt><trkpt lat="41.4959354" lon="-0.3572663"><ele>270.5</ele><time>2026-05-04T09:38:04.755Z</time></trkpt><trkpt lat="41.4959036" lon="-0.3570787"><ele>270.0</ele><time>2026-05-04T09:38:05.755Z</time></trkpt><trkpt lat="41.4958716" lon="-0.3568881"><ele>269.5</ele><time>2026-05-04T09:38:06.755Z</time></trkpt><trkpt lat="41.4958372" lon="-0.3567001"><ele>269.0</ele><time>2026-05-04T09:38:07.755Z</time></trkpt><trkpt lat="41.4958005" lon="-0.3565071"><ele>268.5</ele><time>2026-05-04T09:38:08.755Z</time></trkpt><trkpt lat="41.4957658" lon="-0.3563183"><ele>268.0</ele><time>2026-05-04T09:38:09.755Z</time></trkpt><trkpt lat="41.4957321" lon="-0.3561333"><ele>268.0</ele><time>2026-05-04T09:38:10.755Z</time></trkpt><trkpt lat="41.4956977" lon="-0.3559434"><ele>268.0</ele><time>2026-05-04T09:38:11.755Z</time></trkpt><trkpt lat="41.4956619" lon="-0.3557618"><ele>268.0</ele><time>2026-05-04T09:38:12.755Z</time></trkpt><trkpt lat="41.4956286" lon="-0.3555719"><ele>268.0</ele><time>2026-05-04T09:38:13.755Z</time></trkpt><trkpt lat="41.4955928" lon="-0.3553871"><ele>267.5</ele><time>2026-05-04T09:38:14.755Z</time></trkpt><trkpt lat="41.4955601" lon="-0.355203"><ele>267.0</ele><time>2026-05-04T09:38:15.755Z</time></trkpt><trkpt lat="41.4955286" lon="-0.35502"><ele>266.5</ele><time>2026-05-04T09:38:16.755Z</time></trkpt><trkpt lat="41.4954972" lon="-0.3548392"><ele>266.0</ele><time>2026-05-04T09:38:17.755Z</time></trkpt><trkpt lat="41.4954658" lon="-0.3546589"><ele>265.25</ele><time>2026-05-04T09:38:18.755Z</time></trkpt><trkpt lat="41.4954372" lon="-0.3544803"><ele>264.5</ele><time>2026-05-04T09:38:19.754Z</time></trkpt><trkpt lat="41.4954108" lon="-0.3543023"><ele>263.75</ele><time>2026-05-04T09:38:20.755Z</time></trkpt><trkpt lat="41.4953798" lon="-0.3541203"><ele>263.0</ele><time>2026-05-04T09:38:21.755Z</time></trkpt><trkpt lat="41.4953501" lon="-0.3539405"><ele>263.25</ele><time>2026-05-04T09:38:22.754Z</time></trkpt><trkpt lat="41.4953245" lon="-0.3537603"><ele>263.5</ele><time>2026-05-04T09:38:23.755Z</time></trkpt><trkpt lat="41.4953046" lon="-0.353578"><ele>263.75</ele><time>2026-05-04T09:38:24.755Z</time></trkpt><trkpt lat="41.495286" lon="-0.3534074"><ele>264.0</ele><time>2026-05-04T09:38:25.755Z</time></trkpt><trkpt lat="41.4952672" lon="-0.353243"><ele>264.0</ele><time>2026-05-04T09:38:26.755Z</time></trkpt><trkpt lat="41.4952599" lon="-0.3530712"><ele>264.0</ele><time>2026-05-04T09:38:27.755Z</time></trkpt><trkpt lat="41.4952571" lon="-0.3528961"><ele>264.0</ele><time>2026-05-04T09:38:28.754Z</time></trkpt><trkpt lat="41.4952645" lon="-0.3527246"><ele>264.0</ele><time>2026-05-04T09:38:29.754Z</time></trkpt><trkpt lat="41.4952889" lon="-0.3525459"><ele>263.5</ele><time>2026-05-04T09:38:30.755Z</time></trkpt><trkpt lat="41.495313" lon="-0.3523714"><ele>263.0</ele><time>2026-05-04T09:38:31.754Z</time></trkpt><trkpt lat="41.4953428" lon="-0.3521903"><ele>262.5</ele><time>2026-05-04T09:38:32.755Z</time></trkpt><trkpt lat="41.4953729" lon="-0.3520083"><ele>262.0</ele><time>2026-05-04T09:38:33.755Z</time></trkpt><trkpt lat="41.495409" lon="-0.3518368"><ele>262.5</ele><time>2026-05-04T09:38:34.754Z</time></trkpt><trkpt lat="41.4954517" lon="-0.3516579"><ele>263.0</ele><time>2026-05-04T09:38:35.755Z</time></trkpt><trkpt lat="41.4954905" lon="-0.3514856"><ele>263.5</ele><time>2026-05-04T09:38:36.755Z</time></trkpt><trkpt lat="41.4955306" lon="-0.3513118"><ele>264.0</ele><time>2026-05-04T09:38:37.755Z</time></trkpt><trkpt lat="41.4955693" lon="-0.3511376"><ele>264.0</ele><time>2026-05-04T09:38:38.755Z</time></trkpt><trkpt lat="41.4956083" lon="-0.3509645"><ele>264.0</ele><time>2026-05-04T09:38:39.755Z</time></trkpt><trkpt lat="41.4956442" lon="-0.350791"><ele>264.0</ele><time>2026-05-04T09:38:40.755Z</time></trkpt><trkpt lat="41.4956737" lon="-0.3506153"><ele>264.0</ele><time>2026-05-04T09:38:41.755Z</time></trkpt><trkpt lat="41.4956971" lon="-0.3504331"><ele>264.0</ele><time>2026-05-04T09:38:42.755Z</time></trkpt><trkpt lat="41.4957185" lon="-0.3502439"><ele>264.0</ele><time>2026-05-04T09:38:43.755Z</time></trkpt><trkpt lat="41.4957409" lon="-0.350061"><ele>264.0</ele><time>2026-05-04T09:38:44.754Z</time></trkpt><trkpt lat="41.4957671" lon="-0.3498733"><ele>264.0</ele><time>2026-05-04T09:38:45.755Z</time></trkpt><trkpt lat="41.4957908" lon="-0.3496927"><ele>264.0</ele><time>2026-05-04T09:38:46.754Z</time></trkpt><trkpt lat="41.495818" lon="-0.3495079"><ele>264.0</ele><time>2026-05-04T09:38:47.755Z</time></trkpt><trkpt lat="41.495841" lon="-0.3493259"><ele>264.0</ele><time>2026-05-04T09:38:48.754Z</time></trkpt><trkpt lat="41.4958631" lon="-0.3491452"><ele>264.0</ele><time>2026-05-04T09:38:49.755Z</time></trkpt><trkpt lat="41.4958866" lon="-0.3489561"><ele>263.75</ele><time>2026-05-04T09:38:50.755Z</time></trkpt><trkpt lat="41.4959114" lon="-0.3487663"><ele>263.5</ele><time>2026-05-04T09:38:51.755Z</time></trkpt><trkpt lat="41.4959323" lon="-0.3485726"><ele>263.25</ele><time>2026-05-04T09:38:52.755Z</time></trkpt><trkpt lat="41.49595" lon="-0.3483865"><ele>263.0</ele><time>2026-05-04T09:38:53.755Z</time></trkpt><trkpt lat="41.4959549" lon="-0.3481941"><ele>263.0</ele><time>2026-05-04T09:38:54.755Z</time></trkpt><trkpt lat="41.4959417" lon="-0.3480024"><ele>263.0</ele><time>2026-05-04T09:38:55.755Z</time></trkpt><trkpt lat="41.4959173" lon="-0.3478137"><ele>263.0</ele><time>2026-05-04T09:38:56.755Z</time></trkpt><trkpt lat="41.4958881" lon="-0.3476257"><ele>263.0</ele><time>2026-05-04T09:38:57.755Z</time></trkpt><trkpt lat="41.4958607" lon="-0.347438"><ele>263.0</ele><time>2026-05-04T09:38:58.755Z</time></trkpt><trkpt lat="41.4958401" lon="-0.3472569"><ele>263.0</ele><time>2026-05-04T09:38:59.755Z</time></trkpt><trkpt lat="41.4958269" lon="-0.347073"><ele>263.0</ele><time>2026-05-04T09:39:00.755Z</time></trkpt><trkpt lat="41.4958328" lon="-0.3468931"><ele>263.0</ele><time>2026-05-04T09:39:01.755Z</time></trkpt><trkpt lat="41.4958369" lon="-0.3467053"><ele>263.5</ele><time>2026-05-04T09:39:02.755Z</time></trkpt><trkpt lat="41.4958534" lon="-0.3465222"><ele>264.0</ele><time>2026-05-04T09:39:03.755Z</time></trkpt><trkpt lat="41.4958844" lon="-0.3463409"><ele>264.5</ele><time>2026-05-04T09:39:04.755Z</time></trkpt><trkpt lat="41.4959135" lon="-0.3461686"><ele>265.0</ele><time>2026-05-04T09:39:05.755Z</time></trkpt><trkpt lat="41.4959414" lon="-0.3459901"><ele>265.0</ele><time>2026-05-04T09:39:06.754Z</time></trkpt><trkpt lat="41.4959684" lon="-0.3458113"><ele>265.0</ele><time>2026-05-04T09:39:07.755Z</time></trkpt><trkpt lat="41.496" lon="-0.345631"><ele>265.0</ele><time>2026-05-04T09:39:08.755Z</time></trkpt><trkpt lat="41.4960325" lon="-0.3454492"><ele>265.0</ele><time>2026-05-04T09:39:09.755Z</time></trkpt><trkpt lat="41.4960654" lon="-0.3452668"><ele>265.25</ele><time>2026-05-04T09:39:10.755Z</time></trkpt><trkpt lat="41.4960939" lon="-0.3450899"><ele>265.5</ele><time>2026-05-04T09:39:11.755Z</time></trkpt><trkpt lat="41.4961203" lon="-0.3449109"><ele>265.75</ele><time>2026-05-04T09:39:12.755Z</time></trkpt><trkpt lat="41.4961473" lon="-0.3447242"><ele>266.0</ele><time>2026-05-04T09:39:13.755Z</time></trkpt><trkpt lat="41.4961752" lon="-0.3445411"><ele>266.0</ele><time>2026-05-04T09:39:14.755Z</time></trkpt><trkpt lat="41.496204" lon="-0.3443582"><ele>266.0</ele><time>2026-05-04T09:39:15.755Z</time></trkpt><trkpt lat="41.4962314" lon="-0.344175"><ele>266.0</ele><time>2026-05-04T09:39:16.756Z</time></trkpt><trkpt lat="41.4962578" lon="-0.343989"><ele>266.0</ele><time>2026-05-04T09:39:17.755Z</time></trkpt><trkpt lat="41.496286" lon="-0.3438113"><ele>266.0</ele><time>2026-05-04T09:39:18.756Z</time></trkpt><trkpt lat="41.4963166" lon="-0.343635"><ele>266.0</ele><time>2026-05-04T09:39:19.756Z</time></trkpt><trkpt lat="41.4963481" lon="-0.3434512"><ele>266.0</ele><time>2026-05-04T09:39:20.756Z</time></trkpt><trkpt lat="41.4963744" lon="-0.3432755"><ele>266.0</ele><time>2026-05-04T09:39:21.755Z</time></trkpt><trkpt lat="41.4963918" lon="-0.3430939"><ele>266.25</ele><time>2026-05-04T09:39:22.755Z</time></trkpt><trkpt lat="41.4964008" lon="-0.3429077"><ele>266.5</ele><time>2026-05-04T09:39:23.756Z</time></trkpt><trkpt lat="41.4963981" lon="-0.3427282"><ele>266.75</ele><time>2026-05-04T09:39:24.756Z</time></trkpt><trkpt lat="41.4963832" lon="-0.3425429"><ele>267.0</ele><time>2026-05-04T09:39:25.756Z</time></trkpt><trkpt lat="41.4963558" lon="-0.3423617"><ele>267.5</ele><time>2026-05-04T09:39:26.756Z</time></trkpt><trkpt lat="41.496318" lon="-0.342192"><ele>268.0</ele><time>2026-05-04T09:39:27.756Z</time></trkpt><trkpt lat="41.4962814" lon="-0.3420236"><ele>268.5</ele><time>2026-05-04T09:39:28.756Z</time></trkpt><trkpt lat="41.4962407" lon="-0.3418582"><ele>269.0</ele><time>2026-05-04T09:39:29.756Z</time></trkpt><trkpt lat="41.4961942" lon="-0.341688"><ele>269.75</ele><time>2026-05-04T09:39:30.756Z</time></trkpt><trkpt lat="41.4961512" lon="-0.3415197"><ele>270.5</ele><time>2026-05-04T09:39:31.756Z</time></trkpt><trkpt lat="41.4961075" lon="-0.3413498"><ele>271.25</ele><time>2026-05-04T09:39:32.756Z</time></trkpt><trkpt lat="41.4960601" lon="-0.3411846"><ele>272.0</ele><time>2026-05-04T09:39:33.756Z</time></trkpt><trkpt lat="41.4960141" lon="-0.3410176"><ele>272.25</ele><time>2026-05-04T09:39:34.756Z</time></trkpt><trkpt lat="41.4959717" lon="-0.3408529"><ele>272.5</ele><time>2026-05-04T09:39:35.755Z</time></trkpt><trkpt lat="41.4959256" lon="-0.3406923"><ele>272.75</ele><time>2026-05-04T09:39:36.756Z</time></trkpt><trkpt lat="41.495881" lon="-0.3405293"><ele>273.0</ele><time>2026-05-04T09:39:37.756Z</time></trkpt><trkpt lat="41.4958432" lon="-0.3403677"><ele>273.25</ele><time>2026-05-04T09:39:38.756Z</time></trkpt><trkpt lat="41.4958145" lon="-0.3401981"><ele>273.5</ele><time>2026-05-04T09:39:39.756Z</time></trkpt><trkpt lat="41.495795" lon="-0.3400373"><ele>273.75</ele><time>2026-05-04T09:39:40.756Z</time></trkpt><trkpt lat="41.4957863" lon="-0.3398696"><ele>274.0</ele><time>2026-05-04T09:39:41.756Z</time></trkpt><trkpt lat="41.4957865" lon="-0.3397002"><ele>274.25</ele><time>2026-05-04T09:39:42.756Z</time></trkpt><trkpt lat="41.4957939" lon="-0.339553"><ele>274.5</ele><time>2026-05-04T09:39:43.756Z</time></trkpt><trkpt lat="41.4958069" lon="-0.3394024"><ele>274.75</ele><time>2026-05-04T09:39:44.756Z</time></trkpt><trkpt lat="41.4958141" lon="-0.3392457"><ele>275.0</ele><time>2026-05-04T09:39:45.756Z</time></trkpt><trkpt lat="41.4958237" lon="-0.339088"><ele>275.0</ele><time>2026-05-04T09:39:46.756Z</time></trkpt><trkpt lat="41.4958321" lon="-0.3389311"><ele>275.0</ele><time>2026-05-04T09:39:47.756Z</time></trkpt><trkpt lat="41.4958445" lon="-0.3387733"><ele>275.0</ele><time>2026-05-04T09:39:48.756Z</time></trkpt><trkpt lat="41.4958536" lon="-0.338617"><ele>275.0</ele><time>2026-05-04T09:39:49.756Z</time></trkpt><trkpt lat="41.4958646" lon="-0.338462"><ele>275.25</ele><time>2026-05-04T09:39:50.756Z</time></trkpt><trkpt lat="41.4958715" lon="-0.3383044"><ele>275.5</ele><time>2026-05-04T09:39:51.756Z</time></trkpt><trkpt lat="41.4958796" lon="-0.3381489"><ele>275.75</ele><time>2026-05-04T09:39:52.756Z</time></trkpt><trkpt lat="41.4958914" lon="-0.3379986"><ele>276.0</ele><time>2026-05-04T09:39:53.756Z</time></trkpt><trkpt lat="41.495901" lon="-0.3378438"><ele>276.25</ele><time>2026-05-04T09:39:54.756Z</time></trkpt><trkpt lat="41.4959113" lon="-0.3376873"><ele>276.5</ele><time>2026-05-04T09:39:55.755Z</time></trkpt><trkpt lat="41.4959255" lon="-0.3375274"><ele>276.75</ele><time>2026-05-04T09:39:56.756Z</time></trkpt><trkpt lat="41.4959367" lon="-0.3373661"><ele>277.0</ele><time>2026-05-04T09:39:57.756Z</time></trkpt><trkpt lat="41.4959445" lon="-0.3372029"><ele>277.5</ele><time>2026-05-04T09:39:58.756Z</time></trkpt><trkpt lat="41.4959555" lon="-0.3370402"><ele>278.0</ele><time>2026-05-04T09:39:59.756Z</time></trkpt><trkpt lat="41.495963" lon="-0.3368758"><ele>278.5</ele><time>2026-05-04T09:40:00.756Z</time></trkpt><trkpt lat="41.4959777" lon="-0.3367114"><ele>279.0</ele><time>2026-05-04T09:40:01.756Z</time></trkpt><trkpt lat="41.4959909" lon="-0.3365449"><ele>279.0</ele><time>2026-05-04T09:40:02.755Z</time></trkpt><trkpt lat="41.4959989" lon="-0.3363809"><ele>279.0</ele><time>2026-05-04T09:40:03.756Z</time></trkpt><trkpt lat="41.4960087" lon="-0.3362136"><ele>279.0</ele><time>2026-05-04T09:40:04.756Z</time></trkpt><trkpt lat="41.4960193" lon="-0.3360526"><ele>279.0</ele><time>2026-05-04T09:40:05.756Z</time></trkpt><trkpt lat="41.4960313" lon="-0.3358897"><ele>279.0</ele><time>2026-05-04T09:40:06.756Z</time></trkpt><trkpt lat="41.4960389" lon="-0.3357196"><ele>279.0</ele><time>2026-05-04T09:40:07.756Z</time></trkpt><trkpt lat="41.4960522" lon="-0.3355541"><ele>279.0</ele><time>2026-05-04T09:40:08.756Z</time></trkpt><trkpt lat="41.4960605" lon="-0.3353869"><ele>279.0</ele><time>2026-05-04T09:40:09.756Z</time></trkpt><trkpt lat="41.4960696" lon="-0.3352203"><ele>279.25</ele><time>2026-05-04T09:40:10.756Z</time></trkpt><trkpt lat="41.4960786" lon="-0.3350564"><ele>279.5</ele><time>2026-05-04T09:40:11.756Z</time></trkpt><trkpt lat="41.4960888" lon="-0.3348898"><ele>279.75</ele><time>2026-05-04T09:40:12.756Z</time></trkpt><trkpt lat="41.4961034" lon="-0.3347265"><ele>280.0</ele><time>2026-05-04T09:40:13.756Z</time></trkpt><trkpt lat="41.4961147" lon="-0.3345618"><ele>280.25</ele><time>2026-05-04T09:40:14.756Z</time></trkpt><trkpt lat="41.4961265" lon="-0.3343943"><ele>280.5</ele><time>2026-05-04T09:40:15.756Z</time></trkpt><trkpt lat="41.4961447" lon="-0.3342367"><ele>280.75</ele><time>2026-05-04T09:40:16.756Z</time></trkpt><trkpt lat="41.4961645" lon="-0.334073"><ele>281.0</ele><time>2026-05-04T09:40:17.756Z</time></trkpt><trkpt lat="41.4961852" lon="-0.333907"><ele>281.0</ele><time>2026-05-04T09:40:18.756Z</time></trkpt><trkpt lat="41.4962019" lon="-0.3337326"><ele>281.0</ele><time>2026-05-04T09:40:19.756Z</time></trkpt><trkpt lat="41.4962207" lon="-0.3335577"><ele>281.0</ele><time>2026-05-04T09:40:20.756Z</time></trkpt><trkpt lat="41.4962395" lon="-0.3333832"><ele>281.0</ele><time>2026-05-04T09:40:21.756Z</time></trkpt><trkpt lat="41.496268" lon="-0.3332093"><ele>281.25</ele><time>2026-05-04T09:40:22.756Z</time></trkpt><trkpt lat="41.4962955" lon="-0.3330254"><ele>281.5</ele><time>2026-05-04T09:40:23.756Z</time></trkpt><trkpt lat="41.4963167" lon="-0.3328414"><ele>281.75</ele><time>2026-05-04T09:40:24.756Z</time></trkpt><trkpt lat="41.4963415" lon="-0.3326541"><ele>282.0</ele><time>2026-05-04T09:40:25.756Z</time></trkpt><trkpt lat="41.4963641" lon="-0.3324713"><ele>282.0</ele><time>2026-05-04T09:40:26.756Z</time></trkpt><trkpt lat="41.4963879" lon="-0.3322891"><ele>282.0</ele><time>2026-05-04T09:40:27.756Z</time></trkpt><trkpt lat="41.4964117" lon="-0.3321039"><ele>282.0</ele><time>2026-05-04T09:40:28.756Z</time></trkpt><trkpt lat="41.4964316" lon="-0.3319212"><ele>282.0</ele><time>2026-05-04T09:40:29.756Z</time></trkpt><trkpt lat="41.4964549" lon="-0.3317311"><ele>281.75</ele><time>2026-05-04T09:40:30.756Z</time></trkpt><trkpt lat="41.496476" lon="-0.3315458"><ele>281.5</ele><time>2026-05-04T09:40:31.756Z</time></trkpt><trkpt lat="41.4964985" lon="-0.3313533"><ele>281.25</ele><time>2026-05-04T09:40:32.756Z</time></trkpt><trkpt lat="41.4965213" lon="-0.3311589"><ele>281.0</ele><time>2026-05-04T09:40:33.756Z</time></trkpt><trkpt lat="41.4965416" lon="-0.3309774"><ele>281.0</ele><time>2026-05-04T09:40:34.756Z</time></trkpt><trkpt lat="41.4965649" lon="-0.3307954"><ele>281.0</ele><time>2026-05-04T09:40:35.756Z</time></trkpt><trkpt lat="41.4965864" lon="-0.3306108"><ele>281.0</ele><time>2026-05-04T09:40:36.756Z</time></trkpt><trkpt lat="41.496612" lon="-0.3304238"><ele>281.0</ele><time>2026-05-04T09:40:37.755Z</time></trkpt><trkpt lat="41.4966322" lon="-0.3302436"><ele>281.0</ele><time>2026-05-04T09:40:38.756Z</time></trkpt><trkpt lat="41.4966528" lon="-0.3300622"><ele>281.0</ele><time>2026-05-04T09:40:39.755Z</time></trkpt><trkpt lat="41.4966826" lon="-0.3298761"><ele>281.0</ele><time>2026-05-04T09:40:40.756Z</time></trkpt><trkpt lat="41.4967075" lon="-0.3296864"><ele>281.0</ele><time>2026-05-04T09:40:41.756Z</time></trkpt><trkpt lat="41.4967325" lon="-0.3295016"><ele>281.0</ele><time>2026-05-04T09:40:42.756Z</time></trkpt><trkpt lat="41.4967518" lon="-0.3293181"><ele>281.0</ele><time>2026-05-04T09:40:43.756Z</time></trkpt><trkpt lat="41.4967719" lon="-0.3291338"><ele>281.0</ele><time>2026-05-04T09:40:44.755Z</time></trkpt><trkpt lat="41.4967927" lon="-0.328946"><ele>281.0</ele><time>2026-05-04T09:40:45.756Z</time></trkpt><trkpt lat="41.4968185" lon="-0.3287607"><ele>281.0</ele><time>2026-05-04T09:40:46.755Z</time></trkpt><trkpt lat="41.4968407" lon="-0.3285753"><ele>281.0</ele><time>2026-05-04T09:40:47.756Z</time></trkpt><trkpt lat="41.4968652" lon="-0.3283953"><ele>281.0</ele><time>2026-05-04T09:40:48.756Z</time></trkpt><trkpt lat="41.4968918" lon="-0.3282118"><ele>281.0</ele><time>2026-05-04T09:40:49.756Z</time></trkpt><trkpt lat="41.4969173" lon="-0.3280268"><ele>281.25</ele><time>2026-05-04T09:40:50.756Z</time></trkpt><trkpt lat="41.4969404" lon="-0.3278469"><ele>281.5</ele><time>2026-05-04T09:40:51.756Z</time></trkpt><trkpt lat="41.4969655" lon="-0.3276603"><ele>281.75</ele><time>2026-05-04T09:40:52.756Z</time></trkpt><trkpt lat="41.496986" lon="-0.3274794"><ele>282.0</ele><time>2026-05-04T09:40:53.755Z</time></trkpt><trkpt lat="41.4970101" lon="-0.3272948"><ele>282.0</ele><time>2026-05-04T09:40:54.756Z</time></trkpt><trkpt lat="41.4970316" lon="-0.3271148"><ele>282.0</ele><time>2026-05-04T09:40:55.755Z</time></trkpt><trkpt lat="41.4970517" lon="-0.3269356"><ele>282.0</ele><time>2026-05-04T09:40:56.755Z</time></trkpt><trkpt lat="41.4970736" lon="-0.3267505"><ele>282.0</ele><time>2026-05-04T09:40:57.756Z</time></trkpt><trkpt lat="41.4970971" lon="-0.3265692"><ele>282.5</ele><time>2026-05-04T09:40:58.756Z</time></trkpt><trkpt lat="41.4971243" lon="-0.326395"><ele>283.0</ele><time>2026-05-04T09:40:59.756Z</time></trkpt><trkpt lat="41.4971473" lon="-0.326219"><ele>283.5</ele><time>2026-05-04T09:41:00.756Z</time></trkpt><trkpt lat="41.4971678" lon="-0.3260392"><ele>284.0</ele><time>2026-05-04T09:41:01.756Z</time></trkpt><trkpt lat="41.4971912" lon="-0.3258627"><ele>284.25</ele><time>2026-05-04T09:41:02.755Z</time></trkpt><trkpt lat="41.4972164" lon="-0.3256861"><ele>284.5</ele><time>2026-05-04T09:41:03.756Z</time></trkpt><trkpt lat="41.4972362" lon="-0.3255097"><ele>284.75</ele><time>2026-05-04T09:41:04.756Z</time></trkpt><trkpt lat="41.497251" lon="-0.3253397"><ele>285.0</ele><time>2026-05-04T09:41:05.756Z</time></trkpt><trkpt lat="41.4972609" lon="-0.3251556"><ele>285.0</ele><time>2026-05-04T09:41:06.756Z</time></trkpt><trkpt lat="41.4972639" lon="-0.324977"><ele>285.0</ele><time>2026-05-04T09:41:07.756Z</time></trkpt><trkpt lat="41.4972577" lon="-0.3247889"><ele>285.0</ele><time>2026-05-04T09:41:08.755Z</time></trkpt><trkpt lat="41.4972383" lon="-0.3246085"><ele>285.0</ele><time>2026-05-04T09:41:09.756Z</time></trkpt><trkpt lat="41.4972109" lon="-0.3244413"><ele>285.25</ele><time>2026-05-04T09:41:10.756Z</time></trkpt><trkpt lat="41.4971745" lon="-0.3242734"><ele>285.5</ele><time>2026-05-04T09:41:11.756Z</time></trkpt><trkpt lat="41.4971387" lon="-0.3241042"><ele>285.75</ele><time>2026-05-04T09:41:12.755Z</time></trkpt><trkpt lat="41.4971031" lon="-0.3239345"><ele>286.0</ele><time>2026-05-04T09:41:13.755Z</time></trkpt><trkpt lat="41.4970689" lon="-0.3237629"><ele>286.0</ele><time>2026-05-04T09:41:14.757Z</time></trkpt><trkpt lat="41.4970329" lon="-0.3235959"><ele>286.0</ele><time>2026-05-04T09:41:15.757Z</time></trkpt><trkpt lat="41.4969988" lon="-0.3234215"><ele>286.0</ele><time>2026-05-04T09:41:16.757Z</time></trkpt><trkpt lat="41.4969666" lon="-0.3232511"><ele>286.0</ele><time>2026-05-04T09:41:17.757Z</time></trkpt><trkpt lat="41.4969347" lon="-0.3230782"><ele>285.75</ele><time>2026-05-04T09:41:18.757Z</time></trkpt><trkpt lat="41.4968966" lon="-0.3229004"><ele>285.5</ele><time>2026-05-04T09:41:19.757Z</time></trkpt><trkpt lat="41.4968624" lon="-0.3227247"><ele>285.25</ele><time>2026-05-04T09:41:20.756Z</time></trkpt><trkpt lat="41.4968274" lon="-0.3225542"><ele>285.0</ele><time>2026-05-04T09:41:21.757Z</time></trkpt><trkpt lat="41.4967936" lon="-0.3223859"><ele>285.0</ele><time>2026-05-04T09:41:22.756Z</time></trkpt><trkpt lat="41.4967603" lon="-0.3222139"><ele>285.0</ele><time>2026-05-04T09:41:23.757Z</time></trkpt><trkpt lat="41.4967254" lon="-0.3220402"><ele>285.0</ele><time>2026-05-04T09:41:24.757Z</time></trkpt><trkpt lat="41.4966916" lon="-0.3218649"><ele>285.0</ele><time>2026-05-04T09:41:25.757Z</time></trkpt><trkpt lat="41.4966542" lon="-0.3216916"><ele>285.0</ele><time>2026-05-04T09:41:26.757Z</time></trkpt><trkpt lat="41.4966223" lon="-0.3215161"><ele>285.0</ele><time>2026-05-04T09:41:27.757Z</time></trkpt><trkpt lat="41.4965863" lon="-0.3213344"><ele>285.0</ele><time>2026-05-04T09:41:28.756Z</time></trkpt><trkpt lat="41.4965551" lon="-0.3211647"><ele>285.0</ele><time>2026-05-04T09:41:29.757Z</time></trkpt><trkpt lat="41.4965196" lon="-0.3209908"><ele>285.25</ele><time>2026-05-04T09:41:30.757Z</time></trkpt><trkpt lat="41.4964841" lon="-0.3208119"><ele>285.5</ele><time>2026-05-04T09:41:31.757Z</time></trkpt><trkpt lat="41.4964454" lon="-0.3206292"><ele>285.75</ele><time>2026-05-04T09:41:32.756Z</time></trkpt><trkpt lat="41.496409" lon="-0.3204467"><ele>286.0</ele><time>2026-05-04T09:41:33.757Z</time></trkpt><trkpt lat="41.4963724" lon="-0.3202693"><ele>285.75</ele><time>2026-05-04T09:41:34.757Z</time></trkpt><trkpt lat="41.4963371" lon="-0.3200884"><ele>285.5</ele><time>2026-05-04T09:41:35.757Z</time></trkpt><trkpt lat="41.4963027" lon="-0.3199054"><ele>285.25</ele><time>2026-05-04T09:41:36.757Z</time></trkpt><trkpt lat="41.4962669" lon="-0.3197208"><ele>285.0</ele><time>2026-05-04T09:41:37.757Z</time></trkpt><trkpt lat="41.4962269" lon="-0.3195376"><ele>285.0</ele><time>2026-05-04T09:41:38.757Z</time></trkpt><trkpt lat="41.4961942" lon="-0.3193509"><ele>285.0</ele><time>2026-05-04T09:41:39.756Z</time></trkpt><trkpt lat="41.4961635" lon="-0.3191709"><ele>285.0</ele><time>2026-05-04T09:41:40.757Z</time></trkpt><trkpt lat="41.4961265" lon="-0.318976"><ele>285.0</ele><time>2026-05-04T09:41:41.757Z</time></trkpt><trkpt lat="41.4960902" lon="-0.3187914"><ele>285.0</ele><time>2026-05-04T09:41:42.757Z</time></trkpt><trkpt lat="41.496052" lon="-0.3185997"><ele>285.0</ele><time>2026-05-04T09:41:43.757Z</time></trkpt><trkpt lat="41.4960165" lon="-0.3184149"><ele>285.0</ele><time>2026-05-04T09:41:44.757Z</time></trkpt><trkpt lat="41.4959772" lon="-0.3182298"><ele>285.0</ele><time>2026-05-04T09:41:45.757Z</time></trkpt><trkpt lat="41.4959369" lon="-0.318047"><ele>285.25</ele><time>2026-05-04T09:41:46.757Z</time></trkpt><trkpt lat="41.4958976" lon="-0.3178673"><ele>285.5</ele><time>2026-05-04T09:41:47.757Z</time></trkpt><trkpt lat="41.4958598" lon="-0.3176906"><ele>285.75</ele><time>2026-05-04T09:41:48.756Z</time></trkpt><trkpt lat="41.4958247" lon="-0.3175167"><ele>286.0</ele><time>2026-05-04T09:41:49.756Z</time></trkpt><trkpt lat="41.4957952" lon="-0.3173408"><ele>286.0</ele><time>2026-05-04T09:41:50.757Z</time></trkpt><trkpt lat="41.4957616" lon="-0.3171597"><ele>286.0</ele><time>2026-05-04T09:41:51.757Z</time></trkpt><trkpt lat="41.4957289" lon="-0.3169872"><ele>286.0</ele><time>2026-05-04T09:41:52.757Z</time></trkpt><trkpt lat="41.495694" lon="-0.3168115"><ele>286.0</ele><time>2026-05-04T09:41:53.756Z</time></trkpt><trkpt lat="41.4956587" lon="-0.3166359"><ele>286.0</ele><time>2026-05-04T09:41:54.757Z</time></trkpt><trkpt lat="41.4956264" lon="-0.3164645"><ele>286.0</ele><time>2026-05-04T09:41:55.757Z</time></trkpt><trkpt lat="41.4955906" lon="-0.3162925"><ele>286.0</ele><time>2026-05-04T09:41:56.756Z</time></trkpt><trkpt lat="41.4955566" lon="-0.3161181"><ele>286.0</ele><time>2026-05-04T09:41:57.757Z</time></trkpt><trkpt lat="41.4955199" lon="-0.3159394"><ele>286.5</ele><time>2026-05-04T09:41:58.757Z</time></trkpt><trkpt lat="41.4954828" lon="-0.3157641"><ele>287.0</ele><time>2026-05-04T09:41:59.757Z</time></trkpt><trkpt lat="41.495444" lon="-0.3155849"><ele>287.5</ele><time>2026-05-04T09:42:00.757Z</time></trkpt><trkpt lat="41.4954101" lon="-0.3154136"><ele>288.0</ele><time>2026-05-04T09:42:01.757Z</time></trkpt><trkpt lat="41.4953736" lon="-0.3152375"><ele>287.0</ele><time>2026-05-04T09:42:02.757Z</time></trkpt><trkpt lat="41.4953402" lon="-0.3150601"><ele>286.0</ele><time>2026-05-04T09:42:03.756Z</time></trkpt><trkpt lat="41.495307" lon="-0.3148854"><ele>285.0</ele><time>2026-05-04T09:42:04.756Z</time></trkpt><trkpt lat="41.4952747" lon="-0.3147075"><ele>284.0</ele><time>2026-05-04T09:42:05.756Z</time></trkpt><trkpt lat="41.4952477" lon="-0.3145289"><ele>284.0</ele><time>2026-05-04T09:42:06.756Z</time></trkpt><trkpt lat="41.4952206" lon="-0.3143525"><ele>284.0</ele><time>2026-05-04T09:42:07.757Z</time></trkpt><trkpt lat="41.4951937" lon="-0.3141727"><ele>284.0</ele><time>2026-05-04T09:42:08.757Z</time></trkpt><trkpt lat="41.4951683" lon="-0.313996"><ele>284.0</ele><time>2026-05-04T09:42:09.757Z</time></trkpt><trkpt lat="41.4951496" lon="-0.3138136"><ele>284.25</ele><time>2026-05-04T09:42:10.757Z</time></trkpt><trkpt lat="41.4951294" lon="-0.313631"><ele>284.5</ele><time>2026-05-04T09:42:11.757Z</time></trkpt><trkpt lat="41.4951073" lon="-0.3134495"><ele>284.75</ele><time>2026-05-04T09:42:12.757Z</time></trkpt><trkpt lat="41.4950846" lon="-0.3132716"><ele>285.0</ele><time>2026-05-04T09:42:13.757Z</time></trkpt><trkpt lat="41.4950639" lon="-0.3130934"><ele>285.5</ele><time>2026-05-04T09:42:14.756Z</time></trkpt><trkpt lat="41.4950411" lon="-0.3129114"><ele>286.0</ele><time>2026-05-04T09:42:15.757Z</time></trkpt><trkpt lat="41.4950239" lon="-0.3127366"><ele>286.5</ele><time>2026-05-04T09:42:16.757Z</time></trkpt><trkpt lat="41.495002" lon="-0.312555"><ele>287.0</ele><time>2026-05-04T09:42:17.756Z</time></trkpt><trkpt lat="41.4949808" lon="-0.3123818"><ele>287.5</ele><time>2026-05-04T09:42:18.756Z</time></trkpt><trkpt lat="41.4949582" lon="-0.3122101"><ele>288.0</ele><time>2026-05-04T09:42:19.757Z</time></trkpt><trkpt lat="41.4949401" lon="-0.3120329"><ele>288.5</ele><time>2026-05-04T09:42:20.757Z</time></trkpt><trkpt lat="41.4949211" lon="-0.3118551"><ele>289.0</ele><time>2026-05-04T09:42:21.756Z</time></trkpt><trkpt lat="41.494902" lon="-0.3116798"><ele>289.0</ele><time>2026-05-04T09:42:22.757Z</time></trkpt><trkpt lat="41.4948808" lon="-0.311506"><ele>289.0</ele><time>2026-05-04T09:42:23.757Z</time></trkpt><trkpt lat="41.4948612" lon="-0.3113285"><ele>289.0</ele><time>2026-05-04T09:42:24.757Z</time></trkpt><trkpt lat="41.4948367" lon="-0.3111471"><ele>289.0</ele><time>2026-05-04T09:42:25.757Z</time></trkpt><trkpt lat="41.4948119" lon="-0.3109624"><ele>289.0</ele><time>2026-05-04T09:42:26.757Z</time></trkpt><trkpt lat="41.494788" lon="-0.3107759"><ele>289.0</ele><time>2026-05-04T09:42:27.757Z</time></trkpt><trkpt lat="41.4947633" lon="-0.3105886"><ele>289.0</ele><time>2026-05-04T09:42:28.757Z</time></trkpt><trkpt lat="41.4947441" lon="-0.3104087"><ele>289.0</ele><time>2026-05-04T09:42:29.757Z</time></trkpt><trkpt lat="41.4947213" lon="-0.3102258"><ele>289.0</ele><time>2026-05-04T09:42:30.756Z</time></trkpt><trkpt lat="41.4947005" lon="-0.3100403"><ele>289.0</ele><time>2026-05-04T09:42:31.757Z</time></trkpt><trkpt lat="41.4946746" lon="-0.3098517"><ele>289.0</ele><time>2026-05-04T09:42:32.757Z</time></trkpt><trkpt lat="41.4946508" lon="-0.3096696"><ele>289.0</ele><time>2026-05-04T09:42:33.757Z</time></trkpt><trkpt lat="41.4946306" lon="-0.3094825"><ele>289.0</ele><time>2026-05-04T09:42:34.757Z</time></trkpt><trkpt lat="41.4946132" lon="-0.3092951"><ele>289.0</ele><time>2026-05-04T09:42:35.757Z</time></trkpt><trkpt lat="41.4945873" lon="-0.3091091"><ele>289.0</ele><time>2026-05-04T09:42:36.756Z</time></trkpt><trkpt lat="41.4945691" lon="-0.3089246"><ele>289.0</ele><time>2026-05-04T09:42:37.756Z</time></trkpt><trkpt lat="41.4945461" lon="-0.3087321"><ele>288.5</ele><time>2026-05-04T09:42:38.757Z</time></trkpt><trkpt lat="41.4945271" lon="-0.3085442"><ele>288.0</ele><time>2026-05-04T09:42:39.756Z</time></trkpt><trkpt lat="41.4945037" lon="-0.308352"><ele>287.5</ele><time>2026-05-04T09:42:40.756Z</time></trkpt><trkpt lat="41.4944816" lon="-0.3081629"><ele>287.0</ele><time>2026-05-04T09:42:41.757Z</time></trkpt><trkpt lat="41.4944556" lon="-0.3079737"><ele>287.0</ele><time>2026-05-04T09:42:42.756Z</time></trkpt><trkpt lat="41.4944366" lon="-0.3077838"><ele>287.0</ele><time>2026-05-04T09:42:43.757Z</time></trkpt><trkpt lat="41.4944116" lon="-0.3075892"><ele>287.0</ele><time>2026-05-04T09:42:44.756Z</time></trkpt><trkpt lat="41.4943865" lon="-0.3073963"><ele>287.0</ele><time>2026-05-04T09:42:45.757Z</time></trkpt><trkpt lat="41.4943688" lon="-0.3072072"><ele>287.5</ele><time>2026-05-04T09:42:46.757Z</time></trkpt><trkpt lat="41.4943483" lon="-0.3070221"><ele>288.0</ele><time>2026-05-04T09:42:47.757Z</time></trkpt><trkpt lat="41.4943307" lon="-0.3068325"><ele>288.5</ele><time>2026-05-04T09:42:48.757Z</time></trkpt><trkpt lat="41.4943151" lon="-0.306645"><ele>289.0</ele><time>2026-05-04T09:42:49.757Z</time></trkpt><trkpt lat="41.4943015" lon="-0.306458"><ele>290.0</ele><time>2026-05-04T09:42:50.757Z</time></trkpt><trkpt lat="41.4942874" lon="-0.3062685"><ele>291.0</ele><time>2026-05-04T09:42:51.757Z</time></trkpt><trkpt lat="41.494276" lon="-0.3060763"><ele>292.0</ele><time>2026-05-04T09:42:52.757Z</time></trkpt><trkpt lat="41.4942721" lon="-0.305886"><ele>293.0</ele><time>2026-05-04T09:42:53.757Z</time></trkpt><trkpt lat="41.4942687" lon="-0.3057006"><ele>293.0</ele><time>2026-05-04T09:42:54.756Z</time></trkpt><trkpt lat="41.4942683" lon="-0.3055167"><ele>293.0</ele><time>2026-05-04T09:42:55.756Z</time></trkpt><trkpt lat="41.4942698" lon="-0.3053366"><ele>293.0</ele><time>2026-05-04T09:42:56.757Z</time></trkpt><trkpt lat="41.4942748" lon="-0.3051574"><ele>293.0</ele><time>2026-05-04T09:42:57.757Z</time></trkpt><trkpt lat="41.4942856" lon="-0.3049739"><ele>293.0</ele><time>2026-05-04T09:42:58.757Z</time></trkpt><trkpt lat="41.4942926" lon="-0.3048008"><ele>293.0</ele><time>2026-05-04T09:42:59.757Z</time></trkpt><trkpt lat="41.4943104" lon="-0.3046294"><ele>293.0</ele><time>2026-05-04T09:43:00.757Z</time></trkpt><trkpt lat="41.494328" lon="-0.3044611"><ele>293.0</ele><time>2026-05-04T09:43:01.757Z</time></trkpt><trkpt lat="41.4943428" lon="-0.3042921"><ele>292.75</ele><time>2026-05-04T09:43:02.757Z</time></trkpt><trkpt lat="41.4943622" lon="-0.3041249"><ele>292.5</ele><time>2026-05-04T09:43:03.757Z</time></trkpt><trkpt lat="41.4943865" lon="-0.3039599"><ele>292.25</ele><time>2026-05-04T09:43:04.757Z</time></trkpt><trkpt lat="41.4944083" lon="-0.3037963"><ele>292.0</ele><time>2026-05-04T09:43:05.757Z</time></trkpt><trkpt lat="41.4944335" lon="-0.3036319"><ele>291.75</ele><time>2026-05-04T09:43:06.757Z</time></trkpt><trkpt lat="41.4944654" lon="-0.3034671"><ele>291.5</ele><time>2026-05-04T09:43:07.756Z</time></trkpt><trkpt lat="41.4945027" lon="-0.3032903"><ele>291.25</ele><time>2026-05-04T09:43:08.757Z</time></trkpt><trkpt lat="41.4945411" lon="-0.3031186"><ele>291.0</ele><time>2026-05-04T09:43:09.757Z</time></trkpt><trkpt lat="41.4945803" lon="-0.3029559"><ele>292.0</ele><time>2026-05-04T09:43:10.756Z</time></trkpt><trkpt lat="41.4946181" lon="-0.3027947"><ele>293.0</ele><time>2026-05-04T09:43:11.758Z</time></trkpt><trkpt lat="41.494655" lon="-0.3026393"><ele>294.0</ele><time>2026-05-04T09:43:12.758Z</time></trkpt><trkpt lat="41.494694" lon="-0.3024865"><ele>295.0</ele><time>2026-05-04T09:43:13.758Z</time></trkpt><trkpt lat="41.4947298" lon="-0.3023317"><ele>294.5</ele><time>2026-05-04T09:43:14.757Z</time></trkpt><trkpt lat="41.4947706" lon="-0.302179"><ele>294.0</ele><time>2026-05-04T09:43:15.758Z</time></trkpt><trkpt lat="41.4948138" lon="-0.3020208"><ele>293.5</ele><time>2026-05-04T09:43:16.758Z</time></trkpt><trkpt lat="41.4948559" lon="-0.3018638"><ele>293.0</ele><time>2026-05-04T09:43:17.758Z</time></trkpt><trkpt lat="41.4948984" lon="-0.301705"><ele>293.0</ele><time>2026-05-04T09:43:18.758Z</time></trkpt><trkpt lat="41.4949396" lon="-0.3015494"><ele>293.0</ele><time>2026-05-04T09:43:19.758Z</time></trkpt><trkpt lat="41.4949854" lon="-0.3013888"><ele>293.0</ele><time>2026-05-04T09:43:20.758Z</time></trkpt><trkpt lat="41.4950264" lon="-0.3012291"><ele>293.0</ele><time>2026-05-04T09:43:21.758Z</time></trkpt><trkpt lat="41.4950707" lon="-0.3010708"><ele>292.5</ele><time>2026-05-04T09:43:22.758Z</time></trkpt><trkpt lat="41.4951166" lon="-0.3009101"><ele>292.0</ele><time>2026-05-04T09:43:23.758Z</time></trkpt><trkpt lat="41.495158" lon="-0.3007465"><ele>291.5</ele><time>2026-05-04T09:43:24.758Z</time></trkpt><trkpt lat="41.4952003" lon="-0.30058"><ele>291.0</ele><time>2026-05-04T09:43:25.757Z</time></trkpt><trkpt lat="41.4952462" lon="-0.3004162"><ele>291.0</ele><time>2026-05-04T09:43:26.758Z</time></trkpt><trkpt lat="41.4952905" lon="-0.3002483"><ele>291.0</ele><time>2026-05-04T09:43:27.758Z</time></trkpt><trkpt lat="41.4953296" lon="-0.3000796"><ele>291.0</ele><time>2026-05-04T09:43:28.757Z</time></trkpt><trkpt lat="41.4953727" lon="-0.2999192"><ele>291.0</ele><time>2026-05-04T09:43:29.758Z</time></trkpt><trkpt lat="41.495411" lon="-0.2997503"><ele>292.25</ele><time>2026-05-04T09:43:30.758Z</time></trkpt><trkpt lat="41.495455" lon="-0.2995855"><ele>293.5</ele><time>2026-05-04T09:43:31.758Z</time></trkpt><trkpt lat="41.4954987" lon="-0.2994237"><ele>294.75</ele><time>2026-05-04T09:43:32.757Z</time></trkpt><trkpt lat="41.4955384" lon="-0.2992614"><ele>296.0</ele><time>2026-05-04T09:43:33.758Z</time></trkpt><trkpt lat="41.4955837" lon="-0.2990997"><ele>296.0</ele><time>2026-05-04T09:43:34.757Z</time></trkpt><trkpt lat="41.4956307" lon="-0.2989358"><ele>296.0</ele><time>2026-05-04T09:43:35.758Z</time></trkpt><trkpt lat="41.4956739" lon="-0.2987744"><ele>296.0</ele><time>2026-05-04T09:43:36.758Z</time></trkpt><trkpt lat="41.4957166" lon="-0.2986128"><ele>296.0</ele><time>2026-05-04T09:43:37.758Z</time></trkpt><trkpt lat="41.4957595" lon="-0.2984517"><ele>296.0</ele><time>2026-05-04T09:43:38.758Z</time></trkpt><trkpt lat="41.4958038" lon="-0.2982889"><ele>296.0</ele><time>2026-05-04T09:43:39.757Z</time></trkpt><trkpt lat="41.4958479" lon="-0.2981225"><ele>296.0</ele><time>2026-05-04T09:43:40.758Z</time></trkpt><trkpt lat="41.4958877" lon="-0.2979577"><ele>296.0</ele><time>2026-05-04T09:43:41.758Z</time></trkpt><trkpt lat="41.4959303" lon="-0.2977942"><ele>296.0</ele><time>2026-05-04T09:43:42.758Z</time></trkpt><trkpt lat="41.495973" lon="-0.2976296"><ele>296.0</ele><time>2026-05-04T09:43:43.757Z</time></trkpt><trkpt lat="41.4960169" lon="-0.2974602"><ele>296.0</ele><time>2026-05-04T09:43:44.757Z</time></trkpt><trkpt lat="41.4960601" lon="-0.2972991"><ele>296.0</ele><time>2026-05-04T09:43:45.758Z</time></trkpt><trkpt lat="41.4961048" lon="-0.29713"><ele>296.25</ele><time>2026-05-04T09:43:46.758Z</time></trkpt><trkpt lat="41.4961525" lon="-0.2969616"><ele>296.5</ele><time>2026-05-04T09:43:47.757Z</time></trkpt><trkpt lat="41.4962022" lon="-0.2967999"><ele>296.75</ele><time>2026-05-04T09:43:48.758Z</time></trkpt><trkpt lat="41.496256" lon="-0.2966308"><ele>297.0</ele><time>2026-05-04T09:43:49.758Z</time></trkpt><trkpt lat="41.4963085" lon="-0.2964618"><ele>296.5</ele><time>2026-05-04T09:43:50.757Z</time></trkpt><trkpt lat="41.496357" lon="-0.2962936"><ele>296.0</ele><time>2026-05-04T09:43:51.757Z</time></trkpt><trkpt lat="41.4964044" lon="-0.2961283"><ele>295.5</ele><time>2026-05-04T09:43:52.758Z</time></trkpt><trkpt lat="41.4964563" lon="-0.2959621"><ele>295.0</ele><time>2026-05-04T09:43:53.757Z</time></trkpt><trkpt lat="41.4965081" lon="-0.2957948"><ele>295.0</ele><time>2026-05-04T09:43:54.758Z</time></trkpt><trkpt lat="41.4965566" lon="-0.295629"><ele>295.0</ele><time>2026-05-04T09:43:55.758Z</time></trkpt><trkpt lat="41.4966102" lon="-0.2954683"><ele>295.0</ele><time>2026-05-04T09:43:56.757Z</time></trkpt><trkpt lat="41.4966549" lon="-0.2953091"><ele>295.0</ele><time>2026-05-04T09:43:57.758Z</time></trkpt><trkpt lat="41.4967053" lon="-0.2951445"><ele>294.75</ele><time>2026-05-04T09:43:58.758Z</time></trkpt><trkpt lat="41.4967561" lon="-0.2949806"><ele>294.5</ele><time>2026-05-04T09:43:59.758Z</time></trkpt><trkpt lat="41.4968054" lon="-0.2948144"><ele>294.25</ele><time>2026-05-04T09:44:00.758Z</time></trkpt><trkpt lat="41.4968578" lon="-0.2946486"><ele>294.0</ele><time>2026-05-04T09:44:01.758Z</time></trkpt><trkpt lat="41.4969057" lon="-0.2944813"><ele>294.0</ele><time>2026-05-04T09:44:02.758Z</time></trkpt><trkpt lat="41.4969589" lon="-0.2943111"><ele>294.0</ele><time>2026-05-04T09:44:03.758Z</time></trkpt><trkpt lat="41.497008" lon="-0.2941414"><ele>294.0</ele><time>2026-05-04T09:44:04.758Z</time></trkpt><trkpt lat="41.4970567" lon="-0.2939755"><ele>294.0</ele><time>2026-05-04T09:44:05.758Z</time></trkpt><trkpt lat="41.4971072" lon="-0.2938103"><ele>295.25</ele><time>2026-05-04T09:44:06.758Z</time></trkpt><trkpt lat="41.4971565" lon="-0.2936391"><ele>296.5</ele><time>2026-05-04T09:44:07.758Z</time></trkpt><trkpt lat="41.4972055" lon="-0.293471"><ele>297.75</ele><time>2026-05-04T09:44:08.758Z</time></trkpt><trkpt lat="41.4972602" lon="-0.2933099"><ele>299.0</ele><time>2026-05-04T09:44:09.758Z</time></trkpt><trkpt lat="41.4973121" lon="-0.2931478"><ele>298.5</ele><time>2026-05-04T09:44:10.758Z</time></trkpt><trkpt lat="41.4973592" lon="-0.2929848"><ele>298.0</ele><time>2026-05-04T09:44:11.758Z</time></trkpt><trkpt lat="41.4974091" lon="-0.2928204"><ele>297.5</ele><time>2026-05-04T09:44:12.757Z</time></trkpt><trkpt lat="41.4974628" lon="-0.2926485"><ele>297.0</ele><time>2026-05-04T09:44:13.758Z</time></trkpt><trkpt lat="41.4975161" lon="-0.2924788"><ele>297.0</ele><time>2026-05-04T09:44:14.758Z</time></trkpt><trkpt lat="41.4975652" lon="-0.2923121"><ele>297.0</ele><time>2026-05-04T09:44:15.758Z</time></trkpt><trkpt lat="41.4976188" lon="-0.2921362"><ele>297.0</ele><time>2026-05-04T09:44:16.758Z</time></trkpt><trkpt lat="41.4976715" lon="-0.291961"><ele>297.0</ele><time>2026-05-04T09:44:17.758Z</time></trkpt><trkpt lat="41.4977247" lon="-0.2917896"><ele>296.75</ele><time>2026-05-04T09:44:18.758Z</time></trkpt><trkpt lat="41.4977731" lon="-0.2916114"><ele>296.5</ele><time>2026-05-04T09:44:19.758Z</time></trkpt><trkpt lat="41.4978175" lon="-0.2914368"><ele>296.25</ele><time>2026-05-04T09:44:20.758Z</time></trkpt><trkpt lat="41.4978499" lon="-0.2912567"><ele>296.0</ele><time>2026-05-04T09:44:21.757Z</time></trkpt><trkpt lat="41.4978747" lon="-0.2910708"><ele>296.0</ele><time>2026-05-04T09:44:22.757Z</time></trkpt><trkpt lat="41.4978904" lon="-0.2908844"><ele>296.0</ele><time>2026-05-04T09:44:23.758Z</time></trkpt><trkpt lat="41.4978999" lon="-0.2906942"><ele>296.0</ele><time>2026-05-04T09:44:24.758Z</time></trkpt><trkpt lat="41.4979096" lon="-0.2905112"><ele>296.0</ele><time>2026-05-04T09:44:25.757Z</time></trkpt><trkpt lat="41.4979203" lon="-0.2903252"><ele>297.25</ele><time>2026-05-04T09:44:26.758Z</time></trkpt><trkpt lat="41.4979371" lon="-0.2901402"><ele>298.5</ele><time>2026-05-04T09:44:27.758Z</time></trkpt><trkpt lat="41.4979474" lon="-0.2899624"><ele>299.75</ele><time>2026-05-04T09:44:28.758Z</time></trkpt><trkpt lat="41.4979655" lon="-0.2897851"><ele>301.0</ele><time>2026-05-04T09:44:29.758Z</time></trkpt><trkpt lat="41.4979909" lon="-0.2896093"><ele>301.0</ele><time>2026-05-04T09:44:30.758Z</time></trkpt><trkpt lat="41.4980233" lon="-0.2894405"><ele>301.0</ele><time>2026-05-04T09:44:31.758Z</time></trkpt><trkpt lat="41.4980624" lon="-0.2892726"><ele>301.0</ele><time>2026-05-04T09:44:32.758Z</time></trkpt><trkpt lat="41.4981093" lon="-0.289104"><ele>301.0</ele><time>2026-05-04T09:44:33.757Z</time></trkpt><trkpt lat="41.4981587" lon="-0.2889404"><ele>300.25</ele><time>2026-05-04T09:44:34.758Z</time></trkpt><trkpt lat="41.4982144" lon="-0.2887735"><ele>299.5</ele><time>2026-05-04T09:44:35.757Z</time></trkpt><trkpt lat="41.4982731" lon="-0.2886134"><ele>298.75</ele><time>2026-05-04T09:44:36.758Z</time></trkpt><trkpt lat="41.4983351" lon="-0.2884577"><ele>298.0</ele><time>2026-05-04T09:44:37.758Z</time></trkpt><trkpt lat="41.4984077" lon="-0.2883056"><ele>298.0</ele><time>2026-05-04T09:44:38.758Z</time></trkpt><trkpt lat="41.4984803" lon="-0.2881586"><ele>298.0</ele><time>2026-05-04T09:44:39.758Z</time></trkpt><trkpt lat="41.4985536" lon="-0.288013"><ele>298.0</ele><time>2026-05-04T09:44:40.758Z</time></trkpt><trkpt lat="41.4986309" lon="-0.2878676"><ele>298.0</ele><time>2026-05-04T09:44:41.758Z</time></trkpt><trkpt lat="41.4987071" lon="-0.2877218"><ele>298.25</ele><time>2026-05-04T09:44:42.758Z</time></trkpt><trkpt lat="41.4987816" lon="-0.2875771"><ele>298.5</ele><time>2026-05-04T09:44:43.758Z</time></trkpt><trkpt lat="41.498854" lon="-0.2874337"><ele>298.75</ele><time>2026-05-04T09:44:44.758Z</time></trkpt><trkpt lat="41.4989287" lon="-0.2872912"><ele>299.0</ele><time>2026-05-04T09:44:45.758Z</time></trkpt><trkpt lat="41.4990046" lon="-0.2871482"><ele>299.0</ele><time>2026-05-04T09:44:46.758Z</time></trkpt><trkpt lat="41.4990848" lon="-0.287002"><ele>299.0</ele><time>2026-05-04T09:44:47.758Z</time></trkpt><trkpt lat="41.4991606" lon="-0.2868591"><ele>299.0</ele><time>2026-05-04T09:44:48.758Z</time></trkpt><trkpt lat="41.4992352" lon="-0.2867142"><ele>299.0</ele><time>2026-05-04T09:44:49.758Z</time></trkpt><trkpt lat="41.4993126" lon="-0.2865723"><ele>299.0</ele><time>2026-05-04T09:44:50.758Z</time></trkpt><trkpt lat="41.4993879" lon="-0.2864262"><ele>299.0</ele><time>2026-05-04T09:44:51.758Z</time></trkpt><trkpt lat="41.4994647" lon="-0.2862875"><ele>299.0</ele><time>2026-05-04T09:44:52.758Z</time></trkpt><trkpt lat="41.4995384" lon="-0.2861417"><ele>299.0</ele><time>2026-05-04T09:44:53.758Z</time></trkpt><trkpt lat="41.4996159" lon="-0.2859977"><ele>299.5</ele><time>2026-05-04T09:44:54.757Z</time></trkpt><trkpt lat="41.49969" lon="-0.2858525"><ele>300.0</ele><time>2026-05-04T09:44:55.758Z</time></trkpt><trkpt lat="41.4997644" lon="-0.2857033"><ele>300.5</ele><time>2026-05-04T09:44:56.758Z</time></trkpt><trkpt lat="41.4998324" lon="-0.2855585"><ele>301.0</ele><time>2026-05-04T09:44:57.758Z</time></trkpt><trkpt lat="41.4998956" lon="-0.2854057"><ele>301.0</ele><time>2026-05-04T09:44:58.758Z</time></trkpt><trkpt lat="41.4999566" lon="-0.2852545"><ele>301.0</ele><time>2026-05-04T09:44:59.758Z</time></trkpt><trkpt lat="41.500014" lon="-0.2850969"><ele>301.0</ele><time>2026-05-04T09:45:00.758Z</time></trkpt><trkpt lat="41.5000678" lon="-0.2849381"><ele>301.0</ele><time>2026-05-04T09:45:01.758Z</time></trkpt><trkpt lat="41.5001173" lon="-0.2847795"><ele>300.75</ele><time>2026-05-04T09:45:02.758Z</time></trkpt><trkpt lat="41.5001641" lon="-0.2846126"><ele>300.5</ele><time>2026-05-04T09:45:03.758Z</time></trkpt><trkpt lat="41.5002042" lon="-0.2844503"><ele>300.25</ele><time>2026-05-04T09:45:04.758Z</time></trkpt><trkpt lat="41.5002406" lon="-0.2842802"><ele>300.0</ele><time>2026-05-04T09:45:05.758Z</time></trkpt><trkpt lat="41.500276" lon="-0.2841127"><ele>300.0</ele><time>2026-05-04T09:45:06.758Z</time></trkpt><trkpt lat="41.5003077" lon="-0.2839474"><ele>300.0</ele><time>2026-05-04T09:45:07.758Z</time></trkpt><trkpt lat="41.5003336" lon="-0.2837837"><ele>300.0</ele><time>2026-05-04T09:45:08.757Z</time></trkpt><trkpt lat="41.5003568" lon="-0.2836092"><ele>300.0</ele><time>2026-05-04T09:45:09.759Z</time></trkpt><trkpt lat="41.5003802" lon="-0.2834353"><ele>300.25</ele><time>2026-05-04T09:45:10.758Z</time></trkpt><trkpt lat="41.5003957" lon="-0.2832643"><ele>300.5</ele><time>2026-05-04T09:45:11.759Z</time></trkpt><trkpt lat="41.5004049" lon="-0.2830902"><ele>300.75</ele><time>2026-05-04T09:45:12.759Z</time></trkpt><trkpt lat="41.5004038" lon="-0.2829154"><ele>301.0</ele><time>2026-05-04T09:45:13.759Z</time></trkpt><trkpt lat="41.500403" lon="-0.2827468"><ele>301.25</ele><time>2026-05-04T09:45:14.759Z</time></trkpt><trkpt lat="41.5004003" lon="-0.2825783"><ele>301.5</ele><time>2026-05-04T09:45:15.759Z</time></trkpt><trkpt lat="41.5003947" lon="-0.2824111"><ele>301.75</ele><time>2026-05-04T09:45:16.759Z</time></trkpt><trkpt lat="41.5003853" lon="-0.2822371"><ele>302.0</ele><time>2026-05-04T09:45:17.759Z</time></trkpt><trkpt lat="41.500372" lon="-0.2820702"><ele>302.0</ele><time>2026-05-04T09:45:18.758Z</time></trkpt><trkpt lat="41.5003554" lon="-0.2819028"><ele>302.0</ele><time>2026-05-04T09:45:19.759Z</time></trkpt><trkpt lat="41.5003372" lon="-0.2817366"><ele>302.0</ele><time>2026-05-04T09:45:20.759Z</time></trkpt><trkpt lat="41.5003148" lon="-0.2815692"><ele>302.0</ele><time>2026-05-04T09:45:21.758Z</time></trkpt><trkpt lat="41.5002849" lon="-0.2814007"><ele>302.25</ele><time>2026-05-04T09:45:22.759Z</time></trkpt><trkpt lat="41.5002533" lon="-0.2812294"><ele>302.5</ele><time>2026-05-04T09:45:23.758Z</time></trkpt><trkpt lat="41.5002181" lon="-0.2810641"><ele>302.75</ele><time>2026-05-04T09:45:24.759Z</time></trkpt><trkpt lat="41.5001841" lon="-0.2809017"><ele>303.0</ele><time>2026-05-04T09:45:25.759Z</time></trkpt><trkpt lat="41.5001465" lon="-0.2807421"><ele>303.25</ele><time>2026-05-04T09:45:26.759Z</time></trkpt><trkpt lat="41.50011" lon="-0.2805747"><ele>303.5</ele><time>2026-05-04T09:45:27.759Z</time></trkpt><trkpt lat="41.5000747" lon="-0.2804105"><ele>303.75</ele><time>2026-05-04T09:45:28.759Z</time></trkpt><trkpt lat="41.5000324" lon="-0.2802483"><ele>304.0</ele><time>2026-05-04T09:45:29.758Z</time></trkpt><trkpt lat="41.4999935" lon="-0.2800844"><ele>304.0</ele><time>2026-05-04T09:45:30.759Z</time></trkpt><trkpt lat="41.4999514" lon="-0.2799179"><ele>304.0</ele><time>2026-05-04T09:45:31.759Z</time></trkpt><trkpt lat="41.4999132" lon="-0.2797526"><ele>304.0</ele><time>2026-05-04T09:45:32.758Z</time></trkpt><trkpt lat="41.4998718" lon="-0.2795884"><ele>304.0</ele><time>2026-05-04T09:45:33.759Z</time></trkpt><trkpt lat="41.4998301" lon="-0.2794273"><ele>304.25</ele><time>2026-05-04T09:45:34.759Z</time></trkpt><trkpt lat="41.4997927" lon="-0.279263"><ele>304.5</ele><time>2026-05-04T09:45:35.759Z</time></trkpt><trkpt lat="41.4997564" lon="-0.2791018"><ele>304.75</ele><time>2026-05-04T09:45:36.759Z</time></trkpt><trkpt lat="41.4997078" lon="-0.2789389"><ele>305.0</ele><time>2026-05-04T09:45:37.759Z</time></trkpt><trkpt lat="41.4996572" lon="-0.2787822"><ele>305.25</ele><time>2026-05-04T09:45:38.759Z</time></trkpt><trkpt lat="41.4995991" lon="-0.2786158"><ele>305.5</ele><time>2026-05-04T09:45:39.759Z</time></trkpt><trkpt lat="41.4995409" lon="-0.2784599"><ele>305.75</ele><time>2026-05-04T09:45:40.758Z</time></trkpt><trkpt lat="41.4994807" lon="-0.2783084"><ele>306.0</ele><time>2026-05-04T09:45:41.758Z</time></trkpt><trkpt lat="41.4994148" lon="-0.2781634"><ele>306.0</ele><time>2026-05-04T09:45:42.758Z</time></trkpt><trkpt lat="41.499345" lon="-0.2780195"><ele>306.0</ele><time>2026-05-04T09:45:43.759Z</time></trkpt><trkpt lat="41.4992702" lon="-0.2778779"><ele>306.0</ele><time>2026-05-04T09:45:44.759Z</time></trkpt><trkpt lat="41.4991931" lon="-0.2777408"><ele>306.0</ele><time>2026-05-04T09:45:45.758Z</time></trkpt><trkpt lat="41.4991173" lon="-0.2776003"><ele>306.0</ele><time>2026-05-04T09:45:46.759Z</time></trkpt><trkpt lat="41.4990377" lon="-0.2774632"><ele>306.0</ele><time>2026-05-04T09:45:47.759Z</time></trkpt><trkpt lat="41.498949" lon="-0.2773367"><ele>306.0</ele><time>2026-05-04T09:45:48.759Z</time></trkpt><trkpt lat="41.498863" lon="-0.2772067"><ele>306.0</ele><time>2026-05-04T09:45:49.759Z</time></trkpt><trkpt lat="41.498775" lon="-0.2770764"><ele>306.75</ele><time>2026-05-04T09:45:50.758Z</time></trkpt><trkpt lat="41.4986889" lon="-0.2769507"><ele>307.5</ele><time>2026-05-04T09:45:51.759Z</time></trkpt><trkpt lat="41.4986029" lon="-0.2768251"><ele>308.25</ele><time>2026-05-04T09:45:52.759Z</time></trkpt><trkpt lat="41.4985181" lon="-0.2766951"><ele>309.0</ele><time>2026-05-04T09:45:53.759Z</time></trkpt><trkpt lat="41.4984308" lon="-0.2765642"><ele>309.0</ele><time>2026-05-04T09:45:54.759Z</time></trkpt><trkpt lat="41.4983455" lon="-0.2764375"><ele>309.0</ele><time>2026-05-04T09:45:55.758Z</time></trkpt><trkpt lat="41.4982632" lon="-0.2763091"><ele>309.0</ele><time>2026-05-04T09:45:56.758Z</time></trkpt><trkpt lat="41.4981784" lon="-0.2761804"><ele>309.0</ele><time>2026-05-04T09:45:57.759Z</time></trkpt><trkpt lat="41.4980926" lon="-0.2760479"><ele>308.75</ele><time>2026-05-04T09:45:58.759Z</time></trkpt><trkpt lat="41.4980098" lon="-0.2759157"><ele>308.5</ele><time>2026-05-04T09:45:59.759Z</time></trkpt><trkpt lat="41.4979303" lon="-0.2757788"><ele>308.25</ele><time>2026-05-04T09:46:00.759Z</time></trkpt><trkpt lat="41.4978576" lon="-0.27564"><ele>308.0</ele><time>2026-05-04T09:46:01.759Z</time></trkpt><trkpt lat="41.4977886" lon="-0.2755006"><ele>308.75</ele><time>2026-05-04T09:46:02.759Z</time></trkpt><trkpt lat="41.4977179" lon="-0.275354"><ele>309.5</ele><time>2026-05-04T09:46:03.759Z</time></trkpt><trkpt lat="41.4976484" lon="-0.2752072"><ele>310.25</ele><time>2026-05-04T09:46:04.759Z</time></trkpt><trkpt lat="41.4975801" lon="-0.2750657"><ele>311.0</ele><time>2026-05-04T09:46:05.759Z</time></trkpt><trkpt lat="41.4975133" lon="-0.2749133"><ele>312.0</ele><time>2026-05-04T09:46:06.759Z</time></trkpt><trkpt lat="41.4974426" lon="-0.2747638"><ele>313.0</ele><time>2026-05-04T09:46:07.759Z</time></trkpt><trkpt lat="41.4973793" lon="-0.274617"><ele>314.0</ele><time>2026-05-04T09:46:08.759Z</time></trkpt><trkpt lat="41.4973156" lon="-0.2744684"><ele>315.0</ele><time>2026-05-04T09:46:09.758Z</time></trkpt><trkpt lat="41.4972506" lon="-0.2743165"><ele>315.0</ele><time>2026-05-04T09:46:10.759Z</time></trkpt><trkpt lat="41.4971857" lon="-0.274158"><ele>315.0</ele><time>2026-05-04T09:46:11.759Z</time></trkpt><trkpt lat="41.497131" lon="-0.2740042"><ele>315.0</ele><time>2026-05-04T09:46:12.759Z</time></trkpt><trkpt lat="41.4970773" lon="-0.2738447"><ele>315.0</ele><time>2026-05-04T09:46:13.758Z</time></trkpt><trkpt lat="41.4970259" lon="-0.273678"><ele>314.75</ele><time>2026-05-04T09:46:14.759Z</time></trkpt><trkpt lat="41.4969821" lon="-0.2735111"><ele>314.5</ele><time>2026-05-04T09:46:15.758Z</time></trkpt><trkpt lat="41.4969412" lon="-0.2733376"><ele>314.25</ele><time>2026-05-04T09:46:16.759Z</time></trkpt><trkpt lat="41.4969082" lon="-0.2731702"><ele>314.0</ele><time>2026-05-04T09:46:17.759Z</time></trkpt><trkpt lat="41.4968824" lon="-0.2729952"><ele>314.0</ele><time>2026-05-04T09:46:18.759Z</time></trkpt><trkpt lat="41.4968534" lon="-0.2728185"><ele>314.0</ele><time>2026-05-04T09:46:19.759Z</time></trkpt><trkpt lat="41.4968264" lon="-0.2726434"><ele>314.0</ele><time>2026-05-04T09:46:20.759Z</time></trkpt><trkpt lat="41.4968101" lon="-0.2724678"><ele>314.0</ele><time>2026-05-04T09:46:21.758Z</time></trkpt><trkpt lat="41.4967883" lon="-0.2722945"><ele>314.0</ele><time>2026-05-04T09:46:22.759Z</time></trkpt><trkpt lat="41.4967684" lon="-0.2721166"><ele>314.0</ele><time>2026-05-04T09:46:23.759Z</time></trkpt><trkpt lat="41.4967522" lon="-0.2719413"><ele>314.0</ele><time>2026-05-04T09:46:24.759Z</time></trkpt><trkpt lat="41.4967301" lon="-0.2717656"><ele>314.0</ele><time>2026-05-04T09:46:25.759Z</time></trkpt><trkpt lat="41.4967086" lon="-0.2715827"><ele>313.75</ele><time>2026-05-04T09:46:26.759Z</time></trkpt><trkpt lat="41.4966903" lon="-0.2714043"><ele>313.5</ele><time>2026-05-04T09:46:27.759Z</time></trkpt><trkpt lat="41.4966675" lon="-0.2712292"><ele>313.25</ele><time>2026-05-04T09:46:28.759Z</time></trkpt><trkpt lat="41.4966481" lon="-0.2710542"><ele>313.0</ele><time>2026-05-04T09:46:29.759Z</time></trkpt><trkpt lat="41.4966311" lon="-0.2708801"><ele>313.0</ele><time>2026-05-04T09:46:30.759Z</time></trkpt><trkpt lat="41.4966115" lon="-0.2707067"><ele>313.0</ele><time>2026-05-04T09:46:31.759Z</time></trkpt><trkpt lat="41.4965936" lon="-0.2705375"><ele>313.0</ele><time>2026-05-04T09:46:32.759Z</time></trkpt><trkpt lat="41.4965715" lon="-0.2703671"><ele>313.0</ele><time>2026-05-04T09:46:33.758Z</time></trkpt><trkpt lat="41.4965527" lon="-0.2702012"><ele>313.5</ele><time>2026-05-04T09:46:34.759Z</time></trkpt><trkpt lat="41.4965327" lon="-0.2700329"><ele>314.0</ele><time>2026-05-04T09:46:35.759Z</time></trkpt><trkpt lat="41.4965128" lon="-0.2698647"><ele>314.5</ele><time>2026-05-04T09:46:36.759Z</time></trkpt><trkpt lat="41.4964945" lon="-0.2696977"><ele>315.0</ele><time>2026-05-04T09:46:37.759Z</time></trkpt><trkpt lat="41.4964748" lon="-0.2695251"><ele>315.5</ele><time>2026-05-04T09:46:38.759Z</time></trkpt><trkpt lat="41.496452" lon="-0.2693564"><ele>316.0</ele><time>2026-05-04T09:46:39.759Z</time></trkpt><trkpt lat="41.4964353" lon="-0.2691852"><ele>316.5</ele><time>2026-05-04T09:46:40.759Z</time></trkpt><trkpt lat="41.4964138" lon="-0.2690154"><ele>317.0</ele><time>2026-05-04T09:46:41.759Z</time></trkpt><trkpt lat="41.4963946" lon="-0.2688488"><ele>317.5</ele><time>2026-05-04T09:46:42.759Z</time></trkpt><trkpt lat="41.4963784" lon="-0.268681"><ele>318.0</ele><time>2026-05-04T09:46:43.759Z</time></trkpt><trkpt lat="41.496363" lon="-0.2685184"><ele>318.5</ele><time>2026-05-04T09:46:44.759Z</time></trkpt><trkpt lat="41.4963489" lon="-0.2683516"><ele>319.0</ele><time>2026-05-04T09:46:45.759Z</time></trkpt><trkpt lat="41.4963328" lon="-0.2681814"><ele>319.25</ele><time>2026-05-04T09:46:46.759Z</time></trkpt><trkpt lat="41.4963158" lon="-0.268017"><ele>319.5</ele><time>2026-05-04T09:46:47.759Z</time></trkpt><trkpt lat="41.49631" lon="-0.2678562"><ele>319.75</ele><time>2026-05-04T09:46:48.758Z</time></trkpt><trkpt lat="41.4963096" lon="-0.2676867"><ele>320.0</ele><time>2026-05-04T09:46:49.759Z</time></trkpt><trkpt lat="41.4963156" lon="-0.2675157"><ele>320.0</ele><time>2026-05-04T09:46:50.758Z</time></trkpt><trkpt lat="41.4963218" lon="-0.2673478"><ele>320.0</ele><time>2026-05-04T09:46:51.759Z</time></trkpt><trkpt lat="41.4963376" lon="-0.267177"><ele>320.0</ele><time>2026-05-04T09:46:52.759Z</time></trkpt><trkpt lat="41.4963523" lon="-0.2670054"><ele>320.0</ele><time>2026-05-04T09:46:53.759Z</time></trkpt><trkpt lat="41.4963658" lon="-0.266835"><ele>319.25</ele><time>2026-05-04T09:46:54.759Z</time></trkpt><trkpt lat="41.4963762" lon="-0.266664"><ele>318.5</ele><time>2026-05-04T09:46:55.759Z</time></trkpt><trkpt lat="41.4963857" lon="-0.2664916"><ele>317.75</ele><time>2026-05-04T09:46:56.759Z</time></trkpt><trkpt lat="41.4963943" lon="-0.2663179"><ele>317.0</ele><time>2026-05-04T09:46:57.759Z</time></trkpt><trkpt lat="41.4963976" lon="-0.2661428"><ele>316.75</ele><time>2026-05-04T09:46:58.759Z</time></trkpt><trkpt lat="41.4963962" lon="-0.265962"><ele>316.5</ele><time>2026-05-04T09:46:59.759Z</time></trkpt><trkpt lat="41.496389" lon="-0.2657855"><ele>316.25</ele><time>2026-05-04T09:47:00.759Z</time></trkpt><trkpt lat="41.4963783" lon="-0.2656067"><ele>316.0</ele><time>2026-05-04T09:47:01.759Z</time></trkpt><trkpt lat="41.4963646" lon="-0.2654302"><ele>316.5</ele><time>2026-05-04T09:47:02.758Z</time></trkpt><trkpt lat="41.4963508" lon="-0.2652572"><ele>317.0</ele><time>2026-05-04T09:47:03.758Z</time></trkpt><trkpt lat="41.496342" lon="-0.265081"><ele>317.5</ele><time>2026-05-04T09:47:04.759Z</time></trkpt><trkpt lat="41.4963321" lon="-0.2649116"><ele>318.0</ele><time>2026-05-04T09:47:05.759Z</time></trkpt><trkpt lat="41.4963245" lon="-0.264741"><ele>319.25</ele><time>2026-05-04T09:47:06.76Z</time></trkpt><trkpt lat="41.4963103" lon="-0.2645714"><ele>320.5</ele><time>2026-05-04T09:47:07.76Z</time></trkpt><trkpt lat="41.4962991" lon="-0.2644023"><ele>321.75</ele><time>2026-05-04T09:47:08.76Z</time></trkpt><trkpt lat="41.4962893" lon="-0.2642425"><ele>323.0</ele><time>2026-05-04T09:47:09.76Z</time></trkpt><trkpt lat="41.4962825" lon="-0.264082"><ele>323.5</ele><time>2026-05-04T09:47:10.76Z</time></trkpt><trkpt lat="41.496269" lon="-0.2639221"><ele>324.0</ele><time>2026-05-04T09:47:11.76Z</time></trkpt><trkpt lat="41.4962577" lon="-0.2637659"><ele>324.5</ele><time>2026-05-04T09:47:12.76Z</time></trkpt><trkpt lat="41.4962493" lon="-0.2636134"><ele>325.0</ele><time>2026-05-04T09:47:13.76Z</time></trkpt><trkpt lat="41.4962397" lon="-0.263457"><ele>324.25</ele><time>2026-05-04T09:47:14.76Z</time></trkpt><trkpt lat="41.4962328" lon="-0.2632987"><ele>323.5</ele><time>2026-05-04T09:47:15.76Z</time></trkpt><trkpt lat="41.4962211" lon="-0.2631432"><ele>322.75</ele><time>2026-05-04T09:47:16.76Z</time></trkpt><trkpt lat="41.4962105" lon="-0.2629847"><ele>322.0</ele><time>2026-05-04T09:47:17.759Z</time></trkpt><trkpt lat="41.4961977" lon="-0.2628182"><ele>322.0</ele><time>2026-05-04T09:47:18.76Z</time></trkpt><trkpt lat="41.4961888" lon="-0.2626593"><ele>322.0</ele><time>2026-05-04T09:47:19.76Z</time></trkpt><trkpt lat="41.4961733" lon="-0.2624955"><ele>322.0</ele><time>2026-05-04T09:47:20.76Z</time></trkpt><trkpt lat="41.4961617" lon="-0.262326"><ele>322.0</ele><time>2026-05-04T09:47:21.76Z</time></trkpt><trkpt lat="41.4961471" lon="-0.2621577"><ele>322.25</ele><time>2026-05-04T09:47:22.76Z</time></trkpt><trkpt lat="41.4961371" lon="-0.2619899"><ele>322.5</ele><time>2026-05-04T09:47:23.76Z</time></trkpt><trkpt lat="41.49613" lon="-0.2618271"><ele>322.75</ele><time>2026-05-04T09:47:24.76Z</time></trkpt><trkpt lat="41.4961204" lon="-0.2616595"><ele>323.0</ele><time>2026-05-04T09:47:25.76Z</time></trkpt><trkpt lat="41.4961128" lon="-0.2614919"><ele>323.75</ele><time>2026-05-04T09:47:26.76Z</time></trkpt><trkpt lat="41.4961003" lon="-0.261328"><ele>324.5</ele><time>2026-05-04T09:47:27.76Z</time></trkpt><trkpt lat="41.4960862" lon="-0.2611607"><ele>325.25</ele><time>2026-05-04T09:47:28.76Z</time></trkpt><trkpt lat="41.4960781" lon="-0.2609954"><ele>326.0</ele><time>2026-05-04T09:47:29.76Z</time></trkpt><trkpt lat="41.4960724" lon="-0.2608348"><ele>326.0</ele><time>2026-05-04T09:47:30.759Z</time></trkpt><trkpt lat="41.4960644" lon="-0.2606714"><ele>326.0</ele><time>2026-05-04T09:47:31.76Z</time></trkpt><trkpt lat="41.4960621" lon="-0.2605072"><ele>326.0</ele><time>2026-05-04T09:47:32.759Z</time></trkpt><trkpt lat="41.4960547" lon="-0.2603477"><ele>326.0</ele><time>2026-05-04T09:47:33.76Z</time></trkpt><trkpt lat="41.4960558" lon="-0.2601854"><ele>326.0</ele><time>2026-05-04T09:47:34.759Z</time></trkpt><trkpt lat="41.4960507" lon="-0.2600189"><ele>326.0</ele><time>2026-05-04T09:47:35.76Z</time></trkpt><trkpt lat="41.4960508" lon="-0.2598505"><ele>326.0</ele><time>2026-05-04T09:47:36.76Z</time></trkpt><trkpt lat="41.4960462" lon="-0.25968"><ele>326.0</ele><time>2026-05-04T09:47:37.76Z</time></trkpt><trkpt lat="41.4960421" lon="-0.2595136"><ele>326.0</ele><time>2026-05-04T09:47:38.76Z</time></trkpt><trkpt lat="41.4960403" lon="-0.2593409"><ele>326.0</ele><time>2026-05-04T09:47:39.76Z</time></trkpt><trkpt lat="41.4960375" lon="-0.2591752"><ele>326.0</ele><time>2026-05-04T09:47:40.76Z</time></trkpt><trkpt lat="41.4960401" lon="-0.2590029"><ele>326.0</ele><time>2026-05-04T09:47:41.76Z</time></trkpt><trkpt lat="41.4960359" lon="-0.2588327"><ele>325.5</ele><time>2026-05-04T09:47:42.76Z</time></trkpt><trkpt lat="41.4960313" lon="-0.2586613"><ele>325.0</ele><time>2026-05-04T09:47:43.76Z</time></trkpt><trkpt lat="41.4960287" lon="-0.2584976"><ele>324.5</ele><time>2026-05-04T09:47:44.76Z</time></trkpt><trkpt lat="41.4960254" lon="-0.2583349"><ele>324.0</ele><time>2026-05-04T09:47:45.76Z</time></trkpt><trkpt lat="41.4960229" lon="-0.2581696"><ele>323.75</ele><time>2026-05-04T09:47:46.76Z</time></trkpt><trkpt lat="41.4960199" lon="-0.2580029"><ele>323.5</ele><time>2026-05-04T09:47:47.76Z</time></trkpt><trkpt lat="41.4960131" lon="-0.25783"><ele>323.25</ele><time>2026-05-04T09:47:48.759Z</time></trkpt><trkpt lat="41.4960113" lon="-0.2576547"><ele>323.0</ele><time>2026-05-04T09:47:49.759Z</time></trkpt><trkpt lat="41.4960079" lon="-0.2574804"><ele>323.0</ele><time>2026-05-04T09:47:50.76Z</time></trkpt><trkpt lat="41.4960028" lon="-0.2573042"><ele>323.0</ele><time>2026-05-04T09:47:51.76Z</time></trkpt><trkpt lat="41.4959991" lon="-0.2571351"><ele>323.0</ele><time>2026-05-04T09:47:52.76Z</time></trkpt><trkpt lat="41.4959969" lon="-0.2569604"><ele>323.0</ele><time>2026-05-04T09:47:53.76Z</time></trkpt><trkpt lat="41.4959888" lon="-0.2567895"><ele>323.25</ele><time>2026-05-04T09:47:54.76Z</time></trkpt><trkpt lat="41.4959828" lon="-0.2566198"><ele>323.5</ele><time>2026-05-04T09:47:55.76Z</time></trkpt><trkpt lat="41.4959778" lon="-0.2564478"><ele>323.75</ele><time>2026-05-04T09:47:56.76Z</time></trkpt><trkpt lat="41.4959622" lon="-0.2562774"><ele>324.0</ele><time>2026-05-04T09:47:57.76Z</time></trkpt><trkpt lat="41.495948" lon="-0.2561059"><ele>324.0</ele><time>2026-05-04T09:47:58.76Z</time></trkpt><trkpt lat="41.495927" lon="-0.2559368"><ele>324.0</ele><time>2026-05-04T09:47:59.76Z</time></trkpt><trkpt lat="41.4959101" lon="-0.2557661"><ele>324.0</ele><time>2026-05-04T09:48:00.76Z</time></trkpt><trkpt lat="41.4958964" lon="-0.2555961"><ele>324.0</ele><time>2026-05-04T09:48:01.76Z</time></trkpt><trkpt lat="41.4958818" lon="-0.2554304"><ele>324.25</ele><time>2026-05-04T09:48:02.76Z</time></trkpt><trkpt lat="41.4958648" lon="-0.2552678"><ele>324.5</ele><time>2026-05-04T09:48:03.759Z</time></trkpt><trkpt lat="41.495848" lon="-0.2551023"><ele>324.75</ele><time>2026-05-04T09:48:04.759Z</time></trkpt><trkpt lat="41.4958262" lon="-0.2549292"><ele>325.0</ele><time>2026-05-04T09:48:05.76Z</time></trkpt><trkpt lat="41.4958046" lon="-0.2547555"><ele>325.5</ele><time>2026-05-04T09:48:06.76Z</time></trkpt><trkpt lat="41.4957831" lon="-0.2545763"><ele>326.0</ele><time>2026-05-04T09:48:07.76Z</time></trkpt><trkpt lat="41.4957591" lon="-0.2543997"><ele>326.5</ele><time>2026-05-04T09:48:08.76Z</time></trkpt><trkpt lat="41.4957351" lon="-0.2542233"><ele>327.0</ele><time>2026-05-04T09:48:09.76Z</time></trkpt><trkpt lat="41.4957137" lon="-0.2540407"><ele>327.5</ele><time>2026-05-04T09:48:10.76Z</time></trkpt><trkpt lat="41.4956959" lon="-0.2538619"><ele>328.0</ele><time>2026-05-04T09:48:11.76Z</time></trkpt><trkpt lat="41.4956768" lon="-0.2536781"><ele>328.5</ele><time>2026-05-04T09:48:12.759Z</time></trkpt><trkpt lat="41.4956567" lon="-0.2534923"><ele>329.0</ele><time>2026-05-04T09:48:13.76Z</time></trkpt><trkpt lat="41.4956318" lon="-0.2533094"><ele>329.0</ele><time>2026-05-04T09:48:14.76Z</time></trkpt><trkpt lat="41.4956072" lon="-0.2531269"><ele>329.0</ele><time>2026-05-04T09:48:15.76Z</time></trkpt><trkpt lat="41.4955834" lon="-0.2529471"><ele>329.0</ele><time>2026-05-04T09:48:16.76Z</time></trkpt><trkpt lat="41.4955619" lon="-0.2527623"><ele>329.0</ele><time>2026-05-04T09:48:17.759Z</time></trkpt><trkpt lat="41.4955419" lon="-0.2525819"><ele>329.25</ele><time>2026-05-04T09:48:18.759Z</time></trkpt><trkpt lat="41.4955203" lon="-0.2523989"><ele>329.5</ele><time>2026-05-04T09:48:19.76Z</time></trkpt><trkpt lat="41.4954978" lon="-0.2522132"><ele>329.75</ele><time>2026-05-04T09:48:20.76Z</time></trkpt><trkpt lat="41.4954734" lon="-0.2520313"><ele>330.0</ele><time>2026-05-04T09:48:21.76Z</time></trkpt><trkpt lat="41.4954519" lon="-0.2518515"><ele>330.25</ele><time>2026-05-04T09:48:22.76Z</time></trkpt><trkpt lat="41.4954321" lon="-0.2516716"><ele>330.5</ele><time>2026-05-04T09:48:23.76Z</time></trkpt><trkpt lat="41.4954101" lon="-0.2514936"><ele>330.75</ele><time>2026-05-04T09:48:24.76Z</time></trkpt><trkpt lat="41.4953904" lon="-0.2513137"><ele>331.0</ele><time>2026-05-04T09:48:25.76Z</time></trkpt><trkpt lat="41.4953676" lon="-0.2511307"><ele>330.5</ele><time>2026-05-04T09:48:26.76Z</time></trkpt><trkpt lat="41.4953476" lon="-0.2509469"><ele>330.0</ele><time>2026-05-04T09:48:27.76Z</time></trkpt><trkpt lat="41.4953245" lon="-0.2507632"><ele>329.5</ele><time>2026-05-04T09:48:28.76Z</time></trkpt><trkpt lat="41.4953014" lon="-0.2505727"><ele>329.0</ele><time>2026-05-04T09:48:29.76Z</time></trkpt><trkpt lat="41.4952786" lon="-0.2503831"><ele>329.0</ele><time>2026-05-04T09:48:30.76Z</time></trkpt><trkpt lat="41.495256" lon="-0.2502004"><ele>329.0</ele><time>2026-05-04T09:48:31.76Z</time></trkpt><trkpt lat="41.4952333" lon="-0.2500162"><ele>329.0</ele><time>2026-05-04T09:48:32.76Z</time></trkpt><trkpt lat="41.4952128" lon="-0.2498359"><ele>329.0</ele><time>2026-05-04T09:48:33.76Z</time></trkpt><trkpt lat="41.4951915" lon="-0.2496588"><ele>329.25</ele><time>2026-05-04T09:48:34.759Z</time></trkpt><trkpt lat="41.4951698" lon="-0.2494818"><ele>329.5</ele><time>2026-05-04T09:48:35.76Z</time></trkpt><trkpt lat="41.4951486" lon="-0.2493042"><ele>329.75</ele><time>2026-05-04T09:48:36.76Z</time></trkpt><trkpt lat="41.4951248" lon="-0.2491349"><ele>330.0</ele><time>2026-05-04T09:48:37.76Z</time></trkpt><trkpt lat="41.4951012" lon="-0.248961"><ele>330.0</ele><time>2026-05-04T09:48:38.76Z</time></trkpt><trkpt lat="41.4950772" lon="-0.2487853"><ele>330.0</ele><time>2026-05-04T09:48:39.76Z</time></trkpt><trkpt lat="41.4950573" lon="-0.2486045"><ele>330.0</ele><time>2026-05-04T09:48:40.76Z</time></trkpt><trkpt lat="41.4950341" lon="-0.2484251"><ele>330.0</ele><time>2026-05-04T09:48:41.76Z</time></trkpt><trkpt lat="41.495003" lon="-0.2482403"><ele>330.25</ele><time>2026-05-04T09:48:42.759Z</time></trkpt><trkpt lat="41.4949784" lon="-0.2480622"><ele>330.5</ele><time>2026-05-04T09:48:43.76Z</time></trkpt><trkpt lat="41.4949497" lon="-0.2478809"><ele>330.75</ele><time>2026-05-04T09:48:44.76Z</time></trkpt><trkpt lat="41.4949161" lon="-0.2477041"><ele>331.0</ele><time>2026-05-04T09:48:45.76Z</time></trkpt><trkpt lat="41.4948879" lon="-0.2475217"><ele>331.0</ele><time>2026-05-04T09:48:46.76Z</time></trkpt><trkpt lat="41.4948581" lon="-0.2473407"><ele>331.0</ele><time>2026-05-04T09:48:47.76Z</time></trkpt><trkpt lat="41.4948289" lon="-0.2471599"><ele>331.0</ele><time>2026-05-04T09:48:48.76Z</time></trkpt><trkpt lat="41.4948021" lon="-0.2469766"><ele>331.0</ele><time>2026-05-04T09:48:49.759Z</time></trkpt><trkpt lat="41.494775" lon="-0.2467931"><ele>331.25</ele><time>2026-05-04T09:48:50.76Z</time></trkpt><trkpt lat="41.494745" lon="-0.2466163"><ele>331.5</ele><time>2026-05-04T09:48:51.76Z</time></trkpt><trkpt lat="41.4947154" lon="-0.2464423"><ele>331.75</ele><time>2026-05-04T09:48:52.76Z</time></trkpt><trkpt lat="41.494687" lon="-0.2462649"><ele>332.0</ele><time>2026-05-04T09:48:53.76Z</time></trkpt><trkpt lat="41.4946585" lon="-0.2460923"><ele>332.0</ele><time>2026-05-04T09:48:54.76Z</time></trkpt><trkpt lat="41.4946338" lon="-0.2459185"><ele>332.0</ele><time>2026-05-04T09:48:55.759Z</time></trkpt><trkpt lat="41.4946075" lon="-0.2457446"><ele>332.0</ele><time>2026-05-04T09:48:56.76Z</time></trkpt><trkpt lat="41.4945787" lon="-0.2455763"><ele>332.0</ele><time>2026-05-04T09:48:57.76Z</time></trkpt><trkpt lat="41.4945481" lon="-0.245407"><ele>332.0</ele><time>2026-05-04T09:48:58.759Z</time></trkpt><trkpt lat="41.4945192" lon="-0.2452358"><ele>332.0</ele><time>2026-05-04T09:48:59.76Z</time></trkpt><trkpt lat="41.4944891" lon="-0.2450623"><ele>332.0</ele><time>2026-05-04T09:49:00.76Z</time></trkpt><trkpt lat="41.4944607" lon="-0.2448917"><ele>332.0</ele><time>2026-05-04T09:49:01.76Z</time></trkpt><trkpt lat="41.4944332" lon="-0.2447266"><ele>332.25</ele><time>2026-05-04T09:49:02.761Z</time></trkpt><trkpt lat="41.4944028" lon="-0.2445552"><ele>332.5</ele><time>2026-05-04T09:49:03.76Z</time></trkpt><trkpt lat="41.4943741" lon="-0.2443848"><ele>332.75</ele><time>2026-05-04T09:49:04.761Z</time></trkpt><trkpt lat="41.4943478" lon="-0.2442174"><ele>333.0</ele><time>2026-05-04T09:49:05.761Z</time></trkpt><trkpt lat="41.4943197" lon="-0.2440452"><ele>333.25</ele><time>2026-05-04T09:49:06.761Z</time></trkpt><trkpt lat="41.4942899" lon="-0.2438751"><ele>333.5</ele><time>2026-05-04T09:49:07.761Z</time></trkpt><trkpt lat="41.4942642" lon="-0.2437074"><ele>333.75</ele><time>2026-05-04T09:49:08.761Z</time></trkpt><trkpt lat="41.4942392" lon="-0.2435406"><ele>334.0</ele><time>2026-05-04T09:49:09.761Z</time></trkpt><trkpt lat="41.4942165" lon="-0.2433727"><ele>334.0</ele><time>2026-05-04T09:49:10.761Z</time></trkpt><trkpt lat="41.4941973" lon="-0.2432129"><ele>334.0</ele><time>2026-05-04T09:49:11.761Z</time></trkpt><trkpt lat="41.4941839" lon="-0.2430522"><ele>334.0</ele><time>2026-05-04T09:49:12.761Z</time></trkpt><trkpt lat="41.4941674" lon="-0.2428883"><ele>334.0</ele><time>2026-05-04T09:49:13.76Z</time></trkpt><trkpt lat="41.4941617" lon="-0.2427237"><ele>334.75</ele><time>2026-05-04T09:49:14.761Z</time></trkpt><trkpt lat="41.4941558" lon="-0.2425583"><ele>335.5</ele><time>2026-05-04T09:49:15.761Z</time></trkpt><trkpt lat="41.4941489" lon="-0.2424007"><ele>336.25</ele><time>2026-05-04T09:49:16.761Z</time></trkpt><trkpt lat="41.4941379" lon="-0.2422357"><ele>337.0</ele><time>2026-05-04T09:49:17.761Z</time></trkpt><trkpt lat="41.4941275" lon="-0.2420704"><ele>337.25</ele><time>2026-05-04T09:49:18.76Z</time></trkpt><trkpt lat="41.4941162" lon="-0.2419083"><ele>337.5</ele><time>2026-05-04T09:49:19.76Z</time></trkpt><trkpt lat="41.4941043" lon="-0.2417446"><ele>337.75</ele><time>2026-05-04T09:49:20.761Z</time></trkpt><trkpt lat="41.4940895" lon="-0.2415841"><ele>338.0</ele><time>2026-05-04T09:49:21.761Z</time></trkpt><trkpt lat="41.4940664" lon="-0.2414272"><ele>338.25</ele><time>2026-05-04T09:49:22.76Z</time></trkpt><trkpt lat="41.4940445" lon="-0.2412713"><ele>338.5</ele><time>2026-05-04T09:49:23.761Z</time></trkpt><trkpt lat="41.4940269" lon="-0.2411014"><ele>338.75</ele><time>2026-05-04T09:49:24.761Z</time></trkpt><trkpt lat="41.494007" lon="-0.2409306"><ele>339.0</ele><time>2026-05-04T09:49:25.76Z</time></trkpt><trkpt lat="41.493987" lon="-0.2407624"><ele>339.5</ele><time>2026-05-04T09:49:26.76Z</time></trkpt><trkpt lat="41.4939645" lon="-0.2405941"><ele>340.0</ele><time>2026-05-04T09:49:27.76Z</time></trkpt><trkpt lat="41.4939456" lon="-0.2404217"><ele>340.5</ele><time>2026-05-04T09:49:28.761Z</time></trkpt><trkpt lat="41.493925" lon="-0.2402463"><ele>341.0</ele><time>2026-05-04T09:49:29.761Z</time></trkpt><trkpt lat="41.4939066" lon="-0.2400696"><ele>341.0</ele><time>2026-05-04T09:49:30.761Z</time></trkpt><trkpt lat="41.4938847" lon="-0.2398936"><ele>341.0</ele><time>2026-05-04T09:49:31.761Z</time></trkpt><trkpt lat="41.4938636" lon="-0.2397161"><ele>341.0</ele><time>2026-05-04T09:49:32.761Z</time></trkpt><trkpt lat="41.4938356" lon="-0.2395391"><ele>341.0</ele><time>2026-05-04T09:49:33.761Z</time></trkpt><trkpt lat="41.4938017" lon="-0.2393636"><ele>341.0</ele><time>2026-05-04T09:49:34.761Z</time></trkpt><trkpt lat="41.4937601" lon="-0.2391869"><ele>341.0</ele><time>2026-05-04T09:49:35.761Z</time></trkpt><trkpt lat="41.4937074" lon="-0.2390143"><ele>341.0</ele><time>2026-05-04T09:49:36.761Z</time></trkpt><trkpt lat="41.493649" lon="-0.238842"><ele>341.0</ele><time>2026-05-04T09:49:37.76Z</time></trkpt><trkpt lat="41.4935909" lon="-0.2386716"><ele>341.0</ele><time>2026-05-04T09:49:38.761Z</time></trkpt><trkpt lat="41.4935346" lon="-0.2384986"><ele>341.0</ele><time>2026-05-04T09:49:39.761Z</time></trkpt><trkpt lat="41.4934846" lon="-0.2383215"><ele>341.0</ele><time>2026-05-04T09:49:40.761Z</time></trkpt><trkpt lat="41.4934433" lon="-0.2381467"><ele>341.0</ele><time>2026-05-04T09:49:41.761Z</time></trkpt><trkpt lat="41.4934146" lon="-0.2379698"><ele>341.25</ele><time>2026-05-04T09:49:42.761Z</time></trkpt><trkpt lat="41.4934001" lon="-0.2377883"><ele>341.5</ele><time>2026-05-04T09:49:43.761Z</time></trkpt><trkpt lat="41.4933945" lon="-0.2376042"><ele>341.75</ele><time>2026-05-04T09:49:44.761Z</time></trkpt><trkpt lat="41.4934011" lon="-0.2374243"><ele>342.0</ele><time>2026-05-04T09:49:45.761Z</time></trkpt><trkpt lat="41.4934215" lon="-0.2372443"><ele>342.0</ele><time>2026-05-04T09:49:46.761Z</time></trkpt><trkpt lat="41.4934431" lon="-0.2370741"><ele>342.0</ele><time>2026-05-04T09:49:47.761Z</time></trkpt><trkpt lat="41.4934629" lon="-0.2368891"><ele>342.0</ele><time>2026-05-04T09:49:48.761Z</time></trkpt><trkpt lat="41.4934813" lon="-0.236712"><ele>342.0</ele><time>2026-05-04T09:49:49.761Z</time></trkpt><trkpt lat="41.4935047" lon="-0.2365324"><ele>342.25</ele><time>2026-05-04T09:49:50.761Z</time></trkpt><trkpt lat="41.4935231" lon="-0.2363536"><ele>342.5</ele><time>2026-05-04T09:49:51.761Z</time></trkpt><trkpt lat="41.4935445" lon="-0.2361685"><ele>342.75</ele><time>2026-05-04T09:49:52.761Z</time></trkpt><trkpt lat="41.4935666" lon="-0.2359847"><ele>343.0</ele><time>2026-05-04T09:49:53.76Z</time></trkpt><trkpt lat="41.4935884" lon="-0.2358063"><ele>343.0</ele><time>2026-05-04T09:49:54.761Z</time></trkpt><trkpt lat="41.4936086" lon="-0.2356226"><ele>343.0</ele><time>2026-05-04T09:49:55.761Z</time></trkpt><trkpt lat="41.4936313" lon="-0.23544"><ele>343.0</ele><time>2026-05-04T09:49:56.761Z</time></trkpt><trkpt lat="41.4936518" lon="-0.2352579"><ele>343.0</ele><time>2026-05-04T09:49:57.761Z</time></trkpt><trkpt lat="41.4936722" lon="-0.2350794"><ele>343.0</ele><time>2026-05-04T09:49:58.76Z</time></trkpt><trkpt lat="41.493691" lon="-0.234903"><ele>343.0</ele><time>2026-05-04T09:49:59.761Z</time></trkpt><trkpt lat="41.4937053" lon="-0.2347266"><ele>343.0</ele><time>2026-05-04T09:50:00.761Z</time></trkpt><trkpt lat="41.4937177" lon="-0.2345455"><ele>343.0</ele><time>2026-05-04T09:50:01.761Z</time></trkpt><trkpt lat="41.4937163" lon="-0.234363"><ele>343.0</ele><time>2026-05-04T09:50:02.76Z</time></trkpt><trkpt lat="41.4937032" lon="-0.2341858"><ele>343.0</ele><time>2026-05-04T09:50:03.761Z</time></trkpt><trkpt lat="41.4936813" lon="-0.2340085"><ele>343.0</ele><time>2026-05-04T09:50:04.76Z</time></trkpt><trkpt lat="41.4936612" lon="-0.233832"><ele>343.0</ele><time>2026-05-04T09:50:05.761Z</time></trkpt><trkpt lat="41.4936439" lon="-0.2336571"><ele>343.25</ele><time>2026-05-04T09:50:06.761Z</time></trkpt><trkpt lat="41.4936267" lon="-0.2334808"><ele>343.5</ele><time>2026-05-04T09:50:07.761Z</time></trkpt><trkpt lat="41.4936052" lon="-0.2333077"><ele>343.75</ele><time>2026-05-04T09:50:08.761Z</time></trkpt><trkpt lat="41.4935867" lon="-0.2331353"><ele>344.0</ele><time>2026-05-04T09:50:09.761Z</time></trkpt><trkpt lat="41.4935681" lon="-0.2329644"><ele>345.0</ele><time>2026-05-04T09:50:10.761Z</time></trkpt><trkpt lat="41.4935448" lon="-0.2327932"><ele>346.0</ele><time>2026-05-04T09:50:11.761Z</time></trkpt><trkpt lat="41.4935256" lon="-0.2326261"><ele>347.0</ele><time>2026-05-04T09:50:12.761Z</time></trkpt><trkpt lat="41.493507" lon="-0.2324569"><ele>348.0</ele><time>2026-05-04T09:50:13.761Z</time></trkpt><trkpt lat="41.4934961" lon="-0.2322868"><ele>348.25</ele><time>2026-05-04T09:50:14.761Z</time></trkpt><trkpt lat="41.4934925" lon="-0.2321071"><ele>348.5</ele><time>2026-05-04T09:50:15.761Z</time></trkpt><trkpt lat="41.4934915" lon="-0.2319368"><ele>348.75</ele><time>2026-05-04T09:50:16.761Z</time></trkpt><trkpt lat="41.4934964" lon="-0.2317721"><ele>349.0</ele><time>2026-05-04T09:50:17.76Z</time></trkpt><trkpt lat="41.4934972" lon="-0.2316019"><ele>349.75</ele><time>2026-05-04T09:50:18.761Z</time></trkpt><trkpt lat="41.4934961" lon="-0.231432"><ele>350.5</ele><time>2026-05-04T09:50:19.761Z</time></trkpt><trkpt lat="41.493502" lon="-0.2312549"><ele>351.25</ele><time>2026-05-04T09:50:20.76Z</time></trkpt><trkpt lat="41.4935091" lon="-0.2310802"><ele>352.0</ele><time>2026-05-04T09:50:21.761Z</time></trkpt><trkpt lat="41.4935161" lon="-0.230908"><ele>352.0</ele><time>2026-05-04T09:50:22.761Z</time></trkpt><trkpt lat="41.4935258" lon="-0.2307359"><ele>352.0</ele><time>2026-05-04T09:50:23.761Z</time></trkpt><trkpt lat="41.4935361" lon="-0.2305644"><ele>352.0</ele><time>2026-05-04T09:50:24.761Z</time></trkpt><trkpt lat="41.4935494" lon="-0.2303895"><ele>352.0</ele><time>2026-05-04T09:50:25.761Z</time></trkpt><trkpt lat="41.4935786" lon="-0.2302146"><ele>352.0</ele><time>2026-05-04T09:50:26.761Z</time></trkpt><trkpt lat="41.4936151" lon="-0.2300434"><ele>352.0</ele><time>2026-05-04T09:50:27.761Z</time></trkpt><trkpt lat="41.4936613" lon="-0.2298781"><ele>352.0</ele><time>2026-05-04T09:50:28.76Z</time></trkpt><trkpt lat="41.493715" lon="-0.2297193"><ele>352.0</ele><time>2026-05-04T09:50:29.761Z</time></trkpt><trkpt lat="41.4937746" lon="-0.2295576"><ele>352.75</ele><time>2026-05-04T09:50:30.761Z</time></trkpt><trkpt lat="41.4938291" lon="-0.2294021"><ele>353.5</ele><time>2026-05-04T09:50:31.761Z</time></trkpt><trkpt lat="41.4938858" lon="-0.2292421"><ele>354.25</ele><time>2026-05-04T09:50:32.76Z</time></trkpt><trkpt lat="41.4939416" lon="-0.2290851"><ele>355.0</ele><time>2026-05-04T09:50:33.761Z</time></trkpt><trkpt lat="41.4939984" lon="-0.2289255"><ele>355.0</ele><time>2026-05-04T09:50:34.76Z</time></trkpt><trkpt lat="41.4940563" lon="-0.2287684"><ele>355.0</ele><time>2026-05-04T09:50:35.761Z</time></trkpt><trkpt lat="41.4941131" lon="-0.2286082"><ele>355.0</ele><time>2026-05-04T09:50:36.76Z</time></trkpt><trkpt lat="41.4941708" lon="-0.2284503"><ele>355.0</ele><time>2026-05-04T09:50:37.761Z</time></trkpt><trkpt lat="41.4942253" lon="-0.228293"><ele>355.0</ele><time>2026-05-04T09:50:38.76Z</time></trkpt><trkpt lat="41.4942806" lon="-0.2281355"><ele>355.0</ele><time>2026-05-04T09:50:39.76Z</time></trkpt><trkpt lat="41.4943377" lon="-0.227977"><ele>355.0</ele><time>2026-05-04T09:50:40.761Z</time></trkpt><trkpt lat="41.4943947" lon="-0.2278249"><ele>355.0</ele><time>2026-05-04T09:50:41.761Z</time></trkpt><trkpt lat="41.4944525" lon="-0.2276724"><ele>355.0</ele><time>2026-05-04T09:50:42.761Z</time></trkpt><trkpt lat="41.4945104" lon="-0.2275215"><ele>355.0</ele><time>2026-05-04T09:50:43.761Z</time></trkpt><trkpt lat="41.4945691" lon="-0.227366"><ele>355.0</ele><time>2026-05-04T09:50:44.761Z</time></trkpt><trkpt lat="41.4946319" lon="-0.2272141"><ele>355.0</ele><time>2026-05-04T09:50:45.761Z</time></trkpt><trkpt lat="41.4946872" lon="-0.2270633"><ele>355.75</ele><time>2026-05-04T09:50:46.761Z</time></trkpt><trkpt lat="41.4947431" lon="-0.2269138"><ele>356.5</ele><time>2026-05-04T09:50:47.761Z</time></trkpt><trkpt lat="41.4948035" lon="-0.2267606"><ele>357.25</ele><time>2026-05-04T09:50:48.761Z</time></trkpt><trkpt lat="41.4948675" lon="-0.2266086"><ele>358.0</ele><time>2026-05-04T09:50:49.761Z</time></trkpt><trkpt lat="41.494933" lon="-0.2264496"><ele>358.0</ele><time>2026-05-04T09:50:50.761Z</time></trkpt><trkpt lat="41.4949979" lon="-0.2262898"><ele>358.0</ele><time>2026-05-04T09:50:51.761Z</time></trkpt><trkpt lat="41.4950612" lon="-0.2261324"><ele>358.0</ele><time>2026-05-04T09:50:52.761Z</time></trkpt><trkpt lat="41.4951222" lon="-0.2259724"><ele>358.0</ele><time>2026-05-04T09:50:53.76Z</time></trkpt><trkpt lat="41.4951792" lon="-0.2258118"><ele>358.0</ele><time>2026-05-04T09:50:54.761Z</time></trkpt><trkpt lat="41.4952358" lon="-0.225649"><ele>358.0</ele><time>2026-05-04T09:50:55.761Z</time></trkpt><trkpt lat="41.4952836" lon="-0.2254752"><ele>358.0</ele><time>2026-05-04T09:50:56.761Z</time></trkpt><trkpt lat="41.4953285" lon="-0.225301"><ele>358.0</ele><time>2026-05-04T09:50:57.761Z</time></trkpt><trkpt lat="41.4953627" lon="-0.2251229"><ele>358.0</ele><time>2026-05-04T09:50:58.762Z</time></trkpt><trkpt lat="41.4953895" lon="-0.2249382"><ele>358.0</ele><time>2026-05-04T09:50:59.761Z</time></trkpt><trkpt lat="41.4954122" lon="-0.2247508"><ele>358.0</ele><time>2026-05-04T09:51:00.762Z</time></trkpt><trkpt lat="41.4954244" lon="-0.2245663"><ele>358.0</ele><time>2026-05-04T09:51:01.762Z</time></trkpt><trkpt lat="41.4954308" lon="-0.2243818"><ele>358.5</ele><time>2026-05-04T09:51:02.761Z</time></trkpt><trkpt lat="41.4954314" lon="-0.2241958"><ele>359.0</ele><time>2026-05-04T09:51:03.762Z</time></trkpt><trkpt lat="41.4954251" lon="-0.2240072"><ele>359.5</ele><time>2026-05-04T09:51:04.762Z</time></trkpt><trkpt lat="41.4954195" lon="-0.2238267"><ele>360.0</ele><time>2026-05-04T09:51:05.762Z</time></trkpt><trkpt lat="41.4954123" lon="-0.2236407"><ele>360.25</ele><time>2026-05-04T09:51:06.761Z</time></trkpt><trkpt lat="41.4954062" lon="-0.2234542"><ele>360.5</ele><time>2026-05-04T09:51:07.762Z</time></trkpt><trkpt lat="41.495399" lon="-0.2232693"><ele>360.75</ele><time>2026-05-04T09:51:08.762Z</time></trkpt><trkpt lat="41.4953954" lon="-0.2230842"><ele>361.0</ele><time>2026-05-04T09:51:09.762Z</time></trkpt><trkpt lat="41.4953869" lon="-0.2229099"><ele>361.25</ele><time>2026-05-04T09:51:10.761Z</time></trkpt><trkpt lat="41.4953795" lon="-0.2227335"><ele>361.5</ele><time>2026-05-04T09:51:11.762Z</time></trkpt><trkpt lat="41.4953732" lon="-0.2225546"><ele>361.75</ele><time>2026-05-04T09:51:12.762Z</time></trkpt><trkpt lat="41.4953667" lon="-0.2223843"><ele>362.0</ele><time>2026-05-04T09:51:13.761Z</time></trkpt><trkpt lat="41.4953643" lon="-0.2222063"><ele>362.5</ele><time>2026-05-04T09:51:14.761Z</time></trkpt><trkpt lat="41.4953595" lon="-0.2220298"><ele>363.0</ele><time>2026-05-04T09:51:15.762Z</time></trkpt><trkpt lat="41.4953509" lon="-0.2218554"><ele>363.5</ele><time>2026-05-04T09:51:16.762Z</time></trkpt><trkpt lat="41.4953373" lon="-0.2216805"><ele>364.0</ele><time>2026-05-04T09:51:17.762Z</time></trkpt><trkpt lat="41.4953301" lon="-0.2215076"><ele>364.0</ele><time>2026-05-04T09:51:18.762Z</time></trkpt><trkpt lat="41.4953201" lon="-0.2213349"><ele>364.0</ele><time>2026-05-04T09:51:19.762Z</time></trkpt><trkpt lat="41.4953151" lon="-0.2211605"><ele>364.0</ele><time>2026-05-04T09:51:20.762Z</time></trkpt><trkpt lat="41.4953121" lon="-0.2209833"><ele>364.0</ele><time>2026-05-04T09:51:21.762Z</time></trkpt><trkpt lat="41.4953159" lon="-0.2208051"><ele>363.75</ele><time>2026-05-04T09:51:22.762Z</time></trkpt><trkpt lat="41.4953257" lon="-0.2206295"><ele>363.5</ele><time>2026-05-04T09:51:23.761Z</time></trkpt><trkpt lat="41.4953313" lon="-0.220452"><ele>363.25</ele><time>2026-05-04T09:51:24.762Z</time></trkpt><trkpt lat="41.4953439" lon="-0.2202726"><ele>363.0</ele><time>2026-05-04T09:51:25.762Z</time></trkpt><trkpt lat="41.4953601" lon="-0.2200959"><ele>363.0</ele><time>2026-05-04T09:51:26.762Z</time></trkpt><trkpt lat="41.4953861" lon="-0.219924"><ele>363.0</ele><time>2026-05-04T09:51:27.762Z</time></trkpt><trkpt lat="41.4954219" lon="-0.2197506"><ele>363.0</ele><time>2026-05-04T09:51:28.761Z</time></trkpt><trkpt lat="41.4954696" lon="-0.2195857"><ele>363.0</ele><time>2026-05-04T09:51:29.762Z</time></trkpt><trkpt lat="41.4955252" lon="-0.2194179"><ele>363.0</ele><time>2026-05-04T09:51:30.762Z</time></trkpt><trkpt lat="41.4955863" lon="-0.2192571"><ele>363.0</ele><time>2026-05-04T09:51:31.762Z</time></trkpt><trkpt lat="41.4956391" lon="-0.2190911"><ele>363.0</ele><time>2026-05-04T09:51:32.762Z</time></trkpt><trkpt lat="41.4956941" lon="-0.2189263"><ele>363.0</ele><time>2026-05-04T09:51:33.762Z</time></trkpt><trkpt lat="41.4957445" lon="-0.2187578"><ele>362.75</ele><time>2026-05-04T09:51:34.762Z</time></trkpt><trkpt lat="41.4957926" lon="-0.2185853"><ele>362.5</ele><time>2026-05-04T09:51:35.762Z</time></trkpt><trkpt lat="41.4958316" lon="-0.2184094"><ele>362.25</ele><time>2026-05-04T09:51:36.761Z</time></trkpt><trkpt lat="41.4958612" lon="-0.2182292"><ele>362.0</ele><time>2026-05-04T09:51:37.761Z</time></trkpt><trkpt lat="41.4958812" lon="-0.2180415"><ele>361.75</ele><time>2026-05-04T09:51:38.762Z</time></trkpt><trkpt lat="41.4958961" lon="-0.2178563"><ele>361.5</ele><time>2026-05-04T09:51:39.762Z</time></trkpt><trkpt lat="41.4959046" lon="-0.2176708"><ele>361.25</ele><time>2026-05-04T09:51:40.762Z</time></trkpt><trkpt lat="41.4959125" lon="-0.2174866"><ele>361.0</ele><time>2026-05-04T09:51:41.761Z</time></trkpt><trkpt lat="41.4959224" lon="-0.2173014"><ele>361.75</ele><time>2026-05-04T09:51:42.762Z</time></trkpt><trkpt lat="41.4959357" lon="-0.2171139"><ele>362.5</ele><time>2026-05-04T09:51:43.762Z</time></trkpt><trkpt lat="41.4959469" lon="-0.2169263"><ele>363.25</ele><time>2026-05-04T09:51:44.762Z</time></trkpt><trkpt lat="41.4959592" lon="-0.2167466"><ele>364.0</ele><time>2026-05-04T09:51:45.761Z</time></trkpt><trkpt lat="41.4959687" lon="-0.2165605"><ele>364.0</ele><time>2026-05-04T09:51:46.762Z</time></trkpt><trkpt lat="41.4959801" lon="-0.2163724"><ele>364.0</ele><time>2026-05-04T09:51:47.762Z</time></trkpt><trkpt lat="41.4959911" lon="-0.2161928"><ele>364.0</ele><time>2026-05-04T09:51:48.762Z</time></trkpt><trkpt lat="41.4960054" lon="-0.2160061"><ele>364.0</ele><time>2026-05-04T09:51:49.762Z</time></trkpt><trkpt lat="41.4960152" lon="-0.2158226"><ele>364.25</ele><time>2026-05-04T09:51:50.761Z</time></trkpt><trkpt lat="41.4960284" lon="-0.2156394"><ele>364.5</ele><time>2026-05-04T09:51:51.762Z</time></trkpt><trkpt lat="41.496041" lon="-0.2154603"><ele>364.75</ele><time>2026-05-04T09:51:52.762Z</time></trkpt><trkpt lat="41.4960504" lon="-0.2152833"><ele>365.0</ele><time>2026-05-04T09:51:53.761Z</time></trkpt><trkpt lat="41.4960588" lon="-0.2150976"><ele>365.0</ele><time>2026-05-04T09:51:54.762Z</time></trkpt><trkpt lat="41.4960713" lon="-0.2149114"><ele>365.0</ele><time>2026-05-04T09:51:55.762Z</time></trkpt><trkpt lat="41.4960838" lon="-0.214728"><ele>365.0</ele><time>2026-05-04T09:51:56.762Z</time></trkpt><trkpt lat="41.4960942" lon="-0.2145475"><ele>365.0</ele><time>2026-05-04T09:51:57.762Z</time></trkpt><trkpt lat="41.496107" lon="-0.2143571"><ele>365.0</ele><time>2026-05-04T09:51:58.762Z</time></trkpt><trkpt lat="41.4961184" lon="-0.214173"><ele>365.0</ele><time>2026-05-04T09:51:59.761Z</time></trkpt><trkpt lat="41.4961308" lon="-0.2139849"><ele>365.0</ele><time>2026-05-04T09:52:00.762Z</time></trkpt><trkpt lat="41.4961411" lon="-0.2137964"><ele>365.0</ele><time>2026-05-04T09:52:01.762Z</time></trkpt><trkpt lat="41.4961561" lon="-0.2136104"><ele>365.0</ele><time>2026-05-04T09:52:02.762Z</time></trkpt><trkpt lat="41.4961679" lon="-0.213425"><ele>365.0</ele><time>2026-05-04T09:52:03.762Z</time></trkpt><trkpt lat="41.4961825" lon="-0.2132437"><ele>365.0</ele><time>2026-05-04T09:52:04.762Z</time></trkpt><trkpt lat="41.4961919" lon="-0.2130572"><ele>365.0</ele><time>2026-05-04T09:52:05.762Z</time></trkpt><trkpt lat="41.4962052" lon="-0.2128729"><ele>365.0</ele><time>2026-05-04T09:52:06.761Z</time></trkpt><trkpt lat="41.4962173" lon="-0.212685"><ele>365.0</ele><time>2026-05-04T09:52:07.762Z</time></trkpt><trkpt lat="41.4962268" lon="-0.2125031"><ele>365.0</ele><time>2026-05-04T09:52:08.762Z</time></trkpt><trkpt lat="41.4962364" lon="-0.2123207"><ele>365.0</ele><time>2026-05-04T09:52:09.762Z</time></trkpt><trkpt lat="41.4962467" lon="-0.2121346"><ele>364.75</ele><time>2026-05-04T09:52:10.761Z</time></trkpt><trkpt lat="41.4962521" lon="-0.2119461"><ele>364.5</ele><time>2026-05-04T09:52:11.762Z</time></trkpt><trkpt lat="41.4962479" lon="-0.2117567"><ele>364.25</ele><time>2026-05-04T09:52:12.762Z</time></trkpt><trkpt lat="41.496237" lon="-0.211569"><ele>364.0</ele><time>2026-05-04T09:52:13.761Z</time></trkpt><trkpt lat="41.4962221" lon="-0.2113837"><ele>363.75</ele><time>2026-05-04T09:52:14.762Z</time></trkpt><trkpt lat="41.4962025" lon="-0.211193"><ele>363.5</ele><time>2026-05-04T09:52:15.762Z</time></trkpt><trkpt lat="41.4961869" lon="-0.2110066"><ele>363.25</ele><time>2026-05-04T09:52:16.762Z</time></trkpt><trkpt lat="41.4961679" lon="-0.2108105"><ele>363.0</ele><time>2026-05-04T09:52:17.762Z</time></trkpt><trkpt lat="41.4961518" lon="-0.2106163"><ele>363.0</ele><time>2026-05-04T09:52:18.762Z</time></trkpt><trkpt lat="41.4961325" lon="-0.2104179"><ele>363.0</ele><time>2026-05-04T09:52:19.762Z</time></trkpt><trkpt lat="41.4961157" lon="-0.2102248"><ele>363.0</ele><time>2026-05-04T09:52:20.762Z</time></trkpt><trkpt lat="41.4961003" lon="-0.2100315"><ele>363.0</ele><time>2026-05-04T09:52:21.762Z</time></trkpt><trkpt lat="41.4960859" lon="-0.2098365"><ele>363.0</ele><time>2026-05-04T09:52:22.761Z</time></trkpt><trkpt lat="41.4960691" lon="-0.2096417"><ele>363.0</ele><time>2026-05-04T09:52:23.762Z</time></trkpt><trkpt lat="41.4960499" lon="-0.2094483"><ele>363.0</ele><time>2026-05-04T09:52:24.762Z</time></trkpt><trkpt lat="41.4960322" lon="-0.2092561"><ele>363.0</ele><time>2026-05-04T09:52:25.762Z</time></trkpt><trkpt lat="41.4960088" lon="-0.209065"><ele>363.0</ele><time>2026-05-04T09:52:26.761Z</time></trkpt><trkpt lat="41.4959914" lon="-0.208872"><ele>363.0</ele><time>2026-05-04T09:52:27.762Z</time></trkpt><trkpt lat="41.4959783" lon="-0.2086814"><ele>363.0</ele><time>2026-05-04T09:52:28.762Z</time></trkpt><trkpt lat="41.4959619" lon="-0.2084892"><ele>363.0</ele><time>2026-05-04T09:52:29.762Z</time></trkpt><trkpt lat="41.4959488" lon="-0.2082969"><ele>362.75</ele><time>2026-05-04T09:52:30.762Z</time></trkpt><trkpt lat="41.495927" lon="-0.2081015"><ele>362.5</ele><time>2026-05-04T09:52:31.762Z</time></trkpt><trkpt lat="41.49591" lon="-0.2079134"><ele>362.25</ele><time>2026-05-04T09:52:32.761Z</time></trkpt><trkpt lat="41.4958923" lon="-0.2077337"><ele>362.0</ele><time>2026-05-04T09:52:33.762Z</time></trkpt><trkpt lat="41.4958758" lon="-0.2075571"><ele>362.0</ele><time>2026-05-04T09:52:34.762Z</time></trkpt><trkpt lat="41.4958613" lon="-0.2073732"><ele>362.0</ele><time>2026-05-04T09:52:35.762Z</time></trkpt><trkpt lat="41.49585" lon="-0.2071969"><ele>362.0</ele><time>2026-05-04T09:52:36.761Z</time></trkpt><trkpt lat="41.4958362" lon="-0.2070143"><ele>362.0</ele><time>2026-05-04T09:52:37.762Z</time></trkpt><trkpt lat="41.4958205" lon="-0.2068333"><ele>361.5</ele><time>2026-05-04T09:52:38.762Z</time></trkpt><trkpt lat="41.4958018" lon="-0.2066522"><ele>361.0</ele><time>2026-05-04T09:52:39.762Z</time></trkpt><trkpt lat="41.4957813" lon="-0.2064682"><ele>360.5</ele><time>2026-05-04T09:52:40.762Z</time></trkpt><trkpt lat="41.495764" lon="-0.2062905"><ele>360.0</ele><time>2026-05-04T09:52:41.761Z</time></trkpt><trkpt lat="41.4957455" lon="-0.2061109"><ele>360.0</ele><time>2026-05-04T09:52:42.762Z</time></trkpt><trkpt lat="41.4957252" lon="-0.2059314"><ele>360.0</ele><time>2026-05-04T09:52:43.762Z</time></trkpt><trkpt lat="41.4957086" lon="-0.2057538"><ele>360.0</ele><time>2026-05-04T09:52:44.761Z</time></trkpt><trkpt lat="41.4956932" lon="-0.2055736"><ele>360.0</ele><time>2026-05-04T09:52:45.762Z</time></trkpt><trkpt lat="41.4956787" lon="-0.2054022"><ele>359.75</ele><time>2026-05-04T09:52:46.762Z</time></trkpt><trkpt lat="41.4956616" lon="-0.2052163"><ele>359.5</ele><time>2026-05-04T09:52:47.762Z</time></trkpt><trkpt lat="41.4956443" lon="-0.2050376"><ele>359.25</ele><time>2026-05-04T09:52:48.762Z</time></trkpt><trkpt lat="41.4956295" lon="-0.2048527"><ele>359.0</ele><time>2026-05-04T09:52:49.762Z</time></trkpt><trkpt lat="41.4956109" lon="-0.2046704"><ele>359.0</ele><time>2026-05-04T09:52:50.762Z</time></trkpt><trkpt lat="41.4955959" lon="-0.2044887"><ele>359.0</ele><time>2026-05-04T09:52:51.762Z</time></trkpt><trkpt lat="41.4955821" lon="-0.2043058"><ele>359.0</ele><time>2026-05-04T09:52:52.762Z</time></trkpt><trkpt lat="41.4955679" lon="-0.2041166"><ele>359.0</ele><time>2026-05-04T09:52:53.762Z</time></trkpt><trkpt lat="41.4955507" lon="-0.2039284"><ele>359.25</ele><time>2026-05-04T09:52:54.761Z</time></trkpt><trkpt lat="41.4955374" lon="-0.20374"><ele>359.5</ele><time>2026-05-04T09:52:55.761Z</time></trkpt><trkpt lat="41.4955194" lon="-0.2035492"><ele>359.75</ele><time>2026-05-04T09:52:56.762Z</time></trkpt><trkpt lat="41.4955" lon="-0.2033563"><ele>360.0</ele><time>2026-05-04T09:52:57.762Z</time></trkpt><trkpt lat="41.4954842" lon="-0.2031666"><ele>360.0</ele><time>2026-05-04T09:52:58.762Z</time></trkpt><trkpt lat="41.4954689" lon="-0.2029731"><ele>360.0</ele><time>2026-05-04T09:52:59.762Z</time></trkpt><trkpt lat="41.4954522" lon="-0.2027825"><ele>360.0</ele><time>2026-05-04T09:53:00.763Z</time></trkpt><trkpt lat="41.4954358" lon="-0.2025909"><ele>360.0</ele><time>2026-05-04T09:53:01.763Z</time></trkpt><trkpt lat="41.4954207" lon="-0.2023966"><ele>359.5</ele><time>2026-05-04T09:53:02.762Z</time></trkpt><trkpt lat="41.4954025" lon="-0.2022075"><ele>359.0</ele><time>2026-05-04T09:53:03.763Z</time></trkpt><trkpt lat="41.495385" lon="-0.2020204"><ele>358.5</ele><time>2026-05-04T09:53:04.763Z</time></trkpt><trkpt lat="41.4953664" lon="-0.2018335"><ele>358.0</ele><time>2026-05-04T09:53:05.763Z</time></trkpt><trkpt lat="41.4953498" lon="-0.2016456"><ele>358.25</ele><time>2026-05-04T09:53:06.763Z</time></trkpt><trkpt lat="41.4953253" lon="-0.201456"><ele>358.5</ele><time>2026-05-04T09:53:07.763Z</time></trkpt><trkpt lat="41.4953015" lon="-0.2012714"><ele>358.75</ele><time>2026-05-04T09:53:08.763Z</time></trkpt><trkpt lat="41.4952661" lon="-0.2010823"><ele>359.0</ele><time>2026-05-04T09:53:09.762Z</time></trkpt><trkpt lat="41.4952304" lon="-0.2008945"><ele>359.0</ele><time>2026-05-04T09:53:10.763Z</time></trkpt><trkpt lat="41.4951889" lon="-0.2007151"><ele>359.0</ele><time>2026-05-04T09:53:11.762Z</time></trkpt><trkpt lat="41.495146" lon="-0.2005308"><ele>359.0</ele><time>2026-05-04T09:53:12.763Z</time></trkpt><trkpt lat="41.495104" lon="-0.2003452"><ele>359.0</ele><time>2026-05-04T09:53:13.763Z</time></trkpt><trkpt lat="41.4950668" lon="-0.2001635"><ele>359.0</ele><time>2026-05-04T09:53:14.763Z</time></trkpt><trkpt lat="41.4950254" lon="-0.1999799"><ele>359.0</ele><time>2026-05-04T09:53:15.762Z</time></trkpt><trkpt lat="41.4949815" lon="-0.1997893"><ele>359.0</ele><time>2026-05-04T09:53:16.763Z</time></trkpt><trkpt lat="41.494939" lon="-0.1996016"><ele>359.0</ele><time>2026-05-04T09:53:17.763Z</time></trkpt><trkpt lat="41.4948989" lon="-0.1994189"><ele>359.0</ele><time>2026-05-04T09:53:18.763Z</time></trkpt><trkpt lat="41.4948595" lon="-0.199245"><ele>359.0</ele><time>2026-05-04T09:53:19.763Z</time></trkpt><trkpt lat="41.4948197" lon="-0.199063"><ele>359.0</ele><time>2026-05-04T09:53:20.763Z</time></trkpt><trkpt lat="41.4947804" lon="-0.1988863"><ele>359.0</ele><time>2026-05-04T09:53:21.763Z</time></trkpt><trkpt lat="41.494741" lon="-0.198706"><ele>358.75</ele><time>2026-05-04T09:53:22.763Z</time></trkpt><trkpt lat="41.4947017" lon="-0.1985282"><ele>358.5</ele><time>2026-05-04T09:53:23.763Z</time></trkpt><trkpt lat="41.4946623" lon="-0.1983514"><ele>358.25</ele><time>2026-05-04T09:53:24.763Z</time></trkpt><trkpt lat="41.4946186" lon="-0.1981734"><ele>358.0</ele><time>2026-05-04T09:53:25.763Z</time></trkpt><trkpt lat="41.4945769" lon="-0.1979975"><ele>358.0</ele><time>2026-05-04T09:53:26.763Z</time></trkpt><trkpt lat="41.494537" lon="-0.1978184"><ele>358.0</ele><time>2026-05-04T09:53:27.763Z</time></trkpt><trkpt lat="41.4944957" lon="-0.1976419"><ele>358.0</ele><time>2026-05-04T09:53:28.763Z</time></trkpt><trkpt lat="41.4944576" lon="-0.1974677"><ele>358.0</ele><time>2026-05-04T09:53:29.763Z</time></trkpt><trkpt lat="41.4944149" lon="-0.1972933"><ele>358.0</ele><time>2026-05-04T09:53:30.763Z</time></trkpt><trkpt lat="41.4943732" lon="-0.19712"><ele>358.0</ele><time>2026-05-04T09:53:31.763Z</time></trkpt><trkpt lat="41.4943344" lon="-0.1969394"><ele>358.0</ele><time>2026-05-04T09:53:32.763Z</time></trkpt><trkpt lat="41.4942968" lon="-0.1967646"><ele>358.0</ele><time>2026-05-04T09:53:33.763Z</time></trkpt><trkpt lat="41.4942665" lon="-0.1965866"><ele>358.25</ele><time>2026-05-04T09:53:34.763Z</time></trkpt><trkpt lat="41.4942418" lon="-0.1964114"><ele>358.5</ele><time>2026-05-04T09:53:35.763Z</time></trkpt><trkpt lat="41.4942198" lon="-0.1962337"><ele>358.75</ele><time>2026-05-04T09:53:36.763Z</time></trkpt><trkpt lat="41.4942035" lon="-0.1960553"><ele>359.0</ele><time>2026-05-04T09:53:37.763Z</time></trkpt><trkpt lat="41.494194" lon="-0.1958756"><ele>359.0</ele><time>2026-05-04T09:53:38.763Z</time></trkpt><trkpt lat="41.4941819" lon="-0.1956949"><ele>359.0</ele><time>2026-05-04T09:53:39.763Z</time></trkpt><trkpt lat="41.4941787" lon="-0.1955099"><ele>359.0</ele><time>2026-05-04T09:53:40.763Z</time></trkpt><trkpt lat="41.4941774" lon="-0.1953263"><ele>359.0</ele><time>2026-05-04T09:53:41.763Z</time></trkpt><trkpt lat="41.4941771" lon="-0.1951429"><ele>359.0</ele><time>2026-05-04T09:53:42.763Z</time></trkpt><trkpt lat="41.4941729" lon="-0.1949536"><ele>359.0</ele><time>2026-05-04T09:53:43.763Z</time></trkpt><trkpt lat="41.4941737" lon="-0.1947659"><ele>359.0</ele><time>2026-05-04T09:53:44.763Z</time></trkpt><trkpt lat="41.4941687" lon="-0.1945805"><ele>359.0</ele><time>2026-05-04T09:53:45.763Z</time></trkpt><trkpt lat="41.4941715" lon="-0.1943947"><ele>358.75</ele><time>2026-05-04T09:53:46.763Z</time></trkpt><trkpt lat="41.4941733" lon="-0.194208"><ele>358.5</ele><time>2026-05-04T09:53:47.763Z</time></trkpt><trkpt lat="41.4941721" lon="-0.1940248"><ele>358.25</ele><time>2026-05-04T09:53:48.763Z</time></trkpt><trkpt lat="41.4941752" lon="-0.1938488"><ele>358.0</ele><time>2026-05-04T09:53:49.762Z</time></trkpt><trkpt lat="41.4941743" lon="-0.1936696"><ele>358.0</ele><time>2026-05-04T09:53:50.763Z</time></trkpt><trkpt lat="41.4941739" lon="-0.1934969"><ele>358.0</ele><time>2026-05-04T09:53:51.763Z</time></trkpt><trkpt lat="41.4941721" lon="-0.1933184"><ele>358.0</ele><time>2026-05-04T09:53:52.763Z</time></trkpt><trkpt lat="41.4941729" lon="-0.1931344"><ele>358.0</ele><time>2026-05-04T09:53:53.763Z</time></trkpt><trkpt lat="41.4941742" lon="-0.1929574"><ele>358.0</ele><time>2026-05-04T09:53:54.763Z</time></trkpt><trkpt lat="41.4941738" lon="-0.1927806"><ele>358.0</ele><time>2026-05-04T09:53:55.762Z</time></trkpt><trkpt lat="41.4941762" lon="-0.192606"><ele>358.0</ele><time>2026-05-04T09:53:56.763Z</time></trkpt><trkpt lat="41.4941779" lon="-0.1924306"><ele>358.0</ele><time>2026-05-04T09:53:57.763Z</time></trkpt><trkpt lat="41.4941777" lon="-0.1922462"><ele>358.0</ele><time>2026-05-04T09:53:58.763Z</time></trkpt><trkpt lat="41.4941776" lon="-0.1920644"><ele>358.0</ele><time>2026-05-04T09:53:59.762Z</time></trkpt><trkpt lat="41.4941762" lon="-0.1918841"><ele>358.0</ele><time>2026-05-04T09:54:00.763Z</time></trkpt><trkpt lat="41.4941847" lon="-0.1917055"><ele>358.0</ele><time>2026-05-04T09:54:01.763Z</time></trkpt><trkpt lat="41.4941994" lon="-0.191515"><ele>357.5</ele><time>2026-05-04T09:54:02.763Z</time></trkpt><trkpt lat="41.4942213" lon="-0.1913344"><ele>357.0</ele><time>2026-05-04T09:54:03.763Z</time></trkpt><trkpt lat="41.4942526" lon="-0.1911491"><ele>356.5</ele><time>2026-05-04T09:54:04.763Z</time></trkpt><trkpt lat="41.4942908" lon="-0.1909585"><ele>356.0</ele><time>2026-05-04T09:54:05.763Z</time></trkpt><trkpt lat="41.4943342" lon="-0.1907724"><ele>355.25</ele><time>2026-05-04T09:54:06.763Z</time></trkpt><trkpt lat="41.4943744" lon="-0.1905891"><ele>354.5</ele><time>2026-05-04T09:54:07.762Z</time></trkpt><trkpt lat="41.4944112" lon="-0.1904026"><ele>353.75</ele><time>2026-05-04T09:54:08.763Z</time></trkpt><trkpt lat="41.4944508" lon="-0.1902135"><ele>353.0</ele><time>2026-05-04T09:54:09.763Z</time></trkpt><trkpt lat="41.4944902" lon="-0.1900244"><ele>353.0</ele><time>2026-05-04T09:54:10.763Z</time></trkpt><trkpt lat="41.4945275" lon="-0.1898296"><ele>353.0</ele><time>2026-05-04T09:54:11.763Z</time></trkpt><trkpt lat="41.494564" lon="-0.1896415"><ele>353.0</ele><time>2026-05-04T09:54:12.763Z</time></trkpt><trkpt lat="41.4946011" lon="-0.1894577"><ele>353.0</ele><time>2026-05-04T09:54:13.762Z</time></trkpt><trkpt lat="41.4946376" lon="-0.189278"><ele>353.0</ele><time>2026-05-04T09:54:14.762Z</time></trkpt><trkpt lat="41.494673" lon="-0.1890944"><ele>353.0</ele><time>2026-05-04T09:54:15.763Z</time></trkpt><trkpt lat="41.4947085" lon="-0.1889097"><ele>353.0</ele><time>2026-05-04T09:54:16.762Z</time></trkpt><trkpt lat="41.4947446" lon="-0.1887219"><ele>353.0</ele><time>2026-05-04T09:54:17.762Z</time></trkpt><trkpt lat="41.4947812" lon="-0.1885404"><ele>352.75</ele><time>2026-05-04T09:54:18.763Z</time></trkpt><trkpt lat="41.4948181" lon="-0.1883622"><ele>352.5</ele><time>2026-05-04T09:54:19.763Z</time></trkpt><trkpt lat="41.4948485" lon="-0.1881762"><ele>352.25</ele><time>2026-05-04T09:54:20.763Z</time></trkpt><trkpt lat="41.4948688" lon="-0.1879904"><ele>352.0</ele><time>2026-05-04T09:54:21.763Z</time></trkpt><trkpt lat="41.4948874" lon="-0.1877965"><ele>351.5</ele><time>2026-05-04T09:54:22.763Z</time></trkpt><trkpt lat="41.494904" lon="-0.1876038"><ele>351.0</ele><time>2026-05-04T09:54:23.763Z</time></trkpt><trkpt lat="41.4949211" lon="-0.1874082"><ele>350.5</ele><time>2026-05-04T09:54:24.762Z</time></trkpt><trkpt lat="41.4949385" lon="-0.1872176"><ele>350.0</ele><time>2026-05-04T09:54:25.763Z</time></trkpt><trkpt lat="41.4949561" lon="-0.1870242"><ele>349.5</ele><time>2026-05-04T09:54:26.763Z</time></trkpt><trkpt lat="41.4949704" lon="-0.1868257"><ele>349.0</ele><time>2026-05-04T09:54:27.762Z</time></trkpt><trkpt lat="41.4949855" lon="-0.1866339"><ele>348.5</ele><time>2026-05-04T09:54:28.763Z</time></trkpt><trkpt lat="41.4949972" lon="-0.1864371"><ele>348.0</ele><time>2026-05-04T09:54:29.763Z</time></trkpt><trkpt lat="41.4950083" lon="-0.1862452"><ele>347.75</ele><time>2026-05-04T09:54:30.763Z</time></trkpt><trkpt lat="41.4950234" lon="-0.1860549"><ele>347.5</ele><time>2026-05-04T09:54:31.763Z</time></trkpt><trkpt lat="41.4950367" lon="-0.1858704"><ele>347.25</ele><time>2026-05-04T09:54:32.763Z</time></trkpt><trkpt lat="41.4950534" lon="-0.1856813"><ele>347.0</ele><time>2026-05-04T09:54:33.763Z</time></trkpt><trkpt lat="41.4950655" lon="-0.1854997"><ele>346.5</ele><time>2026-05-04T09:54:34.763Z</time></trkpt><trkpt lat="41.4950836" lon="-0.185314"><ele>346.0</ele><time>2026-05-04T09:54:35.763Z</time></trkpt><trkpt lat="41.4951026" lon="-0.18513"><ele>345.5</ele><time>2026-05-04T09:54:36.763Z</time></trkpt><trkpt lat="41.4951271" lon="-0.1849483"><ele>345.0</ele><time>2026-05-04T09:54:37.763Z</time></trkpt><trkpt lat="41.4951532" lon="-0.1847682"><ele>344.75</ele><time>2026-05-04T09:54:38.763Z</time></trkpt><trkpt lat="41.4951826" lon="-0.1845845"><ele>344.5</ele><time>2026-05-04T09:54:39.763Z</time></trkpt><trkpt lat="41.4952172" lon="-0.1843928"><ele>344.25</ele><time>2026-05-04T09:54:40.762Z</time></trkpt><trkpt lat="41.4952532" lon="-0.1841979"><ele>344.0</ele><time>2026-05-04T09:54:41.762Z</time></trkpt><trkpt lat="41.4952937" lon="-0.1840016"><ele>342.6666666666667</ele><time>2026-05-04T09:54:42.763Z</time></trkpt><trkpt lat="41.4953286" lon="-0.1838053"><ele>341.3333333333333</ele><time>2026-05-04T09:54:43.763Z</time></trkpt><trkpt lat="41.4953726" lon="-0.1836014"><ele>340.0</ele><time>2026-05-04T09:54:44.762Z</time></trkpt><trkpt lat="41.495416" lon="-0.1834016"><ele>338.66666666666663</ele><time>2026-05-04T09:54:45.762Z</time></trkpt><trkpt lat="41.4954566" lon="-0.1831944"><ele>337.3333333333333</ele><time>2026-05-04T09:54:46.763Z</time></trkpt><trkpt lat="41.495499" lon="-0.1829866"><ele>336.0</ele><time>2026-05-04T09:54:47.763Z</time></trkpt><trkpt lat="41.4955395" lon="-0.1827757"><ele>335.3333333333333</ele><time>2026-05-04T09:54:48.762Z</time></trkpt><trkpt lat="41.4955775" lon="-0.1825711"><ele>334.66666666666663</ele><time>2026-05-04T09:54:49.763Z</time></trkpt><trkpt lat="41.4956157" lon="-0.1823684"><ele>334.0</ele><time>2026-05-04T09:54:50.763Z</time></trkpt><trkpt lat="41.4956512" lon="-0.1821678"><ele>334.0</ele><time>2026-05-04T09:54:51.763Z</time></trkpt><trkpt lat="41.4956904" lon="-0.1819666"><ele>334.0</ele><time>2026-05-04T09:54:52.763Z</time></trkpt><trkpt lat="41.495728" lon="-0.181766"><ele>334.0</ele><time>2026-05-04T09:54:53.763Z</time></trkpt><trkpt lat="41.495766" lon="-0.1815662"><ele>333.0</ele><time>2026-05-04T09:54:54.762Z</time></trkpt><trkpt lat="41.4958041" lon="-0.1813671"><ele>332.0</ele><time>2026-05-04T09:54:55.762Z</time></trkpt><trkpt lat="41.4958412" lon="-0.1811753"><ele>331.0</ele><time>2026-05-04T09:54:56.762Z</time></trkpt><trkpt lat="41.4958758" lon="-0.1809781"><ele>331.0</ele><time>2026-05-04T09:54:57.763Z</time></trkpt><trkpt lat="41.4959106" lon="-0.1807838"><ele>331.0</ele><time>2026-05-04T09:54:58.763Z</time></trkpt><trkpt lat="41.4959392" lon="-0.1805891"><ele>331.0</ele><time>2026-05-04T09:54:59.763Z</time></trkpt><trkpt lat="41.4959676" lon="-0.1803945"><ele>331.0</ele><time>2026-05-04T09:55:00.763Z</time></trkpt><trkpt lat="41.4959897" lon="-0.1801939"><ele>331.0</ele><time>2026-05-04T09:55:01.763Z</time></trkpt><trkpt lat="41.4960029" lon="-0.1799937"><ele>331.0</ele><time>2026-05-04T09:55:02.764Z</time></trkpt><trkpt lat="41.4960092" lon="-0.1798031"><ele>331.0</ele><time>2026-05-04T09:55:03.763Z</time></trkpt><trkpt lat="41.4960191" lon="-0.1796113"><ele>331.0</ele><time>2026-05-04T09:55:04.764Z</time></trkpt><trkpt lat="41.4960298" lon="-0.1794201"><ele>331.0</ele><time>2026-05-04T09:55:05.764Z</time></trkpt><trkpt lat="41.4960421" lon="-0.1792263"><ele>331.0</ele><time>2026-05-04T09:55:06.764Z</time></trkpt><trkpt lat="41.496056" lon="-0.1790316"><ele>331.0</ele><time>2026-05-04T09:55:07.763Z</time></trkpt><trkpt lat="41.4960652" lon="-0.1788409"><ele>331.0</ele><time>2026-05-04T09:55:08.764Z</time></trkpt><trkpt lat="41.4960741" lon="-0.178649"><ele>331.0</ele><time>2026-05-04T09:55:09.763Z</time></trkpt><trkpt lat="41.496086" lon="-0.1784536"><ele>331.0</ele><time>2026-05-04T09:55:10.764Z</time></trkpt><trkpt lat="41.4960992" lon="-0.1782592"><ele>331.0</ele><time>2026-05-04T09:55:11.763Z</time></trkpt><trkpt lat="41.4961105" lon="-0.1780622"><ele>331.0</ele><time>2026-05-04T09:55:12.763Z</time></trkpt><trkpt lat="41.4961177" lon="-0.1778708"><ele>331.0</ele><time>2026-05-04T09:55:13.764Z</time></trkpt><trkpt lat="41.4961258" lon="-0.1776772"><ele>331.0</ele><time>2026-05-04T09:55:14.763Z</time></trkpt><trkpt lat="41.4961404" lon="-0.177484"><ele>331.0</ele><time>2026-05-04T09:55:15.764Z</time></trkpt><trkpt lat="41.4961489" lon="-0.1772928"><ele>331.0</ele><time>2026-05-04T09:55:16.764Z</time></trkpt><trkpt lat="41.496159" lon="-0.1770999"><ele>330.5</ele><time>2026-05-04T09:55:17.764Z</time></trkpt><trkpt lat="41.4961696" lon="-0.1769065"><ele>330.0</ele><time>2026-05-04T09:55:18.764Z</time></trkpt><trkpt lat="41.4961838" lon="-0.1767128"><ele>329.5</ele><time>2026-05-04T09:55:19.764Z</time></trkpt><trkpt lat="41.4961961" lon="-0.1765176"><ele>329.0</ele><time>2026-05-04T09:55:20.764Z</time></trkpt><trkpt lat="41.4962079" lon="-0.1763246"><ele>328.5</ele><time>2026-05-04T09:55:21.764Z</time></trkpt><trkpt lat="41.4962203" lon="-0.1761322"><ele>328.0</ele><time>2026-05-04T09:55:22.764Z</time></trkpt><trkpt lat="41.4962306" lon="-0.1759347"><ele>327.5</ele><time>2026-05-04T09:55:23.764Z</time></trkpt><trkpt lat="41.4962358" lon="-0.1757435"><ele>327.0</ele><time>2026-05-04T09:55:24.764Z</time></trkpt><trkpt lat="41.4962506" lon="-0.1755513"><ele>327.25</ele><time>2026-05-04T09:55:25.764Z</time></trkpt><trkpt lat="41.4962601" lon="-0.1753549"><ele>327.5</ele><time>2026-05-04T09:55:26.764Z</time></trkpt><trkpt lat="41.4962711" lon="-0.1751596"><ele>327.75</ele><time>2026-05-04T09:55:27.764Z</time></trkpt><trkpt lat="41.4962805" lon="-0.1749654"><ele>328.0</ele><time>2026-05-04T09:55:28.764Z</time></trkpt><trkpt lat="41.4962944" lon="-0.1747665"><ele>328.0</ele><time>2026-05-04T09:55:29.763Z</time></trkpt><trkpt lat="41.4963069" lon="-0.174572"><ele>328.0</ele><time>2026-05-04T09:55:30.764Z</time></trkpt><trkpt lat="41.4963145" lon="-0.1743831"><ele>328.0</ele><time>2026-05-04T09:55:31.764Z</time></trkpt><trkpt lat="41.496327" lon="-0.1741888"><ele>328.0</ele><time>2026-05-04T09:55:32.764Z</time></trkpt><trkpt lat="41.4963355" lon="-0.1739961"><ele>327.75</ele><time>2026-05-04T09:55:33.764Z</time></trkpt><trkpt lat="41.4963444" lon="-0.1738029"><ele>327.5</ele><time>2026-05-04T09:55:34.763Z</time></trkpt><trkpt lat="41.4963535" lon="-0.1736108"><ele>327.25</ele><time>2026-05-04T09:55:35.764Z</time></trkpt><trkpt lat="41.4963665" lon="-0.1734158"><ele>327.0</ele><time>2026-05-04T09:55:36.764Z</time></trkpt><trkpt lat="41.4963755" lon="-0.1732301"><ele>327.0</ele><time>2026-05-04T09:55:37.764Z</time></trkpt><trkpt lat="41.4963885" lon="-0.1730388"><ele>327.0</ele><time>2026-05-04T09:55:38.764Z</time></trkpt><trkpt lat="41.4963976" lon="-0.1728483"><ele>327.0</ele><time>2026-05-04T09:55:39.764Z</time></trkpt><trkpt lat="41.4964115" lon="-0.1726613"><ele>327.0</ele><time>2026-05-04T09:55:40.764Z</time></trkpt><trkpt lat="41.4964211" lon="-0.1724684"><ele>327.25</ele><time>2026-05-04T09:55:41.763Z</time></trkpt><trkpt lat="41.4964275" lon="-0.1722836"><ele>327.5</ele><time>2026-05-04T09:55:42.764Z</time></trkpt><trkpt lat="41.4964397" lon="-0.1720975"><ele>327.75</ele><time>2026-05-04T09:55:43.763Z</time></trkpt><trkpt lat="41.4964478" lon="-0.1719065"><ele>328.0</ele><time>2026-05-04T09:55:44.764Z</time></trkpt><trkpt lat="41.4964606" lon="-0.1717164"><ele>328.0</ele><time>2026-05-04T09:55:45.764Z</time></trkpt><trkpt lat="41.4964698" lon="-0.1715242"><ele>328.0</ele><time>2026-05-04T09:55:46.764Z</time></trkpt><trkpt lat="41.4964799" lon="-0.1713349"><ele>328.0</ele><time>2026-05-04T09:55:47.764Z</time></trkpt><trkpt lat="41.4964899" lon="-0.1711466"><ele>328.0</ele><time>2026-05-04T09:55:48.763Z</time></trkpt><trkpt lat="41.4964975" lon="-0.170957"><ele>327.75</ele><time>2026-05-04T09:55:49.764Z</time></trkpt><trkpt lat="41.4965077" lon="-0.1707592"><ele>327.5</ele><time>2026-05-04T09:55:50.763Z</time></trkpt><trkpt lat="41.4965193" lon="-0.1705689"><ele>327.25</ele><time>2026-05-04T09:55:51.763Z</time></trkpt><trkpt lat="41.4965308" lon="-0.1703792"><ele>327.0</ele><time>2026-05-04T09:55:52.764Z</time></trkpt><trkpt lat="41.4965423" lon="-0.1701827"><ele>326.75</ele><time>2026-05-04T09:55:53.764Z</time></trkpt><trkpt lat="41.49655" lon="-0.1699936"><ele>326.5</ele><time>2026-05-04T09:55:54.764Z</time></trkpt><trkpt lat="41.4965602" lon="-0.1698024"><ele>326.25</ele><time>2026-05-04T09:55:55.764Z</time></trkpt><trkpt lat="41.4965718" lon="-0.1696062"><ele>326.0</ele><time>2026-05-04T09:55:56.764Z</time></trkpt><trkpt lat="41.4965829" lon="-0.1694127"><ele>326.25</ele><time>2026-05-04T09:55:57.764Z</time></trkpt><trkpt lat="41.4965951" lon="-0.1692223"><ele>326.5</ele><time>2026-05-04T09:55:58.764Z</time></trkpt><trkpt lat="41.4966067" lon="-0.1690264"><ele>326.75</ele><time>2026-05-04T09:55:59.763Z</time></trkpt><trkpt lat="41.4966178" lon="-0.1688306"><ele>327.0</ele><time>2026-05-04T09:56:00.764Z</time></trkpt><trkpt lat="41.4966262" lon="-0.1686415"><ele>327.0</ele><time>2026-05-04T09:56:01.764Z</time></trkpt><trkpt lat="41.4966415" lon="-0.1684518"><ele>327.0</ele><time>2026-05-04T09:56:02.764Z</time></trkpt><trkpt lat="41.4966498" lon="-0.1682555"><ele>327.0</ele><time>2026-05-04T09:56:03.764Z</time></trkpt><trkpt lat="41.4966617" lon="-0.1680622"><ele>327.0</ele><time>2026-05-04T09:56:04.764Z</time></trkpt><trkpt lat="41.4966692" lon="-0.1678712"><ele>327.0</ele><time>2026-05-04T09:56:05.764Z</time></trkpt><trkpt lat="41.4966772" lon="-0.1676749"><ele>327.0</ele><time>2026-05-04T09:56:06.764Z</time></trkpt><trkpt lat="41.496687" lon="-0.1674827"><ele>327.0</ele><time>2026-05-04T09:56:07.764Z</time></trkpt><trkpt lat="41.4966961" lon="-0.167289"><ele>327.0</ele><time>2026-05-04T09:56:08.764Z</time></trkpt><trkpt lat="41.4967019" lon="-0.1671032"><ele>327.25</ele><time>2026-05-04T09:56:09.764Z</time></trkpt><trkpt lat="41.4967148" lon="-0.1669178"><ele>327.5</ele><time>2026-05-04T09:56:10.764Z</time></trkpt><trkpt lat="41.4967256" lon="-0.1667257"><ele>327.75</ele><time>2026-05-04T09:56:11.764Z</time></trkpt><trkpt lat="41.4967396" lon="-0.1665321"><ele>328.0</ele><time>2026-05-04T09:56:12.764Z</time></trkpt><trkpt lat="41.4967526" lon="-0.1663456"><ele>328.25</ele><time>2026-05-04T09:56:13.764Z</time></trkpt><trkpt lat="41.4967691" lon="-0.1661587"><ele>328.5</ele><time>2026-05-04T09:56:14.764Z</time></trkpt><trkpt lat="41.4967831" lon="-0.1659695"><ele>328.75</ele><time>2026-05-04T09:56:15.763Z</time></trkpt><trkpt lat="41.4967936" lon="-0.1657821"><ele>329.0</ele><time>2026-05-04T09:56:16.764Z</time></trkpt><trkpt lat="41.4968084" lon="-0.1655937"><ele>329.25</ele><time>2026-05-04T09:56:17.764Z</time></trkpt><trkpt lat="41.4968218" lon="-0.1654077"><ele>329.5</ele><time>2026-05-04T09:56:18.764Z</time></trkpt><trkpt lat="41.4968317" lon="-0.1652229"><ele>329.75</ele><time>2026-05-04T09:56:19.764Z</time></trkpt><trkpt lat="41.4968461" lon="-0.165034"><ele>330.0</ele><time>2026-05-04T09:56:20.763Z</time></trkpt><trkpt lat="41.4968588" lon="-0.164843"><ele>330.0</ele><time>2026-05-04T09:56:21.764Z</time></trkpt><trkpt lat="41.4968731" lon="-0.1646531"><ele>330.0</ele><time>2026-05-04T09:56:22.764Z</time></trkpt><trkpt lat="41.4968897" lon="-0.1644617"><ele>330.0</ele><time>2026-05-04T09:56:23.764Z</time></trkpt><trkpt lat="41.4969076" lon="-0.1642737"><ele>330.0</ele><time>2026-05-04T09:56:24.763Z</time></trkpt><trkpt lat="41.4969218" lon="-0.164083"><ele>330.0</ele><time>2026-05-04T09:56:25.764Z</time></trkpt><trkpt lat="41.4969362" lon="-0.163893"><ele>330.0</ele><time>2026-05-04T09:56:26.764Z</time></trkpt><trkpt lat="41.4969515" lon="-0.1637064"><ele>330.0</ele><time>2026-05-04T09:56:27.764Z</time></trkpt><trkpt lat="41.4969673" lon="-0.1635189"><ele>330.0</ele><time>2026-05-04T09:56:28.764Z</time></trkpt><trkpt lat="41.4969867" lon="-0.1633326"><ele>330.0</ele><time>2026-05-04T09:56:29.764Z</time></trkpt><trkpt lat="41.497005" lon="-0.1631491"><ele>330.0</ele><time>2026-05-04T09:56:30.764Z</time></trkpt><trkpt lat="41.4970242" lon="-0.1629593"><ele>330.0</ele><time>2026-05-04T09:56:31.764Z</time></trkpt><trkpt lat="41.4970431" lon="-0.1627694"><ele>330.0</ele><time>2026-05-04T09:56:32.764Z</time></trkpt><trkpt lat="41.4970628" lon="-0.1625834"><ele>330.0</ele><time>2026-05-04T09:56:33.764Z</time></trkpt><trkpt lat="41.4970751" lon="-0.1623924"><ele>330.0</ele><time>2026-05-04T09:56:34.764Z</time></trkpt><trkpt lat="41.4970872" lon="-0.1622013"><ele>330.0</ele><time>2026-05-04T09:56:35.764Z</time></trkpt><trkpt lat="41.4970997" lon="-0.1620106"><ele>330.0</ele><time>2026-05-04T09:56:36.764Z</time></trkpt><trkpt lat="41.4971152" lon="-0.1618215"><ele>329.75</ele><time>2026-05-04T09:56:37.764Z</time></trkpt><trkpt lat="41.497133" lon="-0.1616365"><ele>329.5</ele><time>2026-05-04T09:56:38.764Z</time></trkpt><trkpt lat="41.4971492" lon="-0.1614451"><ele>329.25</ele><time>2026-05-04T09:56:39.764Z</time></trkpt><trkpt lat="41.4971619" lon="-0.1612515"><ele>329.0</ele><time>2026-05-04T09:56:40.764Z</time></trkpt><trkpt lat="41.4971738" lon="-0.1610554"><ele>329.25</ele><time>2026-05-04T09:56:41.764Z</time></trkpt><trkpt lat="41.4971864" lon="-0.160857"><ele>329.5</ele><time>2026-05-04T09:56:42.764Z</time></trkpt><trkpt lat="41.4971987" lon="-0.1606612"><ele>329.75</ele><time>2026-05-04T09:56:43.763Z</time></trkpt><trkpt lat="41.4972134" lon="-0.1604753"><ele>330.0</ele><time>2026-05-04T09:56:44.763Z</time></trkpt><trkpt lat="41.4972292" lon="-0.1602846"><ele>330.0</ele><time>2026-05-04T09:56:45.764Z</time></trkpt><trkpt lat="41.49724" lon="-0.16009"><ele>330.0</ele><time>2026-05-04T09:56:46.764Z</time></trkpt><trkpt lat="41.4972555" lon="-0.1599016"><ele>330.0</ele><time>2026-05-04T09:56:47.764Z</time></trkpt><trkpt lat="41.4972747" lon="-0.159707"><ele>330.0</ele><time>2026-05-04T09:56:48.764Z</time></trkpt><trkpt lat="41.4972923" lon="-0.1595189"><ele>330.0</ele><time>2026-05-04T09:56:49.764Z</time></trkpt><trkpt lat="41.4973006" lon="-0.1593344"><ele>330.0</ele><time>2026-05-04T09:56:50.764Z</time></trkpt><trkpt lat="41.4973057" lon="-0.1591453"><ele>330.0</ele><time>2026-05-04T09:56:51.764Z</time></trkpt><trkpt lat="41.4973009" lon="-0.1589523"><ele>330.0</ele><time>2026-05-04T09:56:52.764Z</time></trkpt><trkpt lat="41.4972877" lon="-0.1587589"><ele>330.0</ele><time>2026-05-04T09:56:53.764Z</time></trkpt><trkpt lat="41.4972639" lon="-0.1585749"><ele>330.0</ele><time>2026-05-04T09:56:54.764Z</time></trkpt><trkpt lat="41.4972294" lon="-0.1583911"><ele>330.0</ele><time>2026-05-04T09:56:55.764Z</time></trkpt><trkpt lat="41.4971892" lon="-0.1582079"><ele>330.0</ele><time>2026-05-04T09:56:56.764Z</time></trkpt><trkpt lat="41.497135" lon="-0.1580244"><ele>330.25</ele><time>2026-05-04T09:56:57.763Z</time></trkpt><trkpt lat="41.4970831" lon="-0.157854"><ele>330.5</ele><time>2026-05-04T09:56:58.764Z</time></trkpt><trkpt lat="41.4970313" lon="-0.1576859"><ele>330.75</ele><time>2026-05-04T09:56:59.764Z</time></trkpt><trkpt lat="41.4969888" lon="-0.1575225"><ele>331.0</ele><time>2026-05-04T09:57:00.765Z</time></trkpt><trkpt lat="41.496943" lon="-0.1573656"><ele>330.5</ele><time>2026-05-04T09:57:01.765Z</time></trkpt><trkpt lat="41.4968961" lon="-0.1572104"><ele>330.0</ele><time>2026-05-04T09:57:02.764Z</time></trkpt><trkpt lat="41.4968529" lon="-0.157066"><ele>329.5</ele><time>2026-05-04T09:57:03.765Z</time></trkpt><trkpt lat="41.4968158" lon="-0.1569159"><ele>329.0</ele><time>2026-05-04T09:57:04.764Z</time></trkpt><trkpt lat="41.496788" lon="-0.1567666"><ele>329.0</ele><time>2026-05-04T09:57:05.765Z</time></trkpt><trkpt lat="41.4967525" lon="-0.1566082"><ele>329.0</ele><time>2026-05-04T09:57:06.765Z</time></trkpt><trkpt lat="41.4967067" lon="-0.156452"><ele>329.0</ele><time>2026-05-04T09:57:07.764Z</time></trkpt><trkpt lat="41.4966616" lon="-0.1562772"><ele>329.0</ele><time>2026-05-04T09:57:08.764Z</time></trkpt><trkpt lat="41.4966083" lon="-0.1561103"><ele>328.75</ele><time>2026-05-04T09:57:09.765Z</time></trkpt><trkpt lat="41.4965464" lon="-0.1559463"><ele>328.5</ele><time>2026-05-04T09:57:10.765Z</time></trkpt><trkpt lat="41.4964889" lon="-0.1557902"><ele>328.25</ele><time>2026-05-04T09:57:11.765Z</time></trkpt><trkpt lat="41.4964361" lon="-0.1556419"><ele>328.0</ele><time>2026-05-04T09:57:12.765Z</time></trkpt><trkpt lat="41.4963908" lon="-0.1555018"><ele>328.0</ele><time>2026-05-04T09:57:13.765Z</time></trkpt><trkpt lat="41.4963507" lon="-0.1553623"><ele>328.0</ele><time>2026-05-04T09:57:14.765Z</time></trkpt><trkpt lat="41.4963133" lon="-0.1552213"><ele>328.0</ele><time>2026-05-04T09:57:15.765Z</time></trkpt><trkpt lat="41.4962714" lon="-0.1550642"><ele>328.0</ele><time>2026-05-04T09:57:16.765Z</time></trkpt><trkpt lat="41.4962299" lon="-0.1549107"><ele>327.75</ele><time>2026-05-04T09:57:17.765Z</time></trkpt><trkpt lat="41.4961823" lon="-0.1547508"><ele>327.5</ele><time>2026-05-04T09:57:18.765Z</time></trkpt><trkpt lat="41.4961367" lon="-0.1545942"><ele>327.25</ele><time>2026-05-04T09:57:19.765Z</time></trkpt><trkpt lat="41.4960949" lon="-0.1544352"><ele>327.0</ele><time>2026-05-04T09:57:20.765Z</time></trkpt><trkpt lat="41.4960482" lon="-0.1542718"><ele>327.0</ele><time>2026-05-04T09:57:21.765Z</time></trkpt><trkpt lat="41.4960013" lon="-0.1541093"><ele>327.0</ele><time>2026-05-04T09:57:22.765Z</time></trkpt><trkpt lat="41.4959567" lon="-0.153943"><ele>327.0</ele><time>2026-05-04T09:57:23.764Z</time></trkpt><trkpt lat="41.4959122" lon="-0.1537683"><ele>327.0</ele><time>2026-05-04T09:57:24.765Z</time></trkpt><trkpt lat="41.4958695" lon="-0.1535995"><ele>327.25</ele><time>2026-05-04T09:57:25.765Z</time></trkpt><trkpt lat="41.4958286" lon="-0.1534347"><ele>327.5</ele><time>2026-05-04T09:57:26.764Z</time></trkpt><trkpt lat="41.4957861" lon="-0.1532603"><ele>327.75</ele><time>2026-05-04T09:57:27.765Z</time></trkpt><trkpt lat="41.4957445" lon="-0.1530884"><ele>328.0</ele><time>2026-05-04T09:57:28.765Z</time></trkpt><trkpt lat="41.4957157" lon="-0.1529064"><ele>328.0</ele><time>2026-05-04T09:57:29.764Z</time></trkpt><trkpt lat="41.4957036" lon="-0.152722"><ele>328.0</ele><time>2026-05-04T09:57:30.765Z</time></trkpt><trkpt lat="41.4957084" lon="-0.1525409"><ele>328.0</ele><time>2026-05-04T09:57:31.765Z</time></trkpt><trkpt lat="41.4957291" lon="-0.1523638"><ele>328.0</ele><time>2026-05-04T09:57:32.765Z</time></trkpt><trkpt lat="41.4957569" lon="-0.1521867"><ele>328.0</ele><time>2026-05-04T09:57:33.765Z</time></trkpt><trkpt lat="41.4958054" lon="-0.1520195"><ele>328.0</ele><time>2026-05-04T09:57:34.765Z</time></trkpt><trkpt lat="41.4958671" lon="-0.1518614"><ele>328.0</ele><time>2026-05-04T09:57:35.765Z</time></trkpt><trkpt lat="41.495942" lon="-0.1517114"><ele>328.0</ele><time>2026-05-04T09:57:36.765Z</time></trkpt><trkpt lat="41.4960308" lon="-0.1515765"><ele>328.0</ele><time>2026-05-04T09:57:37.764Z</time></trkpt><trkpt lat="41.4961241" lon="-0.1514457"><ele>328.0</ele><time>2026-05-04T09:57:38.765Z</time></trkpt><trkpt lat="41.4962184" lon="-0.1513175"><ele>328.0</ele><time>2026-05-04T09:57:39.765Z</time></trkpt><trkpt lat="41.496306" lon="-0.1511988"><ele>328.0</ele><time>2026-05-04T09:57:40.765Z</time></trkpt><trkpt lat="41.4963879" lon="-0.1510797"><ele>328.0</ele><time>2026-05-04T09:57:41.765Z</time></trkpt><trkpt lat="41.4964733" lon="-0.1509598"><ele>328.0</ele><time>2026-05-04T09:57:42.765Z</time></trkpt><trkpt lat="41.4965557" lon="-0.1508313"><ele>328.0</ele><time>2026-05-04T09:57:43.765Z</time></trkpt><trkpt lat="41.496629" lon="-0.1506941"><ele>328.0</ele><time>2026-05-04T09:57:44.765Z</time></trkpt><trkpt lat="41.4966928" lon="-0.1505435"><ele>327.75</ele><time>2026-05-04T09:57:45.765Z</time></trkpt><trkpt lat="41.4967484" lon="-0.1503856"><ele>327.5</ele><time>2026-05-04T09:57:46.765Z</time></trkpt><trkpt lat="41.4967967" lon="-0.1502316"><ele>327.25</ele><time>2026-05-04T09:57:47.765Z</time></trkpt><trkpt lat="41.4968387" lon="-0.1500781"><ele>327.0</ele><time>2026-05-04T09:57:48.764Z</time></trkpt><trkpt lat="41.4968827" lon="-0.1499163"><ele>327.25</ele><time>2026-05-04T09:57:49.764Z</time></trkpt><trkpt lat="41.4969251" lon="-0.1497571"><ele>327.5</ele><time>2026-05-04T09:57:50.764Z</time></trkpt><trkpt lat="41.4969671" lon="-0.1496054"><ele>327.75</ele><time>2026-05-04T09:57:51.765Z</time></trkpt><trkpt lat="41.4970092" lon="-0.1494519"><ele>328.0</ele><time>2026-05-04T09:57:52.765Z</time></trkpt><trkpt lat="41.4970478" lon="-0.1493011"><ele>328.25</ele><time>2026-05-04T09:57:53.765Z</time></trkpt><trkpt lat="41.4970906" lon="-0.1491509"><ele>328.5</ele><time>2026-05-04T09:57:54.765Z</time></trkpt><trkpt lat="41.4971322" lon="-0.1489981"><ele>328.75</ele><time>2026-05-04T09:57:55.765Z</time></trkpt><trkpt lat="41.4971784" lon="-0.1488442"><ele>329.0</ele><time>2026-05-04T09:57:56.765Z</time></trkpt><trkpt lat="41.4972268" lon="-0.1486852"><ele>328.5</ele><time>2026-05-04T09:57:57.765Z</time></trkpt><trkpt lat="41.4972783" lon="-0.1485218"><ele>328.0</ele><time>2026-05-04T09:57:58.765Z</time></trkpt><trkpt lat="41.4973283" lon="-0.1483677"><ele>327.5</ele><time>2026-05-04T09:57:59.765Z</time></trkpt><trkpt lat="41.4973684" lon="-0.1482216"><ele>327.0</ele><time>2026-05-04T09:58:00.765Z</time></trkpt><trkpt lat="41.4974081" lon="-0.1480822"><ele>326.8</ele><time>2026-05-04T09:58:01.764Z</time></trkpt><trkpt lat="41.4974496" lon="-0.1479352"><ele>326.6</ele><time>2026-05-04T09:58:02.764Z</time></trkpt><trkpt lat="41.4974864" lon="-0.1477927"><ele>326.40000000000003</ele><time>2026-05-04T09:58:03.765Z</time></trkpt><trkpt lat="41.4975234" lon="-0.1476569"><ele>326.20000000000005</ele><time>2026-05-04T09:58:04.765Z</time></trkpt><trkpt lat="41.4975625" lon="-0.1475205"><ele>326.0</ele><time>2026-05-04T09:58:05.765Z</time></trkpt><trkpt lat="41.497604" lon="-0.1473823"><ele>325.75</ele><time>2026-05-04T09:58:06.765Z</time></trkpt><trkpt lat="41.4976473" lon="-0.1472375"><ele>325.5</ele><time>2026-05-04T09:58:07.765Z</time></trkpt><trkpt lat="41.4976903" lon="-0.1470959"><ele>325.25</ele><time>2026-05-04T09:58:08.765Z</time></trkpt><trkpt lat="41.4977341" lon="-0.1469448"><ele>325.0</ele><time>2026-05-04T09:58:09.765Z</time></trkpt><trkpt lat="41.4977771" lon="-0.1468002"><ele>325.0</ele><time>2026-05-04T09:58:10.765Z</time></trkpt><trkpt lat="41.4978188" lon="-0.1466506"><ele>325.0</ele><time>2026-05-04T09:58:11.765Z</time></trkpt><trkpt lat="41.4978624" lon="-0.1464911"><ele>325.0</ele><time>2026-05-04T09:58:12.765Z</time></trkpt><trkpt lat="41.497901" lon="-0.146326"><ele>325.0</ele><time>2026-05-04T09:58:13.765Z</time></trkpt><trkpt lat="41.497933" lon="-0.1461516"><ele>325.0</ele><time>2026-05-04T09:58:14.765Z</time></trkpt><trkpt lat="41.4979493" lon="-0.1459747"><ele>325.0</ele><time>2026-05-04T09:58:15.765Z</time></trkpt><trkpt lat="41.4979642" lon="-0.1457937"><ele>325.0</ele><time>2026-05-04T09:58:16.764Z</time></trkpt><trkpt lat="41.4979751" lon="-0.1456051"><ele>325.0</ele><time>2026-05-04T09:58:17.765Z</time></trkpt><trkpt lat="41.4979835" lon="-0.1454181"><ele>325.25</ele><time>2026-05-04T09:58:18.765Z</time></trkpt><trkpt lat="41.4979881" lon="-0.1452327"><ele>325.5</ele><time>2026-05-04T09:58:19.764Z</time></trkpt><trkpt lat="41.497994" lon="-0.1450427"><ele>325.75</ele><time>2026-05-04T09:58:20.765Z</time></trkpt><trkpt lat="41.4980007" lon="-0.1448544"><ele>326.0</ele><time>2026-05-04T09:58:21.765Z</time></trkpt><trkpt lat="41.4980062" lon="-0.1446665"><ele>326.0</ele><time>2026-05-04T09:58:22.764Z</time></trkpt><trkpt lat="41.4980103" lon="-0.1444812"><ele>326.0</ele><time>2026-05-04T09:58:23.765Z</time></trkpt><trkpt lat="41.4980216" lon="-0.1442938"><ele>326.0</ele><time>2026-05-04T09:58:24.764Z</time></trkpt><trkpt lat="41.4980328" lon="-0.1441116"><ele>326.0</ele><time>2026-05-04T09:58:25.765Z</time></trkpt><trkpt lat="41.4980399" lon="-0.1439246"><ele>326.0</ele><time>2026-05-04T09:58:26.765Z</time></trkpt><trkpt lat="41.4980511" lon="-0.1437486"><ele>326.0</ele><time>2026-05-04T09:58:27.765Z</time></trkpt><trkpt lat="41.4980608" lon="-0.1435604"><ele>326.0</ele><time>2026-05-04T09:58:28.765Z</time></trkpt><trkpt lat="41.4980681" lon="-0.1433765"><ele>326.0</ele><time>2026-05-04T09:58:29.765Z</time></trkpt><trkpt lat="41.4980706" lon="-0.1431951"><ele>325.75</ele><time>2026-05-04T09:58:30.764Z</time></trkpt><trkpt lat="41.4980773" lon="-0.143011"><ele>325.5</ele><time>2026-05-04T09:58:31.765Z</time></trkpt><trkpt lat="41.4980826" lon="-0.1428225"><ele>325.25</ele><time>2026-05-04T09:58:32.765Z</time></trkpt><trkpt lat="41.4980871" lon="-0.142641"><ele>325.0</ele><time>2026-05-04T09:58:33.765Z</time></trkpt><trkpt lat="41.4980935" lon="-0.1424586"><ele>325.0</ele><time>2026-05-04T09:58:34.765Z</time></trkpt><trkpt lat="41.498101" lon="-0.142273"><ele>325.0</ele><time>2026-05-04T09:58:35.765Z</time></trkpt><trkpt lat="41.4981072" lon="-0.1420853"><ele>325.0</ele><time>2026-05-04T09:58:36.765Z</time></trkpt><trkpt lat="41.4981096" lon="-0.1419012"><ele>325.0</ele><time>2026-05-04T09:58:37.765Z</time></trkpt><trkpt lat="41.4981138" lon="-0.1417211"><ele>325.0</ele><time>2026-05-04T09:58:38.764Z</time></trkpt><trkpt lat="41.4981168" lon="-0.1415346"><ele>325.0</ele><time>2026-05-04T09:58:39.764Z</time></trkpt><trkpt lat="41.498124" lon="-0.1413533"><ele>325.0</ele><time>2026-05-04T09:58:40.764Z</time></trkpt><trkpt lat="41.4981295" lon="-0.1411707"><ele>325.0</ele><time>2026-05-04T09:58:41.765Z</time></trkpt><trkpt lat="41.4981301" lon="-0.1409871"><ele>325.0</ele><time>2026-05-04T09:58:42.765Z</time></trkpt><trkpt lat="41.498138" lon="-0.1408047"><ele>325.0</ele><time>2026-05-04T09:58:43.765Z</time></trkpt><trkpt lat="41.4981413" lon="-0.140622"><ele>325.0</ele><time>2026-05-04T09:58:44.765Z</time></trkpt><trkpt lat="41.4981499" lon="-0.1404353"><ele>325.0</ele><time>2026-05-04T09:58:45.765Z</time></trkpt><trkpt lat="41.4981556" lon="-0.1402487"><ele>325.25</ele><time>2026-05-04T09:58:46.765Z</time></trkpt><trkpt lat="41.4981576" lon="-0.1400623"><ele>325.5</ele><time>2026-05-04T09:58:47.765Z</time></trkpt><trkpt lat="41.4981615" lon="-0.1398775"><ele>325.75</ele><time>2026-05-04T09:58:48.765Z</time></trkpt><trkpt lat="41.4981721" lon="-0.139693"><ele>326.0</ele><time>2026-05-04T09:58:49.765Z</time></trkpt><trkpt lat="41.4981787" lon="-0.1395043"><ele>325.5</ele><time>2026-05-04T09:58:50.765Z</time></trkpt><trkpt lat="41.4981789" lon="-0.1393159"><ele>325.0</ele><time>2026-05-04T09:58:51.765Z</time></trkpt><trkpt lat="41.4981844" lon="-0.1391181"><ele>324.5</ele><time>2026-05-04T09:58:52.765Z</time></trkpt><trkpt lat="41.4981882" lon="-0.138929"><ele>324.0</ele><time>2026-05-04T09:58:53.765Z</time></trkpt><trkpt lat="41.4981958" lon="-0.1387434"><ele>324.0</ele><time>2026-05-04T09:58:54.764Z</time></trkpt><trkpt lat="41.4982031" lon="-0.1385522"><ele>324.0</ele><time>2026-05-04T09:58:55.765Z</time></trkpt><trkpt lat="41.4982035" lon="-0.1383607"><ele>324.0</ele><time>2026-05-04T09:58:56.765Z</time></trkpt><trkpt lat="41.4982088" lon="-0.1381708"><ele>324.0</ele><time>2026-05-04T09:58:57.765Z</time></trkpt><trkpt lat="41.4982122" lon="-0.1379861"><ele>324.0</ele><time>2026-05-04T09:58:58.765Z</time></trkpt><trkpt lat="41.4982202" lon="-0.1377941"><ele>324.0</ele><time>2026-05-04T09:58:59.764Z</time></trkpt><trkpt lat="41.4982256" lon="-0.1376079"><ele>324.0</ele><time>2026-05-04T09:59:00.765Z</time></trkpt><trkpt lat="41.4982313" lon="-0.1374199"><ele>324.0</ele><time>2026-05-04T09:59:01.765Z</time></trkpt><trkpt lat="41.4982368" lon="-0.1372336"><ele>324.0</ele><time>2026-05-04T09:59:02.766Z</time></trkpt><trkpt lat="41.4982429" lon="-0.1370507"><ele>324.0</ele><time>2026-05-04T09:59:03.766Z</time></trkpt><trkpt lat="41.4982499" lon="-0.1368648"><ele>324.0</ele><time>2026-05-04T09:59:04.766Z</time></trkpt><trkpt lat="41.498261" lon="-0.1366829"><ele>324.0</ele><time>2026-05-04T09:59:05.766Z</time></trkpt><trkpt lat="41.498265" lon="-0.1364981"><ele>323.75</ele><time>2026-05-04T09:59:06.766Z</time></trkpt><trkpt lat="41.4982717" lon="-0.1363141"><ele>323.5</ele><time>2026-05-04T09:59:07.766Z</time></trkpt><trkpt lat="41.4982751" lon="-0.1361268"><ele>323.25</ele><time>2026-05-04T09:59:08.766Z</time></trkpt><trkpt lat="41.49828" lon="-0.135937"><ele>323.0</ele><time>2026-05-04T09:59:09.766Z</time></trkpt><trkpt lat="41.4982811" lon="-0.1357494"><ele>323.0</ele><time>2026-05-04T09:59:10.766Z</time></trkpt><trkpt lat="41.4982862" lon="-0.1355596"><ele>323.0</ele><time>2026-05-04T09:59:11.766Z</time></trkpt><trkpt lat="41.4982871" lon="-0.135369"><ele>323.0</ele><time>2026-05-04T09:59:12.766Z</time></trkpt><trkpt lat="41.4982835" lon="-0.1351827"><ele>323.0</ele><time>2026-05-04T09:59:13.766Z</time></trkpt><trkpt lat="41.4982685" lon="-0.1349918"><ele>323.0</ele><time>2026-05-04T09:59:14.765Z</time></trkpt><trkpt lat="41.4982427" lon="-0.1348116"><ele>323.0</ele><time>2026-05-04T09:59:15.765Z</time></trkpt><trkpt lat="41.498204" lon="-0.1346231"><ele>323.0</ele><time>2026-05-04T09:59:16.766Z</time></trkpt><trkpt lat="41.4981672" lon="-0.1344401"><ele>323.0</ele><time>2026-05-04T09:59:17.766Z</time></trkpt><trkpt lat="41.4981259" lon="-0.1342536"><ele>323.0</ele><time>2026-05-04T09:59:18.766Z</time></trkpt><trkpt lat="41.4980794" lon="-0.1340759"><ele>323.0</ele><time>2026-05-04T09:59:19.766Z</time></trkpt><trkpt lat="41.4980296" lon="-0.1338995"><ele>323.0</ele><time>2026-05-04T09:59:20.766Z</time></trkpt><trkpt lat="41.4979852" lon="-0.1337235"><ele>323.0</ele><time>2026-05-04T09:59:21.766Z</time></trkpt><trkpt lat="41.4979387" lon="-0.1335547"><ele>323.0</ele><time>2026-05-04T09:59:22.766Z</time></trkpt><trkpt lat="41.4978911" lon="-0.1333837"><ele>323.0</ele><time>2026-05-04T09:59:23.766Z</time></trkpt><trkpt lat="41.4978443" lon="-0.1332148"><ele>323.0</ele><time>2026-05-04T09:59:24.766Z</time></trkpt><trkpt lat="41.4977979" lon="-0.1330442"><ele>323.0</ele><time>2026-05-04T09:59:25.765Z</time></trkpt><trkpt lat="41.4977508" lon="-0.1328741"><ele>323.0</ele><time>2026-05-04T09:59:26.766Z</time></trkpt><trkpt lat="41.4977073" lon="-0.1327015"><ele>323.0</ele><time>2026-05-04T09:59:27.766Z</time></trkpt><trkpt lat="41.4976638" lon="-0.132531"><ele>323.0</ele><time>2026-05-04T09:59:28.766Z</time></trkpt><trkpt lat="41.4976208" lon="-0.132362"><ele>323.0</ele><time>2026-05-04T09:59:29.766Z</time></trkpt><trkpt lat="41.4975732" lon="-0.1321933"><ele>323.5</ele><time>2026-05-04T09:59:30.766Z</time></trkpt><trkpt lat="41.4975287" lon="-0.1320197"><ele>324.0</ele><time>2026-05-04T09:59:31.766Z</time></trkpt><trkpt lat="41.4974814" lon="-0.131852"><ele>324.5</ele><time>2026-05-04T09:59:32.766Z</time></trkpt><trkpt lat="41.4974321" lon="-0.1316781"><ele>325.0</ele><time>2026-05-04T09:59:33.766Z</time></trkpt><trkpt lat="41.4973853" lon="-0.1315077"><ele>325.0</ele><time>2026-05-04T09:59:34.765Z</time></trkpt><trkpt lat="41.4973387" lon="-0.1313327"><ele>325.0</ele><time>2026-05-04T09:59:35.765Z</time></trkpt><trkpt lat="41.497295" lon="-0.1311603"><ele>325.0</ele><time>2026-05-04T09:59:36.765Z</time></trkpt><trkpt lat="41.4972442" lon="-0.1309874"><ele>325.0</ele><time>2026-05-04T09:59:37.766Z</time></trkpt><trkpt lat="41.4971969" lon="-0.130814"><ele>325.0</ele><time>2026-05-04T09:59:38.766Z</time></trkpt><trkpt lat="41.4971499" lon="-0.130641"><ele>325.0</ele><time>2026-05-04T09:59:39.766Z</time></trkpt><trkpt lat="41.4970989" lon="-0.1304678"><ele>325.0</ele><time>2026-05-04T09:59:40.766Z</time></trkpt><trkpt lat="41.4970479" lon="-0.130292"><ele>325.0</ele><time>2026-05-04T09:59:41.766Z</time></trkpt><trkpt lat="41.497002" lon="-0.130121"><ele>325.0</ele><time>2026-05-04T09:59:42.766Z</time></trkpt><trkpt lat="41.4969541" lon="-0.1299438"><ele>325.0</ele><time>2026-05-04T09:59:43.766Z</time></trkpt><trkpt lat="41.4969069" lon="-0.1297656"><ele>325.0</ele><time>2026-05-04T09:59:44.766Z</time></trkpt><trkpt lat="41.4968627" lon="-0.1295903"><ele>325.0</ele><time>2026-05-04T09:59:45.766Z</time></trkpt><trkpt lat="41.4968132" lon="-0.1294196"><ele>325.0</ele><time>2026-05-04T09:59:46.765Z</time></trkpt><trkpt lat="41.4967668" lon="-0.1292464"><ele>325.0</ele><time>2026-05-04T09:59:47.766Z</time></trkpt><trkpt lat="41.4967227" lon="-0.1290777"><ele>325.0</ele><time>2026-05-04T09:59:48.766Z</time></trkpt><trkpt lat="41.496677" lon="-0.1289041"><ele>325.0</ele><time>2026-05-04T09:59:49.766Z</time></trkpt><trkpt lat="41.4966328" lon="-0.1287275"><ele>325.0</ele><time>2026-05-04T09:59:50.766Z</time></trkpt><trkpt lat="41.4965859" lon="-0.1285476"><ele>325.0</ele><time>2026-05-04T09:59:51.766Z</time></trkpt><trkpt lat="41.4965412" lon="-0.1283758"><ele>325.0</ele><time>2026-05-04T09:59:52.766Z</time></trkpt><trkpt lat="41.4964942" lon="-0.1282054"><ele>325.0</ele><time>2026-05-04T09:59:53.766Z</time></trkpt><trkpt lat="41.4964466" lon="-0.128035"><ele>325.25</ele><time>2026-05-04T09:59:54.766Z</time></trkpt><trkpt lat="41.4964003" lon="-0.1278662"><ele>325.5</ele><time>2026-05-04T09:59:55.765Z</time></trkpt><trkpt lat="41.496355" lon="-0.1276881"><ele>325.75</ele><time>2026-05-04T09:59:56.766Z</time></trkpt><trkpt lat="41.4963051" lon="-0.1275141"><ele>326.0</ele><time>2026-05-04T09:59:57.766Z</time></trkpt><trkpt lat="41.4962579" lon="-0.1273392"><ele>326.0</ele><time>2026-05-04T09:59:58.766Z</time></trkpt><trkpt lat="41.4962137" lon="-0.1271684"><ele>326.0</ele><time>2026-05-04T09:59:59.766Z</time></trkpt><trkpt lat="41.496164" lon="-0.126996"><ele>326.0</ele><time>2026-05-04T10:00:00.766Z</time></trkpt><trkpt lat="41.4961183" lon="-0.1268192"><ele>326.0</ele><time>2026-05-04T10:00:01.766Z</time></trkpt><trkpt lat="41.4960743" lon="-0.1266422"><ele>325.75</ele><time>2026-05-04T10:00:02.766Z</time></trkpt><trkpt lat="41.4960329" lon="-0.1264672"><ele>325.5</ele><time>2026-05-04T10:00:03.766Z</time></trkpt><trkpt lat="41.4959956" lon="-0.1262879"><ele>325.25</ele><time>2026-05-04T10:00:04.766Z</time></trkpt><trkpt lat="41.4959586" lon="-0.1261077"><ele>325.0</ele><time>2026-05-04T10:00:05.766Z</time></trkpt><trkpt lat="41.4959268" lon="-0.1259259"><ele>325.0</ele><time>2026-05-04T10:00:06.766Z</time></trkpt><trkpt lat="41.4958936" lon="-0.1257444"><ele>325.0</ele><time>2026-05-04T10:00:07.766Z</time></trkpt><trkpt lat="41.4958603" lon="-0.1255684"><ele>325.0</ele><time>2026-05-04T10:00:08.766Z</time></trkpt><trkpt lat="41.4958305" lon="-0.125381"><ele>325.0</ele><time>2026-05-04T10:00:09.766Z</time></trkpt><trkpt lat="41.4958064" lon="-0.1251931"><ele>325.0</ele><time>2026-05-04T10:00:10.766Z</time></trkpt><trkpt lat="41.4957824" lon="-0.1250101"><ele>325.0</ele><time>2026-05-04T10:00:11.765Z</time></trkpt><trkpt lat="41.4957537" lon="-0.1248293"><ele>325.0</ele><time>2026-05-04T10:00:12.766Z</time></trkpt><trkpt lat="41.4957295" lon="-0.1246471"><ele>325.0</ele><time>2026-05-04T10:00:13.766Z</time></trkpt><trkpt lat="41.4957059" lon="-0.1244647"><ele>325.0</ele><time>2026-05-04T10:00:14.766Z</time></trkpt><trkpt lat="41.4956808" lon="-0.1242789"><ele>325.0</ele><time>2026-05-04T10:00:15.766Z</time></trkpt><trkpt lat="41.4956542" lon="-0.1240946"><ele>325.0</ele><time>2026-05-04T10:00:16.766Z</time></trkpt><trkpt lat="41.4956356" lon="-0.1239129"><ele>325.0</ele><time>2026-05-04T10:00:17.766Z</time></trkpt><trkpt lat="41.4956151" lon="-0.1237301"><ele>324.75</ele><time>2026-05-04T10:00:18.766Z</time></trkpt><trkpt lat="41.4955929" lon="-0.1235493"><ele>324.5</ele><time>2026-05-04T10:00:19.766Z</time></trkpt><trkpt lat="41.4955682" lon="-0.1233635"><ele>324.25</ele><time>2026-05-04T10:00:20.766Z</time></trkpt><trkpt lat="41.4955427" lon="-0.123181"><ele>324.0</ele><time>2026-05-04T10:00:21.766Z</time></trkpt><trkpt lat="41.4955151" lon="-0.1229991"><ele>324.75</ele><time>2026-05-04T10:00:22.766Z</time></trkpt><trkpt lat="41.4954904" lon="-0.1228161"><ele>325.5</ele><time>2026-05-04T10:00:23.765Z</time></trkpt><trkpt lat="41.4954614" lon="-0.1226339"><ele>326.25</ele><time>2026-05-04T10:00:24.766Z</time></trkpt><trkpt lat="41.495435" lon="-0.122454"><ele>327.0</ele><time>2026-05-04T10:00:25.766Z</time></trkpt><trkpt lat="41.4954118" lon="-0.1222684"><ele>327.0</ele><time>2026-05-04T10:00:26.766Z</time></trkpt><trkpt lat="41.4953848" lon="-0.1220831"><ele>327.0</ele><time>2026-05-04T10:00:27.766Z</time></trkpt><trkpt lat="41.4953588" lon="-0.1219007"><ele>327.0</ele><time>2026-05-04T10:00:28.765Z</time></trkpt><trkpt lat="41.4953295" lon="-0.1217098"><ele>327.0</ele><time>2026-05-04T10:00:29.766Z</time></trkpt><trkpt lat="41.4953045" lon="-0.1215302"><ele>327.0</ele><time>2026-05-04T10:00:30.766Z</time></trkpt><trkpt lat="41.495276" lon="-0.1213446"><ele>327.0</ele><time>2026-05-04T10:00:31.766Z</time></trkpt><trkpt lat="41.4952501" lon="-0.1211579"><ele>327.0</ele><time>2026-05-04T10:00:32.766Z</time></trkpt><trkpt lat="41.4952158" lon="-0.1209732"><ele>327.0</ele><time>2026-05-04T10:00:33.766Z</time></trkpt><trkpt lat="41.495176" lon="-0.1207842"><ele>326.5</ele><time>2026-05-04T10:00:34.766Z</time></trkpt><trkpt lat="41.4951334" lon="-0.1206023"><ele>326.0</ele><time>2026-05-04T10:00:35.766Z</time></trkpt><trkpt lat="41.4950829" lon="-0.1204136"><ele>325.5</ele><time>2026-05-04T10:00:36.766Z</time></trkpt><trkpt lat="41.4950337" lon="-0.1202304"><ele>325.0</ele><time>2026-05-04T10:00:37.766Z</time></trkpt><trkpt lat="41.4949795" lon="-0.1200503"><ele>324.25</ele><time>2026-05-04T10:00:38.766Z</time></trkpt><trkpt lat="41.4949279" lon="-0.1198693"><ele>323.5</ele><time>2026-05-04T10:00:39.766Z</time></trkpt><trkpt lat="41.4948745" lon="-0.1196817"><ele>322.75</ele><time>2026-05-04T10:00:40.766Z</time></trkpt><trkpt lat="41.494821" lon="-0.1194952"><ele>322.0</ele><time>2026-05-04T10:00:41.765Z</time></trkpt><trkpt lat="41.4947689" lon="-0.1193116"><ele>322.0</ele><time>2026-05-04T10:00:42.765Z</time></trkpt><trkpt lat="41.4947216" lon="-0.1191281"><ele>322.0</ele><time>2026-05-04T10:00:43.766Z</time></trkpt><trkpt lat="41.4946709" lon="-0.1189428"><ele>322.0</ele><time>2026-05-04T10:00:44.766Z</time></trkpt><trkpt lat="41.494619" lon="-0.1187597"><ele>322.0</ele><time>2026-05-04T10:00:45.765Z</time></trkpt><trkpt lat="41.494565" lon="-0.1185801"><ele>321.5</ele><time>2026-05-04T10:00:46.766Z</time></trkpt><trkpt lat="41.4945171" lon="-0.1183974"><ele>321.0</ele><time>2026-05-04T10:00:47.766Z</time></trkpt><trkpt lat="41.4944645" lon="-0.1182112"><ele>320.5</ele><time>2026-05-04T10:00:48.766Z</time></trkpt><trkpt lat="41.4944108" lon="-0.1180257"><ele>320.0</ele><time>2026-05-04T10:00:49.766Z</time></trkpt><trkpt lat="41.4943596" lon="-0.1178416"><ele>319.5</ele><time>2026-05-04T10:00:50.766Z</time></trkpt><trkpt lat="41.4943052" lon="-0.1176598"><ele>319.0</ele><time>2026-05-04T10:00:51.766Z</time></trkpt><trkpt lat="41.4942511" lon="-0.1174767"><ele>318.5</ele><time>2026-05-04T10:00:52.765Z</time></trkpt><trkpt lat="41.4942007" lon="-0.1172919"><ele>318.0</ele><time>2026-05-04T10:00:53.766Z</time></trkpt><trkpt lat="41.4941523" lon="-0.1171063"><ele>317.25</ele><time>2026-05-04T10:00:54.766Z</time></trkpt><trkpt lat="41.4941042" lon="-0.1169243"><ele>316.5</ele><time>2026-05-04T10:00:55.766Z</time></trkpt><trkpt lat="41.494053" lon="-0.1167435"><ele>315.75</ele><time>2026-05-04T10:00:56.766Z</time></trkpt><trkpt lat="41.4940027" lon="-0.1165633"><ele>315.0</ele><time>2026-05-04T10:00:57.766Z</time></trkpt><trkpt lat="41.4939532" lon="-0.1163805"><ele>315.0</ele><time>2026-05-04T10:00:58.766Z</time></trkpt><trkpt lat="41.4939005" lon="-0.1161978"><ele>315.0</ele><time>2026-05-04T10:00:59.766Z</time></trkpt><trkpt lat="41.4938479" lon="-0.1160114"><ele>315.0</ele><time>2026-05-04T10:01:00.766Z</time></trkpt><trkpt lat="41.4937957" lon="-0.1158273"><ele>315.0</ele><time>2026-05-04T10:01:01.767Z</time></trkpt><trkpt lat="41.4937429" lon="-0.1156522"><ele>315.0</ele><time>2026-05-04T10:01:02.767Z</time></trkpt><trkpt lat="41.4936943" lon="-0.1154778"><ele>315.0</ele><time>2026-05-04T10:01:03.767Z</time></trkpt><trkpt lat="41.4936417" lon="-0.1153018"><ele>315.0</ele><time>2026-05-04T10:01:04.767Z</time></trkpt><trkpt lat="41.4935933" lon="-0.115127"><ele>315.0</ele><time>2026-05-04T10:01:05.767Z</time></trkpt><trkpt lat="41.4935413" lon="-0.1149513"><ele>315.0</ele><time>2026-05-04T10:01:06.766Z</time></trkpt><trkpt lat="41.493494" lon="-0.1147799"><ele>315.0</ele><time>2026-05-04T10:01:07.767Z</time></trkpt><trkpt lat="41.4934451" lon="-0.1146084"><ele>315.0</ele><time>2026-05-04T10:01:08.767Z</time></trkpt><trkpt lat="41.4933984" lon="-0.1144407"><ele>315.0</ele><time>2026-05-04T10:01:09.767Z</time></trkpt><trkpt lat="41.4933562" lon="-0.1142748"><ele>315.0</ele><time>2026-05-04T10:01:10.767Z</time></trkpt><trkpt lat="41.4933185" lon="-0.1141119"><ele>315.0</ele><time>2026-05-04T10:01:11.767Z</time></trkpt><trkpt lat="41.4932904" lon="-0.1139381"><ele>315.0</ele><time>2026-05-04T10:01:12.767Z</time></trkpt><trkpt lat="41.4932668" lon="-0.1137793"><ele>315.0</ele><time>2026-05-04T10:01:13.767Z</time></trkpt><trkpt lat="41.4932514" lon="-0.1136169"><ele>315.75</ele><time>2026-05-04T10:01:14.767Z</time></trkpt><trkpt lat="41.4932392" lon="-0.1134573"><ele>316.5</ele><time>2026-05-04T10:01:15.766Z</time></trkpt><trkpt lat="41.4932255" lon="-0.1133006"><ele>317.25</ele><time>2026-05-04T10:01:16.767Z</time></trkpt><trkpt lat="41.4932227" lon="-0.1131449"><ele>318.0</ele><time>2026-05-04T10:01:17.767Z</time></trkpt><trkpt lat="41.4932214" lon="-0.1129948"><ele>318.75</ele><time>2026-05-04T10:01:18.766Z</time></trkpt><trkpt lat="41.4932183" lon="-0.1128427"><ele>319.5</ele><time>2026-05-04T10:01:19.767Z</time></trkpt><trkpt lat="41.4932171" lon="-0.1126848"><ele>320.25</ele><time>2026-05-04T10:01:20.767Z</time></trkpt><trkpt lat="41.4932156" lon="-0.1125307"><ele>321.0</ele><time>2026-05-04T10:01:21.767Z</time></trkpt><trkpt lat="41.4932169" lon="-0.1123794"><ele>322.0</ele><time>2026-05-04T10:01:22.766Z</time></trkpt><trkpt lat="41.4932192" lon="-0.1122225"><ele>323.0</ele><time>2026-05-04T10:01:23.767Z</time></trkpt><trkpt lat="41.4932236" lon="-0.1120722"><ele>324.0</ele><time>2026-05-04T10:01:24.767Z</time></trkpt><trkpt lat="41.49322" lon="-0.1119183"><ele>325.0</ele><time>2026-05-04T10:01:25.766Z</time></trkpt><trkpt lat="41.49322" lon="-0.1117626"><ele>325.0</ele><time>2026-05-04T10:01:26.767Z</time></trkpt><trkpt lat="41.4932213" lon="-0.111606"><ele>325.0</ele><time>2026-05-04T10:01:27.767Z</time></trkpt><trkpt lat="41.4932233" lon="-0.1114493"><ele>325.0</ele><time>2026-05-04T10:01:28.766Z</time></trkpt><trkpt lat="41.4932269" lon="-0.1112882"><ele>325.0</ele><time>2026-05-04T10:01:29.766Z</time></trkpt><trkpt lat="41.4932313" lon="-0.1111285"><ele>325.0</ele><time>2026-05-04T10:01:30.766Z</time></trkpt><trkpt lat="41.4932321" lon="-0.1109647"><ele>325.0</ele><time>2026-05-04T10:01:31.767Z</time></trkpt><trkpt lat="41.4932371" lon="-0.1108046"><ele>325.0</ele><time>2026-05-04T10:01:32.767Z</time></trkpt><trkpt lat="41.4932412" lon="-0.1106409"><ele>325.0</ele><time>2026-05-04T10:01:33.767Z</time></trkpt><trkpt lat="41.493247" lon="-0.1104734"><ele>325.25</ele><time>2026-05-04T10:01:34.767Z</time></trkpt><trkpt lat="41.4932519" lon="-0.1103058"><ele>325.5</ele><time>2026-05-04T10:01:35.766Z</time></trkpt><trkpt lat="41.4932534" lon="-0.110129"><ele>325.75</ele><time>2026-05-04T10:01:36.767Z</time></trkpt><trkpt lat="41.4932606" lon="-0.1099554"><ele>326.0</ele><time>2026-05-04T10:01:37.767Z</time></trkpt><trkpt lat="41.4932661" lon="-0.1097873"><ele>326.25</ele><time>2026-05-04T10:01:38.766Z</time></trkpt><trkpt lat="41.4932728" lon="-0.1096132"><ele>326.5</ele><time>2026-05-04T10:01:39.767Z</time></trkpt><trkpt lat="41.4932783" lon="-0.1094418"><ele>326.75</ele><time>2026-05-04T10:01:40.767Z</time></trkpt><trkpt lat="41.4932839" lon="-0.1092647"><ele>327.0</ele><time>2026-05-04T10:01:41.767Z</time></trkpt><trkpt lat="41.4932875" lon="-0.1090921"><ele>327.25</ele><time>2026-05-04T10:01:42.767Z</time></trkpt><trkpt lat="41.4932918" lon="-0.1089177"><ele>327.5</ele><time>2026-05-04T10:01:43.766Z</time></trkpt><trkpt lat="41.493298" lon="-0.1087421"><ele>327.75</ele><time>2026-05-04T10:01:44.767Z</time></trkpt><trkpt lat="41.4932988" lon="-0.108571"><ele>328.0</ele><time>2026-05-04T10:01:45.766Z</time></trkpt><trkpt lat="41.4932976" lon="-0.1083953"><ele>327.75</ele><time>2026-05-04T10:01:46.767Z</time></trkpt><trkpt lat="41.4932932" lon="-0.1082159"><ele>327.5</ele><time>2026-05-04T10:01:47.767Z</time></trkpt><trkpt lat="41.4932928" lon="-0.1080334"><ele>327.25</ele><time>2026-05-04T10:01:48.766Z</time></trkpt><trkpt lat="41.4932909" lon="-0.107852"><ele>327.0</ele><time>2026-05-04T10:01:49.767Z</time></trkpt><trkpt lat="41.4932816" lon="-0.1076715"><ele>327.0</ele><time>2026-05-04T10:01:50.766Z</time></trkpt><trkpt lat="41.4932731" lon="-0.107487"><ele>327.0</ele><time>2026-05-04T10:01:51.766Z</time></trkpt><trkpt lat="41.493256" lon="-0.1073078"><ele>327.0</ele><time>2026-05-04T10:01:52.766Z</time></trkpt><trkpt lat="41.4932358" lon="-0.1071243"><ele>327.0</ele><time>2026-05-04T10:01:53.767Z</time></trkpt><trkpt lat="41.4932145" lon="-0.1069434"><ele>327.0</ele><time>2026-05-04T10:01:54.767Z</time></trkpt><trkpt lat="41.4931943" lon="-0.1067668"><ele>327.0</ele><time>2026-05-04T10:01:55.767Z</time></trkpt><trkpt lat="41.4931729" lon="-0.1065798"><ele>327.0</ele><time>2026-05-04T10:01:56.767Z</time></trkpt><trkpt lat="41.4931571" lon="-0.1063996"><ele>327.0</ele><time>2026-05-04T10:01:57.767Z</time></trkpt><trkpt lat="41.4931358" lon="-0.1062121"><ele>327.0</ele><time>2026-05-04T10:01:58.767Z</time></trkpt><trkpt lat="41.4931137" lon="-0.1060305"><ele>327.0</ele><time>2026-05-04T10:01:59.767Z</time></trkpt><trkpt lat="41.4930984" lon="-0.1058516"><ele>327.0</ele><time>2026-05-04T10:02:00.767Z</time></trkpt><trkpt lat="41.4930816" lon="-0.1056691"><ele>327.0</ele><time>2026-05-04T10:02:01.767Z</time></trkpt><trkpt lat="41.4930614" lon="-0.1054829"><ele>327.0</ele><time>2026-05-04T10:02:02.766Z</time></trkpt><trkpt lat="41.4930438" lon="-0.105292"><ele>327.0</ele><time>2026-05-04T10:02:03.767Z</time></trkpt><trkpt lat="41.4930216" lon="-0.1051098"><ele>327.0</ele><time>2026-05-04T10:02:04.766Z</time></trkpt><trkpt lat="41.4930041" lon="-0.1049237"><ele>327.0</ele><time>2026-05-04T10:02:05.766Z</time></trkpt><trkpt lat="41.4929796" lon="-0.1047392"><ele>327.0</ele><time>2026-05-04T10:02:06.767Z</time></trkpt><trkpt lat="41.4929604" lon="-0.1045554"><ele>327.0</ele><time>2026-05-04T10:02:07.767Z</time></trkpt><trkpt lat="41.4929369" lon="-0.1043765"><ele>327.0</ele><time>2026-05-04T10:02:08.767Z</time></trkpt><trkpt lat="41.4929178" lon="-0.1041928"><ele>327.0</ele><time>2026-05-04T10:02:09.766Z</time></trkpt><trkpt lat="41.4928988" lon="-0.1040036"><ele>327.0</ele><time>2026-05-04T10:02:10.767Z</time></trkpt><trkpt lat="41.4928805" lon="-0.1038207"><ele>327.0</ele><time>2026-05-04T10:02:11.767Z</time></trkpt><trkpt lat="41.4928605" lon="-0.1036392"><ele>327.0</ele><time>2026-05-04T10:02:12.767Z</time></trkpt><trkpt lat="41.4928443" lon="-0.1034508"><ele>327.0</ele><time>2026-05-04T10:02:13.767Z</time></trkpt><trkpt lat="41.4928248" lon="-0.1032683"><ele>326.75</ele><time>2026-05-04T10:02:14.767Z</time></trkpt><trkpt lat="41.4928029" lon="-0.1030905"><ele>326.5</ele><time>2026-05-04T10:02:15.767Z</time></trkpt><trkpt lat="41.492788" lon="-0.1029097"><ele>326.25</ele><time>2026-05-04T10:02:16.767Z</time></trkpt><trkpt lat="41.492772" lon="-0.1027295"><ele>326.0</ele><time>2026-05-04T10:02:17.767Z</time></trkpt><trkpt lat="41.492751" lon="-0.1025464"><ele>326.0</ele><time>2026-05-04T10:02:18.766Z</time></trkpt><trkpt lat="41.4927311" lon="-0.102363"><ele>326.0</ele><time>2026-05-04T10:02:19.767Z</time></trkpt><trkpt lat="41.4927068" lon="-0.1021808"><ele>326.0</ele><time>2026-05-04T10:02:20.767Z</time></trkpt><trkpt lat="41.4926893" lon="-0.1019995"><ele>326.0</ele><time>2026-05-04T10:02:21.767Z</time></trkpt><trkpt lat="41.4926705" lon="-0.1018204"><ele>326.0</ele><time>2026-05-04T10:02:22.767Z</time></trkpt><trkpt lat="41.4926522" lon="-0.1016396"><ele>326.0</ele><time>2026-05-04T10:02:23.767Z</time></trkpt><trkpt lat="41.4926348" lon="-0.1014592"><ele>326.0</ele><time>2026-05-04T10:02:24.767Z</time></trkpt><trkpt lat="41.4926202" lon="-0.1012792"><ele>326.0</ele><time>2026-05-04T10:02:25.767Z</time></trkpt><trkpt lat="41.4926015" lon="-0.1011028"><ele>326.0</ele><time>2026-05-04T10:02:26.767Z</time></trkpt><trkpt lat="41.492577" lon="-0.1009205"><ele>326.0</ele><time>2026-05-04T10:02:27.766Z</time></trkpt><trkpt lat="41.492558" lon="-0.1007331"><ele>326.0</ele><time>2026-05-04T10:02:28.767Z</time></trkpt><trkpt lat="41.4925402" lon="-0.1005528"><ele>326.0</ele><time>2026-05-04T10:02:29.767Z</time></trkpt><trkpt lat="41.4925213" lon="-0.1003657"><ele>326.0</ele><time>2026-05-04T10:02:30.767Z</time></trkpt><trkpt lat="41.4924997" lon="-0.1001861"><ele>326.0</ele><time>2026-05-04T10:02:31.766Z</time></trkpt><trkpt lat="41.4924823" lon="-0.1"><ele>326.0</ele><time>2026-05-04T10:02:32.767Z</time></trkpt><trkpt lat="41.4924626" lon="-0.0998161"><ele>326.0</ele><time>2026-05-04T10:02:33.767Z</time></trkpt><trkpt lat="41.4924451" lon="-0.099632"><ele>325.75</ele><time>2026-05-04T10:02:34.767Z</time></trkpt><trkpt lat="41.4924234" lon="-0.0994465"><ele>325.5</ele><time>2026-05-04T10:02:35.766Z</time></trkpt><trkpt lat="41.4924061" lon="-0.0992611"><ele>325.25</ele><time>2026-05-04T10:02:36.767Z</time></trkpt><trkpt lat="41.4923877" lon="-0.0990785"><ele>325.0</ele><time>2026-05-04T10:02:37.767Z</time></trkpt><trkpt lat="41.4923736" lon="-0.0988933"><ele>324.75</ele><time>2026-05-04T10:02:38.767Z</time></trkpt><trkpt lat="41.4923547" lon="-0.0987123"><ele>324.5</ele><time>2026-05-04T10:02:39.767Z</time></trkpt><trkpt lat="41.4923354" lon="-0.0985291"><ele>324.25</ele><time>2026-05-04T10:02:40.767Z</time></trkpt><trkpt lat="41.4923131" lon="-0.0983501"><ele>324.0</ele><time>2026-05-04T10:02:41.766Z</time></trkpt><trkpt lat="41.4922881" lon="-0.0981681"><ele>324.0</ele><time>2026-05-04T10:02:42.766Z</time></trkpt><trkpt lat="41.4922647" lon="-0.0979904"><ele>324.0</ele><time>2026-05-04T10:02:43.767Z</time></trkpt><trkpt lat="41.4922447" lon="-0.097814"><ele>324.0</ele><time>2026-05-04T10:02:44.767Z</time></trkpt><trkpt lat="41.4922306" lon="-0.0976352"><ele>324.0</ele><time>2026-05-04T10:02:45.767Z</time></trkpt><trkpt lat="41.4922116" lon="-0.0974488"><ele>324.25</ele><time>2026-05-04T10:02:46.767Z</time></trkpt><trkpt lat="41.4921915" lon="-0.0972647"><ele>324.5</ele><time>2026-05-04T10:02:47.767Z</time></trkpt><trkpt lat="41.4921736" lon="-0.0970822"><ele>324.75</ele><time>2026-05-04T10:02:48.767Z</time></trkpt><trkpt lat="41.4921537" lon="-0.0968984"><ele>325.0</ele><time>2026-05-04T10:02:49.766Z</time></trkpt><trkpt lat="41.4921318" lon="-0.096721"><ele>325.0</ele><time>2026-05-04T10:02:50.767Z</time></trkpt><trkpt lat="41.4921141" lon="-0.0965393"><ele>325.0</ele><time>2026-05-04T10:02:51.767Z</time></trkpt><trkpt lat="41.4920973" lon="-0.0963615"><ele>325.0</ele><time>2026-05-04T10:02:52.767Z</time></trkpt><trkpt lat="41.4920774" lon="-0.0961809"><ele>325.0</ele><time>2026-05-04T10:02:53.766Z</time></trkpt><trkpt lat="41.4920551" lon="-0.0960016"><ele>325.0</ele><time>2026-05-04T10:02:54.767Z</time></trkpt><trkpt lat="41.4920373" lon="-0.0958182"><ele>325.0</ele><time>2026-05-04T10:02:55.766Z</time></trkpt><trkpt lat="41.4920176" lon="-0.0956282"><ele>325.0</ele><time>2026-05-04T10:02:56.767Z</time></trkpt><trkpt lat="41.4920002" lon="-0.0954406"><ele>325.0</ele><time>2026-05-04T10:02:57.766Z</time></trkpt><trkpt lat="41.4919835" lon="-0.0952514"><ele>325.0</ele><time>2026-05-04T10:02:58.767Z</time></trkpt><trkpt lat="41.4919748" lon="-0.0950546"><ele>325.0</ele><time>2026-05-04T10:02:59.767Z</time></trkpt><trkpt lat="41.4919714" lon="-0.0948576"><ele>325.0</ele><time>2026-05-04T10:03:00.767Z</time></trkpt><trkpt lat="41.4919776" lon="-0.0946649"><ele>325.0</ele><time>2026-05-04T10:03:01.768Z</time></trkpt><trkpt lat="41.4919882" lon="-0.0944826"><ele>324.75</ele><time>2026-05-04T10:03:02.768Z</time></trkpt><trkpt lat="41.4920107" lon="-0.0942944"><ele>324.5</ele><time>2026-05-04T10:03:03.768Z</time></trkpt><trkpt lat="41.4920384" lon="-0.0941087"><ele>324.25</ele><time>2026-05-04T10:03:04.767Z</time></trkpt><trkpt lat="41.4920729" lon="-0.09392"><ele>324.0</ele><time>2026-05-04T10:03:05.767Z</time></trkpt><trkpt lat="41.4921107" lon="-0.0937404"><ele>323.5</ele><time>2026-05-04T10:03:06.767Z</time></trkpt><trkpt lat="41.4921459" lon="-0.0935491"><ele>323.0</ele><time>2026-05-04T10:03:07.768Z</time></trkpt><trkpt lat="41.4921828" lon="-0.0933576"><ele>322.5</ele><time>2026-05-04T10:03:08.768Z</time></trkpt><trkpt lat="41.4922257" lon="-0.0931719"><ele>322.0</ele><time>2026-05-04T10:03:09.768Z</time></trkpt><trkpt lat="41.492262" lon="-0.0929896"><ele>321.5</ele><time>2026-05-04T10:03:10.768Z</time></trkpt><trkpt lat="41.4922913" lon="-0.0928089"><ele>321.0</ele><time>2026-05-04T10:03:11.768Z</time></trkpt><trkpt lat="41.4923278" lon="-0.0926286"><ele>320.5</ele><time>2026-05-04T10:03:12.768Z</time></trkpt><trkpt lat="41.4923628" lon="-0.0924485"><ele>320.0</ele><time>2026-05-04T10:03:13.768Z</time></trkpt><trkpt lat="41.4924004" lon="-0.0922681"><ele>319.0</ele><time>2026-05-04T10:03:14.768Z</time></trkpt><trkpt lat="41.4924337" lon="-0.0920833"><ele>318.0</ele><time>2026-05-04T10:03:15.768Z</time></trkpt><trkpt lat="41.4924715" lon="-0.0918989"><ele>317.0</ele><time>2026-05-04T10:03:16.768Z</time></trkpt><trkpt lat="41.4925136" lon="-0.0917099"><ele>316.0</ele><time>2026-05-04T10:03:17.768Z</time></trkpt><trkpt lat="41.4925591" lon="-0.0915238"><ele>315.0</ele><time>2026-05-04T10:03:18.768Z</time></trkpt><trkpt lat="41.4926101" lon="-0.091337"><ele>314.0</ele><time>2026-05-04T10:03:19.768Z</time></trkpt><trkpt lat="41.4926642" lon="-0.0911567"><ele>313.0</ele><time>2026-05-04T10:03:20.768Z</time></trkpt><trkpt lat="41.4927225" lon="-0.0909755"><ele>312.0</ele><time>2026-05-04T10:03:21.768Z</time></trkpt><trkpt lat="41.4927844" lon="-0.0907994"><ele>311.5</ele><time>2026-05-04T10:03:22.768Z</time></trkpt><trkpt lat="41.4928473" lon="-0.090622"><ele>311.0</ele><time>2026-05-04T10:03:23.768Z</time></trkpt><trkpt lat="41.4929137" lon="-0.0904458"><ele>310.5</ele><time>2026-05-04T10:03:24.768Z</time></trkpt><trkpt lat="41.492978" lon="-0.090268"><ele>310.0</ele><time>2026-05-04T10:03:25.768Z</time></trkpt><trkpt lat="41.49304" lon="-0.0900989"><ele>308.25</ele><time>2026-05-04T10:03:26.768Z</time></trkpt><trkpt lat="41.4930955" lon="-0.0899239"><ele>306.5</ele><time>2026-05-04T10:03:27.768Z</time></trkpt><trkpt lat="41.4931493" lon="-0.0897393"><ele>304.75</ele><time>2026-05-04T10:03:28.768Z</time></trkpt><trkpt lat="41.4931919" lon="-0.0895464"><ele>303.0</ele><time>2026-05-04T10:03:29.767Z</time></trkpt><trkpt lat="41.4932271" lon="-0.0893421"><ele>303.0</ele><time>2026-05-04T10:03:30.767Z</time></trkpt><trkpt lat="41.4932542" lon="-0.0891424"><ele>303.0</ele><time>2026-05-04T10:03:31.768Z</time></trkpt><trkpt lat="41.4932716" lon="-0.0889452"><ele>303.0</ele><time>2026-05-04T10:03:32.767Z</time></trkpt><trkpt lat="41.4932888" lon="-0.0887502"><ele>303.0</ele><time>2026-05-04T10:03:33.767Z</time></trkpt><trkpt lat="41.4933112" lon="-0.088567"><ele>303.0</ele><time>2026-05-04T10:03:34.768Z</time></trkpt><trkpt lat="41.4933346" lon="-0.0883784"><ele>303.0</ele><time>2026-05-04T10:03:35.768Z</time></trkpt><trkpt lat="41.4933542" lon="-0.0881843"><ele>303.0</ele><time>2026-05-04T10:03:36.768Z</time></trkpt><trkpt lat="41.4933777" lon="-0.088001"><ele>303.0</ele><time>2026-05-04T10:03:37.768Z</time></trkpt><trkpt lat="41.4933994" lon="-0.0878138"><ele>303.0</ele><time>2026-05-04T10:03:38.768Z</time></trkpt><trkpt lat="41.4934167" lon="-0.0876338"><ele>303.0</ele><time>2026-05-04T10:03:39.768Z</time></trkpt><trkpt lat="41.4934391" lon="-0.0874539"><ele>303.0</ele><time>2026-05-04T10:03:40.768Z</time></trkpt><trkpt lat="41.4934625" lon="-0.0872709"><ele>303.0</ele><time>2026-05-04T10:03:41.768Z</time></trkpt><trkpt lat="41.4934821" lon="-0.0870801"><ele>302.5</ele><time>2026-05-04T10:03:42.768Z</time></trkpt><trkpt lat="41.4934998" lon="-0.0868995"><ele>302.0</ele><time>2026-05-04T10:03:43.768Z</time></trkpt><trkpt lat="41.4935234" lon="-0.0867111"><ele>301.5</ele><time>2026-05-04T10:03:44.768Z</time></trkpt><trkpt lat="41.4935424" lon="-0.0865161"><ele>301.0</ele><time>2026-05-04T10:03:45.768Z</time></trkpt><trkpt lat="41.4935639" lon="-0.0863275"><ele>300.75</ele><time>2026-05-04T10:03:46.768Z</time></trkpt><trkpt lat="41.4935852" lon="-0.0861361"><ele>300.5</ele><time>2026-05-04T10:03:47.768Z</time></trkpt><trkpt lat="41.4936008" lon="-0.0859478"><ele>300.25</ele><time>2026-05-04T10:03:48.767Z</time></trkpt><trkpt lat="41.49362" lon="-0.085761"><ele>300.0</ele><time>2026-05-04T10:03:49.768Z</time></trkpt><trkpt lat="41.4936432" lon="-0.0855735"><ele>300.75</ele><time>2026-05-04T10:03:50.768Z</time></trkpt><trkpt lat="41.4936654" lon="-0.0853884"><ele>301.5</ele><time>2026-05-04T10:03:51.768Z</time></trkpt><trkpt lat="41.4936908" lon="-0.0852021"><ele>302.25</ele><time>2026-05-04T10:03:52.768Z</time></trkpt><trkpt lat="41.4937057" lon="-0.0850207"><ele>303.0</ele><time>2026-05-04T10:03:53.768Z</time></trkpt><trkpt lat="41.4937297" lon="-0.0848408"><ele>303.0</ele><time>2026-05-04T10:03:54.768Z</time></trkpt><trkpt lat="41.4937484" lon="-0.0846672"><ele>303.0</ele><time>2026-05-04T10:03:55.768Z</time></trkpt><trkpt lat="41.4937668" lon="-0.0844927"><ele>303.0</ele><time>2026-05-04T10:03:56.768Z</time></trkpt><trkpt lat="41.4937893" lon="-0.0843147"><ele>303.0</ele><time>2026-05-04T10:03:57.768Z</time></trkpt><trkpt lat="41.4938112" lon="-0.0841396"><ele>300.75</ele><time>2026-05-04T10:03:58.768Z</time></trkpt><trkpt lat="41.4938295" lon="-0.0839599"><ele>298.5</ele><time>2026-05-04T10:03:59.768Z</time></trkpt><trkpt lat="41.4938462" lon="-0.0837853"><ele>296.25</ele><time>2026-05-04T10:04:00.767Z</time></trkpt><trkpt lat="41.4938662" lon="-0.0836224"><ele>294.0</ele><time>2026-05-04T10:04:01.768Z</time></trkpt><trkpt lat="41.4938856" lon="-0.0834526"><ele>294.0</ele><time>2026-05-04T10:04:02.768Z</time></trkpt><trkpt lat="41.4939081" lon="-0.083277"><ele>294.0</ele><time>2026-05-04T10:04:03.768Z</time></trkpt><trkpt lat="41.4939288" lon="-0.0831016"><ele>294.0</ele><time>2026-05-04T10:04:04.768Z</time></trkpt><trkpt lat="41.4939489" lon="-0.0829207"><ele>294.0</ele><time>2026-05-04T10:04:05.768Z</time></trkpt><trkpt lat="41.4939706" lon="-0.082742"><ele>294.0</ele><time>2026-05-04T10:04:06.768Z</time></trkpt><trkpt lat="41.4939941" lon="-0.0825617"><ele>294.0</ele><time>2026-05-04T10:04:07.768Z</time></trkpt><trkpt lat="41.4940134" lon="-0.0823764"><ele>294.0</ele><time>2026-05-04T10:04:08.768Z</time></trkpt><trkpt lat="41.4940336" lon="-0.0821882"><ele>294.0</ele><time>2026-05-04T10:04:09.768Z</time></trkpt><trkpt lat="41.4940585" lon="-0.0819955"><ele>293.75</ele><time>2026-05-04T10:04:10.768Z</time></trkpt><trkpt lat="41.4940789" lon="-0.081806"><ele>293.5</ele><time>2026-05-04T10:04:11.768Z</time></trkpt><trkpt lat="41.4940987" lon="-0.0816108"><ele>293.25</ele><time>2026-05-04T10:04:12.768Z</time></trkpt><trkpt lat="41.4941215" lon="-0.0814111"><ele>293.0</ele><time>2026-05-04T10:04:13.768Z</time></trkpt><trkpt lat="41.4941407" lon="-0.0812235"><ele>292.5</ele><time>2026-05-04T10:04:14.768Z</time></trkpt><trkpt lat="41.4941662" lon="-0.0810338"><ele>292.0</ele><time>2026-05-04T10:04:15.768Z</time></trkpt><trkpt lat="41.4941913" lon="-0.0808405"><ele>291.5</ele><time>2026-05-04T10:04:16.768Z</time></trkpt><trkpt lat="41.4942135" lon="-0.0806492"><ele>291.0</ele><time>2026-05-04T10:04:17.768Z</time></trkpt><trkpt lat="41.4942354" lon="-0.0804565"><ele>291.0</ele><time>2026-05-04T10:04:18.768Z</time></trkpt><trkpt lat="41.4942587" lon="-0.0802632"><ele>291.0</ele><time>2026-05-04T10:04:19.768Z</time></trkpt><trkpt lat="41.4942814" lon="-0.0800634"><ele>291.0</ele><time>2026-05-04T10:04:20.768Z</time></trkpt><trkpt lat="41.4943037" lon="-0.0798664"><ele>291.0</ele><time>2026-05-04T10:04:21.768Z</time></trkpt><trkpt lat="41.4943294" lon="-0.0796642"><ele>290.6666666666667</ele><time>2026-05-04T10:04:22.768Z</time></trkpt><trkpt lat="41.4943533" lon="-0.079464"><ele>290.33333333333337</ele><time>2026-05-04T10:04:23.768Z</time></trkpt><trkpt lat="41.494375" lon="-0.0792658"><ele>290.0</ele><time>2026-05-04T10:04:24.768Z</time></trkpt><trkpt lat="41.4944005" lon="-0.0790651"><ele>290.0</ele><time>2026-05-04T10:04:25.767Z</time></trkpt><trkpt lat="41.4944286" lon="-0.078868"><ele>290.0</ele><time>2026-05-04T10:04:26.768Z</time></trkpt><trkpt lat="41.494452" lon="-0.0786704"><ele>290.0</ele><time>2026-05-04T10:04:27.767Z</time></trkpt><trkpt lat="41.4944792" lon="-0.0784828"><ele>290.0</ele><time>2026-05-04T10:04:28.768Z</time></trkpt><trkpt lat="41.4945065" lon="-0.0783043"><ele>289.75</ele><time>2026-05-04T10:04:29.768Z</time></trkpt><trkpt lat="41.4945334" lon="-0.07812"><ele>289.5</ele><time>2026-05-04T10:04:30.768Z</time></trkpt><trkpt lat="41.4945626" lon="-0.0779302"><ele>289.25</ele><time>2026-05-04T10:04:31.768Z</time></trkpt><trkpt lat="41.4945935" lon="-0.0777473"><ele>289.0</ele><time>2026-05-04T10:04:32.768Z</time></trkpt><trkpt lat="41.4946268" lon="-0.0775634"><ele>289.25</ele><time>2026-05-04T10:04:33.768Z</time></trkpt><trkpt lat="41.4946639" lon="-0.0773764"><ele>289.5</ele><time>2026-05-04T10:04:34.768Z</time></trkpt><trkpt lat="41.4947028" lon="-0.0771947"><ele>289.75</ele><time>2026-05-04T10:04:35.768Z</time></trkpt><trkpt lat="41.4947411" lon="-0.0770101"><ele>290.0</ele><time>2026-05-04T10:04:36.767Z</time></trkpt><trkpt lat="41.4947791" lon="-0.0768329"><ele>290.0</ele><time>2026-05-04T10:04:37.768Z</time></trkpt><trkpt lat="41.4948147" lon="-0.07665"><ele>290.0</ele><time>2026-05-04T10:04:38.767Z</time></trkpt><trkpt lat="41.4948489" lon="-0.076466"><ele>290.0</ele><time>2026-05-04T10:04:39.767Z</time></trkpt><trkpt lat="41.4948868" lon="-0.0762828"><ele>290.0</ele><time>2026-05-04T10:04:40.767Z</time></trkpt><trkpt lat="41.4949239" lon="-0.076101"><ele>290.0</ele><time>2026-05-04T10:04:41.768Z</time></trkpt><trkpt lat="41.4949589" lon="-0.0759107"><ele>290.0</ele><time>2026-05-04T10:04:42.767Z</time></trkpt><trkpt lat="41.4949866" lon="-0.0757191"><ele>290.0</ele><time>2026-05-04T10:04:43.768Z</time></trkpt><trkpt lat="41.4950037" lon="-0.0755348"><ele>290.0</ele><time>2026-05-04T10:04:44.767Z</time></trkpt><trkpt lat="41.4950174" lon="-0.0753425"><ele>290.0</ele><time>2026-05-04T10:04:45.768Z</time></trkpt><trkpt lat="41.4950273" lon="-0.0751541"><ele>290.0</ele><time>2026-05-04T10:04:46.768Z</time></trkpt><trkpt lat="41.4950305" lon="-0.0749641"><ele>290.0</ele><time>2026-05-04T10:04:47.767Z</time></trkpt><trkpt lat="41.4950261" lon="-0.0747679"><ele>290.0</ele><time>2026-05-04T10:04:48.767Z</time></trkpt><trkpt lat="41.4950167" lon="-0.0745698"><ele>289.5</ele><time>2026-05-04T10:04:49.768Z</time></trkpt><trkpt lat="41.4950021" lon="-0.0743788"><ele>289.0</ele><time>2026-05-04T10:04:50.768Z</time></trkpt><trkpt lat="41.4949831" lon="-0.0741857"><ele>288.5</ele><time>2026-05-04T10:04:51.768Z</time></trkpt><trkpt lat="41.4949578" lon="-0.0739952"><ele>288.0</ele><time>2026-05-04T10:04:52.768Z</time></trkpt><trkpt lat="41.4949261" lon="-0.0738072"><ele>287.25</ele><time>2026-05-04T10:04:53.768Z</time></trkpt><trkpt lat="41.4948883" lon="-0.0736333"><ele>286.5</ele><time>2026-05-04T10:04:54.768Z</time></trkpt><trkpt lat="41.4948515" lon="-0.0734603"><ele>285.75</ele><time>2026-05-04T10:04:55.768Z</time></trkpt><trkpt lat="41.4948069" lon="-0.0732843"><ele>285.0</ele><time>2026-05-04T10:04:56.768Z</time></trkpt><trkpt lat="41.4947627" lon="-0.0731081"><ele>284.75</ele><time>2026-05-04T10:04:57.769Z</time></trkpt><trkpt lat="41.4947123" lon="-0.0729362"><ele>284.5</ele><time>2026-05-04T10:04:58.769Z</time></trkpt><trkpt lat="41.494665" lon="-0.0727627"><ele>284.25</ele><time>2026-05-04T10:04:59.769Z</time></trkpt><trkpt lat="41.4946197" lon="-0.0725887"><ele>284.0</ele><time>2026-05-04T10:05:00.769Z</time></trkpt><trkpt lat="41.4945692" lon="-0.0724107"><ele>284.0</ele><time>2026-05-04T10:05:01.769Z</time></trkpt><trkpt lat="41.4945263" lon="-0.0722361"><ele>284.0</ele><time>2026-05-04T10:05:02.768Z</time></trkpt><trkpt lat="41.494483" lon="-0.0720673"><ele>284.0</ele><time>2026-05-04T10:05:03.768Z</time></trkpt><trkpt lat="41.4944415" lon="-0.0718975"><ele>284.0</ele><time>2026-05-04T10:05:04.768Z</time></trkpt><trkpt lat="41.4943946" lon="-0.0717329"><ele>284.5</ele><time>2026-05-04T10:05:05.769Z</time></trkpt><trkpt lat="41.4943529" lon="-0.0715665"><ele>285.0</ele><time>2026-05-04T10:05:06.769Z</time></trkpt><trkpt lat="41.4943057" lon="-0.0714055"><ele>285.5</ele><time>2026-05-04T10:05:07.769Z</time></trkpt><trkpt lat="41.4942624" lon="-0.0712345"><ele>286.0</ele><time>2026-05-04T10:05:08.769Z</time></trkpt><trkpt lat="41.4942238" lon="-0.0710647"><ele>286.0</ele><time>2026-05-04T10:05:09.768Z</time></trkpt><trkpt lat="41.4941896" lon="-0.0708966"><ele>286.0</ele><time>2026-05-04T10:05:10.769Z</time></trkpt><trkpt lat="41.4941618" lon="-0.0707286"><ele>286.0</ele><time>2026-05-04T10:05:11.769Z</time></trkpt><trkpt lat="41.4941377" lon="-0.0705605"><ele>286.0</ele><time>2026-05-04T10:05:12.769Z</time></trkpt><trkpt lat="41.4941147" lon="-0.070389"><ele>286.25</ele><time>2026-05-04T10:05:13.768Z</time></trkpt><trkpt lat="41.4940974" lon="-0.0702152"><ele>286.5</ele><time>2026-05-04T10:05:14.768Z</time></trkpt><trkpt lat="41.4940861" lon="-0.0700397"><ele>286.75</ele><time>2026-05-04T10:05:15.768Z</time></trkpt><trkpt lat="41.4940797" lon="-0.0698586"><ele>287.0</ele><time>2026-05-04T10:05:16.769Z</time></trkpt><trkpt lat="41.4940847" lon="-0.0696804"><ele>286.5</ele><time>2026-05-04T10:05:17.769Z</time></trkpt><trkpt lat="41.4940933" lon="-0.0694988"><ele>286.0</ele><time>2026-05-04T10:05:18.769Z</time></trkpt><trkpt lat="41.4941063" lon="-0.0693179"><ele>285.5</ele><time>2026-05-04T10:05:19.769Z</time></trkpt><trkpt lat="41.4941212" lon="-0.0691425"><ele>285.0</ele><time>2026-05-04T10:05:20.769Z</time></trkpt><trkpt lat="41.4941413" lon="-0.0689679"><ele>285.0</ele><time>2026-05-04T10:05:21.769Z</time></trkpt><trkpt lat="41.4941641" lon="-0.0687891"><ele>285.0</ele><time>2026-05-04T10:05:22.769Z</time></trkpt><trkpt lat="41.4941888" lon="-0.0686139"><ele>285.0</ele><time>2026-05-04T10:05:23.768Z</time></trkpt><trkpt lat="41.4942196" lon="-0.068439"><ele>285.0</ele><time>2026-05-04T10:05:24.768Z</time></trkpt><trkpt lat="41.4942501" lon="-0.068263"><ele>284.0</ele><time>2026-05-04T10:05:25.769Z</time></trkpt><trkpt lat="41.4942861" lon="-0.0680849"><ele>283.0</ele><time>2026-05-04T10:05:26.769Z</time></trkpt><trkpt lat="41.4943211" lon="-0.0679103"><ele>282.0</ele><time>2026-05-04T10:05:27.769Z</time></trkpt><trkpt lat="41.4943522" lon="-0.0677336"><ele>281.0</ele><time>2026-05-04T10:05:28.769Z</time></trkpt><trkpt lat="41.4943889" lon="-0.067558"><ele>280.75</ele><time>2026-05-04T10:05:29.769Z</time></trkpt><trkpt lat="41.4944242" lon="-0.067384"><ele>280.5</ele><time>2026-05-04T10:05:30.769Z</time></trkpt><trkpt lat="41.4944634" lon="-0.0672089"><ele>280.25</ele><time>2026-05-04T10:05:31.769Z</time></trkpt><trkpt lat="41.4945033" lon="-0.0670346"><ele>280.0</ele><time>2026-05-04T10:05:32.769Z</time></trkpt><trkpt lat="41.4945401" lon="-0.0668626"><ele>280.0</ele><time>2026-05-04T10:05:33.769Z</time></trkpt><trkpt lat="41.4945778" lon="-0.0666904"><ele>280.0</ele><time>2026-05-04T10:05:34.769Z</time></trkpt><trkpt lat="41.4946117" lon="-0.0665163"><ele>280.0</ele><time>2026-05-04T10:05:35.769Z</time></trkpt><trkpt lat="41.4946469" lon="-0.0663445"><ele>280.0</ele><time>2026-05-04T10:05:36.768Z</time></trkpt><trkpt lat="41.4946835" lon="-0.0661709"><ele>280.75</ele><time>2026-05-04T10:05:37.769Z</time></trkpt><trkpt lat="41.4947198" lon="-0.065995"><ele>281.5</ele><time>2026-05-04T10:05:38.769Z</time></trkpt><trkpt lat="41.4947551" lon="-0.0658206"><ele>282.25</ele><time>2026-05-04T10:05:39.769Z</time></trkpt><trkpt lat="41.4947937" lon="-0.0656504"><ele>283.0</ele><time>2026-05-04T10:05:40.769Z</time></trkpt><trkpt lat="41.4948378" lon="-0.0654732"><ele>283.0</ele><time>2026-05-04T10:05:41.769Z</time></trkpt><trkpt lat="41.4948731" lon="-0.0652975"><ele>283.0</ele><time>2026-05-04T10:05:42.769Z</time></trkpt><trkpt lat="41.4949089" lon="-0.0651234"><ele>283.0</ele><time>2026-05-04T10:05:43.769Z</time></trkpt><trkpt lat="41.4949467" lon="-0.0649495"><ele>283.0</ele><time>2026-05-04T10:05:44.768Z</time></trkpt><trkpt lat="41.4949836" lon="-0.0647753"><ele>282.25</ele><time>2026-05-04T10:05:45.769Z</time></trkpt><trkpt lat="41.4950228" lon="-0.0645978"><ele>281.5</ele><time>2026-05-04T10:05:46.769Z</time></trkpt><trkpt lat="41.4950605" lon="-0.0644242"><ele>280.75</ele><time>2026-05-04T10:05:47.769Z</time></trkpt><trkpt lat="41.4950986" lon="-0.0642492"><ele>280.0</ele><time>2026-05-04T10:05:48.768Z</time></trkpt><trkpt lat="41.4951348" lon="-0.0640771"><ele>279.25</ele><time>2026-05-04T10:05:49.768Z</time></trkpt><trkpt lat="41.495171" lon="-0.0639083"><ele>278.5</ele><time>2026-05-04T10:05:50.769Z</time></trkpt><trkpt lat="41.4952077" lon="-0.0637305"><ele>277.75</ele><time>2026-05-04T10:05:51.769Z</time></trkpt><trkpt lat="41.4952467" lon="-0.0635516"><ele>277.0</ele><time>2026-05-04T10:05:52.768Z</time></trkpt><trkpt lat="41.4952842" lon="-0.0633687"><ele>277.0</ele><time>2026-05-04T10:05:53.769Z</time></trkpt><trkpt lat="41.4953187" lon="-0.0631932"><ele>277.0</ele><time>2026-05-04T10:05:54.768Z</time></trkpt><trkpt lat="41.4953557" lon="-0.0630122"><ele>277.0</ele><time>2026-05-04T10:05:55.768Z</time></trkpt><trkpt lat="41.4953941" lon="-0.0628332"><ele>277.0</ele><time>2026-05-04T10:05:56.769Z</time></trkpt><trkpt lat="41.4954327" lon="-0.0626504"><ele>277.0</ele><time>2026-05-04T10:05:57.769Z</time></trkpt><trkpt lat="41.4954706" lon="-0.0624619"><ele>277.0</ele><time>2026-05-04T10:05:58.768Z</time></trkpt><trkpt lat="41.4955132" lon="-0.0622808"><ele>277.0</ele><time>2026-05-04T10:05:59.769Z</time></trkpt><trkpt lat="41.4955493" lon="-0.0620993"><ele>277.0</ele><time>2026-05-04T10:06:00.768Z</time></trkpt><trkpt lat="41.4955871" lon="-0.061916"><ele>277.0</ele><time>2026-05-04T10:06:01.769Z</time></trkpt><trkpt lat="41.4956267" lon="-0.0617329"><ele>277.0</ele><time>2026-05-04T10:06:02.769Z</time></trkpt><trkpt lat="41.4956687" lon="-0.0615442"><ele>277.0</ele><time>2026-05-04T10:06:03.769Z</time></trkpt><trkpt lat="41.4957068" lon="-0.061353"><ele>277.0</ele><time>2026-05-04T10:06:04.768Z</time></trkpt><trkpt lat="41.4957488" lon="-0.0611601"><ele>277.5</ele><time>2026-05-04T10:06:05.769Z</time></trkpt><trkpt lat="41.4957883" lon="-0.0609696"><ele>278.0</ele><time>2026-05-04T10:06:06.769Z</time></trkpt><trkpt lat="41.4958277" lon="-0.0607869"><ele>278.5</ele><time>2026-05-04T10:06:07.769Z</time></trkpt><trkpt lat="41.4958628" lon="-0.0606038"><ele>279.0</ele><time>2026-05-04T10:06:08.768Z</time></trkpt><trkpt lat="41.4958993" lon="-0.0604235"><ele>279.0</ele><time>2026-05-04T10:06:09.768Z</time></trkpt><trkpt lat="41.4959376" lon="-0.0602415"><ele>279.0</ele><time>2026-05-04T10:06:10.769Z</time></trkpt><trkpt lat="41.4959752" lon="-0.0600673"><ele>279.0</ele><time>2026-05-04T10:06:11.768Z</time></trkpt><trkpt lat="41.4960102" lon="-0.0598874"><ele>279.0</ele><time>2026-05-04T10:06:12.769Z</time></trkpt><trkpt lat="41.4960398" lon="-0.0597134"><ele>279.25</ele><time>2026-05-04T10:06:13.769Z</time></trkpt><trkpt lat="41.4960698" lon="-0.059533"><ele>279.5</ele><time>2026-05-04T10:06:14.769Z</time></trkpt><trkpt lat="41.4960974" lon="-0.0593559"><ele>279.75</ele><time>2026-05-04T10:06:15.769Z</time></trkpt><trkpt lat="41.4961199" lon="-0.0591819"><ele>280.0</ele><time>2026-05-04T10:06:16.769Z</time></trkpt><trkpt lat="41.4961363" lon="-0.0590045"><ele>280.0</ele><time>2026-05-04T10:06:17.769Z</time></trkpt><trkpt lat="41.4961456" lon="-0.0588262"><ele>280.0</ele><time>2026-05-04T10:06:18.769Z</time></trkpt><trkpt lat="41.4961488" lon="-0.0586416"><ele>280.0</ele><time>2026-05-04T10:06:19.769Z</time></trkpt><trkpt lat="41.4961516" lon="-0.0584578"><ele>280.0</ele><time>2026-05-04T10:06:20.769Z</time></trkpt><trkpt lat="41.4961537" lon="-0.0582748"><ele>280.0</ele><time>2026-05-04T10:06:21.769Z</time></trkpt><trkpt lat="41.4961511" lon="-0.0580864"><ele>280.0</ele><time>2026-05-04T10:06:22.769Z</time></trkpt><trkpt lat="41.4961537" lon="-0.0579012"><ele>280.0</ele><time>2026-05-04T10:06:23.769Z</time></trkpt><trkpt lat="41.4961558" lon="-0.05772"><ele>280.0</ele><time>2026-05-04T10:06:24.769Z</time></trkpt><trkpt lat="41.4961544" lon="-0.0575344"><ele>280.0</ele><time>2026-05-04T10:06:25.769Z</time></trkpt><trkpt lat="41.4961509" lon="-0.0573458"><ele>280.0</ele><time>2026-05-04T10:06:26.769Z</time></trkpt><trkpt lat="41.4961445" lon="-0.057158"><ele>280.0</ele><time>2026-05-04T10:06:27.769Z</time></trkpt><trkpt lat="41.4961433" lon="-0.0569742"><ele>280.0</ele><time>2026-05-04T10:06:28.769Z</time></trkpt><trkpt lat="41.4961411" lon="-0.0567871"><ele>279.25</ele><time>2026-05-04T10:06:29.769Z</time></trkpt><trkpt lat="41.4961367" lon="-0.0565942"><ele>278.5</ele><time>2026-05-04T10:06:30.768Z</time></trkpt><trkpt lat="41.4961299" lon="-0.0564106"><ele>277.75</ele><time>2026-05-04T10:06:31.769Z</time></trkpt><trkpt lat="41.4961268" lon="-0.0562144"><ele>277.0</ele><time>2026-05-04T10:06:32.769Z</time></trkpt><trkpt lat="41.4961255" lon="-0.0560233"><ele>277.0</ele><time>2026-05-04T10:06:33.769Z</time></trkpt><trkpt lat="41.4961263" lon="-0.0558237"><ele>277.0</ele><time>2026-05-04T10:06:34.769Z</time></trkpt><trkpt lat="41.4961254" lon="-0.0556258"><ele>277.0</ele><time>2026-05-04T10:06:35.769Z</time></trkpt><trkpt lat="41.4961255" lon="-0.0554298"><ele>277.0</ele><time>2026-05-04T10:06:36.769Z</time></trkpt><trkpt lat="41.4961238" lon="-0.0552376"><ele>276.5</ele><time>2026-05-04T10:06:37.769Z</time></trkpt><trkpt lat="41.4961235" lon="-0.0550501"><ele>276.0</ele><time>2026-05-04T10:06:38.769Z</time></trkpt><trkpt lat="41.4961279" lon="-0.0548596"><ele>275.5</ele><time>2026-05-04T10:06:39.769Z</time></trkpt><trkpt lat="41.4961388" lon="-0.0546705"><ele>275.0</ele><time>2026-05-04T10:06:40.769Z</time></trkpt><trkpt lat="41.4961562" lon="-0.0544781"><ele>274.5</ele><time>2026-05-04T10:06:41.769Z</time></trkpt><trkpt lat="41.4961826" lon="-0.0542862"><ele>274.0</ele><time>2026-05-04T10:06:42.768Z</time></trkpt><trkpt lat="41.496209" lon="-0.0540956"><ele>273.5</ele><time>2026-05-04T10:06:43.769Z</time></trkpt><trkpt lat="41.4962374" lon="-0.0539132"><ele>273.0</ele><time>2026-05-04T10:06:44.769Z</time></trkpt><trkpt lat="41.4962741" lon="-0.0537243"><ele>272.25</ele><time>2026-05-04T10:06:45.769Z</time></trkpt><trkpt lat="41.4963224" lon="-0.0535379"><ele>271.5</ele><time>2026-05-04T10:06:46.769Z</time></trkpt><trkpt lat="41.4963759" lon="-0.0533522"><ele>270.75</ele><time>2026-05-04T10:06:47.769Z</time></trkpt><trkpt lat="41.49643" lon="-0.053172"><ele>270.0</ele><time>2026-05-04T10:06:48.769Z</time></trkpt><trkpt lat="41.4964888" lon="-0.0529853"><ele>270.0</ele><time>2026-05-04T10:06:49.768Z</time></trkpt><trkpt lat="41.4965537" lon="-0.0528098"><ele>270.0</ele><time>2026-05-04T10:06:50.769Z</time></trkpt><trkpt lat="41.4966263" lon="-0.0526401"><ele>270.0</ele><time>2026-05-04T10:06:51.769Z</time></trkpt><trkpt lat="41.4967042" lon="-0.0524747"><ele>270.0</ele><time>2026-05-04T10:06:52.769Z</time></trkpt><trkpt lat="41.4967819" lon="-0.0523077"><ele>270.0</ele><time>2026-05-04T10:06:53.769Z</time></trkpt><trkpt lat="41.4968649" lon="-0.0521401"><ele>270.0</ele><time>2026-05-04T10:06:54.77Z</time></trkpt><trkpt lat="41.496945" lon="-0.0519784"><ele>270.0</ele><time>2026-05-04T10:06:55.769Z</time></trkpt><trkpt lat="41.4970235" lon="-0.0518173"><ele>270.0</ele><time>2026-05-04T10:06:56.77Z</time></trkpt><trkpt lat="41.4971051" lon="-0.0516533"><ele>270.0</ele><time>2026-05-04T10:06:57.77Z</time></trkpt><trkpt lat="41.4971841" lon="-0.051492"><ele>270.0</ele><time>2026-05-04T10:06:58.77Z</time></trkpt><trkpt lat="41.4972643" lon="-0.0513332"><ele>270.0</ele><time>2026-05-04T10:06:59.77Z</time></trkpt><trkpt lat="41.4973457" lon="-0.0511719"><ele>270.0</ele><time>2026-05-04T10:07:00.77Z</time></trkpt><trkpt lat="41.4974264" lon="-0.0510171"><ele>270.0</ele><time>2026-05-04T10:07:01.77Z</time></trkpt><trkpt lat="41.4975085" lon="-0.0508597"><ele>270.0</ele><time>2026-05-04T10:07:02.769Z</time></trkpt><trkpt lat="41.4975919" lon="-0.0506975"><ele>270.0</ele><time>2026-05-04T10:07:03.77Z</time></trkpt><trkpt lat="41.4976778" lon="-0.0505412"><ele>270.0</ele><time>2026-05-04T10:07:04.77Z</time></trkpt><trkpt lat="41.4977599" lon="-0.0503821"><ele>269.5</ele><time>2026-05-04T10:07:05.77Z</time></trkpt><trkpt lat="41.497842" lon="-0.0502272"><ele>269.0</ele><time>2026-05-04T10:07:06.77Z</time></trkpt><trkpt lat="41.4979245" lon="-0.0500699"><ele>268.5</ele><time>2026-05-04T10:07:07.769Z</time></trkpt><trkpt lat="41.4980054" lon="-0.0499106"><ele>268.0</ele><time>2026-05-04T10:07:08.77Z</time></trkpt><trkpt lat="41.498086" lon="-0.0497472"><ele>268.0</ele><time>2026-05-04T10:07:09.77Z</time></trkpt><trkpt lat="41.4981633" lon="-0.0495833"><ele>268.0</ele><time>2026-05-04T10:07:10.77Z</time></trkpt><trkpt lat="41.4982388" lon="-0.0494224"><ele>268.0</ele><time>2026-05-04T10:07:11.77Z</time></trkpt><trkpt lat="41.4983104" lon="-0.0492542"><ele>268.0</ele><time>2026-05-04T10:07:12.77Z</time></trkpt><trkpt lat="41.4983872" lon="-0.0490907"><ele>267.25</ele><time>2026-05-04T10:07:13.77Z</time></trkpt><trkpt lat="41.4984542" lon="-0.0489259"><ele>266.5</ele><time>2026-05-04T10:07:14.77Z</time></trkpt><trkpt lat="41.4985163" lon="-0.0487553"><ele>265.75</ele><time>2026-05-04T10:07:15.77Z</time></trkpt><trkpt lat="41.4985725" lon="-0.0485834"><ele>265.0</ele><time>2026-05-04T10:07:16.77Z</time></trkpt><trkpt lat="41.4986244" lon="-0.0484065"><ele>264.5</ele><time>2026-05-04T10:07:17.77Z</time></trkpt><trkpt lat="41.4986761" lon="-0.0482326"><ele>264.0</ele><time>2026-05-04T10:07:18.77Z</time></trkpt><trkpt lat="41.4987251" lon="-0.0480601"><ele>263.5</ele><time>2026-05-04T10:07:19.77Z</time></trkpt><trkpt lat="41.498778" lon="-0.0478874"><ele>263.0</ele><time>2026-05-04T10:07:20.77Z</time></trkpt><trkpt lat="41.4988235" lon="-0.0477155"><ele>263.75</ele><time>2026-05-04T10:07:21.77Z</time></trkpt><trkpt lat="41.4988702" lon="-0.0475437"><ele>264.5</ele><time>2026-05-04T10:07:22.77Z</time></trkpt><trkpt lat="41.4989172" lon="-0.047367"><ele>265.25</ele><time>2026-05-04T10:07:23.769Z</time></trkpt><trkpt lat="41.4989633" lon="-0.0471958"><ele>266.0</ele><time>2026-05-04T10:07:24.77Z</time></trkpt><trkpt lat="41.4990098" lon="-0.0470253"><ele>266.0</ele><time>2026-05-04T10:07:25.769Z</time></trkpt><trkpt lat="41.4990552" lon="-0.0468535"><ele>266.0</ele><time>2026-05-04T10:07:26.769Z</time></trkpt><trkpt lat="41.4991023" lon="-0.0466821"><ele>266.0</ele><time>2026-05-04T10:07:27.769Z</time></trkpt><trkpt lat="41.4991473" lon="-0.0465144"><ele>266.0</ele><time>2026-05-04T10:07:28.769Z</time></trkpt><trkpt lat="41.4991938" lon="-0.0463453"><ele>265.25</ele><time>2026-05-04T10:07:29.769Z</time></trkpt><trkpt lat="41.4992412" lon="-0.0461738"><ele>264.5</ele><time>2026-05-04T10:07:30.769Z</time></trkpt><trkpt lat="41.4992904" lon="-0.0459968"><ele>263.75</ele><time>2026-05-04T10:07:31.769Z</time></trkpt><trkpt lat="41.4993426" lon="-0.045825"><ele>263.0</ele><time>2026-05-04T10:07:32.768Z</time></trkpt><trkpt lat="41.4993862" lon="-0.0456506"><ele>263.0</ele><time>2026-05-04T10:07:33.768Z</time></trkpt><trkpt lat="41.4994225" lon="-0.0454776"><ele>263.0</ele><time>2026-05-04T10:07:34.769Z</time></trkpt><trkpt lat="41.4994586" lon="-0.0453015"><ele>263.0</ele><time>2026-05-04T10:07:35.769Z</time></trkpt><trkpt lat="41.4994932" lon="-0.045118"><ele>263.0</ele><time>2026-05-04T10:07:36.769Z</time></trkpt><trkpt lat="41.4995212" lon="-0.044933"><ele>262.5</ele><time>2026-05-04T10:07:37.768Z</time></trkpt><trkpt lat="41.499532" lon="-0.0447427"><ele>262.0</ele><time>2026-05-04T10:07:38.769Z</time></trkpt><trkpt lat="41.4995375" lon="-0.0445502"><ele>261.5</ele><time>2026-05-04T10:07:39.769Z</time></trkpt><trkpt lat="41.4995398" lon="-0.0443618"><ele>261.0</ele><time>2026-05-04T10:07:40.769Z</time></trkpt><trkpt lat="41.499533" lon="-0.0441684"><ele>261.25</ele><time>2026-05-04T10:07:41.769Z</time></trkpt><trkpt lat="41.4995182" lon="-0.0439793"><ele>261.5</ele><time>2026-05-04T10:07:42.769Z</time></trkpt><trkpt lat="41.4994971" lon="-0.0437883"><ele>261.75</ele><time>2026-05-04T10:07:43.769Z</time></trkpt><trkpt lat="41.4994786" lon="-0.043604"><ele>262.0</ele><time>2026-05-04T10:07:44.768Z</time></trkpt><trkpt lat="41.4994555" lon="-0.0434189"><ele>262.25</ele><time>2026-05-04T10:07:45.768Z</time></trkpt><trkpt lat="41.4994304" lon="-0.0432223"><ele>262.5</ele><time>2026-05-04T10:07:46.769Z</time></trkpt><trkpt lat="41.4994014" lon="-0.0430303"><ele>262.75</ele><time>2026-05-04T10:07:47.769Z</time></trkpt><trkpt lat="41.4993842" lon="-0.0428428"><ele>263.0</ele><time>2026-05-04T10:07:48.769Z</time></trkpt><trkpt lat="41.4993634" lon="-0.0426562"><ele>263.0</ele><time>2026-05-04T10:07:49.769Z</time></trkpt><trkpt lat="41.4993419" lon="-0.0424712"><ele>263.0</ele><time>2026-05-04T10:07:50.769Z</time></trkpt><trkpt lat="41.4993186" lon="-0.0422741"><ele>263.0</ele><time>2026-05-04T10:07:51.769Z</time></trkpt><trkpt lat="41.4992972" lon="-0.0420741"><ele>263.0</ele><time>2026-05-04T10:07:52.769Z</time></trkpt><trkpt lat="41.4992771" lon="-0.0418856"><ele>261.75</ele><time>2026-05-04T10:07:53.769Z</time></trkpt><trkpt lat="41.4992509" lon="-0.041695"><ele>260.5</ele><time>2026-05-04T10:07:54.768Z</time></trkpt><trkpt lat="41.4992243" lon="-0.0414973"><ele>259.25</ele><time>2026-05-04T10:07:55.769Z</time></trkpt><trkpt lat="41.4992022" lon="-0.0413017"><ele>258.0</ele><time>2026-05-04T10:07:56.769Z</time></trkpt><trkpt lat="41.4991787" lon="-0.0411044"><ele>257.5</ele><time>2026-05-04T10:07:57.769Z</time></trkpt><trkpt lat="41.4991567" lon="-0.0409162"><ele>257.0</ele><time>2026-05-04T10:07:58.769Z</time></trkpt><trkpt lat="41.4991324" lon="-0.0407275"><ele>256.5</ele><time>2026-05-04T10:07:59.769Z</time></trkpt><trkpt lat="41.4991082" lon="-0.040533"><ele>256.0</ele><time>2026-05-04T10:08:00.768Z</time></trkpt><trkpt lat="41.4990865" lon="-0.0403403"><ele>255.66666666666666</ele><time>2026-05-04T10:08:01.769Z</time></trkpt><trkpt lat="41.4990627" lon="-0.0401387"><ele>255.33333333333331</ele><time>2026-05-04T10:08:02.768Z</time></trkpt><trkpt lat="41.4990375" lon="-0.0399409"><ele>255.0</ele><time>2026-05-04T10:08:03.768Z</time></trkpt><trkpt lat="41.4990143" lon="-0.0397435"><ele>253.33333333333331</ele><time>2026-05-04T10:08:04.769Z</time></trkpt><trkpt lat="41.4989907" lon="-0.0395463"><ele>251.66666666666666</ele><time>2026-05-04T10:08:05.769Z</time></trkpt><trkpt lat="41.4989671" lon="-0.0393392"><ele>250.0</ele><time>2026-05-04T10:08:06.769Z</time></trkpt><trkpt lat="41.4989447" lon="-0.0391404"><ele>250.33333333333331</ele><time>2026-05-04T10:08:07.769Z</time></trkpt><trkpt lat="41.4989211" lon="-0.0389425"><ele>250.66666666666669</ele><time>2026-05-04T10:08:08.769Z</time></trkpt><trkpt lat="41.4989019" lon="-0.0387412"><ele>251.0</ele><time>2026-05-04T10:08:09.769Z</time></trkpt><trkpt lat="41.4988819" lon="-0.0385423"><ele>251.0</ele><time>2026-05-04T10:08:10.769Z</time></trkpt><trkpt lat="41.4988618" lon="-0.0383432"><ele>251.0</ele><time>2026-05-04T10:08:11.769Z</time></trkpt><trkpt lat="41.4988546" lon="-0.0381463"><ele>251.0</ele><time>2026-05-04T10:08:12.769Z</time></trkpt><trkpt lat="41.4988567" lon="-0.0379587"><ele>251.0</ele><time>2026-05-04T10:08:13.768Z</time></trkpt><trkpt lat="41.4988658" lon="-0.037765"><ele>250.5</ele><time>2026-05-04T10:08:14.768Z</time></trkpt><trkpt lat="41.4988835" lon="-0.0375727"><ele>250.0</ele><time>2026-05-04T10:08:15.769Z</time></trkpt><trkpt lat="41.4989063" lon="-0.0373877"><ele>249.5</ele><time>2026-05-04T10:08:16.77Z</time></trkpt><trkpt lat="41.4989348" lon="-0.0372067"><ele>249.0</ele><time>2026-05-04T10:08:17.77Z</time></trkpt><trkpt lat="41.4989676" lon="-0.0370206"><ele>248.5</ele><time>2026-05-04T10:08:18.77Z</time></trkpt><trkpt lat="41.4990065" lon="-0.0368393"><ele>248.0</ele><time>2026-05-04T10:08:19.769Z</time></trkpt><trkpt lat="41.4990419" lon="-0.0366557"><ele>247.5</ele><time>2026-05-04T10:08:20.769Z</time></trkpt><trkpt lat="41.4990762" lon="-0.0364688"><ele>247.0</ele><time>2026-05-04T10:08:21.77Z</time></trkpt><trkpt lat="41.4991109" lon="-0.03629"><ele>247.0</ele><time>2026-05-04T10:08:22.77Z</time></trkpt><trkpt lat="41.499144" lon="-0.0361087"><ele>247.0</ele><time>2026-05-04T10:08:23.77Z</time></trkpt><trkpt lat="41.4991808" lon="-0.0359305"><ele>247.0</ele><time>2026-05-04T10:08:24.77Z</time></trkpt><trkpt lat="41.4992172" lon="-0.0357518"><ele>247.0</ele><time>2026-05-04T10:08:25.77Z</time></trkpt><trkpt lat="41.4992548" lon="-0.0355762"><ele>247.25</ele><time>2026-05-04T10:08:26.77Z</time></trkpt><trkpt lat="41.4992905" lon="-0.0354001"><ele>247.5</ele><time>2026-05-04T10:08:27.77Z</time></trkpt><trkpt lat="41.4993291" lon="-0.0352273"><ele>247.75</ele><time>2026-05-04T10:08:28.77Z</time></trkpt><trkpt lat="41.4993684" lon="-0.0350471"><ele>248.0</ele><time>2026-05-04T10:08:29.77Z</time></trkpt><trkpt lat="41.4994027" lon="-0.0348676"><ele>248.5</ele><time>2026-05-04T10:08:30.77Z</time></trkpt><trkpt lat="41.499435" lon="-0.034696"><ele>249.0</ele><time>2026-05-04T10:08:31.77Z</time></trkpt><trkpt lat="41.4994729" lon="-0.0345182"><ele>249.5</ele><time>2026-05-04T10:08:32.77Z</time></trkpt><trkpt lat="41.4995118" lon="-0.0343408"><ele>250.0</ele><time>2026-05-04T10:08:33.77Z</time></trkpt><trkpt lat="41.499548" lon="-0.0341611"><ele>251.0</ele><time>2026-05-04T10:08:34.769Z</time></trkpt><trkpt lat="41.499588" lon="-0.0339875"><ele>252.0</ele><time>2026-05-04T10:08:35.77Z</time></trkpt><trkpt lat="41.499626" lon="-0.0338082"><ele>253.0</ele><time>2026-05-04T10:08:36.769Z</time></trkpt><trkpt lat="41.4996651" lon="-0.033628"><ele>254.0</ele><time>2026-05-04T10:08:37.77Z</time></trkpt><trkpt lat="41.4997047" lon="-0.0334424"><ele>254.0</ele><time>2026-05-04T10:08:38.77Z</time></trkpt><trkpt lat="41.4997469" lon="-0.0332532"><ele>254.0</ele><time>2026-05-04T10:08:39.77Z</time></trkpt><trkpt lat="41.4997809" lon="-0.0330682"><ele>254.0</ele><time>2026-05-04T10:08:40.77Z</time></trkpt><trkpt lat="41.4998241" lon="-0.0328802"><ele>254.0</ele><time>2026-05-04T10:08:41.77Z</time></trkpt><trkpt lat="41.4998656" lon="-0.0326989"><ele>254.0</ele><time>2026-05-04T10:08:42.77Z</time></trkpt><trkpt lat="41.4999082" lon="-0.0325139"><ele>254.0</ele><time>2026-05-04T10:08:43.77Z</time></trkpt><trkpt lat="41.4999473" lon="-0.0323312"><ele>254.0</ele><time>2026-05-04T10:08:44.77Z</time></trkpt><trkpt lat="41.4999836" lon="-0.0321455"><ele>254.0</ele><time>2026-05-04T10:08:45.77Z</time></trkpt><trkpt lat="41.5000277" lon="-0.0319574"><ele>254.75</ele><time>2026-05-04T10:08:46.77Z</time></trkpt><trkpt lat="41.5000657" lon="-0.0317728"><ele>255.5</ele><time>2026-05-04T10:08:47.77Z</time></trkpt><trkpt lat="41.5001027" lon="-0.0315905"><ele>256.25</ele><time>2026-05-04T10:08:48.77Z</time></trkpt><trkpt lat="41.5001355" lon="-0.0314087"><ele>257.0</ele><time>2026-05-04T10:08:49.77Z</time></trkpt><trkpt lat="41.5001745" lon="-0.0312306"><ele>258.0</ele><time>2026-05-04T10:08:50.77Z</time></trkpt><trkpt lat="41.5002154" lon="-0.0310582"><ele>259.0</ele><time>2026-05-04T10:08:51.769Z</time></trkpt><trkpt lat="41.5002532" lon="-0.0308905"><ele>260.0</ele><time>2026-05-04T10:08:52.77Z</time></trkpt><trkpt lat="41.5002836" lon="-0.0307224"><ele>261.0</ele><time>2026-05-04T10:08:53.77Z</time></trkpt><trkpt lat="41.5003199" lon="-0.0305535"><ele>261.0</ele><time>2026-05-04T10:08:54.77Z</time></trkpt><trkpt lat="41.5003661" lon="-0.0303929"><ele>261.0</ele><time>2026-05-04T10:08:55.77Z</time></trkpt><trkpt lat="41.5004158" lon="-0.0302375"><ele>261.0</ele><time>2026-05-04T10:08:56.769Z</time></trkpt><trkpt lat="41.5004538" lon="-0.0300949"><ele>261.0</ele><time>2026-05-04T10:08:57.77Z</time></trkpt><trkpt lat="41.5004846" lon="-0.0299592"><ele>261.5</ele><time>2026-05-04T10:08:58.77Z</time></trkpt><trkpt lat="41.5005079" lon="-0.0298317"><ele>262.0</ele><time>2026-05-04T10:08:59.77Z</time></trkpt><trkpt lat="41.5005277" lon="-0.029712"><ele>262.5</ele><time>2026-05-04T10:09:00.77Z</time></trkpt><trkpt lat="41.500545" lon="-0.0296133"><ele>263.0</ele><time>2026-05-04T10:09:01.77Z</time></trkpt><trkpt lat="41.5005685" lon="-0.0294871"><ele>263.5</ele><time>2026-05-04T10:09:03.77Z</time></trkpt><trkpt lat="41.5005762" lon="-0.0293789"><ele>264.0</ele><time>2026-05-04T10:09:05.77Z</time></trkpt><trkpt lat="41.5005784" lon="-0.0292629"><ele>264.0</ele><time>2026-05-04T10:09:07.77Z</time></trkpt><trkpt lat="41.5005802" lon="-0.0291472"><ele>264.0</ele><time>2026-05-04T10:09:09.769Z</time></trkpt><trkpt lat="41.5005843" lon="-0.029033"><ele>264.0</ele><time>2026-05-04T10:09:11.769Z</time></trkpt><trkpt lat="41.5005738" lon="-0.0289203"><ele>264.0</ele><time>2026-05-04T10:09:14.769Z</time></trkpt><trkpt lat="41.5005462" lon="-0.0288216"><ele>264.0</ele><time>2026-05-04T10:09:18.77Z</time></trkpt><trkpt lat="41.5005443" lon="-0.0287322"><ele>264.0</ele><time>2026-05-04T10:09:21.77Z</time></trkpt><trkpt lat="41.5005653" lon="-0.0286279"><ele>263.8333333333333</ele><time>2026-05-04T10:09:48.77Z</time></trkpt><trkpt lat="41.5005797" lon="-0.0284582"><ele>263.6666666666667</ele><time>2026-05-04T10:09:50.77Z</time></trkpt><trkpt lat="41.5005851" lon="-0.0283568"><ele>263.5</ele><time>2026-05-04T10:09:51.77Z</time></trkpt><trkpt lat="41.5005895" lon="-0.0282586"><ele>263.33333333333337</ele><time>2026-05-04T10:09:52.77Z</time></trkpt><trkpt lat="41.5005936" lon="-0.0281562"><ele>263.1666666666667</ele><time>2026-05-04T10:09:53.77Z</time></trkpt><trkpt lat="41.5005972" lon="-0.0280598"><ele>263.0</ele><time>2026-05-04T10:09:54.769Z</time></trkpt><trkpt lat="41.5006049" lon="-0.0279637"><ele>263.5</ele><time>2026-05-04T10:09:55.77Z</time></trkpt><trkpt lat="41.5006101" lon="-0.0278691"><ele>264.0</ele><time>2026-05-04T10:09:56.769Z</time></trkpt><trkpt lat="41.5006105" lon="-0.0277806"><ele>264.5</ele><time>2026-05-04T10:09:57.77Z</time></trkpt><trkpt lat="41.5006094" lon="-0.0276902"><ele>265.0</ele><time>2026-05-04T10:09:58.77Z</time></trkpt><trkpt lat="41.500596" lon="-0.0275351"><ele>265.5</ele><time>2026-05-04T10:10:00.769Z</time></trkpt><trkpt lat="41.500597" lon="-0.0274082"><ele>266.0</ele><time>2026-05-04T10:10:02.77Z</time></trkpt><trkpt lat="41.5006563" lon="-0.0273696"><ele>265.7142857142857</ele><time>2026-05-04T10:10:04.77Z</time></trkpt><trkpt lat="41.5007168" lon="-0.0273208"><ele>265.42857142857144</ele><time>2026-05-04T10:10:07.769Z</time></trkpt><trkpt lat="41.5006873" lon="-0.027246"><ele>265.1428571428571</ele><time>2026-05-04T10:10:12.77Z</time></trkpt><trkpt lat="41.500623" lon="-0.0272974"><ele>264.8571428571429</ele><time>2026-05-04T10:18:10.774Z</time></trkpt><trkpt lat="41.5005592" lon="-0.0272534"><ele>264.57142857142856</ele><time>2026-05-04T10:18:17.774Z</time></trkpt><trkpt lat="41.5004944" lon="-0.0272165"><ele>264.2857142857143</ele><time>2026-05-04T10:18:21.774Z</time></trkpt><trkpt lat="41.5004442" lon="-0.0271132"><ele>264.0</ele><time>2026-05-04T10:18:58.774Z</time></trkpt><trkpt lat="41.5004037" lon="-0.0269531"><ele>264.0</ele><time>2026-05-04T10:19:00.773Z</time></trkpt><trkpt lat="41.5003781" lon="-0.0268507"><ele>264.0</ele><time>2026-05-04T10:19:01.774Z</time></trkpt><trkpt lat="41.5003613" lon="-0.0267496"><ele>264.0</ele><time>2026-05-04T10:19:02.774Z</time></trkpt><trkpt lat="41.5003557" lon="-0.0266578"><ele>264.0</ele><time>2026-05-04T10:19:03.773Z</time></trkpt><trkpt lat="41.5003497" lon="-0.0265714"><ele>264.0</ele><time>2026-05-04T10:19:04.774Z</time></trkpt><trkpt lat="41.5003445" lon="-0.0263872"><ele>264.0</ele><time>2026-05-04T10:19:06.774Z</time></trkpt><trkpt lat="41.5003457" lon="-0.0262888"><ele>264.1666666666667</ele><time>2026-05-04T10:19:07.774Z</time></trkpt><trkpt lat="41.500345" lon="-0.0261961"><ele>264.3333333333333</ele><time>2026-05-04T10:19:08.774Z</time></trkpt><trkpt lat="41.5003447" lon="-0.02611"><ele>264.5</ele><time>2026-05-04T10:19:09.774Z</time></trkpt><trkpt lat="41.5003427" lon="-0.0260196"><ele>264.66666666666663</ele><time>2026-05-04T10:19:10.774Z</time></trkpt><trkpt lat="41.500347" lon="-0.0258753"><ele>264.8333333333333</ele><time>2026-05-04T10:19:12.774Z</time></trkpt><trkpt lat="41.500353" lon="-0.025749"><ele>265.0</ele><time>2026-05-04T10:19:14.774Z</time></trkpt><trkpt lat="41.5003546" lon="-0.0256475"><ele>265.0</ele><time>2026-05-04T10:19:16.774Z</time></trkpt><trkpt lat="41.5003628" lon="-0.0255538"><ele>265.0</ele><time>2026-05-04T10:19:18.775Z</time></trkpt><trkpt lat="41.5003699" lon="-0.0254622"><ele>265.0</ele><time>2026-05-04T10:19:20.775Z</time></trkpt><trkpt lat="41.500383" lon="-0.0253683"><ele>265.0</ele><time>2026-05-04T10:19:22.775Z</time></trkpt><trkpt lat="41.5004044" lon="-0.0252672"><ele>265.0</ele><time>2026-05-04T10:19:24.775Z</time></trkpt><trkpt lat="41.500422" lon="-0.0251678"><ele>265.0</ele><time>2026-05-04T10:19:26.775Z</time></trkpt><trkpt lat="41.5004435" lon="-0.025016"><ele>265.3333333333333</ele><time>2026-05-04T10:19:28.775Z</time></trkpt><trkpt lat="41.5004596" lon="-0.0249171"><ele>265.66666666666663</ele><time>2026-05-04T10:19:29.775Z</time></trkpt><trkpt lat="41.500478" lon="-0.0248093"><ele>266.0</ele><time>2026-05-04T10:19:30.775Z</time></trkpt><trkpt lat="41.5004973" lon="-0.0246874"><ele>266.3333333333333</ele><time>2026-05-04T10:19:31.775Z</time></trkpt><trkpt lat="41.5005197" lon="-0.0245568"><ele>266.6666666666667</ele><time>2026-05-04T10:19:32.774Z</time></trkpt><trkpt lat="41.5005388" lon="-0.0244357"><ele>267.0</ele><time>2026-05-04T10:19:33.775Z</time></trkpt><trkpt lat="41.5005559" lon="-0.0243178"><ele>267.0</ele><time>2026-05-04T10:19:34.775Z</time></trkpt><trkpt lat="41.5005774" lon="-0.0242053"><ele>267.0</ele><time>2026-05-04T10:19:35.775Z</time></trkpt><trkpt lat="41.5005983" lon="-0.0240962"><ele>267.0</ele><time>2026-05-04T10:19:36.775Z</time></trkpt><trkpt lat="41.5006204" lon="-0.0239823"><ele>267.0</ele><time>2026-05-04T10:19:37.775Z</time></trkpt><trkpt lat="41.5006406" lon="-0.0238702"><ele>267.0</ele><time>2026-05-04T10:19:38.775Z</time></trkpt><trkpt lat="41.5006621" lon="-0.0237508"><ele>267.0</ele><time>2026-05-04T10:19:39.775Z</time></trkpt><trkpt lat="41.5006832" lon="-0.0236251"><ele>267.8</ele><time>2026-05-04T10:19:40.775Z</time></trkpt><trkpt lat="41.5007067" lon="-0.0234967"><ele>268.6</ele><time>2026-05-04T10:19:41.775Z</time></trkpt><trkpt lat="41.5007291" lon="-0.0233709"><ele>269.40000000000003</ele><time>2026-05-04T10:19:42.775Z</time></trkpt><trkpt lat="41.5007497" lon="-0.0232402"><ele>270.2</ele><time>2026-05-04T10:19:43.775Z</time></trkpt><trkpt lat="41.5007722" lon="-0.0231102"><ele>271.0</ele><time>2026-05-04T10:19:44.775Z</time></trkpt><trkpt lat="41.5007937" lon="-0.0229838"><ele>272.2</ele><time>2026-05-04T10:19:45.774Z</time></trkpt><trkpt lat="41.5008195" lon="-0.0228547"><ele>273.40000000000003</ele><time>2026-05-04T10:19:46.775Z</time></trkpt><trkpt lat="41.5008445" lon="-0.0227282"><ele>274.6</ele><time>2026-05-04T10:19:47.774Z</time></trkpt><trkpt lat="41.5008686" lon="-0.0225978"><ele>275.8</ele><time>2026-05-04T10:19:48.775Z</time></trkpt><trkpt lat="41.5008933" lon="-0.022468"><ele>277.0</ele><time>2026-05-04T10:19:49.775Z</time></trkpt><trkpt lat="41.5009139" lon="-0.0223417"><ele>277.6</ele><time>2026-05-04T10:19:50.775Z</time></trkpt><trkpt lat="41.5009343" lon="-0.0222183"><ele>278.2</ele><time>2026-05-04T10:19:51.774Z</time></trkpt><trkpt lat="41.5009577" lon="-0.0220869"><ele>278.8</ele><time>2026-05-04T10:19:52.775Z</time></trkpt><trkpt lat="41.5009798" lon="-0.0219549"><ele>279.4</ele><time>2026-05-04T10:19:53.774Z</time></trkpt><trkpt lat="41.5009992" lon="-0.0218211"><ele>280.0</ele><time>2026-05-04T10:19:54.775Z</time></trkpt><trkpt lat="41.5010285" lon="-0.0216924"><ele>280.8</ele><time>2026-05-04T10:19:55.775Z</time></trkpt><trkpt lat="41.5010562" lon="-0.0215631"><ele>281.6</ele><time>2026-05-04T10:19:56.775Z</time></trkpt><trkpt lat="41.5010819" lon="-0.0214311"><ele>282.4</ele><time>2026-05-04T10:19:57.775Z</time></trkpt><trkpt lat="41.5011066" lon="-0.0212918"><ele>283.2</ele><time>2026-05-04T10:19:58.774Z</time></trkpt><trkpt lat="41.5011286" lon="-0.0211568"><ele>284.0</ele><time>2026-05-04T10:19:59.775Z</time></trkpt><trkpt lat="41.5011515" lon="-0.0210221"><ele>284.0</ele><time>2026-05-04T10:20:00.774Z</time></trkpt><trkpt lat="41.5011781" lon="-0.0208818"><ele>284.0</ele><time>2026-05-04T10:20:01.775Z</time></trkpt><trkpt lat="41.5012082" lon="-0.0207489"><ele>284.0</ele><time>2026-05-04T10:20:02.775Z</time></trkpt><trkpt lat="41.501232" lon="-0.0206102"><ele>284.0</ele><time>2026-05-04T10:20:03.775Z</time></trkpt><trkpt lat="41.5012585" lon="-0.0204705"><ele>284.0</ele><time>2026-05-04T10:20:04.775Z</time></trkpt><trkpt lat="41.5012829" lon="-0.0203314"><ele>284.4</ele><time>2026-05-04T10:20:05.775Z</time></trkpt><trkpt lat="41.5013111" lon="-0.0201896"><ele>284.79999999999995</ele><time>2026-05-04T10:20:06.774Z</time></trkpt><trkpt lat="41.5013372" lon="-0.0200503"><ele>285.20000000000005</ele><time>2026-05-04T10:20:07.775Z</time></trkpt><trkpt lat="41.501362" lon="-0.01991"><ele>285.6</ele><time>2026-05-04T10:20:08.775Z</time></trkpt><trkpt lat="41.5013891" lon="-0.0197703"><ele>286.0</ele><time>2026-05-04T10:20:09.775Z</time></trkpt><trkpt lat="41.5014186" lon="-0.0196282"><ele>286.0</ele><time>2026-05-04T10:20:10.774Z</time></trkpt><trkpt lat="41.5014424" lon="-0.0194907"><ele>286.0</ele><time>2026-05-04T10:20:11.775Z</time></trkpt><trkpt lat="41.5014688" lon="-0.01935"><ele>286.0</ele><time>2026-05-04T10:20:12.775Z</time></trkpt><trkpt lat="41.5015038" lon="-0.019218"><ele>286.0</ele><time>2026-05-04T10:20:13.775Z</time></trkpt><trkpt lat="41.5015399" lon="-0.0190837"><ele>286.0</ele><time>2026-05-04T10:20:14.775Z</time></trkpt><trkpt lat="41.5015812" lon="-0.0189462"><ele>287.25</ele><time>2026-05-04T10:20:15.775Z</time></trkpt><trkpt lat="41.5016229" lon="-0.0188155"><ele>288.5</ele><time>2026-05-04T10:20:16.775Z</time></trkpt><trkpt lat="41.5016636" lon="-0.0186753"><ele>289.75</ele><time>2026-05-04T10:20:17.775Z</time></trkpt><trkpt lat="41.5017136" lon="-0.018534"><ele>291.0</ele><time>2026-05-04T10:20:18.775Z</time></trkpt><trkpt lat="41.5017666" lon="-0.0183974"><ele>292.0</ele><time>2026-05-04T10:20:19.775Z</time></trkpt><trkpt lat="41.5018213" lon="-0.0182651"><ele>293.0</ele><time>2026-05-04T10:20:20.775Z</time></trkpt><trkpt lat="41.5018785" lon="-0.0181302"><ele>294.0</ele><time>2026-05-04T10:20:21.775Z</time></trkpt><trkpt lat="41.5019424" lon="-0.0179986"><ele>295.0</ele><time>2026-05-04T10:20:22.774Z</time></trkpt><trkpt lat="41.5020044" lon="-0.017869"><ele>295.0</ele><time>2026-05-04T10:20:23.775Z</time></trkpt><trkpt lat="41.5020684" lon="-0.0177329"><ele>295.0</ele><time>2026-05-04T10:20:24.775Z</time></trkpt><trkpt lat="41.5021346" lon="-0.0175914"><ele>295.0</ele><time>2026-05-04T10:20:25.775Z</time></trkpt><trkpt lat="41.5021991" lon="-0.0174467"><ele>295.0</ele><time>2026-05-04T10:20:26.775Z</time></trkpt><trkpt lat="41.5022672" lon="-0.0173045"><ele>295.25</ele><time>2026-05-04T10:20:27.775Z</time></trkpt><trkpt lat="41.5023364" lon="-0.017156"><ele>295.5</ele><time>2026-05-04T10:20:28.774Z</time></trkpt><trkpt lat="41.5024056" lon="-0.0170078"><ele>295.75</ele><time>2026-05-04T10:20:29.775Z</time></trkpt><trkpt lat="41.5024779" lon="-0.0168597"><ele>296.0</ele><time>2026-05-04T10:20:30.775Z</time></trkpt><trkpt lat="41.5025359" lon="-0.0167215"><ele>296.2</ele><time>2026-05-04T10:20:31.774Z</time></trkpt><trkpt lat="41.5025972" lon="-0.0165978"><ele>296.40000000000003</ele><time>2026-05-04T10:20:32.775Z</time></trkpt><trkpt lat="41.5026577" lon="-0.0164745"><ele>296.6</ele><time>2026-05-04T10:20:33.775Z</time></trkpt><trkpt lat="41.5027153" lon="-0.0163584"><ele>296.8</ele><time>2026-05-04T10:20:34.775Z</time></trkpt><trkpt lat="41.502768" lon="-0.0162362"><ele>297.0</ele><time>2026-05-04T10:20:35.775Z</time></trkpt><trkpt lat="41.5028285" lon="-0.0161059"><ele>297.0</ele><time>2026-05-04T10:20:36.774Z</time></trkpt><trkpt lat="41.5028922" lon="-0.0159731"><ele>297.0</ele><time>2026-05-04T10:20:37.775Z</time></trkpt><trkpt lat="41.5029595" lon="-0.0158354"><ele>297.0</ele><time>2026-05-04T10:20:38.775Z</time></trkpt><trkpt lat="41.5030313" lon="-0.015687"><ele>297.0</ele><time>2026-05-04T10:20:39.774Z</time></trkpt><trkpt lat="41.5031002" lon="-0.0155406"><ele>296.0</ele><time>2026-05-04T10:20:40.774Z</time></trkpt><trkpt lat="41.5031688" lon="-0.0153984"><ele>295.0</ele><time>2026-05-04T10:20:41.774Z</time></trkpt><trkpt lat="41.5032304" lon="-0.0152604"><ele>294.0</ele><time>2026-05-04T10:20:42.775Z</time></trkpt><trkpt lat="41.5032866" lon="-0.0151261"><ele>293.0</ele><time>2026-05-04T10:20:43.774Z</time></trkpt><trkpt lat="41.5033481" lon="-0.0149892"><ele>292.4</ele><time>2026-05-04T10:20:44.774Z</time></trkpt><trkpt lat="41.5034071" lon="-0.0148612"><ele>291.8</ele><time>2026-05-04T10:20:45.775Z</time></trkpt><trkpt lat="41.5034592" lon="-0.0147329"><ele>291.2</ele><time>2026-05-04T10:20:46.775Z</time></trkpt><trkpt lat="41.503509" lon="-0.0146087"><ele>290.6</ele><time>2026-05-04T10:20:47.775Z</time></trkpt><trkpt lat="41.5035547" lon="-0.0144903"><ele>290.0</ele><time>2026-05-04T10:20:48.775Z</time></trkpt><trkpt lat="41.5035964" lon="-0.014362"><ele>290.0</ele><time>2026-05-04T10:20:49.775Z</time></trkpt><trkpt lat="41.503639" lon="-0.0142374"><ele>290.0</ele><time>2026-05-04T10:20:50.775Z</time></trkpt><trkpt lat="41.5036748" lon="-0.0141134"><ele>290.0</ele><time>2026-05-04T10:20:51.775Z</time></trkpt><trkpt lat="41.5037118" lon="-0.0139879"><ele>290.0</ele><time>2026-05-04T10:20:52.775Z</time></trkpt><trkpt lat="41.5037491" lon="-0.0138555"><ele>290.0</ele><time>2026-05-04T10:20:53.775Z</time></trkpt><trkpt lat="41.5037818" lon="-0.0137112"><ele>287.75</ele><time>2026-05-04T10:20:54.775Z</time></trkpt><trkpt lat="41.50381" lon="-0.0135603"><ele>285.5</ele><time>2026-05-04T10:20:55.775Z</time></trkpt><trkpt lat="41.5038398" lon="-0.0134115"><ele>283.25</ele><time>2026-05-04T10:20:56.775Z</time></trkpt><trkpt lat="41.5038682" lon="-0.0132509"><ele>281.0</ele><time>2026-05-04T10:20:57.775Z</time></trkpt><trkpt lat="41.5038906" lon="-0.0130857"><ele>280.5</ele><time>2026-05-04T10:20:58.775Z</time></trkpt><trkpt lat="41.5039045" lon="-0.0129226"><ele>280.0</ele><time>2026-05-04T10:20:59.775Z</time></trkpt><trkpt lat="41.5039154" lon="-0.0127589"><ele>279.5</ele><time>2026-05-04T10:21:00.775Z</time></trkpt><trkpt lat="41.5039234" lon="-0.0125956"><ele>279.0</ele><time>2026-05-04T10:21:01.775Z</time></trkpt><trkpt lat="41.5039278" lon="-0.0124352"><ele>278.75</ele><time>2026-05-04T10:21:02.775Z</time></trkpt><trkpt lat="41.5039281" lon="-0.0122709"><ele>278.5</ele><time>2026-05-04T10:21:03.774Z</time></trkpt><trkpt lat="41.5039194" lon="-0.0121029"><ele>278.25</ele><time>2026-05-04T10:21:04.775Z</time></trkpt><trkpt lat="41.5039084" lon="-0.0119265"><ele>278.0</ele><time>2026-05-04T10:21:05.774Z</time></trkpt><trkpt lat="41.503892" lon="-0.0117469"><ele>276.75</ele><time>2026-05-04T10:21:06.775Z</time></trkpt><trkpt lat="41.5038743" lon="-0.0115642"><ele>275.5</ele><time>2026-05-04T10:21:07.774Z</time></trkpt><trkpt lat="41.5038535" lon="-0.0113744"><ele>274.25</ele><time>2026-05-04T10:21:08.775Z</time></trkpt><trkpt lat="41.5038232" lon="-0.0111836"><ele>273.0</ele><time>2026-05-04T10:21:09.775Z</time></trkpt><trkpt lat="41.5037893" lon="-0.0109912"><ele>271.3333333333333</ele><time>2026-05-04T10:21:10.775Z</time></trkpt><trkpt lat="41.5037535" lon="-0.0107977"><ele>269.66666666666663</ele><time>2026-05-04T10:21:11.775Z</time></trkpt><trkpt lat="41.5037239" lon="-0.0105998"><ele>268.0</ele><time>2026-05-04T10:21:12.774Z</time></trkpt><trkpt lat="41.5036853" lon="-0.0103988"><ele>267.66666666666663</ele><time>2026-05-04T10:21:13.775Z</time></trkpt><trkpt lat="41.5036582" lon="-0.0101992"><ele>267.3333333333333</ele><time>2026-05-04T10:21:14.775Z</time></trkpt><trkpt lat="41.5036252" lon="-0.0100017"><ele>267.0</ele><time>2026-05-04T10:21:15.775Z</time></trkpt><trkpt lat="41.5035915" lon="-0.0097998"><ele>266.3333333333333</ele><time>2026-05-04T10:21:16.775Z</time></trkpt><trkpt lat="41.5035548" lon="-0.0096025"><ele>265.66666666666663</ele><time>2026-05-04T10:21:17.775Z</time></trkpt><trkpt lat="41.5035168" lon="-0.0093969"><ele>265.0</ele><time>2026-05-04T10:21:18.775Z</time></trkpt><trkpt lat="41.50348" lon="-0.0091902"><ele>266.66666666666663</ele><time>2026-05-04T10:21:19.775Z</time></trkpt><trkpt lat="41.5034452" lon="-0.0089864"><ele>268.3333333333333</ele><time>2026-05-04T10:21:20.775Z</time></trkpt><trkpt lat="41.5034166" lon="-0.0087849"><ele>270.0</ele><time>2026-05-04T10:21:21.775Z</time></trkpt><trkpt lat="41.5033817" lon="-0.008584"><ele>270.0</ele><time>2026-05-04T10:21:22.775Z</time></trkpt><trkpt lat="41.503348" lon="-0.0083871"><ele>270.0</ele><time>2026-05-04T10:21:23.775Z</time></trkpt><trkpt lat="41.5033142" lon="-0.0081876"><ele>270.0</ele><time>2026-05-04T10:21:24.775Z</time></trkpt><trkpt lat="41.5032825" lon="-0.0079895"><ele>271.75</ele><time>2026-05-04T10:21:25.775Z</time></trkpt><trkpt lat="41.5032462" lon="-0.0077976"><ele>273.5</ele><time>2026-05-04T10:21:26.775Z</time></trkpt><trkpt lat="41.5032108" lon="-0.0076013"><ele>275.25</ele><time>2026-05-04T10:21:27.774Z</time></trkpt><trkpt lat="41.5031764" lon="-0.0074099"><ele>277.0</ele><time>2026-05-04T10:21:28.775Z</time></trkpt><trkpt lat="41.5031446" lon="-0.0072285"><ele>277.25</ele><time>2026-05-04T10:21:29.775Z</time></trkpt><trkpt lat="41.5031158" lon="-0.0070609"><ele>277.5</ele><time>2026-05-04T10:21:30.775Z</time></trkpt><trkpt lat="41.5030826" lon="-0.0068936"><ele>277.75</ele><time>2026-05-04T10:21:31.774Z</time></trkpt><trkpt lat="41.5030479" lon="-0.0067188"><ele>278.0</ele><time>2026-05-04T10:21:32.775Z</time></trkpt><trkpt lat="41.5030179" lon="-0.0065446"><ele>277.25</ele><time>2026-05-04T10:21:33.775Z</time></trkpt><trkpt lat="41.5029894" lon="-0.0063633"><ele>276.5</ele><time>2026-05-04T10:21:34.774Z</time></trkpt><trkpt lat="41.50296" lon="-0.0061768"><ele>275.75</ele><time>2026-05-04T10:21:35.775Z</time></trkpt><trkpt lat="41.5029309" lon="-0.0060009"><ele>275.0</ele><time>2026-05-04T10:21:36.775Z</time></trkpt><trkpt lat="41.5029016" lon="-0.0058238"><ele>274.0</ele><time>2026-05-04T10:21:37.775Z</time></trkpt><trkpt lat="41.5028689" lon="-0.0056486"><ele>273.0</ele><time>2026-05-04T10:21:38.775Z</time></trkpt><trkpt lat="41.5028334" lon="-0.0054652"><ele>272.0</ele><time>2026-05-04T10:21:39.775Z</time></trkpt><trkpt lat="41.5028015" lon="-0.0052825"><ele>271.0</ele><time>2026-05-04T10:21:40.774Z</time></trkpt><trkpt lat="41.5027741" lon="-0.0051042"><ele>271.5</ele><time>2026-05-04T10:21:41.775Z</time></trkpt><trkpt lat="41.5027414" lon="-0.004916"><ele>272.0</ele><time>2026-05-04T10:21:42.775Z</time></trkpt><trkpt lat="41.5027129" lon="-0.0047278"><ele>272.5</ele><time>2026-05-04T10:21:43.775Z</time></trkpt><trkpt lat="41.502685" lon="-0.0045503"><ele>273.0</ele><time>2026-05-04T10:21:44.776Z</time></trkpt><trkpt lat="41.5026577" lon="-0.0043802"><ele>273.0</ele><time>2026-05-04T10:21:45.776Z</time></trkpt><trkpt lat="41.5026302" lon="-0.004207"><ele>273.0</ele><time>2026-05-04T10:21:46.776Z</time></trkpt><trkpt lat="41.5026096" lon="-0.0040367"><ele>273.0</ele><time>2026-05-04T10:21:47.776Z</time></trkpt><trkpt lat="41.5025902" lon="-0.0038704"><ele>273.0</ele><time>2026-05-04T10:21:48.776Z</time></trkpt><trkpt lat="41.5025765" lon="-0.0037124"><ele>274.0</ele><time>2026-05-04T10:21:49.776Z</time></trkpt><trkpt lat="41.5025611" lon="-0.0035566"><ele>275.0</ele><time>2026-05-04T10:21:50.776Z</time></trkpt><trkpt lat="41.5025529" lon="-0.0033946"><ele>276.0</ele><time>2026-05-04T10:21:51.776Z</time></trkpt><trkpt lat="41.5025511" lon="-0.0032375"><ele>277.0</ele><time>2026-05-04T10:21:52.775Z</time></trkpt><trkpt lat="41.5025498" lon="-0.0030888"><ele>278.0</ele><time>2026-05-04T10:21:53.776Z</time></trkpt><trkpt lat="41.5025484" lon="-0.0029301"><ele>279.0</ele><time>2026-05-04T10:21:54.776Z</time></trkpt><trkpt lat="41.5025433" lon="-0.0027734"><ele>280.0</ele><time>2026-05-04T10:21:55.775Z</time></trkpt><trkpt lat="41.5025429" lon="-0.0026153"><ele>281.0</ele><time>2026-05-04T10:21:56.776Z</time></trkpt><trkpt lat="41.5025377" lon="-0.0024629"><ele>281.25</ele><time>2026-05-04T10:21:57.776Z</time></trkpt><trkpt lat="41.5025372" lon="-0.0023102"><ele>281.5</ele><time>2026-05-04T10:21:58.776Z</time></trkpt><trkpt lat="41.5025403" lon="-0.0021539"><ele>281.75</ele><time>2026-05-04T10:21:59.776Z</time></trkpt><trkpt lat="41.5025442" lon="-0.0020014"><ele>282.0</ele><time>2026-05-04T10:22:00.776Z</time></trkpt><trkpt lat="41.5025443" lon="-0.0018508"><ele>282.0</ele><time>2026-05-04T10:22:01.776Z</time></trkpt><trkpt lat="41.5025525" lon="-0.0016965"><ele>282.0</ele><time>2026-05-04T10:22:02.776Z</time></trkpt><trkpt lat="41.5025631" lon="-0.0015401"><ele>282.0</ele><time>2026-05-04T10:22:03.776Z</time></trkpt><trkpt lat="41.5025781" lon="-0.0013836"><ele>282.0</ele><time>2026-05-04T10:22:04.776Z</time></trkpt><trkpt lat="41.5025963" lon="-0.0012296"><ele>282.75</ele><time>2026-05-04T10:22:05.776Z</time></trkpt><trkpt lat="41.5026188" lon="-0.0010751"><ele>283.5</ele><time>2026-05-04T10:22:06.776Z</time></trkpt><trkpt lat="41.5026455" lon="-9.192E-4"><ele>284.25</ele><time>2026-05-04T10:22:07.776Z</time></trkpt><trkpt lat="41.5026763" lon="-7.661E-4"><ele>285.0</ele><time>2026-05-04T10:22:08.775Z</time></trkpt><trkpt lat="41.5027151" lon="-6.084E-4"><ele>285.5</ele><time>2026-05-04T10:22:09.776Z</time></trkpt><trkpt lat="41.5027546" lon="-4.592E-4"><ele>286.0</ele><time>2026-05-04T10:22:10.775Z</time></trkpt><trkpt lat="41.5027978" lon="-3.158E-4"><ele>286.5</ele><time>2026-05-04T10:22:11.776Z</time></trkpt><trkpt lat="41.5028464" lon="-1.686E-4"><ele>287.0</ele><time>2026-05-04T10:22:12.775Z</time></trkpt><trkpt lat="41.5028944" lon="-2.1E-5"><ele>290.25</ele><time>2026-05-04T10:22:13.776Z</time></trkpt><trkpt lat="41.5029495" lon="1.265E-4"><ele>293.5</ele><time>2026-05-04T10:22:14.776Z</time></trkpt><trkpt lat="41.5030103" lon="2.664E-4"><ele>296.75</ele><time>2026-05-04T10:22:15.776Z</time></trkpt><trkpt lat="41.5030708" lon="4.038E-4"><ele>300.0</ele><time>2026-05-04T10:22:16.776Z</time></trkpt><trkpt lat="41.5031342" lon="5.411E-4"><ele>300.0</ele><time>2026-05-04T10:22:17.776Z</time></trkpt><trkpt lat="41.5032032" lon="6.749E-4"><ele>300.0</ele><time>2026-05-04T10:22:18.775Z</time></trkpt><trkpt lat="41.5032769" lon="8.075E-4"><ele>300.0</ele><time>2026-05-04T10:22:19.776Z</time></trkpt><trkpt lat="41.5033531" lon="9.382E-4"><ele>300.0</ele><time>2026-05-04T10:22:20.775Z</time></trkpt><trkpt lat="41.5034336" lon="0.0010624"><ele>301.0</ele><time>2026-05-04T10:22:21.776Z</time></trkpt><trkpt lat="41.503519" lon="0.001192"><ele>302.0</ele><time>2026-05-04T10:22:22.776Z</time></trkpt><trkpt lat="41.5036034" lon="0.0013161"><ele>303.0</ele><time>2026-05-04T10:22:23.776Z</time></trkpt><trkpt lat="41.5036889" lon="0.0014377"><ele>304.0</ele><time>2026-05-04T10:22:24.776Z</time></trkpt><trkpt lat="41.5037716" lon="0.0015669"><ele>303.0</ele><time>2026-05-04T10:22:25.776Z</time></trkpt><trkpt lat="41.5038537" lon="0.0016917"><ele>302.0</ele><time>2026-05-04T10:22:26.776Z</time></trkpt><trkpt lat="41.5039332" lon="0.0018132"><ele>301.0</ele><time>2026-05-04T10:22:27.775Z</time></trkpt><trkpt lat="41.504013" lon="0.0019339"><ele>300.0</ele><time>2026-05-04T10:22:28.776Z</time></trkpt><trkpt lat="41.5040908" lon="0.0020605"><ele>300.0</ele><time>2026-05-04T10:22:29.775Z</time></trkpt><trkpt lat="41.5041653" lon="0.0021899"><ele>300.0</ele><time>2026-05-04T10:22:30.775Z</time></trkpt><trkpt lat="41.5042379" lon="0.0023183"><ele>300.0</ele><time>2026-05-04T10:22:31.776Z</time></trkpt><trkpt lat="41.5043089" lon="0.0024542"><ele>300.0</ele><time>2026-05-04T10:22:32.776Z</time></trkpt><trkpt lat="41.5043786" lon="0.0025887"><ele>299.75</ele><time>2026-05-04T10:22:33.776Z</time></trkpt><trkpt lat="41.5044474" lon="0.002725"><ele>299.5</ele><time>2026-05-04T10:22:34.776Z</time></trkpt><trkpt lat="41.5045094" lon="0.0028626"><ele>299.25</ele><time>2026-05-04T10:22:35.775Z</time></trkpt><trkpt lat="41.5045648" lon="0.0030026"><ele>299.0</ele><time>2026-05-04T10:22:36.776Z</time></trkpt><trkpt lat="41.5046173" lon="0.0031485"><ele>300.0</ele><time>2026-05-04T10:22:37.776Z</time></trkpt><trkpt lat="41.504667" lon="0.0032959"><ele>301.0</ele><time>2026-05-04T10:22:38.776Z</time></trkpt><trkpt lat="41.5047122" lon="0.0034398"><ele>302.0</ele><time>2026-05-04T10:22:39.776Z</time></trkpt><trkpt lat="41.5047532" lon="0.0035882"><ele>303.0</ele><time>2026-05-04T10:22:40.776Z</time></trkpt><trkpt lat="41.5047947" lon="0.0037442"><ele>303.0</ele><time>2026-05-04T10:22:41.776Z</time></trkpt><trkpt lat="41.5048285" lon="0.0038967"><ele>303.0</ele><time>2026-05-04T10:22:42.776Z</time></trkpt><trkpt lat="41.5048576" lon="0.0040536"><ele>303.0</ele><time>2026-05-04T10:22:43.776Z</time></trkpt><trkpt lat="41.5048834" lon="0.0042086"><ele>303.0</ele><time>2026-05-04T10:22:44.776Z</time></trkpt><trkpt lat="41.5049045" lon="0.0043609"><ele>303.0</ele><time>2026-05-04T10:22:45.776Z</time></trkpt><trkpt lat="41.5049232" lon="0.0045211"><ele>303.0</ele><time>2026-05-04T10:22:46.776Z</time></trkpt><trkpt lat="41.5049346" lon="0.0046785"><ele>303.0</ele><time>2026-05-04T10:22:47.776Z</time></trkpt><trkpt lat="41.5049447" lon="0.0048405"><ele>303.0</ele><time>2026-05-04T10:22:48.776Z</time></trkpt><trkpt lat="41.504948" lon="0.0049988"><ele>303.75</ele><time>2026-05-04T10:22:49.775Z</time></trkpt><trkpt lat="41.504948" lon="0.0051622"><ele>304.5</ele><time>2026-05-04T10:22:50.776Z</time></trkpt><trkpt lat="41.5049437" lon="0.0053244"><ele>305.25</ele><time>2026-05-04T10:22:51.776Z</time></trkpt><trkpt lat="41.5049341" lon="0.0054838"><ele>306.0</ele><time>2026-05-04T10:22:52.776Z</time></trkpt><trkpt lat="41.5049246" lon="0.005644"><ele>306.0</ele><time>2026-05-04T10:22:53.776Z</time></trkpt><trkpt lat="41.504916" lon="0.0058067"><ele>306.0</ele><time>2026-05-04T10:22:54.775Z</time></trkpt><trkpt lat="41.5049027" lon="0.0059613"><ele>306.0</ele><time>2026-05-04T10:22:55.776Z</time></trkpt><trkpt lat="41.5048882" lon="0.0061205"><ele>306.0</ele><time>2026-05-04T10:22:56.776Z</time></trkpt><trkpt lat="41.5048754" lon="0.0062855"><ele>306.75</ele><time>2026-05-04T10:22:57.776Z</time></trkpt><trkpt lat="41.5048581" lon="0.0064462"><ele>307.5</ele><time>2026-05-04T10:22:58.776Z</time></trkpt><trkpt lat="41.5048398" lon="0.0066085"><ele>308.25</ele><time>2026-05-04T10:22:59.776Z</time></trkpt><trkpt lat="41.5048221" lon="0.0067748"><ele>309.0</ele><time>2026-05-04T10:23:00.776Z</time></trkpt><trkpt lat="41.5048043" lon="0.0069404"><ele>309.5</ele><time>2026-05-04T10:23:01.776Z</time></trkpt><trkpt lat="41.5047872" lon="0.0071088"><ele>310.0</ele><time>2026-05-04T10:23:02.776Z</time></trkpt><trkpt lat="41.5047702" lon="0.0072782"><ele>310.5</ele><time>2026-05-04T10:23:03.776Z</time></trkpt><trkpt lat="41.5047548" lon="0.0074488"><ele>311.0</ele><time>2026-05-04T10:23:04.775Z</time></trkpt><trkpt lat="41.5047351" lon="0.0076213"><ele>311.25</ele><time>2026-05-04T10:23:05.776Z</time></trkpt><trkpt lat="41.5047192" lon="0.0077948"><ele>311.5</ele><time>2026-05-04T10:23:06.776Z</time></trkpt><trkpt lat="41.504702" lon="0.0079692"><ele>311.75</ele><time>2026-05-04T10:23:07.776Z</time></trkpt><trkpt lat="41.5046825" lon="0.0081494"><ele>312.0</ele><time>2026-05-04T10:23:08.776Z</time></trkpt><trkpt lat="41.5046621" lon="0.008328"><ele>312.25</ele><time>2026-05-04T10:23:09.776Z</time></trkpt><trkpt lat="41.5046442" lon="0.0085029"><ele>312.5</ele><time>2026-05-04T10:23:10.776Z</time></trkpt><trkpt lat="41.5046286" lon="0.0086816"><ele>312.75</ele><time>2026-05-04T10:23:11.776Z</time></trkpt><trkpt lat="41.504606" lon="0.00886"><ele>313.0</ele><time>2026-05-04T10:23:12.776Z</time></trkpt><trkpt lat="41.5045883" lon="0.0090411"><ele>312.5</ele><time>2026-05-04T10:23:13.775Z</time></trkpt><trkpt lat="41.5045752" lon="0.00922"><ele>312.0</ele><time>2026-05-04T10:23:14.776Z</time></trkpt><trkpt lat="41.5045546" lon="0.0094017"><ele>311.5</ele><time>2026-05-04T10:23:15.776Z</time></trkpt><trkpt lat="41.5045336" lon="0.009583"><ele>311.0</ele><time>2026-05-04T10:23:16.776Z</time></trkpt><trkpt lat="41.5045113" lon="0.0097679"><ele>311.0</ele><time>2026-05-04T10:23:17.776Z</time></trkpt><trkpt lat="41.5044932" lon="0.0099551"><ele>311.0</ele><time>2026-05-04T10:23:18.776Z</time></trkpt><trkpt lat="41.5044778" lon="0.010136"><ele>311.0</ele><time>2026-05-04T10:23:19.776Z</time></trkpt><trkpt lat="41.5044608" lon="0.0103174"><ele>311.0</ele><time>2026-05-04T10:23:20.776Z</time></trkpt><trkpt lat="41.5044442" lon="0.0105012"><ele>310.75</ele><time>2026-05-04T10:23:21.776Z</time></trkpt><trkpt lat="41.5044211" lon="0.0106881"><ele>310.5</ele><time>2026-05-04T10:23:22.776Z</time></trkpt><trkpt lat="41.5044036" lon="0.0108701"><ele>310.25</ele><time>2026-05-04T10:23:23.776Z</time></trkpt><trkpt lat="41.5043854" lon="0.0110577"><ele>310.0</ele><time>2026-05-04T10:23:24.776Z</time></trkpt><trkpt lat="41.5043672" lon="0.0112473"><ele>310.0</ele><time>2026-05-04T10:23:25.776Z</time></trkpt><trkpt lat="41.5043477" lon="0.0114323"><ele>310.0</ele><time>2026-05-04T10:23:26.776Z</time></trkpt><trkpt lat="41.5043246" lon="0.0116161"><ele>310.0</ele><time>2026-05-04T10:23:27.776Z</time></trkpt><trkpt lat="41.5043014" lon="0.0117992"><ele>310.0</ele><time>2026-05-04T10:23:28.776Z</time></trkpt><trkpt lat="41.5042849" lon="0.0119823"><ele>310.0</ele><time>2026-05-04T10:23:29.776Z</time></trkpt><trkpt lat="41.5042659" lon="0.0121678"><ele>310.0</ele><time>2026-05-04T10:23:30.776Z</time></trkpt><trkpt lat="41.5042481" lon="0.0123492"><ele>310.0</ele><time>2026-05-04T10:23:31.776Z</time></trkpt><trkpt lat="41.5042281" lon="0.0125307"><ele>310.0</ele><time>2026-05-04T10:23:32.776Z</time></trkpt><trkpt lat="41.5042078" lon="0.0127166"><ele>310.0</ele><time>2026-05-04T10:23:33.775Z</time></trkpt><trkpt lat="41.5041892" lon="0.0129061"><ele>310.0</ele><time>2026-05-04T10:23:34.776Z</time></trkpt><trkpt lat="41.5041704" lon="0.0130964"><ele>310.0</ele><time>2026-05-04T10:23:35.776Z</time></trkpt><trkpt lat="41.5041471" lon="0.0132837"><ele>310.0</ele><time>2026-05-04T10:23:36.775Z</time></trkpt><trkpt lat="41.5041273" lon="0.0134763"><ele>310.0</ele><time>2026-05-04T10:23:37.776Z</time></trkpt><trkpt lat="41.5041084" lon="0.0136712"><ele>310.0</ele><time>2026-05-04T10:23:38.776Z</time></trkpt><trkpt lat="41.5040925" lon="0.0138662"><ele>310.0</ele><time>2026-05-04T10:23:39.776Z</time></trkpt><trkpt lat="41.5040729" lon="0.0140583"><ele>310.0</ele><time>2026-05-04T10:23:40.776Z</time></trkpt><trkpt lat="41.5040529" lon="0.0142502"><ele>309.75</ele><time>2026-05-04T10:23:41.775Z</time></trkpt><trkpt lat="41.504031" lon="0.0144479"><ele>309.5</ele><time>2026-05-04T10:23:42.776Z</time></trkpt><trkpt lat="41.5040092" lon="0.0146466"><ele>309.25</ele><time>2026-05-04T10:23:43.775Z</time></trkpt><trkpt lat="41.5039904" lon="0.0148439"><ele>309.0</ele><time>2026-05-04T10:23:44.776Z</time></trkpt><trkpt lat="41.5039688" lon="0.0150461"><ele>308.0</ele><time>2026-05-04T10:23:45.776Z</time></trkpt><trkpt lat="41.5039412" lon="0.0152494"><ele>307.0</ele><time>2026-05-04T10:23:46.775Z</time></trkpt><trkpt lat="41.5039164" lon="0.0154552"><ele>306.0</ele><time>2026-05-04T10:23:47.776Z</time></trkpt><trkpt lat="41.503889" lon="0.0156579"><ele>304.6666666666667</ele><time>2026-05-04T10:23:48.776Z</time></trkpt><trkpt lat="41.5038661" lon="0.0158662"><ele>303.33333333333337</ele><time>2026-05-04T10:23:49.776Z</time></trkpt><trkpt lat="41.5038399" lon="0.0160697"><ele>302.0</ele><time>2026-05-04T10:23:50.776Z</time></trkpt><trkpt lat="41.5038076" lon="0.0162757"><ele>302.0</ele><time>2026-05-04T10:23:51.776Z</time></trkpt><trkpt lat="41.503776" lon="0.0164776"><ele>302.0</ele><time>2026-05-04T10:23:52.776Z</time></trkpt><trkpt lat="41.5037458" lon="0.0166786"><ele>302.0</ele><time>2026-05-04T10:23:53.775Z</time></trkpt><trkpt lat="41.5037219" lon="0.0168854"><ele>301.33333333333337</ele><time>2026-05-04T10:23:54.776Z</time></trkpt><trkpt lat="41.5036904" lon="0.0170887"><ele>300.6666666666667</ele><time>2026-05-04T10:23:55.776Z</time></trkpt><trkpt lat="41.5036617" lon="0.0172896"><ele>300.0</ele><time>2026-05-04T10:23:56.776Z</time></trkpt><trkpt lat="41.5036366" lon="0.0174924"><ele>300.0</ele><time>2026-05-04T10:23:57.776Z</time></trkpt><trkpt lat="41.5036114" lon="0.0176939"><ele>300.0</ele><time>2026-05-04T10:23:58.776Z</time></trkpt><trkpt lat="41.5035857" lon="0.0178947"><ele>300.0</ele><time>2026-05-04T10:23:59.775Z</time></trkpt><trkpt lat="41.5035578" lon="0.0180855"><ele>300.0</ele><time>2026-05-04T10:24:00.775Z</time></trkpt><trkpt lat="41.5035323" lon="0.0182753"><ele>300.0</ele><time>2026-05-04T10:24:01.776Z</time></trkpt><trkpt lat="41.5035062" lon="0.0184663"><ele>300.0</ele><time>2026-05-04T10:24:02.776Z</time></trkpt><trkpt lat="41.5034787" lon="0.0186492"><ele>300.0</ele><time>2026-05-04T10:24:03.776Z</time></trkpt><trkpt lat="41.5034589" lon="0.0188403"><ele>298.25</ele><time>2026-05-04T10:24:04.775Z</time></trkpt><trkpt lat="41.5034328" lon="0.0190332"><ele>296.5</ele><time>2026-05-04T10:24:05.776Z</time></trkpt><trkpt lat="41.5034038" lon="0.0192232"><ele>294.75</ele><time>2026-05-04T10:24:06.775Z</time></trkpt><trkpt lat="41.5033766" lon="0.0194044"><ele>293.0</ele><time>2026-05-04T10:24:07.776Z</time></trkpt><trkpt lat="41.5033507" lon="0.0195941"><ele>292.25</ele><time>2026-05-04T10:24:08.775Z</time></trkpt><trkpt lat="41.5033278" lon="0.0197881"><ele>291.5</ele><time>2026-05-04T10:24:09.777Z</time></trkpt><trkpt lat="41.5032988" lon="0.0199775"><ele>290.75</ele><time>2026-05-04T10:24:10.777Z</time></trkpt><trkpt lat="41.5032734" lon="0.0201695"><ele>290.0</ele><time>2026-05-04T10:24:11.777Z</time></trkpt><trkpt lat="41.503246" lon="0.0203653"><ele>289.25</ele><time>2026-05-04T10:24:12.777Z</time></trkpt><trkpt lat="41.5032256" lon="0.0205513"><ele>288.5</ele><time>2026-05-04T10:24:13.777Z</time></trkpt><trkpt lat="41.5032002" lon="0.0207363"><ele>287.75</ele><time>2026-05-04T10:24:14.777Z</time></trkpt><trkpt lat="41.5031758" lon="0.0209271"><ele>287.0</ele><time>2026-05-04T10:24:15.777Z</time></trkpt><trkpt lat="41.5031493" lon="0.0211137"><ele>286.75</ele><time>2026-05-04T10:24:16.777Z</time></trkpt><trkpt lat="41.5031236" lon="0.0213004"><ele>286.5</ele><time>2026-05-04T10:24:17.777Z</time></trkpt><trkpt lat="41.5030989" lon="0.0214871"><ele>286.25</ele><time>2026-05-04T10:24:18.777Z</time></trkpt><trkpt lat="41.5030717" lon="0.0216862"><ele>286.0</ele><time>2026-05-04T10:24:19.777Z</time></trkpt><trkpt lat="41.5030462" lon="0.0218764"><ele>285.5</ele><time>2026-05-04T10:24:20.777Z</time></trkpt><trkpt lat="41.5030179" lon="0.022075"><ele>285.0</ele><time>2026-05-04T10:24:21.776Z</time></trkpt><trkpt lat="41.5029907" lon="0.0222709"><ele>284.5</ele><time>2026-05-04T10:24:22.777Z</time></trkpt><trkpt lat="41.5029671" lon="0.0224637"><ele>284.0</ele><time>2026-05-04T10:24:23.777Z</time></trkpt><trkpt lat="41.5029407" lon="0.0226588"><ele>283.75</ele><time>2026-05-04T10:24:24.777Z</time></trkpt><trkpt lat="41.5029169" lon="0.0228568"><ele>283.5</ele><time>2026-05-04T10:24:25.777Z</time></trkpt><trkpt lat="41.5028915" lon="0.0230484"><ele>283.25</ele><time>2026-05-04T10:24:26.777Z</time></trkpt><trkpt lat="41.5028623" lon="0.0232438"><ele>283.0</ele><time>2026-05-04T10:24:27.777Z</time></trkpt><trkpt lat="41.5028359" lon="0.0234405"><ele>283.0</ele><time>2026-05-04T10:24:28.777Z</time></trkpt><trkpt lat="41.5028028" lon="0.0236326"><ele>283.0</ele><time>2026-05-04T10:24:29.777Z</time></trkpt><trkpt lat="41.5027749" lon="0.0238269"><ele>283.0</ele><time>2026-05-04T10:24:30.776Z</time></trkpt><trkpt lat="41.5027513" lon="0.024021"><ele>283.0</ele><time>2026-05-04T10:24:31.777Z</time></trkpt><trkpt lat="41.5027266" lon="0.0242203"><ele>282.5</ele><time>2026-05-04T10:24:32.777Z</time></trkpt><trkpt lat="41.5027011" lon="0.024425"><ele>282.0</ele><time>2026-05-04T10:24:33.777Z</time></trkpt><trkpt lat="41.5026768" lon="0.0246161"><ele>281.5</ele><time>2026-05-04T10:24:34.777Z</time></trkpt><trkpt lat="41.5026504" lon="0.0248071"><ele>281.0</ele><time>2026-05-04T10:24:35.777Z</time></trkpt><trkpt lat="41.5026238" lon="0.0250002"><ele>280.5</ele><time>2026-05-04T10:24:36.777Z</time></trkpt><trkpt lat="41.5025968" lon="0.0251919"><ele>280.0</ele><time>2026-05-04T10:24:37.777Z</time></trkpt><trkpt lat="41.5025715" lon="0.0253837"><ele>279.5</ele><time>2026-05-04T10:24:38.777Z</time></trkpt><trkpt lat="41.5025445" lon="0.0255816"><ele>279.0</ele><time>2026-05-04T10:24:39.777Z</time></trkpt><trkpt lat="41.502517" lon="0.0257746"><ele>279.5</ele><time>2026-05-04T10:24:40.777Z</time></trkpt><trkpt lat="41.5024898" lon="0.0259662"><ele>280.0</ele><time>2026-05-04T10:24:41.777Z</time></trkpt><trkpt lat="41.5024634" lon="0.0261591"><ele>280.5</ele><time>2026-05-04T10:24:42.776Z</time></trkpt><trkpt lat="41.5024354" lon="0.0263525"><ele>281.0</ele><time>2026-05-04T10:24:43.777Z</time></trkpt><trkpt lat="41.5024113" lon="0.0265455"><ele>281.25</ele><time>2026-05-04T10:24:44.777Z</time></trkpt><trkpt lat="41.5023872" lon="0.0267332"><ele>281.5</ele><time>2026-05-04T10:24:45.777Z</time></trkpt><trkpt lat="41.5023614" lon="0.0269169"><ele>281.75</ele><time>2026-05-04T10:24:46.777Z</time></trkpt><trkpt lat="41.5023366" lon="0.0271025"><ele>282.0</ele><time>2026-05-04T10:24:47.777Z</time></trkpt><trkpt lat="41.502312" lon="0.0272832"><ele>282.0</ele><time>2026-05-04T10:24:48.776Z</time></trkpt><trkpt lat="41.5022878" lon="0.0274688"><ele>282.0</ele><time>2026-05-04T10:24:49.777Z</time></trkpt><trkpt lat="41.5022637" lon="0.0276566"><ele>282.0</ele><time>2026-05-04T10:24:50.777Z</time></trkpt><trkpt lat="41.5022411" lon="0.0278406"><ele>282.0</ele><time>2026-05-04T10:24:51.777Z</time></trkpt><trkpt lat="41.5022163" lon="0.0280283"><ele>282.75</ele><time>2026-05-04T10:24:52.777Z</time></trkpt><trkpt lat="41.5021907" lon="0.0282112"><ele>283.5</ele><time>2026-05-04T10:24:53.776Z</time></trkpt><trkpt lat="41.5021611" lon="0.028397"><ele>284.25</ele><time>2026-05-04T10:24:54.777Z</time></trkpt><trkpt lat="41.5021396" lon="0.0285815"><ele>285.0</ele><time>2026-05-04T10:24:55.777Z</time></trkpt><trkpt lat="41.5021138" lon="0.0287645"><ele>285.25</ele><time>2026-05-04T10:24:56.777Z</time></trkpt><trkpt lat="41.5020887" lon="0.0289447"><ele>285.5</ele><time>2026-05-04T10:24:57.777Z</time></trkpt><trkpt lat="41.5020623" lon="0.0291227"><ele>285.75</ele><time>2026-05-04T10:24:58.777Z</time></trkpt><trkpt lat="41.5020409" lon="0.0293013"><ele>286.0</ele><time>2026-05-04T10:24:59.777Z</time></trkpt><trkpt lat="41.5020207" lon="0.0294804"><ele>286.75</ele><time>2026-05-04T10:25:00.777Z</time></trkpt><trkpt lat="41.5019965" lon="0.0296616"><ele>287.5</ele><time>2026-05-04T10:25:01.777Z</time></trkpt><trkpt lat="41.5019715" lon="0.0298409"><ele>288.25</ele><time>2026-05-04T10:25:02.777Z</time></trkpt><trkpt lat="41.5019447" lon="0.0300214"><ele>289.0</ele><time>2026-05-04T10:25:03.777Z</time></trkpt><trkpt lat="41.50192" lon="0.0302001"><ele>289.0</ele><time>2026-05-04T10:25:04.776Z</time></trkpt><trkpt lat="41.501898" lon="0.0303821"><ele>289.0</ele><time>2026-05-04T10:25:05.777Z</time></trkpt><trkpt lat="41.5018742" lon="0.0305634"><ele>289.0</ele><time>2026-05-04T10:25:06.777Z</time></trkpt><trkpt lat="41.5018482" lon="0.030746"><ele>289.0</ele><time>2026-05-04T10:25:07.777Z</time></trkpt><trkpt lat="41.5018218" lon="0.0309309"><ele>289.0</ele><time>2026-05-04T10:25:08.777Z</time></trkpt><trkpt lat="41.5017973" lon="0.0311192"><ele>289.0</ele><time>2026-05-04T10:25:09.776Z</time></trkpt><trkpt lat="41.5017725" lon="0.0313044"><ele>289.0</ele><time>2026-05-04T10:25:10.776Z</time></trkpt><trkpt lat="41.5017469" lon="0.0314938"><ele>289.0</ele><time>2026-05-04T10:25:11.777Z</time></trkpt><trkpt lat="41.5017232" lon="0.0316803"><ele>289.25</ele><time>2026-05-04T10:25:12.777Z</time></trkpt><trkpt lat="41.5016991" lon="0.0318682"><ele>289.5</ele><time>2026-05-04T10:25:13.777Z</time></trkpt><trkpt lat="41.5016704" lon="0.0320563"><ele>289.75</ele><time>2026-05-04T10:25:14.777Z</time></trkpt><trkpt lat="41.5016438" lon="0.032241"><ele>290.0</ele><time>2026-05-04T10:25:15.777Z</time></trkpt><trkpt lat="41.5016192" lon="0.0324273"><ele>290.0</ele><time>2026-05-04T10:25:16.777Z</time></trkpt><trkpt lat="41.501593" lon="0.0326096"><ele>290.0</ele><time>2026-05-04T10:25:17.776Z</time></trkpt><trkpt lat="41.5015703" lon="0.0327842"><ele>290.0</ele><time>2026-05-04T10:25:18.777Z</time></trkpt><trkpt lat="41.501548" lon="0.032952"><ele>290.0</ele><time>2026-05-04T10:25:19.777Z</time></trkpt><trkpt lat="41.5015257" lon="0.0331218"><ele>290.0</ele><time>2026-05-04T10:25:20.777Z</time></trkpt><trkpt lat="41.5015024" lon="0.0332912"><ele>290.0</ele><time>2026-05-04T10:25:21.777Z</time></trkpt><trkpt lat="41.5014812" lon="0.0334581"><ele>290.0</ele><time>2026-05-04T10:25:22.777Z</time></trkpt><trkpt lat="41.5014611" lon="0.0336245"><ele>290.0</ele><time>2026-05-04T10:25:23.777Z</time></trkpt><trkpt lat="41.501439" lon="0.0337897"><ele>290.5</ele><time>2026-05-04T10:25:24.777Z</time></trkpt><trkpt lat="41.5014162" lon="0.0339567"><ele>291.0</ele><time>2026-05-04T10:25:25.777Z</time></trkpt><trkpt lat="41.5013957" lon="0.034122"><ele>291.5</ele><time>2026-05-04T10:25:26.777Z</time></trkpt><trkpt lat="41.5013843" lon="0.0342876"><ele>292.0</ele><time>2026-05-04T10:25:27.777Z</time></trkpt><trkpt lat="41.5013732" lon="0.0344543"><ele>292.25</ele><time>2026-05-04T10:25:28.777Z</time></trkpt><trkpt lat="41.501365" lon="0.0346205"><ele>292.5</ele><time>2026-05-04T10:25:29.777Z</time></trkpt><trkpt lat="41.5013613" lon="0.0347869"><ele>292.75</ele><time>2026-05-04T10:25:30.777Z</time></trkpt><trkpt lat="41.5013602" lon="0.0349467"><ele>293.0</ele><time>2026-05-04T10:25:31.777Z</time></trkpt><trkpt lat="41.5013576" lon="0.0350985"><ele>293.0</ele><time>2026-05-04T10:25:32.777Z</time></trkpt><trkpt lat="41.5013538" lon="0.0352498"><ele>293.0</ele><time>2026-05-04T10:25:33.777Z</time></trkpt><trkpt lat="41.5013559" lon="0.0353998"><ele>293.0</ele><time>2026-05-04T10:25:34.777Z</time></trkpt><trkpt lat="41.501354" lon="0.0355504"><ele>293.0</ele><time>2026-05-04T10:25:35.776Z</time></trkpt><trkpt lat="41.5013566" lon="0.0356974"><ele>293.0</ele><time>2026-05-04T10:25:36.777Z</time></trkpt><trkpt lat="41.5013621" lon="0.0358477"><ele>292.75</ele><time>2026-05-04T10:25:37.776Z</time></trkpt><trkpt lat="41.5013648" lon="0.0359998"><ele>292.5</ele><time>2026-05-04T10:25:38.777Z</time></trkpt><trkpt lat="41.5013667" lon="0.0361552"><ele>292.25</ele><time>2026-05-04T10:25:39.777Z</time></trkpt><trkpt lat="41.5013696" lon="0.0363038"><ele>292.0</ele><time>2026-05-04T10:25:40.777Z</time></trkpt><trkpt lat="41.5013735" lon="0.0364595"><ele>292.0</ele><time>2026-05-04T10:25:41.777Z</time></trkpt><trkpt lat="41.5013775" lon="0.0366096"><ele>292.0</ele><time>2026-05-04T10:25:42.776Z</time></trkpt><trkpt lat="41.5013838" lon="0.0367629"><ele>292.0</ele><time>2026-05-04T10:25:43.777Z</time></trkpt><trkpt lat="41.5013894" lon="0.036916"><ele>292.0</ele><time>2026-05-04T10:25:44.776Z</time></trkpt><trkpt lat="41.5013934" lon="0.0370691"><ele>291.5</ele><time>2026-05-04T10:25:45.777Z</time></trkpt><trkpt lat="41.5014003" lon="0.0372198"><ele>291.0</ele><time>2026-05-04T10:25:46.777Z</time></trkpt><trkpt lat="41.5014048" lon="0.0373753"><ele>290.5</ele><time>2026-05-04T10:25:47.777Z</time></trkpt><trkpt lat="41.5014075" lon="0.03753"><ele>290.0</ele><time>2026-05-04T10:25:48.776Z</time></trkpt><trkpt lat="41.5014092" lon="0.0376795"><ele>290.0</ele><time>2026-05-04T10:25:49.776Z</time></trkpt><trkpt lat="41.5014163" lon="0.0378319"><ele>290.0</ele><time>2026-05-04T10:25:50.777Z</time></trkpt><trkpt lat="41.5014214" lon="0.0379864"><ele>290.0</ele><time>2026-05-04T10:25:51.777Z</time></trkpt><trkpt lat="41.5014233" lon="0.0381418"><ele>290.0</ele><time>2026-05-04T10:25:52.777Z</time></trkpt><trkpt lat="41.501426" lon="0.0382968"><ele>289.75</ele><time>2026-05-04T10:25:53.777Z</time></trkpt><trkpt lat="41.5014325" lon="0.0384515"><ele>289.5</ele><time>2026-05-04T10:25:54.777Z</time></trkpt><trkpt lat="41.5014362" lon="0.0386053"><ele>289.25</ele><time>2026-05-04T10:25:55.777Z</time></trkpt><trkpt lat="41.5014391" lon="0.0387619"><ele>289.0</ele><time>2026-05-04T10:25:56.777Z</time></trkpt><trkpt lat="41.5014473" lon="0.0389154"><ele>289.0</ele><time>2026-05-04T10:25:57.777Z</time></trkpt><trkpt lat="41.5014487" lon="0.0390743"><ele>289.0</ele><time>2026-05-04T10:25:58.777Z</time></trkpt><trkpt lat="41.5014542" lon="0.0392278"><ele>289.0</ele><time>2026-05-04T10:25:59.777Z</time></trkpt><trkpt lat="41.5014582" lon="0.0393835"><ele>289.0</ele><time>2026-05-04T10:26:00.777Z</time></trkpt><trkpt lat="41.5014661" lon="0.0395429"><ele>288.5</ele><time>2026-05-04T10:26:01.776Z</time></trkpt><trkpt lat="41.501476" lon="0.0396976"><ele>288.0</ele><time>2026-05-04T10:26:02.777Z</time></trkpt><trkpt lat="41.5014808" lon="0.039854"><ele>287.5</ele><time>2026-05-04T10:26:03.777Z</time></trkpt><trkpt lat="41.5014849" lon="0.0400098"><ele>287.0</ele><time>2026-05-04T10:26:04.776Z</time></trkpt><trkpt lat="41.5014888" lon="0.0401622"><ele>286.8</ele><time>2026-05-04T10:26:05.777Z</time></trkpt><trkpt lat="41.5014875" lon="0.0403091"><ele>286.6</ele><time>2026-05-04T10:26:06.777Z</time></trkpt><trkpt lat="41.5014938" lon="0.0404587"><ele>286.40000000000003</ele><time>2026-05-04T10:26:07.777Z</time></trkpt><trkpt lat="41.501498" lon="0.0406081"><ele>286.2</ele><time>2026-05-04T10:26:08.776Z</time></trkpt><trkpt lat="41.5015019" lon="0.0407509"><ele>286.0</ele><time>2026-05-04T10:26:09.776Z</time></trkpt><trkpt lat="41.5015074" lon="0.0409032"><ele>286.0</ele><time>2026-05-04T10:26:10.777Z</time></trkpt><trkpt lat="41.5015113" lon="0.0410566"><ele>286.0</ele><time>2026-05-04T10:26:11.777Z</time></trkpt><trkpt lat="41.5015184" lon="0.0412111"><ele>286.0</ele><time>2026-05-04T10:26:12.777Z</time></trkpt><trkpt lat="41.5015229" lon="0.0413716"><ele>286.0</ele><time>2026-05-04T10:26:13.777Z</time></trkpt><trkpt lat="41.5015272" lon="0.0415303"><ele>286.25</ele><time>2026-05-04T10:26:14.776Z</time></trkpt><trkpt lat="41.5015316" lon="0.0416985"><ele>286.5</ele><time>2026-05-04T10:26:15.777Z</time></trkpt><trkpt lat="41.5015331" lon="0.0418643"><ele>286.75</ele><time>2026-05-04T10:26:16.777Z</time></trkpt><trkpt lat="41.5015363" lon="0.042029"><ele>287.0</ele><time>2026-05-04T10:26:17.777Z</time></trkpt><trkpt lat="41.5015419" lon="0.042202"><ele>287.0</ele><time>2026-05-04T10:26:18.776Z</time></trkpt><trkpt lat="41.5015465" lon="0.0423769"><ele>287.0</ele><time>2026-05-04T10:26:19.777Z</time></trkpt><trkpt lat="41.50155" lon="0.0425501"><ele>287.0</ele><time>2026-05-04T10:26:20.777Z</time></trkpt><trkpt lat="41.5015503" lon="0.0427261"><ele>287.0</ele><time>2026-05-04T10:26:21.777Z</time></trkpt><trkpt lat="41.5015572" lon="0.0429055"><ele>287.25</ele><time>2026-05-04T10:26:22.777Z</time></trkpt><trkpt lat="41.5015633" lon="0.0430851"><ele>287.5</ele><time>2026-05-04T10:26:23.776Z</time></trkpt><trkpt lat="41.5015753" lon="0.0432609"><ele>287.75</ele><time>2026-05-04T10:26:24.777Z</time></trkpt><trkpt lat="41.5015798" lon="0.0434399"><ele>288.0</ele><time>2026-05-04T10:26:25.777Z</time></trkpt><trkpt lat="41.5015848" lon="0.0436198"><ele>288.0</ele><time>2026-05-04T10:26:26.777Z</time></trkpt><trkpt lat="41.5015935" lon="0.0438001"><ele>288.0</ele><time>2026-05-04T10:26:27.777Z</time></trkpt><trkpt lat="41.5016029" lon="0.0439845"><ele>288.0</ele><time>2026-05-04T10:26:28.777Z</time></trkpt><trkpt lat="41.5016175" lon="0.0441691"><ele>288.0</ele><time>2026-05-04T10:26:29.777Z</time></trkpt><trkpt lat="41.5016269" lon="0.0443464"><ele>288.0</ele><time>2026-05-04T10:26:30.777Z</time></trkpt><trkpt lat="41.5016414" lon="0.0445273"><ele>288.0</ele><time>2026-05-04T10:26:31.777Z</time></trkpt><trkpt lat="41.5016568" lon="0.0447035"><ele>288.0</ele><time>2026-05-04T10:26:32.777Z</time></trkpt><trkpt lat="41.5016771" lon="0.0448778"><ele>288.0</ele><time>2026-05-04T10:26:33.778Z</time></trkpt><trkpt lat="41.5016961" lon="0.0450526"><ele>288.25</ele><time>2026-05-04T10:26:34.777Z</time></trkpt><trkpt lat="41.501721" lon="0.0452363"><ele>288.5</ele><time>2026-05-04T10:26:35.778Z</time></trkpt><trkpt lat="41.5017485" lon="0.0454128"><ele>288.75</ele><time>2026-05-04T10:26:36.778Z</time></trkpt><trkpt lat="41.5017749" lon="0.0455873"><ele>289.0</ele><time>2026-05-04T10:26:37.777Z</time></trkpt><trkpt lat="41.5018014" lon="0.0457618"><ele>288.75</ele><time>2026-05-04T10:26:38.778Z</time></trkpt><trkpt lat="41.5018333" lon="0.0459334"><ele>288.5</ele><time>2026-05-04T10:26:39.778Z</time></trkpt><trkpt lat="41.5018662" lon="0.0461042"><ele>288.25</ele><time>2026-05-04T10:26:40.778Z</time></trkpt><trkpt lat="41.5018992" lon="0.0462754"><ele>288.0</ele><time>2026-05-04T10:26:41.778Z</time></trkpt><trkpt lat="41.5019336" lon="0.0464459"><ele>288.0</ele><time>2026-05-04T10:26:42.778Z</time></trkpt><trkpt lat="41.5019713" lon="0.0466146"><ele>288.0</ele><time>2026-05-04T10:26:43.778Z</time></trkpt><trkpt lat="41.5020091" lon="0.0467876"><ele>288.0</ele><time>2026-05-04T10:26:44.778Z</time></trkpt><trkpt lat="41.5020457" lon="0.0469552"><ele>288.0</ele><time>2026-05-04T10:26:45.778Z</time></trkpt><trkpt lat="41.5020916" lon="0.047125"><ele>288.0</ele><time>2026-05-04T10:26:46.778Z</time></trkpt><trkpt lat="41.502141" lon="0.0472941"><ele>288.0</ele><time>2026-05-04T10:26:47.778Z</time></trkpt><trkpt lat="41.5021855" lon="0.0474666"><ele>288.0</ele><time>2026-05-04T10:26:48.778Z</time></trkpt><trkpt lat="41.5022339" lon="0.0476317"><ele>288.0</ele><time>2026-05-04T10:26:49.778Z</time></trkpt><trkpt lat="41.5022876" lon="0.0477934"><ele>288.0</ele><time>2026-05-04T10:26:50.778Z</time></trkpt><trkpt lat="41.5023427" lon="0.0479599"><ele>288.0</ele><time>2026-05-04T10:26:51.778Z</time></trkpt><trkpt lat="41.5023984" lon="0.0481191"><ele>288.0</ele><time>2026-05-04T10:26:52.777Z</time></trkpt><trkpt lat="41.5024551" lon="0.0482837"><ele>288.0</ele><time>2026-05-04T10:26:53.778Z</time></trkpt><trkpt lat="41.5025161" lon="0.0484481"><ele>288.0</ele><time>2026-05-04T10:26:54.778Z</time></trkpt><trkpt lat="41.5025779" lon="0.0486043"><ele>288.0</ele><time>2026-05-04T10:26:55.778Z</time></trkpt><trkpt lat="41.5026438" lon="0.0487622"><ele>288.0</ele><time>2026-05-04T10:26:56.778Z</time></trkpt><trkpt lat="41.5027084" lon="0.0489209"><ele>288.0</ele><time>2026-05-04T10:26:57.778Z</time></trkpt><trkpt lat="41.5027708" lon="0.0490829"><ele>288.25</ele><time>2026-05-04T10:26:58.778Z</time></trkpt><trkpt lat="41.5028405" lon="0.0492418"><ele>288.5</ele><time>2026-05-04T10:26:59.778Z</time></trkpt><trkpt lat="41.5029117" lon="0.0494016"><ele>288.75</ele><time>2026-05-04T10:27:00.778Z</time></trkpt><trkpt lat="41.502986" lon="0.0495626"><ele>289.0</ele><time>2026-05-04T10:27:01.777Z</time></trkpt><trkpt lat="41.503063" lon="0.0497112"><ele>288.75</ele><time>2026-05-04T10:27:02.778Z</time></trkpt><trkpt lat="41.5031373" lon="0.0498716"><ele>288.5</ele><time>2026-05-04T10:27:03.778Z</time></trkpt><trkpt lat="41.5032153" lon="0.0500327"><ele>288.25</ele><time>2026-05-04T10:27:04.777Z</time></trkpt><trkpt lat="41.503294" lon="0.0501887"><ele>288.0</ele><time>2026-05-04T10:27:05.778Z</time></trkpt><trkpt lat="41.5033739" lon="0.050344"><ele>288.0</ele><time>2026-05-04T10:27:06.778Z</time></trkpt><trkpt lat="41.5034515" lon="0.0505069"><ele>288.0</ele><time>2026-05-04T10:27:07.778Z</time></trkpt><trkpt lat="41.5035268" lon="0.0506637"><ele>288.0</ele><time>2026-05-04T10:27:08.778Z</time></trkpt><trkpt lat="41.5036061" lon="0.0508243"><ele>288.0</ele><time>2026-05-04T10:27:09.778Z</time></trkpt><trkpt lat="41.5036823" lon="0.0509854"><ele>287.5</ele><time>2026-05-04T10:27:10.778Z</time></trkpt><trkpt lat="41.5037628" lon="0.0511517"><ele>287.0</ele><time>2026-05-04T10:27:11.777Z</time></trkpt><trkpt lat="41.5038418" lon="0.0513093"><ele>286.5</ele><time>2026-05-04T10:27:12.778Z</time></trkpt><trkpt lat="41.5039226" lon="0.0514672"><ele>286.0</ele><time>2026-05-04T10:27:13.778Z</time></trkpt><trkpt lat="41.5040014" lon="0.0516299"><ele>285.75</ele><time>2026-05-04T10:27:14.778Z</time></trkpt><trkpt lat="41.5040846" lon="0.0517893"><ele>285.5</ele><time>2026-05-04T10:27:15.777Z</time></trkpt><trkpt lat="41.5041657" lon="0.0519536"><ele>285.25</ele><time>2026-05-04T10:27:16.778Z</time></trkpt><trkpt lat="41.504245" lon="0.0521108"><ele>285.0</ele><time>2026-05-04T10:27:17.778Z</time></trkpt><trkpt lat="41.5043249" lon="0.0522621"><ele>285.0</ele><time>2026-05-04T10:27:18.778Z</time></trkpt><trkpt lat="41.5044056" lon="0.0524215"><ele>285.0</ele><time>2026-05-04T10:27:19.778Z</time></trkpt><trkpt lat="41.5044851" lon="0.0525829"><ele>285.0</ele><time>2026-05-04T10:27:20.777Z</time></trkpt><trkpt lat="41.5045666" lon="0.0527457"><ele>285.0</ele><time>2026-05-04T10:27:21.778Z</time></trkpt><trkpt lat="41.5046435" lon="0.0529052"><ele>285.75</ele><time>2026-05-04T10:27:22.778Z</time></trkpt><trkpt lat="41.504725" lon="0.0530661"><ele>286.5</ele><time>2026-05-04T10:27:23.778Z</time></trkpt><trkpt lat="41.5048046" lon="0.0532325"><ele>287.25</ele><time>2026-05-04T10:27:24.778Z</time></trkpt><trkpt lat="41.5048866" lon="0.0533921"><ele>288.0</ele><time>2026-05-04T10:27:25.778Z</time></trkpt><trkpt lat="41.5049676" lon="0.0535485"><ele>288.0</ele><time>2026-05-04T10:27:26.778Z</time></trkpt><trkpt lat="41.5050496" lon="0.0537115"><ele>288.0</ele><time>2026-05-04T10:27:27.778Z</time></trkpt><trkpt lat="41.5051276" lon="0.0538655"><ele>288.0</ele><time>2026-05-04T10:27:28.778Z</time></trkpt><trkpt lat="41.5052086" lon="0.0540307"><ele>288.0</ele><time>2026-05-04T10:27:29.778Z</time></trkpt><trkpt lat="41.5052873" lon="0.0541976"><ele>288.0</ele><time>2026-05-04T10:27:30.778Z</time></trkpt><trkpt lat="41.5053693" lon="0.0543633"><ele>288.0</ele><time>2026-05-04T10:27:31.778Z</time></trkpt><trkpt lat="41.5054459" lon="0.0545262"><ele>288.0</ele><time>2026-05-04T10:27:32.778Z</time></trkpt><trkpt lat="41.505523" lon="0.0546923"><ele>288.0</ele><time>2026-05-04T10:27:33.778Z</time></trkpt><trkpt lat="41.5056031" lon="0.0548555"><ele>288.25</ele><time>2026-05-04T10:27:34.778Z</time></trkpt><trkpt lat="41.5056817" lon="0.0550168"><ele>288.5</ele><time>2026-05-04T10:27:35.778Z</time></trkpt><trkpt lat="41.5057647" lon="0.0551842"><ele>288.75</ele><time>2026-05-04T10:27:36.778Z</time></trkpt><trkpt lat="41.5058462" lon="0.0553443"><ele>289.0</ele><time>2026-05-04T10:27:37.778Z</time></trkpt><trkpt lat="41.5059253" lon="0.0555045"><ele>289.0</ele><time>2026-05-04T10:27:38.778Z</time></trkpt><trkpt lat="41.5060047" lon="0.0556668"><ele>289.0</ele><time>2026-05-04T10:27:39.778Z</time></trkpt><trkpt lat="41.5060867" lon="0.055828"><ele>289.0</ele><time>2026-05-04T10:27:40.777Z</time></trkpt><trkpt lat="41.5061673" lon="0.055988"><ele>289.0</ele><time>2026-05-04T10:27:41.778Z</time></trkpt><trkpt lat="41.5062468" lon="0.0561465"><ele>288.5</ele><time>2026-05-04T10:27:42.778Z</time></trkpt><trkpt lat="41.5063282" lon="0.0563039"><ele>288.0</ele><time>2026-05-04T10:27:43.777Z</time></trkpt><trkpt lat="41.5064073" lon="0.0564663"><ele>287.5</ele><time>2026-05-04T10:27:44.778Z</time></trkpt><trkpt lat="41.5064886" lon="0.0566293"><ele>287.0</ele><time>2026-05-04T10:27:45.777Z</time></trkpt><trkpt lat="41.5065668" lon="0.0567929"><ele>286.75</ele><time>2026-05-04T10:27:46.778Z</time></trkpt><trkpt lat="41.5066478" lon="0.0569573"><ele>286.5</ele><time>2026-05-04T10:27:47.778Z</time></trkpt><trkpt lat="41.5067265" lon="0.0571207"><ele>286.25</ele><time>2026-05-04T10:27:48.778Z</time></trkpt><trkpt lat="41.5068046" lon="0.0572721"><ele>286.0</ele><time>2026-05-04T10:27:49.778Z</time></trkpt><trkpt lat="41.50688" lon="0.0574242"><ele>285.75</ele><time>2026-05-04T10:27:50.777Z</time></trkpt><trkpt lat="41.5069602" lon="0.0575798"><ele>285.5</ele><time>2026-05-04T10:27:51.778Z</time></trkpt><trkpt lat="41.5070383" lon="0.0577358"><ele>285.25</ele><time>2026-05-04T10:27:52.778Z</time></trkpt><trkpt lat="41.5071135" lon="0.0579033"><ele>285.0</ele><time>2026-05-04T10:27:53.777Z</time></trkpt><trkpt lat="41.5071955" lon="0.0580663"><ele>284.75</ele><time>2026-05-04T10:27:54.778Z</time></trkpt><trkpt lat="41.507275" lon="0.0582274"><ele>284.5</ele><time>2026-05-04T10:27:55.778Z</time></trkpt><trkpt lat="41.5073539" lon="0.0583791"><ele>284.25</ele><time>2026-05-04T10:27:56.778Z</time></trkpt><trkpt lat="41.5074348" lon="0.0585369"><ele>284.0</ele><time>2026-05-04T10:27:57.778Z</time></trkpt><trkpt lat="41.5075169" lon="0.0586982"><ele>284.0</ele><time>2026-05-04T10:27:58.778Z</time></trkpt><trkpt lat="41.5076004" lon="0.0588651"><ele>284.0</ele><time>2026-05-04T10:27:59.778Z</time></trkpt><trkpt lat="41.5076794" lon="0.0590312"><ele>284.0</ele><time>2026-05-04T10:28:00.777Z</time></trkpt><trkpt lat="41.5077606" lon="0.0592094"><ele>284.0</ele><time>2026-05-04T10:28:01.777Z</time></trkpt><trkpt lat="41.5078446" lon="0.0593767"><ele>284.0</ele><time>2026-05-04T10:28:02.778Z</time></trkpt><trkpt lat="41.5079239" lon="0.0595535"><ele>284.0</ele><time>2026-05-04T10:28:03.778Z</time></trkpt><trkpt lat="41.5080048" lon="0.0597259"><ele>284.25</ele><time>2026-05-04T10:28:04.778Z</time></trkpt><trkpt lat="41.5080812" lon="0.0598948"><ele>284.5</ele><time>2026-05-04T10:28:05.778Z</time></trkpt><trkpt lat="41.5081508" lon="0.0600619"><ele>284.75</ele><time>2026-05-04T10:28:06.778Z</time></trkpt><trkpt lat="41.5082176" lon="0.0602234"><ele>285.0</ele><time>2026-05-04T10:28:07.777Z</time></trkpt><trkpt lat="41.5082838" lon="0.0603925"><ele>285.0</ele><time>2026-05-04T10:28:08.778Z</time></trkpt><trkpt lat="41.5083495" lon="0.0605613"><ele>285.0</ele><time>2026-05-04T10:28:09.778Z</time></trkpt><trkpt lat="41.5084124" lon="0.0607338"><ele>285.0</ele><time>2026-05-04T10:28:10.778Z</time></trkpt><trkpt lat="41.5084723" lon="0.0609048"><ele>285.0</ele><time>2026-05-04T10:28:11.778Z</time></trkpt><trkpt lat="41.5085319" lon="0.061078"><ele>285.0</ele><time>2026-05-04T10:28:12.777Z</time></trkpt><trkpt lat="41.5085956" lon="0.0612537"><ele>285.0</ele><time>2026-05-04T10:28:13.777Z</time></trkpt><trkpt lat="41.5086529" lon="0.0614281"><ele>285.0</ele><time>2026-05-04T10:28:14.778Z</time></trkpt><trkpt lat="41.5087076" lon="0.0616039"><ele>285.0</ele><time>2026-05-04T10:28:15.778Z</time></trkpt><trkpt lat="41.5087598" lon="0.0617849"><ele>285.0</ele><time>2026-05-04T10:28:16.778Z</time></trkpt><trkpt lat="41.5088103" lon="0.0619666"><ele>285.0</ele><time>2026-05-04T10:28:17.777Z</time></trkpt><trkpt lat="41.5088599" lon="0.0621533"><ele>285.0</ele><time>2026-05-04T10:28:18.778Z</time></trkpt><trkpt lat="41.5089021" lon="0.0623342"><ele>285.0</ele><time>2026-05-04T10:28:19.778Z</time></trkpt><trkpt lat="41.5089466" lon="0.0625271"><ele>285.0</ele><time>2026-05-04T10:28:20.778Z</time></trkpt><trkpt lat="41.5089866" lon="0.0627226"><ele>285.0</ele><time>2026-05-04T10:28:21.778Z</time></trkpt><trkpt lat="41.5090289" lon="0.0629128"><ele>285.0</ele><time>2026-05-04T10:28:22.778Z</time></trkpt><trkpt lat="41.5090635" lon="0.0631051"><ele>285.0</ele><time>2026-05-04T10:28:23.778Z</time></trkpt><trkpt lat="41.509094" lon="0.0632951"><ele>285.0</ele><time>2026-05-04T10:28:24.778Z</time></trkpt><trkpt lat="41.5091249" lon="0.0634779"><ele>285.0</ele><time>2026-05-04T10:28:25.778Z</time></trkpt><trkpt lat="41.5091529" lon="0.0636569"><ele>285.0</ele><time>2026-05-04T10:28:26.778Z</time></trkpt><trkpt lat="41.5091798" lon="0.0638301"><ele>285.0</ele><time>2026-05-04T10:28:27.778Z</time></trkpt><trkpt lat="41.5092054" lon="0.064003"><ele>286.25</ele><time>2026-05-04T10:28:28.778Z</time></trkpt><trkpt lat="41.5092257" lon="0.0641784"><ele>287.5</ele><time>2026-05-04T10:28:29.778Z</time></trkpt><trkpt lat="41.5092495" lon="0.0643507"><ele>288.75</ele><time>2026-05-04T10:28:30.778Z</time></trkpt><trkpt lat="41.509269" lon="0.0645247"><ele>290.0</ele><time>2026-05-04T10:28:31.778Z</time></trkpt><trkpt lat="41.5092871" lon="0.0646988"><ele>290.0</ele><time>2026-05-04T10:28:32.777Z</time></trkpt><trkpt lat="41.5092953" lon="0.0648643"><ele>290.0</ele><time>2026-05-04T10:28:33.777Z</time></trkpt><trkpt lat="41.5093037" lon="0.0650366"><ele>290.0</ele><time>2026-05-04T10:28:34.778Z</time></trkpt><trkpt lat="41.5093091" lon="0.0652115"><ele>290.0</ele><time>2026-05-04T10:28:35.778Z</time></trkpt><trkpt lat="41.5093133" lon="0.0653861"><ele>289.75</ele><time>2026-05-04T10:28:36.778Z</time></trkpt><trkpt lat="41.50932" lon="0.0655613"><ele>289.5</ele><time>2026-05-04T10:28:37.778Z</time></trkpt><trkpt lat="41.5093226" lon="0.0657353"><ele>289.25</ele><time>2026-05-04T10:28:38.777Z</time></trkpt><trkpt lat="41.5093244" lon="0.065907"><ele>289.0</ele><time>2026-05-04T10:28:39.778Z</time></trkpt><trkpt lat="41.509319" lon="0.0660812"><ele>288.25</ele><time>2026-05-04T10:28:40.778Z</time></trkpt><trkpt lat="41.5093114" lon="0.0662605"><ele>287.5</ele><time>2026-05-04T10:28:41.778Z</time></trkpt><trkpt lat="41.5093072" lon="0.0664433"><ele>286.75</ele><time>2026-05-04T10:28:42.778Z</time></trkpt><trkpt lat="41.5093041" lon="0.0666241"><ele>286.0</ele><time>2026-05-04T10:28:43.778Z</time></trkpt><trkpt lat="41.5092955" lon="0.0668025"><ele>284.75</ele><time>2026-05-04T10:28:44.777Z</time></trkpt><trkpt lat="41.5092863" lon="0.0669797"><ele>283.5</ele><time>2026-05-04T10:28:45.778Z</time></trkpt><trkpt lat="41.5092718" lon="0.0671605"><ele>282.25</ele><time>2026-05-04T10:28:46.778Z</time></trkpt><trkpt lat="41.509255" lon="0.0673413"><ele>281.0</ele><time>2026-05-04T10:28:47.777Z</time></trkpt><trkpt lat="41.5092362" lon="0.0675204"><ele>280.75</ele><time>2026-05-04T10:28:48.778Z</time></trkpt><trkpt lat="41.5092199" lon="0.0677"><ele>280.5</ele><time>2026-05-04T10:28:49.778Z</time></trkpt><trkpt lat="41.5091973" lon="0.0678796"><ele>280.25</ele><time>2026-05-04T10:28:50.778Z</time></trkpt><trkpt lat="41.5091737" lon="0.0680642"><ele>280.0</ele><time>2026-05-04T10:28:51.778Z</time></trkpt><trkpt lat="41.5091482" lon="0.0682561"><ele>279.25</ele><time>2026-05-04T10:28:52.778Z</time></trkpt><trkpt lat="41.5091193" lon="0.0684445"><ele>278.5</ele><time>2026-05-04T10:28:53.778Z</time></trkpt><trkpt lat="41.5090901" lon="0.0686345"><ele>277.75</ele><time>2026-05-04T10:28:54.778Z</time></trkpt><trkpt lat="41.5090571" lon="0.068824"><ele>277.0</ele><time>2026-05-04T10:28:55.778Z</time></trkpt><trkpt lat="41.5090252" lon="0.0690147"><ele>276.5</ele><time>2026-05-04T10:28:56.778Z</time></trkpt><trkpt lat="41.5089854" lon="0.0692033"><ele>276.0</ele><time>2026-05-04T10:28:57.778Z</time></trkpt><trkpt lat="41.508948" lon="0.0693923"><ele>275.5</ele><time>2026-05-04T10:28:58.778Z</time></trkpt><trkpt lat="41.5089137" lon="0.0695833"><ele>275.0</ele><time>2026-05-04T10:28:59.778Z</time></trkpt><trkpt lat="41.5088772" lon="0.069771"><ele>275.25</ele><time>2026-05-04T10:29:00.778Z</time></trkpt><trkpt lat="41.508844" lon="0.0699575"><ele>275.5</ele><time>2026-05-04T10:29:01.779Z</time></trkpt><trkpt lat="41.5088084" lon="0.0701424"><ele>275.75</ele><time>2026-05-04T10:29:02.779Z</time></trkpt><trkpt lat="41.5087731" lon="0.0703236"><ele>276.0</ele><time>2026-05-04T10:29:03.779Z</time></trkpt><trkpt lat="41.5087366" lon="0.0705027"><ele>276.0</ele><time>2026-05-04T10:29:04.779Z</time></trkpt><trkpt lat="41.5087025" lon="0.0706772"><ele>276.0</ele><time>2026-05-04T10:29:05.779Z</time></trkpt><trkpt lat="41.5086751" lon="0.0708508"><ele>276.0</ele><time>2026-05-04T10:29:06.779Z</time></trkpt><trkpt lat="41.5086487" lon="0.0710228"><ele>276.0</ele><time>2026-05-04T10:29:07.779Z</time></trkpt><trkpt lat="41.5086206" lon="0.0711988"><ele>276.0</ele><time>2026-05-04T10:29:08.779Z</time></trkpt><trkpt lat="41.5085962" lon="0.0713748"><ele>276.0</ele><time>2026-05-04T10:29:09.779Z</time></trkpt><trkpt lat="41.5085752" lon="0.0715509"><ele>276.0</ele><time>2026-05-04T10:29:10.779Z</time></trkpt><trkpt lat="41.5085515" lon="0.0717287"><ele>276.0</ele><time>2026-05-04T10:29:11.779Z</time></trkpt><trkpt lat="41.5085325" lon="0.0719095"><ele>276.0</ele><time>2026-05-04T10:29:12.778Z</time></trkpt><trkpt lat="41.5085187" lon="0.0720922"><ele>276.0</ele><time>2026-05-04T10:29:13.779Z</time></trkpt><trkpt lat="41.5085041" lon="0.0722753"><ele>276.0</ele><time>2026-05-04T10:29:14.779Z</time></trkpt><trkpt lat="41.5084873" lon="0.0724551"><ele>276.0</ele><time>2026-05-04T10:29:15.779Z</time></trkpt><trkpt lat="41.5084755" lon="0.0726354"><ele>276.0</ele><time>2026-05-04T10:29:16.779Z</time></trkpt><trkpt lat="41.5084671" lon="0.0728106"><ele>276.0</ele><time>2026-05-04T10:29:17.779Z</time></trkpt><trkpt lat="41.5084589" lon="0.0729904"><ele>276.0</ele><time>2026-05-04T10:29:18.779Z</time></trkpt><trkpt lat="41.508451" lon="0.0731709"><ele>276.0</ele><time>2026-05-04T10:29:19.779Z</time></trkpt><trkpt lat="41.508445" lon="0.0733512"><ele>276.0</ele><time>2026-05-04T10:29:20.779Z</time></trkpt><trkpt lat="41.5084449" lon="0.0735301"><ele>276.0</ele><time>2026-05-04T10:29:21.779Z</time></trkpt><trkpt lat="41.5084486" lon="0.0737085"><ele>276.0</ele><time>2026-05-04T10:29:22.779Z</time></trkpt><trkpt lat="41.5084564" lon="0.0738905"><ele>276.0</ele><time>2026-05-04T10:29:23.779Z</time></trkpt><trkpt lat="41.5084666" lon="0.0740735"><ele>276.75</ele><time>2026-05-04T10:29:24.779Z</time></trkpt><trkpt lat="41.5084716" lon="0.0742625"><ele>277.5</ele><time>2026-05-04T10:29:25.779Z</time></trkpt><trkpt lat="41.508479" lon="0.0744517"><ele>278.25</ele><time>2026-05-04T10:29:26.778Z</time></trkpt><trkpt lat="41.508484" lon="0.0746372"><ele>279.0</ele><time>2026-05-04T10:29:27.779Z</time></trkpt><trkpt lat="41.5084892" lon="0.0748245"><ele>279.0</ele><time>2026-05-04T10:29:28.778Z</time></trkpt><trkpt lat="41.5085056" lon="0.0750082"><ele>279.0</ele><time>2026-05-04T10:29:29.778Z</time></trkpt><trkpt lat="41.5085236" lon="0.0751982"><ele>279.0</ele><time>2026-05-04T10:29:30.779Z</time></trkpt><trkpt lat="41.5085386" lon="0.0753813"><ele>279.0</ele><time>2026-05-04T10:29:31.779Z</time></trkpt><trkpt lat="41.508558" lon="0.07557"><ele>279.0</ele><time>2026-05-04T10:29:32.779Z</time></trkpt><trkpt lat="41.5085832" lon="0.0757629"><ele>279.0</ele><time>2026-05-04T10:29:33.779Z</time></trkpt><trkpt lat="41.5086097" lon="0.0759552"><ele>279.0</ele><time>2026-05-04T10:29:34.779Z</time></trkpt><trkpt lat="41.5086381" lon="0.0761501"><ele>279.0</ele><time>2026-05-04T10:29:35.779Z</time></trkpt><trkpt lat="41.5086684" lon="0.0763424"><ele>279.0</ele><time>2026-05-04T10:29:36.779Z</time></trkpt><trkpt lat="41.5087014" lon="0.0765349"><ele>279.0</ele><time>2026-05-04T10:29:37.779Z</time></trkpt><trkpt lat="41.5087337" lon="0.0767283"><ele>279.0</ele><time>2026-05-04T10:29:38.778Z</time></trkpt><trkpt lat="41.5087682" lon="0.0769193"><ele>279.0</ele><time>2026-05-04T10:29:39.779Z</time></trkpt><trkpt lat="41.508807" lon="0.0771123"><ele>279.0</ele><time>2026-05-04T10:29:40.779Z</time></trkpt><trkpt lat="41.5088523" lon="0.0773025"><ele>279.0</ele><time>2026-05-04T10:29:41.779Z</time></trkpt><trkpt lat="41.508896" lon="0.0774958"><ele>279.0</ele><time>2026-05-04T10:29:42.779Z</time></trkpt><trkpt lat="41.5089421" lon="0.0776863"><ele>279.0</ele><time>2026-05-04T10:29:43.779Z</time></trkpt><trkpt lat="41.5089885" lon="0.077878"><ele>279.0</ele><time>2026-05-04T10:29:44.779Z</time></trkpt><trkpt lat="41.5090386" lon="0.0780711"><ele>279.0</ele><time>2026-05-04T10:29:45.779Z</time></trkpt><trkpt lat="41.5090898" lon="0.0782587"><ele>279.0</ele><time>2026-05-04T10:29:46.779Z</time></trkpt><trkpt lat="41.5091425" lon="0.0784467"><ele>279.0</ele><time>2026-05-04T10:29:47.779Z</time></trkpt><trkpt lat="41.5091975" lon="0.0786321"><ele>279.0</ele><time>2026-05-04T10:29:48.779Z</time></trkpt><trkpt lat="41.5092519" lon="0.0788181"><ele>279.0</ele><time>2026-05-04T10:29:49.779Z</time></trkpt><trkpt lat="41.5093089" lon="0.0790033"><ele>279.0</ele><time>2026-05-04T10:29:50.779Z</time></trkpt><trkpt lat="41.5093697" lon="0.0791924"><ele>279.0</ele><time>2026-05-04T10:29:51.779Z</time></trkpt><trkpt lat="41.509434" lon="0.079377"><ele>279.0</ele><time>2026-05-04T10:29:52.778Z</time></trkpt><trkpt lat="41.5094971" lon="0.0795593"><ele>279.0</ele><time>2026-05-04T10:29:53.779Z</time></trkpt><trkpt lat="41.5095649" lon="0.0797334"><ele>279.0</ele><time>2026-05-04T10:29:54.779Z</time></trkpt><trkpt lat="41.5096326" lon="0.0799147"><ele>279.0</ele><time>2026-05-04T10:29:55.779Z</time></trkpt><trkpt lat="41.509699" lon="0.0800882"><ele>279.0</ele><time>2026-05-04T10:29:56.779Z</time></trkpt><trkpt lat="41.5097662" lon="0.0802669"><ele>279.25</ele><time>2026-05-04T10:29:57.779Z</time></trkpt><trkpt lat="41.5098318" lon="0.0804488"><ele>279.5</ele><time>2026-05-04T10:29:58.778Z</time></trkpt><trkpt lat="41.5098926" lon="0.0806255"><ele>279.75</ele><time>2026-05-04T10:29:59.779Z</time></trkpt><trkpt lat="41.5099579" lon="0.0808043"><ele>280.0</ele><time>2026-05-04T10:30:00.779Z</time></trkpt><trkpt lat="41.510022" lon="0.0809861"><ele>279.25</ele><time>2026-05-04T10:30:01.779Z</time></trkpt><trkpt lat="41.5100882" lon="0.0811647"><ele>278.5</ele><time>2026-05-04T10:30:02.778Z</time></trkpt><trkpt lat="41.5101483" lon="0.0813397"><ele>277.75</ele><time>2026-05-04T10:30:03.778Z</time></trkpt><trkpt lat="41.510209" lon="0.0815208"><ele>277.0</ele><time>2026-05-04T10:30:04.779Z</time></trkpt><trkpt lat="41.5102715" lon="0.0816981"><ele>277.0</ele><time>2026-05-04T10:30:05.779Z</time></trkpt><trkpt lat="41.5103338" lon="0.081877"><ele>277.0</ele><time>2026-05-04T10:30:06.779Z</time></trkpt><trkpt lat="41.510398" lon="0.0820565"><ele>277.0</ele><time>2026-05-04T10:30:07.779Z</time></trkpt><trkpt lat="41.5104628" lon="0.0822308"><ele>277.0</ele><time>2026-05-04T10:30:08.779Z</time></trkpt><trkpt lat="41.5105273" lon="0.0824046"><ele>276.5</ele><time>2026-05-04T10:30:09.778Z</time></trkpt><trkpt lat="41.510593" lon="0.0825766"><ele>276.0</ele><time>2026-05-04T10:30:10.779Z</time></trkpt><trkpt lat="41.5106544" lon="0.0827447"><ele>275.5</ele><time>2026-05-04T10:30:11.779Z</time></trkpt><trkpt lat="41.5107119" lon="0.0829113"><ele>275.0</ele><time>2026-05-04T10:30:12.779Z</time></trkpt><trkpt lat="41.5107715" lon="0.0830785"><ele>275.0</ele><time>2026-05-04T10:30:13.779Z</time></trkpt><trkpt lat="41.5108308" lon="0.0832418"><ele>275.0</ele><time>2026-05-04T10:30:14.779Z</time></trkpt><trkpt lat="41.5108894" lon="0.0834082"><ele>275.0</ele><time>2026-05-04T10:30:15.779Z</time></trkpt><trkpt lat="41.5109509" lon="0.0835728"><ele>275.0</ele><time>2026-05-04T10:30:16.778Z</time></trkpt><trkpt lat="41.511011" lon="0.0837304"><ele>275.5</ele><time>2026-05-04T10:30:17.779Z</time></trkpt><trkpt lat="41.5110665" lon="0.0838861"><ele>276.0</ele><time>2026-05-04T10:30:18.779Z</time></trkpt><trkpt lat="41.5111252" lon="0.0840514"><ele>276.5</ele><time>2026-05-04T10:30:19.779Z</time></trkpt><trkpt lat="41.5111798" lon="0.084213"><ele>277.0</ele><time>2026-05-04T10:30:20.779Z</time></trkpt><trkpt lat="41.5112418" lon="0.084381"><ele>277.0</ele><time>2026-05-04T10:30:21.779Z</time></trkpt><trkpt lat="41.5113017" lon="0.0845448"><ele>277.0</ele><time>2026-05-04T10:30:22.779Z</time></trkpt><trkpt lat="41.5113597" lon="0.0847063"><ele>277.0</ele><time>2026-05-04T10:30:23.779Z</time></trkpt><trkpt lat="41.5114172" lon="0.0848736"><ele>277.0</ele><time>2026-05-04T10:30:24.779Z</time></trkpt><trkpt lat="41.5114815" lon="0.0850384"><ele>277.25</ele><time>2026-05-04T10:30:25.779Z</time></trkpt><trkpt lat="41.5115446" lon="0.0852063"><ele>277.5</ele><time>2026-05-04T10:30:26.778Z</time></trkpt><trkpt lat="41.5116057" lon="0.0853766"><ele>277.75</ele><time>2026-05-04T10:30:27.779Z</time></trkpt><trkpt lat="41.5116701" lon="0.0855472"><ele>278.0</ele><time>2026-05-04T10:30:28.779Z</time></trkpt><trkpt lat="41.5117293" lon="0.085725"><ele>279.0</ele><time>2026-05-04T10:30:29.779Z</time></trkpt><trkpt lat="41.5117915" lon="0.0858992"><ele>280.0</ele><time>2026-05-04T10:30:30.779Z</time></trkpt><trkpt lat="41.5118554" lon="0.0860736"><ele>281.0</ele><time>2026-05-04T10:30:31.779Z</time></trkpt><trkpt lat="41.511919" lon="0.0862469"><ele>282.0</ele><time>2026-05-04T10:30:32.779Z</time></trkpt><trkpt lat="41.5119849" lon="0.0864247"><ele>282.0</ele><time>2026-05-04T10:30:33.779Z</time></trkpt><trkpt lat="41.5120503" lon="0.086598"><ele>282.0</ele><time>2026-05-04T10:30:34.779Z</time></trkpt><trkpt lat="41.5121118" lon="0.0867722"><ele>282.0</ele><time>2026-05-04T10:30:35.778Z</time></trkpt><trkpt lat="41.5121716" lon="0.0869443"><ele>282.0</ele><time>2026-05-04T10:30:36.779Z</time></trkpt><trkpt lat="41.5122278" lon="0.0871063"><ele>281.75</ele><time>2026-05-04T10:30:37.779Z</time></trkpt><trkpt lat="41.512287" lon="0.0872624"><ele>281.5</ele><time>2026-05-04T10:30:38.779Z</time></trkpt><trkpt lat="41.5123463" lon="0.0874236"><ele>281.25</ele><time>2026-05-04T10:30:39.778Z</time></trkpt><trkpt lat="41.5124061" lon="0.0875811"><ele>281.0</ele><time>2026-05-04T10:30:40.779Z</time></trkpt><trkpt lat="41.5124589" lon="0.0877338"><ele>281.0</ele><time>2026-05-04T10:30:41.779Z</time></trkpt><trkpt lat="41.512508" lon="0.0878749"><ele>281.0</ele><time>2026-05-04T10:30:42.779Z</time></trkpt><trkpt lat="41.5125586" lon="0.0880143"><ele>281.0</ele><time>2026-05-04T10:30:43.779Z</time></trkpt><trkpt lat="41.512602" lon="0.0881394"><ele>281.0</ele><time>2026-05-04T10:30:44.779Z</time></trkpt><trkpt lat="41.5126351" lon="0.0882472"><ele>281.0</ele><time>2026-05-04T10:30:45.778Z</time></trkpt><trkpt lat="41.5126695" lon="0.0883566"><ele>281.6</ele><time>2026-05-04T10:30:46.779Z</time></trkpt><trkpt lat="41.5127082" lon="0.0884632"><ele>282.20000000000005</ele><time>2026-05-04T10:30:47.779Z</time></trkpt><trkpt lat="41.5127547" lon="0.0885649"><ele>282.79999999999995</ele><time>2026-05-04T10:30:48.779Z</time></trkpt><trkpt lat="41.5128008" lon="0.0886675"><ele>283.4</ele><time>2026-05-04T10:30:49.779Z</time></trkpt><trkpt lat="41.512853" lon="0.0887716"><ele>284.0</ele><time>2026-05-04T10:30:50.778Z</time></trkpt><trkpt lat="41.5129147" lon="0.0888727"><ele>285.0</ele><time>2026-05-04T10:30:51.779Z</time></trkpt><trkpt lat="41.5129708" lon="0.0889628"><ele>286.0</ele><time>2026-05-04T10:30:52.779Z</time></trkpt><trkpt lat="41.5130479" lon="0.0890405"><ele>287.0</ele><time>2026-05-04T10:30:54.779Z</time></trkpt><trkpt lat="41.513116" lon="0.0889876"><ele>288.0</ele><time>2026-05-04T10:30:56.779Z</time></trkpt><trkpt lat="41.513108" lon="0.0888932"><ele>289.0</ele><time>2026-05-04T10:30:58.779Z</time></trkpt><trkpt lat="41.5130659" lon="0.0887756"><ele>290.0</ele><time>2026-05-04T10:31:00.779Z</time></trkpt><trkpt lat="41.5130415" lon="0.0886667"><ele>290.0</ele><time>2026-05-04T10:31:02.779Z</time></trkpt><trkpt lat="41.5130161" lon="0.0885618"><ele>290.0</ele><time>2026-05-04T10:31:04.778Z</time></trkpt><trkpt lat="41.5129739" lon="0.0884766"><ele>290.0</ele><time>2026-05-04T10:31:07.779Z</time></trkpt><trkpt lat="41.5129597" lon="0.0883846"><ele>290.0</ele><time>2026-05-04T10:31:11.779Z</time></trkpt><trkpt lat="41.5129555" lon="0.088485"><ele>290.0</ele><time>2026-05-04T10:31:24.779Z</time></trkpt><trkpt lat="41.5130048" lon="0.0885401"><ele>290.0</ele><time>2026-05-04T10:31:26.779Z</time></trkpt><trkpt lat="41.5130237" lon="0.0886458"><ele>290.0</ele><time>2026-05-04T10:31:29.779Z</time></trkpt><trkpt lat="41.5130178" lon="0.0887451"><ele>290.0</ele><time>2026-05-04T10:31:31.78Z</time></trkpt><trkpt lat="41.5130352" lon="0.0888666"><ele>290.0</ele><time>2026-05-04T10:31:33.78Z</time></trkpt><trkpt lat="41.5130436" lon="0.0889623"><ele>290.0</ele><time>2026-05-04T10:31:35.78Z</time></trkpt><trkpt lat="41.5130549" lon="0.0890591"><ele>290.0</ele><time>2026-05-04T10:31:38.78Z</time></trkpt><trkpt lat="41.5130507" lon="0.0892063"><ele>290.0</ele><time>2026-05-04T10:31:46.78Z</time></trkpt><trkpt lat="41.5130582" lon="0.0893631"><ele>289.6666666666667</ele><time>2026-05-04T10:31:48.78Z</time></trkpt><trkpt lat="41.5130322" lon="0.0894474"><ele>289.33333333333337</ele><time>2026-05-04T10:32:32.876Z</time></trkpt><trkpt lat="41.5129799" lon="0.089362"><ele>289.0</ele><time>2026-05-04T10:32:41.78Z</time></trkpt><trkpt lat="41.51302" lon="0.0894547"><ele>288.6666666666667</ele><time>2026-05-04T10:37:59.796Z</time></trkpt><trkpt lat="41.5130775" lon="0.0895155"><ele>288.3333333333333</ele><time>2026-05-04T10:38:01.872Z</time></trkpt><trkpt lat="41.5131282" lon="0.089566"><ele>288.0</ele><time>2026-05-04T10:38:03.812Z</time></trkpt><trkpt lat="41.5131719" lon="0.0896721"><ele>288.0</ele><time>2026-05-04T10:38:06.792Z</time></trkpt><trkpt lat="41.5131829" lon="0.0897764"><ele>288.0</ele><time>2026-05-04T10:38:08.869Z</time></trkpt><trkpt lat="41.5132015" lon="0.0899004"><ele>288.0</ele><time>2026-05-04T10:38:10.826Z</time></trkpt><trkpt lat="41.5132556" lon="0.0900305"><ele>288.0</ele><time>2026-05-04T10:38:13.807Z</time></trkpt><trkpt lat="41.51331" lon="0.0901807"><ele>288.0</ele><time>2026-05-04T10:38:15.782Z</time></trkpt><trkpt lat="41.5133576" lon="0.0903291"><ele>287.8571428571429</ele><time>2026-05-04T10:38:17.781Z</time></trkpt><trkpt lat="41.5133817" lon="0.090413"><ele>287.7142857142857</ele><time>2026-05-04T10:38:18.782Z</time></trkpt><trkpt lat="41.513406" lon="0.0904976"><ele>287.57142857142856</ele><time>2026-05-04T10:38:19.782Z</time></trkpt><trkpt lat="41.5134276" lon="0.0905777"><ele>287.42857142857144</ele><time>2026-05-04T10:38:20.782Z</time></trkpt><trkpt lat="41.5134457" lon="0.0906659"><ele>287.2857142857143</ele><time>2026-05-04T10:38:21.782Z</time></trkpt><trkpt lat="41.5134675" lon="0.0907606"><ele>287.14285714285717</ele><time>2026-05-04T10:38:22.782Z</time></trkpt><trkpt lat="41.5134904" lon="0.0908647"><ele>287.0</ele><time>2026-05-04T10:38:23.782Z</time></trkpt><trkpt lat="41.5135089" lon="0.0909743"><ele>287.4</ele><time>2026-05-04T10:38:24.782Z</time></trkpt><trkpt lat="41.5135253" lon="0.0910906"><ele>287.79999999999995</ele><time>2026-05-04T10:38:25.782Z</time></trkpt><trkpt lat="41.5135478" lon="0.0912119"><ele>288.2</ele><time>2026-05-04T10:38:26.782Z</time></trkpt><trkpt lat="41.5135662" lon="0.0913362"><ele>288.59999999999997</ele><time>2026-05-04T10:38:27.782Z</time></trkpt><trkpt lat="41.513579" lon="0.091466"><ele>289.0</ele><time>2026-05-04T10:38:28.782Z</time></trkpt><trkpt lat="41.513588" lon="0.0915989"><ele>289.4</ele><time>2026-05-04T10:38:29.781Z</time></trkpt><trkpt lat="41.5135908" lon="0.0917389"><ele>289.79999999999995</ele><time>2026-05-04T10:38:30.781Z</time></trkpt><trkpt lat="41.5135891" lon="0.0918763"><ele>290.20000000000005</ele><time>2026-05-04T10:38:31.782Z</time></trkpt><trkpt lat="41.5135857" lon="0.0920154"><ele>290.6</ele><time>2026-05-04T10:38:32.782Z</time></trkpt><trkpt lat="41.5135737" lon="0.0921535"><ele>291.0</ele><time>2026-05-04T10:38:33.782Z</time></trkpt><trkpt lat="41.5135638" lon="0.0922958"><ele>291.6</ele><time>2026-05-04T10:38:34.782Z</time></trkpt><trkpt lat="41.5135478" lon="0.0924412"><ele>292.20000000000005</ele><time>2026-05-04T10:38:35.782Z</time></trkpt><trkpt lat="41.5135406" lon="0.0925899"><ele>292.79999999999995</ele><time>2026-05-04T10:38:36.782Z</time></trkpt><trkpt lat="41.513524" lon="0.09274"><ele>293.4</ele><time>2026-05-04T10:38:37.782Z</time></trkpt><trkpt lat="41.5135093" lon="0.0928885"><ele>294.0</ele><time>2026-05-04T10:38:38.781Z</time></trkpt><trkpt lat="41.5134962" lon="0.0930244"><ele>294.0</ele><time>2026-05-04T10:38:39.782Z</time></trkpt><trkpt lat="41.5134786" lon="0.0931511"><ele>294.0</ele><time>2026-05-04T10:38:40.782Z</time></trkpt><trkpt lat="41.5134636" lon="0.0932793"><ele>294.0</ele><time>2026-05-04T10:38:41.782Z</time></trkpt><trkpt lat="41.5134465" lon="0.0934108"><ele>294.0</ele><time>2026-05-04T10:38:42.782Z</time></trkpt><trkpt lat="41.5134322" lon="0.0935437"><ele>294.0</ele><time>2026-05-04T10:38:43.782Z</time></trkpt><trkpt lat="41.5134193" lon="0.0936749"><ele>294.59999999999997</ele><time>2026-05-04T10:38:44.782Z</time></trkpt><trkpt lat="41.513404" lon="0.0938052"><ele>295.2</ele><time>2026-05-04T10:38:45.782Z</time></trkpt><trkpt lat="41.5133863" lon="0.0939365"><ele>295.79999999999995</ele><time>2026-05-04T10:38:46.782Z</time></trkpt><trkpt lat="41.5133717" lon="0.0940703"><ele>296.4</ele><time>2026-05-04T10:38:47.782Z</time></trkpt><trkpt lat="41.5133525" lon="0.0942082"><ele>297.0</ele><time>2026-05-04T10:38:48.782Z</time></trkpt><trkpt lat="41.5133347" lon="0.0943549"><ele>298.5</ele><time>2026-05-04T10:38:49.782Z</time></trkpt><trkpt lat="41.5133174" lon="0.0945012"><ele>300.0</ele><time>2026-05-04T10:38:50.782Z</time></trkpt><trkpt lat="41.5133002" lon="0.0946505"><ele>301.5</ele><time>2026-05-04T10:38:51.782Z</time></trkpt><trkpt lat="41.5132842" lon="0.0947989"><ele>303.0</ele><time>2026-05-04T10:38:52.782Z</time></trkpt><trkpt lat="41.5132673" lon="0.0949507"><ele>304.5</ele><time>2026-05-04T10:38:53.782Z</time></trkpt><trkpt lat="41.5132438" lon="0.0951058"><ele>306.0</ele><time>2026-05-04T10:38:54.782Z</time></trkpt><trkpt lat="41.5132232" lon="0.0952601"><ele>307.5</ele><time>2026-05-04T10:38:55.782Z</time></trkpt><trkpt lat="41.5132069" lon="0.0954185"><ele>309.0</ele><time>2026-05-04T10:38:56.781Z</time></trkpt><trkpt lat="41.513189" lon="0.0955723"><ele>309.0</ele><time>2026-05-04T10:38:57.782Z</time></trkpt><trkpt lat="41.5131723" lon="0.0957305"><ele>309.0</ele><time>2026-05-04T10:38:58.782Z</time></trkpt><trkpt lat="41.5131569" lon="0.0958825"><ele>309.0</ele><time>2026-05-04T10:38:59.782Z</time></trkpt><trkpt lat="41.5131375" lon="0.0960364"><ele>309.0</ele><time>2026-05-04T10:39:00.782Z</time></trkpt><trkpt lat="41.513119" lon="0.0961944"><ele>309.5</ele><time>2026-05-04T10:39:01.782Z</time></trkpt><trkpt lat="41.5130992" lon="0.0963598"><ele>310.0</ele><time>2026-05-04T10:39:02.783Z</time></trkpt><trkpt lat="41.5130821" lon="0.0965244"><ele>310.5</ele><time>2026-05-04T10:39:03.783Z</time></trkpt><trkpt lat="41.5130628" lon="0.0966868"><ele>311.0</ele><time>2026-05-04T10:39:04.782Z</time></trkpt><trkpt lat="41.5130424" lon="0.0968484"><ele>311.75</ele><time>2026-05-04T10:39:05.783Z</time></trkpt><trkpt lat="41.5130228" lon="0.0970057"><ele>312.5</ele><time>2026-05-04T10:39:06.782Z</time></trkpt><trkpt lat="41.5130057" lon="0.097169"><ele>313.25</ele><time>2026-05-04T10:39:07.782Z</time></trkpt><trkpt lat="41.5129862" lon="0.0973338"><ele>314.0</ele><time>2026-05-04T10:39:08.783Z</time></trkpt><trkpt lat="41.5129678" lon="0.0975058"><ele>314.25</ele><time>2026-05-04T10:39:09.783Z</time></trkpt><trkpt lat="41.5129451" lon="0.0976721"><ele>314.5</ele><time>2026-05-04T10:39:10.783Z</time></trkpt><trkpt lat="41.5129266" lon="0.097838"><ele>314.75</ele><time>2026-05-04T10:39:11.783Z</time></trkpt><trkpt lat="41.5129093" lon="0.0980103"><ele>315.0</ele><time>2026-05-04T10:39:12.782Z</time></trkpt><trkpt lat="41.5128898" lon="0.0981727"><ele>316.0</ele><time>2026-05-04T10:39:13.783Z</time></trkpt><trkpt lat="41.5128713" lon="0.0983202"><ele>317.0</ele><time>2026-05-04T10:39:14.783Z</time></trkpt><trkpt lat="41.5128541" lon="0.0984599"><ele>318.0</ele><time>2026-05-04T10:39:15.783Z</time></trkpt><trkpt lat="41.5128384" lon="0.0986035"><ele>319.0</ele><time>2026-05-04T10:39:16.783Z</time></trkpt><trkpt lat="41.5128238" lon="0.0987556"><ele>320.0</ele><time>2026-05-04T10:39:17.783Z</time></trkpt><trkpt lat="41.5128055" lon="0.0989112"><ele>320.0</ele><time>2026-05-04T10:39:18.782Z</time></trkpt><trkpt lat="41.5127896" lon="0.0990629"><ele>320.0</ele><time>2026-05-04T10:39:19.783Z</time></trkpt><trkpt lat="41.5127734" lon="0.0992143"><ele>320.0</ele><time>2026-05-04T10:39:20.782Z</time></trkpt><trkpt lat="41.5127586" lon="0.0993683"><ele>320.0</ele><time>2026-05-04T10:39:21.783Z</time></trkpt><trkpt lat="41.5127464" lon="0.0995289"><ele>320.0</ele><time>2026-05-04T10:39:22.783Z</time></trkpt><trkpt lat="41.5127384" lon="0.0996923"><ele>320.0</ele><time>2026-05-04T10:39:23.783Z</time></trkpt><trkpt lat="41.5127362" lon="0.0998517"><ele>320.0</ele><time>2026-05-04T10:39:24.783Z</time></trkpt><trkpt lat="41.5127353" lon="0.1000081"><ele>320.0</ele><time>2026-05-04T10:39:25.783Z</time></trkpt><trkpt lat="41.5127398" lon="0.1001717"><ele>319.75</ele><time>2026-05-04T10:39:26.782Z</time></trkpt><trkpt lat="41.5127534" lon="0.1003303"><ele>319.5</ele><time>2026-05-04T10:39:27.783Z</time></trkpt><trkpt lat="41.5127733" lon="0.1004833"><ele>319.25</ele><time>2026-05-04T10:39:28.783Z</time></trkpt><trkpt lat="41.5127978" lon="0.1006391"><ele>319.0</ele><time>2026-05-04T10:39:29.783Z</time></trkpt><trkpt lat="41.5128297" lon="0.1007965"><ele>319.0</ele><time>2026-05-04T10:39:30.783Z</time></trkpt><trkpt lat="41.5128694" lon="0.100952"><ele>319.0</ele><time>2026-05-04T10:39:31.783Z</time></trkpt><trkpt lat="41.5129131" lon="0.101109"><ele>319.0</ele><time>2026-05-04T10:39:32.783Z</time></trkpt><trkpt lat="41.5129571" lon="0.1012629"><ele>319.0</ele><time>2026-05-04T10:39:33.782Z</time></trkpt><trkpt lat="41.5130055" lon="0.1014169"><ele>318.75</ele><time>2026-05-04T10:39:34.783Z</time></trkpt><trkpt lat="41.513052" lon="0.1015718"><ele>318.5</ele><time>2026-05-04T10:39:35.783Z</time></trkpt><trkpt lat="41.5130975" lon="0.1017215"><ele>318.25</ele><time>2026-05-04T10:39:36.783Z</time></trkpt><trkpt lat="41.5131449" lon="0.1018778"><ele>318.0</ele><time>2026-05-04T10:39:37.783Z</time></trkpt><trkpt lat="41.5131965" lon="0.1020342"><ele>318.0</ele><time>2026-05-04T10:39:38.783Z</time></trkpt><trkpt lat="41.5132452" lon="0.1021979"><ele>318.0</ele><time>2026-05-04T10:39:39.782Z</time></trkpt><trkpt lat="41.5132993" lon="0.1023627"><ele>318.0</ele><time>2026-05-04T10:39:40.782Z</time></trkpt><trkpt lat="41.5133521" lon="0.1025283"><ele>318.0</ele><time>2026-05-04T10:39:41.783Z</time></trkpt><trkpt lat="41.5134076" lon="0.1026975"><ele>318.25</ele><time>2026-05-04T10:39:42.782Z</time></trkpt><trkpt lat="41.5134675" lon="0.102871"><ele>318.5</ele><time>2026-05-04T10:39:43.783Z</time></trkpt><trkpt lat="41.5135238" lon="0.1030502"><ele>318.75</ele><time>2026-05-04T10:39:44.783Z</time></trkpt><trkpt lat="41.5135809" lon="0.1032306"><ele>319.0</ele><time>2026-05-04T10:39:45.783Z</time></trkpt><trkpt lat="41.5136373" lon="0.1034101"><ele>319.0</ele><time>2026-05-04T10:39:46.783Z</time></trkpt><trkpt lat="41.5136938" lon="0.1035899"><ele>319.0</ele><time>2026-05-04T10:39:47.783Z</time></trkpt><trkpt lat="41.5137531" lon="0.1037719"><ele>319.0</ele><time>2026-05-04T10:39:48.783Z</time></trkpt><trkpt lat="41.5138095" lon="0.1039509"><ele>319.0</ele><time>2026-05-04T10:39:49.783Z</time></trkpt><trkpt lat="41.5138628" lon="0.1041234"><ele>318.75</ele><time>2026-05-04T10:39:50.783Z</time></trkpt><trkpt lat="41.5139147" lon="0.1042912"><ele>318.5</ele><time>2026-05-04T10:39:51.783Z</time></trkpt><trkpt lat="41.5139675" lon="0.1044547"><ele>318.25</ele><time>2026-05-04T10:39:52.783Z</time></trkpt><trkpt lat="41.5140209" lon="0.1046242"><ele>318.0</ele><time>2026-05-04T10:39:53.783Z</time></trkpt><trkpt lat="41.5140774" lon="0.1047927"><ele>317.75</ele><time>2026-05-04T10:39:54.783Z</time></trkpt><trkpt lat="41.5141351" lon="0.104969"><ele>317.5</ele><time>2026-05-04T10:39:55.783Z</time></trkpt><trkpt lat="41.5141895" lon="0.1051418"><ele>317.25</ele><time>2026-05-04T10:39:56.783Z</time></trkpt><trkpt lat="41.5142396" lon="0.1053101"><ele>317.0</ele><time>2026-05-04T10:39:57.783Z</time></trkpt><trkpt lat="41.5142915" lon="0.10547"><ele>317.0</ele><time>2026-05-04T10:39:58.783Z</time></trkpt><trkpt lat="41.5143426" lon="0.1056315"><ele>317.0</ele><time>2026-05-04T10:39:59.782Z</time></trkpt><trkpt lat="41.5143939" lon="0.1057922"><ele>317.0</ele><time>2026-05-04T10:40:00.783Z</time></trkpt><trkpt lat="41.5144467" lon="0.1059578"><ele>317.0</ele><time>2026-05-04T10:40:01.783Z</time></trkpt><trkpt lat="41.514496" lon="0.1061202"><ele>316.75</ele><time>2026-05-04T10:40:02.783Z</time></trkpt><trkpt lat="41.5145519" lon="0.1062879"><ele>316.5</ele><time>2026-05-04T10:40:03.783Z</time></trkpt><trkpt lat="41.514605" lon="0.1064504"><ele>316.25</ele><time>2026-05-04T10:40:04.783Z</time></trkpt><trkpt lat="41.5146598" lon="0.1066198"><ele>316.0</ele><time>2026-05-04T10:40:05.783Z</time></trkpt><trkpt lat="41.5147143" lon="0.1067797"><ele>315.75</ele><time>2026-05-04T10:40:06.782Z</time></trkpt><trkpt lat="41.5147711" lon="0.1069423"><ele>315.5</ele><time>2026-05-04T10:40:07.783Z</time></trkpt><trkpt lat="41.5148213" lon="0.1071055"><ele>315.25</ele><time>2026-05-04T10:40:08.782Z</time></trkpt><trkpt lat="41.5148712" lon="0.1072712"><ele>315.0</ele><time>2026-05-04T10:40:09.782Z</time></trkpt><trkpt lat="41.514926" lon="0.1074356"><ele>314.5</ele><time>2026-05-04T10:40:10.783Z</time></trkpt><trkpt lat="41.5149806" lon="0.1076086"><ele>314.0</ele><time>2026-05-04T10:40:11.783Z</time></trkpt><trkpt lat="41.5150364" lon="0.1077836"><ele>313.5</ele><time>2026-05-04T10:40:12.783Z</time></trkpt><trkpt lat="41.515095" lon="0.1079583"><ele>313.0</ele><time>2026-05-04T10:40:13.783Z</time></trkpt><trkpt lat="41.5151525" lon="0.1081358"><ele>313.25</ele><time>2026-05-04T10:40:14.783Z</time></trkpt><trkpt lat="41.5152074" lon="0.1083142"><ele>313.5</ele><time>2026-05-04T10:40:15.783Z</time></trkpt><trkpt lat="41.5152629" lon="0.1084892"><ele>313.75</ele><time>2026-05-04T10:40:16.782Z</time></trkpt><trkpt lat="41.5153205" lon="0.1086639"><ele>314.0</ele><time>2026-05-04T10:40:17.783Z</time></trkpt><trkpt lat="41.5153763" lon="0.1088424"><ele>314.75</ele><time>2026-05-04T10:40:18.783Z</time></trkpt><trkpt lat="41.515428" lon="0.109013"><ele>315.5</ele><time>2026-05-04T10:40:19.783Z</time></trkpt><trkpt lat="41.5154826" lon="0.1091819"><ele>316.25</ele><time>2026-05-04T10:40:20.782Z</time></trkpt><trkpt lat="41.5155413" lon="0.1093511"><ele>317.0</ele><time>2026-05-04T10:40:21.783Z</time></trkpt><trkpt lat="41.5155938" lon="0.1095248"><ele>317.0</ele><time>2026-05-04T10:40:22.782Z</time></trkpt><trkpt lat="41.5156477" lon="0.1096953"><ele>317.0</ele><time>2026-05-04T10:40:23.783Z</time></trkpt><trkpt lat="41.515699" lon="0.109863"><ele>317.0</ele><time>2026-05-04T10:40:24.783Z</time></trkpt><trkpt lat="41.515752" lon="0.1100311"><ele>317.0</ele><time>2026-05-04T10:40:25.782Z</time></trkpt><trkpt lat="41.5158031" lon="0.1101984"><ele>316.75</ele><time>2026-05-04T10:40:26.782Z</time></trkpt><trkpt lat="41.515855" lon="0.1103659"><ele>316.5</ele><time>2026-05-04T10:40:27.783Z</time></trkpt><trkpt lat="41.5159067" lon="0.1105296"><ele>316.25</ele><time>2026-05-04T10:40:28.783Z</time></trkpt><trkpt lat="41.5159601" lon="0.1106956"><ele>316.0</ele><time>2026-05-04T10:40:29.783Z</time></trkpt><trkpt lat="41.5160105" lon="0.1108649"><ele>315.75</ele><time>2026-05-04T10:40:30.783Z</time></trkpt><trkpt lat="41.5160634" lon="0.1110317"><ele>315.5</ele><time>2026-05-04T10:40:31.783Z</time></trkpt><trkpt lat="41.5161209" lon="0.1112009"><ele>315.25</ele><time>2026-05-04T10:40:32.783Z</time></trkpt><trkpt lat="41.5161771" lon="0.1113698"><ele>315.0</ele><time>2026-05-04T10:40:33.783Z</time></trkpt><trkpt lat="41.5162308" lon="0.1115369"><ele>315.25</ele><time>2026-05-04T10:40:34.783Z</time></trkpt><trkpt lat="41.5162848" lon="0.1117041"><ele>315.5</ele><time>2026-05-04T10:40:35.783Z</time></trkpt><trkpt lat="41.5163389" lon="0.1118734"><ele>315.75</ele><time>2026-05-04T10:40:36.782Z</time></trkpt><trkpt lat="41.5163956" lon="0.1120383"><ele>316.0</ele><time>2026-05-04T10:40:37.783Z</time></trkpt><trkpt lat="41.5164482" lon="0.112211"><ele>316.0</ele><time>2026-05-04T10:40:38.783Z</time></trkpt><trkpt lat="41.5165034" lon="0.112385"><ele>316.0</ele><time>2026-05-04T10:40:39.783Z</time></trkpt><trkpt lat="41.5165599" lon="0.1125577"><ele>316.0</ele><time>2026-05-04T10:40:40.783Z</time></trkpt><trkpt lat="41.5166135" lon="0.1127296"><ele>316.0</ele><time>2026-05-04T10:40:41.783Z</time></trkpt><trkpt lat="41.5166698" lon="0.1129105"><ele>316.0</ele><time>2026-05-04T10:40:42.783Z</time></trkpt><trkpt lat="41.5167277" lon="0.113087"><ele>316.0</ele><time>2026-05-04T10:40:43.783Z</time></trkpt><trkpt lat="41.5167797" lon="0.1132559"><ele>316.0</ele><time>2026-05-04T10:40:44.782Z</time></trkpt><trkpt lat="41.5168376" lon="0.1134237"><ele>316.0</ele><time>2026-05-04T10:40:45.783Z</time></trkpt><trkpt lat="41.5168922" lon="0.1135893"><ele>316.0</ele><time>2026-05-04T10:40:46.782Z</time></trkpt><trkpt lat="41.5169487" lon="0.1137541"><ele>316.0</ele><time>2026-05-04T10:40:47.783Z</time></trkpt><trkpt lat="41.5170041" lon="0.1139303"><ele>316.0</ele><time>2026-05-04T10:40:48.783Z</time></trkpt><trkpt lat="41.5170591" lon="0.1141018"><ele>316.0</ele><time>2026-05-04T10:40:49.783Z</time></trkpt><trkpt lat="41.5171135" lon="0.1142774"><ele>316.0</ele><time>2026-05-04T10:40:50.783Z</time></trkpt><trkpt lat="41.5171728" lon="0.1144511"><ele>316.0</ele><time>2026-05-04T10:40:51.783Z</time></trkpt><trkpt lat="41.517228" lon="0.1146219"><ele>316.0</ele><time>2026-05-04T10:40:52.783Z</time></trkpt><trkpt lat="41.5172839" lon="0.1147966"><ele>316.0</ele><time>2026-05-04T10:40:53.782Z</time></trkpt><trkpt lat="41.5173407" lon="0.1149654"><ele>316.0</ele><time>2026-05-04T10:40:54.783Z</time></trkpt><trkpt lat="41.5174006" lon="0.1151428"><ele>316.0</ele><time>2026-05-04T10:40:55.783Z</time></trkpt><trkpt lat="41.5174539" lon="0.1153234"><ele>316.0</ele><time>2026-05-04T10:40:56.783Z</time></trkpt><trkpt lat="41.5175093" lon="0.1154975"><ele>316.0</ele><time>2026-05-04T10:40:57.783Z</time></trkpt><trkpt lat="41.517566" lon="0.1156688"><ele>315.75</ele><time>2026-05-04T10:40:58.783Z</time></trkpt><trkpt lat="41.5176164" lon="0.1158437"><ele>315.5</ele><time>2026-05-04T10:40:59.783Z</time></trkpt><trkpt lat="41.5176681" lon="0.1160186"><ele>315.25</ele><time>2026-05-04T10:41:00.782Z</time></trkpt><trkpt lat="41.5177263" lon="0.1161957"><ele>315.0</ele><time>2026-05-04T10:41:01.783Z</time></trkpt><trkpt lat="41.5177802" lon="0.1163702"><ele>315.0</ele><time>2026-05-04T10:41:02.783Z</time></trkpt><trkpt lat="41.5178344" lon="0.1165505"><ele>315.0</ele><time>2026-05-04T10:41:03.783Z</time></trkpt><trkpt lat="41.517891" lon="0.1167263"><ele>315.0</ele><time>2026-05-04T10:41:04.783Z</time></trkpt><trkpt lat="41.5179453" lon="0.1169067"><ele>315.0</ele><time>2026-05-04T10:41:05.783Z</time></trkpt><trkpt lat="41.5180065" lon="0.1170854"><ele>315.0</ele><time>2026-05-04T10:41:06.783Z</time></trkpt><trkpt lat="41.5180638" lon="0.1172725"><ele>315.0</ele><time>2026-05-04T10:41:07.783Z</time></trkpt><trkpt lat="41.5181225" lon="0.117462"><ele>315.0</ele><time>2026-05-04T10:41:08.783Z</time></trkpt><trkpt lat="41.5181839" lon="0.1176456"><ele>314.75</ele><time>2026-05-04T10:41:09.783Z</time></trkpt><trkpt lat="41.518244" lon="0.1178297"><ele>314.5</ele><time>2026-05-04T10:41:10.782Z</time></trkpt><trkpt lat="41.5183037" lon="0.1180142"><ele>314.25</ele><time>2026-05-04T10:41:11.782Z</time></trkpt><trkpt lat="41.5183617" lon="0.1181962"><ele>314.0</ele><time>2026-05-04T10:41:12.783Z</time></trkpt><trkpt lat="41.5184189" lon="0.1183779"><ele>314.0</ele><time>2026-05-04T10:41:13.783Z</time></trkpt><trkpt lat="41.5184766" lon="0.1185584"><ele>314.0</ele><time>2026-05-04T10:41:14.783Z</time></trkpt><trkpt lat="41.5185322" lon="0.1187384"><ele>314.0</ele><time>2026-05-04T10:41:15.783Z</time></trkpt><trkpt lat="41.5185929" lon="0.1189214"><ele>314.0</ele><time>2026-05-04T10:41:16.783Z</time></trkpt><trkpt lat="41.51865" lon="0.1190989"><ele>314.0</ele><time>2026-05-04T10:41:17.782Z</time></trkpt><trkpt lat="41.5187062" lon="0.1192751"><ele>314.0</ele><time>2026-05-04T10:41:18.783Z</time></trkpt><trkpt lat="41.5187653" lon="0.1194569"><ele>314.0</ele><time>2026-05-04T10:41:19.783Z</time></trkpt><trkpt lat="41.5188239" lon="0.1196331"><ele>314.0</ele><time>2026-05-04T10:41:20.782Z</time></trkpt><trkpt lat="41.5188804" lon="0.11981"><ele>313.5</ele><time>2026-05-04T10:41:21.783Z</time></trkpt><trkpt lat="41.5189351" lon="0.1199901"><ele>313.0</ele><time>2026-05-04T10:41:22.783Z</time></trkpt><trkpt lat="41.5189894" lon="0.1201651"><ele>312.5</ele><time>2026-05-04T10:41:23.783Z</time></trkpt><trkpt lat="41.5190415" lon="0.12034"><ele>312.0</ele><time>2026-05-04T10:41:24.783Z</time></trkpt><trkpt lat="41.5190997" lon="0.1205228"><ele>312.0</ele><time>2026-05-04T10:41:25.782Z</time></trkpt><trkpt lat="41.5191575" lon="0.1207045"><ele>312.0</ele><time>2026-05-04T10:41:26.783Z</time></trkpt><trkpt lat="41.5192147" lon="0.12089"><ele>312.0</ele><time>2026-05-04T10:41:27.783Z</time></trkpt><trkpt lat="41.5192653" lon="0.1210796"><ele>312.0</ele><time>2026-05-04T10:41:28.783Z</time></trkpt><trkpt lat="41.5193112" lon="0.1212747"><ele>311.6666666666667</ele><time>2026-05-04T10:41:29.783Z</time></trkpt><trkpt lat="41.5193623" lon="0.1214713"><ele>311.33333333333337</ele><time>2026-05-04T10:41:30.784Z</time></trkpt><trkpt lat="41.5194054" lon="0.1216669"><ele>311.0</ele><time>2026-05-04T10:41:31.783Z</time></trkpt><trkpt lat="41.5194494" lon="0.121869"><ele>309.6666666666667</ele><time>2026-05-04T10:41:32.784Z</time></trkpt><trkpt lat="41.5194898" lon="0.1220703"><ele>308.3333333333333</ele><time>2026-05-04T10:41:33.784Z</time></trkpt><trkpt lat="41.5195255" lon="0.1222812"><ele>307.0</ele><time>2026-05-04T10:41:34.783Z</time></trkpt><trkpt lat="41.5195601" lon="0.1224893"><ele>305.0</ele><time>2026-05-04T10:41:35.783Z</time></trkpt><trkpt lat="41.5195841" lon="0.1227023"><ele>303.0</ele><time>2026-05-04T10:41:36.784Z</time></trkpt><trkpt lat="41.5196056" lon="0.1229105"><ele>301.0</ele><time>2026-05-04T10:41:37.783Z</time></trkpt><trkpt lat="41.5196219" lon="0.123126"><ele>300.0</ele><time>2026-05-04T10:41:38.783Z</time></trkpt><trkpt lat="41.5196347" lon="0.1233397"><ele>299.0</ele><time>2026-05-04T10:41:39.783Z</time></trkpt><trkpt lat="41.5196429" lon="0.1235534"><ele>298.0</ele><time>2026-05-04T10:41:40.783Z</time></trkpt><trkpt lat="41.5196432" lon="0.1237546"><ele>298.0</ele><time>2026-05-04T10:41:41.783Z</time></trkpt><trkpt lat="41.5196398" lon="0.123961"><ele>298.0</ele><time>2026-05-04T10:41:42.784Z</time></trkpt><trkpt lat="41.5196298" lon="0.1241705"><ele>298.0</ele><time>2026-05-04T10:41:43.784Z</time></trkpt><trkpt lat="41.5196196" lon="0.1243776"><ele>298.66666666666663</ele><time>2026-05-04T10:41:44.784Z</time></trkpt><trkpt lat="41.519612" lon="0.12458"><ele>299.3333333333333</ele><time>2026-05-04T10:41:45.784Z</time></trkpt><trkpt lat="41.5196018" lon="0.1247802"><ele>300.0</ele><time>2026-05-04T10:41:46.784Z</time></trkpt><trkpt lat="41.5195861" lon="0.1249771"><ele>299.5</ele><time>2026-05-04T10:41:47.784Z</time></trkpt><trkpt lat="41.5195736" lon="0.125167"><ele>299.0</ele><time>2026-05-04T10:41:48.784Z</time></trkpt><trkpt lat="41.5195583" lon="0.1253609"><ele>298.5</ele><time>2026-05-04T10:41:49.784Z</time></trkpt><trkpt lat="41.5195406" lon="0.1255516"><ele>298.0</ele><time>2026-05-04T10:41:50.784Z</time></trkpt><trkpt lat="41.5195274" lon="0.1257451"><ele>299.5</ele><time>2026-05-04T10:41:51.784Z</time></trkpt><trkpt lat="41.5195128" lon="0.1259368"><ele>301.0</ele><time>2026-05-04T10:41:52.784Z</time></trkpt><trkpt lat="41.5194981" lon="0.1261233"><ele>302.5</ele><time>2026-05-04T10:41:53.784Z</time></trkpt><trkpt lat="41.5194844" lon="0.1263108"><ele>304.0</ele><time>2026-05-04T10:41:54.784Z</time></trkpt><trkpt lat="41.5194686" lon="0.1265002"><ele>305.25</ele><time>2026-05-04T10:41:55.783Z</time></trkpt><trkpt lat="41.5194515" lon="0.1266861"><ele>306.5</ele><time>2026-05-04T10:41:56.784Z</time></trkpt><trkpt lat="41.5194351" lon="0.1268713"><ele>307.75</ele><time>2026-05-04T10:41:57.784Z</time></trkpt><trkpt lat="41.5194154" lon="0.1270578"><ele>309.0</ele><time>2026-05-04T10:41:58.783Z</time></trkpt><trkpt lat="41.519397" lon="0.1272454"><ele>309.25</ele><time>2026-05-04T10:41:59.783Z</time></trkpt><trkpt lat="41.5193785" lon="0.1274379"><ele>309.5</ele><time>2026-05-04T10:42:00.784Z</time></trkpt><trkpt lat="41.5193601" lon="0.1276291"><ele>309.75</ele><time>2026-05-04T10:42:01.784Z</time></trkpt><trkpt lat="41.5193429" lon="0.1278206"><ele>310.0</ele><time>2026-05-04T10:42:02.784Z</time></trkpt><trkpt lat="41.5193241" lon="0.1280088"><ele>310.0</ele><time>2026-05-04T10:42:03.783Z</time></trkpt><trkpt lat="41.5193093" lon="0.1282002"><ele>310.0</ele><time>2026-05-04T10:42:04.784Z</time></trkpt><trkpt lat="41.5192921" lon="0.1283946"><ele>310.0</ele><time>2026-05-04T10:42:05.783Z</time></trkpt><trkpt lat="41.5192759" lon="0.1285882"><ele>310.0</ele><time>2026-05-04T10:42:06.784Z</time></trkpt><trkpt lat="41.5192603" lon="0.128784"><ele>309.5</ele><time>2026-05-04T10:42:07.784Z</time></trkpt><trkpt lat="41.5192429" lon="0.1289759"><ele>309.0</ele><time>2026-05-04T10:42:08.784Z</time></trkpt><trkpt lat="41.5192245" lon="0.1291712"><ele>308.5</ele><time>2026-05-04T10:42:09.784Z</time></trkpt><trkpt lat="41.5192033" lon="0.1293649"><ele>308.0</ele><time>2026-05-04T10:42:10.784Z</time></trkpt><trkpt lat="41.5191837" lon="0.1295613"><ele>307.0</ele><time>2026-05-04T10:42:11.784Z</time></trkpt><trkpt lat="41.5191679" lon="0.1297561"><ele>306.0</ele><time>2026-05-04T10:42:12.783Z</time></trkpt><trkpt lat="41.5191503" lon="0.1299488"><ele>305.0</ele><time>2026-05-04T10:42:13.784Z</time></trkpt><trkpt lat="41.5191305" lon="0.1301444"><ele>304.0</ele><time>2026-05-04T10:42:14.784Z</time></trkpt><trkpt lat="41.5191117" lon="0.1303405"><ele>303.25</ele><time>2026-05-04T10:42:15.783Z</time></trkpt><trkpt lat="41.5190949" lon="0.1305403"><ele>302.5</ele><time>2026-05-04T10:42:16.784Z</time></trkpt><trkpt lat="41.5190777" lon="0.1307339"><ele>301.75</ele><time>2026-05-04T10:42:17.783Z</time></trkpt><trkpt lat="41.519062" lon="0.1309197"><ele>301.0</ele><time>2026-05-04T10:42:18.784Z</time></trkpt><trkpt lat="41.5190477" lon="0.1310998"><ele>301.0</ele><time>2026-05-04T10:42:19.784Z</time></trkpt><trkpt lat="41.5190322" lon="0.1312755"><ele>301.0</ele><time>2026-05-04T10:42:20.784Z</time></trkpt><trkpt lat="41.5190179" lon="0.1314528"><ele>301.0</ele><time>2026-05-04T10:42:21.784Z</time></trkpt><trkpt lat="41.5190042" lon="0.1316263"><ele>301.0</ele><time>2026-05-04T10:42:22.783Z</time></trkpt><trkpt lat="41.5189893" lon="0.1317977"><ele>301.75</ele><time>2026-05-04T10:42:23.784Z</time></trkpt><trkpt lat="41.5189715" lon="0.1319745"><ele>302.5</ele><time>2026-05-04T10:42:24.784Z</time></trkpt><trkpt lat="41.5189536" lon="0.1321496"><ele>303.25</ele><time>2026-05-04T10:42:25.784Z</time></trkpt><trkpt lat="41.5189381" lon="0.1323246"><ele>304.0</ele><time>2026-05-04T10:42:26.784Z</time></trkpt><trkpt lat="41.5189232" lon="0.1325036"><ele>304.25</ele><time>2026-05-04T10:42:27.784Z</time></trkpt><trkpt lat="41.5189069" lon="0.1326841"><ele>304.5</ele><time>2026-05-04T10:42:28.783Z</time></trkpt><trkpt lat="41.5188913" lon="0.1328631"><ele>304.75</ele><time>2026-05-04T10:42:29.784Z</time></trkpt><trkpt lat="41.518873" lon="0.1330458"><ele>305.0</ele><time>2026-05-04T10:42:30.783Z</time></trkpt><trkpt lat="41.518857" lon="0.1332275"><ele>305.0</ele><time>2026-05-04T10:42:31.784Z</time></trkpt><trkpt lat="41.5188424" lon="0.1334084"><ele>305.0</ele><time>2026-05-04T10:42:32.784Z</time></trkpt><trkpt lat="41.5188259" lon="0.1335873"><ele>305.0</ele><time>2026-05-04T10:42:33.784Z</time></trkpt><trkpt lat="41.5188115" lon="0.1337685"><ele>305.0</ele><time>2026-05-04T10:42:34.784Z</time></trkpt><trkpt lat="41.5187944" lon="0.1339488"><ele>305.0</ele><time>2026-05-04T10:42:35.784Z</time></trkpt><trkpt lat="41.5187795" lon="0.1341326"><ele>305.0</ele><time>2026-05-04T10:42:36.784Z</time></trkpt><trkpt lat="41.5187625" lon="0.1343195"><ele>305.0</ele><time>2026-05-04T10:42:37.784Z</time></trkpt><trkpt lat="41.518749" lon="0.1345074"><ele>305.0</ele><time>2026-05-04T10:42:38.784Z</time></trkpt><trkpt lat="41.5187328" lon="0.1346983"><ele>304.75</ele><time>2026-05-04T10:42:39.783Z</time></trkpt><trkpt lat="41.5187155" lon="0.1348879"><ele>304.5</ele><time>2026-05-04T10:42:40.784Z</time></trkpt><trkpt lat="41.5186987" lon="0.1350791"><ele>304.25</ele><time>2026-05-04T10:42:41.784Z</time></trkpt><trkpt lat="41.5186836" lon="0.13527"><ele>304.0</ele><time>2026-05-04T10:42:42.784Z</time></trkpt><trkpt lat="41.5186647" lon="0.1354664"><ele>304.0</ele><time>2026-05-04T10:42:43.784Z</time></trkpt><trkpt lat="41.5186463" lon="0.1356584"><ele>304.0</ele><time>2026-05-04T10:42:44.784Z</time></trkpt><trkpt lat="41.5186306" lon="0.1358492"><ele>304.0</ele><time>2026-05-04T10:42:45.784Z</time></trkpt><trkpt lat="41.5186157" lon="0.1360357"><ele>304.0</ele><time>2026-05-04T10:42:46.784Z</time></trkpt><trkpt lat="41.5185983" lon="0.1362212"><ele>304.0</ele><time>2026-05-04T10:42:47.784Z</time></trkpt><trkpt lat="41.5185828" lon="0.1364072"><ele>304.0</ele><time>2026-05-04T10:42:48.784Z</time></trkpt><trkpt lat="41.518565" lon="0.1365943"><ele>304.0</ele><time>2026-05-04T10:42:49.784Z</time></trkpt><trkpt lat="41.5185482" lon="0.1367796"><ele>304.0</ele><time>2026-05-04T10:42:50.784Z</time></trkpt><trkpt lat="41.5185318" lon="0.1369653"><ele>304.0</ele><time>2026-05-04T10:42:51.784Z</time></trkpt><trkpt lat="41.5185161" lon="0.1371518"><ele>304.0</ele><time>2026-05-04T10:42:52.784Z</time></trkpt><trkpt lat="41.5184982" lon="0.137337"><ele>304.0</ele><time>2026-05-04T10:42:53.784Z</time></trkpt><trkpt lat="41.5184839" lon="0.1375247"><ele>304.0</ele><time>2026-05-04T10:42:54.784Z</time></trkpt><trkpt lat="41.5184664" lon="0.1377101"><ele>303.75</ele><time>2026-05-04T10:42:55.784Z</time></trkpt><trkpt lat="41.5184501" lon="0.1378994"><ele>303.5</ele><time>2026-05-04T10:42:56.784Z</time></trkpt><trkpt lat="41.5184322" lon="0.1380853"><ele>303.25</ele><time>2026-05-04T10:42:57.783Z</time></trkpt><trkpt lat="41.5184151" lon="0.1382729"><ele>303.0</ele><time>2026-05-04T10:42:58.784Z</time></trkpt><trkpt lat="41.5183975" lon="0.1384602"><ele>303.0</ele><time>2026-05-04T10:42:59.784Z</time></trkpt><trkpt lat="41.5183812" lon="0.1386484"><ele>303.0</ele><time>2026-05-04T10:43:00.784Z</time></trkpt><trkpt lat="41.518364" lon="0.1388399"><ele>303.0</ele><time>2026-05-04T10:43:01.784Z</time></trkpt><trkpt lat="41.5183451" lon="0.1390285"><ele>303.0</ele><time>2026-05-04T10:43:02.784Z</time></trkpt><trkpt lat="41.5183278" lon="0.1392224"><ele>303.0</ele><time>2026-05-04T10:43:03.784Z</time></trkpt><trkpt lat="41.5183054" lon="0.1394132"><ele>303.0</ele><time>2026-05-04T10:43:04.784Z</time></trkpt><trkpt lat="41.5182758" lon="0.1396019"><ele>303.0</ele><time>2026-05-04T10:43:05.784Z</time></trkpt><trkpt lat="41.5182433" lon="0.1397904"><ele>303.0</ele><time>2026-05-04T10:43:06.784Z</time></trkpt><trkpt lat="41.5182018" lon="0.1399799"><ele>302.75</ele><time>2026-05-04T10:43:07.784Z</time></trkpt><trkpt lat="41.5181576" lon="0.1401675"><ele>302.5</ele><time>2026-05-04T10:43:08.784Z</time></trkpt><trkpt lat="41.518109" lon="0.140354"><ele>302.25</ele><time>2026-05-04T10:43:09.784Z</time></trkpt><trkpt lat="41.518058" lon="0.1405374"><ele>302.0</ele><time>2026-05-04T10:43:10.784Z</time></trkpt><trkpt lat="41.5180032" lon="0.1407176"><ele>302.0</ele><time>2026-05-04T10:43:11.783Z</time></trkpt><trkpt lat="41.5179422" lon="0.1409005"><ele>302.0</ele><time>2026-05-04T10:43:12.784Z</time></trkpt><trkpt lat="41.5178781" lon="0.1410776"><ele>302.0</ele><time>2026-05-04T10:43:13.784Z</time></trkpt><trkpt lat="41.5178084" lon="0.1412489"><ele>302.0</ele><time>2026-05-04T10:43:14.784Z</time></trkpt><trkpt lat="41.517734" lon="0.1414197"><ele>301.33333333333337</ele><time>2026-05-04T10:43:15.784Z</time></trkpt><trkpt lat="41.5176554" lon="0.1415905"><ele>300.6666666666667</ele><time>2026-05-04T10:43:16.784Z</time></trkpt><trkpt lat="41.5175704" lon="0.1417578"><ele>300.0</ele><time>2026-05-04T10:43:17.784Z</time></trkpt><trkpt lat="41.5174792" lon="0.1419237"><ele>300.0</ele><time>2026-05-04T10:43:18.784Z</time></trkpt><trkpt lat="41.5173834" lon="0.1420867"><ele>300.0</ele><time>2026-05-04T10:43:19.784Z</time></trkpt><trkpt lat="41.5172795" lon="0.1422441"><ele>300.0</ele><time>2026-05-04T10:43:20.784Z</time></trkpt><trkpt lat="41.5171733" lon="0.1423978"><ele>299.3333333333333</ele><time>2026-05-04T10:43:21.784Z</time></trkpt><trkpt lat="41.5170645" lon="0.1425473"><ele>298.66666666666663</ele><time>2026-05-04T10:43:22.784Z</time></trkpt><trkpt lat="41.5169501" lon="0.1426987"><ele>298.0</ele><time>2026-05-04T10:43:23.784Z</time></trkpt><trkpt lat="41.516834" lon="0.1428471"><ele>298.0</ele><time>2026-05-04T10:43:24.783Z</time></trkpt><trkpt lat="41.5167138" lon="0.1429935"><ele>298.0</ele><time>2026-05-04T10:43:25.784Z</time></trkpt><trkpt lat="41.5165938" lon="0.1431374"><ele>298.0</ele><time>2026-05-04T10:43:26.784Z</time></trkpt><trkpt lat="41.5164708" lon="0.1432807"><ele>296.66666666666663</ele><time>2026-05-04T10:43:27.784Z</time></trkpt><trkpt lat="41.5163521" lon="0.143426"><ele>295.3333333333333</ele><time>2026-05-04T10:43:28.784Z</time></trkpt><trkpt lat="41.5162318" lon="0.1435721"><ele>294.0</ele><time>2026-05-04T10:43:29.784Z</time></trkpt><trkpt lat="41.5161164" lon="0.1437241"><ele>293.6666666666667</ele><time>2026-05-04T10:43:30.783Z</time></trkpt><trkpt lat="41.5160052" lon="0.1438796"><ele>293.33333333333337</ele><time>2026-05-04T10:43:31.784Z</time></trkpt><trkpt lat="41.5159018" lon="0.1440386"><ele>293.0</ele><time>2026-05-04T10:43:32.784Z</time></trkpt><trkpt lat="41.5158043" lon="0.1441941"><ele>291.5</ele><time>2026-05-04T10:43:33.783Z</time></trkpt><trkpt lat="41.5157112" lon="0.1443501"><ele>290.0</ele><time>2026-05-04T10:43:34.784Z</time></trkpt><trkpt lat="41.5156237" lon="0.1445069"><ele>288.5</ele><time>2026-05-04T10:43:35.784Z</time></trkpt><trkpt lat="41.5155418" lon="0.1446597"><ele>287.0</ele><time>2026-05-04T10:43:36.784Z</time></trkpt><trkpt lat="41.5154645" lon="0.1448141"><ele>285.0</ele><time>2026-05-04T10:43:37.784Z</time></trkpt><trkpt lat="41.5153904" lon="0.1449763"><ele>283.0</ele><time>2026-05-04T10:43:38.784Z</time></trkpt><trkpt lat="41.5153191" lon="0.1451485"><ele>281.0</ele><time>2026-05-04T10:43:39.783Z</time></trkpt><trkpt lat="41.515252" lon="0.1453242"><ele>279.0</ele><time>2026-05-04T10:43:40.784Z</time></trkpt><trkpt lat="41.5151909" lon="0.145507"><ele>279.0</ele><time>2026-05-04T10:43:41.784Z</time></trkpt><trkpt lat="41.5151329" lon="0.1456881"><ele>279.0</ele><time>2026-05-04T10:43:42.783Z</time></trkpt><trkpt lat="41.5150787" lon="0.1458784"><ele>279.0</ele><time>2026-05-04T10:43:43.784Z</time></trkpt><trkpt lat="41.5150254" lon="0.1460656"><ele>278.0</ele><time>2026-05-04T10:43:44.784Z</time></trkpt><trkpt lat="41.5149774" lon="0.1462557"><ele>277.0</ele><time>2026-05-04T10:43:45.784Z</time></trkpt><trkpt lat="41.5149339" lon="0.1464487"><ele>276.0</ele><time>2026-05-04T10:43:46.784Z</time></trkpt><trkpt lat="41.5148993" lon="0.1466415"><ele>275.6666666666667</ele><time>2026-05-04T10:43:47.784Z</time></trkpt><trkpt lat="41.5148664" lon="0.1468399"><ele>275.33333333333337</ele><time>2026-05-04T10:43:48.784Z</time></trkpt><trkpt lat="41.514834" lon="0.1470435"><ele>275.0</ele><time>2026-05-04T10:43:49.784Z</time></trkpt><trkpt lat="41.5148115" lon="0.1472472"><ele>274.0</ele><time>2026-05-04T10:43:50.784Z</time></trkpt><trkpt lat="41.5147952" lon="0.1474559"><ele>273.0</ele><time>2026-05-04T10:43:51.783Z</time></trkpt><trkpt lat="41.514786" lon="0.1476699"><ele>272.0</ele><time>2026-05-04T10:43:52.783Z</time></trkpt><trkpt lat="41.5147844" lon="0.1478895"><ele>272.0</ele><time>2026-05-04T10:43:53.784Z</time></trkpt><trkpt lat="41.5147854" lon="0.1481155"><ele>272.0</ele><time>2026-05-04T10:43:54.783Z</time></trkpt><trkpt lat="41.5147947" lon="0.1483391"><ele>272.0</ele><time>2026-05-04T10:43:55.783Z</time></trkpt><trkpt lat="41.5148085" lon="0.1485642"><ele>272.0</ele><time>2026-05-04T10:43:56.784Z</time></trkpt><trkpt lat="41.5148279" lon="0.1487924"><ele>272.0</ele><time>2026-05-04T10:43:57.784Z</time></trkpt><trkpt lat="41.514853" lon="0.1490105"><ele>272.0</ele><time>2026-05-04T10:43:58.785Z</time></trkpt><trkpt lat="41.5148828" lon="0.1492317"><ele>272.0</ele><time>2026-05-04T10:43:59.784Z</time></trkpt><trkpt lat="41.5149191" lon="0.1494545"><ele>272.0</ele><time>2026-05-04T10:44:00.785Z</time></trkpt><trkpt lat="41.5149621" lon="0.1496761"><ele>272.0</ele><time>2026-05-04T10:44:01.785Z</time></trkpt><trkpt lat="41.5150083" lon="0.1498897"><ele>271.33333333333337</ele><time>2026-05-04T10:44:02.785Z</time></trkpt><trkpt lat="41.515058" lon="0.1501034"><ele>270.6666666666667</ele><time>2026-05-04T10:44:03.785Z</time></trkpt><trkpt lat="41.5151083" lon="0.1503143"><ele>270.0</ele><time>2026-05-04T10:44:04.784Z</time></trkpt><trkpt lat="41.5151551" lon="0.1505246"><ele>269.6666666666667</ele><time>2026-05-04T10:44:05.784Z</time></trkpt><trkpt lat="41.5152007" lon="0.1507244"><ele>269.33333333333337</ele><time>2026-05-04T10:44:06.784Z</time></trkpt><trkpt lat="41.5152463" lon="0.1509139"><ele>269.0</ele><time>2026-05-04T10:44:07.785Z</time></trkpt><trkpt lat="41.5152897" lon="0.1511007"><ele>269.0</ele><time>2026-05-04T10:44:08.784Z</time></trkpt><trkpt lat="41.5153287" lon="0.1512889"><ele>269.0</ele><time>2026-05-04T10:44:09.785Z</time></trkpt><trkpt lat="41.5153728" lon="0.1514777"><ele>269.0</ele><time>2026-05-04T10:44:10.785Z</time></trkpt><trkpt lat="41.515415" lon="0.1516649"><ele>269.0</ele><time>2026-05-04T10:44:11.785Z</time></trkpt><trkpt lat="41.5154586" lon="0.1518472"><ele>269.25</ele><time>2026-05-04T10:44:12.785Z</time></trkpt><trkpt lat="41.5154968" lon="0.1520284"><ele>269.5</ele><time>2026-05-04T10:44:13.785Z</time></trkpt><trkpt lat="41.5155358" lon="0.1522109"><ele>269.75</ele><time>2026-05-04T10:44:14.785Z</time></trkpt><trkpt lat="41.5155748" lon="0.1523862"><ele>270.0</ele><time>2026-05-04T10:44:15.785Z</time></trkpt><trkpt lat="41.5156136" lon="0.1525538"><ele>269.25</ele><time>2026-05-04T10:44:16.784Z</time></trkpt><trkpt lat="41.5156524" lon="0.1527257"><ele>268.5</ele><time>2026-05-04T10:44:17.785Z</time></trkpt><trkpt lat="41.5156918" lon="0.1528921"><ele>267.75</ele><time>2026-05-04T10:44:18.785Z</time></trkpt><trkpt lat="41.5157317" lon="0.1530633"><ele>267.0</ele><time>2026-05-04T10:44:19.785Z</time></trkpt><trkpt lat="41.5157699" lon="0.1532356"><ele>266.75</ele><time>2026-05-04T10:44:20.785Z</time></trkpt><trkpt lat="41.51581" lon="0.1534068"><ele>266.5</ele><time>2026-05-04T10:44:21.785Z</time></trkpt><trkpt lat="41.5158496" lon="0.1535867"><ele>266.25</ele><time>2026-05-04T10:44:22.785Z</time></trkpt><trkpt lat="41.5158874" lon="0.1537638"><ele>266.0</ele><time>2026-05-04T10:44:23.785Z</time></trkpt><trkpt lat="41.515926" lon="0.1539411"><ele>266.0</ele><time>2026-05-04T10:44:24.785Z</time></trkpt><trkpt lat="41.5159683" lon="0.1541236"><ele>266.0</ele><time>2026-05-04T10:44:25.785Z</time></trkpt><trkpt lat="41.5160135" lon="0.1543061"><ele>266.0</ele><time>2026-05-04T10:44:26.785Z</time></trkpt><trkpt lat="41.5160583" lon="0.1544945"><ele>266.0</ele><time>2026-05-04T10:44:27.785Z</time></trkpt><trkpt lat="41.5161058" lon="0.1546832"><ele>266.0</ele><time>2026-05-04T10:44:28.785Z</time></trkpt><trkpt lat="41.5161543" lon="0.1548732"><ele>266.0</ele><time>2026-05-04T10:44:29.784Z</time></trkpt><trkpt lat="41.5161976" lon="0.1550618"><ele>266.0</ele><time>2026-05-04T10:44:30.785Z</time></trkpt><trkpt lat="41.5162415" lon="0.1552563"><ele>266.0</ele><time>2026-05-04T10:44:31.784Z</time></trkpt><trkpt lat="41.5162905" lon="0.1554548"><ele>266.0</ele><time>2026-05-04T10:44:32.785Z</time></trkpt><trkpt lat="41.516338" lon="0.1556575"><ele>266.0</ele><time>2026-05-04T10:44:33.785Z</time></trkpt><trkpt lat="41.5163824" lon="0.1558533"><ele>265.75</ele><time>2026-05-04T10:44:34.785Z</time></trkpt><trkpt lat="41.5164295" lon="0.1560424"><ele>265.5</ele><time>2026-05-04T10:44:35.785Z</time></trkpt><trkpt lat="41.5164747" lon="0.1562302"><ele>265.25</ele><time>2026-05-04T10:44:36.785Z</time></trkpt><trkpt lat="41.5165152" lon="0.1564092"><ele>265.0</ele><time>2026-05-04T10:44:37.784Z</time></trkpt><trkpt lat="41.5165539" lon="0.156586"><ele>265.75</ele><time>2026-05-04T10:44:38.784Z</time></trkpt><trkpt lat="41.5165929" lon="0.1567604"><ele>266.5</ele><time>2026-05-04T10:44:39.785Z</time></trkpt><trkpt lat="41.5166343" lon="0.1569384"><ele>267.25</ele><time>2026-05-04T10:44:40.785Z</time></trkpt><trkpt lat="41.5166749" lon="0.1571095"><ele>268.0</ele><time>2026-05-04T10:44:41.785Z</time></trkpt><trkpt lat="41.5167165" lon="0.1572818"><ele>268.25</ele><time>2026-05-04T10:44:42.785Z</time></trkpt><trkpt lat="41.5167587" lon="0.1574559"><ele>268.5</ele><time>2026-05-04T10:44:43.785Z</time></trkpt><trkpt lat="41.5167976" lon="0.1576301"><ele>268.75</ele><time>2026-05-04T10:44:44.785Z</time></trkpt><trkpt lat="41.5168388" lon="0.1578002"><ele>269.0</ele><time>2026-05-04T10:44:45.785Z</time></trkpt><trkpt lat="41.5168806" lon="0.1579775"><ele>269.0</ele><time>2026-05-04T10:44:46.785Z</time></trkpt><trkpt lat="41.5169196" lon="0.1581488"><ele>269.0</ele><time>2026-05-04T10:44:47.785Z</time></trkpt><trkpt lat="41.5169586" lon="0.1583285"><ele>269.0</ele><time>2026-05-04T10:44:48.785Z</time></trkpt><trkpt lat="41.5169998" lon="0.1585067"><ele>269.0</ele><time>2026-05-04T10:44:49.785Z</time></trkpt><trkpt lat="41.5170373" lon="0.1586851"><ele>269.25</ele><time>2026-05-04T10:44:50.784Z</time></trkpt><trkpt lat="41.5170807" lon="0.1588693"><ele>269.5</ele><time>2026-05-04T10:44:51.785Z</time></trkpt><trkpt lat="41.517122" lon="0.1590529"><ele>269.75</ele><time>2026-05-04T10:44:52.785Z</time></trkpt><trkpt lat="41.5171642" lon="0.1592332"><ele>270.0</ele><time>2026-05-04T10:44:53.785Z</time></trkpt><trkpt lat="41.517208" lon="0.1594131"><ele>270.0</ele><time>2026-05-04T10:44:54.784Z</time></trkpt><trkpt lat="41.5172544" lon="0.1596018"><ele>270.0</ele><time>2026-05-04T10:44:55.784Z</time></trkpt><trkpt lat="41.5172977" lon="0.1597872"><ele>270.0</ele><time>2026-05-04T10:44:56.785Z</time></trkpt><trkpt lat="41.5173417" lon="0.159969"><ele>270.0</ele><time>2026-05-04T10:44:57.784Z</time></trkpt><trkpt lat="41.5173842" lon="0.1601506"><ele>269.75</ele><time>2026-05-04T10:44:58.785Z</time></trkpt><trkpt lat="41.517425" lon="0.1603332"><ele>269.5</ele><time>2026-05-04T10:44:59.785Z</time></trkpt><trkpt lat="41.5174678" lon="0.1605168"><ele>269.25</ele><time>2026-05-04T10:45:00.785Z</time></trkpt><trkpt lat="41.517513" lon="0.1606982"><ele>269.0</ele><time>2026-05-04T10:45:01.785Z</time></trkpt><trkpt lat="41.5175516" lon="0.1608826"><ele>269.0</ele><time>2026-05-04T10:45:02.785Z</time></trkpt><trkpt lat="41.5175942" lon="0.1610604"><ele>269.0</ele><time>2026-05-04T10:45:03.785Z</time></trkpt><trkpt lat="41.5176356" lon="0.1612401"><ele>269.0</ele><time>2026-05-04T10:45:04.785Z</time></trkpt><trkpt lat="41.5176776" lon="0.1614184"><ele>269.0</ele><time>2026-05-04T10:45:05.785Z</time></trkpt><trkpt lat="41.5177216" lon="0.1615961"><ele>269.0</ele><time>2026-05-04T10:45:06.785Z</time></trkpt><trkpt lat="41.5177617" lon="0.1617732"><ele>269.0</ele><time>2026-05-04T10:45:07.784Z</time></trkpt><trkpt lat="41.5178031" lon="0.1619518"><ele>269.0</ele><time>2026-05-04T10:45:08.785Z</time></trkpt><trkpt lat="41.517845" lon="0.1621239"><ele>269.0</ele><time>2026-05-04T10:45:09.785Z</time></trkpt><trkpt lat="41.5178857" lon="0.1622953"><ele>270.0</ele><time>2026-05-04T10:45:10.785Z</time></trkpt><trkpt lat="41.517926" lon="0.1624688"><ele>271.0</ele><time>2026-05-04T10:45:11.785Z</time></trkpt><trkpt lat="41.5179665" lon="0.1626473"><ele>272.0</ele><time>2026-05-04T10:45:12.785Z</time></trkpt><trkpt lat="41.5180003" lon="0.1628227"><ele>273.0</ele><time>2026-05-04T10:45:13.785Z</time></trkpt><trkpt lat="41.5180311" lon="0.1630039"><ele>273.0</ele><time>2026-05-04T10:45:14.785Z</time></trkpt><trkpt lat="41.5180613" lon="0.1631849"><ele>273.0</ele><time>2026-05-04T10:45:15.785Z</time></trkpt><trkpt lat="41.518088" lon="0.1633632"><ele>273.0</ele><time>2026-05-04T10:45:16.785Z</time></trkpt><trkpt lat="41.5181103" lon="0.1635448"><ele>273.0</ele><time>2026-05-04T10:45:17.784Z</time></trkpt><trkpt lat="41.5181263" lon="0.1637278"><ele>273.25</ele><time>2026-05-04T10:45:18.785Z</time></trkpt><trkpt lat="41.5181403" lon="0.1639111"><ele>273.5</ele><time>2026-05-04T10:45:19.785Z</time></trkpt><trkpt lat="41.5181578" lon="0.1640908"><ele>273.75</ele><time>2026-05-04T10:45:20.785Z</time></trkpt><trkpt lat="41.5181738" lon="0.1642762"><ele>274.0</ele><time>2026-05-04T10:45:21.785Z</time></trkpt><trkpt lat="41.5181969" lon="0.1644591"><ele>274.0</ele><time>2026-05-04T10:45:22.785Z</time></trkpt><trkpt lat="41.5182163" lon="0.1646417"><ele>274.0</ele><time>2026-05-04T10:45:23.785Z</time></trkpt><trkpt lat="41.5182331" lon="0.1648273"><ele>274.0</ele><time>2026-05-04T10:45:24.785Z</time></trkpt><trkpt lat="41.5182523" lon="0.1650039"><ele>274.0</ele><time>2026-05-04T10:45:25.785Z</time></trkpt><trkpt lat="41.5182695" lon="0.1651796"><ele>274.0</ele><time>2026-05-04T10:45:26.785Z</time></trkpt><trkpt lat="41.5182885" lon="0.1653623"><ele>274.0</ele><time>2026-05-04T10:45:27.785Z</time></trkpt><trkpt lat="41.5183074" lon="0.1655431"><ele>274.0</ele><time>2026-05-04T10:45:28.785Z</time></trkpt><trkpt lat="41.5183244" lon="0.1657267"><ele>274.0</ele><time>2026-05-04T10:45:29.785Z</time></trkpt><trkpt lat="41.5183418" lon="0.1659055"><ele>274.0</ele><time>2026-05-04T10:45:30.784Z</time></trkpt><trkpt lat="41.518361" lon="0.1660774"><ele>274.0</ele><time>2026-05-04T10:45:31.785Z</time></trkpt><trkpt lat="41.5183814" lon="0.1662566"><ele>274.0</ele><time>2026-05-04T10:45:32.785Z</time></trkpt><trkpt lat="41.5183997" lon="0.1664387"><ele>274.0</ele><time>2026-05-04T10:45:33.785Z</time></trkpt><trkpt lat="41.5184193" lon="0.1666182"><ele>274.25</ele><time>2026-05-04T10:45:34.784Z</time></trkpt><trkpt lat="41.5184412" lon="0.1668015"><ele>274.5</ele><time>2026-05-04T10:45:35.785Z</time></trkpt><trkpt lat="41.5184608" lon="0.1669796"><ele>274.75</ele><time>2026-05-04T10:45:36.785Z</time></trkpt><trkpt lat="41.5184777" lon="0.1671599"><ele>275.0</ele><time>2026-05-04T10:45:37.784Z</time></trkpt><trkpt lat="41.518499" lon="0.1673458"><ele>275.0</ele><time>2026-05-04T10:45:38.785Z</time></trkpt><trkpt lat="41.5185178" lon="0.1675323"><ele>275.0</ele><time>2026-05-04T10:45:39.785Z</time></trkpt><trkpt lat="41.5185362" lon="0.167718"><ele>275.0</ele><time>2026-05-04T10:45:40.785Z</time></trkpt><trkpt lat="41.5185496" lon="0.1679038"><ele>275.0</ele><time>2026-05-04T10:45:41.785Z</time></trkpt><trkpt lat="41.5185639" lon="0.1680832"><ele>274.5</ele><time>2026-05-04T10:45:42.785Z</time></trkpt><trkpt lat="41.5185818" lon="0.1682685"><ele>274.0</ele><time>2026-05-04T10:45:43.785Z</time></trkpt><trkpt lat="41.5186" lon="0.1684456"><ele>273.5</ele><time>2026-05-04T10:45:44.785Z</time></trkpt><trkpt lat="41.518618" lon="0.1686288"><ele>273.0</ele><time>2026-05-04T10:45:45.785Z</time></trkpt><trkpt lat="41.5186364" lon="0.1688099"><ele>273.0</ele><time>2026-05-04T10:45:46.785Z</time></trkpt><trkpt lat="41.5186558" lon="0.1689957"><ele>273.0</ele><time>2026-05-04T10:45:47.785Z</time></trkpt><trkpt lat="41.5186678" lon="0.1691737"><ele>273.0</ele><time>2026-05-04T10:45:48.785Z</time></trkpt><trkpt lat="41.5186841" lon="0.1693567"><ele>273.0</ele><time>2026-05-04T10:45:49.785Z</time></trkpt><trkpt lat="41.5187007" lon="0.1695366"><ele>273.25</ele><time>2026-05-04T10:45:50.785Z</time></trkpt><trkpt lat="41.5187162" lon="0.1697164"><ele>273.5</ele><time>2026-05-04T10:45:51.785Z</time></trkpt><trkpt lat="41.5187345" lon="0.1699044"><ele>273.75</ele><time>2026-05-04T10:45:52.785Z</time></trkpt><trkpt lat="41.5187521" lon="0.1700933"><ele>274.0</ele><time>2026-05-04T10:45:53.785Z</time></trkpt><trkpt lat="41.5187708" lon="0.1702771"><ele>275.75</ele><time>2026-05-04T10:45:54.784Z</time></trkpt><trkpt lat="41.5187933" lon="0.1704596"><ele>277.5</ele><time>2026-05-04T10:45:55.785Z</time></trkpt><trkpt lat="41.5188122" lon="0.1706408"><ele>279.25</ele><time>2026-05-04T10:45:56.785Z</time></trkpt><trkpt lat="41.518832" lon="0.1708317"><ele>281.0</ele><time>2026-05-04T10:45:57.784Z</time></trkpt><trkpt lat="41.5188481" lon="0.1710228"><ele>281.0</ele><time>2026-05-04T10:45:58.785Z</time></trkpt><trkpt lat="41.5188618" lon="0.1712074"><ele>281.0</ele><time>2026-05-04T10:45:59.785Z</time></trkpt><trkpt lat="41.5188849" lon="0.1713888"><ele>281.0</ele><time>2026-05-04T10:46:00.785Z</time></trkpt><trkpt lat="41.518905" lon="0.1715757"><ele>281.0</ele><time>2026-05-04T10:46:01.784Z</time></trkpt><trkpt lat="41.5189239" lon="0.1717587"><ele>280.75</ele><time>2026-05-04T10:46:02.785Z</time></trkpt><trkpt lat="41.5189435" lon="0.1719436"><ele>280.5</ele><time>2026-05-04T10:46:03.785Z</time></trkpt><trkpt lat="41.5189602" lon="0.1721303"><ele>280.25</ele><time>2026-05-04T10:46:04.784Z</time></trkpt><trkpt lat="41.5189781" lon="0.1723203"><ele>280.0</ele><time>2026-05-04T10:46:05.785Z</time></trkpt><trkpt lat="41.5189955" lon="0.1724982"><ele>279.5</ele><time>2026-05-04T10:46:06.785Z</time></trkpt><trkpt lat="41.5190118" lon="0.1726753"><ele>279.0</ele><time>2026-05-04T10:46:07.785Z</time></trkpt><trkpt lat="41.5190228" lon="0.1728498"><ele>278.5</ele><time>2026-05-04T10:46:08.785Z</time></trkpt><trkpt lat="41.5190413" lon="0.1730241"><ele>278.0</ele><time>2026-05-04T10:46:09.785Z</time></trkpt><trkpt lat="41.5190611" lon="0.1731977"><ele>278.0</ele><time>2026-05-04T10:46:10.785Z</time></trkpt><trkpt lat="41.5190802" lon="0.1733733"><ele>278.0</ele><time>2026-05-04T10:46:11.785Z</time></trkpt><trkpt lat="41.519099" lon="0.1735497"><ele>278.0</ele><time>2026-05-04T10:46:12.785Z</time></trkpt><trkpt lat="41.5191135" lon="0.173735"><ele>278.0</ele><time>2026-05-04T10:46:13.785Z</time></trkpt><trkpt lat="41.5191298" lon="0.1739173"><ele>278.25</ele><time>2026-05-04T10:46:14.785Z</time></trkpt><trkpt lat="41.5191501" lon="0.1741025"><ele>278.5</ele><time>2026-05-04T10:46:15.784Z</time></trkpt><trkpt lat="41.519171" lon="0.1742864"><ele>278.75</ele><time>2026-05-04T10:46:16.785Z</time></trkpt><trkpt lat="41.5191889" lon="0.1744702"><ele>279.0</ele><time>2026-05-04T10:46:17.785Z</time></trkpt><trkpt lat="41.5192055" lon="0.1746527"><ele>279.0</ele><time>2026-05-04T10:46:18.785Z</time></trkpt><trkpt lat="41.5192216" lon="0.1748348"><ele>279.0</ele><time>2026-05-04T10:46:19.785Z</time></trkpt><trkpt lat="41.5192407" lon="0.1750219"><ele>279.0</ele><time>2026-05-04T10:46:20.785Z</time></trkpt><trkpt lat="41.5192583" lon="0.1752114"><ele>279.0</ele><time>2026-05-04T10:46:21.785Z</time></trkpt><trkpt lat="41.5192775" lon="0.1754009"><ele>279.25</ele><time>2026-05-04T10:46:22.785Z</time></trkpt><trkpt lat="41.5192982" lon="0.1755944"><ele>279.5</ele><time>2026-05-04T10:46:23.786Z</time></trkpt><trkpt lat="41.5193192" lon="0.1757879"><ele>279.75</ele><time>2026-05-04T10:46:24.786Z</time></trkpt><trkpt lat="41.5193381" lon="0.17598"><ele>280.0</ele><time>2026-05-04T10:46:25.786Z</time></trkpt><trkpt lat="41.5193568" lon="0.1761697"><ele>280.0</ele><time>2026-05-04T10:46:26.786Z</time></trkpt><trkpt lat="41.5193753" lon="0.1763492"><ele>280.0</ele><time>2026-05-04T10:46:27.786Z</time></trkpt><trkpt lat="41.5193901" lon="0.1765226"><ele>280.0</ele><time>2026-05-04T10:46:28.786Z</time></trkpt><trkpt lat="41.5194091" lon="0.1766966"><ele>280.0</ele><time>2026-05-04T10:46:29.786Z</time></trkpt><trkpt lat="41.5194282" lon="0.1768727"><ele>280.0</ele><time>2026-05-04T10:46:30.786Z</time></trkpt><trkpt lat="41.5194483" lon="0.177052"><ele>280.0</ele><time>2026-05-04T10:46:31.786Z</time></trkpt><trkpt lat="41.5194688" lon="0.1772325"><ele>280.0</ele><time>2026-05-04T10:46:32.786Z</time></trkpt><trkpt lat="41.5194903" lon="0.1774122"><ele>280.0</ele><time>2026-05-04T10:46:33.786Z</time></trkpt><trkpt lat="41.519507" lon="0.1775932"><ele>280.0</ele><time>2026-05-04T10:46:34.786Z</time></trkpt><trkpt lat="41.5195212" lon="0.1777726"><ele>280.0</ele><time>2026-05-04T10:46:35.786Z</time></trkpt><trkpt lat="41.5195377" lon="0.1779584"><ele>280.0</ele><time>2026-05-04T10:46:36.786Z</time></trkpt><trkpt lat="41.5195534" lon="0.1781415"><ele>280.0</ele><time>2026-05-04T10:46:37.786Z</time></trkpt><trkpt lat="41.5195737" lon="0.1783287"><ele>281.0</ele><time>2026-05-04T10:46:38.786Z</time></trkpt><trkpt lat="41.5195895" lon="0.1785148"><ele>282.0</ele><time>2026-05-04T10:46:39.786Z</time></trkpt><trkpt lat="41.5196034" lon="0.1787014"><ele>283.0</ele><time>2026-05-04T10:46:40.786Z</time></trkpt><trkpt lat="41.5196213" lon="0.178884"><ele>284.0</ele><time>2026-05-04T10:46:41.786Z</time></trkpt><trkpt lat="41.5196389" lon="0.1790759"><ele>284.0</ele><time>2026-05-04T10:46:42.785Z</time></trkpt><trkpt lat="41.5196574" lon="0.1792633"><ele>284.0</ele><time>2026-05-04T10:46:43.785Z</time></trkpt><trkpt lat="41.5196759" lon="0.1794446"><ele>284.0</ele><time>2026-05-04T10:46:44.786Z</time></trkpt><trkpt lat="41.5196959" lon="0.1796254"><ele>284.0</ele><time>2026-05-04T10:46:45.786Z</time></trkpt><trkpt lat="41.5197153" lon="0.1798067"><ele>283.75</ele><time>2026-05-04T10:46:46.786Z</time></trkpt><trkpt lat="41.5197326" lon="0.1799872"><ele>283.5</ele><time>2026-05-04T10:46:47.786Z</time></trkpt><trkpt lat="41.519752" lon="0.1801707"><ele>283.25</ele><time>2026-05-04T10:46:48.786Z</time></trkpt><trkpt lat="41.5197713" lon="0.1803512"><ele>283.0</ele><time>2026-05-04T10:46:49.786Z</time></trkpt><trkpt lat="41.5197894" lon="0.1805302"><ele>282.75</ele><time>2026-05-04T10:46:50.786Z</time></trkpt><trkpt lat="41.5198072" lon="0.1807117"><ele>282.5</ele><time>2026-05-04T10:46:51.786Z</time></trkpt><trkpt lat="41.5198254" lon="0.180899"><ele>282.25</ele><time>2026-05-04T10:46:52.785Z</time></trkpt><trkpt lat="41.5198442" lon="0.1810757"><ele>282.0</ele><time>2026-05-04T10:46:53.786Z</time></trkpt><trkpt lat="41.519861" lon="0.1812574"><ele>282.0</ele><time>2026-05-04T10:46:54.786Z</time></trkpt><trkpt lat="41.5198755" lon="0.1814359"><ele>282.0</ele><time>2026-05-04T10:46:55.786Z</time></trkpt><trkpt lat="41.5198898" lon="0.1816174"><ele>282.0</ele><time>2026-05-04T10:46:56.786Z</time></trkpt><trkpt lat="41.5199026" lon="0.1817923"><ele>282.0</ele><time>2026-05-04T10:46:57.786Z</time></trkpt><trkpt lat="41.5199211" lon="0.181971"><ele>282.5</ele><time>2026-05-04T10:46:58.786Z</time></trkpt><trkpt lat="41.5199417" lon="0.182147"><ele>283.0</ele><time>2026-05-04T10:46:59.786Z</time></trkpt><trkpt lat="41.5199535" lon="0.1823272"><ele>283.5</ele><time>2026-05-04T10:47:00.786Z</time></trkpt><trkpt lat="41.5199682" lon="0.1825047"><ele>284.0</ele><time>2026-05-04T10:47:01.786Z</time></trkpt><trkpt lat="41.5199851" lon="0.1826798"><ele>284.0</ele><time>2026-05-04T10:47:02.786Z</time></trkpt><trkpt lat="41.5200024" lon="0.1828573"><ele>284.0</ele><time>2026-05-04T10:47:03.786Z</time></trkpt><trkpt lat="41.5200229" lon="0.183031"><ele>284.0</ele><time>2026-05-04T10:47:04.786Z</time></trkpt><trkpt lat="41.5200375" lon="0.1832078"><ele>284.0</ele><time>2026-05-04T10:47:05.786Z</time></trkpt><trkpt lat="41.5200552" lon="0.1833866"><ele>284.25</ele><time>2026-05-04T10:47:06.785Z</time></trkpt><trkpt lat="41.5200709" lon="0.1835615"><ele>284.5</ele><time>2026-05-04T10:47:07.786Z</time></trkpt><trkpt lat="41.5200861" lon="0.1837383"><ele>284.75</ele><time>2026-05-04T10:47:08.786Z</time></trkpt><trkpt lat="41.5201058" lon="0.1839187"><ele>285.0</ele><time>2026-05-04T10:47:09.786Z</time></trkpt><trkpt lat="41.5201205" lon="0.1840973"><ele>285.25</ele><time>2026-05-04T10:47:10.785Z</time></trkpt><trkpt lat="41.5201371" lon="0.1842728"><ele>285.5</ele><time>2026-05-04T10:47:11.786Z</time></trkpt><trkpt lat="41.5201546" lon="0.1844572"><ele>285.75</ele><time>2026-05-04T10:47:12.786Z</time></trkpt><trkpt lat="41.5201726" lon="0.1846446"><ele>286.0</ele><time>2026-05-04T10:47:13.786Z</time></trkpt><trkpt lat="41.52019" lon="0.1848283"><ele>285.5</ele><time>2026-05-04T10:47:14.785Z</time></trkpt><trkpt lat="41.5202099" lon="0.1850085"><ele>285.0</ele><time>2026-05-04T10:47:15.786Z</time></trkpt><trkpt lat="41.5202279" lon="0.1851954"><ele>284.5</ele><time>2026-05-04T10:47:16.786Z</time></trkpt><trkpt lat="41.520243" lon="0.1853741"><ele>284.0</ele><time>2026-05-04T10:47:17.786Z</time></trkpt><trkpt lat="41.520266" lon="0.1855577"><ele>284.75</ele><time>2026-05-04T10:47:18.786Z</time></trkpt><trkpt lat="41.5202851" lon="0.1857471"><ele>285.5</ele><time>2026-05-04T10:47:19.786Z</time></trkpt><trkpt lat="41.5203049" lon="0.1859258"><ele>286.25</ele><time>2026-05-04T10:47:20.786Z</time></trkpt><trkpt lat="41.5203226" lon="0.1861101"><ele>287.0</ele><time>2026-05-04T10:47:21.786Z</time></trkpt><trkpt lat="41.5203443" lon="0.186294"><ele>287.0</ele><time>2026-05-04T10:47:22.785Z</time></trkpt><trkpt lat="41.5203636" lon="0.1864772"><ele>287.0</ele><time>2026-05-04T10:47:23.786Z</time></trkpt><trkpt lat="41.5203797" lon="0.186658"><ele>287.0</ele><time>2026-05-04T10:47:24.785Z</time></trkpt><trkpt lat="41.5203953" lon="0.1868419"><ele>287.0</ele><time>2026-05-04T10:47:25.786Z</time></trkpt><trkpt lat="41.5204118" lon="0.1870256"><ele>287.25</ele><time>2026-05-04T10:47:26.786Z</time></trkpt><trkpt lat="41.5204289" lon="0.1872109"><ele>287.5</ele><time>2026-05-04T10:47:27.786Z</time></trkpt><trkpt lat="41.520445" lon="0.1873873"><ele>287.75</ele><time>2026-05-04T10:47:28.786Z</time></trkpt><trkpt lat="41.5204606" lon="0.187568"><ele>288.0</ele><time>2026-05-04T10:47:29.786Z</time></trkpt><trkpt lat="41.5204786" lon="0.1877467"><ele>288.0</ele><time>2026-05-04T10:47:30.786Z</time></trkpt><trkpt lat="41.5204978" lon="0.1879292"><ele>288.0</ele><time>2026-05-04T10:47:31.785Z</time></trkpt><trkpt lat="41.5205165" lon="0.1881118"><ele>288.0</ele><time>2026-05-04T10:47:32.786Z</time></trkpt><trkpt lat="41.5205378" lon="0.1882925"><ele>288.0</ele><time>2026-05-04T10:47:33.786Z</time></trkpt><trkpt lat="41.520556" lon="0.1884732"><ele>288.0</ele><time>2026-05-04T10:47:34.786Z</time></trkpt><trkpt lat="41.520575" lon="0.1886509"><ele>288.0</ele><time>2026-05-04T10:47:35.786Z</time></trkpt><trkpt lat="41.5205933" lon="0.1888352"><ele>288.0</ele><time>2026-05-04T10:47:36.786Z</time></trkpt><trkpt lat="41.5206138" lon="0.1890162"><ele>288.0</ele><time>2026-05-04T10:47:37.785Z</time></trkpt><trkpt lat="41.5206331" lon="0.1892009"><ele>288.0</ele><time>2026-05-04T10:47:38.786Z</time></trkpt><trkpt lat="41.5206498" lon="0.1893849"><ele>288.0</ele><time>2026-05-04T10:47:39.786Z</time></trkpt><trkpt lat="41.5206666" lon="0.1895666"><ele>288.0</ele><time>2026-05-04T10:47:40.786Z</time></trkpt><trkpt lat="41.5206818" lon="0.1897478"><ele>288.0</ele><time>2026-05-04T10:47:41.786Z</time></trkpt><trkpt lat="41.5206984" lon="0.1899314"><ele>288.5</ele><time>2026-05-04T10:47:42.786Z</time></trkpt><trkpt lat="41.5207187" lon="0.1901125"><ele>289.0</ele><time>2026-05-04T10:47:43.786Z</time></trkpt><trkpt lat="41.5207372" lon="0.190294"><ele>289.5</ele><time>2026-05-04T10:47:44.786Z</time></trkpt><trkpt lat="41.5207511" lon="0.1904722"><ele>290.0</ele><time>2026-05-04T10:47:45.786Z</time></trkpt><trkpt lat="41.5207684" lon="0.1906455"><ele>289.75</ele><time>2026-05-04T10:47:46.785Z</time></trkpt><trkpt lat="41.5207833" lon="0.1908202"><ele>289.5</ele><time>2026-05-04T10:47:47.786Z</time></trkpt><trkpt lat="41.5208021" lon="0.1909909"><ele>289.25</ele><time>2026-05-04T10:47:48.786Z</time></trkpt><trkpt lat="41.5208205" lon="0.1911613"><ele>289.0</ele><time>2026-05-04T10:47:49.786Z</time></trkpt><trkpt lat="41.5208346" lon="0.1913229"><ele>289.0</ele><time>2026-05-04T10:47:50.786Z</time></trkpt><trkpt lat="41.5208463" lon="0.1914811"><ele>289.0</ele><time>2026-05-04T10:47:51.786Z</time></trkpt><trkpt lat="41.5208609" lon="0.1916366"><ele>289.0</ele><time>2026-05-04T10:47:52.785Z</time></trkpt><trkpt lat="41.5208739" lon="0.1917873"><ele>289.0</ele><time>2026-05-04T10:47:53.785Z</time></trkpt><trkpt lat="41.5208869" lon="0.1919416"><ele>289.75</ele><time>2026-05-04T10:47:54.786Z</time></trkpt><trkpt lat="41.5208971" lon="0.1920974"><ele>290.5</ele><time>2026-05-04T10:47:55.785Z</time></trkpt><trkpt lat="41.5209069" lon="0.1922571"><ele>291.25</ele><time>2026-05-04T10:47:56.785Z</time></trkpt><trkpt lat="41.5209149" lon="0.1924159"><ele>292.0</ele><time>2026-05-04T10:47:57.786Z</time></trkpt><trkpt lat="41.5209196" lon="0.1925824"><ele>292.5</ele><time>2026-05-04T10:47:58.785Z</time></trkpt><trkpt lat="41.5209192" lon="0.1927491"><ele>293.0</ele><time>2026-05-04T10:47:59.786Z</time></trkpt><trkpt lat="41.5209146" lon="0.1929223"><ele>293.5</ele><time>2026-05-04T10:48:00.786Z</time></trkpt><trkpt lat="41.5209067" lon="0.1930912"><ele>294.0</ele><time>2026-05-04T10:48:01.786Z</time></trkpt><trkpt lat="41.5208975" lon="0.1932668"><ele>294.0</ele><time>2026-05-04T10:48:02.786Z</time></trkpt><trkpt lat="41.5208869" lon="0.1934424"><ele>294.0</ele><time>2026-05-04T10:48:03.786Z</time></trkpt><trkpt lat="41.5208721" lon="0.1936168"><ele>294.0</ele><time>2026-05-04T10:48:04.785Z</time></trkpt><trkpt lat="41.5208568" lon="0.1937972"><ele>294.0</ele><time>2026-05-04T10:48:05.786Z</time></trkpt><trkpt lat="41.5208456" lon="0.1939826"><ele>294.25</ele><time>2026-05-04T10:48:06.786Z</time></trkpt><trkpt lat="41.5208323" lon="0.1941682"><ele>294.5</ele><time>2026-05-04T10:48:07.786Z</time></trkpt><trkpt lat="41.5208195" lon="0.1943572"><ele>294.75</ele><time>2026-05-04T10:48:08.786Z</time></trkpt><trkpt lat="41.5208057" lon="0.1945471"><ele>295.0</ele><time>2026-05-04T10:48:09.786Z</time></trkpt><trkpt lat="41.5207871" lon="0.1947372"><ele>295.25</ele><time>2026-05-04T10:48:10.786Z</time></trkpt><trkpt lat="41.5207657" lon="0.1949316"><ele>295.5</ele><time>2026-05-04T10:48:11.786Z</time></trkpt><trkpt lat="41.5207486" lon="0.1951251"><ele>295.75</ele><time>2026-05-04T10:48:12.786Z</time></trkpt><trkpt lat="41.5207327" lon="0.1953123"><ele>296.0</ele><time>2026-05-04T10:48:13.786Z</time></trkpt><trkpt lat="41.5207162" lon="0.1955074"><ele>296.0</ele><time>2026-05-04T10:48:14.786Z</time></trkpt><trkpt lat="41.5207061" lon="0.1956993"><ele>296.0</ele><time>2026-05-04T10:48:15.785Z</time></trkpt><trkpt lat="41.5206927" lon="0.1958866"><ele>296.0</ele><time>2026-05-04T10:48:16.786Z</time></trkpt><trkpt lat="41.5206753" lon="0.1960748"><ele>296.0</ele><time>2026-05-04T10:48:17.785Z</time></trkpt><trkpt lat="41.5206551" lon="0.1962574"><ele>296.0</ele><time>2026-05-04T10:48:18.786Z</time></trkpt><trkpt lat="41.5206404" lon="0.1964333"><ele>296.0</ele><time>2026-05-04T10:48:19.786Z</time></trkpt><trkpt lat="41.5206248" lon="0.196612"><ele>296.0</ele><time>2026-05-04T10:48:20.786Z</time></trkpt><trkpt lat="41.52061" lon="0.1967886"><ele>296.0</ele><time>2026-05-04T10:48:21.786Z</time></trkpt><trkpt lat="41.5205945" lon="0.1969689"><ele>296.25</ele><time>2026-05-04T10:48:22.786Z</time></trkpt><trkpt lat="41.5205811" lon="0.1971395"><ele>296.5</ele><time>2026-05-04T10:48:23.786Z</time></trkpt><trkpt lat="41.5205681" lon="0.197311"><ele>296.75</ele><time>2026-05-04T10:48:24.786Z</time></trkpt><trkpt lat="41.5205541" lon="0.1974833"><ele>297.0</ele><time>2026-05-04T10:48:25.786Z</time></trkpt><trkpt lat="41.5205448" lon="0.1976601"><ele>297.25</ele><time>2026-05-04T10:48:26.786Z</time></trkpt><trkpt lat="41.5205315" lon="0.1978383"><ele>297.5</ele><time>2026-05-04T10:48:27.786Z</time></trkpt><trkpt lat="41.5205145" lon="0.1980158"><ele>297.75</ele><time>2026-05-04T10:48:28.786Z</time></trkpt><trkpt lat="41.5204974" lon="0.1981923"><ele>298.0</ele><time>2026-05-04T10:48:29.786Z</time></trkpt><trkpt lat="41.5204778" lon="0.198368"><ele>298.25</ele><time>2026-05-04T10:48:30.786Z</time></trkpt><trkpt lat="41.5204653" lon="0.1985416"><ele>298.5</ele><time>2026-05-04T10:48:31.786Z</time></trkpt><trkpt lat="41.5204517" lon="0.1987179"><ele>298.75</ele><time>2026-05-04T10:48:32.786Z</time></trkpt><trkpt lat="41.5204333" lon="0.1988927"><ele>299.0</ele><time>2026-05-04T10:48:33.785Z</time></trkpt><trkpt lat="41.5204194" lon="0.1990661"><ele>299.5</ele><time>2026-05-04T10:48:34.785Z</time></trkpt><trkpt lat="41.5204057" lon="0.1992423"><ele>300.0</ele><time>2026-05-04T10:48:35.786Z</time></trkpt><trkpt lat="41.5203924" lon="0.199415"><ele>300.5</ele><time>2026-05-04T10:48:36.786Z</time></trkpt><trkpt lat="41.5203784" lon="0.199587"><ele>301.0</ele><time>2026-05-04T10:48:37.786Z</time></trkpt><trkpt lat="41.520362" lon="0.1997627"><ele>301.25</ele><time>2026-05-04T10:48:38.786Z</time></trkpt><trkpt lat="41.5203439" lon="0.199937"><ele>301.5</ele><time>2026-05-04T10:48:39.786Z</time></trkpt><trkpt lat="41.5203315" lon="0.2001134"><ele>301.75</ele><time>2026-05-04T10:48:40.786Z</time></trkpt><trkpt lat="41.5203206" lon="0.2002905"><ele>302.0</ele><time>2026-05-04T10:48:41.786Z</time></trkpt><trkpt lat="41.5203112" lon="0.2004677"><ele>302.0</ele><time>2026-05-04T10:48:42.786Z</time></trkpt><trkpt lat="41.5202996" lon="0.2006458"><ele>302.0</ele><time>2026-05-04T10:48:43.786Z</time></trkpt><trkpt lat="41.5202813" lon="0.2008205"><ele>302.0</ele><time>2026-05-04T10:48:44.785Z</time></trkpt><trkpt lat="41.5202676" lon="0.201"><ele>302.0</ele><time>2026-05-04T10:48:45.786Z</time></trkpt><trkpt lat="41.5202521" lon="0.2011798"><ele>302.25</ele><time>2026-05-04T10:48:46.786Z</time></trkpt><trkpt lat="41.5202405" lon="0.2013615"><ele>302.5</ele><time>2026-05-04T10:48:47.786Z</time></trkpt><trkpt lat="41.5202276" lon="0.2015473"><ele>302.75</ele><time>2026-05-04T10:48:48.787Z</time></trkpt><trkpt lat="41.5202112" lon="0.201729"><ele>303.0</ele><time>2026-05-04T10:48:49.787Z</time></trkpt><trkpt lat="41.5201926" lon="0.2019078"><ele>303.0</ele><time>2026-05-04T10:48:50.787Z</time></trkpt><trkpt lat="41.5201742" lon="0.2020917"><ele>303.0</ele><time>2026-05-04T10:48:51.787Z</time></trkpt><trkpt lat="41.5201577" lon="0.2022817"><ele>303.0</ele><time>2026-05-04T10:48:52.786Z</time></trkpt><trkpt lat="41.5201387" lon="0.2024682"><ele>303.0</ele><time>2026-05-04T10:48:53.787Z</time></trkpt><trkpt lat="41.5201203" lon="0.2026566"><ele>303.0</ele><time>2026-05-04T10:48:54.787Z</time></trkpt><trkpt lat="41.520101" lon="0.2028406"><ele>303.0</ele><time>2026-05-04T10:48:55.787Z</time></trkpt><trkpt lat="41.5200835" lon="0.2030121"><ele>303.0</ele><time>2026-05-04T10:48:56.787Z</time></trkpt><trkpt lat="41.5200685" lon="0.203184"><ele>303.0</ele><time>2026-05-04T10:48:57.787Z</time></trkpt><trkpt lat="41.5200539" lon="0.2033551"><ele>302.75</ele><time>2026-05-04T10:48:58.787Z</time></trkpt><trkpt lat="41.5200409" lon="0.2035233"><ele>302.5</ele><time>2026-05-04T10:48:59.787Z</time></trkpt><trkpt lat="41.5200275" lon="0.2036833"><ele>302.25</ele><time>2026-05-04T10:49:00.786Z</time></trkpt><trkpt lat="41.5200159" lon="0.2038419"><ele>302.0</ele><time>2026-05-04T10:49:01.787Z</time></trkpt><trkpt lat="41.5199983" lon="0.2040045"><ele>302.5</ele><time>2026-05-04T10:49:02.786Z</time></trkpt><trkpt lat="41.5199817" lon="0.2041685"><ele>303.0</ele><time>2026-05-04T10:49:03.787Z</time></trkpt><trkpt lat="41.5199595" lon="0.2043307"><ele>303.5</ele><time>2026-05-04T10:49:04.786Z</time></trkpt><trkpt lat="41.5199215" lon="0.204467"><ele>304.0</ele><time>2026-05-04T10:49:05.787Z</time></trkpt><trkpt lat="41.519878" lon="0.2045968"><ele>304.0</ele><time>2026-05-04T10:49:06.787Z</time></trkpt><trkpt lat="41.5198406" lon="0.2047173"><ele>304.0</ele><time>2026-05-04T10:49:07.786Z</time></trkpt><trkpt lat="41.5198099" lon="0.2048262"><ele>304.0</ele><time>2026-05-04T10:49:08.787Z</time></trkpt><trkpt lat="41.519782" lon="0.2049276"><ele>304.0</ele><time>2026-05-04T10:49:09.787Z</time></trkpt><trkpt lat="41.5197609" lon="0.2050124"><ele>304.0</ele><time>2026-05-04T10:49:10.787Z</time></trkpt><trkpt lat="41.5197489" lon="0.2051022"><ele>304.0</ele><time>2026-05-04T10:49:11.787Z</time></trkpt><trkpt lat="41.5197409" lon="0.2052654"><ele>304.0</ele><time>2026-05-04T10:49:13.787Z</time></trkpt><trkpt lat="41.5197223" lon="0.2053912"><ele>304.0</ele><time>2026-05-04T10:49:15.786Z</time></trkpt><trkpt lat="41.5197548" lon="0.2054975"><ele>304.0</ele><time>2026-05-04T10:49:17.786Z</time></trkpt><trkpt lat="41.519782" lon="0.205574"><ele>304.0</ele><time>2026-05-04T10:49:19.787Z</time></trkpt><trkpt lat="41.5197835" lon="0.205665"><ele>304.0</ele><time>2026-05-04T10:49:21.786Z</time></trkpt><trkpt lat="41.5197721" lon="0.205814"><ele>304.0</ele><time>2026-05-04T10:49:23.787Z</time></trkpt><trkpt lat="41.5197453" lon="0.2059567"><ele>304.0</ele><time>2026-05-04T10:49:25.786Z</time></trkpt><trkpt lat="41.5197109" lon="0.2061132"><ele>304.0</ele><time>2026-05-04T10:49:27.787Z</time></trkpt><trkpt lat="41.5196919" lon="0.2062125"><ele>304.0</ele><time>2026-05-04T10:49:28.787Z</time></trkpt><trkpt lat="41.5196818" lon="0.2062972"><ele>304.0</ele><time>2026-05-04T10:49:29.787Z</time></trkpt><trkpt lat="41.5196709" lon="0.2064171"><ele>304.0</ele><time>2026-05-04T10:49:31.787Z</time></trkpt><trkpt lat="41.5196758" lon="0.2065112"><ele>304.0</ele><time>2026-05-04T10:49:33.786Z</time></trkpt><trkpt lat="41.5197144" lon="0.2064077"><ele>304.0</ele><time>2026-05-04T10:50:33.787Z</time></trkpt><trkpt lat="41.5197147" lon="0.206319"><ele>304.0</ele><time>2026-05-04T10:50:34.787Z</time></trkpt><trkpt lat="41.5197108" lon="0.2064287"><ele>304.0</ele><time>2026-05-04T10:56:34.79Z</time></trkpt><trkpt lat="41.5197097" lon="0.2065706"><ele>304.0</ele><time>2026-05-04T10:56:36.79Z</time></trkpt><trkpt lat="41.519719" lon="0.20666"><ele>304.0</ele><time>2026-05-04T10:56:37.79Z</time></trkpt><trkpt lat="41.5197331" lon="0.2067524"><ele>304.0</ele><time>2026-05-04T10:56:38.79Z</time></trkpt><trkpt lat="41.5197424" lon="0.2068427"><ele>303.8333333333333</ele><time>2026-05-04T10:56:39.789Z</time></trkpt><trkpt lat="41.5197457" lon="0.207"><ele>303.66666666666663</ele><time>2026-05-04T10:56:41.79Z</time></trkpt><trkpt lat="41.5197341" lon="0.2071227"><ele>303.5</ele><time>2026-05-04T10:56:43.79Z</time></trkpt><trkpt lat="41.5197255" lon="0.2072148"><ele>303.3333333333333</ele><time>2026-05-04T10:56:45.79Z</time></trkpt><trkpt lat="41.5197204" lon="0.2073221"><ele>303.1666666666667</ele><time>2026-05-04T10:56:48.79Z</time></trkpt><trkpt lat="41.5197084" lon="0.2074072"><ele>303.0</ele><time>2026-05-04T10:56:51.79Z</time></trkpt><trkpt lat="41.5197004" lon="0.2075131"><ele>303.3333333333333</ele><time>2026-05-04T10:56:54.79Z</time></trkpt><trkpt lat="41.5197051" lon="0.2076017"><ele>303.6666666666667</ele><time>2026-05-04T10:56:56.79Z</time></trkpt><trkpt lat="41.5197149" lon="0.2076911"><ele>304.0</ele><time>2026-05-04T10:56:58.79Z</time></trkpt><trkpt lat="41.5197095" lon="0.2077829"><ele>304.33333333333337</ele><time>2026-05-04T10:57:00.79Z</time></trkpt><trkpt lat="41.5197017" lon="0.2079074"><ele>304.6666666666667</ele><time>2026-05-04T10:57:02.789Z</time></trkpt><trkpt lat="41.5196915" lon="0.2080289"><ele>305.0</ele><time>2026-05-04T10:57:04.79Z</time></trkpt><trkpt lat="41.5196784" lon="0.208169"><ele>305.5</ele><time>2026-05-04T10:57:06.79Z</time></trkpt><trkpt lat="41.5196714" lon="0.2082538"><ele>306.0</ele><time>2026-05-04T10:57:07.79Z</time></trkpt><trkpt lat="41.51966" lon="0.2084157"><ele>306.5</ele><time>2026-05-04T10:57:09.79Z</time></trkpt><trkpt lat="41.5196534" lon="0.2085008"><ele>307.0</ele><time>2026-05-04T10:57:10.79Z</time></trkpt><trkpt lat="41.5196474" lon="0.2085871"><ele>307.5</ele><time>2026-05-04T10:57:11.789Z</time></trkpt><trkpt lat="41.5196365" lon="0.2086825"><ele>308.0</ele><time>2026-05-04T10:57:12.789Z</time></trkpt><trkpt lat="41.5196292" lon="0.2087894"><ele>308.0</ele><time>2026-05-04T10:57:13.79Z</time></trkpt><trkpt lat="41.5196227" lon="0.2088997"><ele>308.0</ele><time>2026-05-04T10:57:14.79Z</time></trkpt><trkpt lat="41.5196156" lon="0.2090184"><ele>308.0</ele><time>2026-05-04T10:57:15.789Z</time></trkpt><trkpt lat="41.5196069" lon="0.2091418"><ele>308.0</ele><time>2026-05-04T10:57:16.789Z</time></trkpt><trkpt lat="41.5195997" lon="0.2092706"><ele>308.0</ele><time>2026-05-04T10:57:17.79Z</time></trkpt><trkpt lat="41.5195848" lon="0.2093922"><ele>307.83333333333337</ele><time>2026-05-04T10:57:18.789Z</time></trkpt><trkpt lat="41.5195677" lon="0.2095081"><ele>307.6666666666667</ele><time>2026-05-04T10:57:19.789Z</time></trkpt><trkpt lat="41.519557" lon="0.2096258"><ele>307.5</ele><time>2026-05-04T10:57:20.79Z</time></trkpt><trkpt lat="41.5195453" lon="0.2097426"><ele>307.3333333333333</ele><time>2026-05-04T10:57:21.79Z</time></trkpt><trkpt lat="41.5195318" lon="0.2098519"><ele>307.16666666666663</ele><time>2026-05-04T10:57:22.79Z</time></trkpt><trkpt lat="41.5195233" lon="0.2099535"><ele>307.0</ele><time>2026-05-04T10:57:23.79Z</time></trkpt><trkpt lat="41.5195194" lon="0.2100708"><ele>307.0</ele><time>2026-05-04T10:57:24.79Z</time></trkpt><trkpt lat="41.5195086" lon="0.2101879"><ele>307.0</ele><time>2026-05-04T10:57:25.79Z</time></trkpt><trkpt lat="41.519497" lon="0.2103126"><ele>307.0</ele><time>2026-05-04T10:57:26.79Z</time></trkpt><trkpt lat="41.5194905" lon="0.2104342"><ele>307.0</ele><time>2026-05-04T10:57:27.79Z</time></trkpt><trkpt lat="41.5194833" lon="0.2105586"><ele>307.0</ele><time>2026-05-04T10:57:28.79Z</time></trkpt><trkpt lat="41.5194733" lon="0.2106879"><ele>307.0</ele><time>2026-05-04T10:57:29.79Z</time></trkpt><trkpt lat="41.5194655" lon="0.2108137"><ele>307.0</ele><time>2026-05-04T10:57:30.79Z</time></trkpt><trkpt lat="41.5194502" lon="0.2109447"><ele>307.0</ele><time>2026-05-04T10:57:31.79Z</time></trkpt><trkpt lat="41.5194387" lon="0.2110773"><ele>307.0</ele><time>2026-05-04T10:57:32.79Z</time></trkpt><trkpt lat="41.5194252" lon="0.2112162"><ele>307.0</ele><time>2026-05-04T10:57:33.79Z</time></trkpt><trkpt lat="41.5194145" lon="0.2113556"><ele>307.0</ele><time>2026-05-04T10:57:34.789Z</time></trkpt><trkpt lat="41.5194053" lon="0.2114975"><ele>307.0</ele><time>2026-05-04T10:57:35.79Z</time></trkpt><trkpt lat="41.5193964" lon="0.2116422"><ele>307.0</ele><time>2026-05-04T10:57:36.79Z</time></trkpt><trkpt lat="41.5193859" lon="0.2117795"><ele>307.0</ele><time>2026-05-04T10:57:37.789Z</time></trkpt><trkpt lat="41.5193689" lon="0.2119242"><ele>307.0</ele><time>2026-05-04T10:57:38.789Z</time></trkpt><trkpt lat="41.5193575" lon="0.2120562"><ele>307.0</ele><time>2026-05-04T10:57:39.789Z</time></trkpt><trkpt lat="41.5193436" lon="0.2121808"><ele>307.0</ele><time>2026-05-04T10:57:40.79Z</time></trkpt><trkpt lat="41.5193328" lon="0.212301"><ele>307.0</ele><time>2026-05-04T10:57:41.79Z</time></trkpt><trkpt lat="41.5193183" lon="0.2124224"><ele>307.0</ele><time>2026-05-04T10:57:42.79Z</time></trkpt><trkpt lat="41.5193078" lon="0.212547"><ele>307.0</ele><time>2026-05-04T10:57:43.79Z</time></trkpt><trkpt lat="41.5192987" lon="0.2126739"><ele>307.0</ele><time>2026-05-04T10:57:44.79Z</time></trkpt><trkpt lat="41.519289" lon="0.2128018"><ele>307.0</ele><time>2026-05-04T10:57:45.79Z</time></trkpt><trkpt lat="41.5192793" lon="0.212928"><ele>307.0</ele><time>2026-05-04T10:57:46.79Z</time></trkpt><trkpt lat="41.5192706" lon="0.2130593"><ele>307.0</ele><time>2026-05-04T10:57:47.79Z</time></trkpt><trkpt lat="41.5192619" lon="0.2131823"><ele>307.0</ele><time>2026-05-04T10:57:48.79Z</time></trkpt><trkpt lat="41.5192529" lon="0.2133013"><ele>307.0</ele><time>2026-05-04T10:57:49.79Z</time></trkpt><trkpt lat="41.5192413" lon="0.2134116"><ele>307.0</ele><time>2026-05-04T10:57:50.79Z</time></trkpt><trkpt lat="41.5192304" lon="0.2135182"><ele>307.0</ele><time>2026-05-04T10:57:51.79Z</time></trkpt><trkpt lat="41.519223" lon="0.2136218"><ele>307.0</ele><time>2026-05-04T10:57:52.79Z</time></trkpt><trkpt lat="41.5192165" lon="0.2137203"><ele>307.0</ele><time>2026-05-04T10:57:53.79Z</time></trkpt><trkpt lat="41.5192066" lon="0.2138246"><ele>307.0</ele><time>2026-05-04T10:57:54.79Z</time></trkpt><trkpt lat="41.5191969" lon="0.2139353"><ele>307.5</ele><time>2026-05-04T10:57:55.79Z</time></trkpt><trkpt lat="41.5191848" lon="0.2140425"><ele>308.0</ele><time>2026-05-04T10:57:56.79Z</time></trkpt><trkpt lat="41.5191785" lon="0.2141493"><ele>308.5</ele><time>2026-05-04T10:57:57.79Z</time></trkpt><trkpt lat="41.5191707" lon="0.2142601"><ele>309.0</ele><time>2026-05-04T10:57:58.789Z</time></trkpt><trkpt lat="41.5191634" lon="0.2143698"><ele>309.5</ele><time>2026-05-04T10:57:59.79Z</time></trkpt><trkpt lat="41.5191564" lon="0.2144815"><ele>310.0</ele><time>2026-05-04T10:58:00.789Z</time></trkpt><trkpt lat="41.519149" lon="0.2145927"><ele>310.0</ele><time>2026-05-04T10:58:01.79Z</time></trkpt><trkpt lat="41.5191389" lon="0.2147019"><ele>310.0</ele><time>2026-05-04T10:58:02.79Z</time></trkpt><trkpt lat="41.5191304" lon="0.2148129"><ele>310.0</ele><time>2026-05-04T10:58:03.789Z</time></trkpt><trkpt lat="41.5191205" lon="0.2149295"><ele>310.0</ele><time>2026-05-04T10:58:04.79Z</time></trkpt><trkpt lat="41.5191127" lon="0.2150495"><ele>310.0</ele><time>2026-05-04T10:58:05.789Z</time></trkpt><trkpt lat="41.5191027" lon="0.2151691"><ele>310.0</ele><time>2026-05-04T10:58:06.79Z</time></trkpt><trkpt lat="41.5190914" lon="0.2152914"><ele>310.2</ele><time>2026-05-04T10:58:07.789Z</time></trkpt><trkpt lat="41.5190783" lon="0.2154174"><ele>310.4</ele><time>2026-05-04T10:58:08.79Z</time></trkpt><trkpt lat="41.5190665" lon="0.2155473"><ele>310.6</ele><time>2026-05-04T10:58:09.79Z</time></trkpt><trkpt lat="41.5190581" lon="0.215674"><ele>310.8</ele><time>2026-05-04T10:58:10.79Z</time></trkpt><trkpt lat="41.519049" lon="0.2158043"><ele>311.0</ele><time>2026-05-04T10:58:11.79Z</time></trkpt><trkpt lat="41.5190372" lon="0.21594"><ele>311.2</ele><time>2026-05-04T10:58:12.79Z</time></trkpt><trkpt lat="41.5190245" lon="0.2160731"><ele>311.40000000000003</ele><time>2026-05-04T10:58:13.79Z</time></trkpt><trkpt lat="41.5190139" lon="0.2162057"><ele>311.6</ele><time>2026-05-04T10:58:14.79Z</time></trkpt><trkpt lat="41.5190043" lon="0.2163409"><ele>311.8</ele><time>2026-05-04T10:58:15.79Z</time></trkpt><trkpt lat="41.518996" lon="0.2164761"><ele>312.0</ele><time>2026-05-04T10:58:16.79Z</time></trkpt><trkpt lat="41.5189829" lon="0.2166135"><ele>312.2</ele><time>2026-05-04T10:58:17.789Z</time></trkpt><trkpt lat="41.5189702" lon="0.2167559"><ele>312.4</ele><time>2026-05-04T10:58:18.79Z</time></trkpt><trkpt lat="41.5189609" lon="0.2168943"><ele>312.6</ele><time>2026-05-04T10:58:19.789Z</time></trkpt><trkpt lat="41.5189467" lon="0.2170384"><ele>312.8</ele><time>2026-05-04T10:58:20.79Z</time></trkpt><trkpt lat="41.5189328" lon="0.2171809"><ele>313.0</ele><time>2026-05-04T10:58:21.79Z</time></trkpt><trkpt lat="41.5189228" lon="0.217322"><ele>313.2</ele><time>2026-05-04T10:58:22.79Z</time></trkpt><trkpt lat="41.5189093" lon="0.2174665"><ele>313.4</ele><time>2026-05-04T10:58:23.79Z</time></trkpt><trkpt lat="41.5188984" lon="0.2176069"><ele>313.59999999999997</ele><time>2026-05-04T10:58:24.79Z</time></trkpt><trkpt lat="41.5188867" lon="0.2177515"><ele>313.8</ele><time>2026-05-04T10:58:25.79Z</time></trkpt><trkpt lat="41.5188781" lon="0.2178822"><ele>314.0</ele><time>2026-05-04T10:58:26.79Z</time></trkpt><trkpt lat="41.5188647" lon="0.2180175"><ele>314.0</ele><time>2026-05-04T10:58:27.79Z</time></trkpt><trkpt lat="41.5188571" lon="0.2181465"><ele>314.0</ele><time>2026-05-04T10:58:28.79Z</time></trkpt><trkpt lat="41.5188469" lon="0.2182802"><ele>314.0</ele><time>2026-05-04T10:58:29.79Z</time></trkpt><trkpt lat="41.518835" lon="0.2184076"><ele>314.0</ele><time>2026-05-04T10:58:30.789Z</time></trkpt><trkpt lat="41.5188229" lon="0.2185299"><ele>314.0</ele><time>2026-05-04T10:58:31.79Z</time></trkpt><trkpt lat="41.5188094" lon="0.2186566"><ele>313.8</ele><time>2026-05-04T10:58:32.79Z</time></trkpt><trkpt lat="41.5187969" lon="0.2187811"><ele>313.59999999999997</ele><time>2026-05-04T10:58:33.79Z</time></trkpt><trkpt lat="41.5187894" lon="0.2189061"><ele>313.4</ele><time>2026-05-04T10:58:34.789Z</time></trkpt><trkpt lat="41.51878" lon="0.2190329"><ele>313.2</ele><time>2026-05-04T10:58:35.79Z</time></trkpt><trkpt lat="41.5187776" lon="0.2191639"><ele>313.0</ele><time>2026-05-04T10:58:36.79Z</time></trkpt><trkpt lat="41.5187653" lon="0.2192878"><ele>313.2</ele><time>2026-05-04T10:58:37.79Z</time></trkpt><trkpt lat="41.5187552" lon="0.21941"><ele>313.4</ele><time>2026-05-04T10:58:38.789Z</time></trkpt><trkpt lat="41.5187443" lon="0.2195392"><ele>313.59999999999997</ele><time>2026-05-04T10:58:39.789Z</time></trkpt><trkpt lat="41.518735" lon="0.2196696"><ele>313.8</ele><time>2026-05-04T10:58:40.79Z</time></trkpt><trkpt lat="41.5187242" lon="0.2198051"><ele>314.0</ele><time>2026-05-04T10:58:41.79Z</time></trkpt><trkpt lat="41.518713" lon="0.2199405"><ele>314.25</ele><time>2026-05-04T10:58:42.79Z</time></trkpt><trkpt lat="41.5187025" lon="0.220083"><ele>314.5</ele><time>2026-05-04T10:58:43.79Z</time></trkpt><trkpt lat="41.5186948" lon="0.2202312"><ele>314.75</ele><time>2026-05-04T10:58:44.79Z</time></trkpt><trkpt lat="41.5186792" lon="0.2203835"><ele>315.0</ele><time>2026-05-04T10:58:45.79Z</time></trkpt><trkpt lat="41.518667" lon="0.2205389"><ele>315.2</ele><time>2026-05-04T10:58:46.79Z</time></trkpt><trkpt lat="41.518655" lon="0.2206914"><ele>315.4</ele><time>2026-05-04T10:58:47.79Z</time></trkpt><trkpt lat="41.5186393" lon="0.2208405"><ele>315.6</ele><time>2026-05-04T10:58:48.789Z</time></trkpt><trkpt lat="41.5186276" lon="0.2209875"><ele>315.8</ele><time>2026-05-04T10:58:49.79Z</time></trkpt><trkpt lat="41.518615" lon="0.2211315"><ele>316.0</ele><time>2026-05-04T10:58:50.79Z</time></trkpt><trkpt lat="41.5186034" lon="0.2212728"><ele>316.0</ele><time>2026-05-04T10:58:51.79Z</time></trkpt><trkpt lat="41.5185925" lon="0.2214136"><ele>316.0</ele><time>2026-05-04T10:58:52.79Z</time></trkpt><trkpt lat="41.5185842" lon="0.2215555"><ele>316.0</ele><time>2026-05-04T10:58:53.79Z</time></trkpt><trkpt lat="41.518572" lon="0.221695"><ele>316.0</ele><time>2026-05-04T10:58:54.79Z</time></trkpt><trkpt lat="41.518559" lon="0.2218386"><ele>316.0</ele><time>2026-05-04T10:58:55.789Z</time></trkpt><trkpt lat="41.5185483" lon="0.2219772"><ele>316.2</ele><time>2026-05-04T10:58:56.79Z</time></trkpt><trkpt lat="41.5185355" lon="0.2221169"><ele>316.40000000000003</ele><time>2026-05-04T10:58:57.789Z</time></trkpt><trkpt lat="41.5185217" lon="0.2222559"><ele>316.6</ele><time>2026-05-04T10:58:58.79Z</time></trkpt><trkpt lat="41.5185119" lon="0.2223928"><ele>316.8</ele><time>2026-05-04T10:58:59.789Z</time></trkpt><trkpt lat="41.5184984" lon="0.2225257"><ele>317.0</ele><time>2026-05-04T10:59:00.79Z</time></trkpt><trkpt lat="41.5184877" lon="0.2226648"><ele>317.6</ele><time>2026-05-04T10:59:01.79Z</time></trkpt><trkpt lat="41.5184752" lon="0.2228009"><ele>318.2</ele><time>2026-05-04T10:59:02.791Z</time></trkpt><trkpt lat="41.5184656" lon="0.2229447"><ele>318.8</ele><time>2026-05-04T10:59:03.79Z</time></trkpt><trkpt lat="41.5184525" lon="0.2230861"><ele>319.4</ele><time>2026-05-04T10:59:04.791Z</time></trkpt><trkpt lat="41.5184387" lon="0.2232254"><ele>320.0</ele><time>2026-05-04T10:59:05.791Z</time></trkpt><trkpt lat="41.518427" lon="0.2233698"><ele>320.6</ele><time>2026-05-04T10:59:06.791Z</time></trkpt><trkpt lat="41.518417" lon="0.2235122"><ele>321.2</ele><time>2026-05-04T10:59:07.79Z</time></trkpt><trkpt lat="41.5184115" lon="0.223654"><ele>321.79999999999995</ele><time>2026-05-04T10:59:08.791Z</time></trkpt><trkpt lat="41.5184018" lon="0.2237963"><ele>322.4</ele><time>2026-05-04T10:59:09.791Z</time></trkpt><trkpt lat="41.5183906" lon="0.2239344"><ele>323.0</ele><time>2026-05-04T10:59:10.79Z</time></trkpt><trkpt lat="41.5183804" lon="0.2240671"><ele>323.0</ele><time>2026-05-04T10:59:11.791Z</time></trkpt><trkpt lat="41.5183695" lon="0.2241886"><ele>323.0</ele><time>2026-05-04T10:59:12.791Z</time></trkpt><trkpt lat="41.5183608" lon="0.2243074"><ele>323.0</ele><time>2026-05-04T10:59:13.79Z</time></trkpt><trkpt lat="41.518351" lon="0.2244258"><ele>323.0</ele><time>2026-05-04T10:59:14.791Z</time></trkpt><trkpt lat="41.5183421" lon="0.2245461"><ele>323.0</ele><time>2026-05-04T10:59:15.79Z</time></trkpt><trkpt lat="41.5183324" lon="0.2246679"><ele>323.0</ele><time>2026-05-04T10:59:16.791Z</time></trkpt><trkpt lat="41.5183217" lon="0.2247885"><ele>323.0</ele><time>2026-05-04T10:59:17.791Z</time></trkpt><trkpt lat="41.5183106" lon="0.2249085"><ele>323.0</ele><time>2026-05-04T10:59:18.791Z</time></trkpt><trkpt lat="41.5182994" lon="0.2250266"><ele>323.0</ele><time>2026-05-04T10:59:19.79Z</time></trkpt><trkpt lat="41.5182894" lon="0.2251465"><ele>323.0</ele><time>2026-05-04T10:59:20.791Z</time></trkpt><trkpt lat="41.5182802" lon="0.2252685"><ele>323.2</ele><time>2026-05-04T10:59:21.791Z</time></trkpt><trkpt lat="41.5182709" lon="0.2253887"><ele>323.4</ele><time>2026-05-04T10:59:22.79Z</time></trkpt><trkpt lat="41.5182594" lon="0.2255121"><ele>323.59999999999997</ele><time>2026-05-04T10:59:23.79Z</time></trkpt><trkpt lat="41.5182481" lon="0.2256306"><ele>323.79999999999995</ele><time>2026-05-04T10:59:24.791Z</time></trkpt><trkpt lat="41.5182393" lon="0.2257459"><ele>324.0</ele><time>2026-05-04T10:59:25.791Z</time></trkpt><trkpt lat="41.5182293" lon="0.2258656"><ele>324.79999999999995</ele><time>2026-05-04T10:59:26.791Z</time></trkpt><trkpt lat="41.5182234" lon="0.2259829"><ele>325.59999999999997</ele><time>2026-05-04T10:59:27.791Z</time></trkpt><trkpt lat="41.5182126" lon="0.2261028"><ele>326.4</ele><time>2026-05-04T10:59:28.791Z</time></trkpt><trkpt lat="41.5181987" lon="0.2262257"><ele>327.2</ele><time>2026-05-04T10:59:29.791Z</time></trkpt><trkpt lat="41.5181863" lon="0.2263462"><ele>328.0</ele><time>2026-05-04T10:59:30.79Z</time></trkpt><trkpt lat="41.5181772" lon="0.2264732"><ele>328.16666666666663</ele><time>2026-05-04T10:59:31.791Z</time></trkpt><trkpt lat="41.5181645" lon="0.2265993"><ele>328.3333333333333</ele><time>2026-05-04T10:59:32.791Z</time></trkpt><trkpt lat="41.5181554" lon="0.2267154"><ele>328.5</ele><time>2026-05-04T10:59:33.791Z</time></trkpt><trkpt lat="41.5181443" lon="0.2268352"><ele>328.6666666666667</ele><time>2026-05-04T10:59:34.79Z</time></trkpt><trkpt lat="41.5181374" lon="0.2269527"><ele>328.83333333333337</ele><time>2026-05-04T10:59:35.79Z</time></trkpt><trkpt lat="41.5181255" lon="0.2270689"><ele>329.0</ele><time>2026-05-04T10:59:36.791Z</time></trkpt><trkpt lat="41.5181151" lon="0.2271891"><ele>329.0</ele><time>2026-05-04T10:59:37.791Z</time></trkpt><trkpt lat="41.5181058" lon="0.2273092"><ele>329.0</ele><time>2026-05-04T10:59:38.791Z</time></trkpt><trkpt lat="41.5181003" lon="0.2274325"><ele>329.0</ele><time>2026-05-04T10:59:39.79Z</time></trkpt><trkpt lat="41.51809" lon="0.2275574"><ele>329.0</ele><time>2026-05-04T10:59:40.791Z</time></trkpt><trkpt lat="41.5180814" lon="0.2276806"><ele>329.0</ele><time>2026-05-04T10:59:41.791Z</time></trkpt><trkpt lat="41.5180718" lon="0.2278079"><ele>329.4</ele><time>2026-05-04T10:59:42.791Z</time></trkpt><trkpt lat="41.5180597" lon="0.2279361"><ele>329.79999999999995</ele><time>2026-05-04T10:59:43.791Z</time></trkpt><trkpt lat="41.5180491" lon="0.228065"><ele>330.20000000000005</ele><time>2026-05-04T10:59:44.791Z</time></trkpt><trkpt lat="41.5180322" lon="0.2281921"><ele>330.6</ele><time>2026-05-04T10:59:45.791Z</time></trkpt><trkpt lat="41.5180194" lon="0.2283197"><ele>331.0</ele><time>2026-05-04T10:59:46.791Z</time></trkpt><trkpt lat="41.518012" lon="0.2284487"><ele>331.6</ele><time>2026-05-04T10:59:47.791Z</time></trkpt><trkpt lat="41.5179994" lon="0.2285822"><ele>332.20000000000005</ele><time>2026-05-04T10:59:48.791Z</time></trkpt><trkpt lat="41.517991" lon="0.2287165"><ele>332.79999999999995</ele><time>2026-05-04T10:59:49.791Z</time></trkpt><trkpt lat="41.5179796" lon="0.2288545"><ele>333.4</ele><time>2026-05-04T10:59:50.791Z</time></trkpt><trkpt lat="41.5179651" lon="0.228997"><ele>334.0</ele><time>2026-05-04T10:59:51.791Z</time></trkpt><trkpt lat="41.5179525" lon="0.2291376"><ele>334.0</ele><time>2026-05-04T10:59:52.791Z</time></trkpt><trkpt lat="41.517944" lon="0.2292812"><ele>334.0</ele><time>2026-05-04T10:59:53.791Z</time></trkpt><trkpt lat="41.5179308" lon="0.2294304"><ele>334.0</ele><time>2026-05-04T10:59:54.79Z</time></trkpt><trkpt lat="41.5179173" lon="0.2295823"><ele>334.0</ele><time>2026-05-04T10:59:55.791Z</time></trkpt><trkpt lat="41.5179059" lon="0.2297323"><ele>334.0</ele><time>2026-05-04T10:59:56.791Z</time></trkpt><trkpt lat="41.5178978" lon="0.2298795"><ele>334.0</ele><time>2026-05-04T10:59:57.791Z</time></trkpt><trkpt lat="41.5178898" lon="0.2300327"><ele>334.0</ele><time>2026-05-04T10:59:58.791Z</time></trkpt><trkpt lat="41.5178761" lon="0.2301862"><ele>334.0</ele><time>2026-05-04T10:59:59.791Z</time></trkpt><trkpt lat="41.5178643" lon="0.2303454"><ele>334.0</ele><time>2026-05-04T11:00:00.791Z</time></trkpt><trkpt lat="41.5178534" lon="0.2305032"><ele>334.0</ele><time>2026-05-04T11:00:01.791Z</time></trkpt><trkpt lat="41.5178398" lon="0.2306583"><ele>334.0</ele><time>2026-05-04T11:00:02.791Z</time></trkpt><trkpt lat="41.5178201" lon="0.2308149"><ele>334.0</ele><time>2026-05-04T11:00:03.79Z</time></trkpt><trkpt lat="41.5178053" lon="0.2309754"><ele>334.0</ele><time>2026-05-04T11:00:04.791Z</time></trkpt><trkpt lat="41.5177917" lon="0.2311329"><ele>334.0</ele><time>2026-05-04T11:00:05.79Z</time></trkpt><trkpt lat="41.5177797" lon="0.2312963"><ele>334.0</ele><time>2026-05-04T11:00:06.79Z</time></trkpt><trkpt lat="41.5177662" lon="0.2314543"><ele>334.0</ele><time>2026-05-04T11:00:07.791Z</time></trkpt><trkpt lat="41.5177518" lon="0.2316173"><ele>334.0</ele><time>2026-05-04T11:00:08.791Z</time></trkpt><trkpt lat="41.5177374" lon="0.2317767"><ele>334.5</ele><time>2026-05-04T11:00:09.791Z</time></trkpt><trkpt lat="41.517725" lon="0.231939"><ele>335.0</ele><time>2026-05-04T11:00:10.791Z</time></trkpt><trkpt lat="41.5177085" lon="0.2321037"><ele>335.5</ele><time>2026-05-04T11:00:11.791Z</time></trkpt><trkpt lat="41.5176978" lon="0.2322635"><ele>336.0</ele><time>2026-05-04T11:00:12.791Z</time></trkpt><trkpt lat="41.5176869" lon="0.2324142"><ele>336.4</ele><time>2026-05-04T11:00:13.791Z</time></trkpt><trkpt lat="41.517677" lon="0.2325611"><ele>336.8</ele><time>2026-05-04T11:00:14.791Z</time></trkpt><trkpt lat="41.5176639" lon="0.2327043"><ele>337.2</ele><time>2026-05-04T11:00:15.791Z</time></trkpt><trkpt lat="41.517648" lon="0.2328472"><ele>337.59999999999997</ele><time>2026-05-04T11:00:16.791Z</time></trkpt><trkpt lat="41.5176384" lon="0.2329902"><ele>338.0</ele><time>2026-05-04T11:00:17.79Z</time></trkpt><trkpt lat="41.5176246" lon="0.2331289"><ele>338.4</ele><time>2026-05-04T11:00:18.791Z</time></trkpt><trkpt lat="41.5176136" lon="0.2332735"><ele>338.79999999999995</ele><time>2026-05-04T11:00:19.791Z</time></trkpt><trkpt lat="41.5176019" lon="0.2334206"><ele>339.2</ele><time>2026-05-04T11:00:20.79Z</time></trkpt><trkpt lat="41.5175901" lon="0.2335663"><ele>339.6</ele><time>2026-05-04T11:00:21.791Z</time></trkpt><trkpt lat="41.5175772" lon="0.2337095"><ele>340.0</ele><time>2026-05-04T11:00:22.791Z</time></trkpt><trkpt lat="41.5175648" lon="0.2338518"><ele>340.0</ele><time>2026-05-04T11:00:23.791Z</time></trkpt><trkpt lat="41.517559" lon="0.2340004"><ele>340.0</ele><time>2026-05-04T11:00:24.791Z</time></trkpt><trkpt lat="41.5175471" lon="0.2341484"><ele>340.0</ele><time>2026-05-04T11:00:25.791Z</time></trkpt><trkpt lat="41.5175342" lon="0.2342955"><ele>340.0</ele><time>2026-05-04T11:00:26.791Z</time></trkpt><trkpt lat="41.5175202" lon="0.2344402"><ele>340.0</ele><time>2026-05-04T11:00:27.791Z</time></trkpt><trkpt lat="41.5175091" lon="0.2345836"><ele>340.0</ele><time>2026-05-04T11:00:28.791Z</time></trkpt><trkpt lat="41.5174935" lon="0.2347308"><ele>340.0</ele><time>2026-05-04T11:00:29.791Z</time></trkpt><trkpt lat="41.5174833" lon="0.2348778"><ele>340.0</ele><time>2026-05-04T11:00:30.791Z</time></trkpt><trkpt lat="41.5174716" lon="0.2350324"><ele>340.0</ele><time>2026-05-04T11:00:31.791Z</time></trkpt><trkpt lat="41.5174583" lon="0.235184"><ele>340.25</ele><time>2026-05-04T11:00:32.79Z</time></trkpt><trkpt lat="41.5174437" lon="0.2353337"><ele>340.5</ele><time>2026-05-04T11:00:33.791Z</time></trkpt><trkpt lat="41.5174345" lon="0.2354868"><ele>340.75</ele><time>2026-05-04T11:00:34.791Z</time></trkpt><trkpt lat="41.5174218" lon="0.2356402"><ele>341.0</ele><time>2026-05-04T11:00:35.791Z</time></trkpt><trkpt lat="41.5174036" lon="0.2357969"><ele>341.5</ele><time>2026-05-04T11:00:36.79Z</time></trkpt><trkpt lat="41.5173896" lon="0.2359494"><ele>342.0</ele><time>2026-05-04T11:00:37.791Z</time></trkpt><trkpt lat="41.5173788" lon="0.2360987"><ele>342.5</ele><time>2026-05-04T11:00:38.791Z</time></trkpt><trkpt lat="41.5173694" lon="0.2362542"><ele>343.0</ele><time>2026-05-04T11:00:39.791Z</time></trkpt><trkpt lat="41.5173566" lon="0.2364102"><ele>343.0</ele><time>2026-05-04T11:00:40.791Z</time></trkpt><trkpt lat="41.5173432" lon="0.2365679"><ele>343.0</ele><time>2026-05-04T11:00:41.791Z</time></trkpt><trkpt lat="41.5173311" lon="0.2367242"><ele>343.0</ele><time>2026-05-04T11:00:42.791Z</time></trkpt><trkpt lat="41.5173147" lon="0.2368829"><ele>343.0</ele><time>2026-05-04T11:00:43.791Z</time></trkpt><trkpt lat="41.5173027" lon="0.2370392"><ele>343.0</ele><time>2026-05-04T11:00:44.791Z</time></trkpt><trkpt lat="41.517289" lon="0.2372003"><ele>343.0</ele><time>2026-05-04T11:00:45.791Z</time></trkpt><trkpt lat="41.5172749" lon="0.2373596"><ele>343.0</ele><time>2026-05-04T11:00:46.79Z</time></trkpt><trkpt lat="41.5172623" lon="0.237522"><ele>343.0</ele><time>2026-05-04T11:00:47.791Z</time></trkpt><trkpt lat="41.5172449" lon="0.2376788"><ele>343.25</ele><time>2026-05-04T11:00:48.791Z</time></trkpt><trkpt lat="41.5172303" lon="0.2378404"><ele>343.5</ele><time>2026-05-04T11:00:49.79Z</time></trkpt><trkpt lat="41.517217" lon="0.2380051"><ele>343.75</ele><time>2026-05-04T11:00:50.791Z</time></trkpt><trkpt lat="41.5172035" lon="0.238169"><ele>344.0</ele><time>2026-05-04T11:00:51.79Z</time></trkpt><trkpt lat="41.517188" lon="0.2383371"><ele>344.5</ele><time>2026-05-04T11:00:52.791Z</time></trkpt><trkpt lat="41.5171724" lon="0.2385066"><ele>345.0</ele><time>2026-05-04T11:00:53.791Z</time></trkpt><trkpt lat="41.5171571" lon="0.2386775"><ele>345.5</ele><time>2026-05-04T11:00:54.791Z</time></trkpt><trkpt lat="41.5171434" lon="0.2388519"><ele>346.0</ele><time>2026-05-04T11:00:55.791Z</time></trkpt><trkpt lat="41.5171303" lon="0.2390303"><ele>346.25</ele><time>2026-05-04T11:00:56.79Z</time></trkpt><trkpt lat="41.5171172" lon="0.2392046"><ele>346.5</ele><time>2026-05-04T11:00:57.791Z</time></trkpt><trkpt lat="41.5171009" lon="0.2393856"><ele>346.75</ele><time>2026-05-04T11:00:58.791Z</time></trkpt><trkpt lat="41.517081" lon="0.2395634"><ele>347.0</ele><time>2026-05-04T11:00:59.791Z</time></trkpt><trkpt lat="41.5170664" lon="0.2397462"><ele>347.0</ele><time>2026-05-04T11:01:00.791Z</time></trkpt><trkpt lat="41.5170526" lon="0.2399223"><ele>347.0</ele><time>2026-05-04T11:01:01.791Z</time></trkpt><trkpt lat="41.517042" lon="0.2401037"><ele>347.0</ele><time>2026-05-04T11:01:02.791Z</time></trkpt><trkpt lat="41.5170298" lon="0.2402832"><ele>347.0</ele><time>2026-05-04T11:01:03.791Z</time></trkpt><trkpt lat="41.5170183" lon="0.2404618"><ele>347.25</ele><time>2026-05-04T11:01:04.791Z</time></trkpt><trkpt lat="41.5170042" lon="0.2406344"><ele>347.5</ele><time>2026-05-04T11:01:05.791Z</time></trkpt><trkpt lat="41.5169907" lon="0.2408055"><ele>347.75</ele><time>2026-05-04T11:01:06.791Z</time></trkpt><trkpt lat="41.5169745" lon="0.2409796"><ele>348.0</ele><time>2026-05-04T11:01:07.791Z</time></trkpt><trkpt lat="41.5169588" lon="0.2411521"><ele>348.0</ele><time>2026-05-04T11:01:08.791Z</time></trkpt><trkpt lat="41.5169463" lon="0.2413242"><ele>348.0</ele><time>2026-05-04T11:01:09.791Z</time></trkpt><trkpt lat="41.5169328" lon="0.2414954"><ele>348.0</ele><time>2026-05-04T11:01:10.791Z</time></trkpt><trkpt lat="41.5169183" lon="0.2416664"><ele>348.0</ele><time>2026-05-04T11:01:11.791Z</time></trkpt><trkpt lat="41.5169053" lon="0.241828"><ele>348.5</ele><time>2026-05-04T11:01:12.791Z</time></trkpt><trkpt lat="41.5168908" lon="0.241996"><ele>349.0</ele><time>2026-05-04T11:01:13.79Z</time></trkpt><trkpt lat="41.5168731" lon="0.242166"><ele>349.5</ele><time>2026-05-04T11:01:14.791Z</time></trkpt><trkpt lat="41.5168599" lon="0.242338"><ele>350.0</ele><time>2026-05-04T11:01:15.791Z</time></trkpt><trkpt lat="41.5168495" lon="0.2425092"><ele>350.25</ele><time>2026-05-04T11:01:16.791Z</time></trkpt><trkpt lat="41.5168385" lon="0.2426845"><ele>350.5</ele><time>2026-05-04T11:01:17.79Z</time></trkpt><trkpt lat="41.516824" lon="0.2428598"><ele>350.75</ele><time>2026-05-04T11:01:18.791Z</time></trkpt><trkpt lat="41.5168078" lon="0.2430401"><ele>351.0</ele><time>2026-05-04T11:01:19.791Z</time></trkpt><trkpt lat="41.5167921" lon="0.2432183"><ele>351.5</ele><time>2026-05-04T11:01:20.791Z</time></trkpt><trkpt lat="41.5167746" lon="0.2434007"><ele>352.0</ele><time>2026-05-04T11:01:21.791Z</time></trkpt><trkpt lat="41.5167599" lon="0.2435816"><ele>352.5</ele><time>2026-05-04T11:01:22.791Z</time></trkpt><trkpt lat="41.5167426" lon="0.2437606"><ele>353.0</ele><time>2026-05-04T11:01:23.791Z</time></trkpt><trkpt lat="41.5167286" lon="0.2439429"><ele>352.75</ele><time>2026-05-04T11:01:24.79Z</time></trkpt><trkpt lat="41.5167118" lon="0.2441259"><ele>352.5</ele><time>2026-05-04T11:01:25.791Z</time></trkpt><trkpt lat="41.5166969" lon="0.2443057"><ele>352.25</ele><time>2026-05-04T11:01:26.791Z</time></trkpt><trkpt lat="41.5166835" lon="0.2444865"><ele>352.0</ele><time>2026-05-04T11:01:27.79Z</time></trkpt><trkpt lat="41.5166675" lon="0.2446745"><ele>352.25</ele><time>2026-05-04T11:01:28.791Z</time></trkpt><trkpt lat="41.5166531" lon="0.2448673"><ele>352.5</ele><time>2026-05-04T11:01:29.791Z</time></trkpt><trkpt lat="41.5166361" lon="0.2450502"><ele>352.75</ele><time>2026-05-04T11:01:30.791Z</time></trkpt><trkpt lat="41.5166203" lon="0.2452319"><ele>353.0</ele><time>2026-05-04T11:01:31.791Z</time></trkpt><trkpt lat="41.5166076" lon="0.2454153"><ele>353.0</ele><time>2026-05-04T11:01:32.79Z</time></trkpt><trkpt lat="41.5165953" lon="0.2456012"><ele>353.0</ele><time>2026-05-04T11:01:33.792Z</time></trkpt><trkpt lat="41.5165825" lon="0.2457891"><ele>353.0</ele><time>2026-05-04T11:01:34.792Z</time></trkpt><trkpt lat="41.516563" lon="0.245977"><ele>353.0</ele><time>2026-05-04T11:01:35.792Z</time></trkpt><trkpt lat="41.5165443" lon="0.2461643"><ele>353.25</ele><time>2026-05-04T11:01:36.792Z</time></trkpt><trkpt lat="41.5165274" lon="0.2463513"><ele>353.5</ele><time>2026-05-04T11:01:37.791Z</time></trkpt><trkpt lat="41.5165125" lon="0.2465391"><ele>353.75</ele><time>2026-05-04T11:01:38.792Z</time></trkpt><trkpt lat="41.5164902" lon="0.2467301"><ele>354.0</ele><time>2026-05-04T11:01:39.792Z</time></trkpt><trkpt lat="41.5164748" lon="0.2469159"><ele>354.0</ele><time>2026-05-04T11:01:40.792Z</time></trkpt><trkpt lat="41.5164573" lon="0.2471031"><ele>354.0</ele><time>2026-05-04T11:01:41.791Z</time></trkpt><trkpt lat="41.516443" lon="0.2472909"><ele>354.0</ele><time>2026-05-04T11:01:42.792Z</time></trkpt><trkpt lat="41.5164269" lon="0.2474769"><ele>354.0</ele><time>2026-05-04T11:01:43.792Z</time></trkpt><trkpt lat="41.516415" lon="0.2476648"><ele>354.0</ele><time>2026-05-04T11:01:44.791Z</time></trkpt><trkpt lat="41.5164015" lon="0.2478531"><ele>354.0</ele><time>2026-05-04T11:01:45.791Z</time></trkpt><trkpt lat="41.516388" lon="0.2480423"><ele>354.0</ele><time>2026-05-04T11:01:46.792Z</time></trkpt><trkpt lat="41.5163733" lon="0.2482327"><ele>354.0</ele><time>2026-05-04T11:01:47.792Z</time></trkpt><trkpt lat="41.5163595" lon="0.2484243"><ele>354.5</ele><time>2026-05-04T11:01:48.792Z</time></trkpt><trkpt lat="41.5163436" lon="0.2486089"><ele>355.0</ele><time>2026-05-04T11:01:49.792Z</time></trkpt><trkpt lat="41.5163284" lon="0.2488017"><ele>355.5</ele><time>2026-05-04T11:01:50.792Z</time></trkpt><trkpt lat="41.5163111" lon="0.2489878"><ele>356.0</ele><time>2026-05-04T11:01:51.792Z</time></trkpt><trkpt lat="41.516295" lon="0.2491818"><ele>356.25</ele><time>2026-05-04T11:01:52.792Z</time></trkpt><trkpt lat="41.5162816" lon="0.2493754"><ele>356.5</ele><time>2026-05-04T11:01:53.792Z</time></trkpt><trkpt lat="41.5162665" lon="0.2495614"><ele>356.75</ele><time>2026-05-04T11:01:54.792Z</time></trkpt><trkpt lat="41.5162545" lon="0.249744"><ele>357.0</ele><time>2026-05-04T11:01:55.792Z</time></trkpt><trkpt lat="41.5162387" lon="0.2499327"><ele>357.25</ele><time>2026-05-04T11:01:56.792Z</time></trkpt><trkpt lat="41.5162232" lon="0.2501225"><ele>357.5</ele><time>2026-05-04T11:01:57.792Z</time></trkpt><trkpt lat="41.5162056" lon="0.250308"><ele>357.75</ele><time>2026-05-04T11:01:58.792Z</time></trkpt><trkpt lat="41.5161867" lon="0.2505004"><ele>358.0</ele><time>2026-05-04T11:01:59.792Z</time></trkpt><trkpt lat="41.51617" lon="0.2506893"><ele>358.25</ele><time>2026-05-04T11:02:00.792Z</time></trkpt><trkpt lat="41.5161523" lon="0.2508803"><ele>358.5</ele><time>2026-05-04T11:02:01.792Z</time></trkpt><trkpt lat="41.5161342" lon="0.2510686"><ele>358.75</ele><time>2026-05-04T11:02:02.792Z</time></trkpt><trkpt lat="41.5161184" lon="0.2512587"><ele>359.0</ele><time>2026-05-04T11:02:03.792Z</time></trkpt><trkpt lat="41.5161018" lon="0.2514483"><ele>359.0</ele><time>2026-05-04T11:02:04.792Z</time></trkpt><trkpt lat="41.5160872" lon="0.2516368"><ele>359.0</ele><time>2026-05-04T11:02:05.792Z</time></trkpt><trkpt lat="41.5160738" lon="0.2518319"><ele>359.0</ele><time>2026-05-04T11:02:06.792Z</time></trkpt><trkpt lat="41.5160555" lon="0.2520292"><ele>359.0</ele><time>2026-05-04T11:02:07.791Z</time></trkpt><trkpt lat="41.5160365" lon="0.2522263"><ele>359.25</ele><time>2026-05-04T11:02:08.792Z</time></trkpt><trkpt lat="41.516021" lon="0.2524251"><ele>359.5</ele><time>2026-05-04T11:02:09.791Z</time></trkpt><trkpt lat="41.5160035" lon="0.2526245"><ele>359.75</ele><time>2026-05-04T11:02:10.792Z</time></trkpt><trkpt lat="41.5159844" lon="0.2528186"><ele>360.0</ele><time>2026-05-04T11:02:11.791Z</time></trkpt><trkpt lat="41.5159613" lon="0.2530156"><ele>360.25</ele><time>2026-05-04T11:02:12.792Z</time></trkpt><trkpt lat="41.5159452" lon="0.2532145"><ele>360.5</ele><time>2026-05-04T11:02:13.792Z</time></trkpt><trkpt lat="41.5159253" lon="0.2534154"><ele>360.75</ele><time>2026-05-04T11:02:14.792Z</time></trkpt><trkpt lat="41.5159079" lon="0.2536112"><ele>361.0</ele><time>2026-05-04T11:02:15.792Z</time></trkpt><trkpt lat="41.5158921" lon="0.2538124"><ele>361.0</ele><time>2026-05-04T11:02:16.792Z</time></trkpt><trkpt lat="41.5158739" lon="0.2540096"><ele>361.0</ele><time>2026-05-04T11:02:17.791Z</time></trkpt><trkpt lat="41.5158497" lon="0.2542064"><ele>361.0</ele><time>2026-05-04T11:02:18.792Z</time></trkpt><trkpt lat="41.5158288" lon="0.2544037"><ele>361.0</ele><time>2026-05-04T11:02:19.792Z</time></trkpt><trkpt lat="41.5158034" lon="0.2545994"><ele>361.0</ele><time>2026-05-04T11:02:20.792Z</time></trkpt><trkpt lat="41.5157807" lon="0.2548021"><ele>361.0</ele><time>2026-05-04T11:02:21.791Z</time></trkpt><trkpt lat="41.5157606" lon="0.2550011"><ele>361.0</ele><time>2026-05-04T11:02:22.791Z</time></trkpt><trkpt lat="41.5157459" lon="0.255205"><ele>361.0</ele><time>2026-05-04T11:02:23.792Z</time></trkpt><trkpt lat="41.5157271" lon="0.2554091"><ele>361.0</ele><time>2026-05-04T11:02:24.792Z</time></trkpt><trkpt lat="41.5157073" lon="0.2556048"><ele>361.0</ele><time>2026-05-04T11:02:25.792Z</time></trkpt><trkpt lat="41.5156866" lon="0.255806"><ele>361.3333333333333</ele><time>2026-05-04T11:02:26.792Z</time></trkpt><trkpt lat="41.5156639" lon="0.2560071"><ele>361.6666666666667</ele><time>2026-05-04T11:02:27.792Z</time></trkpt><trkpt lat="41.5156427" lon="0.2562096"><ele>362.0</ele><time>2026-05-04T11:02:28.792Z</time></trkpt><trkpt lat="41.5156222" lon="0.2564134"><ele>362.33333333333337</ele><time>2026-05-04T11:02:29.792Z</time></trkpt><trkpt lat="41.5155995" lon="0.2566148"><ele>362.6666666666667</ele><time>2026-05-04T11:02:30.792Z</time></trkpt><trkpt lat="41.515579" lon="0.2568213"><ele>363.0</ele><time>2026-05-04T11:02:31.792Z</time></trkpt><trkpt lat="41.5155605" lon="0.257021"><ele>363.0</ele><time>2026-05-04T11:02:32.792Z</time></trkpt><trkpt lat="41.5155373" lon="0.2572197"><ele>363.0</ele><time>2026-05-04T11:02:33.792Z</time></trkpt><trkpt lat="41.5155116" lon="0.2574184"><ele>363.0</ele><time>2026-05-04T11:02:34.792Z</time></trkpt><trkpt lat="41.5154916" lon="0.2576218"><ele>363.0</ele><time>2026-05-04T11:02:35.792Z</time></trkpt><trkpt lat="41.5154691" lon="0.2578253"><ele>363.0</ele><time>2026-05-04T11:02:36.791Z</time></trkpt><trkpt lat="41.515449" lon="0.2580286"><ele>363.0</ele><time>2026-05-04T11:02:37.792Z</time></trkpt><trkpt lat="41.5154253" lon="0.2582321"><ele>363.3333333333333</ele><time>2026-05-04T11:02:38.792Z</time></trkpt><trkpt lat="41.515407" lon="0.2584334"><ele>363.66666666666663</ele><time>2026-05-04T11:02:39.792Z</time></trkpt><trkpt lat="41.5153861" lon="0.258634"><ele>364.0</ele><time>2026-05-04T11:02:40.792Z</time></trkpt><trkpt lat="41.5153704" lon="0.2588314"><ele>364.0</ele><time>2026-05-04T11:02:41.792Z</time></trkpt><trkpt lat="41.5153508" lon="0.2590273"><ele>364.0</ele><time>2026-05-04T11:02:42.792Z</time></trkpt><trkpt lat="41.5153264" lon="0.2592302"><ele>364.0</ele><time>2026-05-04T11:02:43.792Z</time></trkpt><trkpt lat="41.5153042" lon="0.2594275"><ele>364.0</ele><time>2026-05-04T11:02:44.792Z</time></trkpt><trkpt lat="41.5152831" lon="0.2596231"><ele>364.0</ele><time>2026-05-04T11:02:45.792Z</time></trkpt><trkpt lat="41.5152621" lon="0.2598169"><ele>364.0</ele><time>2026-05-04T11:02:46.792Z</time></trkpt><trkpt lat="41.5152401" lon="0.2600159"><ele>364.0</ele><time>2026-05-04T11:02:47.792Z</time></trkpt><trkpt lat="41.5152176" lon="0.260207"><ele>364.0</ele><time>2026-05-04T11:02:48.792Z</time></trkpt><trkpt lat="41.5151989" lon="0.2604001"><ele>364.0</ele><time>2026-05-04T11:02:49.792Z</time></trkpt><trkpt lat="41.5151798" lon="0.2605919"><ele>364.0</ele><time>2026-05-04T11:02:50.791Z</time></trkpt><trkpt lat="41.5151581" lon="0.2607832"><ele>364.0</ele><time>2026-05-04T11:02:51.792Z</time></trkpt><trkpt lat="41.5151399" lon="0.2609784"><ele>364.5</ele><time>2026-05-04T11:02:52.792Z</time></trkpt><trkpt lat="41.5151193" lon="0.2611765"><ele>365.0</ele><time>2026-05-04T11:02:53.792Z</time></trkpt><trkpt lat="41.5150989" lon="0.2613694"><ele>365.5</ele><time>2026-05-04T11:02:54.791Z</time></trkpt><trkpt lat="41.5150774" lon="0.2615627"><ele>366.0</ele><time>2026-05-04T11:02:55.792Z</time></trkpt><trkpt lat="41.5150604" lon="0.2617601"><ele>366.0</ele><time>2026-05-04T11:02:56.791Z</time></trkpt><trkpt lat="41.5150378" lon="0.2619491"><ele>366.0</ele><time>2026-05-04T11:02:57.792Z</time></trkpt><trkpt lat="41.5150184" lon="0.2621458"><ele>366.0</ele><time>2026-05-04T11:02:58.791Z</time></trkpt><trkpt lat="41.5150003" lon="0.2623407"><ele>366.0</ele><time>2026-05-04T11:02:59.792Z</time></trkpt><trkpt lat="41.5149861" lon="0.2625292"><ele>366.25</ele><time>2026-05-04T11:03:00.792Z</time></trkpt><trkpt lat="41.5149665" lon="0.2627186"><ele>366.5</ele><time>2026-05-04T11:03:01.792Z</time></trkpt><trkpt lat="41.5149484" lon="0.2629097"><ele>366.75</ele><time>2026-05-04T11:03:02.792Z</time></trkpt><trkpt lat="41.5149299" lon="0.2630978"><ele>367.0</ele><time>2026-05-04T11:03:03.792Z</time></trkpt><trkpt lat="41.5149098" lon="0.2632844"><ele>367.25</ele><time>2026-05-04T11:03:04.791Z</time></trkpt><trkpt lat="41.5148899" lon="0.2634736"><ele>367.5</ele><time>2026-05-04T11:03:05.791Z</time></trkpt><trkpt lat="41.5148687" lon="0.2636611"><ele>367.75</ele><time>2026-05-04T11:03:06.792Z</time></trkpt><trkpt lat="41.5148496" lon="0.2638476"><ele>368.0</ele><time>2026-05-04T11:03:07.792Z</time></trkpt><trkpt lat="41.5148291" lon="0.2640413"><ele>368.25</ele><time>2026-05-04T11:03:08.792Z</time></trkpt><trkpt lat="41.5148094" lon="0.2642282"><ele>368.5</ele><time>2026-05-04T11:03:09.792Z</time></trkpt><trkpt lat="41.5147921" lon="0.2644168"><ele>368.75</ele><time>2026-05-04T11:03:10.792Z</time></trkpt><trkpt lat="41.5147711" lon="0.2646084"><ele>369.0</ele><time>2026-05-04T11:03:11.791Z</time></trkpt><trkpt lat="41.5147519" lon="0.2647975"><ele>369.25</ele><time>2026-05-04T11:03:12.792Z</time></trkpt><trkpt lat="41.5147328" lon="0.2649839"><ele>369.5</ele><time>2026-05-04T11:03:13.791Z</time></trkpt><trkpt lat="41.5147091" lon="0.2651794"><ele>369.75</ele><time>2026-05-04T11:03:14.792Z</time></trkpt><trkpt lat="41.5146879" lon="0.2653707"><ele>370.0</ele><time>2026-05-04T11:03:15.792Z</time></trkpt><trkpt lat="41.5146681" lon="0.2655592"><ele>370.5</ele><time>2026-05-04T11:03:16.791Z</time></trkpt><trkpt lat="41.5146473" lon="0.2657541"><ele>371.0</ele><time>2026-05-04T11:03:17.792Z</time></trkpt><trkpt lat="41.514627" lon="0.2659396"><ele>371.5</ele><time>2026-05-04T11:03:18.792Z</time></trkpt><trkpt lat="41.5146025" lon="0.2661346"><ele>372.0</ele><time>2026-05-04T11:03:19.791Z</time></trkpt><trkpt lat="41.5145834" lon="0.2663299"><ele>371.75</ele><time>2026-05-04T11:03:20.791Z</time></trkpt><trkpt lat="41.5145671" lon="0.2665192"><ele>371.5</ele><time>2026-05-04T11:03:21.791Z</time></trkpt><trkpt lat="41.5145493" lon="0.2667178"><ele>371.25</ele><time>2026-05-04T11:03:22.791Z</time></trkpt><trkpt lat="41.5145332" lon="0.2669059"><ele>371.0</ele><time>2026-05-04T11:03:23.792Z</time></trkpt><trkpt lat="41.5145154" lon="0.2670967"><ele>371.0</ele><time>2026-05-04T11:03:24.792Z</time></trkpt><trkpt lat="41.5144944" lon="0.2672834"><ele>371.0</ele><time>2026-05-04T11:03:25.792Z</time></trkpt><trkpt lat="41.5144755" lon="0.2674736"><ele>371.0</ele><time>2026-05-04T11:03:26.792Z</time></trkpt><trkpt lat="41.5144584" lon="0.2676665"><ele>371.0</ele><time>2026-05-04T11:03:27.792Z</time></trkpt><trkpt lat="41.5144392" lon="0.2678548"><ele>371.0</ele><time>2026-05-04T11:03:28.792Z</time></trkpt><trkpt lat="41.5144178" lon="0.2680386"><ele>371.0</ele><time>2026-05-04T11:03:29.792Z</time></trkpt><trkpt lat="41.5143966" lon="0.2682238"><ele>371.0</ele><time>2026-05-04T11:03:30.792Z</time></trkpt><trkpt lat="41.5143789" lon="0.2684074"><ele>371.0</ele><time>2026-05-04T11:03:31.792Z</time></trkpt><trkpt lat="41.514359" lon="0.2685944"><ele>371.25</ele><time>2026-05-04T11:03:32.792Z</time></trkpt><trkpt lat="41.5143413" lon="0.2687841"><ele>371.5</ele><time>2026-05-04T11:03:33.792Z</time></trkpt><trkpt lat="41.5143222" lon="0.2689761"><ele>371.75</ele><time>2026-05-04T11:03:34.792Z</time></trkpt><trkpt lat="41.5143078" lon="0.269161"><ele>372.0</ele><time>2026-05-04T11:03:35.792Z</time></trkpt><trkpt lat="41.5142928" lon="0.26935"><ele>372.25</ele><time>2026-05-04T11:03:36.792Z</time></trkpt><trkpt lat="41.5142731" lon="0.2695396"><ele>372.5</ele><time>2026-05-04T11:03:37.792Z</time></trkpt><trkpt lat="41.514253" lon="0.2697249"><ele>372.75</ele><time>2026-05-04T11:03:38.792Z</time></trkpt><trkpt lat="41.5142363" lon="0.2699151"><ele>373.0</ele><time>2026-05-04T11:03:39.792Z</time></trkpt><trkpt lat="41.5142164" lon="0.2701066"><ele>373.0</ele><time>2026-05-04T11:03:40.792Z</time></trkpt><trkpt lat="41.514194" lon="0.2702932"><ele>373.0</ele><time>2026-05-04T11:03:41.791Z</time></trkpt><trkpt lat="41.5141698" lon="0.2704895"><ele>373.0</ele><time>2026-05-04T11:03:42.792Z</time></trkpt><trkpt lat="41.5141475" lon="0.2706878"><ele>373.0</ele><time>2026-05-04T11:03:43.792Z</time></trkpt><trkpt lat="41.5141259" lon="0.2708843"><ele>373.0</ele><time>2026-05-04T11:03:44.792Z</time></trkpt><trkpt lat="41.5141014" lon="0.2710875"><ele>373.0</ele><time>2026-05-04T11:03:45.792Z</time></trkpt><trkpt lat="41.5140785" lon="0.2712857"><ele>373.0</ele><time>2026-05-04T11:03:46.792Z</time></trkpt><trkpt lat="41.5140546" lon="0.2714898"><ele>372.66666666666663</ele><time>2026-05-04T11:03:47.792Z</time></trkpt><trkpt lat="41.5140354" lon="0.2716942"><ele>372.3333333333333</ele><time>2026-05-04T11:03:48.792Z</time></trkpt><trkpt lat="41.5140098" lon="0.271898"><ele>372.0</ele><time>2026-05-04T11:03:49.792Z</time></trkpt><trkpt lat="41.5139839" lon="0.2720933"><ele>371.3333333333333</ele><time>2026-05-04T11:03:50.792Z</time></trkpt><trkpt lat="41.5139529" lon="0.2722943"><ele>370.66666666666663</ele><time>2026-05-04T11:03:51.791Z</time></trkpt><trkpt lat="41.5139174" lon="0.2725012"><ele>370.0</ele><time>2026-05-04T11:03:52.792Z</time></trkpt><trkpt lat="41.5138873" lon="0.2727062"><ele>370.0</ele><time>2026-05-04T11:03:53.792Z</time></trkpt><trkpt lat="41.5138493" lon="0.2729114"><ele>370.0</ele><time>2026-05-04T11:03:54.792Z</time></trkpt><trkpt lat="41.5138125" lon="0.2731171"><ele>370.0</ele><time>2026-05-04T11:03:55.792Z</time></trkpt><trkpt lat="41.5137755" lon="0.2733178"><ele>368.3333333333333</ele><time>2026-05-04T11:03:56.792Z</time></trkpt><trkpt lat="41.5137375" lon="0.273518"><ele>366.6666666666667</ele><time>2026-05-04T11:03:57.793Z</time></trkpt><trkpt lat="41.513694" lon="0.2737173"><ele>365.0</ele><time>2026-05-04T11:03:58.792Z</time></trkpt><trkpt lat="41.5136488" lon="0.2739115"><ele>362.0</ele><time>2026-05-04T11:03:59.793Z</time></trkpt><trkpt lat="41.5136024" lon="0.2741048"><ele>359.0</ele><time>2026-05-04T11:04:00.793Z</time></trkpt><trkpt lat="41.513557" lon="0.2743026"><ele>356.0</ele><time>2026-05-04T11:04:01.793Z</time></trkpt><trkpt lat="41.5135116" lon="0.2745018"><ele>356.0</ele><time>2026-05-04T11:04:02.793Z</time></trkpt><trkpt lat="41.5134656" lon="0.2746989"><ele>356.0</ele><time>2026-05-04T11:04:03.793Z</time></trkpt><trkpt lat="41.5134201" lon="0.2748968"><ele>356.0</ele><time>2026-05-04T11:04:04.793Z</time></trkpt><trkpt lat="41.5133675" lon="0.2750938"><ele>354.33333333333337</ele><time>2026-05-04T11:04:05.793Z</time></trkpt><trkpt lat="41.513316" lon="0.2752919"><ele>352.6666666666667</ele><time>2026-05-04T11:04:06.793Z</time></trkpt><trkpt lat="41.5132682" lon="0.275486"><ele>351.0</ele><time>2026-05-04T11:04:07.792Z</time></trkpt><trkpt lat="41.513224" lon="0.2756784"><ele>350.6666666666667</ele><time>2026-05-04T11:04:08.793Z</time></trkpt><trkpt lat="41.5131783" lon="0.2758738"><ele>350.33333333333337</ele><time>2026-05-04T11:04:09.792Z</time></trkpt><trkpt lat="41.5131385" lon="0.2760632"><ele>350.0</ele><time>2026-05-04T11:04:10.792Z</time></trkpt><trkpt lat="41.5130994" lon="0.2762633"><ele>350.6666666666667</ele><time>2026-05-04T11:04:11.793Z</time></trkpt><trkpt lat="41.5130602" lon="0.2764596"><ele>351.3333333333333</ele><time>2026-05-04T11:04:12.793Z</time></trkpt><trkpt lat="41.5130247" lon="0.2766648"><ele>352.0</ele><time>2026-05-04T11:04:13.793Z</time></trkpt><trkpt lat="41.5129891" lon="0.2768714"><ele>352.0</ele><time>2026-05-04T11:04:14.793Z</time></trkpt><trkpt lat="41.5129569" lon="0.277072"><ele>352.0</ele><time>2026-05-04T11:04:15.793Z</time></trkpt><trkpt lat="41.5129286" lon="0.2772718"><ele>352.0</ele><time>2026-05-04T11:04:16.792Z</time></trkpt><trkpt lat="41.512903" lon="0.2774718"><ele>349.25</ele><time>2026-05-04T11:04:17.793Z</time></trkpt><trkpt lat="41.512872" lon="0.2776666"><ele>346.5</ele><time>2026-05-04T11:04:18.793Z</time></trkpt><trkpt lat="41.5128458" lon="0.2778638"><ele>343.75</ele><time>2026-05-04T11:04:19.793Z</time></trkpt><trkpt lat="41.5128238" lon="0.2780526"><ele>341.0</ele><time>2026-05-04T11:04:20.793Z</time></trkpt><trkpt lat="41.512801" lon="0.2782362"><ele>340.5</ele><time>2026-05-04T11:04:21.793Z</time></trkpt><trkpt lat="41.5127786" lon="0.2784208"><ele>340.0</ele><time>2026-05-04T11:04:22.793Z</time></trkpt><trkpt lat="41.5127623" lon="0.2786115"><ele>339.5</ele><time>2026-05-04T11:04:23.792Z</time></trkpt><trkpt lat="41.5127451" lon="0.2787918"><ele>339.0</ele><time>2026-05-04T11:04:24.792Z</time></trkpt><trkpt lat="41.5127333" lon="0.2789685"><ele>338.5</ele><time>2026-05-04T11:04:25.792Z</time></trkpt><trkpt lat="41.5127208" lon="0.2791453"><ele>338.0</ele><time>2026-05-04T11:04:26.793Z</time></trkpt><trkpt lat="41.5127076" lon="0.2793205"><ele>337.5</ele><time>2026-05-04T11:04:27.793Z</time></trkpt><trkpt lat="41.5126987" lon="0.2794935"><ele>337.0</ele><time>2026-05-04T11:04:28.793Z</time></trkpt><trkpt lat="41.5126916" lon="0.2796635"><ele>337.5</ele><time>2026-05-04T11:04:29.792Z</time></trkpt><trkpt lat="41.5126855" lon="0.2798371"><ele>338.0</ele><time>2026-05-04T11:04:30.792Z</time></trkpt><trkpt lat="41.5126765" lon="0.280008"><ele>338.5</ele><time>2026-05-04T11:04:31.793Z</time></trkpt><trkpt lat="41.5126684" lon="0.2801841"><ele>339.0</ele><time>2026-05-04T11:04:32.793Z</time></trkpt><trkpt lat="41.512662" lon="0.2803629"><ele>339.0</ele><time>2026-05-04T11:04:33.793Z</time></trkpt><trkpt lat="41.5126578" lon="0.2805369"><ele>339.0</ele><time>2026-05-04T11:04:34.793Z</time></trkpt><trkpt lat="41.5126576" lon="0.2807125"><ele>339.0</ele><time>2026-05-04T11:04:35.792Z</time></trkpt><trkpt lat="41.5126595" lon="0.2808895"><ele>339.0</ele><time>2026-05-04T11:04:36.793Z</time></trkpt><trkpt lat="41.5126652" lon="0.2810678"><ele>337.5</ele><time>2026-05-04T11:04:37.793Z</time></trkpt><trkpt lat="41.5126708" lon="0.2812458"><ele>336.0</ele><time>2026-05-04T11:04:38.793Z</time></trkpt><trkpt lat="41.5126734" lon="0.2814239"><ele>334.5</ele><time>2026-05-04T11:04:39.793Z</time></trkpt><trkpt lat="41.5126778" lon="0.2816068"><ele>333.0</ele><time>2026-05-04T11:04:40.793Z</time></trkpt><trkpt lat="41.5126822" lon="0.2817892"><ele>330.5</ele><time>2026-05-04T11:04:41.793Z</time></trkpt><trkpt lat="41.5126892" lon="0.2819717"><ele>328.0</ele><time>2026-05-04T11:04:42.793Z</time></trkpt><trkpt lat="41.5126918" lon="0.2821513"><ele>325.5</ele><time>2026-05-04T11:04:43.793Z</time></trkpt><trkpt lat="41.5126969" lon="0.2823318"><ele>323.0</ele><time>2026-05-04T11:04:44.793Z</time></trkpt><trkpt lat="41.5127053" lon="0.282509"><ele>320.0</ele><time>2026-05-04T11:04:45.793Z</time></trkpt><trkpt lat="41.5127096" lon="0.2826871"><ele>317.0</ele><time>2026-05-04T11:04:46.793Z</time></trkpt><trkpt lat="41.5127198" lon="0.2828656"><ele>314.0</ele><time>2026-05-04T11:04:47.793Z</time></trkpt><trkpt lat="41.5127246" lon="0.2830509"><ele>311.0</ele><time>2026-05-04T11:04:48.793Z</time></trkpt><trkpt lat="41.5127331" lon="0.2832316"><ele>308.25</ele><time>2026-05-04T11:04:49.793Z</time></trkpt><trkpt lat="41.5127379" lon="0.2834121"><ele>305.5</ele><time>2026-05-04T11:04:50.793Z</time></trkpt><trkpt lat="41.5127412" lon="0.2835921"><ele>302.75</ele><time>2026-05-04T11:04:51.792Z</time></trkpt><trkpt lat="41.5127462" lon="0.2837692"><ele>300.0</ele><time>2026-05-04T11:04:52.793Z</time></trkpt><trkpt lat="41.512753" lon="0.2839456"><ele>297.25</ele><time>2026-05-04T11:04:53.793Z</time></trkpt><trkpt lat="41.5127574" lon="0.2841236"><ele>294.5</ele><time>2026-05-04T11:04:54.793Z</time></trkpt><trkpt lat="41.5127611" lon="0.2843038"><ele>291.75</ele><time>2026-05-04T11:04:55.793Z</time></trkpt><trkpt lat="41.5127636" lon="0.2844851"><ele>289.0</ele><time>2026-05-04T11:04:56.793Z</time></trkpt><trkpt lat="41.5127696" lon="0.2846663"><ele>286.75</ele><time>2026-05-04T11:04:57.793Z</time></trkpt><trkpt lat="41.5127723" lon="0.2848584"><ele>284.5</ele><time>2026-05-04T11:04:58.793Z</time></trkpt><trkpt lat="41.5127767" lon="0.2850506"><ele>282.25</ele><time>2026-05-04T11:04:59.793Z</time></trkpt><trkpt lat="41.5127809" lon="0.2852463"><ele>280.0</ele><time>2026-05-04T11:05:00.792Z</time></trkpt><trkpt lat="41.5127821" lon="0.2854414"><ele>278.25</ele><time>2026-05-04T11:05:01.793Z</time></trkpt><trkpt lat="41.5127886" lon="0.2856351"><ele>276.5</ele><time>2026-05-04T11:05:02.793Z</time></trkpt><trkpt lat="41.5127946" lon="0.2858235"><ele>274.75</ele><time>2026-05-04T11:05:03.792Z</time></trkpt><trkpt lat="41.5128" lon="0.2860121"><ele>273.0</ele><time>2026-05-04T11:05:04.793Z</time></trkpt><trkpt lat="41.5128046" lon="0.2861983"><ele>273.0</ele><time>2026-05-04T11:05:05.793Z</time></trkpt><trkpt lat="41.512811" lon="0.2863832"><ele>273.0</ele><time>2026-05-04T11:05:06.793Z</time></trkpt><trkpt lat="41.5128183" lon="0.2865739"><ele>273.0</ele><time>2026-05-04T11:05:07.793Z</time></trkpt><trkpt lat="41.5128301" lon="0.2867701"><ele>273.0</ele><time>2026-05-04T11:05:08.793Z</time></trkpt><trkpt lat="41.5128358" lon="0.2869686"><ele>272.0</ele><time>2026-05-04T11:05:09.793Z</time></trkpt><trkpt lat="41.5128399" lon="0.2871592"><ele>271.0</ele><time>2026-05-04T11:05:10.793Z</time></trkpt><trkpt lat="41.5128352" lon="0.2873486"><ele>270.0</ele><time>2026-05-04T11:05:11.793Z</time></trkpt><trkpt lat="41.5128337" lon="0.2875374"><ele>269.0</ele><time>2026-05-04T11:05:12.792Z</time></trkpt><trkpt lat="41.5128306" lon="0.2877302"><ele>267.25</ele><time>2026-05-04T11:05:13.793Z</time></trkpt><trkpt lat="41.5128259" lon="0.2879224"><ele>265.5</ele><time>2026-05-04T11:05:14.793Z</time></trkpt><trkpt lat="41.5128225" lon="0.2881127"><ele>263.75</ele><time>2026-05-04T11:05:15.793Z</time></trkpt><trkpt lat="41.5128156" lon="0.2883055"><ele>262.0</ele><time>2026-05-04T11:05:16.793Z</time></trkpt><trkpt lat="41.512807" lon="0.2884961"><ele>260.25</ele><time>2026-05-04T11:05:17.793Z</time></trkpt><trkpt lat="41.5127876" lon="0.2886861"><ele>258.5</ele><time>2026-05-04T11:05:18.793Z</time></trkpt><trkpt lat="41.5127664" lon="0.2888796"><ele>256.75</ele><time>2026-05-04T11:05:19.793Z</time></trkpt><trkpt lat="41.5127405" lon="0.2890731"><ele>255.0</ele><time>2026-05-04T11:05:20.793Z</time></trkpt><trkpt lat="41.5127133" lon="0.28927"><ele>253.33333333333331</ele><time>2026-05-04T11:05:21.793Z</time></trkpt><trkpt lat="41.5126826" lon="0.2894632"><ele>251.66666666666666</ele><time>2026-05-04T11:05:22.793Z</time></trkpt><trkpt lat="41.5126515" lon="0.2896617"><ele>250.0</ele><time>2026-05-04T11:05:23.793Z</time></trkpt><trkpt lat="41.5126187" lon="0.2898595"><ele>248.66666666666666</ele><time>2026-05-04T11:05:24.793Z</time></trkpt><trkpt lat="41.5125848" lon="0.2900601"><ele>247.33333333333331</ele><time>2026-05-04T11:05:25.793Z</time></trkpt><trkpt lat="41.5125426" lon="0.2902662"><ele>246.0</ele><time>2026-05-04T11:05:26.793Z</time></trkpt><trkpt lat="41.5124932" lon="0.2904593"><ele>244.33333333333331</ele><time>2026-05-04T11:05:27.793Z</time></trkpt><trkpt lat="41.5124416" lon="0.2906567"><ele>242.66666666666666</ele><time>2026-05-04T11:05:28.792Z</time></trkpt><trkpt lat="41.512388" lon="0.2908602"><ele>241.0</ele><time>2026-05-04T11:05:29.792Z</time></trkpt><trkpt lat="41.5123313" lon="0.2910576"><ele>241.0</ele><time>2026-05-04T11:05:30.793Z</time></trkpt><trkpt lat="41.5122708" lon="0.2912509"><ele>241.0</ele><time>2026-05-04T11:05:31.793Z</time></trkpt><trkpt lat="41.5122079" lon="0.2914411"><ele>241.0</ele><time>2026-05-04T11:05:32.793Z</time></trkpt><trkpt lat="41.5121455" lon="0.2916295"><ele>240.25</ele><time>2026-05-04T11:05:33.793Z</time></trkpt><trkpt lat="41.5120831" lon="0.2918105"><ele>239.5</ele><time>2026-05-04T11:05:34.793Z</time></trkpt><trkpt lat="41.5120148" lon="0.2919888"><ele>238.75</ele><time>2026-05-04T11:05:35.793Z</time></trkpt><trkpt lat="41.5119439" lon="0.2921639"><ele>238.0</ele><time>2026-05-04T11:05:36.793Z</time></trkpt><trkpt lat="41.5118705" lon="0.2923318"><ele>235.75</ele><time>2026-05-04T11:05:37.793Z</time></trkpt><trkpt lat="41.5117925" lon="0.2924951"><ele>233.5</ele><time>2026-05-04T11:05:38.793Z</time></trkpt><trkpt lat="41.5117192" lon="0.2926569"><ele>231.25</ele><time>2026-05-04T11:05:39.793Z</time></trkpt><trkpt lat="41.5116457" lon="0.2928112"><ele>229.0</ele><time>2026-05-04T11:05:40.793Z</time></trkpt><trkpt lat="41.5115728" lon="0.292973"><ele>228.0</ele><time>2026-05-04T11:05:41.793Z</time></trkpt><trkpt lat="41.5114971" lon="0.2931401"><ele>227.0</ele><time>2026-05-04T11:05:42.793Z</time></trkpt><trkpt lat="41.5114163" lon="0.2933007"><ele>226.0</ele><time>2026-05-04T11:05:43.792Z</time></trkpt><trkpt lat="41.5113347" lon="0.2934617"><ele>225.0</ele><time>2026-05-04T11:05:44.793Z</time></trkpt><trkpt lat="41.5112514" lon="0.2936265"><ele>225.75</ele><time>2026-05-04T11:05:45.793Z</time></trkpt><trkpt lat="41.5111719" lon="0.2937865"><ele>226.5</ele><time>2026-05-04T11:05:46.792Z</time></trkpt><trkpt lat="41.5110907" lon="0.2939529"><ele>227.25</ele><time>2026-05-04T11:05:47.793Z</time></trkpt><trkpt lat="41.5110123" lon="0.2941163"><ele>228.0</ele><time>2026-05-04T11:05:48.793Z</time></trkpt><trkpt lat="41.5109315" lon="0.2942818"><ele>225.25</ele><time>2026-05-04T11:05:49.793Z</time></trkpt><trkpt lat="41.5108482" lon="0.2944435"><ele>222.5</ele><time>2026-05-04T11:05:50.793Z</time></trkpt><trkpt lat="41.5107676" lon="0.2946042"><ele>219.75</ele><time>2026-05-04T11:05:51.793Z</time></trkpt><trkpt lat="41.5106844" lon="0.2947609"><ele>217.0</ele><time>2026-05-04T11:05:52.793Z</time></trkpt><trkpt lat="41.5106044" lon="0.2949179"><ele>217.0</ele><time>2026-05-04T11:05:53.793Z</time></trkpt><trkpt lat="41.5105261" lon="0.2950699"><ele>217.0</ele><time>2026-05-04T11:05:54.792Z</time></trkpt><trkpt lat="41.5104527" lon="0.2952292"><ele>217.0</ele><time>2026-05-04T11:05:55.793Z</time></trkpt><trkpt lat="41.5103737" lon="0.2953823"><ele>217.0</ele><time>2026-05-04T11:05:56.792Z</time></trkpt><trkpt lat="41.5103" lon="0.2955318"><ele>216.0</ele><time>2026-05-04T11:05:57.793Z</time></trkpt><trkpt lat="41.5102318" lon="0.2956848"><ele>215.0</ele><time>2026-05-04T11:05:58.793Z</time></trkpt><trkpt lat="41.5101658" lon="0.2958392"><ele>214.0</ele><time>2026-05-04T11:05:59.793Z</time></trkpt><trkpt lat="41.5100973" lon="0.2959913"><ele>213.0</ele><time>2026-05-04T11:06:00.793Z</time></trkpt><trkpt lat="41.5100309" lon="0.2961474"><ele>213.0</ele><time>2026-05-04T11:06:01.793Z</time></trkpt><trkpt lat="41.5099701" lon="0.296303"><ele>213.0</ele><time>2026-05-04T11:06:02.793Z</time></trkpt><trkpt lat="41.5099071" lon="0.2964664"><ele>213.0</ele><time>2026-05-04T11:06:03.793Z</time></trkpt><trkpt lat="41.5098411" lon="0.2966272"><ele>213.0</ele><time>2026-05-04T11:06:04.793Z</time></trkpt><trkpt lat="41.5097813" lon="0.2967909"><ele>212.75</ele><time>2026-05-04T11:06:05.793Z</time></trkpt><trkpt lat="41.5097249" lon="0.296951"><ele>212.5</ele><time>2026-05-04T11:06:06.793Z</time></trkpt><trkpt lat="41.5096698" lon="0.2971211"><ele>212.25</ele><time>2026-05-04T11:06:07.793Z</time></trkpt><trkpt lat="41.5096206" lon="0.2972885"><ele>212.0</ele><time>2026-05-04T11:06:08.793Z</time></trkpt><trkpt lat="41.5095719" lon="0.2974449"><ele>210.16666666666669</ele><time>2026-05-04T11:06:09.793Z</time></trkpt><trkpt lat="41.5095283" lon="0.2975832"><ele>208.33333333333334</ele><time>2026-05-04T11:06:10.792Z</time></trkpt><trkpt lat="41.5094877" lon="0.2977042"><ele>206.5</ele><time>2026-05-04T11:06:11.793Z</time></trkpt><trkpt lat="41.5094635" lon="0.2977954"><ele>204.66666666666669</ele><time>2026-05-04T11:06:12.792Z</time></trkpt><trkpt lat="41.5094392" lon="0.2978971"><ele>202.83333333333334</ele><time>2026-05-04T11:06:14.793Z</time></trkpt><trkpt lat="41.5094133" lon="0.297987"><ele>201.0</ele><time>2026-05-04T11:06:20.794Z</time></trkpt><trkpt lat="41.5094069" lon="0.2980796"><ele>200.8</ele><time>2026-05-04T11:06:23.794Z</time></trkpt><trkpt lat="41.5093841" lon="0.2982435"><ele>200.60000000000002</ele><time>2026-05-04T11:06:25.794Z</time></trkpt><trkpt lat="41.5093595" lon="0.2983461"><ele>200.4</ele><time>2026-05-04T11:06:26.794Z</time></trkpt><trkpt lat="41.5093323" lon="0.2984574"><ele>200.2</ele><time>2026-05-04T11:06:27.794Z</time></trkpt><trkpt lat="41.5093083" lon="0.2985749"><ele>200.0</ele><time>2026-05-04T11:06:28.794Z</time></trkpt><trkpt lat="41.509289" lon="0.2986886"><ele>200.0</ele><time>2026-05-04T11:06:29.794Z</time></trkpt><trkpt lat="41.509269" lon="0.2988016"><ele>200.0</ele><time>2026-05-04T11:06:30.793Z</time></trkpt><trkpt lat="41.5092526" lon="0.2989172"><ele>200.0</ele><time>2026-05-04T11:06:31.794Z</time></trkpt><trkpt lat="41.5092322" lon="0.2990321"><ele>200.0</ele><time>2026-05-04T11:06:32.794Z</time></trkpt><trkpt lat="41.5092094" lon="0.2991515"><ele>200.0</ele><time>2026-05-04T11:06:33.794Z</time></trkpt><trkpt lat="41.5091886" lon="0.2992796"><ele>200.0</ele><time>2026-05-04T11:06:34.794Z</time></trkpt><trkpt lat="41.5091651" lon="0.2994141"><ele>200.0</ele><time>2026-05-04T11:06:35.794Z</time></trkpt><trkpt lat="41.5091409" lon="0.2995486"><ele>200.0</ele><time>2026-05-04T11:06:36.794Z</time></trkpt><trkpt lat="41.5091209" lon="0.2996819"><ele>200.0</ele><time>2026-05-04T11:06:37.793Z</time></trkpt><trkpt lat="41.5090988" lon="0.2998198"><ele>200.0</ele><time>2026-05-04T11:06:38.794Z</time></trkpt><trkpt lat="41.5090785" lon="0.2999578"><ele>199.75</ele><time>2026-05-04T11:06:39.793Z</time></trkpt><trkpt lat="41.5090541" lon="0.3000997"><ele>199.5</ele><time>2026-05-04T11:06:40.794Z</time></trkpt><trkpt lat="41.5090331" lon="0.3002458"><ele>199.25</ele><time>2026-05-04T11:06:41.794Z</time></trkpt><trkpt lat="41.5090095" lon="0.3003946"><ele>199.0</ele><time>2026-05-04T11:06:42.794Z</time></trkpt><trkpt lat="41.5089854" lon="0.3005462"><ele>199.75</ele><time>2026-05-04T11:06:43.794Z</time></trkpt><trkpt lat="41.5089662" lon="0.3006994"><ele>200.5</ele><time>2026-05-04T11:06:44.794Z</time></trkpt><trkpt lat="41.5089489" lon="0.3008629"><ele>201.25</ele><time>2026-05-04T11:06:45.793Z</time></trkpt><trkpt lat="41.5089308" lon="0.301021"><ele>202.0</ele><time>2026-05-04T11:06:46.794Z</time></trkpt><trkpt lat="41.5089135" lon="0.3011813"><ele>202.0</ele><time>2026-05-04T11:06:47.794Z</time></trkpt><trkpt lat="41.5089042" lon="0.3013427"><ele>202.0</ele><time>2026-05-04T11:06:48.793Z</time></trkpt><trkpt lat="41.5088982" lon="0.3015111"><ele>202.0</ele><time>2026-05-04T11:06:49.794Z</time></trkpt><trkpt lat="41.5088957" lon="0.3016785"><ele>202.0</ele><time>2026-05-04T11:06:50.794Z</time></trkpt><trkpt lat="41.5088915" lon="0.3018483"><ele>202.0</ele><time>2026-05-04T11:06:51.794Z</time></trkpt><trkpt lat="41.5088903" lon="0.3020209"><ele>202.0</ele><time>2026-05-04T11:06:52.794Z</time></trkpt><trkpt lat="41.508894" lon="0.3022005"><ele>202.0</ele><time>2026-05-04T11:06:53.794Z</time></trkpt><trkpt lat="41.5088942" lon="0.3023828"><ele>202.0</ele><time>2026-05-04T11:06:54.794Z</time></trkpt><trkpt lat="41.5088985" lon="0.3025615"><ele>201.5</ele><time>2026-05-04T11:06:55.794Z</time></trkpt><trkpt lat="41.5089041" lon="0.3027465"><ele>201.0</ele><time>2026-05-04T11:06:56.793Z</time></trkpt><trkpt lat="41.5089109" lon="0.3029289"><ele>200.5</ele><time>2026-05-04T11:06:57.794Z</time></trkpt><trkpt lat="41.5089212" lon="0.3031017"><ele>200.0</ele><time>2026-05-04T11:06:58.793Z</time></trkpt><trkpt lat="41.5089345" lon="0.3032733"><ele>198.5</ele><time>2026-05-04T11:06:59.793Z</time></trkpt><trkpt lat="41.5089473" lon="0.303448"><ele>197.0</ele><time>2026-05-04T11:07:00.794Z</time></trkpt><trkpt lat="41.5089676" lon="0.3036189"><ele>195.5</ele><time>2026-05-04T11:07:01.794Z</time></trkpt><trkpt lat="41.5089904" lon="0.3038005"><ele>194.0</ele><time>2026-05-04T11:07:02.794Z</time></trkpt><trkpt lat="41.5090083" lon="0.3039761"><ele>192.5</ele><time>2026-05-04T11:07:03.794Z</time></trkpt><trkpt lat="41.5090356" lon="0.304154"><ele>191.0</ele><time>2026-05-04T11:07:04.794Z</time></trkpt><trkpt lat="41.509062" lon="0.304343"><ele>189.5</ele><time>2026-05-04T11:07:05.793Z</time></trkpt><trkpt lat="41.5090931" lon="0.30453"><ele>188.0</ele><time>2026-05-04T11:07:06.793Z</time></trkpt><trkpt lat="41.5091263" lon="0.3047143"><ele>186.5</ele><time>2026-05-04T11:07:07.794Z</time></trkpt><trkpt lat="41.5091601" lon="0.3048902"><ele>185.0</ele><time>2026-05-04T11:07:08.794Z</time></trkpt><trkpt lat="41.5091915" lon="0.305074"><ele>183.5</ele><time>2026-05-04T11:07:09.794Z</time></trkpt><trkpt lat="41.5092287" lon="0.3052594"><ele>182.0</ele><time>2026-05-04T11:07:10.793Z</time></trkpt><trkpt lat="41.5092656" lon="0.305441"><ele>180.75</ele><time>2026-05-04T11:07:11.794Z</time></trkpt><trkpt lat="41.5093101" lon="0.3056132"><ele>179.5</ele><time>2026-05-04T11:07:12.794Z</time></trkpt><trkpt lat="41.5093518" lon="0.3057959"><ele>178.25</ele><time>2026-05-04T11:07:13.793Z</time></trkpt><trkpt lat="41.5094013" lon="0.3059853"><ele>177.0</ele><time>2026-05-04T11:07:14.793Z</time></trkpt><trkpt lat="41.5094553" lon="0.3061754"><ele>177.0</ele><time>2026-05-04T11:07:15.794Z</time></trkpt><trkpt lat="41.5095117" lon="0.3063612"><ele>177.0</ele><time>2026-05-04T11:07:16.794Z</time></trkpt><trkpt lat="41.5095707" lon="0.3065396"><ele>177.0</ele><time>2026-05-04T11:07:17.794Z</time></trkpt><trkpt lat="41.5096265" lon="0.3067183"><ele>177.0</ele><time>2026-05-04T11:07:18.794Z</time></trkpt><trkpt lat="41.5096793" lon="0.3068891"><ele>177.75</ele><time>2026-05-04T11:07:19.794Z</time></trkpt><trkpt lat="41.5097369" lon="0.3070582"><ele>178.5</ele><time>2026-05-04T11:07:20.793Z</time></trkpt><trkpt lat="41.5097978" lon="0.3072248"><ele>179.25</ele><time>2026-05-04T11:07:21.794Z</time></trkpt><trkpt lat="41.5098608" lon="0.3073889"><ele>180.0</ele><time>2026-05-04T11:07:22.793Z</time></trkpt><trkpt lat="41.5099255" lon="0.3075466"><ele>177.75</ele><time>2026-05-04T11:07:23.794Z</time></trkpt><trkpt lat="41.5099863" lon="0.3076981"><ele>175.5</ele><time>2026-05-04T11:07:24.794Z</time></trkpt><trkpt lat="41.5100538" lon="0.3078539"><ele>173.25</ele><time>2026-05-04T11:07:25.794Z</time></trkpt><trkpt lat="41.510124" lon="0.3080092"><ele>171.0</ele><time>2026-05-04T11:07:26.793Z</time></trkpt><trkpt lat="41.5101982" lon="0.3081631"><ele>171.0</ele><time>2026-05-04T11:07:27.792Z</time></trkpt><trkpt lat="41.5102739" lon="0.3083126"><ele>171.0</ele><time>2026-05-04T11:07:28.793Z</time></trkpt><trkpt lat="41.5103508" lon="0.3084597"><ele>171.0</ele><time>2026-05-04T11:07:29.793Z</time></trkpt><trkpt lat="41.5104256" lon="0.3086101"><ele>171.0</ele><time>2026-05-04T11:07:30.793Z</time></trkpt><trkpt lat="41.5104998" lon="0.3087548"><ele>170.5</ele><time>2026-05-04T11:07:31.792Z</time></trkpt><trkpt lat="41.5105784" lon="0.3088993"><ele>170.0</ele><time>2026-05-04T11:07:32.793Z</time></trkpt><trkpt lat="41.5106587" lon="0.309041"><ele>169.5</ele><time>2026-05-04T11:07:33.793Z</time></trkpt><trkpt lat="41.5107466" lon="0.3091821"><ele>169.0</ele><time>2026-05-04T11:07:34.793Z</time></trkpt><trkpt lat="41.5108354" lon="0.3093279"><ele>169.0</ele><time>2026-05-04T11:07:35.792Z</time></trkpt><trkpt lat="41.5109328" lon="0.3094734"><ele>169.0</ele><time>2026-05-04T11:07:36.793Z</time></trkpt><trkpt lat="41.5110196" lon="0.3096182"><ele>169.0</ele><time>2026-05-04T11:07:37.793Z</time></trkpt><trkpt lat="41.5111107" lon="0.3097729"><ele>169.0</ele><time>2026-05-04T11:07:38.793Z</time></trkpt><trkpt lat="41.5112048" lon="0.3099291"><ele>167.66666666666669</ele><time>2026-05-04T11:07:39.793Z</time></trkpt><trkpt lat="41.5112962" lon="0.3100796"><ele>166.33333333333334</ele><time>2026-05-04T11:07:40.792Z</time></trkpt><trkpt lat="41.5113865" lon="0.3102303"><ele>165.0</ele><time>2026-05-04T11:07:41.793Z</time></trkpt><trkpt lat="41.512017" lon="0.3112383"><ele>165.75</ele><time>2026-05-04T11:07:48.793Z</time></trkpt><trkpt lat="41.5120442" lon="0.3113989"><ele>166.5</ele><time>2026-05-04T11:07:49.793Z</time></trkpt><trkpt lat="41.5120953" lon="0.3115555"><ele>167.25</ele><time>2026-05-04T11:07:50.793Z</time></trkpt><trkpt lat="41.5121306" lon="0.3117345"><ele>168.0</ele><time>2026-05-04T11:07:51.793Z</time></trkpt><trkpt lat="41.5121568" lon="0.3119164"><ele>168.0</ele><time>2026-05-04T11:07:52.793Z</time></trkpt><trkpt lat="41.5121657" lon="0.3120956"><ele>168.0</ele><time>2026-05-04T11:07:53.793Z</time></trkpt><trkpt lat="41.512172" lon="0.312278"><ele>168.0</ele><time>2026-05-04T11:07:54.793Z</time></trkpt><trkpt lat="41.5121745" lon="0.3124671"><ele>168.0</ele><time>2026-05-04T11:07:55.793Z</time></trkpt><trkpt lat="41.5121789" lon="0.3126565"><ele>167.0</ele><time>2026-05-04T11:07:56.793Z</time></trkpt><trkpt lat="41.5121833" lon="0.3128419"><ele>166.0</ele><time>2026-05-04T11:07:57.793Z</time></trkpt><trkpt lat="41.5121968" lon="0.3130294"><ele>165.0</ele><time>2026-05-04T11:07:58.793Z</time></trkpt><trkpt lat="41.5122142" lon="0.3132098"><ele>164.0</ele><time>2026-05-04T11:07:59.793Z</time></trkpt><trkpt lat="41.512236" lon="0.3133834"><ele>163.0</ele><time>2026-05-04T11:08:00.793Z</time></trkpt><trkpt lat="41.5122609" lon="0.313545"><ele>162.0</ele><time>2026-05-04T11:08:01.793Z</time></trkpt><trkpt lat="41.5122906" lon="0.3137029"><ele>161.0</ele><time>2026-05-04T11:08:02.793Z</time></trkpt><trkpt lat="41.5123198" lon="0.3138537"><ele>160.0</ele><time>2026-05-04T11:08:03.794Z</time></trkpt><trkpt lat="41.5123541" lon="0.3140089"><ele>158.5</ele><time>2026-05-04T11:08:04.794Z</time></trkpt><trkpt lat="41.5123973" lon="0.3141645"><ele>157.0</ele><time>2026-05-04T11:08:05.794Z</time></trkpt><trkpt lat="41.5124421" lon="0.3143211"><ele>155.5</ele><time>2026-05-04T11:08:06.794Z</time></trkpt><trkpt lat="41.5124918" lon="0.3144765"><ele>154.0</ele><time>2026-05-04T11:08:07.794Z</time></trkpt><trkpt lat="41.5125453" lon="0.3146329"><ele>152.75</ele><time>2026-05-04T11:08:08.794Z</time></trkpt><trkpt lat="41.5126084" lon="0.3147927"><ele>151.5</ele><time>2026-05-04T11:08:09.794Z</time></trkpt><trkpt lat="41.5126788" lon="0.3149483"><ele>150.25</ele><time>2026-05-04T11:08:10.794Z</time></trkpt><trkpt lat="41.5127526" lon="0.3151019"><ele>149.0</ele><time>2026-05-04T11:08:11.794Z</time></trkpt><trkpt lat="41.5128243" lon="0.3152458"><ele>149.0</ele><time>2026-05-04T11:08:12.794Z</time></trkpt><trkpt lat="41.5128982" lon="0.3153881"><ele>149.0</ele><time>2026-05-04T11:08:13.794Z</time></trkpt><trkpt lat="41.512981" lon="0.3155284"><ele>149.0</ele><time>2026-05-04T11:08:14.794Z</time></trkpt><trkpt lat="41.5130707" lon="0.3156621"><ele>149.0</ele><time>2026-05-04T11:08:15.794Z</time></trkpt><trkpt lat="41.5131619" lon="0.3157931"><ele>148.5</ele><time>2026-05-04T11:08:16.793Z</time></trkpt><trkpt lat="41.5132609" lon="0.3159182"><ele>148.0</ele><time>2026-05-04T11:08:17.794Z</time></trkpt><trkpt lat="41.51336" lon="0.3160361"><ele>147.5</ele><time>2026-05-04T11:08:18.794Z</time></trkpt><trkpt lat="41.5134627" lon="0.3161572"><ele>147.0</ele><time>2026-05-04T11:08:19.794Z</time></trkpt><trkpt lat="41.5135711" lon="0.3162742"><ele>147.0</ele><time>2026-05-04T11:08:20.794Z</time></trkpt><trkpt lat="41.5136825" lon="0.3163867"><ele>147.0</ele><time>2026-05-04T11:08:21.794Z</time></trkpt><trkpt lat="41.5137944" lon="0.3164956"><ele>147.0</ele><time>2026-05-04T11:08:22.794Z</time></trkpt><trkpt lat="41.513906" lon="0.3166"><ele>147.0</ele><time>2026-05-04T11:08:23.794Z</time></trkpt><trkpt lat="41.5140217" lon="0.3167052"><ele>146.5</ele><time>2026-05-04T11:08:24.794Z</time></trkpt><trkpt lat="41.5141372" lon="0.3168162"><ele>146.0</ele><time>2026-05-04T11:08:25.794Z</time></trkpt><trkpt lat="41.5142464" lon="0.3169288"><ele>145.5</ele><time>2026-05-04T11:08:26.794Z</time></trkpt><trkpt lat="41.5143506" lon="0.3170409"><ele>145.0</ele><time>2026-05-04T11:08:27.794Z</time></trkpt><trkpt lat="41.5144591" lon="0.3171625"><ele>143.75</ele><time>2026-05-04T11:08:28.794Z</time></trkpt><trkpt lat="41.5145673" lon="0.3172883"><ele>142.5</ele><time>2026-05-04T11:08:29.794Z</time></trkpt><trkpt lat="41.5146686" lon="0.3174216"><ele>141.25</ele><time>2026-05-04T11:08:30.794Z</time></trkpt><trkpt lat="41.5147661" lon="0.3175643"><ele>140.0</ele><time>2026-05-04T11:08:31.794Z</time></trkpt><trkpt lat="41.5148584" lon="0.3177072"><ele>140.0</ele><time>2026-05-04T11:08:32.794Z</time></trkpt><trkpt lat="41.5149452" lon="0.3178555"><ele>140.0</ele><time>2026-05-04T11:08:33.793Z</time></trkpt><trkpt lat="41.515035" lon="0.3180029"><ele>140.0</ele><time>2026-05-04T11:08:34.793Z</time></trkpt><trkpt lat="41.5151187" lon="0.3181532"><ele>140.0</ele><time>2026-05-04T11:08:35.794Z</time></trkpt><trkpt lat="41.5152047" lon="0.3183034"><ele>140.25</ele><time>2026-05-04T11:08:36.794Z</time></trkpt><trkpt lat="41.5152937" lon="0.3184533"><ele>140.5</ele><time>2026-05-04T11:08:37.794Z</time></trkpt><trkpt lat="41.5153772" lon="0.3186041"><ele>140.75</ele><time>2026-05-04T11:08:38.794Z</time></trkpt><trkpt lat="41.5154613" lon="0.3187602"><ele>141.0</ele><time>2026-05-04T11:08:39.793Z</time></trkpt><trkpt lat="41.5155412" lon="0.3189206"><ele>139.75</ele><time>2026-05-04T11:08:40.793Z</time></trkpt><trkpt lat="41.5156323" lon="0.3190773"><ele>138.5</ele><time>2026-05-04T11:08:41.793Z</time></trkpt><trkpt lat="41.5157187" lon="0.3192281"><ele>137.25</ele><time>2026-05-04T11:08:42.793Z</time></trkpt><trkpt lat="41.515803" lon="0.3193768"><ele>136.0</ele><time>2026-05-04T11:08:43.794Z</time></trkpt><trkpt lat="41.5158859" lon="0.3195323"><ele>136.0</ele><time>2026-05-04T11:08:44.794Z</time></trkpt><trkpt lat="41.5159687" lon="0.3196792"><ele>136.0</ele><time>2026-05-04T11:08:45.794Z</time></trkpt><trkpt lat="41.5160529" lon="0.3198333"><ele>136.0</ele><time>2026-05-04T11:08:46.794Z</time></trkpt><trkpt lat="41.5161385" lon="0.3199854"><ele>136.0</ele><time>2026-05-04T11:08:47.794Z</time></trkpt><trkpt lat="41.5162268" lon="0.3201425"><ele>135.0</ele><time>2026-05-04T11:08:48.793Z</time></trkpt><trkpt lat="41.5163112" lon="0.3203054"><ele>134.0</ele><time>2026-05-04T11:08:49.794Z</time></trkpt><trkpt lat="41.5163964" lon="0.320465"><ele>133.0</ele><time>2026-05-04T11:08:50.794Z</time></trkpt><trkpt lat="41.5164811" lon="0.3206229"><ele>132.0</ele><time>2026-05-04T11:08:51.794Z</time></trkpt><trkpt lat="41.5165644" lon="0.3207771"><ele>131.5</ele><time>2026-05-04T11:08:52.794Z</time></trkpt><trkpt lat="41.5166455" lon="0.3209225"><ele>131.0</ele><time>2026-05-04T11:08:53.794Z</time></trkpt><trkpt lat="41.5167211" lon="0.3210636"><ele>130.5</ele><time>2026-05-04T11:08:54.794Z</time></trkpt><trkpt lat="41.516797" lon="0.3212052"><ele>130.0</ele><time>2026-05-04T11:08:55.794Z</time></trkpt><trkpt lat="41.5168778" lon="0.3213424"><ele>129.75</ele><time>2026-05-04T11:08:56.793Z</time></trkpt><trkpt lat="41.5169514" lon="0.3214858"><ele>129.5</ele><time>2026-05-04T11:08:57.793Z</time></trkpt><trkpt lat="41.5170296" lon="0.321627"><ele>129.25</ele><time>2026-05-04T11:08:58.794Z</time></trkpt><trkpt lat="41.5171062" lon="0.3217735"><ele>129.0</ele><time>2026-05-04T11:08:59.794Z</time></trkpt><trkpt lat="41.5171682" lon="0.3219217"><ele>128.25</ele><time>2026-05-04T11:09:00.794Z</time></trkpt><trkpt lat="41.517227" lon="0.3220687"><ele>127.5</ele><time>2026-05-04T11:09:01.793Z</time></trkpt><trkpt lat="41.5172837" lon="0.3222185"><ele>126.75</ele><time>2026-05-04T11:09:02.794Z</time></trkpt><trkpt lat="41.5173371" lon="0.3223739"><ele>126.0</ele><time>2026-05-04T11:09:03.794Z</time></trkpt><trkpt lat="41.5173958" lon="0.3225314"><ele>125.5</ele><time>2026-05-04T11:09:04.794Z</time></trkpt><trkpt lat="41.5174452" lon="0.3226899"><ele>125.0</ele><time>2026-05-04T11:09:05.794Z</time></trkpt><trkpt lat="41.5174965" lon="0.3228452"><ele>124.5</ele><time>2026-05-04T11:09:06.793Z</time></trkpt><trkpt lat="41.5175532" lon="0.3230078"><ele>124.0</ele><time>2026-05-04T11:09:07.794Z</time></trkpt><trkpt lat="41.5176078" lon="0.3231713"><ele>124.0</ele><time>2026-05-04T11:09:08.794Z</time></trkpt><trkpt lat="41.5176623" lon="0.3233254"><ele>124.0</ele><time>2026-05-04T11:09:09.794Z</time></trkpt><trkpt lat="41.5177097" lon="0.3234712"><ele>124.0</ele><time>2026-05-04T11:09:10.794Z</time></trkpt><trkpt lat="41.5177508" lon="0.3236182"><ele>124.0</ele><time>2026-05-04T11:09:11.794Z</time></trkpt><trkpt lat="41.5177872" lon="0.3237581"><ele>124.0</ele><time>2026-05-04T11:09:12.793Z</time></trkpt><trkpt lat="41.5178238" lon="0.3238916"><ele>124.0</ele><time>2026-05-04T11:09:13.794Z</time></trkpt><trkpt lat="41.517865" lon="0.3240428"><ele>124.0</ele><time>2026-05-04T11:09:14.794Z</time></trkpt><trkpt lat="41.5179013" lon="0.3241911"><ele>124.0</ele><time>2026-05-04T11:09:15.794Z</time></trkpt><trkpt lat="41.5179394" lon="0.3243486"><ele>122.5</ele><time>2026-05-04T11:09:16.793Z</time></trkpt><trkpt lat="41.5179758" lon="0.324518"><ele>121.0</ele><time>2026-05-04T11:09:17.794Z</time></trkpt><trkpt lat="41.5180112" lon="0.3246848"><ele>119.5</ele><time>2026-05-04T11:09:18.794Z</time></trkpt><trkpt lat="41.5180478" lon="0.3248515"><ele>118.0</ele><time>2026-05-04T11:09:19.794Z</time></trkpt><trkpt lat="41.5180805" lon="0.3250178"><ele>117.75</ele><time>2026-05-04T11:09:20.794Z</time></trkpt><trkpt lat="41.5181176" lon="0.3251724"><ele>117.5</ele><time>2026-05-04T11:09:21.794Z</time></trkpt><trkpt lat="41.518152" lon="0.3253229"><ele>117.25</ele><time>2026-05-04T11:09:22.794Z</time></trkpt><trkpt lat="41.5181886" lon="0.3254697"><ele>117.0</ele><time>2026-05-04T11:09:23.794Z</time></trkpt><trkpt lat="41.5182248" lon="0.3256122"><ele>116.6</ele><time>2026-05-04T11:09:24.794Z</time></trkpt><trkpt lat="41.5182615" lon="0.325741"><ele>116.19999999999999</ele><time>2026-05-04T11:09:25.794Z</time></trkpt><trkpt lat="41.5182885" lon="0.3258768"><ele>115.8</ele><time>2026-05-04T11:09:26.794Z</time></trkpt><trkpt lat="41.5183101" lon="0.3260057"><ele>115.4</ele><time>2026-05-04T11:09:27.794Z</time></trkpt><trkpt lat="41.5183316" lon="0.3261371"><ele>115.0</ele><time>2026-05-04T11:09:28.794Z</time></trkpt><trkpt lat="41.51835" lon="0.3262636"><ele>115.0</ele><time>2026-05-04T11:09:29.793Z</time></trkpt><trkpt lat="41.5183538" lon="0.3263882"><ele>115.0</ele><time>2026-05-04T11:09:30.794Z</time></trkpt><trkpt lat="41.5183584" lon="0.3265178"><ele>115.0</ele><time>2026-05-04T11:09:31.793Z</time></trkpt><trkpt lat="41.5183761" lon="0.326633"><ele>115.0</ele><time>2026-05-04T11:09:32.794Z</time></trkpt><trkpt lat="41.5184254" lon="0.3267495"><ele>115.0</ele><time>2026-05-04T11:09:33.793Z</time></trkpt><trkpt lat="41.5184779" lon="0.3268533"><ele>114.8</ele><time>2026-05-04T11:09:34.794Z</time></trkpt><trkpt lat="41.5185294" lon="0.326968"><ele>114.6</ele><time>2026-05-04T11:09:35.794Z</time></trkpt><trkpt lat="41.5185713" lon="0.3270892"><ele>114.4</ele><time>2026-05-04T11:09:36.794Z</time></trkpt><trkpt lat="41.5186041" lon="0.3272116"><ele>114.2</ele><time>2026-05-04T11:09:37.794Z</time></trkpt><trkpt lat="41.5186342" lon="0.3273375"><ele>114.0</ele><time>2026-05-04T11:09:38.794Z</time></trkpt><trkpt lat="41.5186663" lon="0.3274706"><ele>113.4</ele><time>2026-05-04T11:09:39.794Z</time></trkpt><trkpt lat="41.5186996" lon="0.3275981"><ele>112.80000000000001</ele><time>2026-05-04T11:09:40.794Z</time></trkpt><trkpt lat="41.5187307" lon="0.3277255"><ele>112.19999999999999</ele><time>2026-05-04T11:09:41.794Z</time></trkpt><trkpt lat="41.5187619" lon="0.3278666"><ele>111.6</ele><time>2026-05-04T11:09:42.794Z</time></trkpt><trkpt lat="41.5187951" lon="0.3280074"><ele>111.0</ele><time>2026-05-04T11:09:43.794Z</time></trkpt><trkpt lat="41.5188258" lon="0.3281604"><ele>110.25</ele><time>2026-05-04T11:09:44.794Z</time></trkpt><trkpt lat="41.5188605" lon="0.3283087"><ele>109.5</ele><time>2026-05-04T11:09:45.794Z</time></trkpt><trkpt lat="41.5188921" lon="0.3284513"><ele>108.75</ele><time>2026-05-04T11:09:46.794Z</time></trkpt><trkpt lat="41.5189293" lon="0.3286009"><ele>108.0</ele><time>2026-05-04T11:09:47.793Z</time></trkpt><trkpt lat="41.5189652" lon="0.3287563"><ele>107.5</ele><time>2026-05-04T11:09:48.793Z</time></trkpt><trkpt lat="41.5189981" lon="0.3289079"><ele>107.0</ele><time>2026-05-04T11:09:49.794Z</time></trkpt><trkpt lat="41.5190307" lon="0.329058"><ele>106.5</ele><time>2026-05-04T11:09:50.793Z</time></trkpt><trkpt lat="41.5190641" lon="0.3292097"><ele>106.0</ele><time>2026-05-04T11:09:51.794Z</time></trkpt><trkpt lat="41.5190941" lon="0.3293514"><ele>106.0</ele><time>2026-05-04T11:09:52.794Z</time></trkpt><trkpt lat="41.5191147" lon="0.3294857"><ele>106.0</ele><time>2026-05-04T11:09:53.794Z</time></trkpt><trkpt lat="41.51914" lon="0.3296235"><ele>106.0</ele><time>2026-05-04T11:09:54.794Z</time></trkpt><trkpt lat="41.5191628" lon="0.3297571"><ele>106.0</ele><time>2026-05-04T11:09:55.794Z</time></trkpt><trkpt lat="41.5191914" lon="0.3298914"><ele>106.0</ele><time>2026-05-04T11:09:56.794Z</time></trkpt><trkpt lat="41.5192237" lon="0.3300251"><ele>105.83333333333334</ele><time>2026-05-04T11:09:57.794Z</time></trkpt><trkpt lat="41.5192524" lon="0.3301646"><ele>105.66666666666667</ele><time>2026-05-04T11:09:58.794Z</time></trkpt><trkpt lat="41.5192782" lon="0.3302885"><ele>105.5</ele><time>2026-05-04T11:09:59.794Z</time></trkpt><trkpt lat="41.5193052" lon="0.3304019"><ele>105.33333333333334</ele><time>2026-05-04T11:10:00.794Z</time></trkpt><trkpt lat="41.5193234" lon="0.3304939"><ele>105.16666666666667</ele><time>2026-05-04T11:10:01.794Z</time></trkpt><trkpt lat="41.5193425" lon="0.3305813"><ele>105.0</ele><time>2026-05-04T11:10:02.794Z</time></trkpt><trkpt lat="41.5193578" lon="0.330667"><ele>105.0</ele><time>2026-05-04T11:10:03.794Z</time></trkpt><trkpt lat="41.5193765" lon="0.3307523"><ele>105.0</ele><time>2026-05-04T11:10:04.794Z</time></trkpt><trkpt lat="41.5194019" lon="0.3308455"><ele>105.0</ele><time>2026-05-04T11:10:05.793Z</time></trkpt><trkpt lat="41.5194295" lon="0.3309441"><ele>105.0</ele><time>2026-05-04T11:10:06.794Z</time></trkpt><trkpt lat="41.5194502" lon="0.3310447"><ele>105.0</ele><time>2026-05-04T11:10:07.794Z</time></trkpt><trkpt lat="41.5194725" lon="0.331145"><ele>105.0</ele><time>2026-05-04T11:10:08.794Z</time></trkpt><trkpt lat="41.5194919" lon="0.3312433"><ele>105.0</ele><time>2026-05-04T11:10:09.794Z</time></trkpt><trkpt lat="41.5195162" lon="0.3313449"><ele>105.0</ele><time>2026-05-04T11:10:10.794Z</time></trkpt><trkpt lat="41.5195388" lon="0.3314479"><ele>105.0</ele><time>2026-05-04T11:10:11.794Z</time></trkpt><trkpt lat="41.5195591" lon="0.3315557"><ele>105.0</ele><time>2026-05-04T11:10:12.794Z</time></trkpt><trkpt lat="41.5195888" lon="0.3316675"><ele>105.0</ele><time>2026-05-04T11:10:13.793Z</time></trkpt><trkpt lat="41.5196166" lon="0.3317869"><ele>105.0</ele><time>2026-05-04T11:10:14.793Z</time></trkpt><trkpt lat="41.519642" lon="0.3319105"><ele>105.6</ele><time>2026-05-04T11:10:15.794Z</time></trkpt><trkpt lat="41.5196717" lon="0.3320442"><ele>106.2</ele><time>2026-05-04T11:10:16.794Z</time></trkpt><trkpt lat="41.5197018" lon="0.3321791"><ele>106.80000000000001</ele><time>2026-05-04T11:10:17.794Z</time></trkpt><trkpt lat="41.5197377" lon="0.332314"><ele>107.4</ele><time>2026-05-04T11:10:18.794Z</time></trkpt><trkpt lat="41.5197667" lon="0.3324487"><ele>108.0</ele><time>2026-05-04T11:10:19.794Z</time></trkpt><trkpt lat="41.5198017" lon="0.3325699"><ele>108.0</ele><time>2026-05-04T11:10:20.794Z</time></trkpt><trkpt lat="41.5198216" lon="0.3326941"><ele>108.0</ele><time>2026-05-04T11:10:21.794Z</time></trkpt><trkpt lat="41.5198491" lon="0.3328096"><ele>108.0</ele><time>2026-05-04T11:10:22.794Z</time></trkpt><trkpt lat="41.5198756" lon="0.3329165"><ele>108.0</ele><time>2026-05-04T11:10:23.793Z</time></trkpt><trkpt lat="41.5198955" lon="0.3330244"><ele>108.0</ele><time>2026-05-04T11:10:24.794Z</time></trkpt><trkpt lat="41.5199201" lon="0.3331388"><ele>108.0</ele><time>2026-05-04T11:10:25.794Z</time></trkpt><trkpt lat="41.5199463" lon="0.3332523"><ele>108.2</ele><time>2026-05-04T11:10:26.794Z</time></trkpt><trkpt lat="41.5199693" lon="0.3333604"><ele>108.4</ele><time>2026-05-04T11:10:27.794Z</time></trkpt><trkpt lat="41.5199973" lon="0.3334723"><ele>108.60000000000001</ele><time>2026-05-04T11:10:28.794Z</time></trkpt><trkpt lat="41.520025" lon="0.333596"><ele>108.80000000000001</ele><time>2026-05-04T11:10:29.794Z</time></trkpt><trkpt lat="41.5200518" lon="0.3337236"><ele>109.0</ele><time>2026-05-04T11:10:30.794Z</time></trkpt><trkpt lat="41.5200761" lon="0.3338461"><ele>109.0</ele><time>2026-05-04T11:10:31.795Z</time></trkpt><trkpt lat="41.5201029" lon="0.3339654"><ele>109.0</ele><time>2026-05-04T11:10:32.795Z</time></trkpt><trkpt lat="41.5201227" lon="0.3340795"><ele>109.0</ele><time>2026-05-04T11:10:33.795Z</time></trkpt><trkpt lat="41.5201425" lon="0.3341953"><ele>109.0</ele><time>2026-05-04T11:10:34.795Z</time></trkpt><trkpt lat="41.5201608" lon="0.3342969"><ele>109.0</ele><time>2026-05-04T11:10:35.794Z</time></trkpt><trkpt lat="41.5201893" lon="0.3344285"><ele>109.00000000000001</ele><time>2026-05-04T11:10:37.795Z</time></trkpt><trkpt lat="41.5201531" lon="0.3345054"><ele>109.0</ele><time>2026-05-04T11:10:39.795Z</time></trkpt><trkpt lat="41.5201252" lon="0.3345965"><ele>109.0</ele><time>2026-05-04T11:10:44.795Z</time></trkpt><trkpt lat="41.5201008" lon="0.3346824"><ele>109.0</ele><time>2026-05-04T11:10:47.795Z</time></trkpt><trkpt lat="41.5200649" lon="0.3345622"><ele>109.00000000000001</ele><time>2026-05-04T11:11:49.795Z</time></trkpt><trkpt lat="41.5201011" lon="0.3346536"><ele>109.0</ele><time>2026-05-04T11:12:54.795Z</time></trkpt><trkpt lat="41.520161" lon="0.3347134"><ele>109.0</ele><time>2026-05-04T11:12:59.795Z</time></trkpt><trkpt lat="41.5201231" lon="0.3346448"><ele>109.0</ele><time>2026-05-04T11:23:16.799Z</time></trkpt><trkpt lat="41.5201169" lon="0.3347331"><ele>109.0</ele><time>2026-05-04T11:28:20.801Z</time></trkpt><trkpt lat="41.5201924" lon="0.334728"><ele>109.0</ele><time>2026-05-04T11:28:52.802Z</time></trkpt><trkpt lat="41.5202567" lon="0.3347214"><ele>109.0</ele><time>2026-05-04T11:29:56.802Z</time></trkpt><trkpt lat="41.5202926" lon="0.3347946"><ele>109.0</ele><time>2026-05-04T11:30:14.801Z</time></trkpt><trkpt lat="41.5203049" lon="0.3348963"><ele>109.0</ele><time>2026-05-04T11:30:16.802Z</time></trkpt><trkpt lat="41.5203246" lon="0.3350186"><ele>108.71428571428572</ele><time>2026-05-04T11:30:18.802Z</time></trkpt><trkpt lat="41.5203366" lon="0.3351012"><ele>108.42857142857143</ele><time>2026-05-04T11:30:19.802Z</time></trkpt><trkpt lat="41.5203452" lon="0.3351931"><ele>108.14285714285714</ele><time>2026-05-04T11:30:20.802Z</time></trkpt><trkpt lat="41.5203606" lon="0.3352826"><ele>107.85714285714286</ele><time>2026-05-04T11:30:21.802Z</time></trkpt><trkpt lat="41.5203715" lon="0.3353661"><ele>107.57142857142857</ele><time>2026-05-04T11:30:22.802Z</time></trkpt><trkpt lat="41.5203922" lon="0.3354545"><ele>107.28571428571429</ele><time>2026-05-04T11:30:23.801Z</time></trkpt><trkpt lat="41.5204176" lon="0.3355475"><ele>107.0</ele><time>2026-05-04T11:30:24.802Z</time></trkpt><trkpt lat="41.5204484" lon="0.3356495"><ele>107.00000000000001</ele><time>2026-05-04T11:30:25.802Z</time></trkpt><trkpt lat="41.5204774" lon="0.3357522"><ele>107.0</ele><time>2026-05-04T11:30:26.802Z</time></trkpt><trkpt lat="41.5205036" lon="0.3358406"><ele>107.0</ele><time>2026-05-04T11:30:27.802Z</time></trkpt><trkpt lat="41.5205344" lon="0.3359221"><ele>107.0</ele><time>2026-05-04T11:30:28.801Z</time></trkpt><trkpt lat="41.5205655" lon="0.336003"><ele>107.0</ele><time>2026-05-04T11:30:29.802Z</time></trkpt><trkpt lat="41.5205921" lon="0.3360799"><ele>107.00000000000001</ele><time>2026-05-04T11:30:30.802Z</time></trkpt><trkpt lat="41.520615" lon="0.3361609"><ele>107.0</ele><time>2026-05-04T11:30:31.802Z</time></trkpt><trkpt lat="41.5206396" lon="0.3362552"><ele>107.00000000000001</ele><time>2026-05-04T11:30:32.802Z</time></trkpt><trkpt lat="41.5206559" lon="0.3363623"><ele>107.0</ele><time>2026-05-04T11:30:33.802Z</time></trkpt><trkpt lat="41.5206745" lon="0.3364667"><ele>107.0</ele><time>2026-05-04T11:30:34.802Z</time></trkpt><trkpt lat="41.5207073" lon="0.3365583"><ele>107.0</ele><time>2026-05-04T11:30:35.802Z</time></trkpt><trkpt lat="41.5207521" lon="0.3366244"><ele>107.0</ele><time>2026-05-04T11:30:36.802Z</time></trkpt><trkpt lat="41.5208142" lon="0.3366656"><ele>107.00000000000001</ele><time>2026-05-04T11:30:37.801Z</time></trkpt><trkpt lat="41.5208814" lon="0.3366969"><ele>107.0</ele><time>2026-05-04T11:30:38.802Z</time></trkpt><trkpt lat="41.5209425" lon="0.3367408"><ele>106.99999999999999</ele><time>2026-05-04T11:30:39.802Z</time></trkpt><trkpt lat="41.5210003" lon="0.3367994"><ele>107.0</ele><time>2026-05-04T11:30:40.802Z</time></trkpt><trkpt lat="41.521056" lon="0.3368667"><ele>107.0</ele><time>2026-05-04T11:30:41.801Z</time></trkpt><trkpt lat="41.5211033" lon="0.3369502"><ele>107.0</ele><time>2026-05-04T11:30:42.802Z</time></trkpt><trkpt lat="41.5211606" lon="0.3370305"><ele>106.99999999999999</ele><time>2026-05-04T11:30:43.802Z</time></trkpt><trkpt lat="41.5212204" lon="0.337113"><ele>107.0</ele><time>2026-05-04T11:30:44.802Z</time></trkpt><trkpt lat="41.521284" lon="0.3371927"><ele>106.39999999999999</ele><time>2026-05-04T11:30:45.801Z</time></trkpt><trkpt lat="41.5213457" lon="0.3372708"><ele>105.79999999999998</ele><time>2026-05-04T11:30:46.801Z</time></trkpt><trkpt lat="41.5214102" lon="0.3373475"><ele>105.2</ele><time>2026-05-04T11:30:47.802Z</time></trkpt><trkpt lat="41.5214771" lon="0.337429"><ele>104.6</ele><time>2026-05-04T11:30:48.802Z</time></trkpt><trkpt lat="41.5215442" lon="0.3375143"><ele>104.0</ele><time>2026-05-04T11:30:49.802Z</time></trkpt><trkpt lat="41.5216128" lon="0.3376125"><ele>104.0</ele><time>2026-05-04T11:30:50.802Z</time></trkpt><trkpt lat="41.5216801" lon="0.3377163"><ele>104.0</ele><time>2026-05-04T11:30:51.802Z</time></trkpt><trkpt lat="41.5217442" lon="0.3378262"><ele>104.0</ele><time>2026-05-04T11:30:52.802Z</time></trkpt><trkpt lat="41.5218112" lon="0.3379308"><ele>104.0</ele><time>2026-05-04T11:30:53.802Z</time></trkpt><trkpt lat="41.5218763" lon="0.33802"><ele>104.0</ele><time>2026-05-04T11:30:54.802Z</time></trkpt><trkpt lat="41.5219405" lon="0.3381136"><ele>104.0</ele><time>2026-05-04T11:30:55.802Z</time></trkpt><trkpt lat="41.5220106" lon="0.3382111"><ele>104.0</ele><time>2026-05-04T11:30:56.801Z</time></trkpt><trkpt lat="41.5220821" lon="0.338311"><ele>104.0</ele><time>2026-05-04T11:30:57.801Z</time></trkpt><trkpt lat="41.5221543" lon="0.3384133"><ele>104.0</ele><time>2026-05-04T11:30:58.802Z</time></trkpt><trkpt lat="41.5222268" lon="0.3385148"><ele>104.0</ele><time>2026-05-04T11:30:59.801Z</time></trkpt><trkpt lat="41.5222992" lon="0.3386151"><ele>103.99999999999999</ele><time>2026-05-04T11:31:00.802Z</time></trkpt><trkpt lat="41.5223638" lon="0.3387144"><ele>104.0</ele><time>2026-05-04T11:31:01.802Z</time></trkpt><trkpt lat="41.5224239" lon="0.3387988"><ele>104.0</ele><time>2026-05-04T11:31:02.802Z</time></trkpt><trkpt lat="41.5224712" lon="0.3388676"><ele>104.0</ele><time>2026-05-04T11:31:03.802Z</time></trkpt><trkpt lat="41.522527" lon="0.3389361"><ele>103.99999999999999</ele><time>2026-05-04T11:31:05.802Z</time></trkpt><trkpt lat="41.5225878" lon="0.3390041"><ele>104.0</ele><time>2026-05-04T11:31:41.803Z</time></trkpt><trkpt lat="41.5226445" lon="0.339074"><ele>104.0</ele><time>2026-05-04T11:31:43.802Z</time></trkpt><trkpt lat="41.5227097" lon="0.3391756"><ele>104.0</ele><time>2026-05-04T11:31:45.803Z</time></trkpt><trkpt lat="41.5227773" lon="0.3392715"><ele>104.0</ele><time>2026-05-04T11:31:47.803Z</time></trkpt><trkpt lat="41.5228587" lon="0.3394115"><ele>104.0</ele><time>2026-05-04T11:31:49.803Z</time></trkpt><trkpt lat="41.5229197" lon="0.33949"><ele>104.0</ele><time>2026-05-04T11:31:50.803Z</time></trkpt><trkpt lat="41.5229807" lon="0.339581"><ele>103.99999999999999</ele><time>2026-05-04T11:31:51.803Z</time></trkpt><trkpt lat="41.5230434" lon="0.3396744"><ele>104.0</ele><time>2026-05-04T11:31:52.803Z</time></trkpt><trkpt lat="41.5231046" lon="0.3397612"><ele>104.0</ele><time>2026-05-04T11:31:53.803Z</time></trkpt><trkpt lat="41.5231659" lon="0.3398372"><ele>104.0</ele><time>2026-05-04T11:31:54.803Z</time></trkpt><trkpt lat="41.5232208" lon="0.3399161"><ele>103.99999999999999</ele><time>2026-05-04T11:31:55.803Z</time></trkpt><trkpt lat="41.5232751" lon="0.3399927"><ele>104.0</ele><time>2026-05-04T11:31:56.803Z</time></trkpt><trkpt lat="41.5233263" lon="0.3400767"><ele>103.99999999999999</ele><time>2026-05-04T11:31:57.803Z</time></trkpt><trkpt lat="41.5233509" lon="0.3401594"><ele>104.0</ele><time>2026-05-04T11:31:58.802Z</time></trkpt><trkpt lat="41.5233718" lon="0.3403272"><ele>104.0</ele><time>2026-05-04T11:32:00.803Z</time></trkpt><trkpt lat="41.5233838" lon="0.3404234"><ele>104.0</ele><time>2026-05-04T11:32:01.803Z</time></trkpt><trkpt lat="41.5234081" lon="0.3405203"><ele>103.99999999999999</ele><time>2026-05-04T11:32:02.803Z</time></trkpt><trkpt lat="41.5234449" lon="0.3406113"><ele>104.0</ele><time>2026-05-04T11:32:03.802Z</time></trkpt><trkpt lat="41.5234878" lon="0.3406995"><ele>103.83333333333333</ele><time>2026-05-04T11:32:04.803Z</time></trkpt><trkpt lat="41.5235282" lon="0.3407893"><ele>103.66666666666666</ele><time>2026-05-04T11:32:05.802Z</time></trkpt><trkpt lat="41.5235577" lon="0.3408919"><ele>103.5</ele><time>2026-05-04T11:32:06.802Z</time></trkpt><trkpt lat="41.5235836" lon="0.340999"><ele>103.33333333333334</ele><time>2026-05-04T11:32:07.803Z</time></trkpt><trkpt lat="41.5236071" lon="0.3411113"><ele>103.16666666666667</ele><time>2026-05-04T11:32:08.803Z</time></trkpt><trkpt lat="41.5236393" lon="0.3412267"><ele>103.0</ele><time>2026-05-04T11:32:09.803Z</time></trkpt><trkpt lat="41.5236712" lon="0.3413462"><ele>103.0</ele><time>2026-05-04T11:32:10.803Z</time></trkpt><trkpt lat="41.5237027" lon="0.3414683"><ele>103.0</ele><time>2026-05-04T11:32:11.803Z</time></trkpt><trkpt lat="41.5237365" lon="0.3415946"><ele>103.0</ele><time>2026-05-04T11:32:12.803Z</time></trkpt><trkpt lat="41.52377" lon="0.3417195"><ele>103.0</ele><time>2026-05-04T11:32:13.802Z</time></trkpt><trkpt lat="41.5238059" lon="0.3418475"><ele>103.0</ele><time>2026-05-04T11:32:14.803Z</time></trkpt><trkpt lat="41.5238399" lon="0.3419772"><ele>103.0</ele><time>2026-05-04T11:32:15.803Z</time></trkpt><trkpt lat="41.523876" lon="0.3421131"><ele>103.0</ele><time>2026-05-04T11:32:16.803Z</time></trkpt><trkpt lat="41.5239144" lon="0.3422484"><ele>103.0</ele><time>2026-05-04T11:32:17.803Z</time></trkpt><trkpt lat="41.5239489" lon="0.3423852"><ele>103.0</ele><time>2026-05-04T11:32:18.803Z</time></trkpt><trkpt lat="41.5239883" lon="0.3425247"><ele>103.0</ele><time>2026-05-04T11:32:19.802Z</time></trkpt><trkpt lat="41.5240259" lon="0.3426625"><ele>103.0</ele><time>2026-05-04T11:32:20.803Z</time></trkpt><trkpt lat="41.5240643" lon="0.3428046"><ele>103.0</ele><time>2026-05-04T11:32:21.803Z</time></trkpt><trkpt lat="41.5241029" lon="0.3429474"><ele>103.0</ele><time>2026-05-04T11:32:22.802Z</time></trkpt><trkpt lat="41.5241367" lon="0.343088"><ele>103.0</ele><time>2026-05-04T11:32:23.803Z</time></trkpt><trkpt lat="41.5241714" lon="0.3432262"><ele>103.0</ele><time>2026-05-04T11:32:24.802Z</time></trkpt><trkpt lat="41.5242092" lon="0.3433688"><ele>103.0</ele><time>2026-05-04T11:32:25.803Z</time></trkpt><trkpt lat="41.5242481" lon="0.3435132"><ele>103.0</ele><time>2026-05-04T11:32:26.802Z</time></trkpt><trkpt lat="41.5242923" lon="0.3436584"><ele>103.0</ele><time>2026-05-04T11:32:27.802Z</time></trkpt><trkpt lat="41.5243314" lon="0.3438011"><ele>103.0</ele><time>2026-05-04T11:32:28.803Z</time></trkpt><trkpt lat="41.5243702" lon="0.3439487"><ele>102.0</ele><time>2026-05-04T11:32:29.803Z</time></trkpt><trkpt lat="41.5244117" lon="0.3441003"><ele>101.0</ele><time>2026-05-04T11:32:30.803Z</time></trkpt><trkpt lat="41.5244542" lon="0.3442492"><ele>100.0</ele><time>2026-05-04T11:32:31.803Z</time></trkpt><trkpt lat="41.5244924" lon="0.3443983"><ele>99.0</ele><time>2026-05-04T11:32:32.803Z</time></trkpt><trkpt lat="41.5245306" lon="0.3445491"><ele>99.0</ele><time>2026-05-04T11:32:33.802Z</time></trkpt><trkpt lat="41.5245723" lon="0.3447015"><ele>99.0</ele><time>2026-05-04T11:32:34.803Z</time></trkpt><trkpt lat="41.5246143" lon="0.3448549"><ele>99.0</ele><time>2026-05-04T11:32:35.803Z</time></trkpt><trkpt lat="41.5246569" lon="0.345011"><ele>99.0</ele><time>2026-05-04T11:32:36.803Z</time></trkpt><trkpt lat="41.5247036" lon="0.3451653"><ele>98.5</ele><time>2026-05-04T11:32:37.803Z</time></trkpt><trkpt lat="41.5247498" lon="0.345323"><ele>98.0</ele><time>2026-05-04T11:32:38.802Z</time></trkpt><trkpt lat="41.5247911" lon="0.3454715"><ele>97.5</ele><time>2026-05-04T11:32:39.803Z</time></trkpt><trkpt lat="41.5248323" lon="0.3456298"><ele>97.0</ele><time>2026-05-04T11:32:40.803Z</time></trkpt><trkpt lat="41.5248717" lon="0.3457879"><ele>97.0</ele><time>2026-05-04T11:32:41.803Z</time></trkpt><trkpt lat="41.5249105" lon="0.3459478"><ele>97.0</ele><time>2026-05-04T11:32:42.803Z</time></trkpt><trkpt lat="41.5249525" lon="0.3461045"><ele>97.0</ele><time>2026-05-04T11:32:43.803Z</time></trkpt><trkpt lat="41.5249964" lon="0.3462582"><ele>97.0</ele><time>2026-05-04T11:32:44.803Z</time></trkpt><trkpt lat="41.5250403" lon="0.3464138"><ele>99.0</ele><time>2026-05-04T11:32:45.803Z</time></trkpt><trkpt lat="41.5250831" lon="0.3465674"><ele>101.0</ele><time>2026-05-04T11:32:46.803Z</time></trkpt><trkpt lat="41.5251225" lon="0.3467233"><ele>103.0</ele><time>2026-05-04T11:32:47.802Z</time></trkpt><trkpt lat="41.5251651" lon="0.3468776"><ele>105.0</ele><time>2026-05-04T11:32:48.803Z</time></trkpt><trkpt lat="41.5252056" lon="0.3470312"><ele>105.0</ele><time>2026-05-04T11:32:49.803Z</time></trkpt><trkpt lat="41.5252439" lon="0.347187"><ele>105.0</ele><time>2026-05-04T11:32:50.802Z</time></trkpt><trkpt lat="41.5252773" lon="0.3473384"><ele>105.0</ele><time>2026-05-04T11:32:51.803Z</time></trkpt><trkpt lat="41.5253103" lon="0.3474879"><ele>105.0</ele><time>2026-05-04T11:32:52.803Z</time></trkpt><trkpt lat="41.5253439" lon="0.3476426"><ele>106.0</ele><time>2026-05-04T11:32:53.802Z</time></trkpt><trkpt lat="41.5253724" lon="0.3477834"><ele>107.0</ele><time>2026-05-04T11:32:54.803Z</time></trkpt><trkpt lat="41.5253891" lon="0.3478922"><ele>108.0</ele><time>2026-05-04T11:32:55.803Z</time></trkpt><trkpt lat="41.5254" lon="0.3480071"><ele>109.0</ele><time>2026-05-04T11:32:56.803Z</time></trkpt><trkpt lat="41.5254018" lon="0.3481208"><ele>110.0</ele><time>2026-05-04T11:32:57.803Z</time></trkpt><trkpt lat="41.5254029" lon="0.3482367"><ele>110.2</ele><time>2026-05-04T11:32:58.803Z</time></trkpt><trkpt lat="41.525398" lon="0.3483545"><ele>110.4</ele><time>2026-05-04T11:32:59.803Z</time></trkpt><trkpt lat="41.5253905" lon="0.3484751"><ele>110.6</ele><time>2026-05-04T11:33:00.803Z</time></trkpt><trkpt lat="41.5253809" lon="0.3485935"><ele>110.8</ele><time>2026-05-04T11:33:01.803Z</time></trkpt><trkpt lat="41.5253646" lon="0.3487122"><ele>111.0</ele><time>2026-05-04T11:33:02.803Z</time></trkpt><trkpt lat="41.5253453" lon="0.348837"><ele>115.0</ele><time>2026-05-04T11:33:03.802Z</time></trkpt><trkpt lat="41.5253189" lon="0.348967"><ele>119.0</ele><time>2026-05-04T11:33:04.803Z</time></trkpt><trkpt lat="41.5252865" lon="0.349098"><ele>123.0</ele><time>2026-05-04T11:33:05.802Z</time></trkpt><trkpt lat="41.5252532" lon="0.3492318"><ele>127.0</ele><time>2026-05-04T11:33:06.803Z</time></trkpt><trkpt lat="41.5252175" lon="0.3493674"><ele>131.0</ele><time>2026-05-04T11:33:07.803Z</time></trkpt><trkpt lat="41.5251827" lon="0.3495002"><ele>131.0</ele><time>2026-05-04T11:33:08.803Z</time></trkpt><trkpt lat="41.5251459" lon="0.3496347"><ele>131.0</ele><time>2026-05-04T11:33:09.803Z</time></trkpt><trkpt lat="41.5251114" lon="0.3497715"><ele>131.0</ele><time>2026-05-04T11:33:10.803Z</time></trkpt><trkpt lat="41.5250764" lon="0.3499105"><ele>131.0</ele><time>2026-05-04T11:33:11.803Z</time></trkpt><trkpt lat="41.5250402" lon="0.3500473"><ele>131.0</ele><time>2026-05-04T11:33:12.803Z</time></trkpt><trkpt lat="41.5250035" lon="0.3501916"><ele>130.0</ele><time>2026-05-04T11:33:13.803Z</time></trkpt><trkpt lat="41.5249645" lon="0.350333"><ele>129.0</ele><time>2026-05-04T11:33:14.803Z</time></trkpt><trkpt lat="41.5249283" lon="0.3504696"><ele>128.0</ele><time>2026-05-04T11:33:15.802Z</time></trkpt><trkpt lat="41.5248913" lon="0.3506083"><ele>127.0</ele><time>2026-05-04T11:33:16.803Z</time></trkpt><trkpt lat="41.5248519" lon="0.3507477"><ele>126.0</ele><time>2026-05-04T11:33:17.802Z</time></trkpt><trkpt lat="41.5248084" lon="0.3508907"><ele>125.8</ele><time>2026-05-04T11:33:18.803Z</time></trkpt><trkpt lat="41.5247688" lon="0.351034"><ele>125.6</ele><time>2026-05-04T11:33:19.803Z</time></trkpt><trkpt lat="41.5247339" lon="0.3511774"><ele>125.4</ele><time>2026-05-04T11:33:20.803Z</time></trkpt><trkpt lat="41.5246962" lon="0.3513098"><ele>125.2</ele><time>2026-05-04T11:33:21.803Z</time></trkpt><trkpt lat="41.5246573" lon="0.3514436"><ele>125.0</ele><time>2026-05-04T11:33:22.803Z</time></trkpt><trkpt lat="41.5246218" lon="0.3515827"><ele>124.4</ele><time>2026-05-04T11:33:23.802Z</time></trkpt><trkpt lat="41.5245824" lon="0.351719"><ele>123.8</ele><time>2026-05-04T11:33:24.803Z</time></trkpt><trkpt lat="41.524543" lon="0.3518569"><ele>123.19999999999999</ele><time>2026-05-04T11:33:25.803Z</time></trkpt><trkpt lat="41.5245071" lon="0.3519984"><ele>122.6</ele><time>2026-05-04T11:33:26.802Z</time></trkpt><trkpt lat="41.5244671" lon="0.3521395"><ele>122.0</ele><time>2026-05-04T11:33:27.803Z</time></trkpt><trkpt lat="41.5244299" lon="0.3522782"><ele>129.5</ele><time>2026-05-04T11:33:28.803Z</time></trkpt><trkpt lat="41.5243952" lon="0.3524191"><ele>137.0</ele><time>2026-05-04T11:33:29.803Z</time></trkpt><trkpt lat="41.5243558" lon="0.3525624"><ele>144.5</ele><time>2026-05-04T11:33:30.803Z</time></trkpt><trkpt lat="41.5243147" lon="0.3527038"><ele>152.0</ele><time>2026-05-04T11:33:31.803Z</time></trkpt><trkpt lat="41.5242744" lon="0.3528493"><ele>152.0</ele><time>2026-05-04T11:33:32.803Z</time></trkpt><trkpt lat="41.5242336" lon="0.3529939"><ele>152.0</ele><time>2026-05-04T11:33:33.803Z</time></trkpt><trkpt lat="41.5241926" lon="0.3531365"><ele>152.0</ele><time>2026-05-04T11:33:34.802Z</time></trkpt><trkpt lat="41.5241537" lon="0.3532797"><ele>152.0</ele><time>2026-05-04T11:33:35.803Z</time></trkpt><trkpt lat="41.5241168" lon="0.3534249"><ele>152.0</ele><time>2026-05-04T11:33:36.802Z</time></trkpt><trkpt lat="41.5240755" lon="0.3535695"><ele>152.0</ele><time>2026-05-04T11:33:37.803Z</time></trkpt><trkpt lat="41.5240362" lon="0.3537117"><ele>152.0</ele><time>2026-05-04T11:33:38.803Z</time></trkpt><trkpt lat="41.5239966" lon="0.3538534"><ele>152.0</ele><time>2026-05-04T11:33:39.803Z</time></trkpt><trkpt lat="41.5239587" lon="0.3539918"><ele>152.0</ele><time>2026-05-04T11:33:40.803Z</time></trkpt><trkpt lat="41.523916" lon="0.3541301"><ele>152.0</ele><time>2026-05-04T11:33:41.802Z</time></trkpt><trkpt lat="41.5238795" lon="0.3542645"><ele>152.0</ele><time>2026-05-04T11:33:42.803Z</time></trkpt><trkpt lat="41.523847" lon="0.3544051"><ele>152.0</ele><time>2026-05-04T11:33:43.803Z</time></trkpt><trkpt lat="41.5238082" lon="0.3545419"><ele>152.0</ele><time>2026-05-04T11:33:44.803Z</time></trkpt><trkpt lat="41.523771" lon="0.3546838"><ele>153.6</ele><time>2026-05-04T11:33:45.803Z</time></trkpt><trkpt lat="41.523737" lon="0.3548255"><ele>155.2</ele><time>2026-05-04T11:33:46.803Z</time></trkpt><trkpt lat="41.5237006" lon="0.3549655"><ele>156.8</ele><time>2026-05-04T11:33:47.803Z</time></trkpt><trkpt lat="41.5236606" lon="0.3551037"><ele>158.4</ele><time>2026-05-04T11:33:48.803Z</time></trkpt><trkpt lat="41.5236235" lon="0.3552416"><ele>160.0</ele><time>2026-05-04T11:33:49.803Z</time></trkpt><trkpt lat="41.5235953" lon="0.355378"><ele>160.0</ele><time>2026-05-04T11:33:50.803Z</time></trkpt><trkpt lat="41.5235545" lon="0.3555191"><ele>160.0</ele><time>2026-05-04T11:33:51.802Z</time></trkpt><trkpt lat="41.5235178" lon="0.3556644"><ele>160.0</ele><time>2026-05-04T11:33:52.803Z</time></trkpt><trkpt lat="41.5234842" lon="0.3558059"><ele>160.0</ele><time>2026-05-04T11:33:53.802Z</time></trkpt><trkpt lat="41.5234456" lon="0.355951"><ele>159.5</ele><time>2026-05-04T11:33:54.803Z</time></trkpt><trkpt lat="41.5234146" lon="0.3560953"><ele>159.0</ele><time>2026-05-04T11:33:55.803Z</time></trkpt><trkpt lat="41.5233895" lon="0.3562447"><ele>158.5</ele><time>2026-05-04T11:33:56.803Z</time></trkpt><trkpt lat="41.5233653" lon="0.3563963"><ele>158.0</ele><time>2026-05-04T11:33:57.803Z</time></trkpt><trkpt lat="41.5233573" lon="0.3565543"><ele>157.8</ele><time>2026-05-04T11:33:58.803Z</time></trkpt><trkpt lat="41.523358" lon="0.3567029"><ele>157.60000000000002</ele><time>2026-05-04T11:33:59.803Z</time></trkpt><trkpt lat="41.5233682" lon="0.3568472"><ele>157.39999999999998</ele><time>2026-05-04T11:34:00.803Z</time></trkpt><trkpt lat="41.5233758" lon="0.3569826"><ele>157.2</ele><time>2026-05-04T11:34:01.802Z</time></trkpt><trkpt lat="41.523391" lon="0.357109"><ele>157.0</ele><time>2026-05-04T11:34:02.803Z</time></trkpt><trkpt lat="41.5234103" lon="0.3572293"><ele>157.0</ele><time>2026-05-04T11:34:03.804Z</time></trkpt><trkpt lat="41.5234218" lon="0.3573505"><ele>157.0</ele><time>2026-05-04T11:34:04.804Z</time></trkpt><trkpt lat="41.5234368" lon="0.3574778"><ele>157.0</ele><time>2026-05-04T11:34:05.804Z</time></trkpt><trkpt lat="41.5234538" lon="0.3576097"><ele>157.0</ele><time>2026-05-04T11:34:06.804Z</time></trkpt><trkpt lat="41.5234699" lon="0.3577495"><ele>157.0</ele><time>2026-05-04T11:34:07.804Z</time></trkpt><trkpt lat="41.5234886" lon="0.3578773"><ele>157.0</ele><time>2026-05-04T11:34:08.804Z</time></trkpt><trkpt lat="41.5235087" lon="0.3580042"><ele>157.0</ele><time>2026-05-04T11:34:09.803Z</time></trkpt><trkpt lat="41.5235282" lon="0.3581259"><ele>157.0</ele><time>2026-05-04T11:34:10.804Z</time></trkpt><trkpt lat="41.5235483" lon="0.3582533"><ele>157.0</ele><time>2026-05-04T11:34:11.803Z</time></trkpt><trkpt lat="41.5235678" lon="0.3583908"><ele>157.0</ele><time>2026-05-04T11:34:12.804Z</time></trkpt><trkpt lat="41.5235888" lon="0.3585267"><ele>158.39999999999998</ele><time>2026-05-04T11:34:13.804Z</time></trkpt><trkpt lat="41.5236065" lon="0.3586579"><ele>159.79999999999998</ele><time>2026-05-04T11:34:14.804Z</time></trkpt><trkpt lat="41.5236251" lon="0.3587841"><ele>161.2</ele><time>2026-05-04T11:34:15.804Z</time></trkpt><trkpt lat="41.5236426" lon="0.3589105"><ele>162.6</ele><time>2026-05-04T11:34:16.804Z</time></trkpt><trkpt lat="41.5236663" lon="0.3590312"><ele>164.0</ele><time>2026-05-04T11:34:17.804Z</time></trkpt><trkpt lat="41.5236846" lon="0.3591524"><ele>165.39999999999998</ele><time>2026-05-04T11:34:18.804Z</time></trkpt><trkpt lat="41.5237026" lon="0.3592834"><ele>166.8</ele><time>2026-05-04T11:34:19.804Z</time></trkpt><trkpt lat="41.5237223" lon="0.3594059"><ele>168.2</ele><time>2026-05-04T11:34:20.804Z</time></trkpt><trkpt lat="41.5237422" lon="0.3595334"><ele>169.60000000000002</ele><time>2026-05-04T11:34:21.804Z</time></trkpt><trkpt lat="41.5237601" lon="0.3596582"><ele>171.0</ele><time>2026-05-04T11:34:22.804Z</time></trkpt><trkpt lat="41.5237803" lon="0.3597874"><ele>172.8</ele><time>2026-05-04T11:34:23.804Z</time></trkpt><trkpt lat="41.5237986" lon="0.3599172"><ele>174.60000000000002</ele><time>2026-05-04T11:34:24.804Z</time></trkpt><trkpt lat="41.5238121" lon="0.360052"><ele>176.4</ele><time>2026-05-04T11:34:25.804Z</time></trkpt><trkpt lat="41.5238329" lon="0.360185"><ele>178.2</ele><time>2026-05-04T11:34:26.803Z</time></trkpt><trkpt lat="41.5238501" lon="0.3603273"><ele>180.0</ele><time>2026-05-04T11:34:27.804Z</time></trkpt><trkpt lat="41.5238651" lon="0.3604706"><ele>180.6</ele><time>2026-05-04T11:34:28.804Z</time></trkpt><trkpt lat="41.5238795" lon="0.3606128"><ele>181.2</ele><time>2026-05-04T11:34:29.804Z</time></trkpt><trkpt lat="41.5238935" lon="0.3607557"><ele>181.8</ele><time>2026-05-04T11:34:30.804Z</time></trkpt><trkpt lat="41.5239043" lon="0.3609046"><ele>182.4</ele><time>2026-05-04T11:34:31.804Z</time></trkpt><trkpt lat="41.5239036" lon="0.3610525"><ele>183.0</ele><time>2026-05-04T11:34:32.804Z</time></trkpt><trkpt lat="41.5239052" lon="0.3611992"><ele>183.0</ele><time>2026-05-04T11:34:33.804Z</time></trkpt><trkpt lat="41.5238949" lon="0.3613567"><ele>183.0</ele><time>2026-05-04T11:34:34.804Z</time></trkpt><trkpt lat="41.5238836" lon="0.3615306"><ele>183.0</ele><time>2026-05-04T11:34:35.804Z</time></trkpt><trkpt lat="41.5238667" lon="0.3616963"><ele>183.0</ele><time>2026-05-04T11:34:36.804Z</time></trkpt><trkpt lat="41.5238448" lon="0.3618637"><ele>182.75</ele><time>2026-05-04T11:34:37.804Z</time></trkpt><trkpt lat="41.523822" lon="0.3620361"><ele>182.5</ele><time>2026-05-04T11:34:38.804Z</time></trkpt><trkpt lat="41.5238001" lon="0.3622084"><ele>182.25</ele><time>2026-05-04T11:34:39.804Z</time></trkpt><trkpt lat="41.523774" lon="0.3623866"><ele>182.0</ele><time>2026-05-04T11:34:40.804Z</time></trkpt><trkpt lat="41.5237517" lon="0.362566"><ele>182.5</ele><time>2026-05-04T11:34:41.804Z</time></trkpt><trkpt lat="41.5237268" lon="0.3627411"><ele>183.0</ele><time>2026-05-04T11:34:42.804Z</time></trkpt><trkpt lat="41.5237019" lon="0.3629058"><ele>183.5</ele><time>2026-05-04T11:34:43.804Z</time></trkpt><trkpt lat="41.5236843" lon="0.3630627"><ele>184.0</ele><time>2026-05-04T11:34:44.804Z</time></trkpt><trkpt lat="41.5236663" lon="0.3632138"><ele>185.0</ele><time>2026-05-04T11:34:45.804Z</time></trkpt><trkpt lat="41.5236505" lon="0.3633528"><ele>186.0</ele><time>2026-05-04T11:34:46.804Z</time></trkpt><trkpt lat="41.5236351" lon="0.3634855"><ele>187.0</ele><time>2026-05-04T11:34:47.804Z</time></trkpt><trkpt lat="41.5236173" lon="0.3636071"><ele>188.0</ele><time>2026-05-04T11:34:48.804Z</time></trkpt><trkpt lat="41.5235918" lon="0.363717"><ele>189.0</ele><time>2026-05-04T11:34:49.804Z</time></trkpt><trkpt lat="41.5235438" lon="0.3638233"><ele>188.5</ele><time>2026-05-04T11:34:50.804Z</time></trkpt><trkpt lat="41.5234852" lon="0.3639056"><ele>188.0</ele><time>2026-05-04T11:34:51.804Z</time></trkpt><trkpt lat="41.5234083" lon="0.3639619"><ele>187.5</ele><time>2026-05-04T11:34:52.803Z</time></trkpt><trkpt lat="41.5233323" lon="0.363995"><ele>187.0</ele><time>2026-05-04T11:34:53.804Z</time></trkpt><trkpt lat="41.5232446" lon="0.3639964"><ele>186.5</ele><time>2026-05-04T11:34:54.804Z</time></trkpt><trkpt lat="41.5231457" lon="0.3639808"><ele>186.0</ele><time>2026-05-04T11:34:55.804Z</time></trkpt><trkpt lat="41.5230544" lon="0.3639613"><ele>186.0</ele><time>2026-05-04T11:34:56.804Z</time></trkpt><trkpt lat="41.5229616" lon="0.3639593"><ele>186.0</ele><time>2026-05-04T11:34:57.804Z</time></trkpt><trkpt lat="41.5228706" lon="0.3639676"><ele>186.0</ele><time>2026-05-04T11:34:58.803Z</time></trkpt><trkpt lat="41.522784" lon="0.3639788"><ele>186.0</ele><time>2026-05-04T11:34:59.804Z</time></trkpt><trkpt lat="41.5226976" lon="0.3639857"><ele>186.0</ele><time>2026-05-04T11:35:00.804Z</time></trkpt><trkpt lat="41.5226085" lon="0.3640013"><ele>186.0</ele><time>2026-05-04T11:35:01.804Z</time></trkpt><trkpt lat="41.5225247" lon="0.3640257"><ele>186.60000000000002</ele><time>2026-05-04T11:35:02.804Z</time></trkpt><trkpt lat="41.5224399" lon="0.3640595"><ele>187.2</ele><time>2026-05-04T11:35:03.804Z</time></trkpt><trkpt lat="41.5223518" lon="0.3641054"><ele>187.8</ele><time>2026-05-04T11:35:04.804Z</time></trkpt><trkpt lat="41.52226" lon="0.3641592"><ele>188.39999999999998</ele><time>2026-05-04T11:35:05.803Z</time></trkpt><trkpt lat="41.5221647" lon="0.3642138"><ele>189.0</ele><time>2026-05-04T11:35:06.804Z</time></trkpt><trkpt lat="41.5220648" lon="0.3642774"><ele>189.0</ele><time>2026-05-04T11:35:07.803Z</time></trkpt><trkpt lat="41.5219636" lon="0.364348"><ele>189.0</ele><time>2026-05-04T11:35:08.804Z</time></trkpt><trkpt lat="41.5218561" lon="0.3644231"><ele>189.0</ele><time>2026-05-04T11:35:09.804Z</time></trkpt><trkpt lat="41.5217529" lon="0.3645039"><ele>189.0</ele><time>2026-05-04T11:35:10.804Z</time></trkpt><trkpt lat="41.5216541" lon="0.3645854"><ele>189.0</ele><time>2026-05-04T11:35:11.804Z</time></trkpt><trkpt lat="41.5215518" lon="0.3646602"><ele>189.0</ele><time>2026-05-04T11:35:12.804Z</time></trkpt><trkpt lat="41.5214509" lon="0.3647321"><ele>189.0</ele><time>2026-05-04T11:35:13.804Z</time></trkpt><trkpt lat="41.5213571" lon="0.3648039"><ele>189.0</ele><time>2026-05-04T11:35:14.804Z</time></trkpt><trkpt lat="41.5212639" lon="0.3648807"><ele>189.0</ele><time>2026-05-04T11:35:15.804Z</time></trkpt><trkpt lat="41.5211684" lon="0.364959"><ele>188.0</ele><time>2026-05-04T11:35:16.804Z</time></trkpt><trkpt lat="41.5210716" lon="0.3650356"><ele>187.0</ele><time>2026-05-04T11:35:17.804Z</time></trkpt><trkpt lat="41.5209677" lon="0.3651113"><ele>186.0</ele><time>2026-05-04T11:35:18.804Z</time></trkpt><trkpt lat="41.5208607" lon="0.3651864"><ele>185.0</ele><time>2026-05-04T11:35:19.804Z</time></trkpt><trkpt lat="41.5207496" lon="0.3652669"><ele>185.0</ele><time>2026-05-04T11:35:20.804Z</time></trkpt><trkpt lat="41.5206398" lon="0.3653502"><ele>185.0</ele><time>2026-05-04T11:35:21.804Z</time></trkpt><trkpt lat="41.5205262" lon="0.3654351"><ele>185.0</ele><time>2026-05-04T11:35:22.804Z</time></trkpt><trkpt lat="41.5204119" lon="0.3655194"><ele>185.0</ele><time>2026-05-04T11:35:23.804Z</time></trkpt><trkpt lat="41.5202995" lon="0.3656045"><ele>184.0</ele><time>2026-05-04T11:35:24.804Z</time></trkpt><trkpt lat="41.5201881" lon="0.3656868"><ele>183.0</ele><time>2026-05-04T11:35:25.804Z</time></trkpt><trkpt lat="41.5200762" lon="0.3657691"><ele>182.0</ele><time>2026-05-04T11:35:26.803Z</time></trkpt><trkpt lat="41.5199694" lon="0.3658496"><ele>181.0</ele><time>2026-05-04T11:35:27.804Z</time></trkpt><trkpt lat="41.5198618" lon="0.3659297"><ele>181.0</ele><time>2026-05-04T11:35:28.803Z</time></trkpt><trkpt lat="41.5197517" lon="0.3660099"><ele>181.0</ele><time>2026-05-04T11:35:29.804Z</time></trkpt><trkpt lat="41.519635" lon="0.3660888"><ele>181.0</ele><time>2026-05-04T11:35:30.803Z</time></trkpt><trkpt lat="41.5195208" lon="0.366162"><ele>181.0</ele><time>2026-05-04T11:35:31.804Z</time></trkpt><trkpt lat="41.5194043" lon="0.3662318"><ele>181.25</ele><time>2026-05-04T11:35:32.804Z</time></trkpt><trkpt lat="41.5192904" lon="0.3662994"><ele>181.5</ele><time>2026-05-04T11:35:33.804Z</time></trkpt><trkpt lat="41.519171" lon="0.3663564"><ele>181.75</ele><time>2026-05-04T11:35:34.804Z</time></trkpt><trkpt lat="41.5190463" lon="0.3664022"><ele>182.0</ele><time>2026-05-04T11:35:35.804Z</time></trkpt><trkpt lat="41.5189217" lon="0.3664478"><ele>179.75</ele><time>2026-05-04T11:35:36.804Z</time></trkpt><trkpt lat="41.5187978" lon="0.3664869"><ele>177.5</ele><time>2026-05-04T11:35:37.803Z</time></trkpt><trkpt lat="41.5186766" lon="0.3665301"><ele>175.25</ele><time>2026-05-04T11:35:38.804Z</time></trkpt><trkpt lat="41.5185569" lon="0.3665801"><ele>173.0</ele><time>2026-05-04T11:35:39.804Z</time></trkpt><trkpt lat="41.5184408" lon="0.3666273"><ele>172.75</ele><time>2026-05-04T11:35:40.803Z</time></trkpt><trkpt lat="41.5183258" lon="0.3666801"><ele>172.5</ele><time>2026-05-04T11:35:41.804Z</time></trkpt><trkpt lat="41.5182152" lon="0.3667424"><ele>172.25</ele><time>2026-05-04T11:35:42.803Z</time></trkpt><trkpt lat="41.5181026" lon="0.3668243"><ele>172.0</ele><time>2026-05-04T11:35:43.803Z</time></trkpt><trkpt lat="41.5179946" lon="0.3669082"><ele>170.25</ele><time>2026-05-04T11:35:44.804Z</time></trkpt><trkpt lat="41.5178923" lon="0.3669994"><ele>168.5</ele><time>2026-05-04T11:35:45.804Z</time></trkpt><trkpt lat="41.517797" lon="0.3671002"><ele>166.75</ele><time>2026-05-04T11:35:46.803Z</time></trkpt><trkpt lat="41.5177108" lon="0.3672111"><ele>165.0</ele><time>2026-05-04T11:35:47.804Z</time></trkpt><trkpt lat="41.5176339" lon="0.3673223"><ele>164.75</ele><time>2026-05-04T11:35:48.804Z</time></trkpt><trkpt lat="41.5175583" lon="0.3674389"><ele>164.5</ele><time>2026-05-04T11:35:49.804Z</time></trkpt><trkpt lat="41.5174805" lon="0.3675571"><ele>164.25</ele><time>2026-05-04T11:35:50.804Z</time></trkpt><trkpt lat="41.5174069" lon="0.367682"><ele>164.0</ele><time>2026-05-04T11:35:51.804Z</time></trkpt><trkpt lat="41.5173256" lon="0.3678051"><ele>164.0</ele><time>2026-05-04T11:35:52.803Z</time></trkpt><trkpt lat="41.5172407" lon="0.3679217"><ele>164.0</ele><time>2026-05-04T11:35:53.804Z</time></trkpt><trkpt lat="41.5171493" lon="0.3680381"><ele>164.0</ele><time>2026-05-04T11:35:54.804Z</time></trkpt><trkpt lat="41.5170527" lon="0.3681511"><ele>164.0</ele><time>2026-05-04T11:35:55.804Z</time></trkpt><trkpt lat="41.5169452" lon="0.3682579"><ele>162.25</ele><time>2026-05-04T11:35:56.804Z</time></trkpt><trkpt lat="41.516832" lon="0.3683565"><ele>160.5</ele><time>2026-05-04T11:35:57.804Z</time></trkpt><trkpt lat="41.5167136" lon="0.3684413"><ele>158.75</ele><time>2026-05-04T11:35:58.804Z</time></trkpt><trkpt lat="41.5165834" lon="0.3685105"><ele>157.0</ele><time>2026-05-04T11:35:59.804Z</time></trkpt><trkpt lat="41.5164423" lon="0.3685657"><ele>157.0</ele><time>2026-05-04T11:36:00.804Z</time></trkpt><trkpt lat="41.5162972" lon="0.3685996"><ele>157.0</ele><time>2026-05-04T11:36:01.803Z</time></trkpt><trkpt lat="41.5161478" lon="0.3686217"><ele>157.0</ele><time>2026-05-04T11:36:02.804Z</time></trkpt><trkpt lat="41.5160009" lon="0.368612"><ele>157.0</ele><time>2026-05-04T11:36:03.804Z</time></trkpt><trkpt lat="41.5158567" lon="0.3685914"><ele>156.5</ele><time>2026-05-04T11:36:04.804Z</time></trkpt><trkpt lat="41.5157253" lon="0.3685464"><ele>156.0</ele><time>2026-05-04T11:36:05.804Z</time></trkpt><trkpt lat="41.5155987" lon="0.3684892"><ele>155.5</ele><time>2026-05-04T11:36:06.804Z</time></trkpt><trkpt lat="41.5154722" lon="0.3684165"><ele>155.0</ele><time>2026-05-04T11:36:07.803Z</time></trkpt><trkpt lat="41.5153486" lon="0.3683328"><ele>155.0</ele><time>2026-05-04T11:36:08.804Z</time></trkpt><trkpt lat="41.5152277" lon="0.3682427"><ele>155.0</ele><time>2026-05-04T11:36:09.804Z</time></trkpt><trkpt lat="41.51511" lon="0.3681429"><ele>155.0</ele><time>2026-05-04T11:36:10.804Z</time></trkpt><trkpt lat="41.5149948" lon="0.3680362"><ele>155.0</ele><time>2026-05-04T11:36:11.804Z</time></trkpt><trkpt lat="41.5148871" lon="0.3679229"><ele>154.5</ele><time>2026-05-04T11:36:12.804Z</time></trkpt><trkpt lat="41.5147831" lon="0.3678096"><ele>154.0</ele><time>2026-05-04T11:36:13.804Z</time></trkpt><trkpt lat="41.5146831" lon="0.3677143"><ele>153.5</ele><time>2026-05-04T11:36:14.804Z</time></trkpt><trkpt lat="41.5145713" lon="0.3676314"><ele>153.0</ele><time>2026-05-04T11:36:15.804Z</time></trkpt><trkpt lat="41.5144561" lon="0.3675638"><ele>153.0</ele><time>2026-05-04T11:36:16.804Z</time></trkpt><trkpt lat="41.5143372" lon="0.367519"><ele>153.0</ele><time>2026-05-04T11:36:17.803Z</time></trkpt><trkpt lat="41.5142277" lon="0.3674898"><ele>153.0</ele><time>2026-05-04T11:36:18.804Z</time></trkpt><trkpt lat="41.5141277" lon="0.3674772"><ele>153.0</ele><time>2026-05-04T11:36:19.804Z</time></trkpt><trkpt lat="41.5140499" lon="0.3674706"><ele>153.0</ele><time>2026-05-04T11:36:20.804Z</time></trkpt><trkpt lat="41.5139749" lon="0.3674652"><ele>153.0</ele><time>2026-05-04T11:36:21.804Z</time></trkpt><trkpt lat="41.5138956" lon="0.3674544"><ele>153.0</ele><time>2026-05-04T11:36:22.804Z</time></trkpt><trkpt lat="41.5138081" lon="0.3674268"><ele>153.0</ele><time>2026-05-04T11:36:23.804Z</time></trkpt><trkpt lat="41.5137151" lon="0.3673826"><ele>153.0</ele><time>2026-05-04T11:36:24.804Z</time></trkpt><trkpt lat="41.5136112" lon="0.3673424"><ele>153.0</ele><time>2026-05-04T11:36:25.803Z</time></trkpt><trkpt lat="41.5134987" lon="0.3673125"><ele>152.8</ele><time>2026-05-04T11:36:26.804Z</time></trkpt><trkpt lat="41.5133888" lon="0.3673027"><ele>152.60000000000002</ele><time>2026-05-04T11:36:27.803Z</time></trkpt><trkpt lat="41.5132814" lon="0.3673149"><ele>152.39999999999998</ele><time>2026-05-04T11:36:28.804Z</time></trkpt><trkpt lat="41.5131821" lon="0.3673549"><ele>152.2</ele><time>2026-05-04T11:36:29.803Z</time></trkpt><trkpt lat="41.5130911" lon="0.3674154"><ele>152.0</ele><time>2026-05-04T11:36:30.804Z</time></trkpt><trkpt lat="41.5130086" lon="0.3674921"><ele>152.0</ele><time>2026-05-04T11:36:31.804Z</time></trkpt><trkpt lat="41.5129458" lon="0.3675915"><ele>152.0</ele><time>2026-05-04T11:36:32.803Z</time></trkpt><trkpt lat="41.5128919" lon="0.3677034"><ele>152.0</ele><time>2026-05-04T11:36:33.804Z</time></trkpt><trkpt lat="41.5128455" lon="0.3678252"><ele>152.0</ele><time>2026-05-04T11:36:34.804Z</time></trkpt><trkpt lat="41.5128128" lon="0.3679494"><ele>152.0</ele><time>2026-05-04T11:36:35.805Z</time></trkpt><trkpt lat="41.5127809" lon="0.3680707"><ele>151.33333333333331</ele><time>2026-05-04T11:36:36.805Z</time></trkpt><trkpt lat="41.5127353" lon="0.368166"><ele>150.66666666666666</ele><time>2026-05-04T11:36:37.805Z</time></trkpt><trkpt lat="41.5126891" lon="0.3682433"><ele>150.0</ele><time>2026-05-04T11:36:38.805Z</time></trkpt><trkpt lat="41.5126281" lon="0.3682803"><ele>149.33333333333334</ele><time>2026-05-04T11:36:39.805Z</time></trkpt><trkpt lat="41.5125604" lon="0.368297"><ele>148.66666666666669</ele><time>2026-05-04T11:36:40.804Z</time></trkpt><trkpt lat="41.5124816" lon="0.3682896"><ele>148.0</ele><time>2026-05-04T11:36:41.805Z</time></trkpt><trkpt lat="41.5124022" lon="0.3682643"><ele>148.0</ele><time>2026-05-04T11:36:42.805Z</time></trkpt><trkpt lat="41.512316" lon="0.3682302"><ele>148.0</ele><time>2026-05-04T11:36:43.805Z</time></trkpt><trkpt lat="41.5122376" lon="0.3681801"><ele>148.0</ele><time>2026-05-04T11:36:44.805Z</time></trkpt><trkpt lat="41.5121515" lon="0.3681135"><ele>148.0</ele><time>2026-05-04T11:36:45.805Z</time></trkpt><trkpt lat="41.5120679" lon="0.3680378"><ele>148.0</ele><time>2026-05-04T11:36:46.805Z</time></trkpt><trkpt lat="41.5119747" lon="0.3679576"><ele>147.0</ele><time>2026-05-04T11:36:47.804Z</time></trkpt><trkpt lat="41.5118843" lon="0.3678679"><ele>146.0</ele><time>2026-05-04T11:36:48.805Z</time></trkpt><trkpt lat="41.5117921" lon="0.3677653"><ele>145.0</ele><time>2026-05-04T11:36:49.805Z</time></trkpt><trkpt lat="41.5117075" lon="0.3676538"><ele>144.0</ele><time>2026-05-04T11:36:50.804Z</time></trkpt><trkpt lat="41.5116231" lon="0.3675307"><ele>144.0</ele><time>2026-05-04T11:36:51.805Z</time></trkpt><trkpt lat="41.5115327" lon="0.3673978"><ele>144.0</ele><time>2026-05-04T11:36:52.805Z</time></trkpt><trkpt lat="41.5114335" lon="0.3672704"><ele>144.0</ele><time>2026-05-04T11:36:53.805Z</time></trkpt><trkpt lat="41.511354" lon="0.3671387"><ele>144.0</ele><time>2026-05-04T11:36:54.805Z</time></trkpt><trkpt lat="41.5112647" lon="0.3670137"><ele>142.25</ele><time>2026-05-04T11:36:55.805Z</time></trkpt><trkpt lat="41.5111792" lon="0.3668921"><ele>140.5</ele><time>2026-05-04T11:36:56.804Z</time></trkpt><trkpt lat="41.5110925" lon="0.3667742"><ele>138.75</ele><time>2026-05-04T11:36:57.805Z</time></trkpt><trkpt lat="41.5110046" lon="0.366655"><ele>137.0</ele><time>2026-05-04T11:36:58.805Z</time></trkpt><trkpt lat="41.5109188" lon="0.3665464"><ele>137.0</ele><time>2026-05-04T11:36:59.804Z</time></trkpt><trkpt lat="41.5108339" lon="0.366443"><ele>137.0</ele><time>2026-05-04T11:37:00.804Z</time></trkpt><trkpt lat="41.5107446" lon="0.3663387"><ele>137.0</ele><time>2026-05-04T11:37:01.805Z</time></trkpt><trkpt lat="41.5106565" lon="0.3662375"><ele>137.0</ele><time>2026-05-04T11:37:02.805Z</time></trkpt><trkpt lat="41.5105679" lon="0.3661364"><ele>136.25</ele><time>2026-05-04T11:37:03.805Z</time></trkpt><trkpt lat="41.510472" lon="0.3660346"><ele>135.5</ele><time>2026-05-04T11:37:04.805Z</time></trkpt><trkpt lat="41.5103702" lon="0.3659412"><ele>134.75</ele><time>2026-05-04T11:37:05.805Z</time></trkpt><trkpt lat="41.5102603" lon="0.3658454"><ele>134.0</ele><time>2026-05-04T11:37:06.805Z</time></trkpt><trkpt lat="41.5101458" lon="0.3657587"><ele>134.0</ele><time>2026-05-04T11:37:07.805Z</time></trkpt><trkpt lat="41.51003" lon="0.3656748"><ele>134.0</ele><time>2026-05-04T11:37:08.805Z</time></trkpt><trkpt lat="41.5099135" lon="0.3656011"><ele>134.0</ele><time>2026-05-04T11:37:09.805Z</time></trkpt><trkpt lat="41.5097927" lon="0.3655346"><ele>134.0</ele><time>2026-05-04T11:37:10.805Z</time></trkpt><trkpt lat="41.509671" lon="0.3654769"><ele>132.0</ele><time>2026-05-04T11:37:11.805Z</time></trkpt><trkpt lat="41.5095415" lon="0.3654299"><ele>130.0</ele><time>2026-05-04T11:37:12.804Z</time></trkpt><trkpt lat="41.5094125" lon="0.3653867"><ele>128.0</ele><time>2026-05-04T11:37:13.805Z</time></trkpt><trkpt lat="41.5092822" lon="0.3653522"><ele>126.0</ele><time>2026-05-04T11:37:14.804Z</time></trkpt><trkpt lat="41.5091493" lon="0.365327"><ele>126.0</ele><time>2026-05-04T11:37:15.805Z</time></trkpt><trkpt lat="41.509013" lon="0.3653096"><ele>126.0</ele><time>2026-05-04T11:37:16.805Z</time></trkpt><trkpt lat="41.5088756" lon="0.3653019"><ele>126.0</ele><time>2026-05-04T11:37:17.805Z</time></trkpt><trkpt lat="41.508738" lon="0.3653067"><ele>126.0</ele><time>2026-05-04T11:37:18.804Z</time></trkpt><trkpt lat="41.5085946" lon="0.365314"><ele>123.5</ele><time>2026-05-04T11:37:19.805Z</time></trkpt><trkpt lat="41.5084531" lon="0.3653346"><ele>121.0</ele><time>2026-05-04T11:37:20.805Z</time></trkpt><trkpt lat="41.508315" lon="0.3653646"><ele>118.5</ele><time>2026-05-04T11:37:21.805Z</time></trkpt><trkpt lat="41.5081811" lon="0.3654035"><ele>116.0</ele><time>2026-05-04T11:37:22.805Z</time></trkpt><trkpt lat="41.5080514" lon="0.3654547"><ele>116.0</ele><time>2026-05-04T11:37:23.804Z</time></trkpt><trkpt lat="41.5079198" lon="0.3655084"><ele>116.0</ele><time>2026-05-04T11:37:24.805Z</time></trkpt><trkpt lat="41.5077951" lon="0.3655772"><ele>116.0</ele><time>2026-05-04T11:37:25.805Z</time></trkpt><trkpt lat="41.5076705" lon="0.3656506"><ele>116.0</ele><time>2026-05-04T11:37:26.805Z</time></trkpt><trkpt lat="41.5075456" lon="0.3657283"><ele>116.25</ele><time>2026-05-04T11:37:27.805Z</time></trkpt><trkpt lat="41.5074233" lon="0.3658179"><ele>116.5</ele><time>2026-05-04T11:37:28.805Z</time></trkpt><trkpt lat="41.5073022" lon="0.3659107"><ele>116.75</ele><time>2026-05-04T11:37:29.804Z</time></trkpt><trkpt lat="41.5071855" lon="0.3660106"><ele>117.0</ele><time>2026-05-04T11:37:30.805Z</time></trkpt><trkpt lat="41.5070706" lon="0.3661166"><ele>117.0</ele><time>2026-05-04T11:37:31.804Z</time></trkpt><trkpt lat="41.5069552" lon="0.3662194"><ele>117.0</ele><time>2026-05-04T11:37:32.805Z</time></trkpt><trkpt lat="41.5068417" lon="0.366335"><ele>117.0</ele><time>2026-05-04T11:37:33.804Z</time></trkpt><trkpt lat="41.5067332" lon="0.3664474"><ele>117.0</ele><time>2026-05-04T11:37:34.805Z</time></trkpt><trkpt lat="41.5066202" lon="0.3665617"><ele>116.5</ele><time>2026-05-04T11:37:35.804Z</time></trkpt><trkpt lat="41.5065165" lon="0.3666825"><ele>116.0</ele><time>2026-05-04T11:37:36.805Z</time></trkpt><trkpt lat="41.5064109" lon="0.3668038"><ele>115.5</ele><time>2026-05-04T11:37:37.805Z</time></trkpt><trkpt lat="41.5063016" lon="0.3669303"><ele>115.0</ele><time>2026-05-04T11:37:38.804Z</time></trkpt><trkpt lat="41.5061915" lon="0.3670502"><ele>115.0</ele><time>2026-05-04T11:37:39.804Z</time></trkpt><trkpt lat="41.5060849" lon="0.3671717"><ele>115.0</ele><time>2026-05-04T11:37:40.804Z</time></trkpt><trkpt lat="41.5059772" lon="0.367297"><ele>115.0</ele><time>2026-05-04T11:37:41.804Z</time></trkpt><trkpt lat="41.5058721" lon="0.3674195"><ele>115.0</ele><time>2026-05-04T11:37:42.805Z</time></trkpt><trkpt lat="41.5057617" lon="0.3675396"><ele>115.75</ele><time>2026-05-04T11:37:43.805Z</time></trkpt><trkpt lat="41.5056528" lon="0.36766"><ele>116.5</ele><time>2026-05-04T11:37:44.805Z</time></trkpt><trkpt lat="41.5055437" lon="0.3677847"><ele>117.25</ele><time>2026-05-04T11:37:45.805Z</time></trkpt><trkpt lat="41.5054338" lon="0.3679073"><ele>118.0</ele><time>2026-05-04T11:37:46.805Z</time></trkpt><trkpt lat="41.5053277" lon="0.368032"><ele>118.0</ele><time>2026-05-04T11:37:47.805Z</time></trkpt><trkpt lat="41.5052213" lon="0.3681553"><ele>118.0</ele><time>2026-05-04T11:37:48.804Z</time></trkpt><trkpt lat="41.5051144" lon="0.3682796"><ele>118.0</ele><time>2026-05-04T11:37:49.805Z</time></trkpt><trkpt lat="41.5050047" lon="0.3684046"><ele>118.0</ele><time>2026-05-04T11:37:50.805Z</time></trkpt><trkpt lat="41.5048975" lon="0.368528"><ele>118.0</ele><time>2026-05-04T11:37:51.804Z</time></trkpt><trkpt lat="41.5047859" lon="0.3686511"><ele>118.0</ele><time>2026-05-04T11:37:52.805Z</time></trkpt><trkpt lat="41.5046718" lon="0.3687749"><ele>118.0</ele><time>2026-05-04T11:37:53.805Z</time></trkpt><trkpt lat="41.5045574" lon="0.3689057"><ele>118.0</ele><time>2026-05-04T11:37:54.805Z</time></trkpt><trkpt lat="41.5044453" lon="0.3690312"><ele>117.33333333333334</ele><time>2026-05-04T11:37:55.805Z</time></trkpt><trkpt lat="41.5043298" lon="0.3691587"><ele>116.66666666666666</ele><time>2026-05-04T11:37:56.805Z</time></trkpt><trkpt lat="41.5042171" lon="0.3692911"><ele>116.0</ele><time>2026-05-04T11:37:57.804Z</time></trkpt><trkpt lat="41.5041" lon="0.369417"><ele>116.0</ele><time>2026-05-04T11:37:58.805Z</time></trkpt><trkpt lat="41.5039837" lon="0.3695514"><ele>116.0</ele><time>2026-05-04T11:37:59.805Z</time></trkpt><trkpt lat="41.503868" lon="0.3696787"><ele>116.0</ele><time>2026-05-04T11:38:00.805Z</time></trkpt><trkpt lat="41.5037517" lon="0.3698149"><ele>115.25</ele><time>2026-05-04T11:38:01.804Z</time></trkpt><trkpt lat="41.5036382" lon="0.3699402"><ele>114.5</ele><time>2026-05-04T11:38:02.805Z</time></trkpt><trkpt lat="41.5035242" lon="0.370063"><ele>113.75</ele><time>2026-05-04T11:38:03.805Z</time></trkpt><trkpt lat="41.5034098" lon="0.3701894"><ele>113.0</ele><time>2026-05-04T11:38:04.805Z</time></trkpt><trkpt lat="41.5032975" lon="0.3703189"><ele>113.0</ele><time>2026-05-04T11:38:05.805Z</time></trkpt><trkpt lat="41.5031834" lon="0.3704443"><ele>113.0</ele><time>2026-05-04T11:38:06.805Z</time></trkpt><trkpt lat="41.5030703" lon="0.3705756"><ele>113.0</ele><time>2026-05-04T11:38:07.804Z</time></trkpt><trkpt lat="41.5029575" lon="0.3707102"><ele>113.0</ele><time>2026-05-04T11:38:08.805Z</time></trkpt><trkpt lat="41.502846" lon="0.370838"><ele>113.0</ele><time>2026-05-04T11:38:09.804Z</time></trkpt><trkpt lat="41.5027345" lon="0.3709657"><ele>113.0</ele><time>2026-05-04T11:38:10.805Z</time></trkpt><trkpt lat="41.5026201" lon="0.3710883"><ele>113.0</ele><time>2026-05-04T11:38:11.804Z</time></trkpt><trkpt lat="41.5025081" lon="0.3712124"><ele>113.0</ele><time>2026-05-04T11:38:12.805Z</time></trkpt><trkpt lat="41.5023976" lon="0.3713289"><ele>113.25</ele><time>2026-05-04T11:38:13.805Z</time></trkpt><trkpt lat="41.5022895" lon="0.3714466"><ele>113.5</ele><time>2026-05-04T11:38:14.804Z</time></trkpt><trkpt lat="41.5021797" lon="0.3715778"><ele>113.75</ele><time>2026-05-04T11:38:15.805Z</time></trkpt><trkpt lat="41.5020717" lon="0.3716963"><ele>114.0</ele><time>2026-05-04T11:38:16.805Z</time></trkpt><trkpt lat="41.5019651" lon="0.3718184"><ele>114.25</ele><time>2026-05-04T11:38:17.805Z</time></trkpt><trkpt lat="41.5018536" lon="0.3719418"><ele>114.5</ele><time>2026-05-04T11:38:18.805Z</time></trkpt><trkpt lat="41.5017453" lon="0.3720601"><ele>114.75</ele><time>2026-05-04T11:38:19.805Z</time></trkpt><trkpt lat="41.5016371" lon="0.3721826"><ele>115.0</ele><time>2026-05-04T11:38:20.805Z</time></trkpt><trkpt lat="41.5015283" lon="0.3722995"><ele>115.5</ele><time>2026-05-04T11:38:21.805Z</time></trkpt><trkpt lat="41.5014201" lon="0.3724242"><ele>116.0</ele><time>2026-05-04T11:38:22.805Z</time></trkpt><trkpt lat="41.5013165" lon="0.3725489"><ele>116.5</ele><time>2026-05-04T11:38:23.805Z</time></trkpt><trkpt lat="41.5012087" lon="0.3726738"><ele>117.0</ele><time>2026-05-04T11:38:24.805Z</time></trkpt><trkpt lat="41.5011011" lon="0.3727941"><ele>117.0</ele><time>2026-05-04T11:38:25.805Z</time></trkpt><trkpt lat="41.5009938" lon="0.3729086"><ele>117.0</ele><time>2026-05-04T11:38:26.804Z</time></trkpt><trkpt lat="41.5008866" lon="0.3730229"><ele>117.0</ele><time>2026-05-04T11:38:27.805Z</time></trkpt><trkpt lat="41.5007772" lon="0.3731399"><ele>117.0</ele><time>2026-05-04T11:38:28.805Z</time></trkpt><trkpt lat="41.5006724" lon="0.373264"><ele>117.5</ele><time>2026-05-04T11:38:29.805Z</time></trkpt><trkpt lat="41.5005636" lon="0.3733838"><ele>118.0</ele><time>2026-05-04T11:38:30.805Z</time></trkpt><trkpt lat="41.5004615" lon="0.3735057"><ele>118.5</ele><time>2026-05-04T11:38:31.805Z</time></trkpt><trkpt lat="41.5003548" lon="0.3736277"><ele>119.0</ele><time>2026-05-04T11:38:32.804Z</time></trkpt><trkpt lat="41.500249" lon="0.3737424"><ele>119.0</ele><time>2026-05-04T11:38:33.805Z</time></trkpt><trkpt lat="41.5001443" lon="0.3738621"><ele>119.0</ele><time>2026-05-04T11:38:34.805Z</time></trkpt><trkpt lat="41.5000404" lon="0.3739836"><ele>119.0</ele><time>2026-05-04T11:38:35.804Z</time></trkpt><trkpt lat="41.4999361" lon="0.3741046"><ele>119.0</ele><time>2026-05-04T11:38:36.805Z</time></trkpt><trkpt lat="41.4998281" lon="0.3742248"><ele>119.0</ele><time>2026-05-04T11:38:37.805Z</time></trkpt><trkpt lat="41.4997249" lon="0.3743353"><ele>119.0</ele><time>2026-05-04T11:38:38.805Z</time></trkpt><trkpt lat="41.4996208" lon="0.374449"><ele>119.0</ele><time>2026-05-04T11:38:39.804Z</time></trkpt><trkpt lat="41.4995188" lon="0.374564"><ele>119.0</ele><time>2026-05-04T11:38:40.805Z</time></trkpt><trkpt lat="41.4994227" lon="0.3746765"><ele>121.0</ele><time>2026-05-04T11:38:41.805Z</time></trkpt><trkpt lat="41.4993217" lon="0.3747857"><ele>123.0</ele><time>2026-05-04T11:38:42.805Z</time></trkpt><trkpt lat="41.4992246" lon="0.3748929"><ele>125.0</ele><time>2026-05-04T11:38:43.805Z</time></trkpt><trkpt lat="41.4991277" lon="0.3749998"><ele>127.0</ele><time>2026-05-04T11:38:44.804Z</time></trkpt><trkpt lat="41.4990292" lon="0.375106"><ele>127.0</ele><time>2026-05-04T11:38:45.804Z</time></trkpt><trkpt lat="41.4989319" lon="0.3752132"><ele>127.0</ele><time>2026-05-04T11:38:46.804Z</time></trkpt><trkpt lat="41.4988346" lon="0.3753189"><ele>127.0</ele><time>2026-05-04T11:38:47.805Z</time></trkpt><trkpt lat="41.4987377" lon="0.3754296"><ele>127.0</ele><time>2026-05-04T11:38:48.805Z</time></trkpt><trkpt lat="41.4986391" lon="0.3755387"><ele>128.5</ele><time>2026-05-04T11:38:49.805Z</time></trkpt><trkpt lat="41.498545" lon="0.3756478"><ele>130.0</ele><time>2026-05-04T11:38:50.805Z</time></trkpt><trkpt lat="41.4984461" lon="0.3757492"><ele>131.5</ele><time>2026-05-04T11:38:51.804Z</time></trkpt><trkpt lat="41.4983419" lon="0.3758556"><ele>133.0</ele><time>2026-05-04T11:38:52.805Z</time></trkpt><trkpt lat="41.4982408" lon="0.3759653"><ele>133.0</ele><time>2026-05-04T11:38:53.805Z</time></trkpt><trkpt lat="41.4981428" lon="0.3760756"><ele>133.0</ele><time>2026-05-04T11:38:54.805Z</time></trkpt><trkpt lat="41.4980469" lon="0.3761834"><ele>133.0</ele><time>2026-05-04T11:38:55.805Z</time></trkpt><trkpt lat="41.4979488" lon="0.376287"><ele>133.0</ele><time>2026-05-04T11:38:56.805Z</time></trkpt><trkpt lat="41.4978487" lon="0.3763913"><ele>132.5</ele><time>2026-05-04T11:38:57.804Z</time></trkpt><trkpt lat="41.4977461" lon="0.3764995"><ele>132.0</ele><time>2026-05-04T11:38:58.805Z</time></trkpt><trkpt lat="41.4976406" lon="0.3766031"><ele>131.5</ele><time>2026-05-04T11:38:59.805Z</time></trkpt><trkpt lat="41.4975411" lon="0.3767126"><ele>131.0</ele><time>2026-05-04T11:39:00.805Z</time></trkpt><trkpt lat="41.4974436" lon="0.3768227"><ele>131.0</ele><time>2026-05-04T11:39:01.804Z</time></trkpt><trkpt lat="41.4973434" lon="0.3769297"><ele>131.0</ele><time>2026-05-04T11:39:02.805Z</time></trkpt><trkpt lat="41.4972427" lon="0.3770367"><ele>131.0</ele><time>2026-05-04T11:39:03.805Z</time></trkpt><trkpt lat="41.4971439" lon="0.3771478"><ele>131.0</ele><time>2026-05-04T11:39:04.806Z</time></trkpt><trkpt lat="41.4970442" lon="0.3772539"><ele>131.75</ele><time>2026-05-04T11:39:05.806Z</time></trkpt><trkpt lat="41.4969437" lon="0.3773607"><ele>132.5</ele><time>2026-05-04T11:39:06.806Z</time></trkpt><trkpt lat="41.4968432" lon="0.377467"><ele>133.25</ele><time>2026-05-04T11:39:07.806Z</time></trkpt><trkpt lat="41.496739" lon="0.377572"><ele>134.0</ele><time>2026-05-04T11:39:08.806Z</time></trkpt><trkpt lat="41.4966345" lon="0.3776816"><ele>134.0</ele><time>2026-05-04T11:39:09.805Z</time></trkpt><trkpt lat="41.4965349" lon="0.3777918"><ele>134.0</ele><time>2026-05-04T11:39:10.806Z</time></trkpt><trkpt lat="41.496435" lon="0.3779036"><ele>134.0</ele><time>2026-05-04T11:39:11.806Z</time></trkpt><trkpt lat="41.4963365" lon="0.378019"><ele>134.0</ele><time>2026-05-04T11:39:12.806Z</time></trkpt><trkpt lat="41.4962368" lon="0.3781315"><ele>134.25</ele><time>2026-05-04T11:39:13.806Z</time></trkpt><trkpt lat="41.4961369" lon="0.3782457"><ele>134.5</ele><time>2026-05-04T11:39:14.806Z</time></trkpt><trkpt lat="41.4960346" lon="0.3783521"><ele>134.75</ele><time>2026-05-04T11:39:15.806Z</time></trkpt><trkpt lat="41.4959314" lon="0.3784634"><ele>135.0</ele><time>2026-05-04T11:39:16.805Z</time></trkpt><trkpt lat="41.4958323" lon="0.3785781"><ele>135.0</ele><time>2026-05-04T11:39:17.806Z</time></trkpt><trkpt lat="41.4957343" lon="0.378688"><ele>135.0</ele><time>2026-05-04T11:39:18.806Z</time></trkpt><trkpt lat="41.4956386" lon="0.3787949"><ele>135.0</ele><time>2026-05-04T11:39:19.806Z</time></trkpt><trkpt lat="41.4955381" lon="0.378904"><ele>135.0</ele><time>2026-05-04T11:39:20.805Z</time></trkpt><trkpt lat="41.4954423" lon="0.3790129"><ele>135.25</ele><time>2026-05-04T11:39:21.806Z</time></trkpt><trkpt lat="41.4953486" lon="0.3791257"><ele>135.5</ele><time>2026-05-04T11:39:22.806Z</time></trkpt><trkpt lat="41.4952502" lon="0.3792362"><ele>135.75</ele><time>2026-05-04T11:39:23.805Z</time></trkpt><trkpt lat="41.4951552" lon="0.3793451"><ele>136.0</ele><time>2026-05-04T11:39:24.806Z</time></trkpt><trkpt lat="41.4950569" lon="0.3794499"><ele>136.0</ele><time>2026-05-04T11:39:25.806Z</time></trkpt><trkpt lat="41.4949598" lon="0.3795565"><ele>136.0</ele><time>2026-05-04T11:39:26.806Z</time></trkpt><trkpt lat="41.4948673" lon="0.3796683"><ele>136.0</ele><time>2026-05-04T11:39:27.806Z</time></trkpt><trkpt lat="41.4947761" lon="0.3797754"><ele>136.0</ele><time>2026-05-04T11:39:28.806Z</time></trkpt><trkpt lat="41.4946792" lon="0.3798803"><ele>136.5</ele><time>2026-05-04T11:39:29.805Z</time></trkpt><trkpt lat="41.4945804" lon="0.3799898"><ele>137.0</ele><time>2026-05-04T11:39:30.806Z</time></trkpt><trkpt lat="41.4944763" lon="0.3800979"><ele>137.5</ele><time>2026-05-04T11:39:31.806Z</time></trkpt><trkpt lat="41.4943761" lon="0.3802169"><ele>138.0</ele><time>2026-05-04T11:39:32.806Z</time></trkpt><trkpt lat="41.494274" lon="0.3803335"><ele>138.0</ele><time>2026-05-04T11:39:33.805Z</time></trkpt><trkpt lat="41.4941713" lon="0.3804512"><ele>138.0</ele><time>2026-05-04T11:39:34.805Z</time></trkpt><trkpt lat="41.4940676" lon="0.3805706"><ele>138.0</ele><time>2026-05-04T11:39:35.806Z</time></trkpt><trkpt lat="41.4939695" lon="0.3806879"><ele>138.0</ele><time>2026-05-04T11:39:36.806Z</time></trkpt><trkpt lat="41.493868" lon="0.3808016"><ele>138.5</ele><time>2026-05-04T11:39:37.805Z</time></trkpt><trkpt lat="41.4937618" lon="0.3809221"><ele>139.0</ele><time>2026-05-04T11:39:38.805Z</time></trkpt><trkpt lat="41.4936592" lon="0.3810325"><ele>139.5</ele><time>2026-05-04T11:39:39.806Z</time></trkpt><trkpt lat="41.4935553" lon="0.3811446"><ele>140.0</ele><time>2026-05-04T11:39:40.806Z</time></trkpt><trkpt lat="41.4934503" lon="0.3812562"><ele>140.0</ele><time>2026-05-04T11:39:41.805Z</time></trkpt><trkpt lat="41.4933481" lon="0.3813676"><ele>140.0</ele><time>2026-05-04T11:39:42.806Z</time></trkpt><trkpt lat="41.4932417" lon="0.3814678"><ele>140.0</ele><time>2026-05-04T11:39:43.806Z</time></trkpt><trkpt lat="41.4931342" lon="0.3815662"><ele>140.0</ele><time>2026-05-04T11:39:44.806Z</time></trkpt><trkpt lat="41.4930227" lon="0.3816612"><ele>140.0</ele><time>2026-05-04T11:39:45.806Z</time></trkpt><trkpt lat="41.4929111" lon="0.3817523"><ele>140.0</ele><time>2026-05-04T11:39:46.806Z</time></trkpt><trkpt lat="41.4927944" lon="0.3818323"><ele>140.0</ele><time>2026-05-04T11:39:47.806Z</time></trkpt><trkpt lat="41.4926795" lon="0.3819115"><ele>140.0</ele><time>2026-05-04T11:39:48.806Z</time></trkpt><trkpt lat="41.492565" lon="0.3819863"><ele>140.0</ele><time>2026-05-04T11:39:49.806Z</time></trkpt><trkpt lat="41.4924423" lon="0.3820658"><ele>140.0</ele><time>2026-05-04T11:39:50.806Z</time></trkpt><trkpt lat="41.4923191" lon="0.3821338"><ele>140.0</ele><time>2026-05-04T11:39:51.806Z</time></trkpt><trkpt lat="41.4921902" lon="0.3822025"><ele>140.0</ele><time>2026-05-04T11:39:52.806Z</time></trkpt><trkpt lat="41.4920606" lon="0.3822646"><ele>140.0</ele><time>2026-05-04T11:39:53.806Z</time></trkpt><trkpt lat="41.4919299" lon="0.3823219"><ele>140.0</ele><time>2026-05-04T11:39:54.805Z</time></trkpt><trkpt lat="41.4917939" lon="0.3823758"><ele>140.0</ele><time>2026-05-04T11:39:55.805Z</time></trkpt><trkpt lat="41.4916576" lon="0.3824209"><ele>140.0</ele><time>2026-05-04T11:39:56.805Z</time></trkpt><trkpt lat="41.4915192" lon="0.3824676"><ele>140.0</ele><time>2026-05-04T11:39:57.806Z</time></trkpt><trkpt lat="41.4913831" lon="0.3824998"><ele>140.0</ele><time>2026-05-04T11:39:58.806Z</time></trkpt><trkpt lat="41.4912421" lon="0.3825296"><ele>140.0</ele><time>2026-05-04T11:39:59.805Z</time></trkpt><trkpt lat="41.4910993" lon="0.3825555"><ele>140.0</ele><time>2026-05-04T11:40:00.805Z</time></trkpt><trkpt lat="41.4909581" lon="0.3825848"><ele>139.75</ele><time>2026-05-04T11:40:01.806Z</time></trkpt><trkpt lat="41.4908195" lon="0.382606"><ele>139.5</ele><time>2026-05-04T11:40:02.806Z</time></trkpt><trkpt lat="41.4906763" lon="0.3826306"><ele>139.25</ele><time>2026-05-04T11:40:03.805Z</time></trkpt><trkpt lat="41.4905314" lon="0.3826501"><ele>139.0</ele><time>2026-05-04T11:40:04.806Z</time></trkpt><trkpt lat="41.4903891" lon="0.3826753"><ele>139.0</ele><time>2026-05-04T11:40:05.806Z</time></trkpt><trkpt lat="41.4902451" lon="0.3826985"><ele>139.0</ele><time>2026-05-04T11:40:06.806Z</time></trkpt><trkpt lat="41.4900999" lon="0.3827224"><ele>139.0</ele><time>2026-05-04T11:40:07.806Z</time></trkpt><trkpt lat="41.4899583" lon="0.3827424"><ele>139.0</ele><time>2026-05-04T11:40:08.806Z</time></trkpt><trkpt lat="41.4898144" lon="0.3827648"><ele>139.0</ele><time>2026-05-04T11:40:09.805Z</time></trkpt><trkpt lat="41.4896669" lon="0.3827865"><ele>139.0</ele><time>2026-05-04T11:40:10.806Z</time></trkpt><trkpt lat="41.4895261" lon="0.3828049"><ele>139.0</ele><time>2026-05-04T11:40:11.806Z</time></trkpt><trkpt lat="41.489379" lon="0.3828228"><ele>139.0</ele><time>2026-05-04T11:40:12.806Z</time></trkpt><trkpt lat="41.4892357" lon="0.3828489"><ele>139.25</ele><time>2026-05-04T11:40:13.806Z</time></trkpt><trkpt lat="41.4890899" lon="0.3828705"><ele>139.5</ele><time>2026-05-04T11:40:14.806Z</time></trkpt><trkpt lat="41.4889437" lon="0.3828937"><ele>139.75</ele><time>2026-05-04T11:40:15.806Z</time></trkpt><trkpt lat="41.4887999" lon="0.3829176"><ele>140.0</ele><time>2026-05-04T11:40:16.806Z</time></trkpt><trkpt lat="41.4886543" lon="0.3829433"><ele>140.5</ele><time>2026-05-04T11:40:17.806Z</time></trkpt><trkpt lat="41.4885111" lon="0.38296"><ele>141.0</ele><time>2026-05-04T11:40:18.806Z</time></trkpt><trkpt lat="41.4883643" lon="0.3829785"><ele>141.5</ele><time>2026-05-04T11:40:19.806Z</time></trkpt><trkpt lat="41.4882192" lon="0.3830001"><ele>142.0</ele><time>2026-05-04T11:40:20.806Z</time></trkpt><trkpt lat="41.488071" lon="0.3830277"><ele>142.25</ele><time>2026-05-04T11:40:21.806Z</time></trkpt><trkpt lat="41.4879276" lon="0.3830551"><ele>142.5</ele><time>2026-05-04T11:40:22.805Z</time></trkpt><trkpt lat="41.4877858" lon="0.3830732"><ele>142.75</ele><time>2026-05-04T11:40:23.806Z</time></trkpt><trkpt lat="41.4876426" lon="0.3830939"><ele>143.0</ele><time>2026-05-04T11:40:24.805Z</time></trkpt><trkpt lat="41.4875014" lon="0.3831199"><ele>143.25</ele><time>2026-05-04T11:40:25.805Z</time></trkpt><trkpt lat="41.4873591" lon="0.3831443"><ele>143.5</ele><time>2026-05-04T11:40:26.806Z</time></trkpt><trkpt lat="41.4872153" lon="0.3831614"><ele>143.75</ele><time>2026-05-04T11:40:27.806Z</time></trkpt><trkpt lat="41.4870744" lon="0.3831811"><ele>144.0</ele><time>2026-05-04T11:40:28.806Z</time></trkpt><trkpt lat="41.4869334" lon="0.3832029"><ele>144.0</ele><time>2026-05-04T11:40:29.805Z</time></trkpt><trkpt lat="41.4867943" lon="0.3832269"><ele>144.0</ele><time>2026-05-04T11:40:30.806Z</time></trkpt><trkpt lat="41.4866597" lon="0.383256"><ele>144.0</ele><time>2026-05-04T11:40:31.806Z</time></trkpt><trkpt lat="41.4865284" lon="0.3832741"><ele>144.0</ele><time>2026-05-04T11:40:32.806Z</time></trkpt><trkpt lat="41.4863974" lon="0.3832985"><ele>144.0</ele><time>2026-05-04T11:40:33.805Z</time></trkpt><trkpt lat="41.486269" lon="0.3833182"><ele>144.0</ele><time>2026-05-04T11:40:34.806Z</time></trkpt><trkpt lat="41.4861404" lon="0.3833377"><ele>144.0</ele><time>2026-05-04T11:40:35.806Z</time></trkpt><trkpt lat="41.4860069" lon="0.3833561"><ele>144.0</ele><time>2026-05-04T11:40:36.806Z</time></trkpt><trkpt lat="41.4858726" lon="0.3833759"><ele>144.0</ele><time>2026-05-04T11:40:37.806Z</time></trkpt><trkpt lat="41.4857368" lon="0.3833927"><ele>144.0</ele><time>2026-05-04T11:40:38.806Z</time></trkpt><trkpt lat="41.4856037" lon="0.3834171"><ele>144.0</ele><time>2026-05-04T11:40:39.806Z</time></trkpt><trkpt lat="41.4854664" lon="0.3834357"><ele>144.0</ele><time>2026-05-04T11:40:40.806Z</time></trkpt><trkpt lat="41.4853302" lon="0.3834601"><ele>144.0</ele><time>2026-05-04T11:40:41.806Z</time></trkpt><trkpt lat="41.4851918" lon="0.3834758"><ele>144.0</ele><time>2026-05-04T11:40:42.806Z</time></trkpt><trkpt lat="41.4850557" lon="0.383496"><ele>144.0</ele><time>2026-05-04T11:40:43.805Z</time></trkpt><trkpt lat="41.4849204" lon="0.3835162"><ele>144.0</ele><time>2026-05-04T11:40:44.806Z</time></trkpt><trkpt lat="41.4847834" lon="0.3835425"><ele>144.0</ele><time>2026-05-04T11:40:45.805Z</time></trkpt><trkpt lat="41.4846483" lon="0.3835653"><ele>144.0</ele><time>2026-05-04T11:40:46.805Z</time></trkpt><trkpt lat="41.4845129" lon="0.3835856"><ele>144.0</ele><time>2026-05-04T11:40:47.805Z</time></trkpt><trkpt lat="41.4843772" lon="0.3836053"><ele>144.0</ele><time>2026-05-04T11:40:48.806Z</time></trkpt><trkpt lat="41.4842387" lon="0.3836207"><ele>144.25</ele><time>2026-05-04T11:40:49.806Z</time></trkpt><trkpt lat="41.4841034" lon="0.3836368"><ele>144.5</ele><time>2026-05-04T11:40:50.806Z</time></trkpt><trkpt lat="41.4839683" lon="0.3836611"><ele>144.75</ele><time>2026-05-04T11:40:51.805Z</time></trkpt><trkpt lat="41.4838276" lon="0.3836847"><ele>145.0</ele><time>2026-05-04T11:40:52.806Z</time></trkpt><trkpt lat="41.4836885" lon="0.3837069"><ele>145.0</ele><time>2026-05-04T11:40:53.806Z</time></trkpt><trkpt lat="41.4835524" lon="0.3837288"><ele>145.0</ele><time>2026-05-04T11:40:54.806Z</time></trkpt><trkpt lat="41.4834105" lon="0.383754"><ele>145.0</ele><time>2026-05-04T11:40:55.806Z</time></trkpt><trkpt lat="41.4832714" lon="0.3837816"><ele>145.0</ele><time>2026-05-04T11:40:56.806Z</time></trkpt><trkpt lat="41.4831281" lon="0.3838001"><ele>145.0</ele><time>2026-05-04T11:40:57.806Z</time></trkpt><trkpt lat="41.4829891" lon="0.3838205"><ele>145.0</ele><time>2026-05-04T11:40:58.805Z</time></trkpt><trkpt lat="41.4828528" lon="0.3838417"><ele>145.0</ele><time>2026-05-04T11:40:59.806Z</time></trkpt><trkpt lat="41.4827135" lon="0.38386"><ele>145.0</ele><time>2026-05-04T11:41:00.806Z</time></trkpt><trkpt lat="41.4825744" lon="0.3838824"><ele>145.0</ele><time>2026-05-04T11:41:01.806Z</time></trkpt><trkpt lat="41.4824327" lon="0.383903"><ele>145.0</ele><time>2026-05-04T11:41:02.806Z</time></trkpt><trkpt lat="41.4822917" lon="0.3839249"><ele>145.0</ele><time>2026-05-04T11:41:03.806Z</time></trkpt><trkpt lat="41.4821504" lon="0.3839449"><ele>145.0</ele><time>2026-05-04T11:41:04.806Z</time></trkpt><trkpt lat="41.482011" lon="0.3839651"><ele>146.0</ele><time>2026-05-04T11:41:05.805Z</time></trkpt><trkpt lat="41.4818703" lon="0.3839873"><ele>147.0</ele><time>2026-05-04T11:41:06.805Z</time></trkpt><trkpt lat="41.4817311" lon="0.3840155"><ele>148.0</ele><time>2026-05-04T11:41:07.806Z</time></trkpt><trkpt lat="41.4815926" lon="0.3840409"><ele>149.0</ele><time>2026-05-04T11:41:08.806Z</time></trkpt><trkpt lat="41.4814543" lon="0.3840572"><ele>149.0</ele><time>2026-05-04T11:41:09.806Z</time></trkpt><trkpt lat="41.4813151" lon="0.3840786"><ele>149.0</ele><time>2026-05-04T11:41:10.806Z</time></trkpt><trkpt lat="41.4811754" lon="0.3840939"><ele>149.0</ele><time>2026-05-04T11:41:11.806Z</time></trkpt><trkpt lat="41.4810351" lon="0.3841202"><ele>149.0</ele><time>2026-05-04T11:41:12.805Z</time></trkpt><trkpt lat="41.4808951" lon="0.3841579"><ele>149.0</ele><time>2026-05-04T11:41:13.806Z</time></trkpt><trkpt lat="41.4807576" lon="0.3842029"><ele>149.0</ele><time>2026-05-04T11:41:14.806Z</time></trkpt><trkpt lat="41.4806276" lon="0.3842575"><ele>149.0</ele><time>2026-05-04T11:41:15.806Z</time></trkpt><trkpt lat="41.4804969" lon="0.3843242"><ele>149.0</ele><time>2026-05-04T11:41:16.806Z</time></trkpt><trkpt lat="41.48037" lon="0.3844122"><ele>149.0</ele><time>2026-05-04T11:41:17.806Z</time></trkpt><trkpt lat="41.4802534" lon="0.3845046"><ele>149.0</ele><time>2026-05-04T11:41:18.806Z</time></trkpt><trkpt lat="41.4801336" lon="0.3846018"><ele>149.0</ele><time>2026-05-04T11:41:19.806Z</time></trkpt><trkpt lat="41.480027" lon="0.3847092"><ele>149.0</ele><time>2026-05-04T11:41:20.806Z</time></trkpt><trkpt lat="41.4799219" lon="0.3848231"><ele>149.0</ele><time>2026-05-04T11:41:21.806Z</time></trkpt><trkpt lat="41.4798237" lon="0.3849342"><ele>149.0</ele><time>2026-05-04T11:41:22.807Z</time></trkpt><trkpt lat="41.4797233" lon="0.3850363"><ele>149.0</ele><time>2026-05-04T11:41:23.807Z</time></trkpt><trkpt lat="41.4796248" lon="0.3851419"><ele>149.0</ele><time>2026-05-04T11:41:24.806Z</time></trkpt><trkpt lat="41.4795262" lon="0.3852427"><ele>149.0</ele><time>2026-05-04T11:41:25.807Z</time></trkpt><trkpt lat="41.4794277" lon="0.3853439"><ele>149.0</ele><time>2026-05-04T11:41:26.807Z</time></trkpt><trkpt lat="41.479334" lon="0.3854437"><ele>149.0</ele><time>2026-05-04T11:41:27.806Z</time></trkpt><trkpt lat="41.4792398" lon="0.3855458"><ele>149.0</ele><time>2026-05-04T11:41:28.807Z</time></trkpt><trkpt lat="41.4791453" lon="0.3856494"><ele>149.0</ele><time>2026-05-04T11:41:29.807Z</time></trkpt><trkpt lat="41.4790519" lon="0.3857518"><ele>149.0</ele><time>2026-05-04T11:41:30.807Z</time></trkpt><trkpt lat="41.4789615" lon="0.3858599"><ele>149.0</ele><time>2026-05-04T11:41:31.807Z</time></trkpt><trkpt lat="41.4788686" lon="0.3859658"><ele>149.0</ele><time>2026-05-04T11:41:32.807Z</time></trkpt><trkpt lat="41.4787726" lon="0.3860693"><ele>149.5</ele><time>2026-05-04T11:41:33.807Z</time></trkpt><trkpt lat="41.4786761" lon="0.3861706"><ele>150.0</ele><time>2026-05-04T11:41:34.807Z</time></trkpt><trkpt lat="41.4785779" lon="0.386277"><ele>150.5</ele><time>2026-05-04T11:41:35.807Z</time></trkpt><trkpt lat="41.4784789" lon="0.3863825"><ele>151.0</ele><time>2026-05-04T11:41:36.807Z</time></trkpt><trkpt lat="41.4783851" lon="0.3864825"><ele>151.0</ele><time>2026-05-04T11:41:37.807Z</time></trkpt><trkpt lat="41.4782929" lon="0.386583"><ele>151.0</ele><time>2026-05-04T11:41:38.807Z</time></trkpt><trkpt lat="41.4781974" lon="0.3866814"><ele>151.0</ele><time>2026-05-04T11:41:39.807Z</time></trkpt><trkpt lat="41.4781073" lon="0.3867849"><ele>151.0</ele><time>2026-05-04T11:41:40.807Z</time></trkpt><trkpt lat="41.4780165" lon="0.3868919"><ele>151.5</ele><time>2026-05-04T11:41:41.807Z</time></trkpt><trkpt lat="41.4779266" lon="0.38699"><ele>152.0</ele><time>2026-05-04T11:41:42.806Z</time></trkpt><trkpt lat="41.4778313" lon="0.3870879"><ele>152.5</ele><time>2026-05-04T11:41:43.807Z</time></trkpt><trkpt lat="41.4777383" lon="0.3871872"><ele>153.0</ele><time>2026-05-04T11:41:44.807Z</time></trkpt><trkpt lat="41.4776398" lon="0.3872918"><ele>153.0</ele><time>2026-05-04T11:41:45.807Z</time></trkpt><trkpt lat="41.4775361" lon="0.3874002"><ele>153.0</ele><time>2026-05-04T11:41:46.807Z</time></trkpt><trkpt lat="41.4774411" lon="0.3875036"><ele>153.0</ele><time>2026-05-04T11:41:47.807Z</time></trkpt><trkpt lat="41.4773382" lon="0.3876121"><ele>153.0</ele><time>2026-05-04T11:41:48.807Z</time></trkpt><trkpt lat="41.4772384" lon="0.3877218"><ele>153.0</ele><time>2026-05-04T11:41:49.807Z</time></trkpt><trkpt lat="41.477138" lon="0.3878252"><ele>153.0</ele><time>2026-05-04T11:41:50.807Z</time></trkpt><trkpt lat="41.4770398" lon="0.3879338"><ele>153.0</ele><time>2026-05-04T11:41:51.807Z</time></trkpt><trkpt lat="41.4769436" lon="0.3880365"><ele>153.0</ele><time>2026-05-04T11:41:52.807Z</time></trkpt><trkpt lat="41.4768472" lon="0.3881523"><ele>152.75</ele><time>2026-05-04T11:41:53.806Z</time></trkpt><trkpt lat="41.4767564" lon="0.3882753"><ele>152.5</ele><time>2026-05-04T11:41:54.807Z</time></trkpt><trkpt lat="41.4766616" lon="0.3884031"><ele>152.25</ele><time>2026-05-04T11:41:55.807Z</time></trkpt><trkpt lat="41.4765696" lon="0.3885374"><ele>152.0</ele><time>2026-05-04T11:41:56.807Z</time></trkpt><trkpt lat="41.4764814" lon="0.3886745"><ele>152.0</ele><time>2026-05-04T11:41:57.806Z</time></trkpt><trkpt lat="41.4763964" lon="0.3888089"><ele>152.0</ele><time>2026-05-04T11:41:58.807Z</time></trkpt><trkpt lat="41.47631" lon="0.3889485"><ele>152.0</ele><time>2026-05-04T11:41:59.807Z</time></trkpt><trkpt lat="41.4762238" lon="0.3890865"><ele>152.0</ele><time>2026-05-04T11:42:00.807Z</time></trkpt><trkpt lat="41.4761364" lon="0.3892225"><ele>151.5</ele><time>2026-05-04T11:42:01.807Z</time></trkpt><trkpt lat="41.4760501" lon="0.3893586"><ele>151.0</ele><time>2026-05-04T11:42:02.807Z</time></trkpt><trkpt lat="41.4759626" lon="0.3895003"><ele>150.5</ele><time>2026-05-04T11:42:03.807Z</time></trkpt><trkpt lat="41.475873" lon="0.3896453"><ele>150.0</ele><time>2026-05-04T11:42:04.807Z</time></trkpt><trkpt lat="41.4757787" lon="0.3897968"><ele>149.5</ele><time>2026-05-04T11:42:05.807Z</time></trkpt><trkpt lat="41.4756893" lon="0.3899451"><ele>149.0</ele><time>2026-05-04T11:42:06.807Z</time></trkpt><trkpt lat="41.475599" lon="0.3900885"><ele>148.5</ele><time>2026-05-04T11:42:07.807Z</time></trkpt><trkpt lat="41.4755107" lon="0.3902347"><ele>148.0</ele><time>2026-05-04T11:42:08.807Z</time></trkpt><trkpt lat="41.4754256" lon="0.3903798"><ele>146.0</ele><time>2026-05-04T11:42:09.807Z</time></trkpt><trkpt lat="41.4753391" lon="0.3905184"><ele>144.0</ele><time>2026-05-04T11:42:10.806Z</time></trkpt><trkpt lat="41.4752508" lon="0.3906586"><ele>142.0</ele><time>2026-05-04T11:42:11.806Z</time></trkpt><trkpt lat="41.4751622" lon="0.3907999"><ele>140.0</ele><time>2026-05-04T11:42:12.807Z</time></trkpt><trkpt lat="41.4750702" lon="0.3909414"><ele>140.0</ele><time>2026-05-04T11:42:13.807Z</time></trkpt><trkpt lat="41.4749811" lon="0.3910864"><ele>140.0</ele><time>2026-05-04T11:42:14.807Z</time></trkpt><trkpt lat="41.4748936" lon="0.3912338"><ele>140.0</ele><time>2026-05-04T11:42:15.806Z</time></trkpt><trkpt lat="41.4748026" lon="0.3913787"><ele>140.0</ele><time>2026-05-04T11:42:16.806Z</time></trkpt><trkpt lat="41.4747109" lon="0.3915226"><ele>140.0</ele><time>2026-05-04T11:42:17.807Z</time></trkpt><trkpt lat="41.4746196" lon="0.3916647"><ele>140.0</ele><time>2026-05-04T11:42:18.807Z</time></trkpt><trkpt lat="41.4745333" lon="0.3918049"><ele>140.0</ele><time>2026-05-04T11:42:19.807Z</time></trkpt><trkpt lat="41.4744495" lon="0.391946"><ele>140.0</ele><time>2026-05-04T11:42:20.807Z</time></trkpt><trkpt lat="41.4743648" lon="0.3920919"><ele>139.5</ele><time>2026-05-04T11:42:21.806Z</time></trkpt><trkpt lat="41.4742749" lon="0.3922339"><ele>139.0</ele><time>2026-05-04T11:42:22.806Z</time></trkpt><trkpt lat="41.4741878" lon="0.3923821"><ele>138.5</ele><time>2026-05-04T11:42:23.807Z</time></trkpt><trkpt lat="41.4740987" lon="0.3925265"><ele>138.0</ele><time>2026-05-04T11:42:24.807Z</time></trkpt><trkpt lat="41.4740067" lon="0.3926727"><ele>138.0</ele><time>2026-05-04T11:42:25.807Z</time></trkpt><trkpt lat="41.4739163" lon="0.3928182"><ele>138.0</ele><time>2026-05-04T11:42:26.807Z</time></trkpt><trkpt lat="41.4738234" lon="0.392959"><ele>138.0</ele><time>2026-05-04T11:42:27.807Z</time></trkpt><trkpt lat="41.4737325" lon="0.3931051"><ele>138.0</ele><time>2026-05-04T11:42:28.806Z</time></trkpt><trkpt lat="41.47364" lon="0.3932424"><ele>137.5</ele><time>2026-05-04T11:42:29.806Z</time></trkpt><trkpt lat="41.4735518" lon="0.3933825"><ele>137.0</ele><time>2026-05-04T11:42:30.807Z</time></trkpt><trkpt lat="41.4734629" lon="0.3935248"><ele>136.5</ele><time>2026-05-04T11:42:31.806Z</time></trkpt><trkpt lat="41.4733723" lon="0.3936635"><ele>136.0</ele><time>2026-05-04T11:42:32.806Z</time></trkpt><trkpt lat="41.4732912" lon="0.3938012"><ele>135.75</ele><time>2026-05-04T11:42:33.807Z</time></trkpt><trkpt lat="41.4732051" lon="0.3939419"><ele>135.5</ele><time>2026-05-04T11:42:34.807Z</time></trkpt><trkpt lat="41.4731217" lon="0.3940732"><ele>135.25</ele><time>2026-05-04T11:42:35.807Z</time></trkpt><trkpt lat="41.4730343" lon="0.3942082"><ele>135.0</ele><time>2026-05-04T11:42:36.807Z</time></trkpt><trkpt lat="41.4729539" lon="0.394342"><ele>134.5</ele><time>2026-05-04T11:42:37.807Z</time></trkpt><trkpt lat="41.472869" lon="0.3944804"><ele>134.0</ele><time>2026-05-04T11:42:38.807Z</time></trkpt><trkpt lat="41.4727826" lon="0.3946175"><ele>133.5</ele><time>2026-05-04T11:42:39.807Z</time></trkpt><trkpt lat="41.4726938" lon="0.3947557"><ele>133.0</ele><time>2026-05-04T11:42:40.806Z</time></trkpt><trkpt lat="41.4726056" lon="0.3948918"><ele>132.25</ele><time>2026-05-04T11:42:41.807Z</time></trkpt><trkpt lat="41.4725174" lon="0.3950317"><ele>131.5</ele><time>2026-05-04T11:42:42.806Z</time></trkpt><trkpt lat="41.4724279" lon="0.3951755"><ele>130.75</ele><time>2026-05-04T11:42:43.807Z</time></trkpt><trkpt lat="41.4723351" lon="0.3953279"><ele>130.0</ele><time>2026-05-04T11:42:44.807Z</time></trkpt><trkpt lat="41.4722439" lon="0.395477"><ele>130.0</ele><time>2026-05-04T11:42:45.807Z</time></trkpt><trkpt lat="41.4721492" lon="0.3956273"><ele>130.0</ele><time>2026-05-04T11:42:46.807Z</time></trkpt><trkpt lat="41.4720584" lon="0.3957781"><ele>130.0</ele><time>2026-05-04T11:42:47.807Z</time></trkpt><trkpt lat="41.4719679" lon="0.3959304"><ele>130.0</ele><time>2026-05-04T11:42:48.806Z</time></trkpt><trkpt lat="41.4718721" lon="0.3960807"><ele>130.0</ele><time>2026-05-04T11:42:49.807Z</time></trkpt><trkpt lat="41.4717776" lon="0.3962288"><ele>130.0</ele><time>2026-05-04T11:42:50.807Z</time></trkpt><trkpt lat="41.4716824" lon="0.396373"><ele>130.0</ele><time>2026-05-04T11:42:51.807Z</time></trkpt><trkpt lat="41.4715835" lon="0.3965213"><ele>130.0</ele><time>2026-05-04T11:42:52.807Z</time></trkpt><trkpt lat="41.4714855" lon="0.3966753"><ele>130.0</ele><time>2026-05-04T11:42:53.806Z</time></trkpt><trkpt lat="41.4713861" lon="0.3968249"><ele>130.0</ele><time>2026-05-04T11:42:54.807Z</time></trkpt><trkpt lat="41.4712925" lon="0.3969744"><ele>130.0</ele><time>2026-05-04T11:42:55.807Z</time></trkpt><trkpt lat="41.4712043" lon="0.3971207"><ele>130.0</ele><time>2026-05-04T11:42:56.807Z</time></trkpt><trkpt lat="41.4711103" lon="0.3972741"><ele>129.5</ele><time>2026-05-04T11:42:57.806Z</time></trkpt><trkpt lat="41.4710195" lon="0.3974255"><ele>129.0</ele><time>2026-05-04T11:42:58.807Z</time></trkpt><trkpt lat="41.4709284" lon="0.3975758"><ele>128.5</ele><time>2026-05-04T11:42:59.807Z</time></trkpt><trkpt lat="41.4708369" lon="0.3977227"><ele>128.0</ele><time>2026-05-04T11:43:00.807Z</time></trkpt><trkpt lat="41.4707393" lon="0.3978749"><ele>128.0</ele><time>2026-05-04T11:43:01.807Z</time></trkpt><trkpt lat="41.4706409" lon="0.398032"><ele>128.0</ele><time>2026-05-04T11:43:02.807Z</time></trkpt><trkpt lat="41.4705479" lon="0.398189"><ele>128.0</ele><time>2026-05-04T11:43:03.806Z</time></trkpt><trkpt lat="41.4704526" lon="0.3983418"><ele>128.0</ele><time>2026-05-04T11:43:04.806Z</time></trkpt><trkpt lat="41.4703618" lon="0.3984962"><ele>128.0</ele><time>2026-05-04T11:43:05.807Z</time></trkpt><trkpt lat="41.4702648" lon="0.3986473"><ele>128.0</ele><time>2026-05-04T11:43:06.806Z</time></trkpt><trkpt lat="41.4701667" lon="0.3988005"><ele>128.0</ele><time>2026-05-04T11:43:07.807Z</time></trkpt><trkpt lat="41.4700762" lon="0.3989496"><ele>128.0</ele><time>2026-05-04T11:43:08.806Z</time></trkpt><trkpt lat="41.4699805" lon="0.3990988"><ele>128.0</ele><time>2026-05-04T11:43:09.806Z</time></trkpt><trkpt lat="41.4698839" lon="0.3992482"><ele>128.0</ele><time>2026-05-04T11:43:10.807Z</time></trkpt><trkpt lat="41.4697845" lon="0.3993919"><ele>128.0</ele><time>2026-05-04T11:43:11.807Z</time></trkpt><trkpt lat="41.4696853" lon="0.3995288"><ele>127.5</ele><time>2026-05-04T11:43:12.807Z</time></trkpt><trkpt lat="41.4695841" lon="0.3996669"><ele>127.0</ele><time>2026-05-04T11:43:13.807Z</time></trkpt><trkpt lat="41.4694869" lon="0.399803"><ele>126.5</ele><time>2026-05-04T11:43:14.807Z</time></trkpt><trkpt lat="41.469386" lon="0.3999402"><ele>126.0</ele><time>2026-05-04T11:43:15.807Z</time></trkpt><trkpt lat="41.4692836" lon="0.4000733"><ele>126.0</ele><time>2026-05-04T11:43:16.807Z</time></trkpt><trkpt lat="41.4691843" lon="0.4002064"><ele>126.0</ele><time>2026-05-04T11:43:17.807Z</time></trkpt><trkpt lat="41.4690887" lon="0.4003369"><ele>126.0</ele><time>2026-05-04T11:43:18.807Z</time></trkpt><trkpt lat="41.4689975" lon="0.4004648"><ele>126.0</ele><time>2026-05-04T11:43:19.807Z</time></trkpt><trkpt lat="41.4689131" lon="0.4005868"><ele>126.25</ele><time>2026-05-04T11:43:20.807Z</time></trkpt><trkpt lat="41.4688213" lon="0.4007081"><ele>126.5</ele><time>2026-05-04T11:43:21.807Z</time></trkpt><trkpt lat="41.4687306" lon="0.4008272"><ele>126.75</ele><time>2026-05-04T11:43:22.807Z</time></trkpt><trkpt lat="41.4686353" lon="0.4009498"><ele>127.0</ele><time>2026-05-04T11:43:23.806Z</time></trkpt><trkpt lat="41.4685426" lon="0.4010705"><ele>127.0</ele><time>2026-05-04T11:43:24.807Z</time></trkpt><trkpt lat="41.4684511" lon="0.4011954"><ele>127.0</ele><time>2026-05-04T11:43:25.807Z</time></trkpt><trkpt lat="41.4683582" lon="0.4013253"><ele>127.0</ele><time>2026-05-04T11:43:26.807Z</time></trkpt><trkpt lat="41.4682636" lon="0.4014513"><ele>127.0</ele><time>2026-05-04T11:43:27.806Z</time></trkpt><trkpt lat="41.4681686" lon="0.4015809"><ele>127.75</ele><time>2026-05-04T11:43:28.807Z</time></trkpt><trkpt lat="41.4680752" lon="0.4017075"><ele>128.5</ele><time>2026-05-04T11:43:29.807Z</time></trkpt><trkpt lat="41.4679792" lon="0.4018344"><ele>129.25</ele><time>2026-05-04T11:43:30.807Z</time></trkpt><trkpt lat="41.4678819" lon="0.4019581"><ele>130.0</ele><time>2026-05-04T11:43:31.807Z</time></trkpt><trkpt lat="41.4677848" lon="0.4020883"><ele>130.25</ele><time>2026-05-04T11:43:32.807Z</time></trkpt><trkpt lat="41.4676935" lon="0.4022173"><ele>130.5</ele><time>2026-05-04T11:43:33.808Z</time></trkpt><trkpt lat="41.4676058" lon="0.4023443"><ele>130.75</ele><time>2026-05-04T11:43:34.808Z</time></trkpt><trkpt lat="41.4675162" lon="0.4024599"><ele>131.0</ele><time>2026-05-04T11:43:35.808Z</time></trkpt><trkpt lat="41.4674203" lon="0.4025789"><ele>131.0</ele><time>2026-05-04T11:43:36.808Z</time></trkpt><trkpt lat="41.4673259" lon="0.4026962"><ele>131.0</ele><time>2026-05-04T11:43:37.807Z</time></trkpt><trkpt lat="41.467235" lon="0.402818"><ele>131.0</ele><time>2026-05-04T11:43:38.808Z</time></trkpt><trkpt lat="41.4671436" lon="0.4029355"><ele>131.0</ele><time>2026-05-04T11:43:39.808Z</time></trkpt><trkpt lat="41.4670525" lon="0.4030516"><ele>129.5</ele><time>2026-05-04T11:43:40.808Z</time></trkpt><trkpt lat="41.4669517" lon="0.4031566"><ele>128.0</ele><time>2026-05-04T11:43:41.807Z</time></trkpt><trkpt lat="41.4668408" lon="0.4032415"><ele>126.5</ele><time>2026-05-04T11:43:42.807Z</time></trkpt><trkpt lat="41.4667182" lon="0.4033219"><ele>125.0</ele><time>2026-05-04T11:43:43.808Z</time></trkpt><trkpt lat="41.4665928" lon="0.4033744"><ele>125.0</ele><time>2026-05-04T11:43:44.808Z</time></trkpt><trkpt lat="41.4664681" lon="0.4034031"><ele>125.0</ele><time>2026-05-04T11:43:45.808Z</time></trkpt><trkpt lat="41.4663348" lon="0.4034272"><ele>125.0</ele><time>2026-05-04T11:43:46.808Z</time></trkpt><trkpt lat="41.4662045" lon="0.4034389"><ele>125.0</ele><time>2026-05-04T11:43:47.808Z</time></trkpt><trkpt lat="41.4660673" lon="0.4034522"><ele>124.75</ele><time>2026-05-04T11:43:48.808Z</time></trkpt><trkpt lat="41.4659323" lon="0.403469"><ele>124.5</ele><time>2026-05-04T11:43:49.808Z</time></trkpt><trkpt lat="41.4657981" lon="0.4034897"><ele>124.25</ele><time>2026-05-04T11:43:50.808Z</time></trkpt><trkpt lat="41.4656577" lon="0.40352"><ele>124.0</ele><time>2026-05-04T11:43:51.808Z</time></trkpt><trkpt lat="41.4655223" lon="0.4035637"><ele>123.25</ele><time>2026-05-04T11:43:52.808Z</time></trkpt><trkpt lat="41.4653893" lon="0.4036297"><ele>122.5</ele><time>2026-05-04T11:43:53.808Z</time></trkpt><trkpt lat="41.4652648" lon="0.403715"><ele>121.75</ele><time>2026-05-04T11:43:54.808Z</time></trkpt><trkpt lat="41.4651396" lon="0.4038139"><ele>121.0</ele><time>2026-05-04T11:43:55.808Z</time></trkpt><trkpt lat="41.4650171" lon="0.4039145"><ele>119.5</ele><time>2026-05-04T11:43:56.808Z</time></trkpt><trkpt lat="41.464903" lon="0.4040246"><ele>118.0</ele><time>2026-05-04T11:43:57.807Z</time></trkpt><trkpt lat="41.4647921" lon="0.4041322"><ele>116.5</ele><time>2026-05-04T11:43:58.808Z</time></trkpt><trkpt lat="41.4646808" lon="0.4042323"><ele>115.0</ele><time>2026-05-04T11:43:59.807Z</time></trkpt><trkpt lat="41.4645652" lon="0.4043376"><ele>114.25</ele><time>2026-05-04T11:44:00.807Z</time></trkpt><trkpt lat="41.4644464" lon="0.4044412"><ele>113.5</ele><time>2026-05-04T11:44:01.808Z</time></trkpt><trkpt lat="41.4643241" lon="0.4045495"><ele>112.75</ele><time>2026-05-04T11:44:02.808Z</time></trkpt><trkpt lat="41.4642084" lon="0.4046532"><ele>112.0</ele><time>2026-05-04T11:44:03.807Z</time></trkpt><trkpt lat="41.4640937" lon="0.4047585"><ele>112.0</ele><time>2026-05-04T11:44:04.808Z</time></trkpt><trkpt lat="41.4639863" lon="0.4048606"><ele>112.0</ele><time>2026-05-04T11:44:05.807Z</time></trkpt><trkpt lat="41.4638832" lon="0.4049603"><ele>112.0</ele><time>2026-05-04T11:44:06.808Z</time></trkpt><trkpt lat="41.4637875" lon="0.4050485"><ele>112.0</ele><time>2026-05-04T11:44:07.807Z</time></trkpt><trkpt lat="41.4637003" lon="0.4051329"><ele>111.50000000000001</ele><time>2026-05-04T11:44:08.808Z</time></trkpt><trkpt lat="41.4636256" lon="0.405211"><ele>111.0</ele><time>2026-05-04T11:44:09.808Z</time></trkpt><trkpt lat="41.4635509" lon="0.4052652"><ele>110.5</ele><time>2026-05-04T11:44:10.807Z</time></trkpt><trkpt lat="41.4634749" lon="0.4053015"><ele>110.0</ele><time>2026-05-04T11:44:11.808Z</time></trkpt><trkpt lat="41.4633927" lon="0.4053042"><ele>109.50000000000001</ele><time>2026-05-04T11:44:12.808Z</time></trkpt><trkpt lat="41.4633104" lon="0.4053327"><ele>109.0</ele><time>2026-05-04T11:44:13.807Z</time></trkpt><trkpt lat="41.4632415" lon="0.4053826"><ele>109.00000000000001</ele><time>2026-05-04T11:44:14.808Z</time></trkpt><trkpt lat="41.4631999" lon="0.4054539"><ele>109.0</ele><time>2026-05-04T11:44:15.808Z</time></trkpt><trkpt lat="41.4631675" lon="0.4055442"><ele>109.0</ele><time>2026-05-04T11:44:16.808Z</time></trkpt><trkpt lat="41.4631183" lon="0.405641"><ele>109.0</ele><time>2026-05-04T11:44:17.808Z</time></trkpt><trkpt lat="41.4630549" lon="0.4057247"><ele>109.00000000000001</ele><time>2026-05-04T11:44:18.808Z</time></trkpt><trkpt lat="41.462976" lon="0.4058103"><ele>109.0</ele><time>2026-05-04T11:44:19.808Z</time></trkpt><trkpt lat="41.4628874" lon="0.4058958"><ele>108.25</ele><time>2026-05-04T11:44:20.808Z</time></trkpt><trkpt lat="41.4627908" lon="0.4059789"><ele>107.5</ele><time>2026-05-04T11:44:21.808Z</time></trkpt><trkpt lat="41.4626937" lon="0.4060706"><ele>106.75</ele><time>2026-05-04T11:44:22.808Z</time></trkpt><trkpt lat="41.4625919" lon="0.4061697"><ele>106.0</ele><time>2026-05-04T11:44:23.808Z</time></trkpt><trkpt lat="41.462486" lon="0.4062697"><ele>105.0</ele><time>2026-05-04T11:44:24.808Z</time></trkpt><trkpt lat="41.4623779" lon="0.4063709"><ele>104.0</ele><time>2026-05-04T11:44:25.808Z</time></trkpt><trkpt lat="41.4622766" lon="0.4064619"><ele>103.0</ele><time>2026-05-04T11:44:26.808Z</time></trkpt><trkpt lat="41.4621836" lon="0.4065571"><ele>102.0</ele><time>2026-05-04T11:44:27.808Z</time></trkpt><trkpt lat="41.4620849" lon="0.4066504"><ele>101.5</ele><time>2026-05-04T11:44:28.808Z</time></trkpt><trkpt lat="41.4619851" lon="0.4067424"><ele>101.0</ele><time>2026-05-04T11:44:29.808Z</time></trkpt><trkpt lat="41.4618853" lon="0.4068295"><ele>100.5</ele><time>2026-05-04T11:44:30.807Z</time></trkpt><trkpt lat="41.4617883" lon="0.4069165"><ele>100.0</ele><time>2026-05-04T11:44:31.808Z</time></trkpt><trkpt lat="41.4616923" lon="0.4070025"><ele>100.0</ele><time>2026-05-04T11:44:32.808Z</time></trkpt><trkpt lat="41.4615956" lon="0.4070888"><ele>100.0</ele><time>2026-05-04T11:44:33.808Z</time></trkpt><trkpt lat="41.4614951" lon="0.4071836"><ele>100.0</ele><time>2026-05-04T11:44:34.808Z</time></trkpt><trkpt lat="41.4613976" lon="0.4072737"><ele>100.0</ele><time>2026-05-04T11:44:35.808Z</time></trkpt><trkpt lat="41.4613027" lon="0.4073654"><ele>99.8</ele><time>2026-05-04T11:44:36.808Z</time></trkpt><trkpt lat="41.461208" lon="0.4074509"><ele>99.6</ele><time>2026-05-04T11:44:37.807Z</time></trkpt><trkpt lat="41.4611187" lon="0.4075292"><ele>99.4</ele><time>2026-05-04T11:44:38.808Z</time></trkpt><trkpt lat="41.4610387" lon="0.4075987"><ele>99.2</ele><time>2026-05-04T11:44:39.808Z</time></trkpt><trkpt lat="41.4609759" lon="0.4076497"><ele>99.0</ele><time>2026-05-04T11:44:40.808Z</time></trkpt><trkpt lat="41.4609022" lon="0.4076877"><ele>99.0</ele><time>2026-05-04T11:44:42.808Z</time></trkpt><trkpt lat="41.4607935" lon="0.4077042"><ele>99.0</ele><time>2026-05-04T11:44:44.808Z</time></trkpt><trkpt lat="41.4607306" lon="0.4077193"><ele>99.0</ele><time>2026-05-04T11:44:45.808Z</time></trkpt><trkpt lat="41.4606431" lon="0.4078041"><ele>99.0</ele><time>2026-05-04T11:44:47.808Z</time></trkpt><trkpt lat="41.4606373" lon="0.4079218"><ele>99.0</ele><time>2026-05-04T11:44:49.808Z</time></trkpt><trkpt lat="41.4606858" lon="0.4080074"><ele>99.0</ele><time>2026-05-04T11:44:51.808Z</time></trkpt><trkpt lat="41.4607701" lon="0.4080451"><ele>99.0</ele><time>2026-05-04T11:44:53.808Z</time></trkpt><trkpt lat="41.4608564" lon="0.4081092"><ele>99.0</ele><time>2026-05-04T11:44:55.808Z</time></trkpt><trkpt lat="41.4609558" lon="0.4081919"><ele>99.0</ele><time>2026-05-04T11:44:57.808Z</time></trkpt><trkpt lat="41.4610107" lon="0.4082439"><ele>99.0</ele><time>2026-05-04T11:44:58.807Z</time></trkpt><trkpt lat="41.4610627" lon="0.4083029"><ele>99.0</ele><time>2026-05-04T11:44:59.808Z</time></trkpt><trkpt lat="41.4611181" lon="0.4083616"><ele>99.0</ele><time>2026-05-04T11:45:00.808Z</time></trkpt><trkpt lat="41.4611815" lon="0.4084223"><ele>99.0</ele><time>2026-05-04T11:45:01.808Z</time></trkpt><trkpt lat="41.4612431" lon="0.4084865"><ele>99.0</ele><time>2026-05-04T11:45:02.807Z</time></trkpt><trkpt lat="41.4613078" lon="0.4085452"><ele>99.0</ele><time>2026-05-04T11:45:03.807Z</time></trkpt><trkpt lat="41.461365" lon="0.4086025"><ele>99.0</ele><time>2026-05-04T11:45:04.808Z</time></trkpt><trkpt lat="41.4614148" lon="0.4086558"><ele>99.0</ele><time>2026-05-04T11:45:05.808Z</time></trkpt><trkpt lat="41.4615053" lon="0.4087712"><ele>100.4</ele><time>2026-05-04T11:45:07.808Z</time></trkpt><trkpt lat="41.4615889" lon="0.4088783"><ele>101.80000000000001</ele><time>2026-05-04T11:45:09.808Z</time></trkpt><trkpt lat="41.4616636" lon="0.4089787"><ele>103.19999999999999</ele><time>2026-05-04T11:45:11.808Z</time></trkpt><trkpt lat="41.4617324" lon="0.4090711"><ele>104.6</ele><time>2026-05-04T11:45:13.808Z</time></trkpt><trkpt lat="41.4618091" lon="0.4091866"><ele>106.0</ele><time>2026-05-04T11:45:15.808Z</time></trkpt><trkpt lat="41.4618812" lon="0.4093013"><ele>106.00000000000001</ele><time>2026-05-04T11:45:17.808Z</time></trkpt><trkpt lat="41.4619603" lon="0.4094388"><ele>106.0</ele><time>2026-05-04T11:45:19.808Z</time></trkpt><trkpt lat="41.4620009" lon="0.4095081"><ele>106.0</ele><time>2026-05-04T11:45:20.808Z</time></trkpt><trkpt lat="41.4620518" lon="0.4095762"><ele>106.0</ele><time>2026-05-04T11:45:21.808Z</time></trkpt><trkpt lat="41.4621011" lon="0.4096485"><ele>106.00000000000001</ele><time>2026-05-04T11:45:22.808Z</time></trkpt><trkpt lat="41.4621486" lon="0.409722"><ele>106.0</ele><time>2026-05-04T11:45:23.808Z</time></trkpt><trkpt lat="41.4621981" lon="0.4097936"><ele>106.0</ele><time>2026-05-04T11:45:24.808Z</time></trkpt><trkpt lat="41.4622438" lon="0.4098609"><ele>106.0</ele><time>2026-05-04T11:45:25.808Z</time></trkpt><trkpt lat="41.4622892" lon="0.4099219"><ele>106.0</ele><time>2026-05-04T11:45:26.808Z</time></trkpt><trkpt lat="41.4623656" lon="0.4100492"><ele>106.0</ele><time>2026-05-04T11:45:28.808Z</time></trkpt><trkpt lat="41.4624345" lon="0.4101838"><ele>106.0</ele><time>2026-05-04T11:45:30.807Z</time></trkpt><trkpt lat="41.462494" lon="0.4103047"><ele>106.00000000000001</ele><time>2026-05-04T11:45:32.808Z</time></trkpt><trkpt lat="41.4625378" lon="0.4103896"><ele>106.0</ele><time>2026-05-04T11:45:34.808Z</time></trkpt><trkpt lat="41.4625796" lon="0.4104611"><ele>106.0</ele><time>2026-05-04T11:45:36.808Z</time></trkpt><trkpt lat="41.4626185" lon="0.4105305"><ele>106.0</ele><time>2026-05-04T11:45:38.808Z</time></trkpt><trkpt lat="41.4626725" lon="0.41063"><ele>106.00000000000001</ele><time>2026-05-04T11:45:41.807Z</time></trkpt><trkpt lat="41.4627157" lon="0.4106973"><ele>106.0</ele><time>2026-05-04T11:45:43.809Z</time></trkpt><trkpt lat="41.4628042" lon="0.4107733"><ele>106.00000000000001</ele><time>2026-05-04T11:45:45.808Z</time></trkpt><trkpt lat="41.4628601" lon="0.4108174"><ele>106.0</ele><time>2026-05-04T11:45:46.809Z</time></trkpt><trkpt lat="41.4629604" lon="0.4109025"><ele>106.0</ele><time>2026-05-04T11:45:48.809Z</time></trkpt><trkpt lat="41.4630689" lon="0.4109925"><ele>106.0</ele><time>2026-05-04T11:45:50.809Z</time></trkpt><trkpt lat="41.4631252" lon="0.411046"><ele>106.00000000000001</ele><time>2026-05-04T11:45:51.809Z</time></trkpt><trkpt lat="41.4631792" lon="0.4110949"><ele>106.0</ele><time>2026-05-04T11:45:52.809Z</time></trkpt><trkpt lat="41.4632326" lon="0.4111465"><ele>106.00000000000001</ele><time>2026-05-04T11:45:53.809Z</time></trkpt><trkpt lat="41.4632833" lon="0.4111999"><ele>106.0</ele><time>2026-05-04T11:45:54.809Z</time></trkpt><trkpt lat="41.4633873" lon="0.4112885"><ele>106.0</ele><time>2026-05-04T11:45:56.808Z</time></trkpt><trkpt lat="41.4634427" lon="0.4113395"><ele>106.0</ele><time>2026-05-04T11:45:57.809Z</time></trkpt><trkpt lat="41.4635334" lon="0.4114514"><ele>106.00000000000001</ele><time>2026-05-04T11:45:59.809Z</time></trkpt><trkpt lat="41.4635787" lon="0.4115135"><ele>106.0</ele><time>2026-05-04T11:46:00.809Z</time></trkpt><trkpt lat="41.4636298" lon="0.4115818"><ele>105.66666666666667</ele><time>2026-05-04T11:46:01.809Z</time></trkpt><trkpt lat="41.4636895" lon="0.4116518"><ele>105.33333333333334</ele><time>2026-05-04T11:46:02.808Z</time></trkpt><trkpt lat="41.4637421" lon="0.4117158"><ele>105.0</ele><time>2026-05-04T11:46:03.809Z</time></trkpt><trkpt lat="41.463795" lon="0.4117819"><ele>104.66666666666666</ele><time>2026-05-04T11:46:04.809Z</time></trkpt><trkpt lat="41.4638505" lon="0.411857"><ele>104.33333333333333</ele><time>2026-05-04T11:46:05.809Z</time></trkpt><trkpt lat="41.4639091" lon="0.4119331"><ele>104.0</ele><time>2026-05-04T11:46:06.808Z</time></trkpt><trkpt lat="41.463969" lon="0.4120101"><ele>103.83333333333333</ele><time>2026-05-04T11:46:07.809Z</time></trkpt><trkpt lat="41.4640315" lon="0.4120832"><ele>103.66666666666666</ele><time>2026-05-04T11:46:08.809Z</time></trkpt><trkpt lat="41.4640938" lon="0.4121531"><ele>103.5</ele><time>2026-05-04T11:46:09.808Z</time></trkpt><trkpt lat="41.4641544" lon="0.4122165"><ele>103.33333333333334</ele><time>2026-05-04T11:46:10.808Z</time></trkpt><trkpt lat="41.4642173" lon="0.4122651"><ele>103.16666666666667</ele><time>2026-05-04T11:46:11.809Z</time></trkpt><trkpt lat="41.4642776" lon="0.4123086"><ele>103.0</ele><time>2026-05-04T11:46:12.808Z</time></trkpt><trkpt lat="41.4643402" lon="0.4123461"><ele>103.00000000000001</ele><time>2026-05-04T11:46:13.809Z</time></trkpt><trkpt lat="41.4644011" lon="0.4123902"><ele>103.0</ele><time>2026-05-04T11:46:14.808Z</time></trkpt><trkpt lat="41.4644603" lon="0.4124427"><ele>103.0</ele><time>2026-05-04T11:46:15.809Z</time></trkpt><trkpt lat="41.4645153" lon="0.4125006"><ele>103.0</ele><time>2026-05-04T11:46:16.808Z</time></trkpt><trkpt lat="41.4645664" lon="0.4125655"><ele>103.00000000000001</ele><time>2026-05-04T11:46:17.809Z</time></trkpt><trkpt lat="41.4646137" lon="0.4126312"><ele>103.0</ele><time>2026-05-04T11:46:18.808Z</time></trkpt><trkpt lat="41.4646922" lon="0.4127474"><ele>103.0</ele><time>2026-05-04T11:46:20.808Z</time></trkpt><trkpt lat="41.4647698" lon="0.412849"><ele>103.0</ele><time>2026-05-04T11:46:22.809Z</time></trkpt><trkpt lat="41.4648431" lon="0.4129509"><ele>103.0</ele><time>2026-05-04T11:46:24.808Z</time></trkpt><trkpt lat="41.4649189" lon="0.4130629"><ele>103.0</ele><time>2026-05-04T11:46:26.809Z</time></trkpt><trkpt lat="41.4649937" lon="0.4131769"><ele>103.0</ele><time>2026-05-04T11:46:28.809Z</time></trkpt><trkpt lat="41.4650766" lon="0.4133036"><ele>103.00000000000001</ele><time>2026-05-04T11:46:30.808Z</time></trkpt><trkpt lat="41.4651232" lon="0.4133696"><ele>103.0</ele><time>2026-05-04T11:46:31.809Z</time></trkpt><trkpt lat="41.4651682" lon="0.4134313"><ele>103.0</ele><time>2026-05-04T11:46:32.809Z</time></trkpt><trkpt lat="41.4652461" lon="0.413554"><ele>103.0</ele><time>2026-05-04T11:46:34.809Z</time></trkpt><trkpt lat="41.4653149" lon="0.4136528"><ele>103.00000000000001</ele><time>2026-05-04T11:46:36.809Z</time></trkpt><trkpt lat="41.4653798" lon="0.4137436"><ele>103.0</ele><time>2026-05-04T11:46:38.809Z</time></trkpt><trkpt lat="41.4654506" lon="0.4138443"><ele>103.0</ele><time>2026-05-04T11:46:40.808Z</time></trkpt><trkpt lat="41.465523" lon="0.4139519"><ele>103.0</ele><time>2026-05-04T11:46:42.809Z</time></trkpt><trkpt lat="41.4655902" lon="0.4140475"><ele>103.0</ele><time>2026-05-04T11:46:44.809Z</time></trkpt><trkpt lat="41.4656669" lon="0.4141648"><ele>103.0</ele><time>2026-05-04T11:46:46.809Z</time></trkpt><trkpt lat="41.4657134" lon="0.4142348"><ele>103.0</ele><time>2026-05-04T11:46:47.809Z</time></trkpt><trkpt lat="41.4657661" lon="0.4143109"><ele>103.0</ele><time>2026-05-04T11:46:48.809Z</time></trkpt><trkpt lat="41.4658225" lon="0.414396"><ele>103.0</ele><time>2026-05-04T11:46:49.809Z</time></trkpt><trkpt lat="41.4658789" lon="0.4144792"><ele>103.0</ele><time>2026-05-04T11:46:50.808Z</time></trkpt><trkpt lat="41.4659438" lon="0.4145682"><ele>103.0</ele><time>2026-05-04T11:46:51.809Z</time></trkpt><trkpt lat="41.4660066" lon="0.4146636"><ele>103.0</ele><time>2026-05-04T11:46:52.809Z</time></trkpt><trkpt lat="41.4660729" lon="0.4147629"><ele>102.80000000000001</ele><time>2026-05-04T11:46:53.808Z</time></trkpt><trkpt lat="41.4661419" lon="0.4148689"><ele>102.6</ele><time>2026-05-04T11:46:54.809Z</time></trkpt><trkpt lat="41.4662154" lon="0.4149771"><ele>102.4</ele><time>2026-05-04T11:46:55.809Z</time></trkpt><trkpt lat="41.4662864" lon="0.4150896"><ele>102.19999999999999</ele><time>2026-05-04T11:46:56.808Z</time></trkpt><trkpt lat="41.4663586" lon="0.4152042"><ele>102.0</ele><time>2026-05-04T11:46:57.809Z</time></trkpt><trkpt lat="41.4664327" lon="0.4153224"><ele>102.5</ele><time>2026-05-04T11:46:58.808Z</time></trkpt><trkpt lat="41.4665119" lon="0.4154419"><ele>103.0</ele><time>2026-05-04T11:46:59.809Z</time></trkpt><trkpt lat="41.4665915" lon="0.4155628"><ele>103.5</ele><time>2026-05-04T11:47:00.809Z</time></trkpt><trkpt lat="41.4666707" lon="0.4156816"><ele>104.0</ele><time>2026-05-04T11:47:01.809Z</time></trkpt><trkpt lat="41.4667502" lon="0.4158092"><ele>104.25</ele><time>2026-05-04T11:47:02.809Z</time></trkpt><trkpt lat="41.4668303" lon="0.4159369"><ele>104.5</ele><time>2026-05-04T11:47:03.808Z</time></trkpt><trkpt lat="41.4669125" lon="0.4160627"><ele>104.75</ele><time>2026-05-04T11:47:04.809Z</time></trkpt><trkpt lat="41.4669933" lon="0.4161879"><ele>105.0</ele><time>2026-05-04T11:47:05.809Z</time></trkpt><trkpt lat="41.4670715" lon="0.4163176"><ele>105.0</ele><time>2026-05-04T11:47:06.809Z</time></trkpt><trkpt lat="41.4671471" lon="0.4164553"><ele>105.0</ele><time>2026-05-04T11:47:07.808Z</time></trkpt><trkpt lat="41.4672164" lon="0.4165927"><ele>105.0</ele><time>2026-05-04T11:47:08.808Z</time></trkpt><trkpt lat="41.4672812" lon="0.416734"><ele>105.0</ele><time>2026-05-04T11:47:09.809Z</time></trkpt><trkpt lat="41.46734" lon="0.4168735"><ele>105.0</ele><time>2026-05-04T11:47:10.809Z</time></trkpt><trkpt lat="41.4673985" lon="0.4170178"><ele>105.0</ele><time>2026-05-04T11:47:11.809Z</time></trkpt><trkpt lat="41.4674542" lon="0.4171652"><ele>105.0</ele><time>2026-05-04T11:47:12.809Z</time></trkpt><trkpt lat="41.4675133" lon="0.4173023"><ele>105.0</ele><time>2026-05-04T11:47:13.809Z</time></trkpt><trkpt lat="41.4675616" lon="0.4174393"><ele>104.0</ele><time>2026-05-04T11:47:14.809Z</time></trkpt><trkpt lat="41.4676044" lon="0.4175727"><ele>103.0</ele><time>2026-05-04T11:47:15.809Z</time></trkpt><trkpt lat="41.4676513" lon="0.4177067"><ele>102.0</ele><time>2026-05-04T11:47:16.809Z</time></trkpt><trkpt lat="41.4677026" lon="0.4178455"><ele>101.0</ele><time>2026-05-04T11:47:17.809Z</time></trkpt><trkpt lat="41.4677553" lon="0.4179907"><ele>101.0</ele><time>2026-05-04T11:47:18.809Z</time></trkpt><trkpt lat="41.467809" lon="0.418139"><ele>101.0</ele><time>2026-05-04T11:47:19.809Z</time></trkpt><trkpt lat="41.4678645" lon="0.4182845"><ele>101.0</ele><time>2026-05-04T11:47:20.808Z</time></trkpt><trkpt lat="41.4679176" lon="0.4184348"><ele>101.0</ele><time>2026-05-04T11:47:21.809Z</time></trkpt><trkpt lat="41.4679763" lon="0.4185892"><ele>101.0</ele><time>2026-05-04T11:47:22.809Z</time></trkpt><trkpt lat="41.4680371" lon="0.418745"><ele>101.0</ele><time>2026-05-04T11:47:23.809Z</time></trkpt><trkpt lat="41.4680926" lon="0.4189006"><ele>101.0</ele><time>2026-05-04T11:47:24.809Z</time></trkpt><trkpt lat="41.4681469" lon="0.419064"><ele>101.0</ele><time>2026-05-04T11:47:25.809Z</time></trkpt><trkpt lat="41.4681997" lon="0.4192298"><ele>101.0</ele><time>2026-05-04T11:47:26.809Z</time></trkpt><trkpt lat="41.4682605" lon="0.4193899"><ele>101.0</ele><time>2026-05-04T11:47:27.809Z</time></trkpt><trkpt lat="41.4683251" lon="0.4195573"><ele>101.0</ele><time>2026-05-04T11:47:28.809Z</time></trkpt><trkpt lat="41.4683861" lon="0.4197205"><ele>101.0</ele><time>2026-05-04T11:47:29.809Z</time></trkpt><trkpt lat="41.468448" lon="0.4198863"><ele>100.5</ele><time>2026-05-04T11:47:30.808Z</time></trkpt><trkpt lat="41.468507" lon="0.4200477"><ele>100.0</ele><time>2026-05-04T11:47:31.809Z</time></trkpt><trkpt lat="41.4685622" lon="0.4202087"><ele>99.5</ele><time>2026-05-04T11:47:32.809Z</time></trkpt><trkpt lat="41.4686224" lon="0.4203757"><ele>99.0</ele><time>2026-05-04T11:47:33.809Z</time></trkpt><trkpt lat="41.4686856" lon="0.4205442"><ele>98.75</ele><time>2026-05-04T11:47:34.809Z</time></trkpt><trkpt lat="41.4687487" lon="0.4207032"><ele>98.5</ele><time>2026-05-04T11:47:35.808Z</time></trkpt><trkpt lat="41.4688135" lon="0.4208661"><ele>98.25</ele><time>2026-05-04T11:47:36.809Z</time></trkpt><trkpt lat="41.468878" lon="0.4210258"><ele>98.0</ele><time>2026-05-04T11:47:37.808Z</time></trkpt><trkpt lat="41.4689455" lon="0.4211965"><ele>99.25</ele><time>2026-05-04T11:47:38.808Z</time></trkpt><trkpt lat="41.4690143" lon="0.4213568"><ele>100.5</ele><time>2026-05-04T11:47:39.808Z</time></trkpt><trkpt lat="41.4690879" lon="0.4215115"><ele>101.75</ele><time>2026-05-04T11:47:40.809Z</time></trkpt><trkpt lat="41.4691642" lon="0.4216594"><ele>103.0</ele><time>2026-05-04T11:47:41.809Z</time></trkpt><trkpt lat="41.4692399" lon="0.4217997"><ele>103.0</ele><time>2026-05-04T11:47:42.808Z</time></trkpt><trkpt lat="41.4693209" lon="0.421932"><ele>103.0</ele><time>2026-05-04T11:47:43.809Z</time></trkpt><trkpt lat="41.4694041" lon="0.4220579"><ele>103.0</ele><time>2026-05-04T11:47:44.809Z</time></trkpt><trkpt lat="41.4694884" lon="0.4221855"><ele>103.0</ele><time>2026-05-04T11:47:45.809Z</time></trkpt><trkpt lat="41.4695693" lon="0.4223068"><ele>103.0</ele><time>2026-05-04T11:47:46.809Z</time></trkpt><trkpt lat="41.4696545" lon="0.4224312"><ele>103.0</ele><time>2026-05-04T11:47:47.808Z</time></trkpt><trkpt lat="41.4697369" lon="0.4225494"><ele>103.0</ele><time>2026-05-04T11:47:48.809Z</time></trkpt><trkpt lat="41.4698262" lon="0.4226663"><ele>103.0</ele><time>2026-05-04T11:47:49.809Z</time></trkpt><trkpt lat="41.4699151" lon="0.4227785"><ele>103.0</ele><time>2026-05-04T11:47:50.809Z</time></trkpt><trkpt lat="41.4699986" lon="0.4228915"><ele>103.0</ele><time>2026-05-04T11:47:51.808Z</time></trkpt><trkpt lat="41.4700776" lon="0.4229964"><ele>103.0</ele><time>2026-05-04T11:47:52.81Z</time></trkpt><trkpt lat="41.470151" lon="0.4230989"><ele>103.0</ele><time>2026-05-04T11:47:53.81Z</time></trkpt><trkpt lat="41.4702203" lon="0.4231884"><ele>103.0</ele><time>2026-05-04T11:47:54.81Z</time></trkpt><trkpt lat="41.4702814" lon="0.4232666"><ele>103.00000000000001</ele><time>2026-05-04T11:47:55.81Z</time></trkpt><trkpt lat="41.4703349" lon="0.4233573"><ele>103.0</ele><time>2026-05-04T11:47:56.81Z</time></trkpt><trkpt lat="41.4703736" lon="0.4234568"><ele>103.0</ele><time>2026-05-04T11:47:57.809Z</time></trkpt><trkpt lat="41.4704074" lon="0.4235672"><ele>103.0</ele><time>2026-05-04T11:47:58.81Z</time></trkpt><trkpt lat="41.4704592" lon="0.4236479"><ele>103.00000000000001</ele><time>2026-05-04T11:47:59.81Z</time></trkpt><trkpt lat="41.4705267" lon="0.4237091"><ele>103.0</ele><time>2026-05-04T11:48:00.81Z</time></trkpt><trkpt lat="41.470617" lon="0.4237454"><ele>103.0</ele><time>2026-05-04T11:48:01.809Z</time></trkpt><trkpt lat="41.470713" lon="0.4237816"><ele>103.0</ele><time>2026-05-04T11:48:02.81Z</time></trkpt><trkpt lat="41.4708" lon="0.4238405"><ele>103.0</ele><time>2026-05-04T11:48:03.81Z</time></trkpt><trkpt lat="41.470898" lon="0.4239069"><ele>103.0</ele><time>2026-05-04T11:48:04.809Z</time></trkpt><trkpt lat="41.4710006" lon="0.4239712"><ele>103.0</ele><time>2026-05-04T11:48:05.81Z</time></trkpt><trkpt lat="41.4711079" lon="0.4240321"><ele>102.75</ele><time>2026-05-04T11:48:06.81Z</time></trkpt><trkpt lat="41.4712238" lon="0.4240889"><ele>102.5</ele><time>2026-05-04T11:48:07.809Z</time></trkpt><trkpt lat="41.471338" lon="0.4241501"><ele>102.25</ele><time>2026-05-04T11:48:08.81Z</time></trkpt><trkpt lat="41.4714547" lon="0.4242116"><ele>102.0</ele><time>2026-05-04T11:48:09.81Z</time></trkpt><trkpt lat="41.4715656" lon="0.4242675"><ele>102.0</ele><time>2026-05-04T11:48:10.81Z</time></trkpt><trkpt lat="41.4716743" lon="0.4243281"><ele>102.0</ele><time>2026-05-04T11:48:11.81Z</time></trkpt><trkpt lat="41.4717849" lon="0.4243897"><ele>102.0</ele><time>2026-05-04T11:48:12.81Z</time></trkpt><trkpt lat="41.4719008" lon="0.4244634"><ele>102.0</ele><time>2026-05-04T11:48:13.81Z</time></trkpt><trkpt lat="41.4720126" lon="0.4245419"><ele>102.0</ele><time>2026-05-04T11:48:14.81Z</time></trkpt><trkpt lat="41.472119" lon="0.4246349"><ele>102.0</ele><time>2026-05-04T11:48:15.81Z</time></trkpt><trkpt lat="41.4722261" lon="0.4247462"><ele>102.0</ele><time>2026-05-04T11:48:16.81Z</time></trkpt><trkpt lat="41.4723151" lon="0.4248723"><ele>102.0</ele><time>2026-05-04T11:48:17.81Z</time></trkpt><trkpt lat="41.4724048" lon="0.4250146"><ele>102.0</ele><time>2026-05-04T11:48:18.81Z</time></trkpt><trkpt lat="41.4724905" lon="0.4251659"><ele>102.0</ele><time>2026-05-04T11:48:19.81Z</time></trkpt><trkpt lat="41.472567" lon="0.4253123"><ele>102.0</ele><time>2026-05-04T11:48:20.81Z</time></trkpt><trkpt lat="41.4726461" lon="0.425464"><ele>102.0</ele><time>2026-05-04T11:48:21.809Z</time></trkpt><trkpt lat="41.4727269" lon="0.4256155"><ele>101.75</ele><time>2026-05-04T11:48:22.81Z</time></trkpt><trkpt lat="41.4728054" lon="0.4257599"><ele>101.5</ele><time>2026-05-04T11:48:23.81Z</time></trkpt><trkpt lat="41.472879" lon="0.4259008"><ele>101.25</ele><time>2026-05-04T11:48:24.81Z</time></trkpt><trkpt lat="41.4729495" lon="0.4260401"><ele>101.0</ele><time>2026-05-04T11:48:25.81Z</time></trkpt><trkpt lat="41.4730228" lon="0.4261816"><ele>102.0</ele><time>2026-05-04T11:48:26.81Z</time></trkpt><trkpt lat="41.473099" lon="0.4263216"><ele>103.0</ele><time>2026-05-04T11:48:27.81Z</time></trkpt><trkpt lat="41.4731759" lon="0.426469"><ele>104.0</ele><time>2026-05-04T11:48:28.81Z</time></trkpt><trkpt lat="41.4732484" lon="0.4266022"><ele>105.0</ele><time>2026-05-04T11:48:29.81Z</time></trkpt><trkpt lat="41.4733142" lon="0.4267284"><ele>105.0</ele><time>2026-05-04T11:48:30.81Z</time></trkpt><trkpt lat="41.4733783" lon="0.4268514"><ele>105.0</ele><time>2026-05-04T11:48:31.81Z</time></trkpt><trkpt lat="41.4734436" lon="0.4269783"><ele>105.0</ele><time>2026-05-04T11:48:32.81Z</time></trkpt><trkpt lat="41.4735131" lon="0.4270997"><ele>105.0</ele><time>2026-05-04T11:48:33.81Z</time></trkpt><trkpt lat="41.4735859" lon="0.4272279"><ele>105.25</ele><time>2026-05-04T11:48:34.809Z</time></trkpt><trkpt lat="41.4736567" lon="0.4273501"><ele>105.5</ele><time>2026-05-04T11:48:35.81Z</time></trkpt><trkpt lat="41.4737294" lon="0.4274744"><ele>105.75</ele><time>2026-05-04T11:48:36.81Z</time></trkpt><trkpt lat="41.4738053" lon="0.4276028"><ele>106.0</ele><time>2026-05-04T11:48:37.81Z</time></trkpt><trkpt lat="41.4738838" lon="0.4277259"><ele>106.0</ele><time>2026-05-04T11:48:38.81Z</time></trkpt><trkpt lat="41.4739636" lon="0.4278573"><ele>106.0</ele><time>2026-05-04T11:48:39.809Z</time></trkpt><trkpt lat="41.4740478" lon="0.4279873"><ele>106.0</ele><time>2026-05-04T11:48:40.81Z</time></trkpt><trkpt lat="41.4741359" lon="0.4281205"><ele>106.0</ele><time>2026-05-04T11:48:41.81Z</time></trkpt><trkpt lat="41.4742266" lon="0.428255"><ele>104.5</ele><time>2026-05-04T11:48:42.81Z</time></trkpt><trkpt lat="41.47432" lon="0.428394"><ele>103.0</ele><time>2026-05-04T11:48:43.81Z</time></trkpt><trkpt lat="41.4744084" lon="0.4285293"><ele>101.5</ele><time>2026-05-04T11:48:44.81Z</time></trkpt><trkpt lat="41.4745037" lon="0.4286696"><ele>100.0</ele><time>2026-05-04T11:48:45.81Z</time></trkpt><trkpt lat="41.4746" lon="0.4288061"><ele>100.25</ele><time>2026-05-04T11:48:46.81Z</time></trkpt><trkpt lat="41.4746951" lon="0.4289418"><ele>100.5</ele><time>2026-05-04T11:48:47.81Z</time></trkpt><trkpt lat="41.4747891" lon="0.4290751"><ele>100.75</ele><time>2026-05-04T11:48:48.809Z</time></trkpt><trkpt lat="41.4748814" lon="0.4292072"><ele>101.0</ele><time>2026-05-04T11:48:49.81Z</time></trkpt><trkpt lat="41.4749758" lon="0.4293409"><ele>101.0</ele><time>2026-05-04T11:48:50.81Z</time></trkpt><trkpt lat="41.4750714" lon="0.4294808"><ele>101.0</ele><time>2026-05-04T11:48:51.81Z</time></trkpt><trkpt lat="41.4751681" lon="0.4296137"><ele>101.0</ele><time>2026-05-04T11:48:52.809Z</time></trkpt><trkpt lat="41.4752653" lon="0.4297514"><ele>101.0</ele><time>2026-05-04T11:48:53.809Z</time></trkpt><trkpt lat="41.4753627" lon="0.4298868"><ele>101.5</ele><time>2026-05-04T11:48:54.81Z</time></trkpt><trkpt lat="41.4754572" lon="0.4300254"><ele>102.0</ele><time>2026-05-04T11:48:55.81Z</time></trkpt><trkpt lat="41.4755551" lon="0.4301658"><ele>102.5</ele><time>2026-05-04T11:48:56.81Z</time></trkpt><trkpt lat="41.4756545" lon="0.4303076"><ele>103.0</ele><time>2026-05-04T11:48:57.81Z</time></trkpt><trkpt lat="41.4757518" lon="0.430452"><ele>101.75</ele><time>2026-05-04T11:48:58.809Z</time></trkpt><trkpt lat="41.475853" lon="0.4305935"><ele>100.5</ele><time>2026-05-04T11:48:59.81Z</time></trkpt><trkpt lat="41.4759511" lon="0.4307367"><ele>99.25</ele><time>2026-05-04T11:49:00.81Z</time></trkpt><trkpt lat="41.4760491" lon="0.4308775"><ele>98.0</ele><time>2026-05-04T11:49:01.81Z</time></trkpt><trkpt lat="41.4761453" lon="0.4310082"><ele>98.0</ele><time>2026-05-04T11:49:02.81Z</time></trkpt><trkpt lat="41.4762356" lon="0.4311399"><ele>98.0</ele><time>2026-05-04T11:49:03.81Z</time></trkpt><trkpt lat="41.4763322" lon="0.4312693"><ele>98.0</ele><time>2026-05-04T11:49:04.81Z</time></trkpt><trkpt lat="41.476425" lon="0.4314037"><ele>98.0</ele><time>2026-05-04T11:49:05.809Z</time></trkpt><trkpt lat="41.4765147" lon="0.4315409"><ele>98.25</ele><time>2026-05-04T11:49:06.81Z</time></trkpt><trkpt lat="41.4766012" lon="0.4316857"><ele>98.5</ele><time>2026-05-04T11:49:07.81Z</time></trkpt><trkpt lat="41.4766923" lon="0.431832"><ele>98.75</ele><time>2026-05-04T11:49:08.81Z</time></trkpt><trkpt lat="41.4767745" lon="0.4319734"><ele>99.0</ele><time>2026-05-04T11:49:09.81Z</time></trkpt><trkpt lat="41.4768623" lon="0.4321248"><ele>98.25</ele><time>2026-05-04T11:49:10.809Z</time></trkpt><trkpt lat="41.4769426" lon="0.4322764"><ele>97.5</ele><time>2026-05-04T11:49:11.809Z</time></trkpt><trkpt lat="41.477022" lon="0.4324309"><ele>96.75</ele><time>2026-05-04T11:49:12.81Z</time></trkpt><trkpt lat="41.4770987" lon="0.4325886"><ele>96.0</ele><time>2026-05-04T11:49:13.81Z</time></trkpt><trkpt lat="41.4771795" lon="0.4327455"><ele>97.0</ele><time>2026-05-04T11:49:14.81Z</time></trkpt><trkpt lat="41.4772602" lon="0.432902"><ele>98.0</ele><time>2026-05-04T11:49:15.81Z</time></trkpt><trkpt lat="41.4773391" lon="0.433058"><ele>99.0</ele><time>2026-05-04T11:49:16.809Z</time></trkpt><trkpt lat="41.4774199" lon="0.4332134"><ele>100.0</ele><time>2026-05-04T11:49:17.81Z</time></trkpt><trkpt lat="41.4775013" lon="0.4333726"><ele>100.0</ele><time>2026-05-04T11:49:18.81Z</time></trkpt><trkpt lat="41.4775845" lon="0.4335326"><ele>100.0</ele><time>2026-05-04T11:49:19.81Z</time></trkpt><trkpt lat="41.4776675" lon="0.4336964"><ele>100.0</ele><time>2026-05-04T11:49:20.809Z</time></trkpt><trkpt lat="41.4777503" lon="0.4338557"><ele>100.0</ele><time>2026-05-04T11:49:21.81Z</time></trkpt><trkpt lat="41.4778332" lon="0.434017"><ele>99.75</ele><time>2026-05-04T11:49:22.81Z</time></trkpt><trkpt lat="41.477912" lon="0.434179"><ele>99.5</ele><time>2026-05-04T11:49:23.81Z</time></trkpt><trkpt lat="41.4779917" lon="0.4343387"><ele>99.25</ele><time>2026-05-04T11:49:24.81Z</time></trkpt><trkpt lat="41.4780702" lon="0.4344989"><ele>99.0</ele><time>2026-05-04T11:49:25.809Z</time></trkpt><trkpt lat="41.4781512" lon="0.4346521"><ele>99.0</ele><time>2026-05-04T11:49:26.81Z</time></trkpt><trkpt lat="41.4782319" lon="0.4348109"><ele>99.0</ele><time>2026-05-04T11:49:27.809Z</time></trkpt><trkpt lat="41.4783115" lon="0.4349675"><ele>99.0</ele><time>2026-05-04T11:49:28.809Z</time></trkpt><trkpt lat="41.4783954" lon="0.4351248"><ele>99.0</ele><time>2026-05-04T11:49:29.81Z</time></trkpt><trkpt lat="41.4784793" lon="0.4352857"><ele>99.0</ele><time>2026-05-04T11:49:30.81Z</time></trkpt><trkpt lat="41.4785617" lon="0.435441"><ele>99.0</ele><time>2026-05-04T11:49:31.81Z</time></trkpt><trkpt lat="41.4786419" lon="0.4355977"><ele>99.0</ele><time>2026-05-04T11:49:32.809Z</time></trkpt><trkpt lat="41.4787196" lon="0.4357563"><ele>99.0</ele><time>2026-05-04T11:49:33.81Z</time></trkpt><trkpt lat="41.4787999" lon="0.4359176"><ele>99.75</ele><time>2026-05-04T11:49:34.81Z</time></trkpt><trkpt lat="41.4788825" lon="0.436071"><ele>100.5</ele><time>2026-05-04T11:49:35.81Z</time></trkpt><trkpt lat="41.4789608" lon="0.4362279"><ele>101.25</ele><time>2026-05-04T11:49:36.81Z</time></trkpt><trkpt lat="41.4790414" lon="0.4363848"><ele>102.0</ele><time>2026-05-04T11:49:37.81Z</time></trkpt><trkpt lat="41.4791172" lon="0.4365395"><ele>102.0</ele><time>2026-05-04T11:49:38.81Z</time></trkpt><trkpt lat="41.4791961" lon="0.436693"><ele>102.0</ele><time>2026-05-04T11:49:39.81Z</time></trkpt><trkpt lat="41.4792772" lon="0.4368487"><ele>102.0</ele><time>2026-05-04T11:49:40.81Z</time></trkpt><trkpt lat="41.479357" lon="0.4370054"><ele>102.0</ele><time>2026-05-04T11:49:41.81Z</time></trkpt><trkpt lat="41.4794392" lon="0.4371636"><ele>101.25</ele><time>2026-05-04T11:49:42.81Z</time></trkpt><trkpt lat="41.4795168" lon="0.4373173"><ele>100.5</ele><time>2026-05-04T11:49:43.81Z</time></trkpt><trkpt lat="41.4795959" lon="0.4374689"><ele>99.75</ele><time>2026-05-04T11:49:44.81Z</time></trkpt><trkpt lat="41.4796765" lon="0.4376184"><ele>99.0</ele><time>2026-05-04T11:49:45.81Z</time></trkpt><trkpt lat="41.4797572" lon="0.4377715"><ele>99.75</ele><time>2026-05-04T11:49:46.81Z</time></trkpt><trkpt lat="41.4798351" lon="0.437925"><ele>100.5</ele><time>2026-05-04T11:49:47.809Z</time></trkpt><trkpt lat="41.4799167" lon="0.4380775"><ele>101.25</ele><time>2026-05-04T11:49:48.81Z</time></trkpt><trkpt lat="41.4799973" lon="0.4382302"><ele>102.0</ele><time>2026-05-04T11:49:49.809Z</time></trkpt><trkpt lat="41.4800784" lon="0.4383833"><ele>102.0</ele><time>2026-05-04T11:49:50.81Z</time></trkpt><trkpt lat="41.4801567" lon="0.438532"><ele>102.0</ele><time>2026-05-04T11:49:51.81Z</time></trkpt><trkpt lat="41.4802348" lon="0.4386889"><ele>102.0</ele><time>2026-05-04T11:49:52.81Z</time></trkpt><trkpt lat="41.4803168" lon="0.4388416"><ele>102.0</ele><time>2026-05-04T11:49:53.809Z</time></trkpt><trkpt lat="41.4803938" lon="0.4389957"><ele>103.25</ele><time>2026-05-04T11:49:54.81Z</time></trkpt><trkpt lat="41.48047" lon="0.4391489"><ele>104.5</ele><time>2026-05-04T11:49:55.81Z</time></trkpt><trkpt lat="41.480544" lon="0.4392919"><ele>105.75</ele><time>2026-05-04T11:49:56.81Z</time></trkpt><trkpt lat="41.4806214" lon="0.4394424"><ele>107.0</ele><time>2026-05-04T11:49:57.81Z</time></trkpt><trkpt lat="41.4807022" lon="0.4395874"><ele>106.75</ele><time>2026-05-04T11:49:58.81Z</time></trkpt><trkpt lat="41.4807792" lon="0.4397208"><ele>106.5</ele><time>2026-05-04T11:49:59.81Z</time></trkpt><trkpt lat="41.480854" lon="0.4398553"><ele>106.25</ele><time>2026-05-04T11:50:00.811Z</time></trkpt><trkpt lat="41.4809301" lon="0.4399865"><ele>106.0</ele><time>2026-05-04T11:50:01.811Z</time></trkpt><trkpt lat="41.4810065" lon="0.4401125"><ele>106.0</ele><time>2026-05-04T11:50:02.811Z</time></trkpt><trkpt lat="41.4810832" lon="0.4402362"><ele>106.0</ele><time>2026-05-04T11:50:03.811Z</time></trkpt><trkpt lat="41.4811602" lon="0.4403612"><ele>106.0</ele><time>2026-05-04T11:50:04.81Z</time></trkpt><trkpt lat="41.4812371" lon="0.4404796"><ele>106.0</ele><time>2026-05-04T11:50:05.811Z</time></trkpt><trkpt lat="41.481315" lon="0.4405989"><ele>108.25</ele><time>2026-05-04T11:50:06.811Z</time></trkpt><trkpt lat="41.4813882" lon="0.4407184"><ele>110.5</ele><time>2026-05-04T11:50:07.811Z</time></trkpt><trkpt lat="41.4814601" lon="0.4408376"><ele>112.75</ele><time>2026-05-04T11:50:08.811Z</time></trkpt><trkpt lat="41.4815362" lon="0.4409564"><ele>115.0</ele><time>2026-05-04T11:50:09.811Z</time></trkpt><trkpt lat="41.4816054" lon="0.4410759"><ele>115.0</ele><time>2026-05-04T11:50:10.811Z</time></trkpt><trkpt lat="41.4816787" lon="0.4411949"><ele>115.0</ele><time>2026-05-04T11:50:11.811Z</time></trkpt><trkpt lat="41.4817536" lon="0.4413183"><ele>115.0</ele><time>2026-05-04T11:50:12.811Z</time></trkpt><trkpt lat="41.4818304" lon="0.4414469"><ele>115.0</ele><time>2026-05-04T11:50:13.81Z</time></trkpt><trkpt lat="41.4819096" lon="0.4415701"><ele>116.0</ele><time>2026-05-04T11:50:14.811Z</time></trkpt><trkpt lat="41.4819886" lon="0.4416974"><ele>117.0</ele><time>2026-05-04T11:50:15.81Z</time></trkpt><trkpt lat="41.4820708" lon="0.4418273"><ele>118.0</ele><time>2026-05-04T11:50:16.81Z</time></trkpt><trkpt lat="41.4821527" lon="0.4419572"><ele>119.0</ele><time>2026-05-04T11:50:17.811Z</time></trkpt><trkpt lat="41.4822333" lon="0.4420898"><ele>116.75</ele><time>2026-05-04T11:50:18.81Z</time></trkpt><trkpt lat="41.4823175" lon="0.4422225"><ele>114.5</ele><time>2026-05-04T11:50:19.811Z</time></trkpt><trkpt lat="41.4824039" lon="0.442365"><ele>112.25</ele><time>2026-05-04T11:50:20.811Z</time></trkpt><trkpt lat="41.4824884" lon="0.4425056"><ele>110.0</ele><time>2026-05-04T11:50:21.81Z</time></trkpt><trkpt lat="41.4825786" lon="0.4426487"><ele>110.0</ele><time>2026-05-04T11:50:22.81Z</time></trkpt><trkpt lat="41.4826715" lon="0.4427962"><ele>110.0</ele><time>2026-05-04T11:50:23.811Z</time></trkpt><trkpt lat="41.4827615" lon="0.442943"><ele>110.0</ele><time>2026-05-04T11:50:24.811Z</time></trkpt><trkpt lat="41.4828487" lon="0.4430961"><ele>110.0</ele><time>2026-05-04T11:50:25.81Z</time></trkpt><trkpt lat="41.482934" lon="0.4432465"><ele>109.75</ele><time>2026-05-04T11:50:26.81Z</time></trkpt><trkpt lat="41.4830171" lon="0.4433969"><ele>109.5</ele><time>2026-05-04T11:50:27.811Z</time></trkpt><trkpt lat="41.4830945" lon="0.4435678"><ele>109.25</ele><time>2026-05-04T11:50:28.811Z</time></trkpt><trkpt lat="41.483162" lon="0.4437473"><ele>109.0</ele><time>2026-05-04T11:50:29.81Z</time></trkpt><trkpt lat="41.483212" lon="0.4439281"><ele>108.25</ele><time>2026-05-04T11:50:30.811Z</time></trkpt><trkpt lat="41.4832577" lon="0.4441177"><ele>107.5</ele><time>2026-05-04T11:50:31.811Z</time></trkpt><trkpt lat="41.4833032" lon="0.4443038"><ele>106.75</ele><time>2026-05-04T11:50:32.811Z</time></trkpt><trkpt lat="41.4833443" lon="0.4444922"><ele>106.0</ele><time>2026-05-04T11:50:33.811Z</time></trkpt><trkpt lat="41.4833901" lon="0.44468"><ele>105.75</ele><time>2026-05-04T11:50:34.811Z</time></trkpt><trkpt lat="41.4834307" lon="0.4448643"><ele>105.5</ele><time>2026-05-04T11:50:35.811Z</time></trkpt><trkpt lat="41.4834713" lon="0.4450413"><ele>105.25</ele><time>2026-05-04T11:50:36.811Z</time></trkpt><trkpt lat="41.4835158" lon="0.445214"><ele>105.0</ele><time>2026-05-04T11:50:37.81Z</time></trkpt><trkpt lat="41.4835719" lon="0.4453902"><ele>104.5</ele><time>2026-05-04T11:50:38.811Z</time></trkpt><trkpt lat="41.4836397" lon="0.445556"><ele>104.0</ele><time>2026-05-04T11:50:39.811Z</time></trkpt><trkpt lat="41.4837158" lon="0.4457137"><ele>103.5</ele><time>2026-05-04T11:50:40.811Z</time></trkpt><trkpt lat="41.4838004" lon="0.4458639"><ele>103.0</ele><time>2026-05-04T11:50:41.811Z</time></trkpt><trkpt lat="41.4839025" lon="0.4460021"><ele>103.0</ele><time>2026-05-04T11:50:42.811Z</time></trkpt><trkpt lat="41.484008" lon="0.4461304"><ele>103.0</ele><time>2026-05-04T11:50:43.81Z</time></trkpt><trkpt lat="41.4841141" lon="0.4462466"><ele>103.0</ele><time>2026-05-04T11:50:44.81Z</time></trkpt><trkpt lat="41.4842171" lon="0.4463648"><ele>103.0</ele><time>2026-05-04T11:50:45.811Z</time></trkpt><trkpt lat="41.4843169" lon="0.4464762"><ele>103.0</ele><time>2026-05-04T11:50:46.811Z</time></trkpt><trkpt lat="41.4844216" lon="0.4465869"><ele>103.0</ele><time>2026-05-04T11:50:47.811Z</time></trkpt><trkpt lat="41.484523" lon="0.4466922"><ele>103.0</ele><time>2026-05-04T11:50:48.81Z</time></trkpt><trkpt lat="41.484625" lon="0.4468002"><ele>103.0</ele><time>2026-05-04T11:50:49.811Z</time></trkpt><trkpt lat="41.4847279" lon="0.4469024"><ele>103.5</ele><time>2026-05-04T11:50:50.811Z</time></trkpt><trkpt lat="41.484828" lon="0.4470083"><ele>104.0</ele><time>2026-05-04T11:50:51.811Z</time></trkpt><trkpt lat="41.4849243" lon="0.4471237"><ele>104.5</ele><time>2026-05-04T11:50:52.811Z</time></trkpt><trkpt lat="41.4850123" lon="0.4472382"><ele>105.0</ele><time>2026-05-04T11:50:53.81Z</time></trkpt><trkpt lat="41.4851008" lon="0.4473598"><ele>105.0</ele><time>2026-05-04T11:50:54.811Z</time></trkpt><trkpt lat="41.4851827" lon="0.4474819"><ele>105.0</ele><time>2026-05-04T11:50:55.811Z</time></trkpt><trkpt lat="41.4852655" lon="0.4476147"><ele>105.0</ele><time>2026-05-04T11:50:56.811Z</time></trkpt><trkpt lat="41.4853474" lon="0.44775"><ele>105.0</ele><time>2026-05-04T11:50:57.811Z</time></trkpt><trkpt lat="41.4854305" lon="0.447887"><ele>108.75</ele><time>2026-05-04T11:50:58.811Z</time></trkpt><trkpt lat="41.4855068" lon="0.448022"><ele>112.5</ele><time>2026-05-04T11:50:59.81Z</time></trkpt><trkpt lat="41.4855825" lon="0.4481602"><ele>116.25</ele><time>2026-05-04T11:51:00.811Z</time></trkpt><trkpt lat="41.4856607" lon="0.4482959"><ele>120.0</ele><time>2026-05-04T11:51:01.811Z</time></trkpt><trkpt lat="41.4857325" lon="0.4484287"><ele>120.0</ele><time>2026-05-04T11:51:02.811Z</time></trkpt><trkpt lat="41.4858059" lon="0.4485639"><ele>120.0</ele><time>2026-05-04T11:51:03.811Z</time></trkpt><trkpt lat="41.4858792" lon="0.4487032"><ele>120.0</ele><time>2026-05-04T11:51:04.811Z</time></trkpt><trkpt lat="41.4859516" lon="0.4488357"><ele>120.0</ele><time>2026-05-04T11:51:05.811Z</time></trkpt><trkpt lat="41.4860275" lon="0.4489728"><ele>116.25</ele><time>2026-05-04T11:51:06.811Z</time></trkpt><trkpt lat="41.486101" lon="0.4491061"><ele>112.5</ele><time>2026-05-04T11:51:07.811Z</time></trkpt><trkpt lat="41.4861768" lon="0.4492467"><ele>108.75</ele><time>2026-05-04T11:51:08.811Z</time></trkpt><trkpt lat="41.4862517" lon="0.4493814"><ele>105.0</ele><time>2026-05-04T11:51:09.811Z</time></trkpt><trkpt lat="41.4863289" lon="0.4495201"><ele>106.25</ele><time>2026-05-04T11:51:10.811Z</time></trkpt><trkpt lat="41.4864048" lon="0.4496581"><ele>107.5</ele><time>2026-05-04T11:51:11.811Z</time></trkpt><trkpt lat="41.4864827" lon="0.4497988"><ele>108.75</ele><time>2026-05-04T11:51:12.811Z</time></trkpt><trkpt lat="41.4865615" lon="0.4499342"><ele>110.0</ele><time>2026-05-04T11:51:13.811Z</time></trkpt><trkpt lat="41.4866421" lon="0.4500772"><ele>110.0</ele><time>2026-05-04T11:51:14.811Z</time></trkpt><trkpt lat="41.4867212" lon="0.4502127"><ele>110.0</ele><time>2026-05-04T11:51:15.811Z</time></trkpt><trkpt lat="41.486804" lon="0.4503546"><ele>110.0</ele><time>2026-05-04T11:51:16.81Z</time></trkpt><trkpt lat="41.4868879" lon="0.450491"><ele>110.0</ele><time>2026-05-04T11:51:17.81Z</time></trkpt><trkpt lat="41.4869754" lon="0.4506275"><ele>111.25</ele><time>2026-05-04T11:51:18.811Z</time></trkpt><trkpt lat="41.4870662" lon="0.4507629"><ele>112.5</ele><time>2026-05-04T11:51:19.811Z</time></trkpt><trkpt lat="41.4871522" lon="0.4509031"><ele>113.75</ele><time>2026-05-04T11:51:20.81Z</time></trkpt><trkpt lat="41.4872422" lon="0.4510414"><ele>115.0</ele><time>2026-05-04T11:51:21.811Z</time></trkpt><trkpt lat="41.4873282" lon="0.4511787"><ele>112.75</ele><time>2026-05-04T11:51:22.81Z</time></trkpt><trkpt lat="41.4874133" lon="0.4513201"><ele>110.5</ele><time>2026-05-04T11:51:23.811Z</time></trkpt><trkpt lat="41.4874991" lon="0.4514636"><ele>108.25</ele><time>2026-05-04T11:51:24.81Z</time></trkpt><trkpt lat="41.4875898" lon="0.451603"><ele>106.0</ele><time>2026-05-04T11:51:25.811Z</time></trkpt><trkpt lat="41.4876822" lon="0.4517462"><ele>106.0</ele><time>2026-05-04T11:51:26.81Z</time></trkpt><trkpt lat="41.4877728" lon="0.4518869"><ele>106.0</ele><time>2026-05-04T11:51:27.811Z</time></trkpt><trkpt lat="41.4878641" lon="0.4520273"><ele>106.0</ele><time>2026-05-04T11:51:28.811Z</time></trkpt><trkpt lat="41.4879595" lon="0.4521589"><ele>106.0</ele><time>2026-05-04T11:51:29.811Z</time></trkpt><trkpt lat="41.4880565" lon="0.4522917"><ele>108.5</ele><time>2026-05-04T11:51:30.811Z</time></trkpt><trkpt lat="41.4881601" lon="0.4524253"><ele>111.0</ele><time>2026-05-04T11:51:31.811Z</time></trkpt><trkpt lat="41.4882668" lon="0.4525449"><ele>113.5</ele><time>2026-05-04T11:51:32.811Z</time></trkpt><trkpt lat="41.4883843" lon="0.4526617"><ele>116.0</ele><time>2026-05-04T11:51:33.811Z</time></trkpt><trkpt lat="41.4885005" lon="0.4527718"><ele>116.0</ele><time>2026-05-04T11:51:34.811Z</time></trkpt><trkpt lat="41.4886183" lon="0.4528798"><ele>116.0</ele><time>2026-05-04T11:51:35.811Z</time></trkpt><trkpt lat="41.4887329" lon="0.4529891"><ele>116.0</ele><time>2026-05-04T11:51:36.811Z</time></trkpt><trkpt lat="41.4888566" lon="0.453098"><ele>116.0</ele><time>2026-05-04T11:51:37.811Z</time></trkpt><trkpt lat="41.4889731" lon="0.453197"><ele>113.75</ele><time>2026-05-04T11:51:38.811Z</time></trkpt><trkpt lat="41.4890852" lon="0.4532997"><ele>111.5</ele><time>2026-05-04T11:51:39.811Z</time></trkpt><trkpt lat="41.4891947" lon="0.4534042"><ele>109.25</ele><time>2026-05-04T11:51:40.811Z</time></trkpt><trkpt lat="41.4893015" lon="0.4534988"><ele>107.0</ele><time>2026-05-04T11:51:41.811Z</time></trkpt><trkpt lat="41.4894041" lon="0.4535893"><ele>107.0</ele><time>2026-05-04T11:51:42.811Z</time></trkpt><trkpt lat="41.4895046" lon="0.45368"><ele>107.0</ele><time>2026-05-04T11:51:43.811Z</time></trkpt><trkpt lat="41.4896041" lon="0.4537679"><ele>107.0</ele><time>2026-05-04T11:51:44.811Z</time></trkpt><trkpt lat="41.4896976" lon="0.4538446"><ele>107.0</ele><time>2026-05-04T11:51:45.811Z</time></trkpt><trkpt lat="41.4897872" lon="0.4539215"><ele>106.49999999999999</ele><time>2026-05-04T11:51:46.811Z</time></trkpt><trkpt lat="41.4898612" lon="0.4540056"><ele>106.0</ele><time>2026-05-04T11:51:47.811Z</time></trkpt><trkpt lat="41.4899146" lon="0.4540754"><ele>105.5</ele><time>2026-05-04T11:51:48.811Z</time></trkpt><trkpt lat="41.4899579" lon="0.4541497"><ele>105.0</ele><time>2026-05-04T11:51:49.811Z</time></trkpt><trkpt lat="41.4899962" lon="0.4542274"><ele>104.49999999999999</ele><time>2026-05-04T11:51:50.811Z</time></trkpt><trkpt lat="41.490046" lon="0.4542959"><ele>104.0</ele><time>2026-05-04T11:51:51.811Z</time></trkpt><trkpt lat="41.4901035" lon="0.4543527"><ele>103.99999999999999</ele><time>2026-05-04T11:51:52.811Z</time></trkpt><trkpt lat="41.4901757" lon="0.4544025"><ele>104.0</ele><time>2026-05-04T11:51:53.81Z</time></trkpt><trkpt lat="41.4902411" lon="0.4544724"><ele>104.0</ele><time>2026-05-04T11:51:54.811Z</time></trkpt><trkpt lat="41.4902971" lon="0.4545628"><ele>104.0</ele><time>2026-05-04T11:51:55.811Z</time></trkpt><trkpt lat="41.4903484" lon="0.4546586"><ele>103.99999999999999</ele><time>2026-05-04T11:51:56.811Z</time></trkpt><trkpt lat="41.4903963" lon="0.4547696"><ele>104.0</ele><time>2026-05-04T11:51:57.811Z</time></trkpt><trkpt lat="41.4904347" lon="0.4548833"><ele>103.6</ele><time>2026-05-04T11:51:58.811Z</time></trkpt><trkpt lat="41.4904722" lon="0.4550101"><ele>103.2</ele><time>2026-05-04T11:51:59.811Z</time></trkpt><trkpt lat="41.4905087" lon="0.4551361"><ele>102.8</ele><time>2026-05-04T11:52:00.811Z</time></trkpt><trkpt lat="41.4905481" lon="0.4552689"><ele>102.39999999999999</ele><time>2026-05-04T11:52:01.811Z</time></trkpt><trkpt lat="41.49059" lon="0.4554079"><ele>102.0</ele><time>2026-05-04T11:52:02.811Z</time></trkpt><trkpt lat="41.4906244" lon="0.4555479"><ele>102.0</ele><time>2026-05-04T11:52:03.811Z</time></trkpt><trkpt lat="41.490661" lon="0.4556828"><ele>102.0</ele><time>2026-05-04T11:52:04.81Z</time></trkpt><trkpt lat="41.4907009" lon="0.4558216"><ele>102.0</ele><time>2026-05-04T11:52:05.812Z</time></trkpt><trkpt lat="41.4907362" lon="0.4559511"><ele>102.0</ele><time>2026-05-04T11:52:06.812Z</time></trkpt><trkpt lat="41.4907784" lon="0.4560831"><ele>102.0</ele><time>2026-05-04T11:52:07.812Z</time></trkpt><trkpt lat="41.4908184" lon="0.4562209"><ele>102.0</ele><time>2026-05-04T11:52:08.812Z</time></trkpt><trkpt lat="41.4908525" lon="0.4563586"><ele>102.0</ele><time>2026-05-04T11:52:09.812Z</time></trkpt><trkpt lat="41.490892" lon="0.4564986"><ele>102.0</ele><time>2026-05-04T11:52:10.812Z</time></trkpt><trkpt lat="41.4909355" lon="0.4566383"><ele>102.0</ele><time>2026-05-04T11:52:11.812Z</time></trkpt><trkpt lat="41.4909776" lon="0.4567775"><ele>102.0</ele><time>2026-05-04T11:52:12.811Z</time></trkpt><trkpt lat="41.4910173" lon="0.4569163"><ele>102.0</ele><time>2026-05-04T11:52:13.812Z</time></trkpt><trkpt lat="41.4910638" lon="0.4570471"><ele>102.0</ele><time>2026-05-04T11:52:14.812Z</time></trkpt><trkpt lat="41.4911208" lon="0.4571778"><ele>102.0</ele><time>2026-05-04T11:52:15.812Z</time></trkpt><trkpt lat="41.4911859" lon="0.4573039"><ele>102.0</ele><time>2026-05-04T11:52:16.812Z</time></trkpt><trkpt lat="41.4912565" lon="0.4574229"><ele>103.0</ele><time>2026-05-04T11:52:17.812Z</time></trkpt><trkpt lat="41.4913288" lon="0.4575388"><ele>104.0</ele><time>2026-05-04T11:52:18.812Z</time></trkpt><trkpt lat="41.4914072" lon="0.4576554"><ele>105.0</ele><time>2026-05-04T11:52:19.812Z</time></trkpt><trkpt lat="41.4914868" lon="0.4577772"><ele>106.0</ele><time>2026-05-04T11:52:20.812Z</time></trkpt><trkpt lat="41.4915681" lon="0.4578999"><ele>106.25</ele><time>2026-05-04T11:52:21.812Z</time></trkpt><trkpt lat="41.4916504" lon="0.4580241"><ele>106.5</ele><time>2026-05-04T11:52:22.812Z</time></trkpt><trkpt lat="41.4917222" lon="0.4581503"><ele>106.75</ele><time>2026-05-04T11:52:23.812Z</time></trkpt><trkpt lat="41.4917971" lon="0.4582761"><ele>107.0</ele><time>2026-05-04T11:52:24.812Z</time></trkpt><trkpt lat="41.491875" lon="0.4583974"><ele>107.0</ele><time>2026-05-04T11:52:25.812Z</time></trkpt><trkpt lat="41.4919493" lon="0.4585145"><ele>106.99999999999999</ele><time>2026-05-04T11:52:26.811Z</time></trkpt><trkpt lat="41.4920208" lon="0.4586179"><ele>106.99999999999999</ele><time>2026-05-04T11:52:27.812Z</time></trkpt><trkpt lat="41.492098" lon="0.4587105"><ele>107.0</ele><time>2026-05-04T11:52:28.811Z</time></trkpt><trkpt lat="41.4921804" lon="0.4587808"><ele>107.0</ele><time>2026-05-04T11:52:29.812Z</time></trkpt><trkpt lat="41.4922633" lon="0.4588397"><ele>106.6</ele><time>2026-05-04T11:52:30.812Z</time></trkpt><trkpt lat="41.4923428" lon="0.4588955"><ele>106.19999999999999</ele><time>2026-05-04T11:52:31.812Z</time></trkpt><trkpt lat="41.4924245" lon="0.4589505"><ele>105.8</ele><time>2026-05-04T11:52:32.812Z</time></trkpt><trkpt lat="41.4925145" lon="0.4590001"><ele>105.4</ele><time>2026-05-04T11:52:33.812Z</time></trkpt><trkpt lat="41.4926079" lon="0.4590533"><ele>105.0</ele><time>2026-05-04T11:52:34.811Z</time></trkpt><trkpt lat="41.4927012" lon="0.4591058"><ele>105.0</ele><time>2026-05-04T11:52:35.812Z</time></trkpt><trkpt lat="41.4927945" lon="0.4591672"><ele>105.0</ele><time>2026-05-04T11:52:36.812Z</time></trkpt><trkpt lat="41.4928901" lon="0.4592285"><ele>105.0</ele><time>2026-05-04T11:52:37.812Z</time></trkpt><trkpt lat="41.4929859" lon="0.4592901"><ele>105.0</ele><time>2026-05-04T11:52:38.812Z</time></trkpt><trkpt lat="41.4930831" lon="0.4593489"><ele>105.0</ele><time>2026-05-04T11:52:39.811Z</time></trkpt><trkpt lat="41.4931809" lon="0.4594098"><ele>105.25</ele><time>2026-05-04T11:52:40.812Z</time></trkpt><trkpt lat="41.4932812" lon="0.459469"><ele>105.5</ele><time>2026-05-04T11:52:41.812Z</time></trkpt><trkpt lat="41.4933842" lon="0.4595308"><ele>105.75</ele><time>2026-05-04T11:52:42.812Z</time></trkpt><trkpt lat="41.4934903" lon="0.4595953"><ele>106.0</ele><time>2026-05-04T11:52:43.812Z</time></trkpt><trkpt lat="41.4935976" lon="0.4596629"><ele>106.0</ele><time>2026-05-04T11:52:44.812Z</time></trkpt><trkpt lat="41.4937092" lon="0.4597346"><ele>106.0</ele><time>2026-05-04T11:52:45.812Z</time></trkpt><trkpt lat="41.4938108" lon="0.4598065"><ele>106.0</ele><time>2026-05-04T11:52:46.812Z</time></trkpt><trkpt lat="41.4939263" lon="0.4598716"><ele>106.0</ele><time>2026-05-04T11:52:47.812Z</time></trkpt><trkpt lat="41.4940321" lon="0.4599348"><ele>106.25</ele><time>2026-05-04T11:52:48.812Z</time></trkpt><trkpt lat="41.4941424" lon="0.460007"><ele>106.5</ele><time>2026-05-04T11:52:49.812Z</time></trkpt><trkpt lat="41.4942547" lon="0.4600698"><ele>106.75</ele><time>2026-05-04T11:52:50.812Z</time></trkpt><trkpt lat="41.494358" lon="0.4601305"><ele>107.0</ele><time>2026-05-04T11:52:51.812Z</time></trkpt><trkpt lat="41.494462" lon="0.4601957"><ele>107.0</ele><time>2026-05-04T11:52:52.811Z</time></trkpt><trkpt lat="41.4945515" lon="0.4602551"><ele>106.99999999999999</ele><time>2026-05-04T11:52:53.812Z</time></trkpt><trkpt lat="41.494649" lon="0.4603262"><ele>106.99999999999999</ele><time>2026-05-04T11:52:54.812Z</time></trkpt><trkpt lat="41.4947466" lon="0.4603819"><ele>107.0</ele><time>2026-05-04T11:52:55.812Z</time></trkpt><trkpt lat="41.4948471" lon="0.4604347"><ele>107.0</ele><time>2026-05-04T11:52:56.812Z</time></trkpt><trkpt lat="41.4949479" lon="0.4604921"><ele>107.0</ele><time>2026-05-04T11:52:57.812Z</time></trkpt><trkpt lat="41.4950421" lon="0.460555"><ele>106.99999999999999</ele><time>2026-05-04T11:52:58.812Z</time></trkpt><trkpt lat="41.4951393" lon="0.4606188"><ele>106.99999999999999</ele><time>2026-05-04T11:52:59.812Z</time></trkpt><trkpt lat="41.4952421" lon="0.460678"><ele>107.0</ele><time>2026-05-04T11:53:00.812Z</time></trkpt><trkpt lat="41.4953448" lon="0.460745"><ele>107.0</ele><time>2026-05-04T11:53:01.812Z</time></trkpt><trkpt lat="41.4954447" lon="0.4608117"><ele>107.19999999999999</ele><time>2026-05-04T11:53:02.811Z</time></trkpt><trkpt lat="41.4955457" lon="0.4608767"><ele>107.39999999999999</ele><time>2026-05-04T11:53:03.811Z</time></trkpt><trkpt lat="41.4956416" lon="0.4609388"><ele>107.60000000000001</ele><time>2026-05-04T11:53:04.812Z</time></trkpt><trkpt lat="41.4957481" lon="0.4609956"><ele>107.80000000000001</ele><time>2026-05-04T11:53:05.812Z</time></trkpt><trkpt lat="41.4958507" lon="0.461058"><ele>108.0</ele><time>2026-05-04T11:53:06.811Z</time></trkpt><trkpt lat="41.4959534" lon="0.461127"><ele>108.0</ele><time>2026-05-04T11:53:07.812Z</time></trkpt><trkpt lat="41.4960621" lon="0.4611946"><ele>108.0</ele><time>2026-05-04T11:53:08.812Z</time></trkpt><trkpt lat="41.4961735" lon="0.4612617"><ele>108.0</ele><time>2026-05-04T11:53:09.812Z</time></trkpt><trkpt lat="41.4962859" lon="0.4613289"><ele>108.0</ele><time>2026-05-04T11:53:10.811Z</time></trkpt><trkpt lat="41.4963998" lon="0.4613972"><ele>108.5</ele><time>2026-05-04T11:53:11.812Z</time></trkpt><trkpt lat="41.4965134" lon="0.4614713"><ele>109.0</ele><time>2026-05-04T11:53:12.812Z</time></trkpt><trkpt lat="41.4966271" lon="0.4615467"><ele>109.5</ele><time>2026-05-04T11:53:13.811Z</time></trkpt><trkpt lat="41.4967354" lon="0.4616098"><ele>110.0</ele><time>2026-05-04T11:53:14.812Z</time></trkpt><trkpt lat="41.4968392" lon="0.4616683"><ele>110.0</ele><time>2026-05-04T11:53:15.812Z</time></trkpt><trkpt lat="41.4969347" lon="0.4617279"><ele>110.0</ele><time>2026-05-04T11:53:16.812Z</time></trkpt><trkpt lat="41.4970301" lon="0.4617966"><ele>110.0</ele><time>2026-05-04T11:53:17.812Z</time></trkpt><trkpt lat="41.4971324" lon="0.46186"><ele>110.0</ele><time>2026-05-04T11:53:18.812Z</time></trkpt><trkpt lat="41.4972256" lon="0.4619137"><ele>110.0</ele><time>2026-05-04T11:53:19.812Z</time></trkpt><trkpt lat="41.4973185" lon="0.4619705"><ele>110.33333333333333</ele><time>2026-05-04T11:53:20.811Z</time></trkpt><trkpt lat="41.4974006" lon="0.4620239"><ele>110.66666666666666</ele><time>2026-05-04T11:53:21.812Z</time></trkpt><trkpt lat="41.4974739" lon="0.4620755"><ele>111.0</ele><time>2026-05-04T11:53:22.811Z</time></trkpt><trkpt lat="41.4975371" lon="0.4621115"><ele>111.33333333333334</ele><time>2026-05-04T11:53:23.812Z</time></trkpt><trkpt lat="41.4975985" lon="0.462144"><ele>111.66666666666667</ele><time>2026-05-04T11:53:24.812Z</time></trkpt><trkpt lat="41.4976643" lon="0.4621875"><ele>112.0</ele><time>2026-05-04T11:53:25.811Z</time></trkpt><trkpt lat="41.4977327" lon="0.4622314"><ele>112.28571428571428</ele><time>2026-05-04T11:53:26.811Z</time></trkpt><trkpt lat="41.497796" lon="0.4622755"><ele>112.57142857142857</ele><time>2026-05-04T11:53:27.812Z</time></trkpt><trkpt lat="41.4978556" lon="0.4623249"><ele>112.85714285714286</ele><time>2026-05-04T11:53:28.812Z</time></trkpt><trkpt lat="41.4979071" lon="0.4623807"><ele>113.14285714285714</ele><time>2026-05-04T11:53:29.811Z</time></trkpt><trkpt lat="41.4979552" lon="0.4624469"><ele>113.42857142857142</ele><time>2026-05-04T11:53:30.812Z</time></trkpt><trkpt lat="41.4979983" lon="0.4625146"><ele>113.71428571428571</ele><time>2026-05-04T11:53:31.811Z</time></trkpt><trkpt lat="41.4980422" lon="0.4625884"><ele>114.0</ele><time>2026-05-04T11:53:32.812Z</time></trkpt><trkpt lat="41.4980823" lon="0.4626801"><ele>114.0</ele><time>2026-05-04T11:53:33.811Z</time></trkpt><trkpt lat="41.4981215" lon="0.4627866"><ele>114.0</ele><time>2026-05-04T11:53:34.812Z</time></trkpt><trkpt lat="41.498159" lon="0.4629031"><ele>114.0</ele><time>2026-05-04T11:53:35.812Z</time></trkpt><trkpt lat="41.498198" lon="0.4630265"><ele>114.0</ele><time>2026-05-04T11:53:36.812Z</time></trkpt><trkpt lat="41.498232" lon="0.4631483"><ele>114.0</ele><time>2026-05-04T11:53:37.812Z</time></trkpt><trkpt lat="41.498259" lon="0.4632754"><ele>114.0</ele><time>2026-05-04T11:53:38.811Z</time></trkpt><trkpt lat="41.4982725" lon="0.4633933"><ele>114.0</ele><time>2026-05-04T11:53:39.812Z</time></trkpt><trkpt lat="41.4982766" lon="0.4635029"><ele>114.0</ele><time>2026-05-04T11:53:40.811Z</time></trkpt><trkpt lat="41.4983143" lon="0.4636075"><ele>114.0</ele><time>2026-05-04T11:53:41.812Z</time></trkpt><trkpt lat="41.4983733" lon="0.4637088"><ele>114.0</ele><time>2026-05-04T11:53:42.812Z</time></trkpt><trkpt lat="41.4984412" lon="0.4638045"><ele>113.5</ele><time>2026-05-04T11:53:43.812Z</time></trkpt><trkpt lat="41.4984946" lon="0.4639263"><ele>113.0</ele><time>2026-05-04T11:53:44.812Z</time></trkpt><trkpt lat="41.4985379" lon="0.464065"><ele>112.5</ele><time>2026-05-04T11:53:45.811Z</time></trkpt><trkpt lat="41.4985736" lon="0.4642129"><ele>112.0</ele><time>2026-05-04T11:53:46.812Z</time></trkpt><trkpt lat="41.4986166" lon="0.4643586"><ele>112.0</ele><time>2026-05-04T11:53:47.812Z</time></trkpt><trkpt lat="41.4986636" lon="0.4645102"><ele>112.0</ele><time>2026-05-04T11:53:48.811Z</time></trkpt><trkpt lat="41.4987168" lon="0.4646687"><ele>112.0</ele><time>2026-05-04T11:53:49.812Z</time></trkpt><trkpt lat="41.4987715" lon="0.4648306"><ele>112.0</ele><time>2026-05-04T11:53:50.812Z</time></trkpt><trkpt lat="41.498823" lon="0.4649882"><ele>112.75</ele><time>2026-05-04T11:53:51.812Z</time></trkpt><trkpt lat="41.4988741" lon="0.4651395"><ele>113.5</ele><time>2026-05-04T11:53:52.812Z</time></trkpt><trkpt lat="41.4989235" lon="0.4652915"><ele>114.25</ele><time>2026-05-04T11:53:53.812Z</time></trkpt><trkpt lat="41.4989756" lon="0.4654412"><ele>115.0</ele><time>2026-05-04T11:53:54.812Z</time></trkpt><trkpt lat="41.4990278" lon="0.4655965"><ele>115.0</ele><time>2026-05-04T11:53:55.812Z</time></trkpt><trkpt lat="41.4990802" lon="0.4657435"><ele>115.0</ele><time>2026-05-04T11:53:56.811Z</time></trkpt><trkpt lat="41.4991339" lon="0.4658859"><ele>115.0</ele><time>2026-05-04T11:53:57.812Z</time></trkpt><trkpt lat="41.4991874" lon="0.466021"><ele>115.0</ele><time>2026-05-04T11:53:58.812Z</time></trkpt><trkpt lat="41.4992414" lon="0.4661481"><ele>115.0</ele><time>2026-05-04T11:53:59.812Z</time></trkpt><trkpt lat="41.4992962" lon="0.4662772"><ele>115.0</ele><time>2026-05-04T11:54:00.812Z</time></trkpt><trkpt lat="41.4993487" lon="0.4664104"><ele>115.0</ele><time>2026-05-04T11:54:01.811Z</time></trkpt><trkpt lat="41.4994051" lon="0.4665417"><ele>115.0</ele><time>2026-05-04T11:54:02.812Z</time></trkpt><trkpt lat="41.4994651" lon="0.4666766"><ele>115.5</ele><time>2026-05-04T11:54:03.811Z</time></trkpt><trkpt lat="41.4995325" lon="0.4668122"><ele>116.0</ele><time>2026-05-04T11:54:04.812Z</time></trkpt><trkpt lat="41.4995989" lon="0.4669471"><ele>116.5</ele><time>2026-05-04T11:54:05.812Z</time></trkpt><trkpt lat="41.4996638" lon="0.4670781"><ele>117.0</ele><time>2026-05-04T11:54:06.811Z</time></trkpt><trkpt lat="41.4997354" lon="0.4672109"><ele>117.0</ele><time>2026-05-04T11:54:07.812Z</time></trkpt><trkpt lat="41.4998087" lon="0.4673503"><ele>117.0</ele><time>2026-05-04T11:54:08.811Z</time></trkpt><trkpt lat="41.499884" lon="0.4674913"><ele>117.0</ele><time>2026-05-04T11:54:09.813Z</time></trkpt><trkpt lat="41.4999583" lon="0.4676312"><ele>117.0</ele><time>2026-05-04T11:54:10.813Z</time></trkpt><trkpt lat="41.5000335" lon="0.4677705"><ele>117.0</ele><time>2026-05-04T11:54:11.813Z</time></trkpt><trkpt lat="41.5001087" lon="0.4679091"><ele>117.0</ele><time>2026-05-04T11:54:12.813Z</time></trkpt><trkpt lat="41.500179" lon="0.4680517"><ele>117.0</ele><time>2026-05-04T11:54:13.813Z</time></trkpt><trkpt lat="41.5002534" lon="0.468186"><ele>117.0</ele><time>2026-05-04T11:54:14.813Z</time></trkpt><trkpt lat="41.5003284" lon="0.4683285"><ele>116.25</ele><time>2026-05-04T11:54:15.813Z</time></trkpt><trkpt lat="41.5004051" lon="0.4684715"><ele>115.5</ele><time>2026-05-04T11:54:16.812Z</time></trkpt><trkpt lat="41.5004858" lon="0.46862"><ele>114.75</ele><time>2026-05-04T11:54:17.813Z</time></trkpt><trkpt lat="41.5005623" lon="0.4687701"><ele>114.0</ele><time>2026-05-04T11:54:18.813Z</time></trkpt><trkpt lat="41.5006357" lon="0.4689226"><ele>114.0</ele><time>2026-05-04T11:54:19.813Z</time></trkpt><trkpt lat="41.5007" lon="0.4690775"><ele>114.0</ele><time>2026-05-04T11:54:20.813Z</time></trkpt><trkpt lat="41.5007526" lon="0.4692295"><ele>114.0</ele><time>2026-05-04T11:54:21.813Z</time></trkpt><trkpt lat="41.5008045" lon="0.4693795"><ele>114.0</ele><time>2026-05-04T11:54:22.813Z</time></trkpt><trkpt lat="41.5008561" lon="0.4695389"><ele>113.25</ele><time>2026-05-04T11:54:23.813Z</time></trkpt><trkpt lat="41.5009046" lon="0.4696936"><ele>112.5</ele><time>2026-05-04T11:54:24.813Z</time></trkpt><trkpt lat="41.500952" lon="0.4698509"><ele>111.75</ele><time>2026-05-04T11:54:25.812Z</time></trkpt><trkpt lat="41.5010016" lon="0.4700087"><ele>111.0</ele><time>2026-05-04T11:54:26.812Z</time></trkpt><trkpt lat="41.5010525" lon="0.4701621"><ele>111.0</ele><time>2026-05-04T11:54:27.813Z</time></trkpt><trkpt lat="41.5011082" lon="0.4703192"><ele>111.0</ele><time>2026-05-04T11:54:28.812Z</time></trkpt><trkpt lat="41.5011692" lon="0.4704693"><ele>111.0</ele><time>2026-05-04T11:54:29.813Z</time></trkpt><trkpt lat="41.5012437" lon="0.4706168"><ele>111.0</ele><time>2026-05-04T11:54:30.813Z</time></trkpt><trkpt lat="41.5013225" lon="0.4707519"><ele>112.25</ele><time>2026-05-04T11:54:31.813Z</time></trkpt><trkpt lat="41.5014129" lon="0.4708783"><ele>113.5</ele><time>2026-05-04T11:54:32.813Z</time></trkpt><trkpt lat="41.5015089" lon="0.4710058"><ele>114.75</ele><time>2026-05-04T11:54:33.813Z</time></trkpt><trkpt lat="41.5016084" lon="0.4711196"><ele>116.0</ele><time>2026-05-04T11:54:34.813Z</time></trkpt><trkpt lat="41.5017138" lon="0.4712205"><ele>115.0</ele><time>2026-05-04T11:54:35.813Z</time></trkpt><trkpt lat="41.5018246" lon="0.4713093"><ele>114.0</ele><time>2026-05-04T11:54:36.812Z</time></trkpt><trkpt lat="41.5019484" lon="0.4713951"><ele>113.0</ele><time>2026-05-04T11:54:37.813Z</time></trkpt><trkpt lat="41.5020775" lon="0.4714699"><ele>112.0</ele><time>2026-05-04T11:54:38.813Z</time></trkpt><trkpt lat="41.5022086" lon="0.4715278"><ele>112.0</ele><time>2026-05-04T11:54:39.812Z</time></trkpt><trkpt lat="41.5023401" lon="0.4715752"><ele>112.0</ele><time>2026-05-04T11:54:40.813Z</time></trkpt><trkpt lat="41.5024663" lon="0.4716107"><ele>112.0</ele><time>2026-05-04T11:54:41.813Z</time></trkpt><trkpt lat="41.5025959" lon="0.4716375"><ele>112.0</ele><time>2026-05-04T11:54:42.813Z</time></trkpt><trkpt lat="41.5027278" lon="0.4716572"><ele>112.0</ele><time>2026-05-04T11:54:43.813Z</time></trkpt><trkpt lat="41.5028589" lon="0.4716827"><ele>112.0</ele><time>2026-05-04T11:54:44.813Z</time></trkpt><trkpt lat="41.5029906" lon="0.4717081"><ele>112.0</ele><time>2026-05-04T11:54:45.812Z</time></trkpt><trkpt lat="41.5031214" lon="0.4717327"><ele>112.0</ele><time>2026-05-04T11:54:46.813Z</time></trkpt><trkpt lat="41.5032534" lon="0.4717601"><ele>111.0</ele><time>2026-05-04T11:54:47.813Z</time></trkpt><trkpt lat="41.5033867" lon="0.4717878"><ele>110.0</ele><time>2026-05-04T11:54:48.813Z</time></trkpt><trkpt lat="41.5035176" lon="0.4718152"><ele>109.0</ele><time>2026-05-04T11:54:49.813Z</time></trkpt><trkpt lat="41.5036539" lon="0.4718387"><ele>108.0</ele><time>2026-05-04T11:54:50.813Z</time></trkpt><trkpt lat="41.5037857" lon="0.4718678"><ele>107.75</ele><time>2026-05-04T11:54:51.813Z</time></trkpt><trkpt lat="41.5039138" lon="0.4719135"><ele>107.5</ele><time>2026-05-04T11:54:52.812Z</time></trkpt><trkpt lat="41.5040377" lon="0.4719619"><ele>107.25</ele><time>2026-05-04T11:54:53.813Z</time></trkpt><trkpt lat="41.504161" lon="0.4720273"><ele>107.0</ele><time>2026-05-04T11:54:54.812Z</time></trkpt><trkpt lat="41.5042826" lon="0.4721009"><ele>107.25</ele><time>2026-05-04T11:54:55.813Z</time></trkpt><trkpt lat="41.5044044" lon="0.4721713"><ele>107.5</ele><time>2026-05-04T11:54:56.813Z</time></trkpt><trkpt lat="41.5045241" lon="0.4722477"><ele>107.75</ele><time>2026-05-04T11:54:57.813Z</time></trkpt><trkpt lat="41.5046333" lon="0.4723383"><ele>108.0</ele><time>2026-05-04T11:54:58.813Z</time></trkpt><trkpt lat="41.5047416" lon="0.4724375"><ele>109.25</ele><time>2026-05-04T11:54:59.813Z</time></trkpt><trkpt lat="41.5048501" lon="0.4725397"><ele>110.5</ele><time>2026-05-04T11:55:00.812Z</time></trkpt><trkpt lat="41.5049506" lon="0.4726433"><ele>111.75</ele><time>2026-05-04T11:55:01.813Z</time></trkpt><trkpt lat="41.5050457" lon="0.4727508"><ele>113.0</ele><time>2026-05-04T11:55:02.813Z</time></trkpt><trkpt lat="41.5051405" lon="0.4728685"><ele>112.0</ele><time>2026-05-04T11:55:03.813Z</time></trkpt><trkpt lat="41.5052299" lon="0.4729909"><ele>111.0</ele><time>2026-05-04T11:55:04.813Z</time></trkpt><trkpt lat="41.505319" lon="0.4731093"><ele>110.0</ele><time>2026-05-04T11:55:05.812Z</time></trkpt><trkpt lat="41.5053991" lon="0.4732361"><ele>109.0</ele><time>2026-05-04T11:55:06.813Z</time></trkpt><trkpt lat="41.5054795" lon="0.4733618"><ele>109.5</ele><time>2026-05-04T11:55:07.813Z</time></trkpt><trkpt lat="41.5055591" lon="0.4734855"><ele>110.0</ele><time>2026-05-04T11:55:08.813Z</time></trkpt><trkpt lat="41.5056427" lon="0.4736132"><ele>110.5</ele><time>2026-05-04T11:55:09.813Z</time></trkpt><trkpt lat="41.5057235" lon="0.4737408"><ele>111.0</ele><time>2026-05-04T11:55:10.813Z</time></trkpt><trkpt lat="41.5058077" lon="0.4738688"><ele>111.0</ele><time>2026-05-04T11:55:11.813Z</time></trkpt><trkpt lat="41.5058909" lon="0.4740006"><ele>111.0</ele><time>2026-05-04T11:55:12.813Z</time></trkpt><trkpt lat="41.5059789" lon="0.4741291"><ele>111.0</ele><time>2026-05-04T11:55:13.813Z</time></trkpt><trkpt lat="41.5060747" lon="0.4742592"><ele>111.0</ele><time>2026-05-04T11:55:14.813Z</time></trkpt><trkpt lat="41.5061717" lon="0.4743758"><ele>110.75</ele><time>2026-05-04T11:55:15.813Z</time></trkpt><trkpt lat="41.5062841" lon="0.4744891"><ele>110.5</ele><time>2026-05-04T11:55:16.813Z</time></trkpt><trkpt lat="41.5064017" lon="0.474587"><ele>110.25</ele><time>2026-05-04T11:55:17.812Z</time></trkpt><trkpt lat="41.5065198" lon="0.4746782"><ele>110.0</ele><time>2026-05-04T11:55:18.813Z</time></trkpt><trkpt lat="41.5066518" lon="0.4747611"><ele>110.0</ele><time>2026-05-04T11:55:19.813Z</time></trkpt><trkpt lat="41.5067879" lon="0.4748294"><ele>110.0</ele><time>2026-05-04T11:55:20.813Z</time></trkpt><trkpt lat="41.5069232" lon="0.474882"><ele>110.0</ele><time>2026-05-04T11:55:21.813Z</time></trkpt><trkpt lat="41.5070542" lon="0.4749144"><ele>110.0</ele><time>2026-05-04T11:55:22.813Z</time></trkpt><trkpt lat="41.5071851" lon="0.4749443"><ele>110.75</ele><time>2026-05-04T11:55:23.812Z</time></trkpt><trkpt lat="41.5073215" lon="0.4749576"><ele>111.5</ele><time>2026-05-04T11:55:24.813Z</time></trkpt><trkpt lat="41.5074526" lon="0.4749583"><ele>112.25</ele><time>2026-05-04T11:55:25.813Z</time></trkpt><trkpt lat="41.5075811" lon="0.4749476"><ele>113.0</ele><time>2026-05-04T11:55:26.812Z</time></trkpt><trkpt lat="41.5077035" lon="0.4749557"><ele>113.0</ele><time>2026-05-04T11:55:27.813Z</time></trkpt><trkpt lat="41.5078321" lon="0.4749605"><ele>113.0</ele><time>2026-05-04T11:55:28.813Z</time></trkpt><trkpt lat="41.5079503" lon="0.4749701"><ele>113.0</ele><time>2026-05-04T11:55:29.813Z</time></trkpt><trkpt lat="41.5080682" lon="0.4749817"><ele>113.0</ele><time>2026-05-04T11:55:30.813Z</time></trkpt><trkpt lat="41.5081883" lon="0.4750062"><ele>113.75</ele><time>2026-05-04T11:55:31.812Z</time></trkpt><trkpt lat="41.5083107" lon="0.4750351"><ele>114.5</ele><time>2026-05-04T11:55:32.813Z</time></trkpt><trkpt lat="41.5084292" lon="0.4750719"><ele>115.25</ele><time>2026-05-04T11:55:33.813Z</time></trkpt><trkpt lat="41.5085465" lon="0.4751207"><ele>116.0</ele><time>2026-05-04T11:55:34.813Z</time></trkpt><trkpt lat="41.5086636" lon="0.4751744"><ele>117.25</ele><time>2026-05-04T11:55:35.813Z</time></trkpt><trkpt lat="41.5087811" lon="0.4752301"><ele>118.5</ele><time>2026-05-04T11:55:36.813Z</time></trkpt><trkpt lat="41.5088966" lon="0.4752956"><ele>119.75</ele><time>2026-05-04T11:55:37.813Z</time></trkpt><trkpt lat="41.5090085" lon="0.4753793"><ele>121.0</ele><time>2026-05-04T11:55:38.813Z</time></trkpt><trkpt lat="41.5091243" lon="0.4754616"><ele>119.75</ele><time>2026-05-04T11:55:39.813Z</time></trkpt><trkpt lat="41.5092359" lon="0.4755423"><ele>118.5</ele><time>2026-05-04T11:55:40.813Z</time></trkpt><trkpt lat="41.5093517" lon="0.4756212"><ele>117.25</ele><time>2026-05-04T11:55:41.813Z</time></trkpt><trkpt lat="41.5094682" lon="0.4757009"><ele>116.0</ele><time>2026-05-04T11:55:42.813Z</time></trkpt><trkpt lat="41.509582" lon="0.4757845"><ele>116.0</ele><time>2026-05-04T11:55:43.813Z</time></trkpt><trkpt lat="41.5096976" lon="0.4758746"><ele>116.0</ele><time>2026-05-04T11:55:44.813Z</time></trkpt><trkpt lat="41.5098168" lon="0.4759587"><ele>116.0</ele><time>2026-05-04T11:55:45.812Z</time></trkpt><trkpt lat="41.509938" lon="0.47605"><ele>116.0</ele><time>2026-05-04T11:55:46.812Z</time></trkpt><trkpt lat="41.510057" lon="0.4761399"><ele>116.0</ele><time>2026-05-04T11:55:47.813Z</time></trkpt><trkpt lat="41.5101782" lon="0.4762342"><ele>116.0</ele><time>2026-05-04T11:55:48.812Z</time></trkpt><trkpt lat="41.5102981" lon="0.4763219"><ele>116.0</ele><time>2026-05-04T11:55:49.813Z</time></trkpt><trkpt lat="41.5104199" lon="0.4764083"><ele>116.0</ele><time>2026-05-04T11:55:50.813Z</time></trkpt><trkpt lat="41.5105344" lon="0.4764954"><ele>115.25</ele><time>2026-05-04T11:55:51.813Z</time></trkpt><trkpt lat="41.5106498" lon="0.4765786"><ele>114.5</ele><time>2026-05-04T11:55:52.812Z</time></trkpt><trkpt lat="41.5107628" lon="0.4766597"><ele>113.75</ele><time>2026-05-04T11:55:53.812Z</time></trkpt><trkpt lat="41.5108774" lon="0.4767335"><ele>113.0</ele><time>2026-05-04T11:55:54.813Z</time></trkpt><trkpt lat="41.5109924" lon="0.4768026"><ele>113.0</ele><time>2026-05-04T11:55:55.813Z</time></trkpt><trkpt lat="41.5111146" lon="0.476861"><ele>113.0</ele><time>2026-05-04T11:55:56.813Z</time></trkpt><trkpt lat="41.5112363" lon="0.4769145"><ele>113.0</ele><time>2026-05-04T11:55:57.813Z</time></trkpt><trkpt lat="41.511364" lon="0.4769574"><ele>113.0</ele><time>2026-05-04T11:55:58.812Z</time></trkpt><trkpt lat="41.5114918" lon="0.4770007"><ele>112.0</ele><time>2026-05-04T11:55:59.813Z</time></trkpt><trkpt lat="41.5116219" lon="0.4770458"><ele>111.0</ele><time>2026-05-04T11:56:00.813Z</time></trkpt><trkpt lat="41.5117521" lon="0.4770894"><ele>110.0</ele><time>2026-05-04T11:56:01.813Z</time></trkpt><trkpt lat="41.5118767" lon="0.4771395"><ele>109.0</ele><time>2026-05-04T11:56:02.813Z</time></trkpt><trkpt lat="41.5120022" lon="0.4771923"><ele>109.75</ele><time>2026-05-04T11:56:03.812Z</time></trkpt><trkpt lat="41.5121276" lon="0.4772442"><ele>110.5</ele><time>2026-05-04T11:56:04.813Z</time></trkpt><trkpt lat="41.5122574" lon="0.477296"><ele>111.25</ele><time>2026-05-04T11:56:05.813Z</time></trkpt><trkpt lat="41.5123883" lon="0.4773412"><ele>112.0</ele><time>2026-05-04T11:56:06.813Z</time></trkpt><trkpt lat="41.5125142" lon="0.4773855"><ele>112.0</ele><time>2026-05-04T11:56:07.813Z</time></trkpt><trkpt lat="41.5126437" lon="0.4774314"><ele>112.0</ele><time>2026-05-04T11:56:08.813Z</time></trkpt><trkpt lat="41.5127742" lon="0.4774861"><ele>112.0</ele><time>2026-05-04T11:56:09.813Z</time></trkpt><trkpt lat="41.5129075" lon="0.4775374"><ele>112.0</ele><time>2026-05-04T11:56:10.813Z</time></trkpt><trkpt lat="41.5130394" lon="0.4775897"><ele>113.0</ele><time>2026-05-04T11:56:11.813Z</time></trkpt><trkpt lat="41.5131723" lon="0.4776412"><ele>114.0</ele><time>2026-05-04T11:56:12.814Z</time></trkpt><trkpt lat="41.5133051" lon="0.4776902"><ele>115.0</ele><time>2026-05-04T11:56:13.814Z</time></trkpt><trkpt lat="41.5134386" lon="0.4777391"><ele>116.0</ele><time>2026-05-04T11:56:14.814Z</time></trkpt><trkpt lat="41.513571" lon="0.4777845"><ele>116.0</ele><time>2026-05-04T11:56:15.814Z</time></trkpt><trkpt lat="41.5137046" lon="0.4778353"><ele>116.0</ele><time>2026-05-04T11:56:16.814Z</time></trkpt><trkpt lat="41.5138389" lon="0.4778821"><ele>116.0</ele><time>2026-05-04T11:56:17.814Z</time></trkpt><trkpt lat="41.5139722" lon="0.4779349"><ele>116.0</ele><time>2026-05-04T11:56:18.814Z</time></trkpt><trkpt lat="41.5141046" lon="0.4779919"><ele>116.0</ele><time>2026-05-04T11:56:19.814Z</time></trkpt><trkpt lat="41.5142367" lon="0.4780489"><ele>116.0</ele><time>2026-05-04T11:56:20.814Z</time></trkpt><trkpt lat="41.5143738" lon="0.4780976"><ele>116.0</ele><time>2026-05-04T11:56:21.814Z</time></trkpt><trkpt lat="41.5145127" lon="0.4781376"><ele>116.0</ele><time>2026-05-04T11:56:22.814Z</time></trkpt><trkpt lat="41.5146513" lon="0.4781741"><ele>116.0</ele><time>2026-05-04T11:56:23.814Z</time></trkpt><trkpt lat="41.5147907" lon="0.4781927"><ele>116.0</ele><time>2026-05-04T11:56:24.814Z</time></trkpt><trkpt lat="41.5149319" lon="0.4782102"><ele>116.0</ele><time>2026-05-04T11:56:25.814Z</time></trkpt><trkpt lat="41.515075" lon="0.4782188"><ele>116.0</ele><time>2026-05-04T11:56:26.814Z</time></trkpt><trkpt lat="41.5152165" lon="0.478226"><ele>116.0</ele><time>2026-05-04T11:56:27.814Z</time></trkpt><trkpt lat="41.5153594" lon="0.4782308"><ele>116.0</ele><time>2026-05-04T11:56:28.814Z</time></trkpt><trkpt lat="41.5155017" lon="0.4782398"><ele>116.0</ele><time>2026-05-04T11:56:29.814Z</time></trkpt><trkpt lat="41.5156437" lon="0.4782458"><ele>116.0</ele><time>2026-05-04T11:56:30.813Z</time></trkpt><trkpt lat="41.515778" lon="0.4782535"><ele>115.75</ele><time>2026-05-04T11:56:31.814Z</time></trkpt><trkpt lat="41.5159045" lon="0.478256"><ele>115.5</ele><time>2026-05-04T11:56:32.813Z</time></trkpt><trkpt lat="41.5160338" lon="0.4782701"><ele>115.25</ele><time>2026-05-04T11:56:33.814Z</time></trkpt><trkpt lat="41.5161642" lon="0.4782758"><ele>115.0</ele><time>2026-05-04T11:56:34.814Z</time></trkpt><trkpt lat="41.5162995" lon="0.4782895"><ele>115.75</ele><time>2026-05-04T11:56:35.814Z</time></trkpt><trkpt lat="41.5164326" lon="0.4782984"><ele>116.5</ele><time>2026-05-04T11:56:36.814Z</time></trkpt><trkpt lat="41.5165689" lon="0.4783142"><ele>117.25</ele><time>2026-05-04T11:56:37.814Z</time></trkpt><trkpt lat="41.5167027" lon="0.4783314"><ele>118.0</ele><time>2026-05-04T11:56:38.813Z</time></trkpt><trkpt lat="41.516837" lon="0.4783559"><ele>118.0</ele><time>2026-05-04T11:56:39.813Z</time></trkpt><trkpt lat="41.5169725" lon="0.4783817"><ele>118.0</ele><time>2026-05-04T11:56:40.814Z</time></trkpt><trkpt lat="41.5171073" lon="0.4784233"><ele>118.0</ele><time>2026-05-04T11:56:41.814Z</time></trkpt><trkpt lat="41.5172405" lon="0.4784816"><ele>118.0</ele><time>2026-05-04T11:56:42.814Z</time></trkpt><trkpt lat="41.517373" lon="0.4785421"><ele>118.25</ele><time>2026-05-04T11:56:43.814Z</time></trkpt><trkpt lat="41.5175037" lon="0.4786071"><ele>118.5</ele><time>2026-05-04T11:56:44.814Z</time></trkpt><trkpt lat="41.5176294" lon="0.478679"><ele>118.75</ele><time>2026-05-04T11:56:45.814Z</time></trkpt><trkpt lat="41.5177583" lon="0.4787593"><ele>119.0</ele><time>2026-05-04T11:56:46.814Z</time></trkpt><trkpt lat="41.5178865" lon="0.4788379"><ele>117.5</ele><time>2026-05-04T11:56:47.813Z</time></trkpt><trkpt lat="41.5180103" lon="0.4789222"><ele>116.0</ele><time>2026-05-04T11:56:48.814Z</time></trkpt><trkpt lat="41.5181359" lon="0.4790092"><ele>114.5</ele><time>2026-05-04T11:56:49.814Z</time></trkpt><trkpt lat="41.518261" lon="0.4790955"><ele>113.0</ele><time>2026-05-04T11:56:50.814Z</time></trkpt><trkpt lat="41.5183886" lon="0.4791761"><ele>113.0</ele><time>2026-05-04T11:56:51.813Z</time></trkpt><trkpt lat="41.518511" lon="0.4792621"><ele>113.0</ele><time>2026-05-04T11:56:52.814Z</time></trkpt><trkpt lat="41.5186307" lon="0.4793414"><ele>113.0</ele><time>2026-05-04T11:56:53.814Z</time></trkpt><trkpt lat="41.5187529" lon="0.479418"><ele>113.0</ele><time>2026-05-04T11:56:54.814Z</time></trkpt><trkpt lat="41.5188768" lon="0.4794898"><ele>112.75</ele><time>2026-05-04T11:56:55.814Z</time></trkpt><trkpt lat="41.5190035" lon="0.479558"><ele>112.5</ele><time>2026-05-04T11:56:56.814Z</time></trkpt><trkpt lat="41.5191328" lon="0.4796185"><ele>112.25</ele><time>2026-05-04T11:56:57.814Z</time></trkpt><trkpt lat="41.5192622" lon="0.4796702"><ele>112.0</ele><time>2026-05-04T11:56:58.814Z</time></trkpt><trkpt lat="41.5193935" lon="0.4797194"><ele>112.0</ele><time>2026-05-04T11:56:59.814Z</time></trkpt><trkpt lat="41.5195266" lon="0.4797646"><ele>112.0</ele><time>2026-05-04T11:57:00.814Z</time></trkpt><trkpt lat="41.5196636" lon="0.4798099"><ele>112.0</ele><time>2026-05-04T11:57:01.813Z</time></trkpt><trkpt lat="41.5198001" lon="0.4798591"><ele>112.0</ele><time>2026-05-04T11:57:02.814Z</time></trkpt><trkpt lat="41.5199372" lon="0.4799053"><ele>113.0</ele><time>2026-05-04T11:57:03.813Z</time></trkpt><trkpt lat="41.5200759" lon="0.4799541"><ele>114.0</ele><time>2026-05-04T11:57:04.814Z</time></trkpt><trkpt lat="41.5202151" lon="0.4800026"><ele>115.0</ele><time>2026-05-04T11:57:05.813Z</time></trkpt><trkpt lat="41.5203531" lon="0.4800517"><ele>116.0</ele><time>2026-05-04T11:57:06.814Z</time></trkpt><trkpt lat="41.5204893" lon="0.4801003"><ele>116.25</ele><time>2026-05-04T11:57:07.813Z</time></trkpt><trkpt lat="41.5206168" lon="0.4801472"><ele>116.5</ele><time>2026-05-04T11:57:08.814Z</time></trkpt><trkpt lat="41.520745" lon="0.4801934"><ele>116.75</ele><time>2026-05-04T11:57:09.814Z</time></trkpt><trkpt lat="41.5208773" lon="0.4802391"><ele>117.0</ele><time>2026-05-04T11:57:10.813Z</time></trkpt><trkpt lat="41.5210079" lon="0.4802801"><ele>117.0</ele><time>2026-05-04T11:57:11.813Z</time></trkpt><trkpt lat="41.5211397" lon="0.4803234"><ele>117.0</ele><time>2026-05-04T11:57:12.813Z</time></trkpt><trkpt lat="41.5212701" lon="0.4803662"><ele>117.0</ele><time>2026-05-04T11:57:13.814Z</time></trkpt><trkpt lat="41.5214001" lon="0.4804079"><ele>117.0</ele><time>2026-05-04T11:57:14.814Z</time></trkpt><trkpt lat="41.5215284" lon="0.4804501"><ele>116.75</ele><time>2026-05-04T11:57:15.814Z</time></trkpt><trkpt lat="41.5216621" lon="0.4804898"><ele>116.5</ele><time>2026-05-04T11:57:16.814Z</time></trkpt><trkpt lat="41.5217894" lon="0.4805243"><ele>116.25</ele><time>2026-05-04T11:57:17.814Z</time></trkpt><trkpt lat="41.521923" lon="0.4805595"><ele>116.0</ele><time>2026-05-04T11:57:18.813Z</time></trkpt><trkpt lat="41.5220575" lon="0.4805917"><ele>116.25</ele><time>2026-05-04T11:57:19.814Z</time></trkpt><trkpt lat="41.5221924" lon="0.4806247"><ele>116.5</ele><time>2026-05-04T11:57:20.814Z</time></trkpt><trkpt lat="41.5223279" lon="0.4806654"><ele>116.75</ele><time>2026-05-04T11:57:21.814Z</time></trkpt><trkpt lat="41.5224674" lon="0.4807063"><ele>117.0</ele><time>2026-05-04T11:57:22.813Z</time></trkpt><trkpt lat="41.5226064" lon="0.4807453"><ele>117.0</ele><time>2026-05-04T11:57:23.813Z</time></trkpt><trkpt lat="41.5227467" lon="0.480784"><ele>117.0</ele><time>2026-05-04T11:57:24.814Z</time></trkpt><trkpt lat="41.5228832" lon="0.4808191"><ele>117.0</ele><time>2026-05-04T11:57:25.814Z</time></trkpt><trkpt lat="41.5230208" lon="0.480866"><ele>117.0</ele><time>2026-05-04T11:57:26.814Z</time></trkpt><trkpt lat="41.5231599" lon="0.4809144"><ele>117.75</ele><time>2026-05-04T11:57:27.813Z</time></trkpt><trkpt lat="41.5232957" lon="0.4809648"><ele>118.5</ele><time>2026-05-04T11:57:28.813Z</time></trkpt><trkpt lat="41.5234278" lon="0.4810252"><ele>119.25</ele><time>2026-05-04T11:57:29.813Z</time></trkpt><trkpt lat="41.5235599" lon="0.481088"><ele>120.0</ele><time>2026-05-04T11:57:30.813Z</time></trkpt><trkpt lat="41.5236909" lon="0.4811588"><ele>119.0</ele><time>2026-05-04T11:57:31.813Z</time></trkpt><trkpt lat="41.5238218" lon="0.4812319"><ele>118.0</ele><time>2026-05-04T11:57:32.813Z</time></trkpt><trkpt lat="41.5239451" lon="0.4813074"><ele>117.0</ele><time>2026-05-04T11:57:33.814Z</time></trkpt><trkpt lat="41.5240688" lon="0.4813909"><ele>116.0</ele><time>2026-05-04T11:57:34.814Z</time></trkpt><trkpt lat="41.5241894" lon="0.4814851"><ele>116.0</ele><time>2026-05-04T11:57:35.813Z</time></trkpt><trkpt lat="41.5243093" lon="0.4815779"><ele>116.0</ele><time>2026-05-04T11:57:36.814Z</time></trkpt><trkpt lat="41.5244288" lon="0.4816642"><ele>116.0</ele><time>2026-05-04T11:57:37.813Z</time></trkpt><trkpt lat="41.5245469" lon="0.4817563"><ele>116.0</ele><time>2026-05-04T11:57:38.814Z</time></trkpt><trkpt lat="41.524666" lon="0.4818498"><ele>115.5</ele><time>2026-05-04T11:57:39.814Z</time></trkpt><trkpt lat="41.5247821" lon="0.4819459"><ele>115.0</ele><time>2026-05-04T11:57:40.814Z</time></trkpt><trkpt lat="41.5249012" lon="0.4820415"><ele>114.5</ele><time>2026-05-04T11:57:41.814Z</time></trkpt><trkpt lat="41.5250178" lon="0.4821398"><ele>114.0</ele><time>2026-05-04T11:57:42.814Z</time></trkpt><trkpt lat="41.5251415" lon="0.4822419"><ele>114.0</ele><time>2026-05-04T11:57:43.814Z</time></trkpt><trkpt lat="41.5252646" lon="0.4823415"><ele>114.0</ele><time>2026-05-04T11:57:44.814Z</time></trkpt><trkpt lat="41.5253859" lon="0.4824347"><ele>114.0</ele><time>2026-05-04T11:57:45.814Z</time></trkpt><trkpt lat="41.525512" lon="0.4825274"><ele>114.0</ele><time>2026-05-04T11:57:46.814Z</time></trkpt><trkpt lat="41.5256433" lon="0.4825997"><ele>115.75</ele><time>2026-05-04T11:57:47.814Z</time></trkpt><trkpt lat="41.5257771" lon="0.4826519"><ele>117.5</ele><time>2026-05-04T11:57:48.814Z</time></trkpt><trkpt lat="41.5259076" lon="0.4826878"><ele>119.25</ele><time>2026-05-04T11:57:49.813Z</time></trkpt><trkpt lat="41.5260469" lon="0.4827177"><ele>121.0</ele><time>2026-05-04T11:57:50.814Z</time></trkpt><trkpt lat="41.5261873" lon="0.4827305"><ele>121.0</ele><time>2026-05-04T11:57:51.813Z</time></trkpt><trkpt lat="41.5263273" lon="0.4827295"><ele>121.0</ele><time>2026-05-04T11:57:52.814Z</time></trkpt><trkpt lat="41.5264693" lon="0.4827221"><ele>121.0</ele><time>2026-05-04T11:57:53.814Z</time></trkpt><trkpt lat="41.5266107" lon="0.4827241"><ele>121.0</ele><time>2026-05-04T11:57:54.814Z</time></trkpt><trkpt lat="41.5267528" lon="0.4827333"><ele>121.0</ele><time>2026-05-04T11:57:55.814Z</time></trkpt><trkpt lat="41.5268959" lon="0.4827513"><ele>121.0</ele><time>2026-05-04T11:57:56.813Z</time></trkpt><trkpt lat="41.527039" lon="0.4827867"><ele>121.0</ele><time>2026-05-04T11:57:57.814Z</time></trkpt><trkpt lat="41.5271753" lon="0.482836"><ele>121.0</ele><time>2026-05-04T11:57:58.814Z</time></trkpt><trkpt lat="41.5273059" lon="0.4829031"><ele>119.5</ele><time>2026-05-04T11:57:59.814Z</time></trkpt><trkpt lat="41.5274395" lon="0.4829798"><ele>118.0</ele><time>2026-05-04T11:58:00.814Z</time></trkpt><trkpt lat="41.5275639" lon="0.483073"><ele>116.5</ele><time>2026-05-04T11:58:01.814Z</time></trkpt><trkpt lat="41.5276874" lon="0.4831746"><ele>115.0</ele><time>2026-05-04T11:58:02.813Z</time></trkpt><trkpt lat="41.5278098" lon="0.4832753"><ele>117.0</ele><time>2026-05-04T11:58:03.814Z</time></trkpt><trkpt lat="41.5279314" lon="0.483372"><ele>119.0</ele><time>2026-05-04T11:58:04.814Z</time></trkpt><trkpt lat="41.5280525" lon="0.4834688"><ele>121.0</ele><time>2026-05-04T11:58:05.814Z</time></trkpt><trkpt lat="41.5281735" lon="0.4835607"><ele>123.0</ele><time>2026-05-04T11:58:06.813Z</time></trkpt><trkpt lat="41.5282911" lon="0.4836445"><ele>123.0</ele><time>2026-05-04T11:58:07.814Z</time></trkpt><trkpt lat="41.5284025" lon="0.4837379"><ele>123.0</ele><time>2026-05-04T11:58:08.813Z</time></trkpt><trkpt lat="41.5285174" lon="0.4838172"><ele>123.0</ele><time>2026-05-04T11:58:09.813Z</time></trkpt><trkpt lat="41.52864" lon="0.4838895"><ele>123.0</ele><time>2026-05-04T11:58:10.814Z</time></trkpt><trkpt lat="41.5287633" lon="0.4839567"><ele>122.0</ele><time>2026-05-04T11:58:11.814Z</time></trkpt><trkpt lat="41.5288879" lon="0.4840099"><ele>121.0</ele><time>2026-05-04T11:58:12.814Z</time></trkpt><trkpt lat="41.5290194" lon="0.4840499"><ele>120.0</ele><time>2026-05-04T11:58:13.814Z</time></trkpt><trkpt lat="41.5291489" lon="0.4840726"><ele>119.0</ele><time>2026-05-04T11:58:14.815Z</time></trkpt><trkpt lat="41.5292728" lon="0.4840863"><ele>119.0</ele><time>2026-05-04T11:58:15.815Z</time></trkpt><trkpt lat="41.5293879" lon="0.4840919"><ele>119.0</ele><time>2026-05-04T11:58:16.815Z</time></trkpt><trkpt lat="41.5295037" lon="0.4840979"><ele>119.0</ele><time>2026-05-04T11:58:17.815Z</time></trkpt><trkpt lat="41.5296037" lon="0.4841086"><ele>119.0</ele><time>2026-05-04T11:58:18.814Z</time></trkpt><trkpt lat="41.5296882" lon="0.4841285"><ele>119.0</ele><time>2026-05-04T11:58:19.814Z</time></trkpt><trkpt lat="41.5297617" lon="0.4841585"><ele>119.33333333333333</ele><time>2026-05-04T11:58:20.814Z</time></trkpt><trkpt lat="41.5298159" lon="0.484217"><ele>119.66666666666666</ele><time>2026-05-04T11:58:21.814Z</time></trkpt><trkpt lat="41.5298536" lon="0.4842863"><ele>120.0</ele><time>2026-05-04T11:58:22.815Z</time></trkpt><trkpt lat="41.5298989" lon="0.4843547"><ele>120.33333333333334</ele><time>2026-05-04T11:58:23.815Z</time></trkpt><trkpt lat="41.5300089" lon="0.484379"><ele>120.66666666666667</ele><time>2026-05-04T11:58:25.815Z</time></trkpt><trkpt lat="41.5300862" lon="0.4842912"><ele>121.0</ele><time>2026-05-04T11:58:27.815Z</time></trkpt><trkpt lat="41.5300985" lon="0.4841165"><ele>121.00000000000001</ele><time>2026-05-04T11:58:29.815Z</time></trkpt><trkpt lat="41.5301273" lon="0.4840256"><ele>121.0</ele><time>2026-05-04T11:58:30.815Z</time></trkpt><trkpt lat="41.5301845" lon="0.4839569"><ele>121.0</ele><time>2026-05-04T11:58:31.814Z</time></trkpt><trkpt lat="41.5302575" lon="0.4839239"><ele>121.0</ele><time>2026-05-04T11:58:32.815Z</time></trkpt><trkpt lat="41.5303341" lon="0.4839207"><ele>121.00000000000001</ele><time>2026-05-04T11:58:33.815Z</time></trkpt><trkpt lat="41.5304186" lon="0.4839277"><ele>121.0</ele><time>2026-05-04T11:58:34.815Z</time></trkpt><trkpt lat="41.5305033" lon="0.4839145"><ele>120.4</ele><time>2026-05-04T11:58:35.815Z</time></trkpt><trkpt lat="41.5305983" lon="0.4838925"><ele>119.8</ele><time>2026-05-04T11:58:36.814Z</time></trkpt><trkpt lat="41.530691" lon="0.4838642"><ele>119.20000000000002</ele><time>2026-05-04T11:58:37.815Z</time></trkpt><trkpt lat="41.5307923" lon="0.4838374"><ele>118.60000000000001</ele><time>2026-05-04T11:58:38.815Z</time></trkpt><trkpt lat="41.5308979" lon="0.4838106"><ele>118.0</ele><time>2026-05-04T11:58:39.815Z</time></trkpt><trkpt lat="41.5310105" lon="0.4837885"><ele>118.0</ele><time>2026-05-04T11:58:40.815Z</time></trkpt><trkpt lat="41.5311202" lon="0.4837664"><ele>118.0</ele><time>2026-05-04T11:58:41.815Z</time></trkpt><trkpt lat="41.5312334" lon="0.4837413"><ele>118.0</ele><time>2026-05-04T11:58:42.815Z</time></trkpt><trkpt lat="41.5313469" lon="0.4837154"><ele>118.0</ele><time>2026-05-04T11:58:43.815Z</time></trkpt><trkpt lat="41.5314645" lon="0.483691"><ele>118.75</ele><time>2026-05-04T11:58:44.815Z</time></trkpt><trkpt lat="41.5315794" lon="0.483666"><ele>119.5</ele><time>2026-05-04T11:58:45.815Z</time></trkpt><trkpt lat="41.5316966" lon="0.4836416"><ele>120.25</ele><time>2026-05-04T11:58:46.815Z</time></trkpt><trkpt lat="41.5318137" lon="0.4836195"><ele>121.0</ele><time>2026-05-04T11:58:47.815Z</time></trkpt><trkpt lat="41.5319282" lon="0.4835971"><ele>121.0</ele><time>2026-05-04T11:58:48.815Z</time></trkpt><trkpt lat="41.5320368" lon="0.4835766"><ele>121.0</ele><time>2026-05-04T11:58:49.815Z</time></trkpt><trkpt lat="41.5321478" lon="0.4835602"><ele>121.0</ele><time>2026-05-04T11:58:50.815Z</time></trkpt><trkpt lat="41.5322508" lon="0.4835459"><ele>121.0</ele><time>2026-05-04T11:58:51.815Z</time></trkpt><trkpt lat="41.532349" lon="0.4835431"><ele>121.0</ele><time>2026-05-04T11:58:52.814Z</time></trkpt><trkpt lat="41.532445" lon="0.4835429"><ele>122.6</ele><time>2026-05-04T11:58:53.815Z</time></trkpt><trkpt lat="41.5325439" lon="0.4835381"><ele>124.19999999999999</ele><time>2026-05-04T11:58:54.814Z</time></trkpt><trkpt lat="41.5326394" lon="0.483538"><ele>125.80000000000001</ele><time>2026-05-04T11:58:55.815Z</time></trkpt><trkpt lat="41.5327373" lon="0.4835414"><ele>127.4</ele><time>2026-05-04T11:58:56.815Z</time></trkpt><trkpt lat="41.5328343" lon="0.4835423"><ele>129.0</ele><time>2026-05-04T11:58:57.814Z</time></trkpt><trkpt lat="41.5329314" lon="0.4835538"><ele>130.6</ele><time>2026-05-04T11:58:58.815Z</time></trkpt><trkpt lat="41.5330287" lon="0.4835692"><ele>132.2</ele><time>2026-05-04T11:58:59.814Z</time></trkpt><trkpt lat="41.5331275" lon="0.4835807"><ele>133.79999999999998</ele><time>2026-05-04T11:59:00.814Z</time></trkpt><trkpt lat="41.5332256" lon="0.4835981"><ele>135.4</ele><time>2026-05-04T11:59:01.815Z</time></trkpt><trkpt lat="41.5333266" lon="0.4836191"><ele>137.0</ele><time>2026-05-04T11:59:02.815Z</time></trkpt><trkpt lat="41.5334259" lon="0.4836483"><ele>137.0</ele><time>2026-05-04T11:59:03.815Z</time></trkpt><trkpt lat="41.5335265" lon="0.4836744"><ele>137.0</ele><time>2026-05-04T11:59:04.815Z</time></trkpt><trkpt lat="41.5336283" lon="0.4836967"><ele>137.0</ele><time>2026-05-04T11:59:05.815Z</time></trkpt><trkpt lat="41.5337363" lon="0.4837206"><ele>137.0</ele><time>2026-05-04T11:59:06.815Z</time></trkpt><trkpt lat="41.5338453" lon="0.4837419"><ele>137.0</ele><time>2026-05-04T11:59:07.815Z</time></trkpt><trkpt lat="41.5339536" lon="0.4837701"><ele>137.5</ele><time>2026-05-04T11:59:08.815Z</time></trkpt><trkpt lat="41.5340652" lon="0.4837988"><ele>138.0</ele><time>2026-05-04T11:59:09.814Z</time></trkpt><trkpt lat="41.5341783" lon="0.4838265"><ele>138.5</ele><time>2026-05-04T11:59:10.815Z</time></trkpt><trkpt lat="41.5342928" lon="0.483857"><ele>139.0</ele><time>2026-05-04T11:59:11.815Z</time></trkpt><trkpt lat="41.5344098" lon="0.4838904"><ele>139.0</ele><time>2026-05-04T11:59:12.815Z</time></trkpt><trkpt lat="41.5345276" lon="0.483924"><ele>139.0</ele><time>2026-05-04T11:59:13.815Z</time></trkpt><trkpt lat="41.5346488" lon="0.4839611"><ele>139.0</ele><time>2026-05-04T11:59:14.815Z</time></trkpt><trkpt lat="41.5347767" lon="0.4839936"><ele>139.0</ele><time>2026-05-04T11:59:15.815Z</time></trkpt><trkpt lat="41.5349067" lon="0.4840263"><ele>139.0</ele><time>2026-05-04T11:59:16.815Z</time></trkpt><trkpt lat="41.5350388" lon="0.4840607"><ele>139.0</ele><time>2026-05-04T11:59:17.814Z</time></trkpt><trkpt lat="41.5351688" lon="0.484097"><ele>139.0</ele><time>2026-05-04T11:59:18.815Z</time></trkpt><trkpt lat="41.5353062" lon="0.4841288"><ele>139.0</ele><time>2026-05-04T11:59:19.815Z</time></trkpt><trkpt lat="41.5354472" lon="0.4841639"><ele>139.0</ele><time>2026-05-04T11:59:20.815Z</time></trkpt><trkpt lat="41.5355774" lon="0.4842008"><ele>139.0</ele><time>2026-05-04T11:59:21.814Z</time></trkpt><trkpt lat="41.5357078" lon="0.4842343"><ele>139.0</ele><time>2026-05-04T11:59:22.815Z</time></trkpt><trkpt lat="41.5358344" lon="0.4842723"><ele>139.0</ele><time>2026-05-04T11:59:23.815Z</time></trkpt><trkpt lat="41.5359546" lon="0.4843082"><ele>139.0</ele><time>2026-05-04T11:59:24.815Z</time></trkpt><trkpt lat="41.536067" lon="0.4843426"><ele>139.0</ele><time>2026-05-04T11:59:25.815Z</time></trkpt><trkpt lat="41.5361588" lon="0.4843658"><ele>139.0</ele><time>2026-05-04T11:59:26.814Z</time></trkpt><trkpt lat="41.5362425" lon="0.4843994"><ele>139.0</ele><time>2026-05-04T11:59:27.815Z</time></trkpt><trkpt lat="41.5363092" lon="0.4844491"><ele>139.0</ele><time>2026-05-04T11:59:28.815Z</time></trkpt><trkpt lat="41.5363632" lon="0.4845175"><ele>139.0</ele><time>2026-05-04T11:59:29.815Z</time></trkpt><trkpt lat="41.5364205" lon="0.4845797"><ele>138.5</ele><time>2026-05-04T11:59:30.814Z</time></trkpt><trkpt lat="41.5364901" lon="0.4846172"><ele>138.0</ele><time>2026-05-04T11:59:31.815Z</time></trkpt><trkpt lat="41.5365637" lon="0.4846167"><ele>137.5</ele><time>2026-05-04T11:59:32.815Z</time></trkpt><trkpt lat="41.5366543" lon="0.4846204"><ele>137.0</ele><time>2026-05-04T11:59:33.815Z</time></trkpt><trkpt lat="41.5367483" lon="0.4846602"><ele>136.5</ele><time>2026-05-04T11:59:34.815Z</time></trkpt><trkpt lat="41.5368414" lon="0.4847352"><ele>136.0</ele><time>2026-05-04T11:59:35.814Z</time></trkpt><trkpt lat="41.5369303" lon="0.4848385"><ele>136.0</ele><time>2026-05-04T11:59:36.815Z</time></trkpt><trkpt lat="41.5370095" lon="0.484961"><ele>136.0</ele><time>2026-05-04T11:59:37.814Z</time></trkpt><trkpt lat="41.5370824" lon="0.4850887"><ele>136.0</ele><time>2026-05-04T11:59:38.815Z</time></trkpt><trkpt lat="41.5371586" lon="0.4852247"><ele>136.0</ele><time>2026-05-04T11:59:39.815Z</time></trkpt><trkpt lat="41.5372335" lon="0.4853753"><ele>135.5</ele><time>2026-05-04T11:59:40.815Z</time></trkpt><trkpt lat="41.537311" lon="0.4855321"><ele>135.0</ele><time>2026-05-04T11:59:41.815Z</time></trkpt><trkpt lat="41.5373906" lon="0.4856888"><ele>134.5</ele><time>2026-05-04T11:59:42.814Z</time></trkpt><trkpt lat="41.5374782" lon="0.4858551"><ele>134.0</ele><time>2026-05-04T11:59:43.814Z</time></trkpt><trkpt lat="41.5375604" lon="0.4860125"><ele>134.0</ele><time>2026-05-04T11:59:44.815Z</time></trkpt><trkpt lat="41.5376419" lon="0.4861669"><ele>134.0</ele><time>2026-05-04T11:59:45.815Z</time></trkpt><trkpt lat="41.5377225" lon="0.4863233"><ele>134.0</ele><time>2026-05-04T11:59:46.815Z</time></trkpt><trkpt lat="41.5377995" lon="0.4864787"><ele>134.0</ele><time>2026-05-04T11:59:47.815Z</time></trkpt><trkpt lat="41.5378761" lon="0.486637"><ele>132.75</ele><time>2026-05-04T11:59:48.815Z</time></trkpt><trkpt lat="41.5379541" lon="0.4867891"><ele>131.5</ele><time>2026-05-04T11:59:49.815Z</time></trkpt><trkpt lat="41.5380317" lon="0.4869381"><ele>130.25</ele><time>2026-05-04T11:59:50.815Z</time></trkpt><trkpt lat="41.5381038" lon="0.4870764"><ele>129.0</ele><time>2026-05-04T11:59:51.815Z</time></trkpt><trkpt lat="41.5381734" lon="0.4872154"><ele>127.75</ele><time>2026-05-04T11:59:52.814Z</time></trkpt><trkpt lat="41.5382421" lon="0.4873525"><ele>126.5</ele><time>2026-05-04T11:59:53.815Z</time></trkpt><trkpt lat="41.5383128" lon="0.4874967"><ele>125.25</ele><time>2026-05-04T11:59:54.815Z</time></trkpt><trkpt lat="41.5383821" lon="0.4876367"><ele>124.0</ele><time>2026-05-04T11:59:55.815Z</time></trkpt><trkpt lat="41.5384472" lon="0.4877647"><ele>124.00000000000001</ele><time>2026-05-04T11:59:56.815Z</time></trkpt><trkpt lat="41.5385058" lon="0.4878784"><ele>124.0</ele><time>2026-05-04T11:59:57.814Z</time></trkpt><trkpt lat="41.5385446" lon="0.4879821"><ele>124.0</ele><time>2026-05-04T11:59:58.815Z</time></trkpt><trkpt lat="41.5385569" lon="0.4880926"><ele>124.0</ele><time>2026-05-04T11:59:59.815Z</time></trkpt><trkpt lat="41.5385509" lon="0.4881979"><ele>124.00000000000001</ele><time>2026-05-04T12:00:00.815Z</time></trkpt><trkpt lat="41.5385508" lon="0.4882994"><ele>124.0</ele><time>2026-05-04T12:00:01.815Z</time></trkpt><trkpt lat="41.5385711" lon="0.4883864"><ele>123.6</ele><time>2026-05-04T12:00:02.815Z</time></trkpt><trkpt lat="41.5386232" lon="0.4884419"><ele>123.2</ele><time>2026-05-04T12:00:03.815Z</time></trkpt><trkpt lat="41.5386872" lon="0.4884537"><ele>122.79999999999998</ele><time>2026-05-04T12:00:04.815Z</time></trkpt><trkpt lat="41.5388289" lon="0.4884757"><ele>122.39999999999999</ele><time>2026-05-04T12:00:06.815Z</time></trkpt><trkpt lat="41.5389191" lon="0.4885255"><ele>122.0</ele><time>2026-05-04T12:00:07.815Z</time></trkpt><trkpt lat="41.5390061" lon="0.4885981"><ele>122.0</ele><time>2026-05-04T12:00:08.815Z</time></trkpt><trkpt lat="41.5390981" lon="0.488678"><ele>122.0</ele><time>2026-05-04T12:00:09.814Z</time></trkpt><trkpt lat="41.5391983" lon="0.488751"><ele>122.0</ele><time>2026-05-04T12:00:10.815Z</time></trkpt><trkpt lat="41.5393076" lon="0.488817"><ele>122.0</ele><time>2026-05-04T12:00:11.815Z</time></trkpt><trkpt lat="41.5394212" lon="0.488874"><ele>121.75</ele><time>2026-05-04T12:00:12.814Z</time></trkpt><trkpt lat="41.5395371" lon="0.4889362"><ele>121.5</ele><time>2026-05-04T12:00:13.815Z</time></trkpt><trkpt lat="41.5396548" lon="0.4889957"><ele>121.25</ele><time>2026-05-04T12:00:14.815Z</time></trkpt><trkpt lat="41.5397686" lon="0.489048"><ele>121.0</ele><time>2026-05-04T12:00:15.815Z</time></trkpt><trkpt lat="41.539878" lon="0.489096"><ele>121.4</ele><time>2026-05-04T12:00:16.815Z</time></trkpt><trkpt lat="41.5399759" lon="0.4891441"><ele>121.8</ele><time>2026-05-04T12:00:17.815Z</time></trkpt><trkpt lat="41.5400691" lon="0.4891893"><ele>122.20000000000002</ele><time>2026-05-04T12:00:18.816Z</time></trkpt><trkpt lat="41.5401603" lon="0.4892355"><ele>122.60000000000001</ele><time>2026-05-04T12:00:19.815Z</time></trkpt><trkpt lat="41.5402495" lon="0.4892818"><ele>123.0</ele><time>2026-05-04T12:00:20.815Z</time></trkpt><trkpt lat="41.5403443" lon="0.4893338"><ele>123.0</ele><time>2026-05-04T12:00:21.816Z</time></trkpt><trkpt lat="41.5404402" lon="0.4893925"><ele>123.00000000000001</ele><time>2026-05-04T12:00:22.815Z</time></trkpt><trkpt lat="41.5405368" lon="0.4894577"><ele>123.00000000000001</ele><time>2026-05-04T12:00:23.816Z</time></trkpt><trkpt lat="41.5406329" lon="0.489526"><ele>123.0</ele><time>2026-05-04T12:00:24.816Z</time></trkpt><trkpt lat="41.5407306" lon="0.4896009"><ele>123.0</ele><time>2026-05-04T12:00:25.816Z</time></trkpt><trkpt lat="41.5408269" lon="0.4896813"><ele>123.0</ele><time>2026-05-04T12:00:26.815Z</time></trkpt><trkpt lat="41.5409231" lon="0.4897699"><ele>123.00000000000001</ele><time>2026-05-04T12:00:27.816Z</time></trkpt><trkpt lat="41.5410127" lon="0.489858"><ele>123.00000000000001</ele><time>2026-05-04T12:00:28.816Z</time></trkpt><trkpt lat="41.5411003" lon="0.4899385"><ele>123.0</ele><time>2026-05-04T12:00:29.815Z</time></trkpt><trkpt lat="41.5411866" lon="0.490017"><ele>123.0</ele><time>2026-05-04T12:00:30.816Z</time></trkpt><trkpt lat="41.541277" lon="0.4900944"><ele>123.0</ele><time>2026-05-04T12:00:31.815Z</time></trkpt><trkpt lat="41.5413639" lon="0.4901734"><ele>123.00000000000001</ele><time>2026-05-04T12:00:32.816Z</time></trkpt><trkpt lat="41.5414473" lon="0.4902553"><ele>123.00000000000001</ele><time>2026-05-04T12:00:33.816Z</time></trkpt><trkpt lat="41.5415303" lon="0.4903377"><ele>123.0</ele><time>2026-05-04T12:00:34.816Z</time></trkpt><trkpt lat="41.5416148" lon="0.4904205"><ele>123.0</ele><time>2026-05-04T12:00:35.816Z</time></trkpt><trkpt lat="41.5417019" lon="0.4905051"><ele>122.80000000000001</ele><time>2026-05-04T12:00:36.816Z</time></trkpt><trkpt lat="41.5417915" lon="0.4905879"><ele>122.60000000000001</ele><time>2026-05-04T12:00:37.816Z</time></trkpt><trkpt lat="41.5418811" lon="0.4906741"><ele>122.39999999999999</ele><time>2026-05-04T12:00:38.816Z</time></trkpt><trkpt lat="41.5419701" lon="0.4907579"><ele>122.19999999999999</ele><time>2026-05-04T12:00:39.815Z</time></trkpt><trkpt lat="41.5420554" lon="0.4908393"><ele>122.0</ele><time>2026-05-04T12:00:40.815Z</time></trkpt><trkpt lat="41.5421404" lon="0.4909201"><ele>122.8</ele><time>2026-05-04T12:00:41.816Z</time></trkpt><trkpt lat="41.542224" lon="0.4909962"><ele>123.6</ele><time>2026-05-04T12:00:42.816Z</time></trkpt><trkpt lat="41.5423149" lon="0.491081"><ele>124.39999999999999</ele><time>2026-05-04T12:00:43.816Z</time></trkpt><trkpt lat="41.542408" lon="0.4911631"><ele>125.19999999999999</ele><time>2026-05-04T12:00:44.815Z</time></trkpt><trkpt lat="41.5425001" lon="0.4912514"><ele>126.0</ele><time>2026-05-04T12:00:45.816Z</time></trkpt><trkpt lat="41.5425931" lon="0.4913404"><ele>126.0</ele><time>2026-05-04T12:00:46.816Z</time></trkpt><trkpt lat="41.5426884" lon="0.4914301"><ele>126.0</ele><time>2026-05-04T12:00:47.816Z</time></trkpt><trkpt lat="41.542783" lon="0.49152"><ele>126.0</ele><time>2026-05-04T12:00:48.816Z</time></trkpt><trkpt lat="41.5428842" lon="0.4916104"><ele>126.0</ele><time>2026-05-04T12:00:49.816Z</time></trkpt><trkpt lat="41.5429819" lon="0.4916956"><ele>128.0</ele><time>2026-05-04T12:00:50.815Z</time></trkpt><trkpt lat="41.543085" lon="0.4917898"><ele>130.0</ele><time>2026-05-04T12:00:51.816Z</time></trkpt><trkpt lat="41.543187" lon="0.4918796"><ele>132.0</ele><time>2026-05-04T12:00:52.816Z</time></trkpt><trkpt lat="41.543292" lon="0.4919605"><ele>134.0</ele><time>2026-05-04T12:00:53.816Z</time></trkpt><trkpt lat="41.5434017" lon="0.4920429"><ele>134.0</ele><time>2026-05-04T12:00:54.816Z</time></trkpt><trkpt lat="41.5435186" lon="0.4921211"><ele>134.0</ele><time>2026-05-04T12:00:55.816Z</time></trkpt><trkpt lat="41.543635" lon="0.4921985"><ele>134.0</ele><time>2026-05-04T12:00:56.816Z</time></trkpt><trkpt lat="41.543754" lon="0.4922741"><ele>134.0</ele><time>2026-05-04T12:00:57.815Z</time></trkpt><trkpt lat="41.5438762" lon="0.4923522"><ele>133.25</ele><time>2026-05-04T12:00:58.816Z</time></trkpt><trkpt lat="41.5440021" lon="0.4924349"><ele>132.5</ele><time>2026-05-04T12:00:59.816Z</time></trkpt><trkpt lat="41.5441277" lon="0.492516"><ele>131.75</ele><time>2026-05-04T12:01:00.815Z</time></trkpt><trkpt lat="41.5442549" lon="0.4925951"><ele>131.0</ele><time>2026-05-04T12:01:01.816Z</time></trkpt><trkpt lat="41.544384" lon="0.4926697"><ele>131.0</ele><time>2026-05-04T12:01:02.816Z</time></trkpt><trkpt lat="41.5445075" lon="0.4927405"><ele>131.0</ele><time>2026-05-04T12:01:03.816Z</time></trkpt><trkpt lat="41.5446317" lon="0.4928189"><ele>131.0</ele><time>2026-05-04T12:01:04.815Z</time></trkpt><trkpt lat="41.5447563" lon="0.4928992"><ele>131.0</ele><time>2026-05-04T12:01:05.815Z</time></trkpt><trkpt lat="41.544885" lon="0.4929805"><ele>130.0</ele><time>2026-05-04T12:01:06.816Z</time></trkpt><trkpt lat="41.5450112" lon="0.4930586"><ele>129.0</ele><time>2026-05-04T12:01:07.816Z</time></trkpt><trkpt lat="41.5451372" lon="0.4931324"><ele>128.0</ele><time>2026-05-04T12:01:08.815Z</time></trkpt><trkpt lat="41.5452631" lon="0.4932075"><ele>127.0</ele><time>2026-05-04T12:01:09.816Z</time></trkpt><trkpt lat="41.5453902" lon="0.4932888"><ele>127.0</ele><time>2026-05-04T12:01:10.815Z</time></trkpt><trkpt lat="41.5455208" lon="0.4933672"><ele>127.0</ele><time>2026-05-04T12:01:11.816Z</time></trkpt><trkpt lat="41.5456545" lon="0.493439"><ele>127.0</ele><time>2026-05-04T12:01:12.816Z</time></trkpt><trkpt lat="41.5457838" lon="0.4935155"><ele>127.0</ele><time>2026-05-04T12:01:13.816Z</time></trkpt><trkpt lat="41.5459171" lon="0.493591"><ele>127.0</ele><time>2026-05-04T12:01:14.816Z</time></trkpt><trkpt lat="41.5460498" lon="0.4936678"><ele>127.0</ele><time>2026-05-04T12:01:15.815Z</time></trkpt><trkpt lat="41.5461834" lon="0.4937444"><ele>127.0</ele><time>2026-05-04T12:01:16.816Z</time></trkpt><trkpt lat="41.5463153" lon="0.4938225"><ele>127.0</ele><time>2026-05-04T12:01:17.816Z</time></trkpt><trkpt lat="41.5464515" lon="0.4939084"><ele>126.5</ele><time>2026-05-04T12:01:18.815Z</time></trkpt><trkpt lat="41.546582" lon="0.4939869"><ele>126.0</ele><time>2026-05-04T12:01:19.816Z</time></trkpt><trkpt lat="41.5467151" lon="0.4940685"><ele>125.5</ele><time>2026-05-04T12:01:20.815Z</time></trkpt><trkpt lat="41.5468465" lon="0.4941485"><ele>125.0</ele><time>2026-05-04T12:01:21.816Z</time></trkpt><trkpt lat="41.5469732" lon="0.4942345"><ele>125.25</ele><time>2026-05-04T12:01:22.816Z</time></trkpt><trkpt lat="41.5471057" lon="0.4943121"><ele>125.5</ele><time>2026-05-04T12:01:23.816Z</time></trkpt><trkpt lat="41.5472347" lon="0.4943899"><ele>125.75</ele><time>2026-05-04T12:01:24.816Z</time></trkpt><trkpt lat="41.5473594" lon="0.4944648"><ele>126.0</ele><time>2026-05-04T12:01:25.816Z</time></trkpt><trkpt lat="41.5474839" lon="0.4945408"><ele>126.0</ele><time>2026-05-04T12:01:26.816Z</time></trkpt><trkpt lat="41.5476127" lon="0.4946166"><ele>126.0</ele><time>2026-05-04T12:01:27.816Z</time></trkpt><trkpt lat="41.547739" lon="0.4946948"><ele>126.0</ele><time>2026-05-04T12:01:28.816Z</time></trkpt><trkpt lat="41.547867" lon="0.4947735"><ele>126.0</ele><time>2026-05-04T12:01:29.816Z</time></trkpt><trkpt lat="41.5479963" lon="0.4948535"><ele>126.0</ele><time>2026-05-04T12:01:30.816Z</time></trkpt><trkpt lat="41.5481264" lon="0.4949276"><ele>126.0</ele><time>2026-05-04T12:01:31.816Z</time></trkpt><trkpt lat="41.5482589" lon="0.495009"><ele>126.0</ele><time>2026-05-04T12:01:32.816Z</time></trkpt><trkpt lat="41.5483902" lon="0.4950932"><ele>126.0</ele><time>2026-05-04T12:01:33.816Z</time></trkpt><trkpt lat="41.5485193" lon="0.49517"><ele>126.0</ele><time>2026-05-04T12:01:34.816Z</time></trkpt><trkpt lat="41.5486396" lon="0.4952439"><ele>126.0</ele><time>2026-05-04T12:01:35.816Z</time></trkpt><trkpt lat="41.5487589" lon="0.4953166"><ele>126.0</ele><time>2026-05-04T12:01:36.815Z</time></trkpt><trkpt lat="41.5488769" lon="0.495384"><ele>126.0</ele><time>2026-05-04T12:01:37.815Z</time></trkpt><trkpt lat="41.5489937" lon="0.4954492"><ele>125.75</ele><time>2026-05-04T12:01:38.816Z</time></trkpt><trkpt lat="41.5491079" lon="0.4955232"><ele>125.5</ele><time>2026-05-04T12:01:39.815Z</time></trkpt><trkpt lat="41.549226" lon="0.4955954"><ele>125.25</ele><time>2026-05-04T12:01:40.816Z</time></trkpt><trkpt lat="41.5493407" lon="0.4956642"><ele>125.0</ele><time>2026-05-04T12:01:41.816Z</time></trkpt><trkpt lat="41.5494563" lon="0.4957353"><ele>125.75</ele><time>2026-05-04T12:01:42.816Z</time></trkpt><trkpt lat="41.5495693" lon="0.4958048"><ele>126.5</ele><time>2026-05-04T12:01:43.816Z</time></trkpt><trkpt lat="41.5496838" lon="0.4958709"><ele>127.25</ele><time>2026-05-04T12:01:44.815Z</time></trkpt><trkpt lat="41.5498044" lon="0.4959382"><ele>128.0</ele><time>2026-05-04T12:01:45.815Z</time></trkpt><trkpt lat="41.5499217" lon="0.4960062"><ele>128.0</ele><time>2026-05-04T12:01:46.816Z</time></trkpt><trkpt lat="41.5500407" lon="0.4960784"><ele>128.0</ele><time>2026-05-04T12:01:47.816Z</time></trkpt><trkpt lat="41.5501628" lon="0.4961432"><ele>128.0</ele><time>2026-05-04T12:01:48.816Z</time></trkpt><trkpt lat="41.5502847" lon="0.4962222"><ele>128.0</ele><time>2026-05-04T12:01:49.816Z</time></trkpt><trkpt lat="41.5504073" lon="0.4962991"><ele>127.5</ele><time>2026-05-04T12:01:50.815Z</time></trkpt><trkpt lat="41.5505257" lon="0.4963768"><ele>127.0</ele><time>2026-05-04T12:01:51.815Z</time></trkpt><trkpt lat="41.5506532" lon="0.4964462"><ele>126.5</ele><time>2026-05-04T12:01:52.816Z</time></trkpt><trkpt lat="41.5507777" lon="0.4965244"><ele>126.0</ele><time>2026-05-04T12:01:53.816Z</time></trkpt><trkpt lat="41.550893" lon="0.4965981"><ele>126.0</ele><time>2026-05-04T12:01:54.816Z</time></trkpt><trkpt lat="41.5510065" lon="0.4966676"><ele>126.0</ele><time>2026-05-04T12:01:55.815Z</time></trkpt><trkpt lat="41.5511198" lon="0.4967356"><ele>126.0</ele><time>2026-05-04T12:01:56.816Z</time></trkpt><trkpt lat="41.5512383" lon="0.4968123"><ele>126.0</ele><time>2026-05-04T12:01:57.815Z</time></trkpt><trkpt lat="41.5513529" lon="0.4968868"><ele>125.5</ele><time>2026-05-04T12:01:58.816Z</time></trkpt><trkpt lat="41.5514739" lon="0.4969652"><ele>125.0</ele><time>2026-05-04T12:01:59.816Z</time></trkpt><trkpt lat="41.5515977" lon="0.4970448"><ele>124.5</ele><time>2026-05-04T12:02:00.816Z</time></trkpt><trkpt lat="41.5517231" lon="0.4971217"><ele>124.0</ele><time>2026-05-04T12:02:01.816Z</time></trkpt><trkpt lat="41.5518512" lon="0.4972021"><ele>123.75</ele><time>2026-05-04T12:02:02.815Z</time></trkpt><trkpt lat="41.5519762" lon="0.4972777"><ele>123.5</ele><time>2026-05-04T12:02:03.816Z</time></trkpt><trkpt lat="41.5520998" lon="0.4973472"><ele>123.25</ele><time>2026-05-04T12:02:04.816Z</time></trkpt><trkpt lat="41.5522133" lon="0.4974168"><ele>123.0</ele><time>2026-05-04T12:02:05.815Z</time></trkpt><trkpt lat="41.5523097" lon="0.497467"><ele>123.33333333333333</ele><time>2026-05-04T12:02:06.815Z</time></trkpt><trkpt lat="41.5523828" lon="0.497503"><ele>123.66666666666666</ele><time>2026-05-04T12:02:07.816Z</time></trkpt><trkpt lat="41.5524439" lon="0.497529"><ele>124.0</ele><time>2026-05-04T12:02:08.816Z</time></trkpt><trkpt lat="41.5525517" lon="0.4975981"><ele>124.33333333333333</ele><time>2026-05-04T12:02:10.815Z</time></trkpt><trkpt lat="41.5526117" lon="0.4976403"><ele>124.66666666666666</ele><time>2026-05-04T12:02:11.816Z</time></trkpt><trkpt lat="41.5526856" lon="0.4977005"><ele>125.0</ele><time>2026-05-04T12:02:12.816Z</time></trkpt><trkpt lat="41.5527611" lon="0.4977644"><ele>125.0</ele><time>2026-05-04T12:02:13.815Z</time></trkpt><trkpt lat="41.5528329" lon="0.4978446"><ele>125.0</ele><time>2026-05-04T12:02:14.815Z</time></trkpt><trkpt lat="41.5528853" lon="0.4979407"><ele>125.0</ele><time>2026-05-04T12:02:15.816Z</time></trkpt><trkpt lat="41.5529347" lon="0.4980627"><ele>125.0</ele><time>2026-05-04T12:02:16.816Z</time></trkpt><trkpt lat="41.5529734" lon="0.4981945"><ele>125.0</ele><time>2026-05-04T12:02:17.816Z</time></trkpt><trkpt lat="41.5530103" lon="0.4983335"><ele>125.0</ele><time>2026-05-04T12:02:18.816Z</time></trkpt><trkpt lat="41.5530519" lon="0.4984767"><ele>125.0</ele><time>2026-05-04T12:02:19.815Z</time></trkpt><trkpt lat="41.5530897" lon="0.4986171"><ele>125.0</ele><time>2026-05-04T12:02:20.817Z</time></trkpt><trkpt lat="41.5531223" lon="0.4987524"><ele>125.0</ele><time>2026-05-04T12:02:21.817Z</time></trkpt><trkpt lat="41.5531529" lon="0.4988944"><ele>125.0</ele><time>2026-05-04T12:02:22.817Z</time></trkpt><trkpt lat="41.5531808" lon="0.4990336"><ele>125.0</ele><time>2026-05-04T12:02:23.817Z</time></trkpt><trkpt lat="41.5532069" lon="0.4991759"><ele>125.0</ele><time>2026-05-04T12:02:24.817Z</time></trkpt><trkpt lat="41.5532332" lon="0.4993199"><ele>125.0</ele><time>2026-05-04T12:02:25.817Z</time></trkpt><trkpt lat="41.553265" lon="0.4994594"><ele>125.0</ele><time>2026-05-04T12:02:26.817Z</time></trkpt><trkpt lat="41.5532972" lon="0.4996072"><ele>125.0</ele><time>2026-05-04T12:02:27.817Z</time></trkpt><trkpt lat="41.5533243" lon="0.4997613"><ele>124.75</ele><time>2026-05-04T12:02:28.817Z</time></trkpt><trkpt lat="41.5533547" lon="0.4999127"><ele>124.5</ele><time>2026-05-04T12:02:29.817Z</time></trkpt><trkpt lat="41.55339" lon="0.5000643"><ele>124.25</ele><time>2026-05-04T12:02:30.817Z</time></trkpt><trkpt lat="41.5534223" lon="0.500218"><ele>124.0</ele><time>2026-05-04T12:02:31.817Z</time></trkpt><trkpt lat="41.5534511" lon="0.5003774"><ele>124.0</ele><time>2026-05-04T12:02:32.816Z</time></trkpt><trkpt lat="41.5534791" lon="0.5005341"><ele>124.0</ele><time>2026-05-04T12:02:33.817Z</time></trkpt><trkpt lat="41.5535118" lon="0.5006901"><ele>124.0</ele><time>2026-05-04T12:02:34.816Z</time></trkpt><trkpt lat="41.5535485" lon="0.5008491"><ele>124.0</ele><time>2026-05-04T12:02:35.817Z</time></trkpt><trkpt lat="41.5535853" lon="0.5009982"><ele>124.0</ele><time>2026-05-04T12:02:36.817Z</time></trkpt><trkpt lat="41.5536238" lon="0.5011482"><ele>124.0</ele><time>2026-05-04T12:02:37.816Z</time></trkpt><trkpt lat="41.5536618" lon="0.5013009"><ele>124.0</ele><time>2026-05-04T12:02:38.817Z</time></trkpt><trkpt lat="41.5537024" lon="0.5014515"><ele>124.0</ele><time>2026-05-04T12:02:39.817Z</time></trkpt><trkpt lat="41.5537446" lon="0.5016068"><ele>125.5</ele><time>2026-05-04T12:02:40.817Z</time></trkpt><trkpt lat="41.553785" lon="0.5017595"><ele>127.0</ele><time>2026-05-04T12:02:41.816Z</time></trkpt><trkpt lat="41.5538279" lon="0.5019162"><ele>128.5</ele><time>2026-05-04T12:02:42.817Z</time></trkpt><trkpt lat="41.5538786" lon="0.5020754"><ele>130.0</ele><time>2026-05-04T12:02:43.817Z</time></trkpt><trkpt lat="41.5539283" lon="0.5022367"><ele>130.25</ele><time>2026-05-04T12:02:44.816Z</time></trkpt><trkpt lat="41.5539806" lon="0.5023993"><ele>130.5</ele><time>2026-05-04T12:02:45.817Z</time></trkpt><trkpt lat="41.5540372" lon="0.5025549"><ele>130.75</ele><time>2026-05-04T12:02:46.817Z</time></trkpt><trkpt lat="41.5540912" lon="0.5027091"><ele>131.0</ele><time>2026-05-04T12:02:47.817Z</time></trkpt><trkpt lat="41.5541494" lon="0.5028585"><ele>131.0</ele><time>2026-05-04T12:02:48.817Z</time></trkpt><trkpt lat="41.5542125" lon="0.5030136"><ele>131.0</ele><time>2026-05-04T12:02:49.817Z</time></trkpt><trkpt lat="41.554277" lon="0.5031717"><ele>131.0</ele><time>2026-05-04T12:02:50.816Z</time></trkpt><trkpt lat="41.5543452" lon="0.503328"><ele>131.0</ele><time>2026-05-04T12:02:51.817Z</time></trkpt><trkpt lat="41.5544125" lon="0.5034855"><ele>131.0</ele><time>2026-05-04T12:02:52.817Z</time></trkpt><trkpt lat="41.5544854" lon="0.5036432"><ele>131.0</ele><time>2026-05-04T12:02:53.817Z</time></trkpt><trkpt lat="41.5545585" lon="0.5037986"><ele>131.0</ele><time>2026-05-04T12:02:54.816Z</time></trkpt><trkpt lat="41.5546307" lon="0.5039548"><ele>131.0</ele><time>2026-05-04T12:02:55.817Z</time></trkpt><trkpt lat="41.5547081" lon="0.5041105"><ele>131.0</ele><time>2026-05-04T12:02:56.817Z</time></trkpt><trkpt lat="41.5547937" lon="0.5042686"><ele>131.0</ele><time>2026-05-04T12:02:57.817Z</time></trkpt><trkpt lat="41.5548743" lon="0.5044162"><ele>131.0</ele><time>2026-05-04T12:02:58.817Z</time></trkpt><trkpt lat="41.5549473" lon="0.5045532"><ele>131.0</ele><time>2026-05-04T12:02:59.817Z</time></trkpt><trkpt lat="41.5550196" lon="0.5046771"><ele>130.4</ele><time>2026-05-04T12:03:00.816Z</time></trkpt><trkpt lat="41.55508" lon="0.5047919"><ele>129.8</ele><time>2026-05-04T12:03:01.817Z</time></trkpt><trkpt lat="41.5551326" lon="0.5048942"><ele>129.20000000000002</ele><time>2026-05-04T12:03:02.817Z</time></trkpt><trkpt lat="41.5551801" lon="0.5049999"><ele>128.6</ele><time>2026-05-04T12:03:03.817Z</time></trkpt><trkpt lat="41.5552159" lon="0.505113"><ele>128.0</ele><time>2026-05-04T12:03:04.817Z</time></trkpt><trkpt lat="41.5552363" lon="0.5052338"><ele>127.99999999999999</ele><time>2026-05-04T12:03:05.817Z</time></trkpt><trkpt lat="41.5552523" lon="0.5053462"><ele>128.0</ele><time>2026-05-04T12:03:06.817Z</time></trkpt><trkpt lat="41.555285" lon="0.50545"><ele>128.0</ele><time>2026-05-04T12:03:07.817Z</time></trkpt><trkpt lat="41.5553354" lon="0.5055303"><ele>128.0</ele><time>2026-05-04T12:03:08.817Z</time></trkpt><trkpt lat="41.5554102" lon="0.5055878"><ele>127.99999999999999</ele><time>2026-05-04T12:03:09.817Z</time></trkpt><trkpt lat="41.5554926" lon="0.5056386"><ele>128.0</ele><time>2026-05-04T12:03:10.817Z</time></trkpt><trkpt lat="41.555576" lon="0.5057062"><ele>128.0</ele><time>2026-05-04T12:03:11.817Z</time></trkpt><trkpt lat="41.5556524" lon="0.5057898"><ele>128.0</ele><time>2026-05-04T12:03:12.816Z</time></trkpt><trkpt lat="41.5557286" lon="0.5058992"><ele>128.0</ele><time>2026-05-04T12:03:13.816Z</time></trkpt><trkpt lat="41.5558035" lon="0.5060234"><ele>128.0</ele><time>2026-05-04T12:03:14.817Z</time></trkpt><trkpt lat="41.5558716" lon="0.5061442"><ele>128.0</ele><time>2026-05-04T12:03:15.817Z</time></trkpt><trkpt lat="41.5559405" lon="0.5062571"><ele>127.75</ele><time>2026-05-04T12:03:16.817Z</time></trkpt><trkpt lat="41.5560105" lon="0.5063726"><ele>127.5</ele><time>2026-05-04T12:03:17.817Z</time></trkpt><trkpt lat="41.5560803" lon="0.5064918"><ele>127.25</ele><time>2026-05-04T12:03:18.816Z</time></trkpt><trkpt lat="41.5561547" lon="0.5066197"><ele>127.0</ele><time>2026-05-04T12:03:19.817Z</time></trkpt><trkpt lat="41.5562287" lon="0.5067443"><ele>127.0</ele><time>2026-05-04T12:03:20.817Z</time></trkpt><trkpt lat="41.5563062" lon="0.5068763"><ele>127.0</ele><time>2026-05-04T12:03:21.817Z</time></trkpt><trkpt lat="41.5563861" lon="0.5070082"><ele>127.0</ele><time>2026-05-04T12:03:22.817Z</time></trkpt><trkpt lat="41.5564675" lon="0.5071483"><ele>127.0</ele><time>2026-05-04T12:03:23.817Z</time></trkpt><trkpt lat="41.5565483" lon="0.5072879"><ele>127.0</ele><time>2026-05-04T12:03:24.817Z</time></trkpt><trkpt lat="41.5566294" lon="0.5074225"><ele>127.0</ele><time>2026-05-04T12:03:25.817Z</time></trkpt><trkpt lat="41.5567009" lon="0.5075549"><ele>127.0</ele><time>2026-05-04T12:03:26.817Z</time></trkpt><trkpt lat="41.5567679" lon="0.5076848"><ele>127.0</ele><time>2026-05-04T12:03:27.817Z</time></trkpt><trkpt lat="41.5568307" lon="0.5078096"><ele>127.0</ele><time>2026-05-04T12:03:28.817Z</time></trkpt><trkpt lat="41.5568891" lon="0.5079392"><ele>127.0</ele><time>2026-05-04T12:03:29.817Z</time></trkpt><trkpt lat="41.5569482" lon="0.5080707"><ele>127.0</ele><time>2026-05-04T12:03:30.817Z</time></trkpt><trkpt lat="41.5570018" lon="0.5082093"><ele>127.0</ele><time>2026-05-04T12:03:31.816Z</time></trkpt><trkpt lat="41.5570604" lon="0.5083432"><ele>127.0</ele><time>2026-05-04T12:03:32.817Z</time></trkpt><trkpt lat="41.5571195" lon="0.5084713"><ele>127.0</ele><time>2026-05-04T12:03:33.817Z</time></trkpt><trkpt lat="41.5571802" lon="0.5086062"><ele>127.0</ele><time>2026-05-04T12:03:34.817Z</time></trkpt><trkpt lat="41.5572445" lon="0.5087407"><ele>127.0</ele><time>2026-05-04T12:03:35.817Z</time></trkpt><trkpt lat="41.5573073" lon="0.5088772"><ele>127.0</ele><time>2026-05-04T12:03:36.817Z</time></trkpt><trkpt lat="41.5573666" lon="0.5090137"><ele>127.0</ele><time>2026-05-04T12:03:37.817Z</time></trkpt><trkpt lat="41.5574271" lon="0.5091508"><ele>127.0</ele><time>2026-05-04T12:03:38.817Z</time></trkpt><trkpt lat="41.55749" lon="0.5092882"><ele>127.0</ele><time>2026-05-04T12:03:39.816Z</time></trkpt><trkpt lat="41.5575545" lon="0.5094258"><ele>127.0</ele><time>2026-05-04T12:03:40.817Z</time></trkpt><trkpt lat="41.5576233" lon="0.5095624"><ele>127.0</ele><time>2026-05-04T12:03:41.817Z</time></trkpt><trkpt lat="41.5576954" lon="0.5097004"><ele>127.0</ele><time>2026-05-04T12:03:42.817Z</time></trkpt><trkpt lat="41.5577653" lon="0.509834"><ele>127.0</ele><time>2026-05-04T12:03:43.816Z</time></trkpt><trkpt lat="41.5578416" lon="0.509971"><ele>127.25</ele><time>2026-05-04T12:03:44.817Z</time></trkpt><trkpt lat="41.5579201" lon="0.5101134"><ele>127.5</ele><time>2026-05-04T12:03:45.817Z</time></trkpt><trkpt lat="41.557998" lon="0.5102603"><ele>127.75</ele><time>2026-05-04T12:03:46.817Z</time></trkpt><trkpt lat="41.5580749" lon="0.510408"><ele>128.0</ele><time>2026-05-04T12:03:47.817Z</time></trkpt><trkpt lat="41.5581531" lon="0.510554"><ele>128.0</ele><time>2026-05-04T12:03:48.816Z</time></trkpt><trkpt lat="41.5582384" lon="0.5107066"><ele>128.0</ele><time>2026-05-04T12:03:49.817Z</time></trkpt><trkpt lat="41.5583224" lon="0.5108578"><ele>128.0</ele><time>2026-05-04T12:03:50.817Z</time></trkpt><trkpt lat="41.5584066" lon="0.5110037"><ele>128.0</ele><time>2026-05-04T12:03:51.817Z</time></trkpt><trkpt lat="41.5584905" lon="0.5111455"><ele>127.5</ele><time>2026-05-04T12:03:52.817Z</time></trkpt><trkpt lat="41.5585764" lon="0.5112763"><ele>127.0</ele><time>2026-05-04T12:03:53.817Z</time></trkpt><trkpt lat="41.5586633" lon="0.5114056"><ele>126.5</ele><time>2026-05-04T12:03:54.816Z</time></trkpt><trkpt lat="41.5587531" lon="0.5115326"><ele>126.0</ele><time>2026-05-04T12:03:55.816Z</time></trkpt><trkpt lat="41.5588407" lon="0.511652"><ele>126.0</ele><time>2026-05-04T12:03:56.817Z</time></trkpt><trkpt lat="41.5589291" lon="0.5117753"><ele>126.0</ele><time>2026-05-04T12:03:57.816Z</time></trkpt><trkpt lat="41.5590207" lon="0.5119052"><ele>126.0</ele><time>2026-05-04T12:03:58.817Z</time></trkpt><trkpt lat="41.5591089" lon="0.5120332"><ele>126.0</ele><time>2026-05-04T12:03:59.817Z</time></trkpt><trkpt lat="41.5592025" lon="0.5121558"><ele>126.0</ele><time>2026-05-04T12:04:00.817Z</time></trkpt><trkpt lat="41.559293" lon="0.5122837"><ele>126.0</ele><time>2026-05-04T12:04:01.817Z</time></trkpt><trkpt lat="41.5593796" lon="0.5124089"><ele>126.0</ele><time>2026-05-04T12:04:02.817Z</time></trkpt><trkpt lat="41.5594668" lon="0.5125361"><ele>126.0</ele><time>2026-05-04T12:04:03.817Z</time></trkpt><trkpt lat="41.5595538" lon="0.5126547"><ele>126.0</ele><time>2026-05-04T12:04:04.817Z</time></trkpt><trkpt lat="41.5596424" lon="0.5127705"><ele>126.0</ele><time>2026-05-04T12:04:05.816Z</time></trkpt><trkpt lat="41.5597303" lon="0.5128918"><ele>126.0</ele><time>2026-05-04T12:04:06.817Z</time></trkpt><trkpt lat="41.5598169" lon="0.5130114"><ele>126.0</ele><time>2026-05-04T12:04:07.817Z</time></trkpt><trkpt lat="41.5599048" lon="0.5131373"><ele>126.5</ele><time>2026-05-04T12:04:08.817Z</time></trkpt><trkpt lat="41.5599909" lon="0.5132586"><ele>127.0</ele><time>2026-05-04T12:04:09.817Z</time></trkpt><trkpt lat="41.5600745" lon="0.5133782"><ele>127.5</ele><time>2026-05-04T12:04:10.817Z</time></trkpt><trkpt lat="41.5601565" lon="0.5134935"><ele>128.0</ele><time>2026-05-04T12:04:11.817Z</time></trkpt><trkpt lat="41.5602385" lon="0.5136063"><ele>128.0</ele><time>2026-05-04T12:04:12.817Z</time></trkpt><trkpt lat="41.5603198" lon="0.5137161"><ele>128.0</ele><time>2026-05-04T12:04:13.817Z</time></trkpt><trkpt lat="41.5603934" lon="0.513821"><ele>128.0</ele><time>2026-05-04T12:04:14.817Z</time></trkpt><trkpt lat="41.5604558" lon="0.5139182"><ele>128.0</ele><time>2026-05-04T12:04:15.817Z</time></trkpt><trkpt lat="41.5605089" lon="0.5139979"><ele>128.0</ele><time>2026-05-04T12:04:16.817Z</time></trkpt><trkpt lat="41.5605442" lon="0.5140698"><ele>128.5</ele><time>2026-05-04T12:04:17.816Z</time></trkpt><trkpt lat="41.5606059" lon="0.5142148"><ele>129.0</ele><time>2026-05-04T12:04:19.817Z</time></trkpt><trkpt lat="41.5606305" lon="0.5143132"><ele>129.5</ele><time>2026-05-04T12:04:20.817Z</time></trkpt><trkpt lat="41.5606665" lon="0.5144013"><ele>130.0</ele><time>2026-05-04T12:04:21.816Z</time></trkpt><trkpt lat="41.5607177" lon="0.5144645"><ele>130.5</ele><time>2026-05-04T12:04:22.817Z</time></trkpt><trkpt lat="41.5607854" lon="0.5145009"><ele>131.0</ele><time>2026-05-04T12:04:23.817Z</time></trkpt><trkpt lat="41.5608596" lon="0.5145328"><ele>130.8</ele><time>2026-05-04T12:04:24.818Z</time></trkpt><trkpt lat="41.5609379" lon="0.5145781"><ele>130.6</ele><time>2026-05-04T12:04:25.817Z</time></trkpt><trkpt lat="41.561021" lon="0.5146442"><ele>130.4</ele><time>2026-05-04T12:04:26.818Z</time></trkpt><trkpt lat="41.5611" lon="0.5147291"><ele>130.2</ele><time>2026-05-04T12:04:27.818Z</time></trkpt><trkpt lat="41.561183" lon="0.51483"><ele>130.0</ele><time>2026-05-04T12:04:28.818Z</time></trkpt><trkpt lat="41.5612663" lon="0.5149282"><ele>130.0</ele><time>2026-05-04T12:04:29.818Z</time></trkpt><trkpt lat="41.5613527" lon="0.5150296"><ele>130.0</ele><time>2026-05-04T12:04:30.818Z</time></trkpt><trkpt lat="41.5614417" lon="0.5151369"><ele>130.0</ele><time>2026-05-04T12:04:31.818Z</time></trkpt><trkpt lat="41.5615297" lon="0.5152463"><ele>130.0</ele><time>2026-05-04T12:04:32.818Z</time></trkpt><trkpt lat="41.5616219" lon="0.5153595"><ele>129.5</ele><time>2026-05-04T12:04:33.817Z</time></trkpt><trkpt lat="41.561714" lon="0.5154685"><ele>129.0</ele><time>2026-05-04T12:04:34.818Z</time></trkpt><trkpt lat="41.5618046" lon="0.5155751"><ele>128.5</ele><time>2026-05-04T12:04:35.818Z</time></trkpt><trkpt lat="41.5618897" lon="0.5156751"><ele>128.0</ele><time>2026-05-04T12:04:36.818Z</time></trkpt><trkpt lat="41.5619735" lon="0.515771"><ele>128.5</ele><time>2026-05-04T12:04:37.818Z</time></trkpt><trkpt lat="41.562059" lon="0.5158693"><ele>129.0</ele><time>2026-05-04T12:04:38.818Z</time></trkpt><trkpt lat="41.5621455" lon="0.5159704"><ele>129.5</ele><time>2026-05-04T12:04:39.818Z</time></trkpt><trkpt lat="41.5622267" lon="0.5160745"><ele>130.0</ele><time>2026-05-04T12:04:40.818Z</time></trkpt><trkpt lat="41.5623058" lon="0.5161883"><ele>129.5</ele><time>2026-05-04T12:04:41.818Z</time></trkpt><trkpt lat="41.5623843" lon="0.5163096"><ele>129.0</ele><time>2026-05-04T12:04:42.818Z</time></trkpt><trkpt lat="41.5624614" lon="0.5164353"><ele>128.5</ele><time>2026-05-04T12:04:43.818Z</time></trkpt><trkpt lat="41.5625391" lon="0.5165717"><ele>128.0</ele><time>2026-05-04T12:04:44.818Z</time></trkpt><trkpt lat="41.5626072" lon="0.5167127"><ele>128.0</ele><time>2026-05-04T12:04:45.817Z</time></trkpt><trkpt lat="41.5626652" lon="0.5168586"><ele>128.0</ele><time>2026-05-04T12:04:46.818Z</time></trkpt><trkpt lat="41.5627167" lon="0.5170109"><ele>128.0</ele><time>2026-05-04T12:04:47.818Z</time></trkpt><trkpt lat="41.5627602" lon="0.5171698"><ele>128.0</ele><time>2026-05-04T12:04:48.818Z</time></trkpt><trkpt lat="41.5627996" lon="0.5173344"><ele>128.0</ele><time>2026-05-04T12:04:49.817Z</time></trkpt><trkpt lat="41.5628255" lon="0.5175036"><ele>128.0</ele><time>2026-05-04T12:04:50.818Z</time></trkpt><trkpt lat="41.5628409" lon="0.5176757"><ele>128.0</ele><time>2026-05-04T12:04:51.818Z</time></trkpt><trkpt lat="41.5628532" lon="0.5178445"><ele>128.0</ele><time>2026-05-04T12:04:52.818Z</time></trkpt><trkpt lat="41.562855" lon="0.5180144"><ele>128.0</ele><time>2026-05-04T12:04:53.817Z</time></trkpt><trkpt lat="41.5628503" lon="0.5181902"><ele>128.0</ele><time>2026-05-04T12:04:54.818Z</time></trkpt><trkpt lat="41.5628378" lon="0.5183603"><ele>128.0</ele><time>2026-05-04T12:04:55.817Z</time></trkpt><trkpt lat="41.562818" lon="0.518526"><ele>128.0</ele><time>2026-05-04T12:04:56.818Z</time></trkpt><trkpt lat="41.5628035" lon="0.518687"><ele>128.5</ele><time>2026-05-04T12:04:57.818Z</time></trkpt><trkpt lat="41.5627916" lon="0.51884"><ele>129.0</ele><time>2026-05-04T12:04:58.818Z</time></trkpt><trkpt lat="41.5627754" lon="0.5189953"><ele>129.5</ele><time>2026-05-04T12:04:59.818Z</time></trkpt><trkpt lat="41.5627586" lon="0.519152"><ele>130.0</ele><time>2026-05-04T12:05:00.817Z</time></trkpt><trkpt lat="41.5627424" lon="0.5193104"><ele>130.0</ele><time>2026-05-04T12:05:01.818Z</time></trkpt><trkpt lat="41.562725" lon="0.5194725"><ele>130.0</ele><time>2026-05-04T12:05:02.818Z</time></trkpt><trkpt lat="41.5627059" lon="0.5196299"><ele>130.0</ele><time>2026-05-04T12:05:03.818Z</time></trkpt><trkpt lat="41.5626809" lon="0.5197819"><ele>130.0</ele><time>2026-05-04T12:05:04.818Z</time></trkpt><trkpt lat="41.5626513" lon="0.519935"><ele>130.2</ele><time>2026-05-04T12:05:05.817Z</time></trkpt><trkpt lat="41.5626155" lon="0.5200794"><ele>130.4</ele><time>2026-05-04T12:05:06.818Z</time></trkpt><trkpt lat="41.5625713" lon="0.5202087"><ele>130.6</ele><time>2026-05-04T12:05:07.818Z</time></trkpt><trkpt lat="41.5625206" lon="0.5203337"><ele>130.8</ele><time>2026-05-04T12:05:08.818Z</time></trkpt><trkpt lat="41.5624646" lon="0.5204625"><ele>131.0</ele><time>2026-05-04T12:05:09.818Z</time></trkpt><trkpt lat="41.5624066" lon="0.5205888"><ele>131.25</ele><time>2026-05-04T12:05:10.818Z</time></trkpt><trkpt lat="41.5623482" lon="0.5207183"><ele>131.5</ele><time>2026-05-04T12:05:11.818Z</time></trkpt><trkpt lat="41.5622878" lon="0.5208474"><ele>131.75</ele><time>2026-05-04T12:05:12.817Z</time></trkpt><trkpt lat="41.5622277" lon="0.5209804"><ele>132.0</ele><time>2026-05-04T12:05:13.818Z</time></trkpt><trkpt lat="41.5621657" lon="0.5211138"><ele>132.0</ele><time>2026-05-04T12:05:14.818Z</time></trkpt><trkpt lat="41.5621014" lon="0.5212437"><ele>132.0</ele><time>2026-05-04T12:05:15.817Z</time></trkpt><trkpt lat="41.5620345" lon="0.5213743"><ele>132.0</ele><time>2026-05-04T12:05:16.818Z</time></trkpt><trkpt lat="41.5619721" lon="0.5215075"><ele>132.0</ele><time>2026-05-04T12:05:17.818Z</time></trkpt><trkpt lat="41.5619074" lon="0.521638"><ele>132.0</ele><time>2026-05-04T12:05:18.818Z</time></trkpt><trkpt lat="41.5618388" lon="0.5217707"><ele>132.0</ele><time>2026-05-04T12:05:19.818Z</time></trkpt><trkpt lat="41.5617722" lon="0.5219016"><ele>132.0</ele><time>2026-05-04T12:05:20.818Z</time></trkpt><trkpt lat="41.5617079" lon="0.5220359"><ele>132.0</ele><time>2026-05-04T12:05:21.818Z</time></trkpt><trkpt lat="41.5616416" lon="0.5221678"><ele>132.0</ele><time>2026-05-04T12:05:22.818Z</time></trkpt><trkpt lat="41.5615738" lon="0.5222963"><ele>132.0</ele><time>2026-05-04T12:05:23.818Z</time></trkpt><trkpt lat="41.5615085" lon="0.5224237"><ele>132.0</ele><time>2026-05-04T12:05:24.818Z</time></trkpt><trkpt lat="41.5614458" lon="0.5225473"><ele>132.0</ele><time>2026-05-04T12:05:25.818Z</time></trkpt><trkpt lat="41.5613829" lon="0.5226784"><ele>132.0</ele><time>2026-05-04T12:05:26.818Z</time></trkpt><trkpt lat="41.5613161" lon="0.5227993"><ele>132.0</ele><time>2026-05-04T12:05:27.818Z</time></trkpt><trkpt lat="41.5612515" lon="0.5229231"><ele>132.0</ele><time>2026-05-04T12:05:28.818Z</time></trkpt><trkpt lat="41.5611927" lon="0.5230536"><ele>132.0</ele><time>2026-05-04T12:05:29.818Z</time></trkpt><trkpt lat="41.5611316" lon="0.5231816"><ele>131.5</ele><time>2026-05-04T12:05:30.818Z</time></trkpt><trkpt lat="41.5610707" lon="0.5233168"><ele>131.0</ele><time>2026-05-04T12:05:31.817Z</time></trkpt><trkpt lat="41.5610176" lon="0.5234586"><ele>130.5</ele><time>2026-05-04T12:05:32.818Z</time></trkpt><trkpt lat="41.5609802" lon="0.5236074"><ele>130.0</ele><time>2026-05-04T12:05:33.818Z</time></trkpt><trkpt lat="41.5609493" lon="0.523768"><ele>129.8</ele><time>2026-05-04T12:05:34.817Z</time></trkpt><trkpt lat="41.5609378" lon="0.5239232"><ele>129.6</ele><time>2026-05-04T12:05:35.818Z</time></trkpt><trkpt lat="41.5609295" lon="0.5240735"><ele>129.4</ele><time>2026-05-04T12:05:36.818Z</time></trkpt><trkpt lat="41.5609317" lon="0.5242111"><ele>129.2</ele><time>2026-05-04T12:05:37.818Z</time></trkpt><trkpt lat="41.5609392" lon="0.5243561"><ele>129.0</ele><time>2026-05-04T12:05:38.818Z</time></trkpt><trkpt lat="41.5609533" lon="0.5244947"><ele>128.5</ele><time>2026-05-04T12:05:39.818Z</time></trkpt><trkpt lat="41.5609766" lon="0.5246371"><ele>128.0</ele><time>2026-05-04T12:05:40.818Z</time></trkpt><trkpt lat="41.5609976" lon="0.5247902"><ele>127.5</ele><time>2026-05-04T12:05:41.817Z</time></trkpt><trkpt lat="41.5610279" lon="0.5249522"><ele>127.0</ele><time>2026-05-04T12:05:42.817Z</time></trkpt><trkpt lat="41.5610682" lon="0.5250961"><ele>127.0</ele><time>2026-05-04T12:05:43.818Z</time></trkpt><trkpt lat="41.561125" lon="0.5252397"><ele>127.0</ele><time>2026-05-04T12:05:44.817Z</time></trkpt><trkpt lat="41.561193" lon="0.525385"><ele>127.0</ele><time>2026-05-04T12:05:45.818Z</time></trkpt><trkpt lat="41.5612687" lon="0.5255271"><ele>127.0</ele><time>2026-05-04T12:05:46.818Z</time></trkpt><trkpt lat="41.5613526" lon="0.5256633"><ele>127.0</ele><time>2026-05-04T12:05:47.818Z</time></trkpt><trkpt lat="41.5614417" lon="0.5257941"><ele>127.0</ele><time>2026-05-04T12:05:48.818Z</time></trkpt><trkpt lat="41.5615378" lon="0.525924"><ele>127.0</ele><time>2026-05-04T12:05:49.818Z</time></trkpt><trkpt lat="41.561634" lon="0.5260513"><ele>127.0</ele><time>2026-05-04T12:05:50.818Z</time></trkpt><trkpt lat="41.5617346" lon="0.5261823"><ele>127.0</ele><time>2026-05-04T12:05:51.818Z</time></trkpt><trkpt lat="41.5618279" lon="0.5263051"><ele>127.0</ele><time>2026-05-04T12:05:52.818Z</time></trkpt><trkpt lat="41.5619209" lon="0.5264263"><ele>127.0</ele><time>2026-05-04T12:05:53.818Z</time></trkpt><trkpt lat="41.5620146" lon="0.526541"><ele>127.0</ele><time>2026-05-04T12:05:54.818Z</time></trkpt><trkpt lat="41.5621032" lon="0.5266514"><ele>127.25</ele><time>2026-05-04T12:05:55.818Z</time></trkpt><trkpt lat="41.5621899" lon="0.5267612"><ele>127.5</ele><time>2026-05-04T12:05:56.818Z</time></trkpt><trkpt lat="41.5622749" lon="0.5268681"><ele>127.75</ele><time>2026-05-04T12:05:57.818Z</time></trkpt><trkpt lat="41.5623617" lon="0.5269817"><ele>128.0</ele><time>2026-05-04T12:05:58.818Z</time></trkpt><trkpt lat="41.5624516" lon="0.5270987"><ele>128.0</ele><time>2026-05-04T12:05:59.818Z</time></trkpt><trkpt lat="41.562544" lon="0.5272152"><ele>128.0</ele><time>2026-05-04T12:06:00.817Z</time></trkpt><trkpt lat="41.5626334" lon="0.5273334"><ele>128.0</ele><time>2026-05-04T12:06:01.818Z</time></trkpt><trkpt lat="41.5627248" lon="0.5274515"><ele>128.0</ele><time>2026-05-04T12:06:02.818Z</time></trkpt><trkpt lat="41.5628161" lon="0.527569"><ele>128.75</ele><time>2026-05-04T12:06:03.818Z</time></trkpt><trkpt lat="41.5629116" lon="0.5276909"><ele>129.5</ele><time>2026-05-04T12:06:04.818Z</time></trkpt><trkpt lat="41.5630032" lon="0.5278141"><ele>130.25</ele><time>2026-05-04T12:06:05.818Z</time></trkpt><trkpt lat="41.563096" lon="0.5279419"><ele>131.0</ele><time>2026-05-04T12:06:06.818Z</time></trkpt><trkpt lat="41.5631939" lon="0.5280655"><ele>131.0</ele><time>2026-05-04T12:06:07.818Z</time></trkpt><trkpt lat="41.5632909" lon="0.5281889"><ele>131.0</ele><time>2026-05-04T12:06:08.818Z</time></trkpt><trkpt lat="41.5633867" lon="0.5283089"><ele>131.0</ele><time>2026-05-04T12:06:09.818Z</time></trkpt><trkpt lat="41.5634789" lon="0.5284271"><ele>131.0</ele><time>2026-05-04T12:06:10.817Z</time></trkpt><trkpt lat="41.5635743" lon="0.5285442"><ele>131.0</ele><time>2026-05-04T12:06:11.818Z</time></trkpt><trkpt lat="41.5636692" lon="0.5286557"><ele>131.0</ele><time>2026-05-04T12:06:12.818Z</time></trkpt><trkpt lat="41.5637694" lon="0.5287593"><ele>131.0</ele><time>2026-05-04T12:06:13.818Z</time></trkpt><trkpt lat="41.5638761" lon="0.5288569"><ele>131.0</ele><time>2026-05-04T12:06:14.818Z</time></trkpt><trkpt lat="41.5639847" lon="0.5289403"><ele>130.75</ele><time>2026-05-04T12:06:15.817Z</time></trkpt><trkpt lat="41.5640967" lon="0.52902"><ele>130.5</ele><time>2026-05-04T12:06:16.818Z</time></trkpt><trkpt lat="41.5642097" lon="0.5290922"><ele>130.25</ele><time>2026-05-04T12:06:17.818Z</time></trkpt><trkpt lat="41.5643243" lon="0.5291587"><ele>130.0</ele><time>2026-05-04T12:06:18.818Z</time></trkpt><trkpt lat="41.5644391" lon="0.5292246"><ele>131.5</ele><time>2026-05-04T12:06:19.818Z</time></trkpt><trkpt lat="41.564555" lon="0.529293"><ele>133.0</ele><time>2026-05-04T12:06:20.818Z</time></trkpt><trkpt lat="41.5646722" lon="0.5293645"><ele>134.5</ele><time>2026-05-04T12:06:21.818Z</time></trkpt><trkpt lat="41.564788" lon="0.5294322"><ele>136.0</ele><time>2026-05-04T12:06:22.817Z</time></trkpt><trkpt lat="41.5649011" lon="0.5295037"><ele>136.0</ele><time>2026-05-04T12:06:23.818Z</time></trkpt><trkpt lat="41.5650213" lon="0.5295795"><ele>136.0</ele><time>2026-05-04T12:06:24.818Z</time></trkpt><trkpt lat="41.5651423" lon="0.5296511"><ele>136.0</ele><time>2026-05-04T12:06:25.818Z</time></trkpt><trkpt lat="41.565257" lon="0.5297204"><ele>136.0</ele><time>2026-05-04T12:06:26.818Z</time></trkpt><trkpt lat="41.5653653" lon="0.5297862"><ele>136.0</ele><time>2026-05-04T12:06:27.819Z</time></trkpt><trkpt lat="41.5654702" lon="0.529851"><ele>136.0</ele><time>2026-05-04T12:06:28.819Z</time></trkpt><trkpt lat="41.5655689" lon="0.529913"><ele>136.0</ele><time>2026-05-04T12:06:29.818Z</time></trkpt><trkpt lat="41.5656664" lon="0.5299664"><ele>136.0</ele><time>2026-05-04T12:06:30.819Z</time></trkpt><trkpt lat="41.5657526" lon="0.5300233"><ele>136.0</ele><time>2026-05-04T12:06:31.819Z</time></trkpt><trkpt lat="41.5658235" lon="0.5300751"><ele>136.0</ele><time>2026-05-04T12:06:32.819Z</time></trkpt><trkpt lat="41.5658805" lon="0.530113"><ele>136.0</ele><time>2026-05-04T12:06:33.819Z</time></trkpt><trkpt lat="41.5659644" lon="0.5301759"><ele>136.0</ele><time>2026-05-04T12:06:35.818Z</time></trkpt><trkpt lat="41.5660488" lon="0.5302716"><ele>136.0</ele><time>2026-05-04T12:06:37.819Z</time></trkpt><trkpt lat="41.5660854" lon="0.5303445"><ele>136.0</ele><time>2026-05-04T12:06:38.819Z</time></trkpt><trkpt lat="41.5661332" lon="0.5304162"><ele>136.0</ele><time>2026-05-04T12:06:39.818Z</time></trkpt><trkpt lat="41.5661854" lon="0.5304908"><ele>136.16666666666669</ele><time>2026-05-04T12:06:40.819Z</time></trkpt><trkpt lat="41.5662449" lon="0.5305642"><ele>136.33333333333334</ele><time>2026-05-04T12:06:41.819Z</time></trkpt><trkpt lat="41.566307" lon="0.5306344"><ele>136.5</ele><time>2026-05-04T12:06:42.818Z</time></trkpt><trkpt lat="41.5663677" lon="0.530715"><ele>136.66666666666666</ele><time>2026-05-04T12:06:43.819Z</time></trkpt><trkpt lat="41.5664288" lon="0.5308059"><ele>136.83333333333331</ele><time>2026-05-04T12:06:44.819Z</time></trkpt><trkpt lat="41.5664879" lon="0.530906"><ele>137.0</ele><time>2026-05-04T12:06:45.819Z</time></trkpt><trkpt lat="41.5665464" lon="0.5310118"><ele>137.0</ele><time>2026-05-04T12:06:46.819Z</time></trkpt><trkpt lat="41.5666047" lon="0.5311285"><ele>137.0</ele><time>2026-05-04T12:06:47.819Z</time></trkpt><trkpt lat="41.5666637" lon="0.5312487"><ele>137.0</ele><time>2026-05-04T12:06:48.819Z</time></trkpt><trkpt lat="41.5667256" lon="0.5313772"><ele>137.0</ele><time>2026-05-04T12:06:49.818Z</time></trkpt><trkpt lat="41.5667894" lon="0.5315066"><ele>137.0</ele><time>2026-05-04T12:06:50.819Z</time></trkpt><trkpt lat="41.5668549" lon="0.5316355"><ele>137.25</ele><time>2026-05-04T12:06:51.819Z</time></trkpt><trkpt lat="41.5669215" lon="0.5317654"><ele>137.5</ele><time>2026-05-04T12:06:52.819Z</time></trkpt><trkpt lat="41.5669896" lon="0.5318973"><ele>137.75</ele><time>2026-05-04T12:06:53.819Z</time></trkpt><trkpt lat="41.5670631" lon="0.5320354"><ele>138.0</ele><time>2026-05-04T12:06:54.819Z</time></trkpt><trkpt lat="41.5671377" lon="0.5321744"><ele>138.0</ele><time>2026-05-04T12:06:55.819Z</time></trkpt><trkpt lat="41.5672078" lon="0.5323139"><ele>138.0</ele><time>2026-05-04T12:06:56.818Z</time></trkpt><trkpt lat="41.5672795" lon="0.5324572"><ele>138.0</ele><time>2026-05-04T12:06:57.819Z</time></trkpt><trkpt lat="41.5673519" lon="0.5326021"><ele>138.0</ele><time>2026-05-04T12:06:58.818Z</time></trkpt><trkpt lat="41.5674249" lon="0.5327533"><ele>137.25</ele><time>2026-05-04T12:06:59.819Z</time></trkpt><trkpt lat="41.5675" lon="0.5328994"><ele>136.5</ele><time>2026-05-04T12:07:00.819Z</time></trkpt><trkpt lat="41.5675761" lon="0.5330459"><ele>135.75</ele><time>2026-05-04T12:07:01.819Z</time></trkpt><trkpt lat="41.5676459" lon="0.5331953"><ele>135.0</ele><time>2026-05-04T12:07:02.819Z</time></trkpt><trkpt lat="41.5677163" lon="0.5333459"><ele>135.0</ele><time>2026-05-04T12:07:03.818Z</time></trkpt><trkpt lat="41.5677856" lon="0.5334982"><ele>135.0</ele><time>2026-05-04T12:07:04.819Z</time></trkpt><trkpt lat="41.5678544" lon="0.5336539"><ele>135.0</ele><time>2026-05-04T12:07:05.819Z</time></trkpt><trkpt lat="41.5679205" lon="0.5338139"><ele>135.0</ele><time>2026-05-04T12:07:06.819Z</time></trkpt><trkpt lat="41.5679865" lon="0.5339679"><ele>134.75</ele><time>2026-05-04T12:07:07.818Z</time></trkpt><trkpt lat="41.568052" lon="0.5341281"><ele>134.5</ele><time>2026-05-04T12:07:08.818Z</time></trkpt><trkpt lat="41.5681199" lon="0.5342875"><ele>134.25</ele><time>2026-05-04T12:07:09.819Z</time></trkpt><trkpt lat="41.5681862" lon="0.5344519"><ele>134.0</ele><time>2026-05-04T12:07:10.819Z</time></trkpt><trkpt lat="41.5682505" lon="0.5346122"><ele>133.5</ele><time>2026-05-04T12:07:11.819Z</time></trkpt><trkpt lat="41.5683172" lon="0.5347694"><ele>133.0</ele><time>2026-05-04T12:07:12.819Z</time></trkpt><trkpt lat="41.5683817" lon="0.5349228"><ele>132.5</ele><time>2026-05-04T12:07:13.819Z</time></trkpt><trkpt lat="41.5684444" lon="0.5350714"><ele>132.0</ele><time>2026-05-04T12:07:14.819Z</time></trkpt><trkpt lat="41.5685091" lon="0.5352289"><ele>132.0</ele><time>2026-05-04T12:07:15.818Z</time></trkpt><trkpt lat="41.5685715" lon="0.5353898"><ele>132.0</ele><time>2026-05-04T12:07:16.819Z</time></trkpt><trkpt lat="41.5686327" lon="0.5355444"><ele>132.0</ele><time>2026-05-04T12:07:17.819Z</time></trkpt><trkpt lat="41.5687012" lon="0.535701"><ele>132.0</ele><time>2026-05-04T12:07:18.818Z</time></trkpt><trkpt lat="41.5687673" lon="0.5358473"><ele>132.0</ele><time>2026-05-04T12:07:19.819Z</time></trkpt><trkpt lat="41.5688303" lon="0.5359977"><ele>132.0</ele><time>2026-05-04T12:07:20.819Z</time></trkpt><trkpt lat="41.5688909" lon="0.5361532"><ele>132.0</ele><time>2026-05-04T12:07:21.819Z</time></trkpt><trkpt lat="41.5689503" lon="0.5363049"><ele>132.0</ele><time>2026-05-04T12:07:22.819Z</time></trkpt><trkpt lat="41.5690096" lon="0.5364561"><ele>132.25</ele><time>2026-05-04T12:07:23.818Z</time></trkpt><trkpt lat="41.569074" lon="0.5366015"><ele>132.5</ele><time>2026-05-04T12:07:24.819Z</time></trkpt><trkpt lat="41.5691391" lon="0.5367441"><ele>132.75</ele><time>2026-05-04T12:07:25.819Z</time></trkpt><trkpt lat="41.5692066" lon="0.5368939"><ele>133.0</ele><time>2026-05-04T12:07:26.819Z</time></trkpt><trkpt lat="41.5692751" lon="0.5370336"><ele>133.5</ele><time>2026-05-04T12:07:27.818Z</time></trkpt><trkpt lat="41.5693489" lon="0.5371709"><ele>134.0</ele><time>2026-05-04T12:07:28.818Z</time></trkpt><trkpt lat="41.5694275" lon="0.5373139"><ele>134.5</ele><time>2026-05-04T12:07:29.818Z</time></trkpt><trkpt lat="41.5695078" lon="0.5374626"><ele>135.0</ele><time>2026-05-04T12:07:30.817Z</time></trkpt><trkpt lat="41.5695843" lon="0.5376142"><ele>135.25</ele><time>2026-05-04T12:07:31.818Z</time></trkpt><trkpt lat="41.5696619" lon="0.5377687"><ele>135.5</ele><time>2026-05-04T12:07:32.818Z</time></trkpt><trkpt lat="41.5697422" lon="0.5379245"><ele>135.75</ele><time>2026-05-04T12:07:33.818Z</time></trkpt><trkpt lat="41.569819" lon="0.5380798"><ele>136.0</ele><time>2026-05-04T12:07:34.818Z</time></trkpt><trkpt lat="41.5698961" lon="0.5382348"><ele>136.0</ele><time>2026-05-04T12:07:35.818Z</time></trkpt><trkpt lat="41.5699685" lon="0.5383828"><ele>136.0</ele><time>2026-05-04T12:07:36.818Z</time></trkpt><trkpt lat="41.570042" lon="0.5385319"><ele>136.0</ele><time>2026-05-04T12:07:37.818Z</time></trkpt><trkpt lat="41.5701167" lon="0.538677"><ele>136.0</ele><time>2026-05-04T12:07:38.818Z</time></trkpt><trkpt lat="41.5701912" lon="0.5388239"><ele>136.0</ele><time>2026-05-04T12:07:39.818Z</time></trkpt><trkpt lat="41.5702701" lon="0.5389698"><ele>136.0</ele><time>2026-05-04T12:07:40.818Z</time></trkpt><trkpt lat="41.5703467" lon="0.5391166"><ele>136.0</ele><time>2026-05-04T12:07:41.818Z</time></trkpt><trkpt lat="41.5704229" lon="0.5392631"><ele>136.0</ele><time>2026-05-04T12:07:42.818Z</time></trkpt><trkpt lat="41.570495" lon="0.5394058"><ele>136.25</ele><time>2026-05-04T12:07:43.818Z</time></trkpt><trkpt lat="41.5705691" lon="0.5395503"><ele>136.5</ele><time>2026-05-04T12:07:44.817Z</time></trkpt><trkpt lat="41.5706434" lon="0.5396995"><ele>136.75</ele><time>2026-05-04T12:07:45.818Z</time></trkpt><trkpt lat="41.5707139" lon="0.5398487"><ele>137.0</ele><time>2026-05-04T12:07:46.817Z</time></trkpt><trkpt lat="41.5707819" lon="0.5400012"><ele>137.0</ele><time>2026-05-04T12:07:47.818Z</time></trkpt><trkpt lat="41.5708506" lon="0.5401573"><ele>137.0</ele><time>2026-05-04T12:07:48.818Z</time></trkpt><trkpt lat="41.5709196" lon="0.5403192"><ele>137.0</ele><time>2026-05-04T12:07:49.818Z</time></trkpt><trkpt lat="41.5709888" lon="0.5404804"><ele>137.0</ele><time>2026-05-04T12:07:50.818Z</time></trkpt><trkpt lat="41.5710561" lon="0.5406469"><ele>137.0</ele><time>2026-05-04T12:07:51.817Z</time></trkpt><trkpt lat="41.5711279" lon="0.5408115"><ele>137.0</ele><time>2026-05-04T12:07:52.818Z</time></trkpt><trkpt lat="41.5711958" lon="0.5409786"><ele>137.0</ele><time>2026-05-04T12:07:53.819Z</time></trkpt><trkpt lat="41.5712678" lon="0.5411466"><ele>137.0</ele><time>2026-05-04T12:07:54.818Z</time></trkpt><trkpt lat="41.5713377" lon="0.5413135"><ele>138.0</ele><time>2026-05-04T12:07:55.819Z</time></trkpt><trkpt lat="41.5714068" lon="0.5414818"><ele>139.0</ele><time>2026-05-04T12:07:56.819Z</time></trkpt><trkpt lat="41.5714813" lon="0.5416487"><ele>140.0</ele><time>2026-05-04T12:07:57.819Z</time></trkpt><trkpt lat="41.5715549" lon="0.5418142"><ele>141.0</ele><time>2026-05-04T12:07:58.819Z</time></trkpt><trkpt lat="41.5716262" lon="0.5419818"><ele>140.75</ele><time>2026-05-04T12:07:59.818Z</time></trkpt><trkpt lat="41.5716966" lon="0.5421498"><ele>140.5</ele><time>2026-05-04T12:08:00.818Z</time></trkpt><trkpt lat="41.5717679" lon="0.5423193"><ele>140.25</ele><time>2026-05-04T12:08:01.818Z</time></trkpt><trkpt lat="41.5718376" lon="0.5424857"><ele>140.0</ele><time>2026-05-04T12:08:02.819Z</time></trkpt><trkpt lat="41.5719042" lon="0.5426538"><ele>140.0</ele><time>2026-05-04T12:08:03.819Z</time></trkpt><trkpt lat="41.5719712" lon="0.5428234"><ele>140.0</ele><time>2026-05-04T12:08:04.819Z</time></trkpt><trkpt lat="41.5720403" lon="0.5429944"><ele>140.0</ele><time>2026-05-04T12:08:05.819Z</time></trkpt><trkpt lat="41.5721082" lon="0.5431694"><ele>140.0</ele><time>2026-05-04T12:08:06.819Z</time></trkpt><trkpt lat="41.5721741" lon="0.5433454"><ele>140.0</ele><time>2026-05-04T12:08:07.819Z</time></trkpt><trkpt lat="41.5722327" lon="0.5435248"><ele>140.0</ele><time>2026-05-04T12:08:08.819Z</time></trkpt><trkpt lat="41.5722823" lon="0.5437128"><ele>140.0</ele><time>2026-05-04T12:08:09.819Z</time></trkpt><trkpt lat="41.5723274" lon="0.543903"><ele>140.0</ele><time>2026-05-04T12:08:10.819Z</time></trkpt><trkpt lat="41.5723705" lon="0.5440941"><ele>139.33333333333331</ele><time>2026-05-04T12:08:11.819Z</time></trkpt><trkpt lat="41.5724118" lon="0.544287"><ele>138.66666666666666</ele><time>2026-05-04T12:08:12.819Z</time></trkpt><trkpt lat="41.5724548" lon="0.5444791"><ele>138.0</ele><time>2026-05-04T12:08:13.819Z</time></trkpt><trkpt lat="41.5724966" lon="0.5446738"><ele>136.66666666666666</ele><time>2026-05-04T12:08:14.819Z</time></trkpt><trkpt lat="41.5725382" lon="0.5448678"><ele>135.33333333333331</ele><time>2026-05-04T12:08:15.819Z</time></trkpt><trkpt lat="41.5725795" lon="0.5450633"><ele>134.0</ele><time>2026-05-04T12:08:16.819Z</time></trkpt><trkpt lat="41.5726151" lon="0.5452588"><ele>133.75</ele><time>2026-05-04T12:08:17.819Z</time></trkpt><trkpt lat="41.5726531" lon="0.5454499"><ele>133.5</ele><time>2026-05-04T12:08:18.819Z</time></trkpt><trkpt lat="41.572697" lon="0.5456395"><ele>133.25</ele><time>2026-05-04T12:08:19.819Z</time></trkpt><trkpt lat="41.5727385" lon="0.5458315"><ele>133.0</ele><time>2026-05-04T12:08:20.819Z</time></trkpt><trkpt lat="41.5727825" lon="0.5460216"><ele>134.25</ele><time>2026-05-04T12:08:21.819Z</time></trkpt><trkpt lat="41.5728251" lon="0.5462121"><ele>135.5</ele><time>2026-05-04T12:08:22.819Z</time></trkpt><trkpt lat="41.5728604" lon="0.5464029"><ele>136.75</ele><time>2026-05-04T12:08:23.819Z</time></trkpt><trkpt lat="41.572899" lon="0.5465924"><ele>138.0</ele><time>2026-05-04T12:08:24.819Z</time></trkpt><trkpt lat="41.5729367" lon="0.5467826"><ele>138.0</ele><time>2026-05-04T12:08:25.819Z</time></trkpt><trkpt lat="41.5729743" lon="0.5469751"><ele>138.0</ele><time>2026-05-04T12:08:26.818Z</time></trkpt><trkpt lat="41.573007" lon="0.5471687"><ele>138.0</ele><time>2026-05-04T12:08:27.819Z</time></trkpt><trkpt lat="41.573047" lon="0.5473626"><ele>138.0</ele><time>2026-05-04T12:08:28.819Z</time></trkpt><trkpt lat="41.5730958" lon="0.5475529"><ele>138.75</ele><time>2026-05-04T12:08:29.819Z</time></trkpt><trkpt lat="41.5731433" lon="0.5477392"><ele>139.5</ele><time>2026-05-04T12:08:30.819Z</time></trkpt><trkpt lat="41.573195" lon="0.5479225"><ele>140.25</ele><time>2026-05-04T12:08:31.818Z</time></trkpt><trkpt lat="41.5732564" lon="0.5481017"><ele>141.0</ele><time>2026-05-04T12:08:32.819Z</time></trkpt><trkpt lat="41.5733283" lon="0.548274"><ele>141.0</ele><time>2026-05-04T12:08:33.819Z</time></trkpt><trkpt lat="41.5734021" lon="0.5484407"><ele>141.0</ele><time>2026-05-04T12:08:34.819Z</time></trkpt><trkpt lat="41.5734727" lon="0.5486134"><ele>141.0</ele><time>2026-05-04T12:08:35.819Z</time></trkpt><trkpt lat="41.5735474" lon="0.5487842"><ele>141.0</ele><time>2026-05-04T12:08:36.819Z</time></trkpt><trkpt lat="41.5736232" lon="0.5489573"><ele>140.75</ele><time>2026-05-04T12:08:37.819Z</time></trkpt><trkpt lat="41.5736966" lon="0.54913"><ele>140.5</ele><time>2026-05-04T12:08:38.819Z</time></trkpt><trkpt lat="41.5737735" lon="0.5493012"><ele>140.25</ele><time>2026-05-04T12:08:39.819Z</time></trkpt><trkpt lat="41.5738483" lon="0.5494721"><ele>140.0</ele><time>2026-05-04T12:08:40.818Z</time></trkpt><trkpt lat="41.5739212" lon="0.5496449"><ele>140.0</ele><time>2026-05-04T12:08:41.819Z</time></trkpt><trkpt lat="41.5739956" lon="0.5498135"><ele>140.0</ele><time>2026-05-04T12:08:42.819Z</time></trkpt><trkpt lat="41.5740698" lon="0.5499859"><ele>140.0</ele><time>2026-05-04T12:08:43.818Z</time></trkpt><trkpt lat="41.5741435" lon="0.550157"><ele>140.0</ele><time>2026-05-04T12:08:44.818Z</time></trkpt><trkpt lat="41.5742154" lon="0.5503295"><ele>139.25</ele><time>2026-05-04T12:08:45.819Z</time></trkpt><trkpt lat="41.5742828" lon="0.5504915"><ele>138.5</ele><time>2026-05-04T12:08:46.819Z</time></trkpt><trkpt lat="41.5743457" lon="0.5506489"><ele>137.75</ele><time>2026-05-04T12:08:47.819Z</time></trkpt><trkpt lat="41.574405" lon="0.5507955"><ele>137.0</ele><time>2026-05-04T12:08:48.819Z</time></trkpt><trkpt lat="41.5744659" lon="0.5509429"><ele>137.0</ele><time>2026-05-04T12:08:49.819Z</time></trkpt><trkpt lat="41.5745211" lon="0.5510898"><ele>137.0</ele><time>2026-05-04T12:08:50.819Z</time></trkpt><trkpt lat="41.5745762" lon="0.551238"><ele>137.0</ele><time>2026-05-04T12:08:51.819Z</time></trkpt><trkpt lat="41.5746315" lon="0.5513836"><ele>137.0</ele><time>2026-05-04T12:08:52.819Z</time></trkpt><trkpt lat="41.5746838" lon="0.5515327"><ele>137.5</ele><time>2026-05-04T12:08:53.818Z</time></trkpt><trkpt lat="41.5747368" lon="0.5516826"><ele>138.0</ele><time>2026-05-04T12:08:54.819Z</time></trkpt><trkpt lat="41.5747924" lon="0.5518325"><ele>138.5</ele><time>2026-05-04T12:08:55.819Z</time></trkpt><trkpt lat="41.5748488" lon="0.5519834"><ele>139.0</ele><time>2026-05-04T12:08:56.818Z</time></trkpt><trkpt lat="41.5749061" lon="0.5521409"><ele>139.0</ele><time>2026-05-04T12:08:57.819Z</time></trkpt><trkpt lat="41.5749573" lon="0.5522911"><ele>139.0</ele><time>2026-05-04T12:08:58.819Z</time></trkpt><trkpt lat="41.5750124" lon="0.5524515"><ele>139.0</ele><time>2026-05-04T12:08:59.819Z</time></trkpt><trkpt lat="41.5750755" lon="0.5526148"><ele>139.0</ele><time>2026-05-04T12:09:00.819Z</time></trkpt><trkpt lat="41.5751423" lon="0.5527764"><ele>139.0</ele><time>2026-05-04T12:09:01.819Z</time></trkpt><trkpt lat="41.575216" lon="0.5529337"><ele>139.0</ele><time>2026-05-04T12:09:02.818Z</time></trkpt><trkpt lat="41.5752965" lon="0.5530834"><ele>139.0</ele><time>2026-05-04T12:09:03.819Z</time></trkpt><trkpt lat="41.5753832" lon="0.5532351"><ele>139.0</ele><time>2026-05-04T12:09:04.819Z</time></trkpt><trkpt lat="41.5754715" lon="0.5533872"><ele>139.5</ele><time>2026-05-04T12:09:05.819Z</time></trkpt><trkpt lat="41.5755671" lon="0.553542"><ele>140.0</ele><time>2026-05-04T12:09:06.818Z</time></trkpt><trkpt lat="41.5756549" lon="0.553698"><ele>140.5</ele><time>2026-05-04T12:09:07.819Z</time></trkpt><trkpt lat="41.5757402" lon="0.5538518"><ele>141.0</ele><time>2026-05-04T12:09:08.819Z</time></trkpt><trkpt lat="41.5758255" lon="0.5540065"><ele>141.0</ele><time>2026-05-04T12:09:09.819Z</time></trkpt><trkpt lat="41.5759138" lon="0.5541629"><ele>141.0</ele><time>2026-05-04T12:09:10.819Z</time></trkpt><trkpt lat="41.5760046" lon="0.5543131"><ele>141.0</ele><time>2026-05-04T12:09:11.819Z</time></trkpt><trkpt lat="41.5760945" lon="0.5544605"><ele>141.0</ele><time>2026-05-04T12:09:12.818Z</time></trkpt><trkpt lat="41.5761825" lon="0.5546091"><ele>142.0</ele><time>2026-05-04T12:09:13.819Z</time></trkpt><trkpt lat="41.5762696" lon="0.554754"><ele>143.0</ele><time>2026-05-04T12:09:14.818Z</time></trkpt><trkpt lat="41.5763537" lon="0.5548978"><ele>144.0</ele><time>2026-05-04T12:09:15.819Z</time></trkpt><trkpt lat="41.5764394" lon="0.5550463"><ele>145.0</ele><time>2026-05-04T12:09:16.818Z</time></trkpt><trkpt lat="41.5765204" lon="0.5551898"><ele>145.0</ele><time>2026-05-04T12:09:17.819Z</time></trkpt><trkpt lat="41.5766065" lon="0.5553384"><ele>145.0</ele><time>2026-05-04T12:09:18.819Z</time></trkpt><trkpt lat="41.5766932" lon="0.5554834"><ele>145.0</ele><time>2026-05-04T12:09:19.818Z</time></trkpt><trkpt lat="41.576777" lon="0.5556338"><ele>145.0</ele><time>2026-05-04T12:09:20.819Z</time></trkpt><trkpt lat="41.5768605" lon="0.5557815"><ele>144.75</ele><time>2026-05-04T12:09:21.819Z</time></trkpt><trkpt lat="41.576947" lon="0.5559316"><ele>144.5</ele><time>2026-05-04T12:09:22.819Z</time></trkpt><trkpt lat="41.5770324" lon="0.5560822"><ele>144.25</ele><time>2026-05-04T12:09:23.819Z</time></trkpt><trkpt lat="41.5771205" lon="0.5562311"><ele>144.0</ele><time>2026-05-04T12:09:24.819Z</time></trkpt><trkpt lat="41.5772059" lon="0.5563751"><ele>143.75</ele><time>2026-05-04T12:09:25.819Z</time></trkpt><trkpt lat="41.5772956" lon="0.5565281"><ele>143.5</ele><time>2026-05-04T12:09:26.819Z</time></trkpt><trkpt lat="41.5773847" lon="0.556682"><ele>143.25</ele><time>2026-05-04T12:09:27.819Z</time></trkpt><trkpt lat="41.5774769" lon="0.5568445"><ele>143.0</ele><time>2026-05-04T12:09:28.819Z</time></trkpt><trkpt lat="41.5775632" lon="0.5569968"><ele>143.0</ele><time>2026-05-04T12:09:29.819Z</time></trkpt><trkpt lat="41.5776523" lon="0.5571544"><ele>143.0</ele><time>2026-05-04T12:09:30.819Z</time></trkpt><trkpt lat="41.5777447" lon="0.5573112"><ele>143.0</ele><time>2026-05-04T12:09:31.819Z</time></trkpt><trkpt lat="41.577832" lon="0.5574623"><ele>143.0</ele><time>2026-05-04T12:09:32.819Z</time></trkpt><trkpt lat="41.5779276" lon="0.5576207"><ele>143.5</ele><time>2026-05-04T12:09:33.819Z</time></trkpt><trkpt lat="41.5780188" lon="0.5577778"><ele>144.0</ele><time>2026-05-04T12:09:34.819Z</time></trkpt><trkpt lat="41.5781098" lon="0.5579304"><ele>144.5</ele><time>2026-05-04T12:09:35.819Z</time></trkpt><trkpt lat="41.5782023" lon="0.5580924"><ele>145.0</ele><time>2026-05-04T12:09:36.819Z</time></trkpt><trkpt lat="41.578295" lon="0.5582496"><ele>145.25</ele><time>2026-05-04T12:09:37.819Z</time></trkpt><trkpt lat="41.5783886" lon="0.5584104"><ele>145.5</ele><time>2026-05-04T12:09:38.819Z</time></trkpt><trkpt lat="41.5784784" lon="0.5585674"><ele>145.75</ele><time>2026-05-04T12:09:39.819Z</time></trkpt><trkpt lat="41.5785658" lon="0.5587207"><ele>146.0</ele><time>2026-05-04T12:09:40.819Z</time></trkpt><trkpt lat="41.5786499" lon="0.5588707"><ele>146.5</ele><time>2026-05-04T12:09:41.818Z</time></trkpt><trkpt lat="41.5787387" lon="0.5590233"><ele>147.0</ele><time>2026-05-04T12:09:42.819Z</time></trkpt><trkpt lat="41.5788203" lon="0.5591676"><ele>147.5</ele><time>2026-05-04T12:09:43.819Z</time></trkpt><trkpt lat="41.5789062" lon="0.559315"><ele>148.0</ele><time>2026-05-04T12:09:44.819Z</time></trkpt><trkpt lat="41.5789935" lon="0.5594601"><ele>147.75</ele><time>2026-05-04T12:09:45.819Z</time></trkpt><trkpt lat="41.5790799" lon="0.5596079"><ele>147.5</ele><time>2026-05-04T12:09:46.819Z</time></trkpt><trkpt lat="41.579167" lon="0.5597532"><ele>147.25</ele><time>2026-05-04T12:09:47.819Z</time></trkpt><trkpt lat="41.5792515" lon="0.5599"><ele>147.0</ele><time>2026-05-04T12:09:48.819Z</time></trkpt><trkpt lat="41.5793357" lon="0.5600443"><ele>147.0</ele><time>2026-05-04T12:09:49.819Z</time></trkpt><trkpt lat="41.579421" lon="0.5601915"><ele>147.0</ele><time>2026-05-04T12:09:50.819Z</time></trkpt><trkpt lat="41.5795038" lon="0.5603375"><ele>147.0</ele><time>2026-05-04T12:09:51.819Z</time></trkpt><trkpt lat="41.5795863" lon="0.5604832"><ele>147.0</ele><time>2026-05-04T12:09:52.819Z</time></trkpt><trkpt lat="41.579669" lon="0.5606279"><ele>147.0</ele><time>2026-05-04T12:09:53.819Z</time></trkpt><trkpt lat="41.5797526" lon="0.5607736"><ele>147.0</ele><time>2026-05-04T12:09:54.819Z</time></trkpt><trkpt lat="41.5798374" lon="0.5609214"><ele>147.0</ele><time>2026-05-04T12:09:55.819Z</time></trkpt><trkpt lat="41.5799218" lon="0.5610676"><ele>147.0</ele><time>2026-05-04T12:09:56.82Z</time></trkpt><trkpt lat="41.5800043" lon="0.5612144"><ele>147.0</ele><time>2026-05-04T12:09:57.82Z</time></trkpt><trkpt lat="41.580088" lon="0.5613628"><ele>147.0</ele><time>2026-05-04T12:09:58.819Z</time></trkpt><trkpt lat="41.580173" lon="0.5615065"><ele>147.0</ele><time>2026-05-04T12:09:59.82Z</time></trkpt><trkpt lat="41.5802571" lon="0.561653"><ele>147.0</ele><time>2026-05-04T12:10:00.82Z</time></trkpt><trkpt lat="41.5803378" lon="0.5618022"><ele>147.25</ele><time>2026-05-04T12:10:01.82Z</time></trkpt><trkpt lat="41.5804208" lon="0.5619547"><ele>147.5</ele><time>2026-05-04T12:10:02.82Z</time></trkpt><trkpt lat="41.5805017" lon="0.5621016"><ele>147.75</ele><time>2026-05-04T12:10:03.82Z</time></trkpt><trkpt lat="41.5805871" lon="0.5622536"><ele>148.0</ele><time>2026-05-04T12:10:04.82Z</time></trkpt><trkpt lat="41.5806726" lon="0.5624085"><ele>148.0</ele><time>2026-05-04T12:10:05.82Z</time></trkpt><trkpt lat="41.5807598" lon="0.5625652"><ele>148.0</ele><time>2026-05-04T12:10:06.819Z</time></trkpt><trkpt lat="41.5808468" lon="0.5627163"><ele>148.0</ele><time>2026-05-04T12:10:07.82Z</time></trkpt><trkpt lat="41.5809351" lon="0.5628689"><ele>148.0</ele><time>2026-05-04T12:10:08.82Z</time></trkpt><trkpt lat="41.5810246" lon="0.5630249"><ele>147.75</ele><time>2026-05-04T12:10:09.82Z</time></trkpt><trkpt lat="41.581115" lon="0.563174"><ele>147.5</ele><time>2026-05-04T12:10:10.82Z</time></trkpt><trkpt lat="41.5812136" lon="0.5633247"><ele>147.25</ele><time>2026-05-04T12:10:11.82Z</time></trkpt><trkpt lat="41.5813108" lon="0.5634755"><ele>147.0</ele><time>2026-05-04T12:10:12.82Z</time></trkpt><trkpt lat="41.5814015" lon="0.5636403"><ele>145.75</ele><time>2026-05-04T12:10:13.82Z</time></trkpt><trkpt lat="41.581495" lon="0.5638044"><ele>144.5</ele><time>2026-05-04T12:10:14.82Z</time></trkpt><trkpt lat="41.5815912" lon="0.5639571"><ele>143.25</ele><time>2026-05-04T12:10:15.82Z</time></trkpt><trkpt lat="41.5816851" lon="0.5641038"><ele>142.0</ele><time>2026-05-04T12:10:16.819Z</time></trkpt><trkpt lat="41.5817774" lon="0.5642475"><ele>142.0</ele><time>2026-05-04T12:10:17.82Z</time></trkpt><trkpt lat="41.5818692" lon="0.5643887"><ele>142.0</ele><time>2026-05-04T12:10:18.82Z</time></trkpt><trkpt lat="41.5819577" lon="0.5645368"><ele>142.0</ele><time>2026-05-04T12:10:19.819Z</time></trkpt><trkpt lat="41.5820463" lon="0.5646752"><ele>142.0</ele><time>2026-05-04T12:10:20.82Z</time></trkpt><trkpt lat="41.5821352" lon="0.5648155"><ele>143.0</ele><time>2026-05-04T12:10:21.82Z</time></trkpt><trkpt lat="41.5822271" lon="0.5649578"><ele>144.0</ele><time>2026-05-04T12:10:22.82Z</time></trkpt><trkpt lat="41.5823147" lon="0.5650989"><ele>145.0</ele><time>2026-05-04T12:10:23.82Z</time></trkpt><trkpt lat="41.5824032" lon="0.5652381"><ele>146.0</ele><time>2026-05-04T12:10:24.819Z</time></trkpt><trkpt lat="41.5824904" lon="0.5653768"><ele>147.0</ele><time>2026-05-04T12:10:25.819Z</time></trkpt><trkpt lat="41.5825804" lon="0.5655165"><ele>148.0</ele><time>2026-05-04T12:10:26.819Z</time></trkpt><trkpt lat="41.5826684" lon="0.5656541"><ele>149.0</ele><time>2026-05-04T12:10:27.82Z</time></trkpt><trkpt lat="41.5827547" lon="0.5657899"><ele>150.0</ele><time>2026-05-04T12:10:28.82Z</time></trkpt><trkpt lat="41.5828399" lon="0.5659274"><ele>150.0</ele><time>2026-05-04T12:10:29.82Z</time></trkpt><trkpt lat="41.5829247" lon="0.5660671"><ele>150.0</ele><time>2026-05-04T12:10:30.82Z</time></trkpt><trkpt lat="41.5830142" lon="0.5662056"><ele>150.0</ele><time>2026-05-04T12:10:31.82Z</time></trkpt><trkpt lat="41.5830996" lon="0.5663449"><ele>150.0</ele><time>2026-05-04T12:10:32.82Z</time></trkpt><trkpt lat="41.5831877" lon="0.5664835"><ele>150.0</ele><time>2026-05-04T12:10:33.82Z</time></trkpt><trkpt lat="41.5832776" lon="0.5666205"><ele>150.0</ele><time>2026-05-04T12:10:34.819Z</time></trkpt><trkpt lat="41.5833677" lon="0.5667563"><ele>150.0</ele><time>2026-05-04T12:10:35.82Z</time></trkpt><trkpt lat="41.5834548" lon="0.5668938"><ele>150.0</ele><time>2026-05-04T12:10:36.82Z</time></trkpt><trkpt lat="41.5835429" lon="0.5670316"><ele>151.0</ele><time>2026-05-04T12:10:37.82Z</time></trkpt><trkpt lat="41.5836296" lon="0.5671698"><ele>152.0</ele><time>2026-05-04T12:10:38.82Z</time></trkpt><trkpt lat="41.5837162" lon="0.5673065"><ele>153.0</ele><time>2026-05-04T12:10:39.82Z</time></trkpt><trkpt lat="41.5838007" lon="0.5674416"><ele>154.0</ele><time>2026-05-04T12:10:40.82Z</time></trkpt><trkpt lat="41.5838896" lon="0.5675795"><ele>154.0</ele><time>2026-05-04T12:10:41.82Z</time></trkpt><trkpt lat="41.5839743" lon="0.5677212"><ele>154.0</ele><time>2026-05-04T12:10:42.819Z</time></trkpt><trkpt lat="41.584061" lon="0.5678653"><ele>154.0</ele><time>2026-05-04T12:10:43.82Z</time></trkpt><trkpt lat="41.5841475" lon="0.5680086"><ele>154.0</ele><time>2026-05-04T12:10:44.82Z</time></trkpt><trkpt lat="41.5842367" lon="0.5681487"><ele>154.25</ele><time>2026-05-04T12:10:45.82Z</time></trkpt><trkpt lat="41.5843269" lon="0.5682909"><ele>154.5</ele><time>2026-05-04T12:10:46.82Z</time></trkpt><trkpt lat="41.584419" lon="0.5684288"><ele>154.75</ele><time>2026-05-04T12:10:47.82Z</time></trkpt><trkpt lat="41.5845059" lon="0.5685718"><ele>155.0</ele><time>2026-05-04T12:10:48.82Z</time></trkpt><trkpt lat="41.5845959" lon="0.5687168"><ele>156.25</ele><time>2026-05-04T12:10:49.82Z</time></trkpt><trkpt lat="41.5846854" lon="0.5688576"><ele>157.5</ele><time>2026-05-04T12:10:50.82Z</time></trkpt><trkpt lat="41.5847785" lon="0.5689991"><ele>158.75</ele><time>2026-05-04T12:10:51.82Z</time></trkpt><trkpt lat="41.5848724" lon="0.5691462"><ele>160.0</ele><time>2026-05-04T12:10:52.82Z</time></trkpt><trkpt lat="41.5849637" lon="0.569296"><ele>160.0</ele><time>2026-05-04T12:10:53.82Z</time></trkpt><trkpt lat="41.5850508" lon="0.5694471"><ele>160.0</ele><time>2026-05-04T12:10:54.82Z</time></trkpt><trkpt lat="41.5851438" lon="0.5695911"><ele>160.0</ele><time>2026-05-04T12:10:55.819Z</time></trkpt><trkpt lat="41.5852349" lon="0.5697383"><ele>160.0</ele><time>2026-05-04T12:10:56.82Z</time></trkpt><trkpt lat="41.5853206" lon="0.5698838"><ele>160.0</ele><time>2026-05-04T12:10:57.82Z</time></trkpt><trkpt lat="41.5854071" lon="0.5700256"><ele>160.0</ele><time>2026-05-04T12:10:58.82Z</time></trkpt><trkpt lat="41.5854983" lon="0.5701729"><ele>160.0</ele><time>2026-05-04T12:10:59.82Z</time></trkpt><trkpt lat="41.5855915" lon="0.5703176"><ele>160.0</ele><time>2026-05-04T12:11:00.82Z</time></trkpt><trkpt lat="41.5856874" lon="0.5704651"><ele>159.75</ele><time>2026-05-04T12:11:01.82Z</time></trkpt><trkpt lat="41.585785" lon="0.570611"><ele>159.5</ele><time>2026-05-04T12:11:02.82Z</time></trkpt><trkpt lat="41.5858789" lon="0.5707575"><ele>159.25</ele><time>2026-05-04T12:11:03.82Z</time></trkpt><trkpt lat="41.585972" lon="0.5708986"><ele>159.0</ele><time>2026-05-04T12:11:04.82Z</time></trkpt><trkpt lat="41.5860645" lon="0.5710467"><ele>158.75</ele><time>2026-05-04T12:11:05.82Z</time></trkpt><trkpt lat="41.5861536" lon="0.5711967"><ele>158.5</ele><time>2026-05-04T12:11:06.82Z</time></trkpt><trkpt lat="41.5862465" lon="0.5713446"><ele>158.25</ele><time>2026-05-04T12:11:07.82Z</time></trkpt><trkpt lat="41.5863419" lon="0.571496"><ele>158.0</ele><time>2026-05-04T12:11:08.82Z</time></trkpt><trkpt lat="41.5864304" lon="0.5716532"><ele>158.5</ele><time>2026-05-04T12:11:09.82Z</time></trkpt><trkpt lat="41.5865183" lon="0.5718109"><ele>159.0</ele><time>2026-05-04T12:11:10.82Z</time></trkpt><trkpt lat="41.5865974" lon="0.5719739"><ele>159.5</ele><time>2026-05-04T12:11:11.82Z</time></trkpt><trkpt lat="41.5866719" lon="0.5721368"><ele>160.0</ele><time>2026-05-04T12:11:12.82Z</time></trkpt><trkpt lat="41.5867468" lon="0.5722988"><ele>160.25</ele><time>2026-05-04T12:11:13.82Z</time></trkpt><trkpt lat="41.5868234" lon="0.5724596"><ele>160.5</ele><time>2026-05-04T12:11:14.82Z</time></trkpt><trkpt lat="41.5869016" lon="0.5726203"><ele>160.75</ele><time>2026-05-04T12:11:15.82Z</time></trkpt><trkpt lat="41.5869804" lon="0.5727804"><ele>161.0</ele><time>2026-05-04T12:11:16.82Z</time></trkpt><trkpt lat="41.5870595" lon="0.5729369"><ele>162.5</ele><time>2026-05-04T12:11:17.82Z</time></trkpt><trkpt lat="41.5871409" lon="0.5730957"><ele>164.0</ele><time>2026-05-04T12:11:18.82Z</time></trkpt><trkpt lat="41.5872221" lon="0.5732522"><ele>165.5</ele><time>2026-05-04T12:11:19.82Z</time></trkpt><trkpt lat="41.5873041" lon="0.5734075"><ele>167.0</ele><time>2026-05-04T12:11:20.82Z</time></trkpt><trkpt lat="41.5873923" lon="0.5735584"><ele>165.75</ele><time>2026-05-04T12:11:21.82Z</time></trkpt><trkpt lat="41.58748" lon="0.5737084"><ele>164.5</ele><time>2026-05-04T12:11:22.82Z</time></trkpt><trkpt lat="41.5875685" lon="0.5738581"><ele>163.25</ele><time>2026-05-04T12:11:23.82Z</time></trkpt><trkpt lat="41.5876621" lon="0.5740013"><ele>162.0</ele><time>2026-05-04T12:11:24.82Z</time></trkpt><trkpt lat="41.5877574" lon="0.5741429"><ele>162.75</ele><time>2026-05-04T12:11:25.82Z</time></trkpt><trkpt lat="41.5878564" lon="0.5742816"><ele>163.5</ele><time>2026-05-04T12:11:26.82Z</time></trkpt><trkpt lat="41.5879615" lon="0.5744199"><ele>164.25</ele><time>2026-05-04T12:11:27.82Z</time></trkpt><trkpt lat="41.588069" lon="0.5745547"><ele>165.0</ele><time>2026-05-04T12:11:28.819Z</time></trkpt><trkpt lat="41.5881792" lon="0.5746945"><ele>165.0</ele><time>2026-05-04T12:11:29.82Z</time></trkpt><trkpt lat="41.588285" lon="0.5748215"><ele>165.0</ele><time>2026-05-04T12:11:30.819Z</time></trkpt><trkpt lat="41.5883952" lon="0.5749449"><ele>165.0</ele><time>2026-05-04T12:11:31.819Z</time></trkpt><trkpt lat="41.5885023" lon="0.5750706"><ele>165.0</ele><time>2026-05-04T12:11:32.82Z</time></trkpt><trkpt lat="41.5886079" lon="0.5751989"><ele>165.25</ele><time>2026-05-04T12:11:33.82Z</time></trkpt><trkpt lat="41.5887126" lon="0.5753251"><ele>165.5</ele><time>2026-05-04T12:11:34.819Z</time></trkpt><trkpt lat="41.5888194" lon="0.5754499"><ele>165.75</ele><time>2026-05-04T12:11:35.82Z</time></trkpt><trkpt lat="41.5889215" lon="0.5755755"><ele>166.0</ele><time>2026-05-04T12:11:36.82Z</time></trkpt><trkpt lat="41.5890226" lon="0.575708"><ele>166.0</ele><time>2026-05-04T12:11:37.82Z</time></trkpt><trkpt lat="41.5891211" lon="0.5758451"><ele>166.0</ele><time>2026-05-04T12:11:38.82Z</time></trkpt><trkpt lat="41.5892174" lon="0.5759867"><ele>166.0</ele><time>2026-05-04T12:11:39.82Z</time></trkpt><trkpt lat="41.5893073" lon="0.5761314"><ele>166.0</ele><time>2026-05-04T12:11:40.82Z</time></trkpt><trkpt lat="41.589395" lon="0.5762807"><ele>165.25</ele><time>2026-05-04T12:11:41.82Z</time></trkpt><trkpt lat="41.5894775" lon="0.5764325"><ele>164.5</ele><time>2026-05-04T12:11:42.82Z</time></trkpt><trkpt lat="41.5895578" lon="0.5765766"><ele>163.75</ele><time>2026-05-04T12:11:43.819Z</time></trkpt><trkpt lat="41.5896415" lon="0.5767315"><ele>163.0</ele><time>2026-05-04T12:11:44.82Z</time></trkpt><trkpt lat="41.5897237" lon="0.5768881"><ele>163.5</ele><time>2026-05-04T12:11:45.82Z</time></trkpt><trkpt lat="41.5898062" lon="0.5770389"><ele>164.0</ele><time>2026-05-04T12:11:46.82Z</time></trkpt><trkpt lat="41.5898902" lon="0.57719"><ele>164.5</ele><time>2026-05-04T12:11:47.82Z</time></trkpt><trkpt lat="41.5899713" lon="0.5773411"><ele>165.0</ele><time>2026-05-04T12:11:48.82Z</time></trkpt><trkpt lat="41.5900563" lon="0.5774951"><ele>165.0</ele><time>2026-05-04T12:11:49.82Z</time></trkpt><trkpt lat="41.5901372" lon="0.5776416"><ele>165.0</ele><time>2026-05-04T12:11:50.819Z</time></trkpt><trkpt lat="41.5902169" lon="0.5777987"><ele>165.0</ele><time>2026-05-04T12:11:51.82Z</time></trkpt><trkpt lat="41.5902987" lon="0.5779579"><ele>165.0</ele><time>2026-05-04T12:11:52.82Z</time></trkpt><trkpt lat="41.590378" lon="0.5781208"><ele>165.5</ele><time>2026-05-04T12:11:53.821Z</time></trkpt><trkpt lat="41.5904485" lon="0.5782864"><ele>166.0</ele><time>2026-05-04T12:11:54.82Z</time></trkpt><trkpt lat="41.5905127" lon="0.578456"><ele>166.5</ele><time>2026-05-04T12:11:55.821Z</time></trkpt><trkpt lat="41.5905647" lon="0.5786278"><ele>167.0</ele><time>2026-05-04T12:11:56.821Z</time></trkpt><trkpt lat="41.590608" lon="0.5788116"><ele>165.5</ele><time>2026-05-04T12:11:57.821Z</time></trkpt><trkpt lat="41.5906466" lon="0.5789909"><ele>164.0</ele><time>2026-05-04T12:11:58.821Z</time></trkpt><trkpt lat="41.5906769" lon="0.5791769"><ele>162.5</ele><time>2026-05-04T12:11:59.821Z</time></trkpt><trkpt lat="41.5907044" lon="0.579369"><ele>161.0</ele><time>2026-05-04T12:12:00.821Z</time></trkpt><trkpt lat="41.5907334" lon="0.5795737"><ele>160.33333333333331</ele><time>2026-05-04T12:12:01.821Z</time></trkpt><trkpt lat="41.590744" lon="0.5797766"><ele>159.66666666666666</ele><time>2026-05-04T12:12:02.82Z</time></trkpt><trkpt lat="41.590748" lon="0.5799844"><ele>159.0</ele><time>2026-05-04T12:12:03.821Z</time></trkpt><trkpt lat="41.5907517" lon="0.5801891"><ele>159.0</ele><time>2026-05-04T12:12:04.82Z</time></trkpt><trkpt lat="41.5907543" lon="0.5803924"><ele>159.0</ele><time>2026-05-04T12:12:05.821Z</time></trkpt><trkpt lat="41.5907578" lon="0.5805969"><ele>159.0</ele><time>2026-05-04T12:12:06.821Z</time></trkpt><trkpt lat="41.5907609" lon="0.580798"><ele>159.0</ele><time>2026-05-04T12:12:07.821Z</time></trkpt><trkpt lat="41.5907686" lon="0.5809982"><ele>159.0</ele><time>2026-05-04T12:12:08.821Z</time></trkpt><trkpt lat="41.5907727" lon="0.5811994"><ele>159.0</ele><time>2026-05-04T12:12:09.821Z</time></trkpt><trkpt lat="41.5907761" lon="0.5813988"><ele>158.75</ele><time>2026-05-04T12:12:10.82Z</time></trkpt><trkpt lat="41.5907851" lon="0.5815952"><ele>158.5</ele><time>2026-05-04T12:12:11.821Z</time></trkpt><trkpt lat="41.590801" lon="0.5817926"><ele>158.25</ele><time>2026-05-04T12:12:12.821Z</time></trkpt><trkpt lat="41.5908233" lon="0.5819941"><ele>158.0</ele><time>2026-05-04T12:12:13.821Z</time></trkpt><trkpt lat="41.5908523" lon="0.5821958"><ele>158.0</ele><time>2026-05-04T12:12:14.82Z</time></trkpt><trkpt lat="41.5908878" lon="0.5823942"><ele>158.0</ele><time>2026-05-04T12:12:15.821Z</time></trkpt><trkpt lat="41.590929" lon="0.5825844"><ele>158.0</ele><time>2026-05-04T12:12:16.821Z</time></trkpt><trkpt lat="41.5909811" lon="0.5827708"><ele>158.0</ele><time>2026-05-04T12:12:17.821Z</time></trkpt><trkpt lat="41.5910369" lon="0.5829567"><ele>157.75</ele><time>2026-05-04T12:12:18.821Z</time></trkpt><trkpt lat="41.5910933" lon="0.5831419"><ele>157.5</ele><time>2026-05-04T12:12:19.821Z</time></trkpt><trkpt lat="41.5911527" lon="0.5833242"><ele>157.25</ele><time>2026-05-04T12:12:20.821Z</time></trkpt><trkpt lat="41.591221" lon="0.583504"><ele>157.0</ele><time>2026-05-04T12:12:21.82Z</time></trkpt><trkpt lat="41.5912943" lon="0.5836812"><ele>158.0</ele><time>2026-05-04T12:12:22.821Z</time></trkpt><trkpt lat="41.5913681" lon="0.5838609"><ele>159.0</ele><time>2026-05-04T12:12:23.821Z</time></trkpt><trkpt lat="41.5914418" lon="0.5840371"><ele>160.0</ele><time>2026-05-04T12:12:24.821Z</time></trkpt><trkpt lat="41.5915158" lon="0.5842118"><ele>160.0</ele><time>2026-05-04T12:12:25.821Z</time></trkpt><trkpt lat="41.59159" lon="0.5843896"><ele>160.0</ele><time>2026-05-04T12:12:26.821Z</time></trkpt><trkpt lat="41.5916635" lon="0.5845659"><ele>160.0</ele><time>2026-05-04T12:12:27.821Z</time></trkpt><trkpt lat="41.5917377" lon="0.5847428"><ele>159.0</ele><time>2026-05-04T12:12:28.82Z</time></trkpt><trkpt lat="41.5918122" lon="0.5849196"><ele>158.0</ele><time>2026-05-04T12:12:29.821Z</time></trkpt><trkpt lat="41.5918859" lon="0.5850959"><ele>157.0</ele><time>2026-05-04T12:12:30.821Z</time></trkpt><trkpt lat="41.5919607" lon="0.5852707"><ele>158.0</ele><time>2026-05-04T12:12:31.821Z</time></trkpt><trkpt lat="41.592034" lon="0.5854453"><ele>159.0</ele><time>2026-05-04T12:12:32.82Z</time></trkpt><trkpt lat="41.5921091" lon="0.585619"><ele>160.0</ele><time>2026-05-04T12:12:33.821Z</time></trkpt><trkpt lat="41.5921848" lon="0.5857897"><ele>161.0</ele><time>2026-05-04T12:12:34.821Z</time></trkpt><trkpt lat="41.5922571" lon="0.5859608"><ele>161.0</ele><time>2026-05-04T12:12:35.821Z</time></trkpt><trkpt lat="41.5923309" lon="0.5861379"><ele>161.0</ele><time>2026-05-04T12:12:36.821Z</time></trkpt><trkpt lat="41.5924045" lon="0.586313"><ele>161.0</ele><time>2026-05-04T12:12:37.821Z</time></trkpt><trkpt lat="41.5924786" lon="0.5864869"><ele>160.33333333333331</ele><time>2026-05-04T12:12:38.821Z</time></trkpt><trkpt lat="41.5925515" lon="0.5866615"><ele>159.66666666666666</ele><time>2026-05-04T12:12:39.821Z</time></trkpt><trkpt lat="41.5926245" lon="0.5868384"><ele>159.0</ele><time>2026-05-04T12:12:40.821Z</time></trkpt><trkpt lat="41.5926964" lon="0.5870132"><ele>159.0</ele><time>2026-05-04T12:12:41.821Z</time></trkpt><trkpt lat="41.5927708" lon="0.587184"><ele>159.0</ele><time>2026-05-04T12:12:42.821Z</time></trkpt><trkpt lat="41.5928422" lon="0.5873568"><ele>159.0</ele><time>2026-05-04T12:12:43.82Z</time></trkpt><trkpt lat="41.5929152" lon="0.5875364"><ele>159.0</ele><time>2026-05-04T12:12:44.821Z</time></trkpt><trkpt lat="41.5929844" lon="0.5877129"><ele>159.25</ele><time>2026-05-04T12:12:45.821Z</time></trkpt><trkpt lat="41.5930474" lon="0.5878966"><ele>159.5</ele><time>2026-05-04T12:12:46.821Z</time></trkpt><trkpt lat="41.5931027" lon="0.588076"><ele>159.75</ele><time>2026-05-04T12:12:47.821Z</time></trkpt><trkpt lat="41.5931542" lon="0.588255"><ele>160.0</ele><time>2026-05-04T12:12:48.82Z</time></trkpt><trkpt lat="41.5932048" lon="0.5884408"><ele>160.0</ele><time>2026-05-04T12:12:49.821Z</time></trkpt><trkpt lat="41.5932573" lon="0.5886226"><ele>160.0</ele><time>2026-05-04T12:12:50.821Z</time></trkpt><trkpt lat="41.5933168" lon="0.5888065"><ele>160.0</ele><time>2026-05-04T12:12:51.821Z</time></trkpt><trkpt lat="41.593371" lon="0.5889715"><ele>160.0</ele><time>2026-05-04T12:12:52.82Z</time></trkpt><trkpt lat="41.593424" lon="0.5891267"><ele>159.5</ele><time>2026-05-04T12:12:53.82Z</time></trkpt><trkpt lat="41.5934758" lon="0.5892805"><ele>159.0</ele><time>2026-05-04T12:12:54.82Z</time></trkpt><trkpt lat="41.5935226" lon="0.5894198"><ele>158.5</ele><time>2026-05-04T12:12:55.82Z</time></trkpt><trkpt lat="41.5935587" lon="0.5895585"><ele>158.0</ele><time>2026-05-04T12:12:56.821Z</time></trkpt><trkpt lat="41.5935883" lon="0.5897023"><ele>158.20000000000002</ele><time>2026-05-04T12:12:57.821Z</time></trkpt><trkpt lat="41.5936206" lon="0.5898359"><ele>158.4</ele><time>2026-05-04T12:12:58.821Z</time></trkpt><trkpt lat="41.5936593" lon="0.5899599"><ele>158.60000000000002</ele><time>2026-05-04T12:12:59.821Z</time></trkpt><trkpt lat="41.5937173" lon="0.5900731"><ele>158.8</ele><time>2026-05-04T12:13:00.82Z</time></trkpt><trkpt lat="41.5937904" lon="0.590171"><ele>159.0</ele><time>2026-05-04T12:13:01.821Z</time></trkpt><trkpt lat="41.5938662" lon="0.5902616"><ele>159.2</ele><time>2026-05-04T12:13:02.821Z</time></trkpt><trkpt lat="41.5939466" lon="0.5903571"><ele>159.4</ele><time>2026-05-04T12:13:03.821Z</time></trkpt><trkpt lat="41.5940283" lon="0.5904569"><ele>159.6</ele><time>2026-05-04T12:13:04.82Z</time></trkpt><trkpt lat="41.5941051" lon="0.5905629"><ele>159.8</ele><time>2026-05-04T12:13:05.821Z</time></trkpt><trkpt lat="41.5941825" lon="0.5906832"><ele>160.0</ele><time>2026-05-04T12:13:06.821Z</time></trkpt><trkpt lat="41.594263" lon="0.5908064"><ele>160.0</ele><time>2026-05-04T12:13:07.821Z</time></trkpt><trkpt lat="41.5943418" lon="0.5909332"><ele>160.0</ele><time>2026-05-04T12:13:08.821Z</time></trkpt><trkpt lat="41.5944163" lon="0.5910662"><ele>160.0</ele><time>2026-05-04T12:13:09.82Z</time></trkpt><trkpt lat="41.5944927" lon="0.5911994"><ele>160.0</ele><time>2026-05-04T12:13:10.821Z</time></trkpt><trkpt lat="41.5945728" lon="0.591333"><ele>160.25</ele><time>2026-05-04T12:13:11.821Z</time></trkpt><trkpt lat="41.5946496" lon="0.5914725"><ele>160.5</ele><time>2026-05-04T12:13:12.821Z</time></trkpt><trkpt lat="41.5947259" lon="0.5916093"><ele>160.75</ele><time>2026-05-04T12:13:13.821Z</time></trkpt><trkpt lat="41.594805" lon="0.5917447"><ele>161.0</ele><time>2026-05-04T12:13:14.821Z</time></trkpt><trkpt lat="41.5948827" lon="0.5918756"><ele>160.5</ele><time>2026-05-04T12:13:15.821Z</time></trkpt><trkpt lat="41.5949588" lon="0.5920114"><ele>160.0</ele><time>2026-05-04T12:13:16.821Z</time></trkpt><trkpt lat="41.5950338" lon="0.5921536"><ele>159.5</ele><time>2026-05-04T12:13:17.82Z</time></trkpt><trkpt lat="41.5951098" lon="0.5922915"><ele>159.0</ele><time>2026-05-04T12:13:18.821Z</time></trkpt><trkpt lat="41.5951888" lon="0.5924299"><ele>159.0</ele><time>2026-05-04T12:13:19.821Z</time></trkpt><trkpt lat="41.5952667" lon="0.592569"><ele>159.0</ele><time>2026-05-04T12:13:20.82Z</time></trkpt><trkpt lat="41.5953485" lon="0.5927136"><ele>159.0</ele><time>2026-05-04T12:13:21.821Z</time></trkpt><trkpt lat="41.595427" lon="0.5928522"><ele>159.0</ele><time>2026-05-04T12:13:22.821Z</time></trkpt><trkpt lat="41.5955091" lon="0.5929953"><ele>159.25</ele><time>2026-05-04T12:13:23.821Z</time></trkpt><trkpt lat="41.5955918" lon="0.5931405"><ele>159.5</ele><time>2026-05-04T12:13:24.821Z</time></trkpt><trkpt lat="41.5956747" lon="0.5932816"><ele>159.75</ele><time>2026-05-04T12:13:25.82Z</time></trkpt><trkpt lat="41.5957582" lon="0.5934263"><ele>160.0</ele><time>2026-05-04T12:13:26.821Z</time></trkpt><trkpt lat="41.5958388" lon="0.5935705"><ele>159.5</ele><time>2026-05-04T12:13:27.821Z</time></trkpt><trkpt lat="41.5959178" lon="0.5937138"><ele>159.0</ele><time>2026-05-04T12:13:28.821Z</time></trkpt><trkpt lat="41.5959944" lon="0.593861"><ele>158.5</ele><time>2026-05-04T12:13:29.821Z</time></trkpt><trkpt lat="41.5960779" lon="0.5940047"><ele>158.0</ele><time>2026-05-04T12:13:30.821Z</time></trkpt><trkpt lat="41.5961587" lon="0.5941563"><ele>158.25</ele><time>2026-05-04T12:13:31.821Z</time></trkpt><trkpt lat="41.5962421" lon="0.5943025"><ele>158.5</ele><time>2026-05-04T12:13:32.821Z</time></trkpt><trkpt lat="41.5963267" lon="0.5944399"><ele>158.75</ele><time>2026-05-04T12:13:33.821Z</time></trkpt><trkpt lat="41.5964048" lon="0.5945796"><ele>159.0</ele><time>2026-05-04T12:13:34.821Z</time></trkpt><trkpt lat="41.596491" lon="0.5947192"><ele>159.0</ele><time>2026-05-04T12:13:35.821Z</time></trkpt><trkpt lat="41.596575" lon="0.5948622"><ele>159.0</ele><time>2026-05-04T12:13:36.821Z</time></trkpt><trkpt lat="41.5966616" lon="0.5949997"><ele>159.0</ele><time>2026-05-04T12:13:37.821Z</time></trkpt><trkpt lat="41.596752" lon="0.5951375"><ele>159.0</ele><time>2026-05-04T12:13:38.821Z</time></trkpt><trkpt lat="41.5968406" lon="0.5952728"><ele>159.25</ele><time>2026-05-04T12:13:39.821Z</time></trkpt><trkpt lat="41.5969316" lon="0.5954137"><ele>159.5</ele><time>2026-05-04T12:13:40.821Z</time></trkpt><trkpt lat="41.5970207" lon="0.5955541"><ele>159.75</ele><time>2026-05-04T12:13:41.821Z</time></trkpt><trkpt lat="41.5971084" lon="0.5956932"><ele>160.0</ele><time>2026-05-04T12:13:42.821Z</time></trkpt><trkpt lat="41.5971979" lon="0.59584"><ele>160.0</ele><time>2026-05-04T12:13:43.821Z</time></trkpt><trkpt lat="41.5972887" lon="0.5959852"><ele>160.0</ele><time>2026-05-04T12:13:44.821Z</time></trkpt><trkpt lat="41.5973805" lon="0.5961261"><ele>160.0</ele><time>2026-05-04T12:13:45.821Z</time></trkpt><trkpt lat="41.5974719" lon="0.5962673"><ele>160.0</ele><time>2026-05-04T12:13:46.821Z</time></trkpt><trkpt lat="41.5975653" lon="0.596413"><ele>160.0</ele><time>2026-05-04T12:13:47.821Z</time></trkpt><trkpt lat="41.5976596" lon="0.5965597"><ele>160.0</ele><time>2026-05-04T12:13:48.821Z</time></trkpt><trkpt lat="41.5977516" lon="0.5967032"><ele>160.0</ele><time>2026-05-04T12:13:49.821Z</time></trkpt><trkpt lat="41.5978435" lon="0.5968493"><ele>160.0</ele><time>2026-05-04T12:13:50.821Z</time></trkpt><trkpt lat="41.5979331" lon="0.5969881"><ele>160.5</ele><time>2026-05-04T12:13:51.821Z</time></trkpt><trkpt lat="41.5980235" lon="0.5971264"><ele>161.0</ele><time>2026-05-04T12:13:52.821Z</time></trkpt><trkpt lat="41.5981168" lon="0.5972634"><ele>161.5</ele><time>2026-05-04T12:13:53.82Z</time></trkpt><trkpt lat="41.5982095" lon="0.5973938"><ele>162.0</ele><time>2026-05-04T12:13:54.82Z</time></trkpt><trkpt lat="41.5983098" lon="0.5975206"><ele>162.0</ele><time>2026-05-04T12:13:55.822Z</time></trkpt><trkpt lat="41.5984104" lon="0.5976329"><ele>162.0</ele><time>2026-05-04T12:13:56.822Z</time></trkpt><trkpt lat="41.5985112" lon="0.5977277"><ele>162.0</ele><time>2026-05-04T12:13:57.822Z</time></trkpt><trkpt lat="41.5986082" lon="0.5978205"><ele>162.0</ele><time>2026-05-04T12:13:58.822Z</time></trkpt><trkpt lat="41.5987045" lon="0.5979076"><ele>162.2</ele><time>2026-05-04T12:13:59.822Z</time></trkpt><trkpt lat="41.598801" lon="0.597988"><ele>162.39999999999998</ele><time>2026-05-04T12:14:00.821Z</time></trkpt><trkpt lat="41.5988943" lon="0.5980677"><ele>162.60000000000002</ele><time>2026-05-04T12:14:01.822Z</time></trkpt><trkpt lat="41.5989893" lon="0.5981446"><ele>162.8</ele><time>2026-05-04T12:14:02.822Z</time></trkpt><trkpt lat="41.5990794" lon="0.5982272"><ele>163.0</ele><time>2026-05-04T12:14:03.822Z</time></trkpt><trkpt lat="41.5991605" lon="0.5983207"><ele>163.0</ele><time>2026-05-04T12:14:04.822Z</time></trkpt><trkpt lat="41.5992342" lon="0.5984277"><ele>163.0</ele><time>2026-05-04T12:14:05.822Z</time></trkpt><trkpt lat="41.5993067" lon="0.598536"><ele>163.0</ele><time>2026-05-04T12:14:06.822Z</time></trkpt><trkpt lat="41.5993862" lon="0.5986463"><ele>163.0</ele><time>2026-05-04T12:14:07.821Z</time></trkpt><trkpt lat="41.5994657" lon="0.5987571"><ele>163.0</ele><time>2026-05-04T12:14:08.821Z</time></trkpt><trkpt lat="41.5995392" lon="0.5988737"><ele>162.5</ele><time>2026-05-04T12:14:09.822Z</time></trkpt><trkpt lat="41.5995979" lon="0.5990036"><ele>162.0</ele><time>2026-05-04T12:14:10.822Z</time></trkpt><trkpt lat="41.5996553" lon="0.5991436"><ele>161.5</ele><time>2026-05-04T12:14:11.822Z</time></trkpt><trkpt lat="41.599705" lon="0.5992814"><ele>161.0</ele><time>2026-05-04T12:14:12.822Z</time></trkpt><trkpt lat="41.5997537" lon="0.5994313"><ele>161.0</ele><time>2026-05-04T12:14:13.822Z</time></trkpt><trkpt lat="41.5998023" lon="0.5995809"><ele>161.0</ele><time>2026-05-04T12:14:14.822Z</time></trkpt><trkpt lat="41.5998586" lon="0.5997354"><ele>161.0</ele><time>2026-05-04T12:14:15.822Z</time></trkpt><trkpt lat="41.5999183" lon="0.5998985"><ele>161.0</ele><time>2026-05-04T12:14:16.822Z</time></trkpt><trkpt lat="41.5999751" lon="0.6000556"><ele>161.0</ele><time>2026-05-04T12:14:17.822Z</time></trkpt><trkpt lat="41.6000366" lon="0.600217"><ele>161.0</ele><time>2026-05-04T12:14:18.821Z</time></trkpt><trkpt lat="41.6000939" lon="0.600379"><ele>161.0</ele><time>2026-05-04T12:14:19.821Z</time></trkpt><trkpt lat="41.6001513" lon="0.6005466"><ele>161.0</ele><time>2026-05-04T12:14:20.822Z</time></trkpt><trkpt lat="41.6002013" lon="0.6007121"><ele>160.75</ele><time>2026-05-04T12:14:21.822Z</time></trkpt><trkpt lat="41.6002547" lon="0.6008764"><ele>160.5</ele><time>2026-05-04T12:14:22.822Z</time></trkpt><trkpt lat="41.6003069" lon="0.6010433"><ele>160.25</ele><time>2026-05-04T12:14:23.821Z</time></trkpt><trkpt lat="41.600359" lon="0.6012017"><ele>160.0</ele><time>2026-05-04T12:14:24.822Z</time></trkpt><trkpt lat="41.6004159" lon="0.6013667"><ele>160.0</ele><time>2026-05-04T12:14:25.822Z</time></trkpt><trkpt lat="41.6004703" lon="0.60153"><ele>160.0</ele><time>2026-05-04T12:14:26.822Z</time></trkpt><trkpt lat="41.6005202" lon="0.6016909"><ele>160.0</ele><time>2026-05-04T12:14:27.822Z</time></trkpt><trkpt lat="41.6005696" lon="0.6018494"><ele>160.0</ele><time>2026-05-04T12:14:28.821Z</time></trkpt><trkpt lat="41.6006188" lon="0.6020086"><ele>160.0</ele><time>2026-05-04T12:14:29.822Z</time></trkpt><trkpt lat="41.6006689" lon="0.6021638"><ele>160.0</ele><time>2026-05-04T12:14:30.822Z</time></trkpt><trkpt lat="41.6007202" lon="0.6023195"><ele>160.0</ele><time>2026-05-04T12:14:31.822Z</time></trkpt><trkpt lat="41.6007802" lon="0.6024682"><ele>160.0</ele><time>2026-05-04T12:14:32.822Z</time></trkpt><trkpt lat="41.6008432" lon="0.6026122"><ele>160.0</ele><time>2026-05-04T12:14:33.822Z</time></trkpt><trkpt lat="41.6009058" lon="0.6027582"><ele>160.0</ele><time>2026-05-04T12:14:34.822Z</time></trkpt><trkpt lat="41.6009728" lon="0.602894"><ele>160.0</ele><time>2026-05-04T12:14:35.821Z</time></trkpt><trkpt lat="41.6010399" lon="0.6030168"><ele>160.0</ele><time>2026-05-04T12:14:36.822Z</time></trkpt><trkpt lat="41.601107" lon="0.603133"><ele>159.4</ele><time>2026-05-04T12:14:37.822Z</time></trkpt><trkpt lat="41.6011719" lon="0.6032441"><ele>158.8</ele><time>2026-05-04T12:14:38.822Z</time></trkpt><trkpt lat="41.6012366" lon="0.6033661"><ele>158.2</ele><time>2026-05-04T12:14:39.822Z</time></trkpt><trkpt lat="41.6013054" lon="0.6034854"><ele>157.6</ele><time>2026-05-04T12:14:40.822Z</time></trkpt><trkpt lat="41.6013784" lon="0.6036102"><ele>157.0</ele><time>2026-05-04T12:14:41.822Z</time></trkpt><trkpt lat="41.6014476" lon="0.6037298"><ele>157.0</ele><time>2026-05-04T12:14:42.822Z</time></trkpt><trkpt lat="41.6015242" lon="0.6038513"><ele>157.0</ele><time>2026-05-04T12:14:43.822Z</time></trkpt><trkpt lat="41.6015974" lon="0.6039771"><ele>157.0</ele><time>2026-05-04T12:14:44.822Z</time></trkpt><trkpt lat="41.6016687" lon="0.6041045"><ele>157.0</ele><time>2026-05-04T12:14:45.822Z</time></trkpt><trkpt lat="41.6017419" lon="0.6042296"><ele>157.0</ele><time>2026-05-04T12:14:46.822Z</time></trkpt><trkpt lat="41.6018154" lon="0.6043517"><ele>157.0</ele><time>2026-05-04T12:14:47.822Z</time></trkpt><trkpt lat="41.6018805" lon="0.6044697"><ele>157.0</ele><time>2026-05-04T12:14:48.822Z</time></trkpt><trkpt lat="41.6019387" lon="0.6045756"><ele>157.0</ele><time>2026-05-04T12:14:49.822Z</time></trkpt><trkpt lat="41.601985" lon="0.6046728"><ele>157.0</ele><time>2026-05-04T12:14:50.822Z</time></trkpt><trkpt lat="41.6020225" lon="0.6047761"><ele>158.2</ele><time>2026-05-04T12:14:51.822Z</time></trkpt><trkpt lat="41.6020334" lon="0.6049069"><ele>159.39999999999998</ele><time>2026-05-04T12:14:52.822Z</time></trkpt><trkpt lat="41.6020386" lon="0.6050329"><ele>160.60000000000002</ele><time>2026-05-04T12:14:53.821Z</time></trkpt><trkpt lat="41.6020663" lon="0.6051506"><ele>161.8</ele><time>2026-05-04T12:14:54.822Z</time></trkpt><trkpt lat="41.602119" lon="0.6052454"><ele>163.0</ele><time>2026-05-04T12:14:55.821Z</time></trkpt><trkpt lat="41.6021875" lon="0.6053105"><ele>161.6</ele><time>2026-05-04T12:14:56.822Z</time></trkpt><trkpt lat="41.6022686" lon="0.6053652"><ele>160.20000000000002</ele><time>2026-05-04T12:14:57.822Z</time></trkpt><trkpt lat="41.6023588" lon="0.6054178"><ele>158.8</ele><time>2026-05-04T12:14:58.822Z</time></trkpt><trkpt lat="41.6024405" lon="0.6054856"><ele>157.4</ele><time>2026-05-04T12:14:59.822Z</time></trkpt><trkpt lat="41.6025094" lon="0.6055731"><ele>156.0</ele><time>2026-05-04T12:15:00.821Z</time></trkpt><trkpt lat="41.6025701" lon="0.6056706"><ele>156.0</ele><time>2026-05-04T12:15:01.822Z</time></trkpt><trkpt lat="41.6026233" lon="0.6057852"><ele>156.0</ele><time>2026-05-04T12:15:02.822Z</time></trkpt><trkpt lat="41.6026799" lon="0.605903"><ele>156.0</ele><time>2026-05-04T12:15:03.822Z</time></trkpt><trkpt lat="41.6027371" lon="0.6060234"><ele>156.0</ele><time>2026-05-04T12:15:04.821Z</time></trkpt><trkpt lat="41.6027935" lon="0.6061471"><ele>156.0</ele><time>2026-05-04T12:15:05.822Z</time></trkpt><trkpt lat="41.602848" lon="0.6062814"><ele>159.25</ele><time>2026-05-04T12:15:06.822Z</time></trkpt><trkpt lat="41.6028994" lon="0.6064221"><ele>162.5</ele><time>2026-05-04T12:15:07.822Z</time></trkpt><trkpt lat="41.6029506" lon="0.606568"><ele>165.75</ele><time>2026-05-04T12:15:08.822Z</time></trkpt><trkpt lat="41.6029997" lon="0.6067174"><ele>169.0</ele><time>2026-05-04T12:15:09.822Z</time></trkpt><trkpt lat="41.6030492" lon="0.6068657"><ele>167.5</ele><time>2026-05-04T12:15:10.822Z</time></trkpt><trkpt lat="41.6030957" lon="0.6070184"><ele>166.0</ele><time>2026-05-04T12:15:11.822Z</time></trkpt><trkpt lat="41.6031513" lon="0.6071774"><ele>164.5</ele><time>2026-05-04T12:15:12.822Z</time></trkpt><trkpt lat="41.6032093" lon="0.6073335"><ele>163.0</ele><time>2026-05-04T12:15:13.822Z</time></trkpt><trkpt lat="41.6032687" lon="0.6074909"><ele>163.0</ele><time>2026-05-04T12:15:14.822Z</time></trkpt><trkpt lat="41.6033292" lon="0.607644"><ele>163.0</ele><time>2026-05-04T12:15:15.822Z</time></trkpt><trkpt lat="41.6033979" lon="0.6077974"><ele>163.0</ele><time>2026-05-04T12:15:16.822Z</time></trkpt><trkpt lat="41.6034697" lon="0.607949"><ele>163.0</ele><time>2026-05-04T12:15:17.822Z</time></trkpt><trkpt lat="41.6035494" lon="0.6081034"><ele>162.25</ele><time>2026-05-04T12:15:18.822Z</time></trkpt><trkpt lat="41.6036323" lon="0.6082559"><ele>161.5</ele><time>2026-05-04T12:15:19.822Z</time></trkpt><trkpt lat="41.6037157" lon="0.6084025"><ele>160.75</ele><time>2026-05-04T12:15:20.822Z</time></trkpt><trkpt lat="41.6037951" lon="0.6085384"><ele>160.0</ele><time>2026-05-04T12:15:21.821Z</time></trkpt><trkpt lat="41.6038798" lon="0.6086796"><ele>160.0</ele><time>2026-05-04T12:15:22.821Z</time></trkpt><trkpt lat="41.6039649" lon="0.6088195"><ele>160.0</ele><time>2026-05-04T12:15:23.822Z</time></trkpt><trkpt lat="41.6040397" lon="0.6089588"><ele>160.0</ele><time>2026-05-04T12:15:24.822Z</time></trkpt><trkpt lat="41.6041185" lon="0.6091049"><ele>160.0</ele><time>2026-05-04T12:15:25.822Z</time></trkpt><trkpt lat="41.6041974" lon="0.6092507"><ele>160.0</ele><time>2026-05-04T12:15:26.821Z</time></trkpt><trkpt lat="41.6042727" lon="0.6093909"><ele>160.0</ele><time>2026-05-04T12:15:27.822Z</time></trkpt><trkpt lat="41.604344" lon="0.6095278"><ele>160.0</ele><time>2026-05-04T12:15:28.822Z</time></trkpt><trkpt lat="41.6044103" lon="0.6096686"><ele>160.0</ele><time>2026-05-04T12:15:29.821Z</time></trkpt><trkpt lat="41.6044751" lon="0.6098085"><ele>160.25</ele><time>2026-05-04T12:15:30.822Z</time></trkpt><trkpt lat="41.604538" lon="0.6099512"><ele>160.5</ele><time>2026-05-04T12:15:31.821Z</time></trkpt><trkpt lat="41.604607" lon="0.6100895"><ele>160.75</ele><time>2026-05-04T12:15:32.822Z</time></trkpt><trkpt lat="41.6046716" lon="0.6102209"><ele>161.0</ele><time>2026-05-04T12:15:33.822Z</time></trkpt><trkpt lat="41.6047357" lon="0.6103565"><ele>159.75</ele><time>2026-05-04T12:15:34.822Z</time></trkpt><trkpt lat="41.6048003" lon="0.6104939"><ele>158.5</ele><time>2026-05-04T12:15:35.822Z</time></trkpt><trkpt lat="41.6048624" lon="0.6106276"><ele>157.25</ele><time>2026-05-04T12:15:36.821Z</time></trkpt><trkpt lat="41.6049262" lon="0.6107617"><ele>156.0</ele><time>2026-05-04T12:15:37.822Z</time></trkpt><trkpt lat="41.6049923" lon="0.6109032"><ele>156.0</ele><time>2026-05-04T12:15:38.822Z</time></trkpt><trkpt lat="41.6050529" lon="0.6110424"><ele>156.0</ele><time>2026-05-04T12:15:39.822Z</time></trkpt><trkpt lat="41.6051138" lon="0.611179"><ele>156.0</ele><time>2026-05-04T12:15:40.821Z</time></trkpt><trkpt lat="41.6051738" lon="0.6113108"><ele>156.0</ele><time>2026-05-04T12:15:41.822Z</time></trkpt><trkpt lat="41.6052283" lon="0.6114375"><ele>156.0</ele><time>2026-05-04T12:15:42.822Z</time></trkpt><trkpt lat="41.6052891" lon="0.6115685"><ele>156.0</ele><time>2026-05-04T12:15:43.822Z</time></trkpt><trkpt lat="41.6053493" lon="0.6117012"><ele>156.0</ele><time>2026-05-04T12:15:44.822Z</time></trkpt><trkpt lat="41.6054129" lon="0.611835"><ele>156.0</ele><time>2026-05-04T12:15:45.822Z</time></trkpt><trkpt lat="41.6054763" lon="0.6119715"><ele>156.0</ele><time>2026-05-04T12:15:46.822Z</time></trkpt><trkpt lat="41.6055383" lon="0.6121087"><ele>156.0</ele><time>2026-05-04T12:15:47.822Z</time></trkpt><trkpt lat="41.6055995" lon="0.612245"><ele>156.0</ele><time>2026-05-04T12:15:48.822Z</time></trkpt><trkpt lat="41.6056546" lon="0.6123805"><ele>156.0</ele><time>2026-05-04T12:15:49.822Z</time></trkpt><trkpt lat="41.6057104" lon="0.6125073"><ele>156.0</ele><time>2026-05-04T12:15:50.821Z</time></trkpt><trkpt lat="41.6057596" lon="0.6126239"><ele>156.0</ele><time>2026-05-04T12:15:51.821Z</time></trkpt><trkpt lat="41.6058031" lon="0.6127376"><ele>156.0</ele><time>2026-05-04T12:15:52.821Z</time></trkpt><trkpt lat="41.605838" lon="0.6128368"><ele>156.0</ele><time>2026-05-04T12:15:53.822Z</time></trkpt><trkpt lat="41.6058575" lon="0.612936"><ele>156.0</ele><time>2026-05-04T12:15:54.822Z</time></trkpt><trkpt lat="41.6058623" lon="0.61302"><ele>156.0</ele><time>2026-05-04T12:15:55.822Z</time></trkpt><trkpt lat="41.605846" lon="0.6131488"><ele>156.0</ele><time>2026-05-04T12:15:57.822Z</time></trkpt><trkpt lat="41.6058141" lon="0.6132666"><ele>156.0</ele><time>2026-05-04T12:15:59.823Z</time></trkpt><trkpt lat="41.6057826" lon="0.6134111"><ele>156.0</ele><time>2026-05-04T12:16:01.823Z</time></trkpt><trkpt lat="41.605788" lon="0.6134966"><ele>156.0</ele><time>2026-05-04T12:16:02.823Z</time></trkpt><trkpt lat="41.6058043" lon="0.6135787"><ele>156.0</ele><time>2026-05-04T12:16:03.823Z</time></trkpt><trkpt lat="41.605893" lon="0.6136845"><ele>156.2857142857143</ele><time>2026-05-04T12:16:05.823Z</time></trkpt><trkpt lat="41.6059557" lon="0.6137103"><ele>156.57142857142856</ele><time>2026-05-04T12:16:06.823Z</time></trkpt><trkpt lat="41.6060266" lon="0.613729"><ele>156.85714285714286</ele><time>2026-05-04T12:16:07.823Z</time></trkpt><trkpt lat="41.6060999" lon="0.6137624"><ele>157.14285714285717</ele><time>2026-05-04T12:16:08.823Z</time></trkpt><trkpt lat="41.6061702" lon="0.6138152"><ele>157.42857142857144</ele><time>2026-05-04T12:16:09.823Z</time></trkpt><trkpt lat="41.6062199" lon="0.6138833"><ele>157.71428571428572</ele><time>2026-05-04T12:16:10.823Z</time></trkpt><trkpt lat="41.6062644" lon="0.6139616"><ele>158.0</ele><time>2026-05-04T12:16:11.823Z</time></trkpt><trkpt lat="41.6063045" lon="0.6140482"><ele>158.16666666666666</ele><time>2026-05-04T12:16:12.823Z</time></trkpt><trkpt lat="41.6063394" lon="0.6141345"><ele>158.33333333333331</ele><time>2026-05-04T12:16:13.822Z</time></trkpt><trkpt lat="41.6063755" lon="0.6142291"><ele>158.5</ele><time>2026-05-04T12:16:14.822Z</time></trkpt><trkpt lat="41.6064113" lon="0.6143316"><ele>158.66666666666666</ele><time>2026-05-04T12:16:15.823Z</time></trkpt><trkpt lat="41.606449" lon="0.6144425"><ele>158.83333333333334</ele><time>2026-05-04T12:16:16.823Z</time></trkpt><trkpt lat="41.6064915" lon="0.6145589"><ele>159.0</ele><time>2026-05-04T12:16:17.823Z</time></trkpt><trkpt lat="41.6065382" lon="0.6146717"><ele>159.0</ele><time>2026-05-04T12:16:18.823Z</time></trkpt><trkpt lat="41.6065931" lon="0.6147797"><ele>159.0</ele><time>2026-05-04T12:16:19.822Z</time></trkpt><trkpt lat="41.6066497" lon="0.6148896"><ele>159.0</ele><time>2026-05-04T12:16:20.823Z</time></trkpt><trkpt lat="41.6067101" lon="0.6150032"><ele>159.0</ele><time>2026-05-04T12:16:21.823Z</time></trkpt><trkpt lat="41.6067677" lon="0.6151159"><ele>159.0</ele><time>2026-05-04T12:16:22.823Z</time></trkpt><trkpt lat="41.6068308" lon="0.6152308"><ele>159.2</ele><time>2026-05-04T12:16:23.823Z</time></trkpt><trkpt lat="41.6068924" lon="0.6153469"><ele>159.4</ele><time>2026-05-04T12:16:24.823Z</time></trkpt><trkpt lat="41.6069574" lon="0.615461"><ele>159.6</ele><time>2026-05-04T12:16:25.823Z</time></trkpt><trkpt lat="41.6070269" lon="0.6155635"><ele>159.8</ele><time>2026-05-04T12:16:26.823Z</time></trkpt><trkpt lat="41.6070969" lon="0.615664"><ele>160.0</ele><time>2026-05-04T12:16:27.823Z</time></trkpt><trkpt lat="41.6071722" lon="0.6157629"><ele>160.0</ele><time>2026-05-04T12:16:28.823Z</time></trkpt><trkpt lat="41.6072514" lon="0.6158639"><ele>160.0</ele><time>2026-05-04T12:16:29.823Z</time></trkpt><trkpt lat="41.6073335" lon="0.6159666"><ele>160.0</ele><time>2026-05-04T12:16:30.823Z</time></trkpt><trkpt lat="41.6074186" lon="0.6160686"><ele>160.0</ele><time>2026-05-04T12:16:31.823Z</time></trkpt><trkpt lat="41.6074994" lon="0.6161696"><ele>160.0</ele><time>2026-05-04T12:16:32.823Z</time></trkpt><trkpt lat="41.6075765" lon="0.6162685"><ele>160.2</ele><time>2026-05-04T12:16:33.823Z</time></trkpt><trkpt lat="41.6076552" lon="0.616357"><ele>160.4</ele><time>2026-05-04T12:16:34.823Z</time></trkpt><trkpt lat="41.607728" lon="0.6164438"><ele>160.60000000000002</ele><time>2026-05-04T12:16:35.823Z</time></trkpt><trkpt lat="41.6077967" lon="0.6165357"><ele>160.8</ele><time>2026-05-04T12:16:36.823Z</time></trkpt><trkpt lat="41.6078625" lon="0.6166286"><ele>161.0</ele><time>2026-05-04T12:16:37.823Z</time></trkpt><trkpt lat="41.607924" lon="0.6167304"><ele>161.0</ele><time>2026-05-04T12:16:38.823Z</time></trkpt><trkpt lat="41.6079771" lon="0.6168279"><ele>161.0</ele><time>2026-05-04T12:16:39.822Z</time></trkpt><trkpt lat="41.608019" lon="0.6169325"><ele>161.0</ele><time>2026-05-04T12:16:40.823Z</time></trkpt><trkpt lat="41.6080549" lon="0.6170329"><ele>161.0</ele><time>2026-05-04T12:16:41.823Z</time></trkpt><trkpt lat="41.6080761" lon="0.6171272"><ele>161.0</ele><time>2026-05-04T12:16:42.823Z</time></trkpt><trkpt lat="41.6080775" lon="0.6172799"><ele>160.4</ele><time>2026-05-04T12:16:44.823Z</time></trkpt><trkpt lat="41.6080558" lon="0.617406"><ele>159.8</ele><time>2026-05-04T12:16:46.823Z</time></trkpt><trkpt lat="41.6079998" lon="0.6175251"><ele>159.20000000000002</ele><time>2026-05-04T12:16:48.823Z</time></trkpt><trkpt lat="41.6079112" lon="0.617608"><ele>158.60000000000002</ele><time>2026-05-04T12:16:50.823Z</time></trkpt><trkpt lat="41.6078172" lon="0.617692"><ele>158.0</ele><time>2026-05-04T12:16:52.823Z</time></trkpt><trkpt lat="41.6077049" lon="0.6177799"><ele>157.16666666666666</ele><time>2026-05-04T12:16:54.823Z</time></trkpt><trkpt lat="41.6076381" lon="0.6178367"><ele>156.33333333333331</ele><time>2026-05-04T12:16:55.823Z</time></trkpt><trkpt lat="41.6075718" lon="0.6178919"><ele>155.5</ele><time>2026-05-04T12:16:56.823Z</time></trkpt><trkpt lat="41.6075095" lon="0.6179505"><ele>154.66666666666666</ele><time>2026-05-04T12:16:57.823Z</time></trkpt><trkpt lat="41.6074368" lon="0.6180113"><ele>153.83333333333334</ele><time>2026-05-04T12:16:58.823Z</time></trkpt><trkpt lat="41.6073468" lon="0.6180819"><ele>153.0</ele><time>2026-05-04T12:16:59.823Z</time></trkpt><trkpt lat="41.6072596" lon="0.6181597"><ele>153.0</ele><time>2026-05-04T12:17:00.823Z</time></trkpt><trkpt lat="41.607166" lon="0.6182372"><ele>153.0</ele><time>2026-05-04T12:17:01.823Z</time></trkpt><trkpt lat="41.6070723" lon="0.6183101"><ele>153.0</ele><time>2026-05-04T12:17:02.823Z</time></trkpt><trkpt lat="41.6069751" lon="0.6183871"><ele>153.0</ele><time>2026-05-04T12:17:03.823Z</time></trkpt><trkpt lat="41.6068789" lon="0.6184729"><ele>153.0</ele><time>2026-05-04T12:17:04.823Z</time></trkpt><trkpt lat="41.6067804" lon="0.618569"><ele>152.0</ele><time>2026-05-04T12:17:05.823Z</time></trkpt><trkpt lat="41.6066901" lon="0.6186725"><ele>151.0</ele><time>2026-05-04T12:17:06.823Z</time></trkpt><trkpt lat="41.6065989" lon="0.6187822"><ele>150.0</ele><time>2026-05-04T12:17:07.823Z</time></trkpt><trkpt lat="41.6065108" lon="0.6188953"><ele>149.0</ele><time>2026-05-04T12:17:08.823Z</time></trkpt><trkpt lat="41.6064215" lon="0.6190144"><ele>149.0</ele><time>2026-05-04T12:17:09.822Z</time></trkpt><trkpt lat="41.6063357" lon="0.6191362"><ele>149.0</ele><time>2026-05-04T12:17:10.823Z</time></trkpt><trkpt lat="41.6062581" lon="0.6192599"><ele>149.0</ele><time>2026-05-04T12:17:11.823Z</time></trkpt><trkpt lat="41.6061847" lon="0.619375"><ele>149.0</ele><time>2026-05-04T12:17:12.823Z</time></trkpt><trkpt lat="41.6061145" lon="0.6194915"><ele>148.8</ele><time>2026-05-04T12:17:13.823Z</time></trkpt><trkpt lat="41.6060443" lon="0.6196058"><ele>148.60000000000002</ele><time>2026-05-04T12:17:14.823Z</time></trkpt><trkpt lat="41.605976" lon="0.6197205"><ele>148.4</ele><time>2026-05-04T12:17:15.823Z</time></trkpt><trkpt lat="41.6059014" lon="0.6198329"><ele>148.20000000000002</ele><time>2026-05-04T12:17:16.823Z</time></trkpt><trkpt lat="41.6058374" lon="0.6199541"><ele>148.0</ele><time>2026-05-04T12:17:17.822Z</time></trkpt><trkpt lat="41.6057627" lon="0.62009"><ele>148.0</ele><time>2026-05-04T12:17:18.823Z</time></trkpt><trkpt lat="41.6056963" lon="0.6202212"><ele>148.0</ele><time>2026-05-04T12:17:19.822Z</time></trkpt><trkpt lat="41.605631" lon="0.6203546"><ele>148.0</ele><time>2026-05-04T12:17:20.823Z</time></trkpt><trkpt lat="41.6055684" lon="0.6204959"><ele>148.0</ele><time>2026-05-04T12:17:21.823Z</time></trkpt><trkpt lat="41.6055085" lon="0.6206433"><ele>148.0</ele><time>2026-05-04T12:17:22.822Z</time></trkpt><trkpt lat="41.605442" lon="0.6207891"><ele>148.0</ele><time>2026-05-04T12:17:23.823Z</time></trkpt><trkpt lat="41.6053849" lon="0.6209297"><ele>148.0</ele><time>2026-05-04T12:17:24.823Z</time></trkpt><trkpt lat="41.6053235" lon="0.6210669"><ele>148.0</ele><time>2026-05-04T12:17:25.823Z</time></trkpt><trkpt lat="41.6052617" lon="0.6212082"><ele>147.0</ele><time>2026-05-04T12:17:26.822Z</time></trkpt><trkpt lat="41.6052042" lon="0.6213538"><ele>146.0</ele><time>2026-05-04T12:17:27.823Z</time></trkpt><trkpt lat="41.6051417" lon="0.6214941"><ele>145.0</ele><time>2026-05-04T12:17:28.822Z</time></trkpt><trkpt lat="41.6050771" lon="0.621633"><ele>144.0</ele><time>2026-05-04T12:17:29.823Z</time></trkpt><trkpt lat="41.6050021" lon="0.6217704"><ele>144.0</ele><time>2026-05-04T12:17:30.822Z</time></trkpt><trkpt lat="41.6049142" lon="0.6218923"><ele>144.0</ele><time>2026-05-04T12:17:31.823Z</time></trkpt><trkpt lat="41.6048233" lon="0.6219973"><ele>144.0</ele><time>2026-05-04T12:17:32.823Z</time></trkpt><trkpt lat="41.6047279" lon="0.6220936"><ele>144.0</ele><time>2026-05-04T12:17:33.823Z</time></trkpt><trkpt lat="41.6046289" lon="0.6221757"><ele>144.2</ele><time>2026-05-04T12:17:34.823Z</time></trkpt><trkpt lat="41.6045304" lon="0.6222383"><ele>144.4</ele><time>2026-05-04T12:17:35.823Z</time></trkpt><trkpt lat="41.6044264" lon="0.622299"><ele>144.6</ele><time>2026-05-04T12:17:36.823Z</time></trkpt><trkpt lat="41.6043258" lon="0.6223572"><ele>144.8</ele><time>2026-05-04T12:17:37.822Z</time></trkpt><trkpt lat="41.6042198" lon="0.6224095"><ele>145.0</ele><time>2026-05-04T12:17:38.823Z</time></trkpt><trkpt lat="41.6041138" lon="0.6224657"><ele>144.5</ele><time>2026-05-04T12:17:39.822Z</time></trkpt><trkpt lat="41.6040099" lon="0.6225234"><ele>144.0</ele><time>2026-05-04T12:17:40.822Z</time></trkpt><trkpt lat="41.6039065" lon="0.6225828"><ele>143.5</ele><time>2026-05-04T12:17:41.823Z</time></trkpt><trkpt lat="41.6038032" lon="0.6226456"><ele>143.0</ele><time>2026-05-04T12:17:42.823Z</time></trkpt><trkpt lat="41.603702" lon="0.6227124"><ele>143.5</ele><time>2026-05-04T12:17:43.823Z</time></trkpt><trkpt lat="41.6035965" lon="0.6227902"><ele>144.0</ele><time>2026-05-04T12:17:44.822Z</time></trkpt><trkpt lat="41.603502" lon="0.6228793"><ele>144.5</ele><time>2026-05-04T12:17:45.823Z</time></trkpt><trkpt lat="41.6034091" lon="0.6229791"><ele>145.0</ele><time>2026-05-04T12:17:46.823Z</time></trkpt><trkpt lat="41.6033235" lon="0.6230831"><ele>145.75</ele><time>2026-05-04T12:17:47.823Z</time></trkpt><trkpt lat="41.6032422" lon="0.6231942"><ele>146.5</ele><time>2026-05-04T12:17:48.823Z</time></trkpt><trkpt lat="41.6031635" lon="0.6233118"><ele>147.25</ele><time>2026-05-04T12:17:49.823Z</time></trkpt><trkpt lat="41.6030902" lon="0.6234419"><ele>148.0</ele><time>2026-05-04T12:17:50.823Z</time></trkpt><trkpt lat="41.6030248" lon="0.6235756"><ele>148.25</ele><time>2026-05-04T12:17:51.822Z</time></trkpt><trkpt lat="41.6029686" lon="0.6237212"><ele>148.5</ele><time>2026-05-04T12:17:52.823Z</time></trkpt><trkpt lat="41.602913" lon="0.6238702"><ele>148.75</ele><time>2026-05-04T12:17:53.823Z</time></trkpt><trkpt lat="41.602861" lon="0.6240339"><ele>149.0</ele><time>2026-05-04T12:17:54.823Z</time></trkpt><trkpt lat="41.6028202" lon="0.6242065"><ele>148.5</ele><time>2026-05-04T12:17:55.823Z</time></trkpt><trkpt lat="41.6027916" lon="0.6243815"><ele>148.0</ele><time>2026-05-04T12:17:56.823Z</time></trkpt><trkpt lat="41.6027697" lon="0.624569"><ele>147.5</ele><time>2026-05-04T12:17:57.823Z</time></trkpt><trkpt lat="41.6027584" lon="0.6247563"><ele>147.0</ele><time>2026-05-04T12:17:58.823Z</time></trkpt><trkpt lat="41.6027613" lon="0.6249481"><ele>147.0</ele><time>2026-05-04T12:17:59.823Z</time></trkpt><trkpt lat="41.6027765" lon="0.6251363"><ele>147.0</ele><time>2026-05-04T12:18:00.822Z</time></trkpt><trkpt lat="41.6028006" lon="0.6253162"><ele>147.0</ele><time>2026-05-04T12:18:01.823Z</time></trkpt><trkpt lat="41.6028373" lon="0.6254939"><ele>147.0</ele><time>2026-05-04T12:18:02.823Z</time></trkpt><trkpt lat="41.6028849" lon="0.6256597"><ele>147.0</ele><time>2026-05-04T12:18:03.823Z</time></trkpt><trkpt lat="41.6029417" lon="0.6258257"><ele>147.0</ele><time>2026-05-04T12:18:04.823Z</time></trkpt><trkpt lat="41.6030034" lon="0.6259723"><ele>147.0</ele><time>2026-05-04T12:18:05.822Z</time></trkpt><trkpt lat="41.6030812" lon="0.6261196"><ele>147.0</ele><time>2026-05-04T12:18:06.823Z</time></trkpt><trkpt lat="41.6031653" lon="0.6262548"><ele>146.5</ele><time>2026-05-04T12:18:07.823Z</time></trkpt><trkpt lat="41.6032598" lon="0.6263787"><ele>146.0</ele><time>2026-05-04T12:18:08.823Z</time></trkpt><trkpt lat="41.6033622" lon="0.6264959"><ele>145.5</ele><time>2026-05-04T12:18:09.823Z</time></trkpt><trkpt lat="41.6034663" lon="0.6266062"><ele>145.0</ele><time>2026-05-04T12:18:10.823Z</time></trkpt><trkpt lat="41.6035776" lon="0.6266984"><ele>145.5</ele><time>2026-05-04T12:18:11.823Z</time></trkpt><trkpt lat="41.6036971" lon="0.6267805"><ele>146.0</ele><time>2026-05-04T12:18:12.824Z</time></trkpt><trkpt lat="41.6038211" lon="0.6268478"><ele>146.5</ele><time>2026-05-04T12:18:13.824Z</time></trkpt><trkpt lat="41.60394" lon="0.6269012"><ele>147.0</ele><time>2026-05-04T12:18:14.824Z</time></trkpt><trkpt lat="41.6040659" lon="0.6269387"><ele>147.0</ele><time>2026-05-04T12:18:15.824Z</time></trkpt><trkpt lat="41.6041938" lon="0.6269688"><ele>147.0</ele><time>2026-05-04T12:18:16.824Z</time></trkpt><trkpt lat="41.6043231" lon="0.6269931"><ele>147.0</ele><time>2026-05-04T12:18:17.824Z</time></trkpt><trkpt lat="41.6044573" lon="0.6270252"><ele>147.0</ele><time>2026-05-04T12:18:18.824Z</time></trkpt><trkpt lat="41.6045926" lon="0.6270527"><ele>147.25</ele><time>2026-05-04T12:18:19.824Z</time></trkpt><trkpt lat="41.6047196" lon="0.6270822"><ele>147.5</ele><time>2026-05-04T12:18:20.823Z</time></trkpt><trkpt lat="41.6048443" lon="0.6271182"><ele>147.75</ele><time>2026-05-04T12:18:21.824Z</time></trkpt><trkpt lat="41.6049586" lon="0.6271581"><ele>148.0</ele><time>2026-05-04T12:18:22.824Z</time></trkpt><trkpt lat="41.6050747" lon="0.6272088"><ele>148.0</ele><time>2026-05-04T12:18:23.824Z</time></trkpt><trkpt lat="41.6051777" lon="0.6272739"><ele>148.0</ele><time>2026-05-04T12:18:24.824Z</time></trkpt><trkpt lat="41.6052663" lon="0.6273425"><ele>148.0</ele><time>2026-05-04T12:18:25.823Z</time></trkpt><trkpt lat="41.6053443" lon="0.627407"><ele>148.0</ele><time>2026-05-04T12:18:26.824Z</time></trkpt><trkpt lat="41.6054109" lon="0.6274641"><ele>148.0</ele><time>2026-05-04T12:18:27.823Z</time></trkpt><trkpt lat="41.6054684" lon="0.6275225"><ele>148.16666666666669</ele><time>2026-05-04T12:18:28.824Z</time></trkpt><trkpt lat="41.6055144" lon="0.6275818"><ele>148.33333333333334</ele><time>2026-05-04T12:18:29.824Z</time></trkpt><trkpt lat="41.6055769" lon="0.6276688"><ele>148.5</ele><time>2026-05-04T12:18:31.823Z</time></trkpt><trkpt lat="41.6056345" lon="0.6277473"><ele>148.66666666666666</ele><time>2026-05-04T12:18:34.824Z</time></trkpt><trkpt lat="41.6056803" lon="0.6278093"><ele>148.83333333333331</ele><time>2026-05-04T12:18:39.824Z</time></trkpt><trkpt lat="41.6057614" lon="0.6278918"><ele>149.0</ele><time>2026-05-04T12:18:58.824Z</time></trkpt><trkpt lat="41.6058139" lon="0.6279676"><ele>149.16666666666666</ele><time>2026-05-04T12:19:01.823Z</time></trkpt><trkpt lat="41.6058685" lon="0.6280309"><ele>149.33333333333331</ele><time>2026-05-04T12:19:04.823Z</time></trkpt><trkpt lat="41.60592" lon="0.6281074"><ele>149.5</ele><time>2026-05-04T12:19:08.824Z</time></trkpt><trkpt lat="41.6059683" lon="0.6281812"><ele>149.66666666666666</ele><time>2026-05-04T12:19:11.823Z</time></trkpt><trkpt lat="41.6060048" lon="0.628259"><ele>149.83333333333334</ele><time>2026-05-04T12:19:14.824Z</time></trkpt><trkpt lat="41.6060599" lon="0.6283381"><ele>150.0</ele><time>2026-05-04T12:19:17.824Z</time></trkpt><trkpt lat="41.606113" lon="0.6284201"><ele>149.66666666666666</ele><time>2026-05-04T12:19:48.824Z</time></trkpt><trkpt lat="41.6061724" lon="0.6285415"><ele>149.33333333333334</ele><time>2026-05-04T12:19:51.824Z</time></trkpt><trkpt lat="41.6061954" lon="0.6286366"><ele>149.0</ele><time>2026-05-04T12:19:53.824Z</time></trkpt><trkpt lat="41.6062317" lon="0.628723"><ele>148.66666666666669</ele><time>2026-05-04T12:20:00.823Z</time></trkpt><trkpt lat="41.6062632" lon="0.6288238"><ele>148.33333333333334</ele><time>2026-05-04T12:20:07.823Z</time></trkpt><trkpt lat="41.6062807" lon="0.6289393"><ele>148.0</ele><time>2026-05-04T12:20:09.824Z</time></trkpt><trkpt lat="41.6063209" lon="0.6290974"><ele>147.8</ele><time>2026-05-04T12:20:11.824Z</time></trkpt><trkpt lat="41.6063959" lon="0.6292332"><ele>147.60000000000002</ele><time>2026-05-04T12:20:13.824Z</time></trkpt><trkpt lat="41.6064968" lon="0.6292919"><ele>147.39999999999998</ele><time>2026-05-04T12:20:15.824Z</time></trkpt><trkpt lat="41.6066208" lon="0.6292477"><ele>147.2</ele><time>2026-05-04T12:20:17.824Z</time></trkpt><trkpt lat="41.6066784" lon="0.6291822"><ele>147.0</ele><time>2026-05-04T12:20:18.824Z</time></trkpt><trkpt lat="41.6067268" lon="0.6291163"><ele>147.0</ele><time>2026-05-04T12:20:19.824Z</time></trkpt><trkpt lat="41.6067515" lon="0.629025"><ele>147.0</ele><time>2026-05-04T12:20:20.823Z</time></trkpt><trkpt lat="41.6067655" lon="0.6289391"><ele>147.0</ele><time>2026-05-04T12:20:21.823Z</time></trkpt><trkpt lat="41.6067687" lon="0.6288279"><ele>147.0</ele><time>2026-05-04T12:20:23.824Z</time></trkpt><trkpt lat="41.6067743" lon="0.6286814"><ele>147.0</ele><time>2026-05-04T12:20:25.825Z</time></trkpt><trkpt lat="41.6067922" lon="0.6285456"><ele>147.0</ele><time>2026-05-04T12:20:27.825Z</time></trkpt><trkpt lat="41.6068298" lon="0.6284016"><ele>147.0</ele><time>2026-05-04T12:20:29.825Z</time></trkpt><trkpt lat="41.6068652" lon="0.6282935"><ele>147.0</ele><time>2026-05-04T12:20:30.825Z</time></trkpt><trkpt lat="41.6069153" lon="0.6281937"><ele>147.0</ele><time>2026-05-04T12:20:31.824Z</time></trkpt><trkpt lat="41.606968" lon="0.6280983"><ele>147.0</ele><time>2026-05-04T12:20:32.825Z</time></trkpt><trkpt lat="41.6070191" lon="0.6279985"><ele>147.0</ele><time>2026-05-04T12:20:33.825Z</time></trkpt><trkpt lat="41.6070807" lon="0.6279102"><ele>147.0</ele><time>2026-05-04T12:20:34.825Z</time></trkpt><trkpt lat="41.6071276" lon="0.627819"><ele>147.33333333333334</ele><time>2026-05-04T12:20:35.825Z</time></trkpt><trkpt lat="41.6071845" lon="0.6277342"><ele>147.66666666666666</ele><time>2026-05-04T12:20:36.825Z</time></trkpt><trkpt lat="41.6072443" lon="0.6276584"><ele>148.0</ele><time>2026-05-04T12:20:37.825Z</time></trkpt><trkpt lat="41.6073097" lon="0.6275982"><ele>148.33333333333331</ele><time>2026-05-04T12:20:38.825Z</time></trkpt><trkpt lat="41.6073642" lon="0.6275349"><ele>148.66666666666666</ele><time>2026-05-04T12:20:39.824Z</time></trkpt><trkpt lat="41.6074064" lon="0.627472"><ele>149.0</ele><time>2026-05-04T12:20:40.825Z</time></trkpt><trkpt lat="41.6074796" lon="0.6273653"><ele>149.0</ele><time>2026-05-04T12:20:42.825Z</time></trkpt><trkpt lat="41.6075464" lon="0.6272938"><ele>149.0</ele><time>2026-05-04T12:20:44.825Z</time></trkpt><trkpt lat="41.6075971" lon="0.6272388"><ele>149.0</ele><time>2026-05-04T12:21:39.825Z</time></trkpt><trkpt lat="41.6076256" lon="0.6271211"><ele>149.0</ele><time>2026-05-04T12:21:42.824Z</time></trkpt><trkpt lat="41.6076918" lon="0.6269821"><ele>149.0</ele><time>2026-05-04T12:21:44.825Z</time></trkpt><trkpt lat="41.6077732" lon="0.6269162"><ele>149.0</ele><time>2026-05-04T12:21:45.825Z</time></trkpt><trkpt lat="41.6078348" lon="0.626825"><ele>149.0</ele><time>2026-05-04T12:21:46.825Z</time></trkpt><trkpt lat="41.6079088" lon="0.6267323"><ele>149.0</ele><time>2026-05-04T12:21:47.825Z</time></trkpt><trkpt lat="41.6079721" lon="0.6266343"><ele>149.0</ele><time>2026-05-04T12:21:48.825Z</time></trkpt><trkpt lat="41.6080362" lon="0.6265403"><ele>149.0</ele><time>2026-05-04T12:21:49.825Z</time></trkpt><trkpt lat="41.6080916" lon="0.6264507"><ele>149.0</ele><time>2026-05-04T12:21:50.825Z</time></trkpt><trkpt lat="41.6081472" lon="0.6263639"><ele>149.0</ele><time>2026-05-04T12:21:51.825Z</time></trkpt><trkpt lat="41.6082056" lon="0.6262748"><ele>149.0</ele><time>2026-05-04T12:21:52.825Z</time></trkpt><trkpt lat="41.6082523" lon="0.6261924"><ele>149.0</ele><time>2026-05-04T12:21:53.824Z</time></trkpt><trkpt lat="41.6083039" lon="0.6261206"><ele>149.0</ele><time>2026-05-04T12:21:54.825Z</time></trkpt><trkpt lat="41.6083774" lon="0.6260135"><ele>149.0</ele><time>2026-05-04T12:21:56.825Z</time></trkpt><trkpt lat="41.6084492" lon="0.6260058"><ele>148.71428571428572</ele><time>2026-05-04T12:21:58.825Z</time></trkpt><trkpt lat="41.608513" lon="0.626063"><ele>148.42857142857142</ele><time>2026-05-04T12:22:00.825Z</time></trkpt><trkpt lat="41.608585" lon="0.626101"><ele>148.14285714285714</ele><time>2026-05-04T12:22:02.825Z</time></trkpt><trkpt lat="41.6086508" lon="0.6261213"><ele>147.85714285714286</ele><time>2026-05-04T12:22:04.825Z</time></trkpt><trkpt lat="41.6087172" lon="0.6261511"><ele>147.57142857142856</ele><time>2026-05-04T12:22:06.825Z</time></trkpt><trkpt lat="41.6087817" lon="0.6261945"><ele>147.28571428571428</ele><time>2026-05-04T12:22:08.825Z</time></trkpt><trkpt lat="41.6088398" lon="0.6262418"><ele>147.0</ele><time>2026-05-04T12:22:11.825Z</time></trkpt><trkpt lat="41.6088603" lon="0.6261549"><ele>146.85714285714286</ele><time>2026-05-04T12:22:59.825Z</time></trkpt><trkpt lat="41.608888" lon="0.6260581"><ele>146.71428571428572</ele><time>2026-05-04T12:23:14.826Z</time></trkpt><trkpt lat="41.6089141" lon="0.6259784"><ele>146.57142857142856</ele><time>2026-05-04T12:23:16.826Z</time></trkpt><trkpt lat="41.6089528" lon="0.6259005"><ele>146.42857142857144</ele><time>2026-05-04T12:23:18.826Z</time></trkpt><trkpt lat="41.6089019" lon="0.6259707"><ele>146.28571428571428</ele><time>2026-05-04T12:23:25.826Z</time></trkpt><trkpt lat="41.6088714" lon="0.6260784"><ele>146.14285714285714</ele><time>2026-05-04T12:23:28.826Z</time></trkpt><trkpt lat="41.6088084" lon="0.6261169"><ele>146.0</ele><time>2026-05-04T12:23:37.825Z</time></trkpt><trkpt lat="41.6087396" lon="0.626077"><ele>146.0</ele><time>2026-05-04T12:23:39.826Z</time></trkpt><trkpt lat="41.6086715" lon="0.6260396"><ele>146.0</ele><time>2026-05-04T12:23:41.826Z</time></trkpt><trkpt lat="41.6086056" lon="0.6260003"><ele>146.0</ele><time>2026-05-04T12:23:43.826Z</time></trkpt><trkpt lat="41.6085425" lon="0.6259443"><ele>146.0</ele><time>2026-05-04T12:23:46.826Z</time></trkpt><trkpt lat="41.60854" lon="0.6258583"><ele>146.0</ele><time>2026-05-04T12:23:49.826Z</time></trkpt><trkpt lat="41.6085638" lon="0.625777"><ele>146.0</ele><time>2026-05-04T12:23:53.826Z</time></trkpt><trkpt lat="41.6086288" lon="0.6257322"><ele>146.0</ele><time>2026-05-04T12:24:41.826Z</time></trkpt><trkpt lat="41.6086862" lon="0.6256781"><ele>146.0</ele><time>2026-05-04T12:24:43.826Z</time></trkpt><trkpt lat="41.6086388" lon="0.6257552"><ele>146.0</ele><time>2026-05-04T12:28:40.945Z</time></trkpt><trkpt lat="41.6086584" lon="0.6258392"><ele>146.0</ele><time>2026-05-04T12:28:54.895Z</time></trkpt><trkpt lat="41.6088442" lon="0.6258133"><ele>146.0</ele><time>2026-05-04T12:30:15.707Z</time></trkpt><trkpt lat="41.6089056" lon="0.6266398"><ele>146.0</ele><time>2026-05-04T12:30:40.829Z</time></trkpt><trkpt lat="41.6087244" lon="0.6261043"><ele>146.0</ele><time>2026-05-04T12:32:57.381Z</time></trkpt><trkpt lat="41.6087808" lon="0.6260312"><ele>146.25</ele><time>2026-05-04T12:33:02.408Z</time></trkpt><trkpt lat="41.6088496" lon="0.6261824"><ele>146.5</ele><time>2026-05-04T12:33:22.889Z</time></trkpt><trkpt lat="41.6088132" lon="0.6262792"><ele>146.75</ele><time>2026-05-04T12:33:27.899Z</time></trkpt><trkpt lat="41.6089506" lon="0.6263696"><ele>147.0</ele><time>2026-05-04T12:34:03.83Z</time></trkpt><trkpt lat="41.6089752" lon="0.6265208"><ele>147.0</ele><time>2026-05-04T12:34:04.83Z</time></trkpt><trkpt lat="41.6089933" lon="0.6266861"><ele>147.0</ele><time>2026-05-04T12:34:05.83Z</time></trkpt><trkpt lat="41.6090076" lon="0.6268116"><ele>147.0</ele><time>2026-05-04T12:34:06.831Z</time></trkpt><trkpt lat="41.6090203" lon="0.6269237"><ele>147.0</ele><time>2026-05-04T12:34:07.83Z</time></trkpt><trkpt lat="41.6090702" lon="0.6270965"><ele>147.0</ele><time>2026-05-04T12:34:13.831Z</time></trkpt><trkpt lat="41.6091105" lon="0.627191"><ele>148.33333333333334</ele><time>2026-05-04T12:34:17.831Z</time></trkpt><trkpt lat="41.6091787" lon="0.6273986"><ele>149.66666666666669</ele><time>2026-05-04T12:34:22.452Z</time></trkpt><trkpt lat="41.6092515" lon="0.6276098"><ele>151.0</ele><time>2026-05-04T12:34:27.509Z</time></trkpt><trkpt lat="41.6093151" lon="0.627788"><ele>147.0</ele><time>2026-05-04T12:34:32.632Z</time></trkpt><trkpt lat="41.6089278" lon="0.6268128"><ele>147.0</ele><time>2026-05-04T12:34:37.645Z</time></trkpt><trkpt lat="41.6088494" lon="0.6263877"><ele>147.0</ele><time>2026-05-04T12:34:42.665Z</time></trkpt><trkpt lat="41.6087886" lon="0.6261341"><ele>146.0</ele><time>2026-05-04T12:34:47.808Z</time></trkpt><trkpt lat="41.6086837" lon="0.6258285"><ele>146.0</ele><time>2026-05-04T12:34:54.224Z</time></trkpt><trkpt lat="41.6087205" lon="0.6257251"><ele>146.0</ele><time>2026-05-04T12:35:00.831Z</time></trkpt><trkpt lat="41.6086934" lon="0.6258447"><ele>146.0</ele><time>2026-05-04T12:35:38.898Z</time></trkpt></trkseg><trkseg><trkpt lat="41.6086935" lon="0.6256737"><ele>146.0</ele><time>2026-05-04T13:46:50.898Z</time></trkpt><trkpt lat="41.6086455" lon="0.6257292"><ele>146.0</ele><time>2026-05-04T13:50:12.905Z</time></trkpt><trkpt lat="41.6085853" lon="0.6257796"><ele>146.0</ele><time>2026-05-04T13:55:43.911Z</time></trkpt><trkpt lat="41.6085269" lon="0.6258535"><ele>146.0</ele><time>2026-05-04T13:55:51.874Z</time></trkpt><trkpt lat="41.6085745" lon="0.6259303"><ele>146.0</ele><time>2026-05-04T13:56:19.908Z</time></trkpt><trkpt lat="41.6086516" lon="0.6259757"><ele>146.0</ele><time>2026-05-04T13:56:22.875Z</time></trkpt><trkpt lat="41.6087328" lon="0.6260159"><ele>146.0</ele><time>2026-05-04T13:56:25.875Z</time></trkpt><trkpt lat="41.6088072" lon="0.6260507"><ele>146.0</ele><time>2026-05-04T13:56:28.874Z</time></trkpt><trkpt lat="41.6088188" lon="0.6261471"><ele>146.0</ele><time>2026-05-04T13:56:58.875Z</time></trkpt><trkpt lat="41.608747" lon="0.6261394"><ele>146.0</ele><time>2026-05-04T13:57:01.875Z</time></trkpt><trkpt lat="41.6086893" lon="0.6260932"><ele>146.0</ele><time>2026-05-04T13:57:03.874Z</time></trkpt><trkpt lat="41.6086202" lon="0.6261055"><ele>146.0</ele><time>2026-05-04T13:58:25.876Z</time></trkpt><trkpt lat="41.6085549" lon="0.6260723"><ele>146.0</ele><time>2026-05-04T13:58:28.876Z</time></trkpt><trkpt lat="41.6084907" lon="0.6260318"><ele>146.0</ele><time>2026-05-04T13:58:30.876Z</time></trkpt><trkpt lat="41.6084213" lon="0.6259836"><ele>146.0</ele><time>2026-05-04T13:58:32.876Z</time></trkpt><trkpt lat="41.6083314" lon="0.6259676"><ele>146.0</ele><time>2026-05-04T13:58:34.876Z</time></trkpt><trkpt lat="41.6082617" lon="0.6260532"><ele>146.0</ele><time>2026-05-04T13:58:36.876Z</time></trkpt><trkpt lat="41.6081892" lon="0.6261764"><ele>146.0</ele><time>2026-05-04T13:58:38.876Z</time></trkpt><trkpt lat="41.6081281" lon="0.6262748"><ele>146.33333333333331</ele><time>2026-05-04T13:58:40.875Z</time></trkpt><trkpt lat="41.6080886" lon="0.6263502"><ele>146.66666666666666</ele><time>2026-05-04T13:58:54.876Z</time></trkpt><trkpt lat="41.6080313" lon="0.6264354"><ele>147.0</ele><time>2026-05-04T13:58:56.875Z</time></trkpt><trkpt lat="41.6079843" lon="0.6265066"><ele>147.33333333333334</ele><time>2026-05-04T13:58:57.876Z</time></trkpt><trkpt lat="41.607934" lon="0.6265885"><ele>147.66666666666669</ele><time>2026-05-04T13:58:58.876Z</time></trkpt><trkpt lat="41.6078758" lon="0.6266711"><ele>148.0</ele><time>2026-05-04T13:58:59.876Z</time></trkpt><trkpt lat="41.6078186" lon="0.6267597"><ele>148.0</ele><time>2026-05-04T13:59:00.876Z</time></trkpt><trkpt lat="41.6077559" lon="0.6268685"><ele>148.0</ele><time>2026-05-04T13:59:01.876Z</time></trkpt><trkpt lat="41.6076917" lon="0.6269763"><ele>148.0</ele><time>2026-05-04T13:59:02.876Z</time></trkpt><trkpt lat="41.6076249" lon="0.6270843"><ele>148.0</ele><time>2026-05-04T13:59:03.876Z</time></trkpt><trkpt lat="41.6075586" lon="0.6271868"><ele>148.0</ele><time>2026-05-04T13:59:04.875Z</time></trkpt><trkpt lat="41.607494" lon="0.6272927"><ele>148.16666666666669</ele><time>2026-05-04T13:59:05.875Z</time></trkpt><trkpt lat="41.6074316" lon="0.627396"><ele>148.33333333333334</ele><time>2026-05-04T13:59:06.876Z</time></trkpt><trkpt lat="41.6073702" lon="0.6275024"><ele>148.5</ele><time>2026-05-04T13:59:07.876Z</time></trkpt><trkpt lat="41.6073188" lon="0.6276014"><ele>148.66666666666666</ele><time>2026-05-04T13:59:08.876Z</time></trkpt><trkpt lat="41.607272" lon="0.627691"><ele>148.83333333333331</ele><time>2026-05-04T13:59:09.876Z</time></trkpt><trkpt lat="41.6072342" lon="0.6277703"><ele>149.0</ele><time>2026-05-04T13:59:10.876Z</time></trkpt><trkpt lat="41.6072011" lon="0.6278443"><ele>148.8</ele><time>2026-05-04T13:59:11.876Z</time></trkpt><trkpt lat="41.6071356" lon="0.6279476"><ele>148.60000000000002</ele><time>2026-05-04T13:59:13.875Z</time></trkpt><trkpt lat="41.6070853" lon="0.6280151"><ele>148.4</ele><time>2026-05-04T13:59:15.876Z</time></trkpt><trkpt lat="41.6070286" lon="0.6280751"><ele>148.20000000000002</ele><time>2026-05-04T13:59:21.876Z</time></trkpt><trkpt lat="41.606975" lon="0.6281701"><ele>148.0</ele><time>2026-05-04T13:59:23.876Z</time></trkpt><trkpt lat="41.6068952" lon="0.6283025"><ele>148.0</ele><time>2026-05-04T13:59:25.876Z</time></trkpt><trkpt lat="41.6068501" lon="0.6283806"><ele>148.0</ele><time>2026-05-04T13:59:26.876Z</time></trkpt><trkpt lat="41.6068074" lon="0.6284524"><ele>148.0</ele><time>2026-05-04T13:59:27.876Z</time></trkpt><trkpt lat="41.6067606" lon="0.6285134"><ele>148.0</ele><time>2026-05-04T13:59:28.876Z</time></trkpt><trkpt lat="41.6066865" lon="0.6286106"><ele>148.0</ele><time>2026-05-04T13:59:30.876Z</time></trkpt><trkpt lat="41.6065988" lon="0.6286805"><ele>148.0</ele><time>2026-05-04T13:59:33.906Z</time></trkpt><trkpt lat="41.6064885" lon="0.6287263"><ele>147.85714285714286</ele><time>2026-05-04T13:59:35.876Z</time></trkpt><trkpt lat="41.6064207" lon="0.6287631"><ele>147.71428571428572</ele><time>2026-05-04T13:59:36.876Z</time></trkpt><trkpt lat="41.606363" lon="0.6288247"><ele>147.57142857142856</ele><time>2026-05-04T13:59:37.876Z</time></trkpt><trkpt lat="41.6063289" lon="0.6289032"><ele>147.42857142857144</ele><time>2026-05-04T13:59:38.876Z</time></trkpt><trkpt lat="41.6063208" lon="0.6289942"><ele>147.28571428571428</ele><time>2026-05-04T13:59:39.875Z</time></trkpt><trkpt lat="41.6063306" lon="0.6290801"><ele>147.14285714285714</ele><time>2026-05-04T13:59:40.876Z</time></trkpt><trkpt lat="41.6063669" lon="0.6291546"><ele>147.0</ele><time>2026-05-04T13:59:41.876Z</time></trkpt><trkpt lat="41.6064199" lon="0.629211"><ele>147.0</ele><time>2026-05-04T13:59:42.876Z</time></trkpt><trkpt lat="41.6064869" lon="0.6292581"><ele>147.0</ele><time>2026-05-04T13:59:43.876Z</time></trkpt><trkpt lat="41.6065697" lon="0.6293003"><ele>147.0</ele><time>2026-05-04T13:59:44.876Z</time></trkpt><trkpt lat="41.606648" lon="0.6293596"><ele>147.0</ele><time>2026-05-04T13:59:45.876Z</time></trkpt><trkpt lat="41.6067176" lon="0.6294545"><ele>147.0</ele><time>2026-05-04T13:59:46.876Z</time></trkpt><trkpt lat="41.6067711" lon="0.6295652"><ele>146.4</ele><time>2026-05-04T13:59:47.876Z</time></trkpt><trkpt lat="41.6068168" lon="0.6296923"><ele>145.79999999999998</ele><time>2026-05-04T13:59:48.876Z</time></trkpt><trkpt lat="41.6068625" lon="0.62983"><ele>145.2</ele><time>2026-05-04T13:59:49.907Z</time></trkpt><trkpt lat="41.6068999" lon="0.6299667"><ele>144.6</ele><time>2026-05-04T13:59:50.876Z</time></trkpt><trkpt lat="41.6069419" lon="0.6300877"><ele>144.0</ele><time>2026-05-04T13:59:51.875Z</time></trkpt><trkpt lat="41.6069854" lon="0.6302117"><ele>144.0</ele><time>2026-05-04T13:59:52.876Z</time></trkpt><trkpt lat="41.607026" lon="0.6303375"><ele>144.0</ele><time>2026-05-04T13:59:53.876Z</time></trkpt><trkpt lat="41.607067" lon="0.6304664"><ele>144.0</ele><time>2026-05-04T13:59:54.876Z</time></trkpt><trkpt lat="41.6071061" lon="0.6306038"><ele>144.0</ele><time>2026-05-04T13:59:55.876Z</time></trkpt><trkpt lat="41.6071448" lon="0.6307417"><ele>144.0</ele><time>2026-05-04T13:59:56.875Z</time></trkpt><trkpt lat="41.6071793" lon="0.6308658"><ele>144.0</ele><time>2026-05-04T13:59:57.876Z</time></trkpt><trkpt lat="41.607214" lon="0.6309806"><ele>144.0</ele><time>2026-05-04T13:59:58.876Z</time></trkpt><trkpt lat="41.6072488" lon="0.6310897"><ele>144.0</ele><time>2026-05-04T13:59:59.875Z</time></trkpt><trkpt lat="41.6072858" lon="0.631198"><ele>144.0</ele><time>2026-05-04T14:00:00.876Z</time></trkpt><trkpt lat="41.6073197" lon="0.6313053"><ele>144.0</ele><time>2026-05-04T14:00:01.876Z</time></trkpt><trkpt lat="41.607357" lon="0.6314145"><ele>144.0</ele><time>2026-05-04T14:00:02.876Z</time></trkpt><trkpt lat="41.6073982" lon="0.6315299"><ele>144.2</ele><time>2026-05-04T14:00:03.876Z</time></trkpt><trkpt lat="41.6074377" lon="0.6316477"><ele>144.4</ele><time>2026-05-04T14:00:04.875Z</time></trkpt><trkpt lat="41.6074757" lon="0.6317699"><ele>144.6</ele><time>2026-05-04T14:00:05.876Z</time></trkpt><trkpt lat="41.6075177" lon="0.6318934"><ele>144.8</ele><time>2026-05-04T14:00:06.876Z</time></trkpt><trkpt lat="41.6075598" lon="0.632017"><ele>145.0</ele><time>2026-05-04T14:00:07.876Z</time></trkpt><trkpt lat="41.6076013" lon="0.6321387"><ele>145.33333333333334</ele><time>2026-05-04T14:00:08.876Z</time></trkpt><trkpt lat="41.6076407" lon="0.6322541"><ele>145.66666666666669</ele><time>2026-05-04T14:00:09.876Z</time></trkpt><trkpt lat="41.6076732" lon="0.6323597"><ele>146.0</ele><time>2026-05-04T14:00:10.876Z</time></trkpt><trkpt lat="41.6077071" lon="0.6324607"><ele>146.33333333333334</ele><time>2026-05-04T14:00:11.876Z</time></trkpt><trkpt lat="41.6077417" lon="0.6325642"><ele>146.66666666666666</ele><time>2026-05-04T14:00:12.876Z</time></trkpt><trkpt lat="41.6077778" lon="0.6326762"><ele>147.0</ele><time>2026-05-04T14:00:13.876Z</time></trkpt><trkpt lat="41.6078137" lon="0.632786"><ele>146.79999999999998</ele><time>2026-05-04T14:00:14.876Z</time></trkpt><trkpt lat="41.607854" lon="0.6328971"><ele>146.6</ele><time>2026-05-04T14:00:15.876Z</time></trkpt><trkpt lat="41.6078938" lon="0.6330147"><ele>146.39999999999998</ele><time>2026-05-04T14:00:16.876Z</time></trkpt><trkpt lat="41.6079343" lon="0.6331386"><ele>146.2</ele><time>2026-05-04T14:00:17.876Z</time></trkpt><trkpt lat="41.6079789" lon="0.6332655"><ele>146.0</ele><time>2026-05-04T14:00:18.876Z</time></trkpt><trkpt lat="41.6080234" lon="0.6333954"><ele>146.0</ele><time>2026-05-04T14:00:19.876Z</time></trkpt><trkpt lat="41.6080712" lon="0.6335279"><ele>146.0</ele><time>2026-05-04T14:00:20.875Z</time></trkpt><trkpt lat="41.6081184" lon="0.6336628"><ele>146.0</ele><time>2026-05-04T14:00:21.875Z</time></trkpt><trkpt lat="41.608161" lon="0.6338027"><ele>146.0</ele><time>2026-05-04T14:00:22.876Z</time></trkpt><trkpt lat="41.6082104" lon="0.633945"><ele>146.5</ele><time>2026-05-04T14:00:23.876Z</time></trkpt><trkpt lat="41.6082576" lon="0.6340889"><ele>147.0</ele><time>2026-05-04T14:00:24.876Z</time></trkpt><trkpt lat="41.6083094" lon="0.6342433"><ele>147.5</ele><time>2026-05-04T14:00:25.876Z</time></trkpt><trkpt lat="41.6083573" lon="0.6343838"><ele>148.0</ele><time>2026-05-04T14:00:26.876Z</time></trkpt><trkpt lat="41.6084076" lon="0.6345182"><ele>148.0</ele><time>2026-05-04T14:00:27.876Z</time></trkpt><trkpt lat="41.608447" lon="0.6346435"><ele>148.0</ele><time>2026-05-04T14:00:28.876Z</time></trkpt><trkpt lat="41.6084912" lon="0.6347702"><ele>148.0</ele><time>2026-05-04T14:00:29.876Z</time></trkpt><trkpt lat="41.6085415" lon="0.6349045"><ele>148.0</ele><time>2026-05-04T14:00:30.876Z</time></trkpt><trkpt lat="41.6085865" lon="0.6350349"><ele>148.0</ele><time>2026-05-04T14:00:31.876Z</time></trkpt><trkpt lat="41.6086256" lon="0.6351624"><ele>148.4</ele><time>2026-05-04T14:00:32.876Z</time></trkpt><trkpt lat="41.6086663" lon="0.6352924"><ele>148.8</ele><time>2026-05-04T14:00:33.876Z</time></trkpt><trkpt lat="41.6087059" lon="0.6354112"><ele>149.2</ele><time>2026-05-04T14:00:34.876Z</time></trkpt><trkpt lat="41.6087441" lon="0.6355265"><ele>149.6</ele><time>2026-05-04T14:00:35.875Z</time></trkpt><trkpt lat="41.6087837" lon="0.6356341"><ele>150.0</ele><time>2026-05-04T14:00:36.876Z</time></trkpt><trkpt lat="41.6088209" lon="0.6357413"><ele>150.2</ele><time>2026-05-04T14:00:37.876Z</time></trkpt><trkpt lat="41.6088601" lon="0.6358587"><ele>150.4</ele><time>2026-05-04T14:00:38.876Z</time></trkpt><trkpt lat="41.6088952" lon="0.635979"><ele>150.6</ele><time>2026-05-04T14:00:39.875Z</time></trkpt><trkpt lat="41.6089374" lon="0.6361021"><ele>150.8</ele><time>2026-05-04T14:00:40.876Z</time></trkpt><trkpt lat="41.6089772" lon="0.636221"><ele>151.0</ele><time>2026-05-04T14:00:41.876Z</time></trkpt><trkpt lat="41.6090183" lon="0.6363363"><ele>151.0</ele><time>2026-05-04T14:00:42.876Z</time></trkpt><trkpt lat="41.6090613" lon="0.6364488"><ele>151.0</ele><time>2026-05-04T14:00:43.876Z</time></trkpt><trkpt lat="41.6091004" lon="0.6365673"><ele>151.0</ele><time>2026-05-04T14:00:44.876Z</time></trkpt><trkpt lat="41.6091375" lon="0.6366886"><ele>151.0</ele><time>2026-05-04T14:00:45.875Z</time></trkpt><trkpt lat="41.6091761" lon="0.6368078"><ele>151.0</ele><time>2026-05-04T14:00:46.876Z</time></trkpt><trkpt lat="41.6092173" lon="0.6369299"><ele>150.4</ele><time>2026-05-04T14:00:47.876Z</time></trkpt><trkpt lat="41.6092538" lon="0.637056"><ele>149.8</ele><time>2026-05-04T14:00:48.876Z</time></trkpt><trkpt lat="41.6092922" lon="0.6371773"><ele>149.20000000000002</ele><time>2026-05-04T14:00:49.876Z</time></trkpt><trkpt lat="41.6093335" lon="0.6372944"><ele>148.6</ele><time>2026-05-04T14:00:50.876Z</time></trkpt><trkpt lat="41.6093709" lon="0.6374132"><ele>148.0</ele><time>2026-05-04T14:00:51.876Z</time></trkpt><trkpt lat="41.6094069" lon="0.6375241"><ele>148.0</ele><time>2026-05-04T14:00:52.876Z</time></trkpt><trkpt lat="41.6094437" lon="0.6376362"><ele>148.0</ele><time>2026-05-04T14:00:53.876Z</time></trkpt><trkpt lat="41.6094829" lon="0.6377471"><ele>148.0</ele><time>2026-05-04T14:00:54.876Z</time></trkpt><trkpt lat="41.6095224" lon="0.6378606"><ele>148.0</ele><time>2026-05-04T14:00:55.875Z</time></trkpt><trkpt lat="41.6095625" lon="0.6379804"><ele>148.0</ele><time>2026-05-04T14:00:56.876Z</time></trkpt><trkpt lat="41.6096018" lon="0.6380943"><ele>148.0</ele><time>2026-05-04T14:00:57.876Z</time></trkpt><trkpt lat="41.6096404" lon="0.6382114"><ele>148.0</ele><time>2026-05-04T14:00:58.876Z</time></trkpt><trkpt lat="41.609682" lon="0.6383246"><ele>148.0</ele><time>2026-05-04T14:00:59.877Z</time></trkpt><trkpt lat="41.6097224" lon="0.6384393"><ele>148.0</ele><time>2026-05-04T14:01:00.877Z</time></trkpt><trkpt lat="41.609761" lon="0.6385523"><ele>148.0</ele><time>2026-05-04T14:01:01.876Z</time></trkpt><trkpt lat="41.6098025" lon="0.6386783"><ele>148.0</ele><time>2026-05-04T14:01:02.877Z</time></trkpt><trkpt lat="41.6098436" lon="0.6388033"><ele>148.0</ele><time>2026-05-04T14:01:03.877Z</time></trkpt><trkpt lat="41.6098842" lon="0.6389298"><ele>148.0</ele><time>2026-05-04T14:01:04.876Z</time></trkpt><trkpt lat="41.6099215" lon="0.6390462"><ele>148.0</ele><time>2026-05-04T14:01:05.877Z</time></trkpt><trkpt lat="41.609959" lon="0.6391633"><ele>148.0</ele><time>2026-05-04T14:01:06.877Z</time></trkpt><trkpt lat="41.6100002" lon="0.6392815"><ele>148.0</ele><time>2026-05-04T14:01:07.877Z</time></trkpt><trkpt lat="41.6100435" lon="0.6394028"><ele>148.0</ele><time>2026-05-04T14:01:08.876Z</time></trkpt><trkpt lat="41.6100818" lon="0.6395255"><ele>148.0</ele><time>2026-05-04T14:01:09.877Z</time></trkpt><trkpt lat="41.6101121" lon="0.6396502"><ele>148.0</ele><time>2026-05-04T14:01:10.876Z</time></trkpt><trkpt lat="41.6101301" lon="0.6397742"><ele>148.0</ele><time>2026-05-04T14:01:11.876Z</time></trkpt><trkpt lat="41.6101297" lon="0.6398921"><ele>148.0</ele><time>2026-05-04T14:01:12.877Z</time></trkpt><trkpt lat="41.6101093" lon="0.6400036"><ele>148.0</ele><time>2026-05-04T14:01:13.877Z</time></trkpt><trkpt lat="41.6100832" lon="0.6401175"><ele>148.0</ele><time>2026-05-04T14:01:14.877Z</time></trkpt><trkpt lat="41.6100708" lon="0.6402461"><ele>148.0</ele><time>2026-05-04T14:01:15.877Z</time></trkpt><trkpt lat="41.61008" lon="0.6403611"><ele>148.0</ele><time>2026-05-04T14:01:16.877Z</time></trkpt><trkpt lat="41.6101123" lon="0.6404777"><ele>148.0</ele><time>2026-05-04T14:01:17.877Z</time></trkpt><trkpt lat="41.6101613" lon="0.6405598"><ele>148.0</ele><time>2026-05-04T14:01:18.877Z</time></trkpt><trkpt lat="41.6102234" lon="0.6406248"><ele>148.0</ele><time>2026-05-04T14:01:19.877Z</time></trkpt><trkpt lat="41.6102849" lon="0.6406754"><ele>148.0</ele><time>2026-05-04T14:01:20.876Z</time></trkpt><trkpt lat="41.6103674" lon="0.6407073"><ele>148.0</ele><time>2026-05-04T14:01:21.877Z</time></trkpt><trkpt lat="41.6104447" lon="0.6407606"><ele>148.0</ele><time>2026-05-04T14:01:22.877Z</time></trkpt><trkpt lat="41.6105042" lon="0.6408349"><ele>148.0</ele><time>2026-05-04T14:01:23.877Z</time></trkpt><trkpt lat="41.6105521" lon="0.6409349"><ele>148.0</ele><time>2026-05-04T14:01:24.877Z</time></trkpt><trkpt lat="41.6105894" lon="0.641045"><ele>148.0</ele><time>2026-05-04T14:01:25.877Z</time></trkpt><trkpt lat="41.6106278" lon="0.6411604"><ele>148.0</ele><time>2026-05-04T14:01:26.877Z</time></trkpt><trkpt lat="41.610665" lon="0.64128"><ele>148.0</ele><time>2026-05-04T14:01:27.876Z</time></trkpt><trkpt lat="41.6107012" lon="0.6413947"><ele>148.20000000000002</ele><time>2026-05-04T14:01:28.877Z</time></trkpt><trkpt lat="41.6107378" lon="0.6415069"><ele>148.4</ele><time>2026-05-04T14:01:29.877Z</time></trkpt><trkpt lat="41.6107782" lon="0.6416249"><ele>148.60000000000002</ele><time>2026-05-04T14:01:30.877Z</time></trkpt><trkpt lat="41.6108145" lon="0.6417421"><ele>148.8</ele><time>2026-05-04T14:01:31.877Z</time></trkpt><trkpt lat="41.6108509" lon="0.641854"><ele>149.0</ele><time>2026-05-04T14:01:32.876Z</time></trkpt><trkpt lat="41.6108907" lon="0.6419656"><ele>149.0</ele><time>2026-05-04T14:01:33.877Z</time></trkpt><trkpt lat="41.6109274" lon="0.642079"><ele>149.0</ele><time>2026-05-04T14:01:34.877Z</time></trkpt><trkpt lat="41.6109669" lon="0.642191"><ele>149.0</ele><time>2026-05-04T14:01:35.877Z</time></trkpt><trkpt lat="41.6110055" lon="0.6423036"><ele>149.0</ele><time>2026-05-04T14:01:36.877Z</time></trkpt><trkpt lat="41.6110439" lon="0.6424155"><ele>149.0</ele><time>2026-05-04T14:01:37.877Z</time></trkpt><trkpt lat="41.6110826" lon="0.642534"><ele>149.0</ele><time>2026-05-04T14:01:38.877Z</time></trkpt><trkpt lat="41.6111224" lon="0.6426546"><ele>149.0</ele><time>2026-05-04T14:01:39.877Z</time></trkpt><trkpt lat="41.6111624" lon="0.642779"><ele>149.0</ele><time>2026-05-04T14:01:40.877Z</time></trkpt><trkpt lat="41.6112044" lon="0.6429086"><ele>149.0</ele><time>2026-05-04T14:01:41.876Z</time></trkpt><trkpt lat="41.6112478" lon="0.6430409"><ele>149.0</ele><time>2026-05-04T14:01:42.876Z</time></trkpt><trkpt lat="41.6112944" lon="0.6431766"><ele>150.0</ele><time>2026-05-04T14:01:43.877Z</time></trkpt><trkpt lat="41.6113388" lon="0.6433116"><ele>151.0</ele><time>2026-05-04T14:01:44.877Z</time></trkpt><trkpt lat="41.6113869" lon="0.6434496"><ele>152.0</ele><time>2026-05-04T14:01:45.877Z</time></trkpt><trkpt lat="41.6114317" lon="0.6435831"><ele>153.0</ele><time>2026-05-04T14:01:46.877Z</time></trkpt><trkpt lat="41.6114724" lon="0.6437036"><ele>154.0</ele><time>2026-05-04T14:01:47.877Z</time></trkpt><trkpt lat="41.6115182" lon="0.6438326"><ele>154.0</ele><time>2026-05-04T14:01:48.877Z</time></trkpt><trkpt lat="41.6115625" lon="0.6439627"><ele>154.0</ele><time>2026-05-04T14:01:49.877Z</time></trkpt><trkpt lat="41.6116057" lon="0.6440882"><ele>154.0</ele><time>2026-05-04T14:01:50.877Z</time></trkpt><trkpt lat="41.6116465" lon="0.644213"><ele>154.0</ele><time>2026-05-04T14:01:51.876Z</time></trkpt><trkpt lat="41.6116864" lon="0.6443459"><ele>154.0</ele><time>2026-05-04T14:01:52.877Z</time></trkpt><trkpt lat="41.6117288" lon="0.6444653"><ele>153.2</ele><time>2026-05-04T14:01:53.877Z</time></trkpt><trkpt lat="41.61177" lon="0.6445896"><ele>152.4</ele><time>2026-05-04T14:01:54.877Z</time></trkpt><trkpt lat="41.6118141" lon="0.6447154"><ele>151.6</ele><time>2026-05-04T14:01:55.876Z</time></trkpt><trkpt lat="41.6118546" lon="0.6448457"><ele>150.8</ele><time>2026-05-04T14:01:56.877Z</time></trkpt><trkpt lat="41.6118968" lon="0.6449742"><ele>150.0</ele><time>2026-05-04T14:01:57.876Z</time></trkpt><trkpt lat="41.6119429" lon="0.6450964"><ele>150.0</ele><time>2026-05-04T14:01:58.877Z</time></trkpt><trkpt lat="41.6119871" lon="0.6452237"><ele>150.0</ele><time>2026-05-04T14:01:59.877Z</time></trkpt><trkpt lat="41.6120268" lon="0.6453488"><ele>150.0</ele><time>2026-05-04T14:02:00.877Z</time></trkpt><trkpt lat="41.6120793" lon="0.6454583"><ele>150.0</ele><time>2026-05-04T14:02:01.877Z</time></trkpt><trkpt lat="41.6121141" lon="0.6455744"><ele>150.0</ele><time>2026-05-04T14:02:02.877Z</time></trkpt><trkpt lat="41.6121529" lon="0.6456932"><ele>150.8</ele><time>2026-05-04T14:02:03.876Z</time></trkpt><trkpt lat="41.6121917" lon="0.6458077"><ele>151.6</ele><time>2026-05-04T14:02:04.877Z</time></trkpt><trkpt lat="41.6122314" lon="0.645924"><ele>152.4</ele><time>2026-05-04T14:02:05.876Z</time></trkpt><trkpt lat="41.6122713" lon="0.6460405"><ele>153.2</ele><time>2026-05-04T14:02:06.877Z</time></trkpt><trkpt lat="41.6123084" lon="0.6461599"><ele>154.0</ele><time>2026-05-04T14:02:07.877Z</time></trkpt><trkpt lat="41.6123472" lon="0.6462773"><ele>154.8</ele><time>2026-05-04T14:02:08.877Z</time></trkpt><trkpt lat="41.6123885" lon="0.6463955"><ele>155.60000000000002</ele><time>2026-05-04T14:02:09.877Z</time></trkpt><trkpt lat="41.612431" lon="0.6465155"><ele>156.4</ele><time>2026-05-04T14:02:10.877Z</time></trkpt><trkpt lat="41.6124745" lon="0.6466397"><ele>157.20000000000002</ele><time>2026-05-04T14:02:11.877Z</time></trkpt><trkpt lat="41.6125153" lon="0.6467658"><ele>158.0</ele><time>2026-05-04T14:02:12.877Z</time></trkpt><trkpt lat="41.6125567" lon="0.6468911"><ele>158.20000000000002</ele><time>2026-05-04T14:02:13.877Z</time></trkpt><trkpt lat="41.6126002" lon="0.6470175"><ele>158.4</ele><time>2026-05-04T14:02:14.877Z</time></trkpt><trkpt lat="41.6126435" lon="0.6471507"><ele>158.60000000000002</ele><time>2026-05-04T14:02:15.877Z</time></trkpt><trkpt lat="41.6126879" lon="0.6472845"><ele>158.8</ele><time>2026-05-04T14:02:16.876Z</time></trkpt><trkpt lat="41.6127255" lon="0.6474112"><ele>159.0</ele><time>2026-05-04T14:02:17.876Z</time></trkpt><trkpt lat="41.6127682" lon="0.6475355"><ele>159.0</ele><time>2026-05-04T14:02:18.877Z</time></trkpt><trkpt lat="41.6128124" lon="0.6476615"><ele>159.0</ele><time>2026-05-04T14:02:19.877Z</time></trkpt><trkpt lat="41.6128477" lon="0.6477845"><ele>159.0</ele><time>2026-05-04T14:02:20.876Z</time></trkpt><trkpt lat="41.612889" lon="0.647908"><ele>159.0</ele><time>2026-05-04T14:02:21.877Z</time></trkpt><trkpt lat="41.6129306" lon="0.6480302"><ele>159.0</ele><time>2026-05-04T14:02:22.877Z</time></trkpt><trkpt lat="41.6129751" lon="0.6481507"><ele>159.2</ele><time>2026-05-04T14:02:23.876Z</time></trkpt><trkpt lat="41.6130185" lon="0.6482732"><ele>159.4</ele><time>2026-05-04T14:02:24.877Z</time></trkpt><trkpt lat="41.6130573" lon="0.6483997"><ele>159.6</ele><time>2026-05-04T14:02:25.877Z</time></trkpt><trkpt lat="41.6130982" lon="0.6485275"><ele>159.8</ele><time>2026-05-04T14:02:26.877Z</time></trkpt><trkpt lat="41.6131382" lon="0.6486564"><ele>160.0</ele><time>2026-05-04T14:02:27.877Z</time></trkpt><trkpt lat="41.6131795" lon="0.6487818"><ele>160.4</ele><time>2026-05-04T14:02:28.877Z</time></trkpt><trkpt lat="41.6132235" lon="0.648911"><ele>160.8</ele><time>2026-05-04T14:02:29.877Z</time></trkpt><trkpt lat="41.6132672" lon="0.6490399"><ele>161.2</ele><time>2026-05-04T14:02:30.877Z</time></trkpt><trkpt lat="41.6133108" lon="0.6491697"><ele>161.6</ele><time>2026-05-04T14:02:31.877Z</time></trkpt><trkpt lat="41.6133537" lon="0.6492994"><ele>162.0</ele><time>2026-05-04T14:02:32.877Z</time></trkpt><trkpt lat="41.6133989" lon="0.6494304"><ele>162.39999999999998</ele><time>2026-05-04T14:02:33.876Z</time></trkpt><trkpt lat="41.6134442" lon="0.649563"><ele>162.79999999999998</ele><time>2026-05-04T14:02:34.877Z</time></trkpt><trkpt lat="41.613488" lon="0.6496978"><ele>163.2</ele><time>2026-05-04T14:02:35.877Z</time></trkpt><trkpt lat="41.6135347" lon="0.6498277"><ele>163.6</ele><time>2026-05-04T14:02:36.877Z</time></trkpt><trkpt lat="41.6135866" lon="0.6499567"><ele>164.0</ele><time>2026-05-04T14:02:37.877Z</time></trkpt><trkpt lat="41.6136355" lon="0.6500808"><ele>164.33333333333331</ele><time>2026-05-04T14:02:38.877Z</time></trkpt><trkpt lat="41.6136773" lon="0.6501931"><ele>164.66666666666666</ele><time>2026-05-04T14:02:39.877Z</time></trkpt><trkpt lat="41.6136867" lon="0.650304"><ele>165.0</ele><time>2026-05-04T14:02:40.877Z</time></trkpt><trkpt lat="41.6137126" lon="0.6504171"><ele>165.33333333333334</ele><time>2026-05-04T14:02:41.877Z</time></trkpt><trkpt lat="41.6137297" lon="0.6505232"><ele>165.66666666666669</ele><time>2026-05-04T14:02:42.877Z</time></trkpt><trkpt lat="41.6137494" lon="0.6506496"><ele>166.0</ele><time>2026-05-04T14:02:43.877Z</time></trkpt><trkpt lat="41.613768" lon="0.6507876"><ele>166.0</ele><time>2026-05-04T14:02:44.877Z</time></trkpt><trkpt lat="41.6137769" lon="0.6509093"><ele>166.0</ele><time>2026-05-04T14:02:45.876Z</time></trkpt><trkpt lat="41.6137815" lon="0.6510375"><ele>166.0</ele><time>2026-05-04T14:02:46.877Z</time></trkpt><trkpt lat="41.613793" lon="0.6511657"><ele>166.0</ele><time>2026-05-04T14:02:47.877Z</time></trkpt><trkpt lat="41.6138046" lon="0.651307"><ele>166.0</ele><time>2026-05-04T14:02:48.877Z</time></trkpt><trkpt lat="41.6138174" lon="0.651456"><ele>165.8</ele><time>2026-05-04T14:02:49.877Z</time></trkpt><trkpt lat="41.6138385" lon="0.6515826"><ele>165.60000000000002</ele><time>2026-05-04T14:02:50.877Z</time></trkpt><trkpt lat="41.613876" lon="0.6516625"><ele>165.4</ele><time>2026-05-04T14:02:51.876Z</time></trkpt><trkpt lat="41.6139174" lon="0.6517668"><ele>165.2</ele><time>2026-05-04T14:02:52.877Z</time></trkpt><trkpt lat="41.6139505" lon="0.6518977"><ele>165.0</ele><time>2026-05-04T14:02:53.877Z</time></trkpt><trkpt lat="41.6139922" lon="0.6520223"><ele>164.6</ele><time>2026-05-04T14:02:54.877Z</time></trkpt><trkpt lat="41.6140342" lon="0.6521427"><ele>164.2</ele><time>2026-05-04T14:02:55.877Z</time></trkpt><trkpt lat="41.6140824" lon="0.6522618"><ele>163.8</ele><time>2026-05-04T14:02:56.877Z</time></trkpt><trkpt lat="41.6141315" lon="0.6523712"><ele>163.4</ele><time>2026-05-04T14:02:57.877Z</time></trkpt><trkpt lat="41.6141901" lon="0.6524734"><ele>163.0</ele><time>2026-05-04T14:02:58.877Z</time></trkpt><trkpt lat="41.6142592" lon="0.6525763"><ele>163.0</ele><time>2026-05-04T14:02:59.877Z</time></trkpt><trkpt lat="41.6143393" lon="0.6526615"><ele>163.0</ele><time>2026-05-04T14:03:00.877Z</time></trkpt><trkpt lat="41.6144116" lon="0.6527434"><ele>163.0</ele><time>2026-05-04T14:03:01.877Z</time></trkpt><trkpt lat="41.614474" lon="0.652809"><ele>163.0</ele><time>2026-05-04T14:03:02.877Z</time></trkpt><trkpt lat="41.6145574" lon="0.6528968"><ele>163.0</ele><time>2026-05-04T14:03:04.877Z</time></trkpt><trkpt lat="41.6146298" lon="0.6530118"><ele>163.5</ele><time>2026-05-04T14:03:06.876Z</time></trkpt><trkpt lat="41.6146906" lon="0.6531438"><ele>164.0</ele><time>2026-05-04T14:03:08.876Z</time></trkpt><trkpt lat="41.6147233" lon="0.6532383"><ele>164.5</ele><time>2026-05-04T14:03:09.877Z</time></trkpt><trkpt lat="41.6147703" lon="0.6533989"><ele>165.0</ele><time>2026-05-04T14:03:10.877Z</time></trkpt><trkpt lat="41.6148325" lon="0.6536242"><ele>165.75</ele><time>2026-05-04T14:03:11.877Z</time></trkpt><trkpt lat="41.6148788" lon="0.6537983"><ele>166.5</ele><time>2026-05-04T14:03:12.877Z</time></trkpt><trkpt lat="41.6149379" lon="0.6539992"><ele>167.25</ele><time>2026-05-04T14:03:13.877Z</time></trkpt><trkpt lat="41.6149926" lon="0.6541807"><ele>168.0</ele><time>2026-05-04T14:03:14.877Z</time></trkpt><trkpt lat="41.6150463" lon="0.6543326"><ele>167.4</ele><time>2026-05-04T14:03:15.877Z</time></trkpt><trkpt lat="41.6150938" lon="0.6544731"><ele>166.8</ele><time>2026-05-04T14:03:16.877Z</time></trkpt><trkpt lat="41.6151402" lon="0.6546097"><ele>166.2</ele><time>2026-05-04T14:03:17.877Z</time></trkpt><trkpt lat="41.6151746" lon="0.6547063"><ele>165.6</ele><time>2026-05-04T14:03:18.877Z</time></trkpt><trkpt lat="41.6152079" lon="0.654806"><ele>165.0</ele><time>2026-05-04T14:03:19.877Z</time></trkpt><trkpt lat="41.6152503" lon="0.6549158"><ele>165.0</ele><time>2026-05-04T14:03:20.877Z</time></trkpt><trkpt lat="41.6152887" lon="0.6550203"><ele>165.0</ele><time>2026-05-04T14:03:21.877Z</time></trkpt><trkpt lat="41.6153248" lon="0.6551213"><ele>165.0</ele><time>2026-05-04T14:03:22.877Z</time></trkpt><trkpt lat="41.615362" lon="0.6552228"><ele>165.0</ele><time>2026-05-04T14:03:23.877Z</time></trkpt><trkpt lat="41.6153997" lon="0.6553301"><ele>165.0</ele><time>2026-05-04T14:03:24.877Z</time></trkpt><trkpt lat="41.6154385" lon="0.6554336"><ele>165.0</ele><time>2026-05-04T14:03:25.877Z</time></trkpt><trkpt lat="41.6154795" lon="0.6555387"><ele>165.33333333333334</ele><time>2026-05-04T14:03:26.877Z</time></trkpt><trkpt lat="41.6155194" lon="0.6556416"><ele>165.66666666666666</ele><time>2026-05-04T14:03:27.877Z</time></trkpt><trkpt lat="41.6155581" lon="0.655745"><ele>166.0</ele><time>2026-05-04T14:03:28.877Z</time></trkpt><trkpt lat="41.6155959" lon="0.6558491"><ele>166.33333333333331</ele><time>2026-05-04T14:03:29.877Z</time></trkpt><trkpt lat="41.6156313" lon="0.6559558"><ele>166.66666666666666</ele><time>2026-05-04T14:03:30.877Z</time></trkpt><trkpt lat="41.6156719" lon="0.6560587"><ele>167.0</ele><time>2026-05-04T14:03:31.876Z</time></trkpt><trkpt lat="41.6157113" lon="0.6561619"><ele>167.16666666666666</ele><time>2026-05-04T14:03:32.877Z</time></trkpt><trkpt lat="41.6157505" lon="0.6562668"><ele>167.33333333333331</ele><time>2026-05-04T14:03:33.877Z</time></trkpt><trkpt lat="41.6157881" lon="0.656377"><ele>167.5</ele><time>2026-05-04T14:03:34.877Z</time></trkpt><trkpt lat="41.6158203" lon="0.6564777"><ele>167.66666666666666</ele><time>2026-05-04T14:03:35.877Z</time></trkpt><trkpt lat="41.6158578" lon="0.6565749"><ele>167.83333333333334</ele><time>2026-05-04T14:03:36.877Z</time></trkpt><trkpt lat="41.6158929" lon="0.6566757"><ele>168.0</ele><time>2026-05-04T14:03:37.876Z</time></trkpt><trkpt lat="41.6159337" lon="0.6567752"><ele>168.0</ele><time>2026-05-04T14:03:38.877Z</time></trkpt><trkpt lat="41.6159708" lon="0.6568785"><ele>168.0</ele><time>2026-05-04T14:03:39.876Z</time></trkpt><trkpt lat="41.6160106" lon="0.6569812"><ele>168.0</ele><time>2026-05-04T14:03:40.877Z</time></trkpt><trkpt lat="41.6160516" lon="0.6570857"><ele>168.0</ele><time>2026-05-04T14:03:41.876Z</time></trkpt><trkpt lat="41.616093" lon="0.6571942"><ele>168.0</ele><time>2026-05-04T14:03:42.877Z</time></trkpt><trkpt lat="41.6161332" lon="0.6573039"><ele>168.0</ele><time>2026-05-04T14:03:43.876Z</time></trkpt><trkpt lat="41.6161703" lon="0.6574155"><ele>167.60000000000002</ele><time>2026-05-04T14:03:44.876Z</time></trkpt><trkpt lat="41.6162091" lon="0.6575322"><ele>167.20000000000002</ele><time>2026-05-04T14:03:45.877Z</time></trkpt><trkpt lat="41.6162492" lon="0.657641"><ele>166.8</ele><time>2026-05-04T14:03:46.876Z</time></trkpt><trkpt lat="41.6162898" lon="0.6577474"><ele>166.4</ele><time>2026-05-04T14:03:47.877Z</time></trkpt><trkpt lat="41.6163305" lon="0.6578562"><ele>166.0</ele><time>2026-05-04T14:03:48.878Z</time></trkpt><trkpt lat="41.6163795" lon="0.6579729"><ele>166.0</ele><time>2026-05-04T14:03:49.877Z</time></trkpt><trkpt lat="41.6164213" lon="0.6580936"><ele>166.0</ele><time>2026-05-04T14:03:50.878Z</time></trkpt><trkpt lat="41.6164646" lon="0.6582132"><ele>166.0</ele><time>2026-05-04T14:03:51.878Z</time></trkpt><trkpt lat="41.6165084" lon="0.6583405"><ele>166.0</ele><time>2026-05-04T14:03:52.878Z</time></trkpt><trkpt lat="41.6165543" lon="0.6584671"><ele>166.0</ele><time>2026-05-04T14:03:53.878Z</time></trkpt><trkpt lat="41.6165984" lon="0.6585913"><ele>166.4</ele><time>2026-05-04T14:03:54.878Z</time></trkpt><trkpt lat="41.6166412" lon="0.658714"><ele>166.8</ele><time>2026-05-04T14:03:55.878Z</time></trkpt><trkpt lat="41.6166836" lon="0.6588334"><ele>167.20000000000002</ele><time>2026-05-04T14:03:56.878Z</time></trkpt><trkpt lat="41.6167272" lon="0.6589524"><ele>167.60000000000002</ele><time>2026-05-04T14:03:57.878Z</time></trkpt><trkpt lat="41.6167717" lon="0.659075"><ele>168.0</ele><time>2026-05-04T14:03:58.878Z</time></trkpt><trkpt lat="41.616815" lon="0.6591932"><ele>168.0</ele><time>2026-05-04T14:03:59.878Z</time></trkpt><trkpt lat="41.6168545" lon="0.6593081"><ele>168.0</ele><time>2026-05-04T14:04:00.878Z</time></trkpt><trkpt lat="41.6168976" lon="0.6594299"><ele>168.0</ele><time>2026-05-04T14:04:01.877Z</time></trkpt><trkpt lat="41.616939" lon="0.659556"><ele>168.0</ele><time>2026-05-04T14:04:02.877Z</time></trkpt><trkpt lat="41.6169802" lon="0.6596813"><ele>168.0</ele><time>2026-05-04T14:04:03.877Z</time></trkpt><trkpt lat="41.6170241" lon="0.6598069"><ele>167.8</ele><time>2026-05-04T14:04:04.878Z</time></trkpt><trkpt lat="41.6170666" lon="0.6599349"><ele>167.60000000000002</ele><time>2026-05-04T14:04:05.878Z</time></trkpt><trkpt lat="41.6171109" lon="0.6600663"><ele>167.39999999999998</ele><time>2026-05-04T14:04:06.878Z</time></trkpt><trkpt lat="41.6171543" lon="0.6602033"><ele>167.2</ele><time>2026-05-04T14:04:07.878Z</time></trkpt><trkpt lat="41.6171927" lon="0.6603361"><ele>167.0</ele><time>2026-05-04T14:04:08.877Z</time></trkpt><trkpt lat="41.6172317" lon="0.6604642"><ele>167.6</ele><time>2026-05-04T14:04:09.878Z</time></trkpt><trkpt lat="41.6172637" lon="0.660585"><ele>168.2</ele><time>2026-05-04T14:04:10.878Z</time></trkpt><trkpt lat="41.6173018" lon="0.6607083"><ele>168.8</ele><time>2026-05-04T14:04:11.878Z</time></trkpt><trkpt lat="41.6173356" lon="0.6608345"><ele>169.4</ele><time>2026-05-04T14:04:12.878Z</time></trkpt><trkpt lat="41.6173738" lon="0.6609639"><ele>170.0</ele><time>2026-05-04T14:04:13.878Z</time></trkpt><trkpt lat="41.6174182" lon="0.6610965"><ele>170.5</ele><time>2026-05-04T14:04:14.878Z</time></trkpt><trkpt lat="41.6174544" lon="0.6612377"><ele>171.0</ele><time>2026-05-04T14:04:15.878Z</time></trkpt><trkpt lat="41.61749" lon="0.6613837"><ele>171.5</ele><time>2026-05-04T14:04:16.877Z</time></trkpt><trkpt lat="41.6175243" lon="0.6615335"><ele>172.0</ele><time>2026-05-04T14:04:17.878Z</time></trkpt><trkpt lat="41.617558" lon="0.6616897"><ele>172.0</ele><time>2026-05-04T14:04:18.878Z</time></trkpt><trkpt lat="41.6175886" lon="0.6618507"><ele>172.0</ele><time>2026-05-04T14:04:19.878Z</time></trkpt><trkpt lat="41.6176146" lon="0.6620117"><ele>172.0</ele><time>2026-05-04T14:04:20.878Z</time></trkpt><trkpt lat="41.6176429" lon="0.662167"><ele>172.0</ele><time>2026-05-04T14:04:21.877Z</time></trkpt><trkpt lat="41.6176723" lon="0.6623248"><ele>172.75</ele><time>2026-05-04T14:04:22.878Z</time></trkpt><trkpt lat="41.6177015" lon="0.6624864"><ele>173.5</ele><time>2026-05-04T14:04:23.877Z</time></trkpt><trkpt lat="41.6177292" lon="0.6626467"><ele>174.25</ele><time>2026-05-04T14:04:24.878Z</time></trkpt><trkpt lat="41.6177556" lon="0.6628044"><ele>175.0</ele><time>2026-05-04T14:04:25.877Z</time></trkpt><trkpt lat="41.6177838" lon="0.6629639"><ele>175.5</ele><time>2026-05-04T14:04:26.878Z</time></trkpt><trkpt lat="41.6178128" lon="0.6631242"><ele>176.0</ele><time>2026-05-04T14:04:27.878Z</time></trkpt><trkpt lat="41.6178443" lon="0.663283"><ele>176.5</ele><time>2026-05-04T14:04:28.878Z</time></trkpt><trkpt lat="41.617874" lon="0.6634376"><ele>177.0</ele><time>2026-05-04T14:04:29.878Z</time></trkpt><trkpt lat="41.6179031" lon="0.66359"><ele>175.39999999999998</ele><time>2026-05-04T14:04:30.878Z</time></trkpt><trkpt lat="41.6179329" lon="0.6637327"><ele>173.79999999999998</ele><time>2026-05-04T14:04:31.878Z</time></trkpt><trkpt lat="41.6179614" lon="0.6638628"><ele>172.2</ele><time>2026-05-04T14:04:32.878Z</time></trkpt><trkpt lat="41.617977" lon="0.6639778"><ele>170.6</ele><time>2026-05-04T14:04:33.878Z</time></trkpt><trkpt lat="41.6179882" lon="0.6640875"><ele>169.0</ele><time>2026-05-04T14:04:34.878Z</time></trkpt><trkpt lat="41.6179816" lon="0.6641906"><ele>169.0</ele><time>2026-05-04T14:04:35.878Z</time></trkpt><trkpt lat="41.6179577" lon="0.6642761"><ele>169.0</ele><time>2026-05-04T14:04:36.877Z</time></trkpt><trkpt lat="41.6179247" lon="0.6643603"><ele>169.0</ele><time>2026-05-04T14:04:37.878Z</time></trkpt><trkpt lat="41.6178881" lon="0.6644413"><ele>169.0</ele><time>2026-05-04T14:04:38.878Z</time></trkpt><trkpt lat="41.6178582" lon="0.6645407"><ele>169.0</ele><time>2026-05-04T14:04:39.878Z</time></trkpt><trkpt lat="41.6178159" lon="0.6646288"><ele>169.0</ele><time>2026-05-04T14:04:40.878Z</time></trkpt><trkpt lat="41.6177546" lon="0.6647303"><ele>170.75</ele><time>2026-05-04T14:04:41.878Z</time></trkpt><trkpt lat="41.6176728" lon="0.6648226"><ele>172.5</ele><time>2026-05-04T14:04:42.878Z</time></trkpt><trkpt lat="41.6175704" lon="0.6649658"><ele>174.25</ele><time>2026-05-04T14:04:43.878Z</time></trkpt><trkpt lat="41.6174788" lon="0.6650514"><ele>176.0</ele><time>2026-05-04T14:04:44.878Z</time></trkpt><trkpt lat="41.617393" lon="0.6651454"><ele>176.0</ele><time>2026-05-04T14:04:45.878Z</time></trkpt><trkpt lat="41.6173075" lon="0.6652487"><ele>176.0</ele><time>2026-05-04T14:04:46.878Z</time></trkpt><trkpt lat="41.6172259" lon="0.6653547"><ele>176.0</ele><time>2026-05-04T14:04:47.878Z</time></trkpt><trkpt lat="41.617145" lon="0.6654656"><ele>176.0</ele><time>2026-05-04T14:04:48.878Z</time></trkpt><trkpt lat="41.6170723" lon="0.6655737"><ele>176.4</ele><time>2026-05-04T14:04:49.878Z</time></trkpt><trkpt lat="41.6170049" lon="0.6656821"><ele>176.8</ele><time>2026-05-04T14:04:50.878Z</time></trkpt><trkpt lat="41.6169405" lon="0.6657949"><ele>177.20000000000002</ele><time>2026-05-04T14:04:51.878Z</time></trkpt><trkpt lat="41.616877" lon="0.6659173"><ele>177.60000000000002</ele><time>2026-05-04T14:04:52.878Z</time></trkpt><trkpt lat="41.6168131" lon="0.6660357"><ele>178.0</ele><time>2026-05-04T14:04:53.878Z</time></trkpt><trkpt lat="41.6167508" lon="0.6661497"><ele>178.60000000000002</ele><time>2026-05-04T14:04:54.878Z</time></trkpt><trkpt lat="41.6166916" lon="0.6662683"><ele>179.20000000000002</ele><time>2026-05-04T14:04:55.878Z</time></trkpt><trkpt lat="41.6166325" lon="0.6663899"><ele>179.8</ele><time>2026-05-04T14:04:56.878Z</time></trkpt><trkpt lat="41.6165726" lon="0.6665076"><ele>180.4</ele><time>2026-05-04T14:04:57.878Z</time></trkpt><trkpt lat="41.6165174" lon="0.6666229"><ele>181.0</ele><time>2026-05-04T14:04:58.878Z</time></trkpt><trkpt lat="41.6164595" lon="0.6667429"><ele>181.0</ele><time>2026-05-04T14:04:59.878Z</time></trkpt><trkpt lat="41.6164083" lon="0.666861"><ele>181.0</ele><time>2026-05-04T14:05:00.878Z</time></trkpt><trkpt lat="41.6163551" lon="0.6669763"><ele>181.0</ele><time>2026-05-04T14:05:01.878Z</time></trkpt><trkpt lat="41.6163038" lon="0.6670873"><ele>181.0</ele><time>2026-05-04T14:05:02.878Z</time></trkpt><trkpt lat="41.6162528" lon="0.6671991"><ele>181.0</ele><time>2026-05-04T14:05:03.878Z</time></trkpt><trkpt lat="41.6162055" lon="0.6673016"><ele>182.0</ele><time>2026-05-04T14:05:04.877Z</time></trkpt><trkpt lat="41.6161603" lon="0.6674069"><ele>183.0</ele><time>2026-05-04T14:05:05.877Z</time></trkpt><trkpt lat="41.6161129" lon="0.6675157"><ele>184.0</ele><time>2026-05-04T14:05:06.878Z</time></trkpt><trkpt lat="41.6160657" lon="0.6676241"><ele>185.0</ele><time>2026-05-04T14:05:07.878Z</time></trkpt><trkpt lat="41.6160192" lon="0.6677338"><ele>186.0</ele><time>2026-05-04T14:05:08.878Z</time></trkpt><trkpt lat="41.6159736" lon="0.6678434"><ele>186.60000000000002</ele><time>2026-05-04T14:05:09.878Z</time></trkpt><trkpt lat="41.6159248" lon="0.6679552"><ele>187.2</ele><time>2026-05-04T14:05:10.878Z</time></trkpt><trkpt lat="41.6158767" lon="0.6680603"><ele>187.8</ele><time>2026-05-04T14:05:11.878Z</time></trkpt><trkpt lat="41.6158311" lon="0.6681534"><ele>188.39999999999998</ele><time>2026-05-04T14:05:12.878Z</time></trkpt><trkpt lat="41.6157864" lon="0.6682532"><ele>189.0</ele><time>2026-05-04T14:05:13.878Z</time></trkpt><trkpt lat="41.6157387" lon="0.6683674"><ele>189.0</ele><time>2026-05-04T14:05:14.877Z</time></trkpt><trkpt lat="41.615693" lon="0.6684813"><ele>189.0</ele><time>2026-05-04T14:05:15.878Z</time></trkpt><trkpt lat="41.615642" lon="0.6685984"><ele>189.0</ele><time>2026-05-04T14:05:16.878Z</time></trkpt><trkpt lat="41.6155853" lon="0.6687186"><ele>189.0</ele><time>2026-05-04T14:05:17.878Z</time></trkpt><trkpt lat="41.6155263" lon="0.6688351"><ele>189.0</ele><time>2026-05-04T14:05:18.877Z</time></trkpt><trkpt lat="41.6154632" lon="0.6689531"><ele>189.5</ele><time>2026-05-04T14:05:19.878Z</time></trkpt><trkpt lat="41.615402" lon="0.6690752"><ele>190.0</ele><time>2026-05-04T14:05:20.877Z</time></trkpt><trkpt lat="41.6153414" lon="0.6692048"><ele>190.5</ele><time>2026-05-04T14:05:21.878Z</time></trkpt><trkpt lat="41.6152818" lon="0.6693321"><ele>191.0</ele><time>2026-05-04T14:05:22.878Z</time></trkpt><trkpt lat="41.6152203" lon="0.6694607"><ele>193.0</ele><time>2026-05-04T14:05:23.877Z</time></trkpt><trkpt lat="41.615158" lon="0.6695867"><ele>195.0</ele><time>2026-05-04T14:05:24.877Z</time></trkpt><trkpt lat="41.6150833" lon="0.6697521"><ele>197.0</ele><time>2026-05-04T14:05:25.878Z</time></trkpt><trkpt lat="41.6150245" lon="0.6698847"><ele>199.0</ele><time>2026-05-04T14:05:26.877Z</time></trkpt><trkpt lat="41.6149649" lon="0.670013"><ele>199.0</ele><time>2026-05-04T14:05:27.878Z</time></trkpt><trkpt lat="41.6149003" lon="0.6701373"><ele>199.0</ele><time>2026-05-04T14:05:28.878Z</time></trkpt><trkpt lat="41.614838" lon="0.670258"><ele>199.0</ele><time>2026-05-04T14:05:29.878Z</time></trkpt><trkpt lat="41.6147731" lon="0.6703768"><ele>199.0</ele><time>2026-05-04T14:05:30.878Z</time></trkpt><trkpt lat="41.6146981" lon="0.670487"><ele>199.0</ele><time>2026-05-04T14:05:31.877Z</time></trkpt><trkpt lat="41.6146272" lon="0.6705961"><ele>199.6</ele><time>2026-05-04T14:05:32.878Z</time></trkpt><trkpt lat="41.6145538" lon="0.6707006"><ele>200.2</ele><time>2026-05-04T14:05:33.878Z</time></trkpt><trkpt lat="41.6144836" lon="0.6708112"><ele>200.79999999999998</ele><time>2026-05-04T14:05:34.877Z</time></trkpt><trkpt lat="41.6144059" lon="0.670921"><ele>201.39999999999998</ele><time>2026-05-04T14:05:35.878Z</time></trkpt><trkpt lat="41.6143289" lon="0.6710278"><ele>202.0</ele><time>2026-05-04T14:05:36.878Z</time></trkpt><trkpt lat="41.6142505" lon="0.6711309"><ele>202.0</ele><time>2026-05-04T14:05:37.878Z</time></trkpt><trkpt lat="41.6141753" lon="0.6712335"><ele>202.0</ele><time>2026-05-04T14:05:38.878Z</time></trkpt><trkpt lat="41.614102" lon="0.6713391"><ele>202.0</ele><time>2026-05-04T14:05:39.878Z</time></trkpt><trkpt lat="41.6140284" lon="0.6714328"><ele>202.0</ele><time>2026-05-04T14:05:40.877Z</time></trkpt><trkpt lat="41.6139547" lon="0.6715176"><ele>202.0</ele><time>2026-05-04T14:05:41.878Z</time></trkpt><trkpt lat="41.6138875" lon="0.6715966"><ele>201.99999999999997</ele><time>2026-05-04T14:05:42.878Z</time></trkpt><trkpt lat="41.6138218" lon="0.6716685"><ele>202.0</ele><time>2026-05-04T14:05:43.878Z</time></trkpt><trkpt lat="41.6137538" lon="0.6717432"><ele>202.0</ele><time>2026-05-04T14:05:44.878Z</time></trkpt><trkpt lat="41.6136912" lon="0.6718141"><ele>202.0</ele><time>2026-05-04T14:05:45.878Z</time></trkpt><trkpt lat="41.6136297" lon="0.6718799"><ele>201.99999999999997</ele><time>2026-05-04T14:05:46.878Z</time></trkpt><trkpt lat="41.6135663" lon="0.6719462"><ele>202.0</ele><time>2026-05-04T14:05:47.877Z</time></trkpt><trkpt lat="41.6135042" lon="0.6720024"><ele>202.42857142857142</ele><time>2026-05-04T14:05:48.878Z</time></trkpt><trkpt lat="41.6134397" lon="0.6720646"><ele>202.85714285714283</ele><time>2026-05-04T14:05:49.877Z</time></trkpt><trkpt lat="41.6133779" lon="0.6721208"><ele>203.28571428571428</ele><time>2026-05-04T14:05:50.878Z</time></trkpt><trkpt lat="41.6133179" lon="0.6721838"><ele>203.71428571428572</ele><time>2026-05-04T14:05:51.878Z</time></trkpt><trkpt lat="41.6132602" lon="0.6722409"><ele>204.14285714285714</ele><time>2026-05-04T14:05:52.878Z</time></trkpt><trkpt lat="41.6131998" lon="0.6722932"><ele>204.57142857142858</ele><time>2026-05-04T14:05:53.878Z</time></trkpt><trkpt lat="41.613146" lon="0.6723519"><ele>205.0</ele><time>2026-05-04T14:05:54.878Z</time></trkpt><trkpt lat="41.6130899" lon="0.6723944"><ele>205.0</ele><time>2026-05-04T14:05:55.878Z</time></trkpt><trkpt lat="41.6130347" lon="0.6724379"><ele>205.0</ele><time>2026-05-04T14:05:56.878Z</time></trkpt><trkpt lat="41.6129751" lon="0.6724853"><ele>205.0</ele><time>2026-05-04T14:05:57.877Z</time></trkpt><trkpt lat="41.6129138" lon="0.6725355"><ele>205.0</ele><time>2026-05-04T14:05:58.878Z</time></trkpt><trkpt lat="41.6128545" lon="0.6725823"><ele>205.0</ele><time>2026-05-04T14:05:59.878Z</time></trkpt><trkpt lat="41.6127909" lon="0.6726294"><ele>205.0</ele><time>2026-05-04T14:06:00.877Z</time></trkpt><trkpt lat="41.612725" lon="0.6726762"><ele>205.0</ele><time>2026-05-04T14:06:01.877Z</time></trkpt><trkpt lat="41.6126571" lon="0.672723"><ele>205.16666666666666</ele><time>2026-05-04T14:06:02.878Z</time></trkpt><trkpt lat="41.6125975" lon="0.6727664"><ele>205.33333333333331</ele><time>2026-05-04T14:06:03.878Z</time></trkpt><trkpt lat="41.6125369" lon="0.6728078"><ele>205.5</ele><time>2026-05-04T14:06:04.878Z</time></trkpt><trkpt lat="41.6124747" lon="0.6728499"><ele>205.66666666666669</ele><time>2026-05-04T14:06:05.878Z</time></trkpt><trkpt lat="41.6124172" lon="0.6728887"><ele>205.83333333333334</ele><time>2026-05-04T14:06:06.878Z</time></trkpt><trkpt lat="41.6123111" lon="0.6729641"><ele>206.0</ele><time>2026-05-04T14:06:08.878Z</time></trkpt><trkpt lat="41.6121875" lon="0.6730275"><ele>205.99999999999997</ele><time>2026-05-04T14:06:10.878Z</time></trkpt><trkpt lat="41.6121262" lon="0.6730666"><ele>206.0</ele><time>2026-05-04T14:06:11.878Z</time></trkpt><trkpt lat="41.6120587" lon="0.6731013"><ele>206.0</ele><time>2026-05-04T14:06:12.878Z</time></trkpt><trkpt lat="41.6119941" lon="0.6731397"><ele>206.0</ele><time>2026-05-04T14:06:13.878Z</time></trkpt><trkpt lat="41.6119286" lon="0.6731724"><ele>206.0</ele><time>2026-05-04T14:06:14.878Z</time></trkpt><trkpt lat="41.6118578" lon="0.6732028"><ele>205.99999999999997</ele><time>2026-05-04T14:06:15.878Z</time></trkpt><trkpt lat="41.61178" lon="0.673248"><ele>206.0</ele><time>2026-05-04T14:06:16.878Z</time></trkpt><trkpt lat="41.6117006" lon="0.6732894"><ele>205.8</ele><time>2026-05-04T14:06:17.877Z</time></trkpt><trkpt lat="41.6116214" lon="0.673331"><ele>205.60000000000002</ele><time>2026-05-04T14:06:18.878Z</time></trkpt><trkpt lat="41.6115277" lon="0.6733771"><ele>205.4</ele><time>2026-05-04T14:06:19.878Z</time></trkpt><trkpt lat="41.6114352" lon="0.6734216"><ele>205.2</ele><time>2026-05-04T14:06:20.878Z</time></trkpt><trkpt lat="41.6113379" lon="0.6734639"><ele>205.0</ele><time>2026-05-04T14:06:21.878Z</time></trkpt><trkpt lat="41.6112332" lon="0.6735044"><ele>205.0</ele><time>2026-05-04T14:06:22.878Z</time></trkpt><trkpt lat="41.6111261" lon="0.6735422"><ele>205.0</ele><time>2026-05-04T14:06:23.878Z</time></trkpt><trkpt lat="41.6110189" lon="0.6735763"><ele>205.0</ele><time>2026-05-04T14:06:24.878Z</time></trkpt><trkpt lat="41.6109062" lon="0.6736123"><ele>205.0</ele><time>2026-05-04T14:06:25.877Z</time></trkpt><trkpt lat="41.6107919" lon="0.6736417"><ele>205.0</ele><time>2026-05-04T14:06:26.877Z</time></trkpt><trkpt lat="41.6106779" lon="0.6736614"><ele>205.0</ele><time>2026-05-04T14:06:27.878Z</time></trkpt><trkpt lat="41.6105571" lon="0.6736848"><ele>205.0</ele><time>2026-05-04T14:06:28.878Z</time></trkpt><trkpt lat="41.6104363" lon="0.6737038"><ele>205.0</ele><time>2026-05-04T14:06:29.878Z</time></trkpt><trkpt lat="41.6103127" lon="0.6737292"><ele>205.5</ele><time>2026-05-04T14:06:30.878Z</time></trkpt><trkpt lat="41.6101882" lon="0.6737442"><ele>206.0</ele><time>2026-05-04T14:06:31.878Z</time></trkpt><trkpt lat="41.610065" lon="0.6737597"><ele>206.5</ele><time>2026-05-04T14:06:32.879Z</time></trkpt><trkpt lat="41.6099375" lon="0.6737747"><ele>207.0</ele><time>2026-05-04T14:06:33.879Z</time></trkpt><trkpt lat="41.6098122" lon="0.6737859"><ele>207.0</ele><time>2026-05-04T14:06:34.879Z</time></trkpt><trkpt lat="41.6096907" lon="0.6737914"><ele>207.0</ele><time>2026-05-04T14:06:35.879Z</time></trkpt><trkpt lat="41.6095625" lon="0.6737932"><ele>207.0</ele><time>2026-05-04T14:06:36.879Z</time></trkpt><trkpt lat="41.6094321" lon="0.6737883"><ele>207.0</ele><time>2026-05-04T14:06:37.879Z</time></trkpt><trkpt lat="41.6093071" lon="0.6737857"><ele>206.25</ele><time>2026-05-04T14:06:38.879Z</time></trkpt><trkpt lat="41.6091813" lon="0.6737758"><ele>205.5</ele><time>2026-05-04T14:06:39.878Z</time></trkpt><trkpt lat="41.6090543" lon="0.6737632"><ele>204.75</ele><time>2026-05-04T14:06:40.879Z</time></trkpt><trkpt lat="41.6089283" lon="0.6737457"><ele>204.0</ele><time>2026-05-04T14:06:41.879Z</time></trkpt><trkpt lat="41.6088013" lon="0.673719"><ele>204.0</ele><time>2026-05-04T14:06:42.879Z</time></trkpt><trkpt lat="41.6086779" lon="0.6736921"><ele>204.0</ele><time>2026-05-04T14:06:43.879Z</time></trkpt><trkpt lat="41.6085536" lon="0.6736715"><ele>204.0</ele><time>2026-05-04T14:06:44.879Z</time></trkpt><trkpt lat="41.6084335" lon="0.6736376"><ele>204.0</ele><time>2026-05-04T14:06:45.879Z</time></trkpt><trkpt lat="41.6083132" lon="0.6735985"><ele>203.75</ele><time>2026-05-04T14:06:46.879Z</time></trkpt><trkpt lat="41.6081915" lon="0.6735575"><ele>203.5</ele><time>2026-05-04T14:06:47.879Z</time></trkpt><trkpt lat="41.6080752" lon="0.6735122"><ele>203.25</ele><time>2026-05-04T14:06:48.879Z</time></trkpt><trkpt lat="41.607958" lon="0.6734623"><ele>203.0</ele><time>2026-05-04T14:06:49.878Z</time></trkpt><trkpt lat="41.6078507" lon="0.6734101"><ele>202.25</ele><time>2026-05-04T14:06:50.879Z</time></trkpt><trkpt lat="41.607741" lon="0.6733661"><ele>201.5</ele><time>2026-05-04T14:06:51.879Z</time></trkpt><trkpt lat="41.6076323" lon="0.6733141"><ele>200.75</ele><time>2026-05-04T14:06:52.878Z</time></trkpt><trkpt lat="41.6075251" lon="0.6732656"><ele>200.0</ele><time>2026-05-04T14:06:53.879Z</time></trkpt><trkpt lat="41.6074139" lon="0.6732128"><ele>200.0</ele><time>2026-05-04T14:06:54.878Z</time></trkpt><trkpt lat="41.6073025" lon="0.6731606"><ele>200.0</ele><time>2026-05-04T14:06:55.879Z</time></trkpt><trkpt lat="41.6071887" lon="0.6731141"><ele>200.0</ele><time>2026-05-04T14:06:56.879Z</time></trkpt><trkpt lat="41.6070772" lon="0.6730624"><ele>200.0</ele><time>2026-05-04T14:06:57.879Z</time></trkpt><trkpt lat="41.6069804" lon="0.673"><ele>199.6</ele><time>2026-05-04T14:06:58.879Z</time></trkpt><trkpt lat="41.6068981" lon="0.6729265"><ele>199.2</ele><time>2026-05-04T14:06:59.879Z</time></trkpt><trkpt lat="41.606822" lon="0.6728433"><ele>198.8</ele><time>2026-05-04T14:07:00.879Z</time></trkpt><trkpt lat="41.6067313" lon="0.6727761"><ele>198.4</ele><time>2026-05-04T14:07:01.879Z</time></trkpt><trkpt lat="41.6066396" lon="0.6727372"><ele>198.0</ele><time>2026-05-04T14:07:02.879Z</time></trkpt><trkpt lat="41.6065506" lon="0.6727199"><ele>198.0</ele><time>2026-05-04T14:07:03.879Z</time></trkpt><trkpt lat="41.6064616" lon="0.6727312"><ele>198.0</ele><time>2026-05-04T14:07:04.878Z</time></trkpt><trkpt lat="41.6063744" lon="0.6727792"><ele>198.0</ele><time>2026-05-04T14:07:05.879Z</time></trkpt><trkpt lat="41.6062917" lon="0.6728422"><ele>198.0</ele><time>2026-05-04T14:07:06.878Z</time></trkpt><trkpt lat="41.6062326" lon="0.6729297"><ele>198.0</ele><time>2026-05-04T14:07:07.879Z</time></trkpt><trkpt lat="41.6061898" lon="0.6730247"><ele>197.8</ele><time>2026-05-04T14:07:08.879Z</time></trkpt><trkpt lat="41.6061618" lon="0.6731299"><ele>197.60000000000002</ele><time>2026-05-04T14:07:09.879Z</time></trkpt><trkpt lat="41.6061552" lon="0.6732596"><ele>197.39999999999998</ele><time>2026-05-04T14:07:10.878Z</time></trkpt><trkpt lat="41.6061695" lon="0.6733831"><ele>197.2</ele><time>2026-05-04T14:07:11.879Z</time></trkpt><trkpt lat="41.6061881" lon="0.6734979"><ele>197.0</ele><time>2026-05-04T14:07:12.879Z</time></trkpt><trkpt lat="41.6062096" lon="0.6736187"><ele>196.39999999999998</ele><time>2026-05-04T14:07:13.878Z</time></trkpt><trkpt lat="41.6062223" lon="0.6737507"><ele>195.79999999999998</ele><time>2026-05-04T14:07:14.879Z</time></trkpt><trkpt lat="41.606223" lon="0.673883"><ele>195.2</ele><time>2026-05-04T14:07:15.879Z</time></trkpt><trkpt lat="41.606218" lon="0.6740212"><ele>194.6</ele><time>2026-05-04T14:07:16.879Z</time></trkpt><trkpt lat="41.6062014" lon="0.6741618"><ele>194.0</ele><time>2026-05-04T14:07:17.879Z</time></trkpt><trkpt lat="41.6061759" lon="0.6743071"><ele>193.0</ele><time>2026-05-04T14:07:18.879Z</time></trkpt><trkpt lat="41.6061481" lon="0.6744493"><ele>192.0</ele><time>2026-05-04T14:07:19.879Z</time></trkpt><trkpt lat="41.6061252" lon="0.6745976"><ele>191.0</ele><time>2026-05-04T14:07:20.879Z</time></trkpt><trkpt lat="41.6060952" lon="0.6747484"><ele>190.0</ele><time>2026-05-04T14:07:21.879Z</time></trkpt><trkpt lat="41.6060719" lon="0.6749021"><ele>190.0</ele><time>2026-05-04T14:07:22.878Z</time></trkpt><trkpt lat="41.6060437" lon="0.6750556"><ele>190.0</ele><time>2026-05-04T14:07:23.878Z</time></trkpt><trkpt lat="41.6060154" lon="0.6752154"><ele>190.0</ele><time>2026-05-04T14:07:24.878Z</time></trkpt><trkpt lat="41.6059915" lon="0.6753788"><ele>190.0</ele><time>2026-05-04T14:07:25.878Z</time></trkpt><trkpt lat="41.6059633" lon="0.6755371"><ele>189.25</ele><time>2026-05-04T14:07:26.879Z</time></trkpt><trkpt lat="41.6059403" lon="0.6756884"><ele>188.5</ele><time>2026-05-04T14:07:27.879Z</time></trkpt><trkpt lat="41.6059144" lon="0.675839"><ele>187.75</ele><time>2026-05-04T14:07:28.879Z</time></trkpt><trkpt lat="41.6058944" lon="0.6759982"><ele>187.0</ele><time>2026-05-04T14:07:29.878Z</time></trkpt><trkpt lat="41.6058755" lon="0.6761551"><ele>187.0</ele><time>2026-05-04T14:07:30.879Z</time></trkpt><trkpt lat="41.6058607" lon="0.6763154"><ele>187.0</ele><time>2026-05-04T14:07:31.879Z</time></trkpt><trkpt lat="41.6058557" lon="0.6764746"><ele>187.0</ele><time>2026-05-04T14:07:32.879Z</time></trkpt><trkpt lat="41.6058502" lon="0.6766306"><ele>187.0</ele><time>2026-05-04T14:07:33.879Z</time></trkpt><trkpt lat="41.6058491" lon="0.6767787"><ele>187.0</ele><time>2026-05-04T14:07:34.878Z</time></trkpt><trkpt lat="41.6058527" lon="0.6769235"><ele>187.0</ele><time>2026-05-04T14:07:35.878Z</time></trkpt><trkpt lat="41.6058627" lon="0.6770683"><ele>187.0</ele><time>2026-05-04T14:07:36.879Z</time></trkpt><trkpt lat="41.6058763" lon="0.6772142"><ele>187.0</ele><time>2026-05-04T14:07:37.878Z</time></trkpt><trkpt lat="41.6058893" lon="0.677362"><ele>187.0</ele><time>2026-05-04T14:07:38.879Z</time></trkpt><trkpt lat="41.6059037" lon="0.677518"><ele>187.0</ele><time>2026-05-04T14:07:39.879Z</time></trkpt><trkpt lat="41.6059158" lon="0.6776688"><ele>187.0</ele><time>2026-05-04T14:07:40.879Z</time></trkpt><trkpt lat="41.6059209" lon="0.6778173"><ele>187.0</ele><time>2026-05-04T14:07:41.879Z</time></trkpt><trkpt lat="41.6059192" lon="0.677963"><ele>187.0</ele><time>2026-05-04T14:07:42.878Z</time></trkpt><trkpt lat="41.6059006" lon="0.6780914"><ele>187.0</ele><time>2026-05-04T14:07:43.878Z</time></trkpt><trkpt lat="41.6058596" lon="0.6781967"><ele>187.0</ele><time>2026-05-04T14:07:44.879Z</time></trkpt><trkpt lat="41.6058033" lon="0.678273"><ele>187.0</ele><time>2026-05-04T14:07:45.878Z</time></trkpt><trkpt lat="41.6057201" lon="0.6783123"><ele>187.0</ele><time>2026-05-04T14:07:46.879Z</time></trkpt><trkpt lat="41.605635" lon="0.6783548"><ele>187.0</ele><time>2026-05-04T14:07:47.879Z</time></trkpt><trkpt lat="41.6055538" lon="0.6784058"><ele>187.0</ele><time>2026-05-04T14:07:48.878Z</time></trkpt><trkpt lat="41.6054805" lon="0.6784855"><ele>187.0</ele><time>2026-05-04T14:07:49.878Z</time></trkpt><trkpt lat="41.6054228" lon="0.6785865"><ele>186.83333333333334</ele><time>2026-05-04T14:07:50.878Z</time></trkpt><trkpt lat="41.6053682" lon="0.6786946"><ele>186.66666666666669</ele><time>2026-05-04T14:07:51.878Z</time></trkpt><trkpt lat="41.6053243" lon="0.6787695"><ele>186.5</ele><time>2026-05-04T14:07:52.878Z</time></trkpt><trkpt lat="41.6052827" lon="0.6788352"><ele>186.33333333333334</ele><time>2026-05-04T14:07:53.878Z</time></trkpt><trkpt lat="41.6052109" lon="0.678932"><ele>186.16666666666666</ele><time>2026-05-04T14:07:55.878Z</time></trkpt><trkpt lat="41.605261" lon="0.6790124"><ele>186.0</ele><time>2026-05-04T14:07:57.878Z</time></trkpt><trkpt lat="41.605345" lon="0.6790248"><ele>186.0</ele><time>2026-05-04T14:07:59.878Z</time></trkpt><trkpt lat="41.6054086" lon="0.6791413"><ele>186.0</ele><time>2026-05-04T14:08:01.878Z</time></trkpt><trkpt lat="41.6054183" lon="0.6792284"><ele>186.0</ele><time>2026-05-04T14:08:02.878Z</time></trkpt><trkpt lat="41.6054055" lon="0.6793305"><ele>186.0</ele><time>2026-05-04T14:08:03.878Z</time></trkpt><trkpt lat="41.6053689" lon="0.6794317"><ele>186.0</ele><time>2026-05-04T14:08:04.878Z</time></trkpt><trkpt lat="41.6052964" lon="0.6795204"><ele>186.0</ele><time>2026-05-04T14:08:05.878Z</time></trkpt><trkpt lat="41.6052133" lon="0.6795937"><ele>186.20000000000002</ele><time>2026-05-04T14:08:06.878Z</time></trkpt><trkpt lat="41.6051287" lon="0.6796648"><ele>186.4</ele><time>2026-05-04T14:08:07.878Z</time></trkpt><trkpt lat="41.6050386" lon="0.6797492"><ele>186.6</ele><time>2026-05-04T14:08:08.877Z</time></trkpt><trkpt lat="41.6049612" lon="0.6798438"><ele>186.8</ele><time>2026-05-04T14:08:09.878Z</time></trkpt><trkpt lat="41.6048964" lon="0.6799371"><ele>187.0</ele><time>2026-05-04T14:08:10.878Z</time></trkpt><trkpt lat="41.6048344" lon="0.6800389"><ele>187.0</ele><time>2026-05-04T14:08:11.878Z</time></trkpt><trkpt lat="41.6047834" lon="0.6801504"><ele>187.0</ele><time>2026-05-04T14:08:12.878Z</time></trkpt><trkpt lat="41.6047363" lon="0.6802589"><ele>187.0</ele><time>2026-05-04T14:08:13.878Z</time></trkpt><trkpt lat="41.6046883" lon="0.6803741"><ele>187.0</ele><time>2026-05-04T14:08:14.877Z</time></trkpt><trkpt lat="41.6046411" lon="0.6804906"><ele>187.0</ele><time>2026-05-04T14:08:15.878Z</time></trkpt><trkpt lat="41.604594" lon="0.6806107"><ele>187.0</ele><time>2026-05-04T14:08:16.878Z</time></trkpt><trkpt lat="41.6045399" lon="0.6807318"><ele>187.0</ele><time>2026-05-04T14:08:17.877Z</time></trkpt><trkpt lat="41.604494" lon="0.6808579"><ele>187.0</ele><time>2026-05-04T14:08:18.878Z</time></trkpt><trkpt lat="41.6044525" lon="0.6809807"><ele>187.0</ele><time>2026-05-04T14:08:19.878Z</time></trkpt><trkpt lat="41.604407" lon="0.6811"><ele>187.0</ele><time>2026-05-04T14:08:20.878Z</time></trkpt><trkpt lat="41.6043636" lon="0.6812255"><ele>187.2</ele><time>2026-05-04T14:08:21.878Z</time></trkpt><trkpt lat="41.6043156" lon="0.6813515"><ele>187.39999999999998</ele><time>2026-05-04T14:08:22.878Z</time></trkpt><trkpt lat="41.6042681" lon="0.6814831"><ele>187.60000000000002</ele><time>2026-05-04T14:08:23.878Z</time></trkpt><trkpt lat="41.6042212" lon="0.6816129"><ele>187.8</ele><time>2026-05-04T14:08:24.878Z</time></trkpt><trkpt lat="41.6041729" lon="0.6817454"><ele>188.0</ele><time>2026-05-04T14:08:25.878Z</time></trkpt><trkpt lat="41.604123" lon="0.6818812"><ele>188.75</ele><time>2026-05-04T14:08:26.879Z</time></trkpt><trkpt lat="41.6040686" lon="0.6820225"><ele>189.5</ele><time>2026-05-04T14:08:27.878Z</time></trkpt><trkpt lat="41.6040167" lon="0.6821715"><ele>190.25</ele><time>2026-05-04T14:08:28.879Z</time></trkpt><trkpt lat="41.6039576" lon="0.6823194"><ele>191.0</ele><time>2026-05-04T14:08:29.879Z</time></trkpt><trkpt lat="41.6039035" lon="0.6824706"><ele>191.0</ele><time>2026-05-04T14:08:30.879Z</time></trkpt><trkpt lat="41.6038491" lon="0.6826209"><ele>191.0</ele><time>2026-05-04T14:08:31.879Z</time></trkpt><trkpt lat="41.6037962" lon="0.6827628"><ele>191.0</ele><time>2026-05-04T14:08:32.879Z</time></trkpt><trkpt lat="41.6037411" lon="0.6829076"><ele>191.0</ele><time>2026-05-04T14:08:33.879Z</time></trkpt><trkpt lat="41.6036848" lon="0.6830586"><ele>190.0</ele><time>2026-05-04T14:08:34.879Z</time></trkpt><trkpt lat="41.6036299" lon="0.6832076"><ele>189.0</ele><time>2026-05-04T14:08:35.878Z</time></trkpt><trkpt lat="41.6035724" lon="0.6833632"><ele>188.0</ele><time>2026-05-04T14:08:36.879Z</time></trkpt><trkpt lat="41.6035174" lon="0.6835214"><ele>187.0</ele><time>2026-05-04T14:08:37.878Z</time></trkpt><trkpt lat="41.6034588" lon="0.6836802"><ele>187.0</ele><time>2026-05-04T14:08:38.879Z</time></trkpt><trkpt lat="41.603405" lon="0.6838369"><ele>187.0</ele><time>2026-05-04T14:08:39.879Z</time></trkpt><trkpt lat="41.6033466" lon="0.6839911"><ele>187.0</ele><time>2026-05-04T14:08:40.878Z</time></trkpt><trkpt lat="41.6032873" lon="0.6841557"><ele>187.0</ele><time>2026-05-04T14:08:41.879Z</time></trkpt><trkpt lat="41.6032267" lon="0.6843178"><ele>187.0</ele><time>2026-05-04T14:08:42.878Z</time></trkpt><trkpt lat="41.6031671" lon="0.6844857"><ele>187.0</ele><time>2026-05-04T14:08:43.879Z</time></trkpt><trkpt lat="41.6031109" lon="0.6846592"><ele>187.0</ele><time>2026-05-04T14:08:44.879Z</time></trkpt><trkpt lat="41.6030468" lon="0.6848266"><ele>187.0</ele><time>2026-05-04T14:08:45.878Z</time></trkpt><trkpt lat="41.6029845" lon="0.684997"><ele>187.0</ele><time>2026-05-04T14:08:46.879Z</time></trkpt><trkpt lat="41.6029202" lon="0.6851678"><ele>187.0</ele><time>2026-05-04T14:08:47.879Z</time></trkpt><trkpt lat="41.6028557" lon="0.6853404"><ele>187.0</ele><time>2026-05-04T14:08:48.879Z</time></trkpt><trkpt lat="41.6027945" lon="0.6855115"><ele>187.0</ele><time>2026-05-04T14:08:49.879Z</time></trkpt><trkpt lat="41.6027336" lon="0.685689"><ele>187.5</ele><time>2026-05-04T14:08:50.879Z</time></trkpt><trkpt lat="41.6026683" lon="0.6858627"><ele>188.0</ele><time>2026-05-04T14:08:51.879Z</time></trkpt><trkpt lat="41.602607" lon="0.6860294"><ele>188.5</ele><time>2026-05-04T14:08:52.879Z</time></trkpt><trkpt lat="41.6025408" lon="0.686191"><ele>189.0</ele><time>2026-05-04T14:08:53.878Z</time></trkpt><trkpt lat="41.6024831" lon="0.6863531"><ele>188.0</ele><time>2026-05-04T14:08:54.879Z</time></trkpt><trkpt lat="41.6024264" lon="0.6865101"><ele>187.0</ele><time>2026-05-04T14:08:55.879Z</time></trkpt><trkpt lat="41.6023681" lon="0.686668"><ele>186.0</ele><time>2026-05-04T14:08:56.879Z</time></trkpt><trkpt lat="41.6023084" lon="0.686828"><ele>185.0</ele><time>2026-05-04T14:08:57.878Z</time></trkpt><trkpt lat="41.6022526" lon="0.6869877"><ele>184.5</ele><time>2026-05-04T14:08:58.879Z</time></trkpt><trkpt lat="41.6021948" lon="0.6871471"><ele>184.0</ele><time>2026-05-04T14:08:59.879Z</time></trkpt><trkpt lat="41.6021339" lon="0.6873056"><ele>183.5</ele><time>2026-05-04T14:09:00.879Z</time></trkpt><trkpt lat="41.6020717" lon="0.6874688"><ele>183.0</ele><time>2026-05-04T14:09:01.878Z</time></trkpt><trkpt lat="41.6020144" lon="0.6876306"><ele>181.75</ele><time>2026-05-04T14:09:02.879Z</time></trkpt><trkpt lat="41.6019583" lon="0.6877949"><ele>180.5</ele><time>2026-05-04T14:09:03.878Z</time></trkpt><trkpt lat="41.6019009" lon="0.6879554"><ele>179.25</ele><time>2026-05-04T14:09:04.879Z</time></trkpt><trkpt lat="41.6018439" lon="0.6881135"><ele>178.0</ele><time>2026-05-04T14:09:05.879Z</time></trkpt><trkpt lat="41.6017834" lon="0.6882781"><ele>178.0</ele><time>2026-05-04T14:09:06.879Z</time></trkpt><trkpt lat="41.6017265" lon="0.6884355"><ele>178.0</ele><time>2026-05-04T14:09:07.879Z</time></trkpt><trkpt lat="41.6016669" lon="0.6885853"><ele>178.0</ele><time>2026-05-04T14:09:08.879Z</time></trkpt><trkpt lat="41.6016094" lon="0.6887365"><ele>178.0</ele><time>2026-05-04T14:09:09.878Z</time></trkpt><trkpt lat="41.6015524" lon="0.6888885"><ele>178.0</ele><time>2026-05-04T14:09:10.879Z</time></trkpt><trkpt lat="41.6014906" lon="0.6890406"><ele>178.0</ele><time>2026-05-04T14:09:11.879Z</time></trkpt><trkpt lat="41.6014343" lon="0.6891989"><ele>178.0</ele><time>2026-05-04T14:09:12.879Z</time></trkpt><trkpt lat="41.6013763" lon="0.6893583"><ele>178.0</ele><time>2026-05-04T14:09:13.879Z</time></trkpt><trkpt lat="41.6013217" lon="0.6895066"><ele>178.0</ele><time>2026-05-04T14:09:14.879Z</time></trkpt><trkpt lat="41.6012613" lon="0.6896597"><ele>178.0</ele><time>2026-05-04T14:09:15.879Z</time></trkpt><trkpt lat="41.6012018" lon="0.6898146"><ele>178.0</ele><time>2026-05-04T14:09:16.879Z</time></trkpt><trkpt lat="41.601144" lon="0.6899706"><ele>178.0</ele><time>2026-05-04T14:09:17.879Z</time></trkpt><trkpt lat="41.6010908" lon="0.6901263"><ele>178.0</ele><time>2026-05-04T14:09:18.879Z</time></trkpt><trkpt lat="41.6010348" lon="0.6902799"><ele>178.0</ele><time>2026-05-04T14:09:19.879Z</time></trkpt><trkpt lat="41.6009792" lon="0.6904291"><ele>178.0</ele><time>2026-05-04T14:09:20.879Z</time></trkpt><trkpt lat="41.6009265" lon="0.6905801"><ele>178.0</ele><time>2026-05-04T14:09:21.879Z</time></trkpt><trkpt lat="41.6008746" lon="0.6907239"><ele>178.0</ele><time>2026-05-04T14:09:22.878Z</time></trkpt><trkpt lat="41.600825" lon="0.6908634"><ele>178.0</ele><time>2026-05-04T14:09:23.879Z</time></trkpt><trkpt lat="41.6007716" lon="0.6910111"><ele>178.0</ele><time>2026-05-04T14:09:24.879Z</time></trkpt><trkpt lat="41.6007152" lon="0.6911601"><ele>178.0</ele><time>2026-05-04T14:09:25.879Z</time></trkpt><trkpt lat="41.6006609" lon="0.6913104"><ele>177.75</ele><time>2026-05-04T14:09:26.878Z</time></trkpt><trkpt lat="41.6006011" lon="0.6914616"><ele>177.5</ele><time>2026-05-04T14:09:27.878Z</time></trkpt><trkpt lat="41.6005497" lon="0.6916166"><ele>177.25</ele><time>2026-05-04T14:09:28.879Z</time></trkpt><trkpt lat="41.6004916" lon="0.6917674"><ele>177.0</ele><time>2026-05-04T14:09:29.879Z</time></trkpt><trkpt lat="41.6004328" lon="0.6919295"><ele>177.0</ele><time>2026-05-04T14:09:30.879Z</time></trkpt><trkpt lat="41.6003743" lon="0.6920848"><ele>177.0</ele><time>2026-05-04T14:09:31.879Z</time></trkpt><trkpt lat="41.6003199" lon="0.6922399"><ele>177.0</ele><time>2026-05-04T14:09:32.879Z</time></trkpt><trkpt lat="41.600257" lon="0.6923901"><ele>177.0</ele><time>2026-05-04T14:09:33.878Z</time></trkpt><trkpt lat="41.6001972" lon="0.6925425"><ele>176.75</ele><time>2026-05-04T14:09:34.879Z</time></trkpt><trkpt lat="41.6001402" lon="0.6926956"><ele>176.5</ele><time>2026-05-04T14:09:35.879Z</time></trkpt><trkpt lat="41.6000895" lon="0.6928516"><ele>176.25</ele><time>2026-05-04T14:09:36.879Z</time></trkpt><trkpt lat="41.6000342" lon="0.6930083"><ele>176.0</ele><time>2026-05-04T14:09:37.879Z</time></trkpt><trkpt lat="41.5999793" lon="0.6931642"><ele>176.0</ele><time>2026-05-04T14:09:38.879Z</time></trkpt><trkpt lat="41.5999213" lon="0.6933198"><ele>176.0</ele><time>2026-05-04T14:09:39.879Z</time></trkpt><trkpt lat="41.5998635" lon="0.6934783"><ele>176.0</ele><time>2026-05-04T14:09:40.879Z</time></trkpt><trkpt lat="41.5998031" lon="0.6936328"><ele>176.0</ele><time>2026-05-04T14:09:41.879Z</time></trkpt><trkpt lat="41.5997426" lon="0.6937902"><ele>176.25</ele><time>2026-05-04T14:09:42.879Z</time></trkpt><trkpt lat="41.5996848" lon="0.6939503"><ele>176.5</ele><time>2026-05-04T14:09:43.879Z</time></trkpt><trkpt lat="41.5996296" lon="0.6941115"><ele>176.75</ele><time>2026-05-04T14:09:44.879Z</time></trkpt><trkpt lat="41.5995711" lon="0.6942712"><ele>177.0</ele><time>2026-05-04T14:09:45.879Z</time></trkpt><trkpt lat="41.5995121" lon="0.6944335"><ele>177.25</ele><time>2026-05-04T14:09:46.879Z</time></trkpt><trkpt lat="41.5994527" lon="0.6945952"><ele>177.5</ele><time>2026-05-04T14:09:47.879Z</time></trkpt><trkpt lat="41.599394" lon="0.6947579"><ele>177.75</ele><time>2026-05-04T14:09:48.879Z</time></trkpt><trkpt lat="41.5993328" lon="0.694925"><ele>178.0</ele><time>2026-05-04T14:09:49.913Z</time></trkpt><trkpt lat="41.599273" lon="0.695089"><ele>177.75</ele><time>2026-05-04T14:09:50.879Z</time></trkpt><trkpt lat="41.5992123" lon="0.6952554"><ele>177.5</ele><time>2026-05-04T14:09:51.878Z</time></trkpt><trkpt lat="41.5991498" lon="0.6954227"><ele>177.25</ele><time>2026-05-04T14:09:52.879Z</time></trkpt><trkpt lat="41.5990887" lon="0.6955873"><ele>177.0</ele><time>2026-05-04T14:09:53.879Z</time></trkpt><trkpt lat="41.5990296" lon="0.6957505"><ele>177.0</ele><time>2026-05-04T14:09:54.878Z</time></trkpt><trkpt lat="41.5989687" lon="0.6959147"><ele>177.0</ele><time>2026-05-04T14:09:55.879Z</time></trkpt><trkpt lat="41.5989091" lon="0.6960806"><ele>177.0</ele><time>2026-05-04T14:09:56.878Z</time></trkpt><trkpt lat="41.5988455" lon="0.6962459"><ele>177.0</ele><time>2026-05-04T14:09:57.879Z</time></trkpt><trkpt lat="41.5987879" lon="0.6964174"><ele>177.5</ele><time>2026-05-04T14:09:58.879Z</time></trkpt><trkpt lat="41.5987274" lon="0.6965787"><ele>178.0</ele><time>2026-05-04T14:09:59.879Z</time></trkpt><trkpt lat="41.5986654" lon="0.6967408"><ele>178.5</ele><time>2026-05-04T14:10:00.879Z</time></trkpt><trkpt lat="41.5986035" lon="0.6969048"><ele>179.0</ele><time>2026-05-04T14:10:01.879Z</time></trkpt><trkpt lat="41.5985428" lon="0.6970683"><ele>179.0</ele><time>2026-05-04T14:10:02.879Z</time></trkpt><trkpt lat="41.5984831" lon="0.6972347"><ele>179.0</ele><time>2026-05-04T14:10:03.878Z</time></trkpt><trkpt lat="41.5984214" lon="0.6973965"><ele>179.0</ele><time>2026-05-04T14:10:04.878Z</time></trkpt><trkpt lat="41.5983632" lon="0.6975615"><ele>179.0</ele><time>2026-05-04T14:10:05.879Z</time></trkpt><trkpt lat="41.5983021" lon="0.6977201"><ele>179.0</ele><time>2026-05-04T14:10:06.878Z</time></trkpt><trkpt lat="41.5982402" lon="0.6978838"><ele>179.0</ele><time>2026-05-04T14:10:07.879Z</time></trkpt><trkpt lat="41.5981789" lon="0.6980502"><ele>179.0</ele><time>2026-05-04T14:10:08.878Z</time></trkpt><trkpt lat="41.5981166" lon="0.698214"><ele>179.0</ele><time>2026-05-04T14:10:09.879Z</time></trkpt><trkpt lat="41.5980566" lon="0.6983798"><ele>179.0</ele><time>2026-05-04T14:10:10.879Z</time></trkpt><trkpt lat="41.5979972" lon="0.6985481"><ele>179.0</ele><time>2026-05-04T14:10:11.879Z</time></trkpt><trkpt lat="41.5979365" lon="0.698714"><ele>179.0</ele><time>2026-05-04T14:10:12.879Z</time></trkpt><trkpt lat="41.5978762" lon="0.6988816"><ele>179.0</ele><time>2026-05-04T14:10:13.879Z</time></trkpt><trkpt lat="41.597817" lon="0.6990448"><ele>179.25</ele><time>2026-05-04T14:10:14.879Z</time></trkpt><trkpt lat="41.597759" lon="0.699206"><ele>179.5</ele><time>2026-05-04T14:10:15.878Z</time></trkpt><trkpt lat="41.5976954" lon="0.6993661"><ele>179.75</ele><time>2026-05-04T14:10:16.879Z</time></trkpt><trkpt lat="41.597635" lon="0.6995331"><ele>180.0</ele><time>2026-05-04T14:10:17.879Z</time></trkpt><trkpt lat="41.5975748" lon="0.6997025"><ele>180.0</ele><time>2026-05-04T14:10:18.879Z</time></trkpt><trkpt lat="41.5975167" lon="0.6998649"><ele>180.0</ele><time>2026-05-04T14:10:19.878Z</time></trkpt><trkpt lat="41.5974575" lon="0.7000311"><ele>180.0</ele><time>2026-05-04T14:10:20.878Z</time></trkpt><trkpt lat="41.5973975" lon="0.7001963"><ele>180.0</ele><time>2026-05-04T14:10:21.879Z</time></trkpt><trkpt lat="41.5973412" lon="0.700354"><ele>180.25</ele><time>2026-05-04T14:10:22.879Z</time></trkpt><trkpt lat="41.597283" lon="0.7005044"><ele>180.5</ele><time>2026-05-04T14:10:23.879Z</time></trkpt><trkpt lat="41.5972223" lon="0.7006643"><ele>180.75</ele><time>2026-05-04T14:10:24.879Z</time></trkpt><trkpt lat="41.5971637" lon="0.7008194"><ele>181.0</ele><time>2026-05-04T14:10:25.879Z</time></trkpt><trkpt lat="41.5971067" lon="0.7009766"><ele>181.25</ele><time>2026-05-04T14:10:26.879Z</time></trkpt><trkpt lat="41.597049" lon="0.7011304"><ele>181.5</ele><time>2026-05-04T14:10:27.879Z</time></trkpt><trkpt lat="41.5969929" lon="0.7012879"><ele>181.75</ele><time>2026-05-04T14:10:28.879Z</time></trkpt><trkpt lat="41.5969369" lon="0.7014447"><ele>182.0</ele><time>2026-05-04T14:10:29.879Z</time></trkpt><trkpt lat="41.5968804" lon="0.7015986"><ele>182.25</ele><time>2026-05-04T14:10:30.879Z</time></trkpt><trkpt lat="41.5968246" lon="0.7017481"><ele>182.5</ele><time>2026-05-04T14:10:31.879Z</time></trkpt><trkpt lat="41.5967697" lon="0.7018977"><ele>182.75</ele><time>2026-05-04T14:10:32.879Z</time></trkpt><trkpt lat="41.5967148" lon="0.7020483"><ele>183.0</ele><time>2026-05-04T14:10:33.879Z</time></trkpt><trkpt lat="41.5966638" lon="0.7022014"><ele>183.25</ele><time>2026-05-04T14:10:34.879Z</time></trkpt><trkpt lat="41.5966068" lon="0.7023472"><ele>183.5</ele><time>2026-05-04T14:10:35.879Z</time></trkpt><trkpt lat="41.5965548" lon="0.7024872"><ele>183.75</ele><time>2026-05-04T14:10:36.879Z</time></trkpt><trkpt lat="41.5964974" lon="0.7026303"><ele>184.0</ele><time>2026-05-04T14:10:37.879Z</time></trkpt><trkpt lat="41.5964455" lon="0.7027723"><ele>184.5</ele><time>2026-05-04T14:10:38.879Z</time></trkpt><trkpt lat="41.5963965" lon="0.7029181"><ele>185.0</ele><time>2026-05-04T14:10:39.879Z</time></trkpt><trkpt lat="41.5963459" lon="0.7030576"><ele>185.5</ele><time>2026-05-04T14:10:40.878Z</time></trkpt><trkpt lat="41.5962938" lon="0.7032009"><ele>186.0</ele><time>2026-05-04T14:10:41.879Z</time></trkpt><trkpt lat="41.5962423" lon="0.7033423"><ele>186.0</ele><time>2026-05-04T14:10:42.879Z</time></trkpt><trkpt lat="41.5961882" lon="0.7034917"><ele>186.0</ele><time>2026-05-04T14:10:43.879Z</time></trkpt><trkpt lat="41.5961322" lon="0.7036374"><ele>186.0</ele><time>2026-05-04T14:10:44.878Z</time></trkpt><trkpt lat="41.596075" lon="0.7037873"><ele>186.0</ele><time>2026-05-04T14:10:45.879Z</time></trkpt><trkpt lat="41.5960182" lon="0.7039396"><ele>186.0</ele><time>2026-05-04T14:10:46.879Z</time></trkpt><trkpt lat="41.5959613" lon="0.7040958"><ele>186.0</ele><time>2026-05-04T14:10:47.879Z</time></trkpt><trkpt lat="41.5959084" lon="0.7042537"><ele>186.0</ele><time>2026-05-04T14:10:48.879Z</time></trkpt><trkpt lat="41.5958534" lon="0.7044056"><ele>186.0</ele><time>2026-05-04T14:10:49.879Z</time></trkpt><trkpt lat="41.5957968" lon="0.7045612"><ele>186.0</ele><time>2026-05-04T14:10:50.879Z</time></trkpt><trkpt lat="41.5957398" lon="0.7047149"><ele>186.0</ele><time>2026-05-04T14:10:51.878Z</time></trkpt><trkpt lat="41.5956778" lon="0.7048715"><ele>186.0</ele><time>2026-05-04T14:10:52.878Z</time></trkpt><trkpt lat="41.5956245" lon="0.7050269"><ele>186.0</ele><time>2026-05-04T14:10:53.879Z</time></trkpt><trkpt lat="41.5955679" lon="0.7051777"><ele>186.25</ele><time>2026-05-04T14:10:54.879Z</time></trkpt><trkpt lat="41.5955086" lon="0.7053318"><ele>186.5</ele><time>2026-05-04T14:10:55.878Z</time></trkpt><trkpt lat="41.5954518" lon="0.7054866"><ele>186.75</ele><time>2026-05-04T14:10:56.878Z</time></trkpt><trkpt lat="41.5953951" lon="0.7056409"><ele>187.0</ele><time>2026-05-04T14:10:57.879Z</time></trkpt><trkpt lat="41.5953381" lon="0.7058013"><ele>187.0</ele><time>2026-05-04T14:10:58.879Z</time></trkpt><trkpt lat="41.5952784" lon="0.7059624"><ele>187.0</ele><time>2026-05-04T14:10:59.878Z</time></trkpt><trkpt lat="41.5952177" lon="0.7061295"><ele>187.0</ele><time>2026-05-04T14:11:00.879Z</time></trkpt><trkpt lat="41.5951558" lon="0.7062969"><ele>187.0</ele><time>2026-05-04T14:11:01.879Z</time></trkpt><trkpt lat="41.5950975" lon="0.7064626"><ele>187.25</ele><time>2026-05-04T14:11:02.879Z</time></trkpt><trkpt lat="41.5950337" lon="0.7066309"><ele>187.5</ele><time>2026-05-04T14:11:03.878Z</time></trkpt><trkpt lat="41.5949709" lon="0.706796"><ele>187.75</ele><time>2026-05-04T14:11:04.879Z</time></trkpt><trkpt lat="41.5949079" lon="0.7069617"><ele>188.0</ele><time>2026-05-04T14:11:05.879Z</time></trkpt><trkpt lat="41.5948448" lon="0.7071285"><ele>188.5</ele><time>2026-05-04T14:11:06.879Z</time></trkpt><trkpt lat="41.5947797" lon="0.7072989"><ele>189.0</ele><time>2026-05-04T14:11:07.88Z</time></trkpt><trkpt lat="41.5947186" lon="0.7074693"><ele>189.5</ele><time>2026-05-04T14:11:08.879Z</time></trkpt><trkpt lat="41.5946583" lon="0.7076356"><ele>190.0</ele><time>2026-05-04T14:11:09.88Z</time></trkpt><trkpt lat="41.594599" lon="0.7078034"><ele>190.0</ele><time>2026-05-04T14:11:10.88Z</time></trkpt><trkpt lat="41.5945356" lon="0.7079735"><ele>190.0</ele><time>2026-05-04T14:11:11.879Z</time></trkpt><trkpt lat="41.5944745" lon="0.7081411"><ele>190.0</ele><time>2026-05-04T14:11:12.88Z</time></trkpt><trkpt lat="41.5944131" lon="0.7083142"><ele>190.0</ele><time>2026-05-04T14:11:13.88Z</time></trkpt><trkpt lat="41.5943547" lon="0.7084829"><ele>190.25</ele><time>2026-05-04T14:11:14.879Z</time></trkpt><trkpt lat="41.5942963" lon="0.7086452"><ele>190.5</ele><time>2026-05-04T14:11:15.88Z</time></trkpt><trkpt lat="41.5942368" lon="0.7088064"><ele>190.75</ele><time>2026-05-04T14:11:16.88Z</time></trkpt><trkpt lat="41.5941799" lon="0.7089628"><ele>191.0</ele><time>2026-05-04T14:11:17.88Z</time></trkpt><trkpt lat="41.5941222" lon="0.7091224"><ele>191.0</ele><time>2026-05-04T14:11:18.88Z</time></trkpt><trkpt lat="41.5940683" lon="0.7092726"><ele>191.0</ele><time>2026-05-04T14:11:19.88Z</time></trkpt><trkpt lat="41.5940155" lon="0.7094223"><ele>191.0</ele><time>2026-05-04T14:11:20.88Z</time></trkpt><trkpt lat="41.5939577" lon="0.7095744"><ele>191.0</ele><time>2026-05-04T14:11:21.879Z</time></trkpt><trkpt lat="41.5939006" lon="0.7097339"><ele>191.75</ele><time>2026-05-04T14:11:22.88Z</time></trkpt><trkpt lat="41.5938454" lon="0.7098859"><ele>192.5</ele><time>2026-05-04T14:11:23.88Z</time></trkpt><trkpt lat="41.593792" lon="0.7100387"><ele>193.25</ele><time>2026-05-04T14:11:24.88Z</time></trkpt><trkpt lat="41.5937333" lon="0.7101903"><ele>194.0</ele><time>2026-05-04T14:11:25.88Z</time></trkpt><trkpt lat="41.5936755" lon="0.7103429"><ele>194.5</ele><time>2026-05-04T14:11:26.88Z</time></trkpt><trkpt lat="41.5936202" lon="0.7104899"><ele>195.0</ele><time>2026-05-04T14:11:27.879Z</time></trkpt><trkpt lat="41.5935627" lon="0.7106442"><ele>195.5</ele><time>2026-05-04T14:11:28.88Z</time></trkpt><trkpt lat="41.593508" lon="0.7107948"><ele>196.0</ele><time>2026-05-04T14:11:29.88Z</time></trkpt><trkpt lat="41.5934517" lon="0.7109457"><ele>196.75</ele><time>2026-05-04T14:11:30.88Z</time></trkpt><trkpt lat="41.5933983" lon="0.7110922"><ele>197.5</ele><time>2026-05-04T14:11:31.88Z</time></trkpt><trkpt lat="41.5933431" lon="0.7112381"><ele>198.25</ele><time>2026-05-04T14:11:32.879Z</time></trkpt><trkpt lat="41.5932863" lon="0.7113828"><ele>199.0</ele><time>2026-05-04T14:11:33.88Z</time></trkpt><trkpt lat="41.593229" lon="0.7115328"><ele>199.0</ele><time>2026-05-04T14:11:34.879Z</time></trkpt><trkpt lat="41.5931729" lon="0.7116847"><ele>199.0</ele><time>2026-05-04T14:11:35.879Z</time></trkpt><trkpt lat="41.5931146" lon="0.7118434"><ele>199.0</ele><time>2026-05-04T14:11:36.88Z</time></trkpt><trkpt lat="41.5930584" lon="0.7119988"><ele>199.0</ele><time>2026-05-04T14:11:37.88Z</time></trkpt><trkpt lat="41.5930041" lon="0.712155"><ele>199.25</ele><time>2026-05-04T14:11:38.88Z</time></trkpt><trkpt lat="41.5929485" lon="0.712309"><ele>199.5</ele><time>2026-05-04T14:11:39.88Z</time></trkpt><trkpt lat="41.592889" lon="0.7124614"><ele>199.75</ele><time>2026-05-04T14:11:40.88Z</time></trkpt><trkpt lat="41.5928319" lon="0.7126196"><ele>200.0</ele><time>2026-05-04T14:11:41.88Z</time></trkpt><trkpt lat="41.5927761" lon="0.7127854"><ele>200.75</ele><time>2026-05-04T14:11:42.88Z</time></trkpt><trkpt lat="41.5927168" lon="0.7129473"><ele>201.5</ele><time>2026-05-04T14:11:43.88Z</time></trkpt><trkpt lat="41.5926614" lon="0.7131047"><ele>202.25</ele><time>2026-05-04T14:11:44.88Z</time></trkpt><trkpt lat="41.5926023" lon="0.7132653"><ele>203.0</ele><time>2026-05-04T14:11:45.88Z</time></trkpt><trkpt lat="41.5925479" lon="0.7134251"><ele>203.0</ele><time>2026-05-04T14:11:46.88Z</time></trkpt><trkpt lat="41.5924893" lon="0.7135799"><ele>203.0</ele><time>2026-05-04T14:11:47.88Z</time></trkpt><trkpt lat="41.5924329" lon="0.7137341"><ele>203.0</ele><time>2026-05-04T14:11:48.88Z</time></trkpt><trkpt lat="41.592372" lon="0.7138929"><ele>203.0</ele><time>2026-05-04T14:11:49.88Z</time></trkpt><trkpt lat="41.592309" lon="0.7140573"><ele>203.0</ele><time>2026-05-04T14:11:50.88Z</time></trkpt><trkpt lat="41.592252" lon="0.7142146"><ele>203.0</ele><time>2026-05-04T14:11:51.88Z</time></trkpt><trkpt lat="41.5921962" lon="0.7143738"><ele>203.0</ele><time>2026-05-04T14:11:52.88Z</time></trkpt><trkpt lat="41.5921385" lon="0.7145259"><ele>203.0</ele><time>2026-05-04T14:11:53.88Z</time></trkpt><trkpt lat="41.5920851" lon="0.7146743"><ele>203.75</ele><time>2026-05-04T14:11:54.88Z</time></trkpt><trkpt lat="41.5920291" lon="0.7148173"><ele>204.5</ele><time>2026-05-04T14:11:55.88Z</time></trkpt><trkpt lat="41.5919757" lon="0.7149654"><ele>205.25</ele><time>2026-05-04T14:11:56.88Z</time></trkpt><trkpt lat="41.5919216" lon="0.7151105"><ele>206.0</ele><time>2026-05-04T14:11:57.88Z</time></trkpt><trkpt lat="41.5918691" lon="0.7152577"><ele>207.0</ele><time>2026-05-04T14:11:58.88Z</time></trkpt><trkpt lat="41.5918159" lon="0.7154038"><ele>208.0</ele><time>2026-05-04T14:11:59.88Z</time></trkpt><trkpt lat="41.5917573" lon="0.7155549"><ele>209.0</ele><time>2026-05-04T14:12:00.879Z</time></trkpt><trkpt lat="41.5917052" lon="0.7157029"><ele>210.0</ele><time>2026-05-04T14:12:01.88Z</time></trkpt><trkpt lat="41.5916489" lon="0.7158561"><ele>210.0</ele><time>2026-05-04T14:12:02.88Z</time></trkpt><trkpt lat="41.5915954" lon="0.7160082"><ele>210.0</ele><time>2026-05-04T14:12:03.88Z</time></trkpt><trkpt lat="41.5915388" lon="0.716162"><ele>210.0</ele><time>2026-05-04T14:12:04.88Z</time></trkpt><trkpt lat="41.5914813" lon="0.7163224"><ele>210.0</ele><time>2026-05-04T14:12:05.88Z</time></trkpt><trkpt lat="41.5914231" lon="0.716484"><ele>210.5</ele><time>2026-05-04T14:12:06.88Z</time></trkpt><trkpt lat="41.5913617" lon="0.7166427"><ele>211.0</ele><time>2026-05-04T14:12:07.88Z</time></trkpt><trkpt lat="41.5912995" lon="0.7168032"><ele>211.5</ele><time>2026-05-04T14:12:08.88Z</time></trkpt><trkpt lat="41.591245" lon="0.716959"><ele>212.0</ele><time>2026-05-04T14:12:09.88Z</time></trkpt><trkpt lat="41.5911835" lon="0.7171185"><ele>212.25</ele><time>2026-05-04T14:12:10.88Z</time></trkpt><trkpt lat="41.591121" lon="0.7172789"><ele>212.5</ele><time>2026-05-04T14:12:11.88Z</time></trkpt><trkpt lat="41.5910556" lon="0.7174394"><ele>212.75</ele><time>2026-05-04T14:12:12.879Z</time></trkpt><trkpt lat="41.590994" lon="0.717599"><ele>213.0</ele><time>2026-05-04T14:12:13.879Z</time></trkpt><trkpt lat="41.5909319" lon="0.7177596"><ele>214.0</ele><time>2026-05-04T14:12:14.88Z</time></trkpt><trkpt lat="41.5908673" lon="0.7179235"><ele>215.0</ele><time>2026-05-04T14:12:15.879Z</time></trkpt><trkpt lat="41.5908069" lon="0.718087"><ele>216.0</ele><time>2026-05-04T14:12:16.88Z</time></trkpt><trkpt lat="41.5907485" lon="0.7182501"><ele>217.0</ele><time>2026-05-04T14:12:17.879Z</time></trkpt><trkpt lat="41.5906917" lon="0.71841"><ele>217.25</ele><time>2026-05-04T14:12:18.88Z</time></trkpt><trkpt lat="41.5906359" lon="0.7185726"><ele>217.5</ele><time>2026-05-04T14:12:19.879Z</time></trkpt><trkpt lat="41.5905774" lon="0.7187301"><ele>217.75</ele><time>2026-05-04T14:12:20.88Z</time></trkpt><trkpt lat="41.5905168" lon="0.7188885"><ele>218.0</ele><time>2026-05-04T14:12:21.88Z</time></trkpt><trkpt lat="41.5904584" lon="0.7190367"><ele>218.0</ele><time>2026-05-04T14:12:22.88Z</time></trkpt><trkpt lat="41.5904023" lon="0.7191799"><ele>218.0</ele><time>2026-05-04T14:12:23.88Z</time></trkpt><trkpt lat="41.5903479" lon="0.7193278"><ele>218.0</ele><time>2026-05-04T14:12:24.88Z</time></trkpt><trkpt lat="41.5902925" lon="0.7194737"><ele>218.0</ele><time>2026-05-04T14:12:25.88Z</time></trkpt><trkpt lat="41.5902404" lon="0.7196239"><ele>219.5</ele><time>2026-05-04T14:12:26.879Z</time></trkpt><trkpt lat="41.590185" lon="0.7197672"><ele>221.0</ele><time>2026-05-04T14:12:27.88Z</time></trkpt><trkpt lat="41.5901303" lon="0.7199046"><ele>222.5</ele><time>2026-05-04T14:12:28.88Z</time></trkpt><trkpt lat="41.5900798" lon="0.720044"><ele>224.0</ele><time>2026-05-04T14:12:29.88Z</time></trkpt><trkpt lat="41.5900297" lon="0.7201838"><ele>224.5</ele><time>2026-05-04T14:12:30.879Z</time></trkpt><trkpt lat="41.5899781" lon="0.7203276"><ele>225.0</ele><time>2026-05-04T14:12:31.879Z</time></trkpt><trkpt lat="41.5899257" lon="0.7204661"><ele>225.5</ele><time>2026-05-04T14:12:32.88Z</time></trkpt><trkpt lat="41.5898759" lon="0.7206024"><ele>226.0</ele><time>2026-05-04T14:12:33.879Z</time></trkpt><trkpt lat="41.5898281" lon="0.7207403"><ele>226.0</ele><time>2026-05-04T14:12:34.88Z</time></trkpt><trkpt lat="41.5897772" lon="0.720879"><ele>226.0</ele><time>2026-05-04T14:12:35.88Z</time></trkpt><trkpt lat="41.5897204" lon="0.7210149"><ele>226.0</ele><time>2026-05-04T14:12:36.88Z</time></trkpt><trkpt lat="41.5896704" lon="0.7211502"><ele>226.0</ele><time>2026-05-04T14:12:37.88Z</time></trkpt><trkpt lat="41.589618" lon="0.7212852"><ele>227.25</ele><time>2026-05-04T14:12:38.88Z</time></trkpt><trkpt lat="41.5895662" lon="0.7214229"><ele>228.5</ele><time>2026-05-04T14:12:39.88Z</time></trkpt><trkpt lat="41.5895102" lon="0.7215583"><ele>229.75</ele><time>2026-05-04T14:12:40.88Z</time></trkpt><trkpt lat="41.5894514" lon="0.7216923"><ele>231.0</ele><time>2026-05-04T14:12:41.88Z</time></trkpt><trkpt lat="41.5893963" lon="0.7218248"><ele>232.0</ele><time>2026-05-04T14:12:42.88Z</time></trkpt><trkpt lat="41.589336" lon="0.7219591"><ele>233.0</ele><time>2026-05-04T14:12:43.88Z</time></trkpt><trkpt lat="41.5892749" lon="0.7220981"><ele>234.0</ele><time>2026-05-04T14:12:44.88Z</time></trkpt><trkpt lat="41.5892159" lon="0.7222408"><ele>235.0</ele><time>2026-05-04T14:12:45.879Z</time></trkpt><trkpt lat="41.5891567" lon="0.7223873"><ele>235.0</ele><time>2026-05-04T14:12:46.879Z</time></trkpt><trkpt lat="41.5890928" lon="0.7225354"><ele>235.0</ele><time>2026-05-04T14:12:47.879Z</time></trkpt><trkpt lat="41.5890268" lon="0.7226815"><ele>235.0</ele><time>2026-05-04T14:12:48.88Z</time></trkpt><trkpt lat="41.5889641" lon="0.7228311"><ele>235.0</ele><time>2026-05-04T14:12:49.88Z</time></trkpt><trkpt lat="41.588898" lon="0.7229769"><ele>235.0</ele><time>2026-05-04T14:12:50.88Z</time></trkpt><trkpt lat="41.588834" lon="0.723122"><ele>235.0</ele><time>2026-05-04T14:12:51.88Z</time></trkpt><trkpt lat="41.5887688" lon="0.7232694"><ele>235.0</ele><time>2026-05-04T14:12:52.88Z</time></trkpt><trkpt lat="41.5887112" lon="0.7234056"><ele>235.0</ele><time>2026-05-04T14:12:53.88Z</time></trkpt><trkpt lat="41.5886568" lon="0.7235419"><ele>235.25</ele><time>2026-05-04T14:12:54.88Z</time></trkpt><trkpt lat="41.5886038" lon="0.7236736"><ele>235.5</ele><time>2026-05-04T14:12:55.88Z</time></trkpt><trkpt lat="41.5885516" lon="0.7238117"><ele>235.75</ele><time>2026-05-04T14:12:56.88Z</time></trkpt><trkpt lat="41.5884965" lon="0.7239494"><ele>236.0</ele><time>2026-05-04T14:12:57.879Z</time></trkpt><trkpt lat="41.5884355" lon="0.7240894"><ele>236.0</ele><time>2026-05-04T14:12:58.88Z</time></trkpt><trkpt lat="41.5883682" lon="0.7242231"><ele>236.0</ele><time>2026-05-04T14:12:59.88Z</time></trkpt><trkpt lat="41.5883007" lon="0.7243719"><ele>236.0</ele><time>2026-05-04T14:13:00.879Z</time></trkpt><trkpt lat="41.5882352" lon="0.724518"><ele>236.0</ele><time>2026-05-04T14:13:01.88Z</time></trkpt><trkpt lat="41.5881664" lon="0.7246686"><ele>236.0</ele><time>2026-05-04T14:13:02.88Z</time></trkpt><trkpt lat="41.5881008" lon="0.7248193"><ele>236.0</ele><time>2026-05-04T14:13:03.88Z</time></trkpt><trkpt lat="41.588033" lon="0.7249703"><ele>236.0</ele><time>2026-05-04T14:13:04.879Z</time></trkpt><trkpt lat="41.587967" lon="0.7251227"><ele>236.0</ele><time>2026-05-04T14:13:05.88Z</time></trkpt><trkpt lat="41.5879015" lon="0.7252736"><ele>236.25</ele><time>2026-05-04T14:13:06.88Z</time></trkpt><trkpt lat="41.587838" lon="0.7254223"><ele>236.5</ele><time>2026-05-04T14:13:07.88Z</time></trkpt><trkpt lat="41.5877692" lon="0.725578"><ele>236.75</ele><time>2026-05-04T14:13:08.88Z</time></trkpt><trkpt lat="41.587699" lon="0.7257265"><ele>237.0</ele><time>2026-05-04T14:13:09.88Z</time></trkpt><trkpt lat="41.5876292" lon="0.7258776"><ele>237.0</ele><time>2026-05-04T14:13:10.88Z</time></trkpt><trkpt lat="41.5875629" lon="0.7260244"><ele>237.0</ele><time>2026-05-04T14:13:11.88Z</time></trkpt><trkpt lat="41.5874955" lon="0.7261765"><ele>237.0</ele><time>2026-05-04T14:13:12.879Z</time></trkpt><trkpt lat="41.5874308" lon="0.7263247"><ele>237.0</ele><time>2026-05-04T14:13:13.88Z</time></trkpt><trkpt lat="41.5873638" lon="0.7264728"><ele>236.75</ele><time>2026-05-04T14:13:14.88Z</time></trkpt><trkpt lat="41.5872994" lon="0.7266196"><ele>236.5</ele><time>2026-05-04T14:13:15.879Z</time></trkpt><trkpt lat="41.5872326" lon="0.7267652"><ele>236.25</ele><time>2026-05-04T14:13:16.88Z</time></trkpt><trkpt lat="41.5871685" lon="0.7269082"><ele>236.0</ele><time>2026-05-04T14:13:17.88Z</time></trkpt><trkpt lat="41.5871033" lon="0.727057"><ele>236.0</ele><time>2026-05-04T14:13:18.879Z</time></trkpt><trkpt lat="41.5870361" lon="0.7272073"><ele>236.0</ele><time>2026-05-04T14:13:19.879Z</time></trkpt><trkpt lat="41.5869697" lon="0.7273579"><ele>236.0</ele><time>2026-05-04T14:13:20.88Z</time></trkpt><trkpt lat="41.5869028" lon="0.7275083"><ele>236.0</ele><time>2026-05-04T14:13:21.88Z</time></trkpt><trkpt lat="41.5868362" lon="0.7276607"><ele>236.5</ele><time>2026-05-04T14:13:22.88Z</time></trkpt><trkpt lat="41.5867707" lon="0.7278118"><ele>237.0</ele><time>2026-05-04T14:13:23.88Z</time></trkpt><trkpt lat="41.5867036" lon="0.7279605"><ele>237.5</ele><time>2026-05-04T14:13:24.88Z</time></trkpt><trkpt lat="41.5866389" lon="0.7281168"><ele>238.0</ele><time>2026-05-04T14:13:25.88Z</time></trkpt><trkpt lat="41.5865749" lon="0.7282732"><ele>238.0</ele><time>2026-05-04T14:13:26.88Z</time></trkpt><trkpt lat="41.5865132" lon="0.7284275"><ele>238.0</ele><time>2026-05-04T14:13:27.879Z</time></trkpt><trkpt lat="41.5864498" lon="0.728583"><ele>238.0</ele><time>2026-05-04T14:13:28.88Z</time></trkpt><trkpt lat="41.5863872" lon="0.7287354"><ele>238.0</ele><time>2026-05-04T14:13:29.879Z</time></trkpt><trkpt lat="41.5863225" lon="0.7288903"><ele>238.25</ele><time>2026-05-04T14:13:30.88Z</time></trkpt><trkpt lat="41.5862629" lon="0.7290491"><ele>238.5</ele><time>2026-05-04T14:13:31.88Z</time></trkpt><trkpt lat="41.5861994" lon="0.7292142"><ele>238.75</ele><time>2026-05-04T14:13:32.88Z</time></trkpt><trkpt lat="41.5861401" lon="0.7293794"><ele>239.0</ele><time>2026-05-04T14:13:33.879Z</time></trkpt><trkpt lat="41.586083" lon="0.7295493"><ele>239.0</ele><time>2026-05-04T14:13:34.88Z</time></trkpt><trkpt lat="41.5860285" lon="0.729705"><ele>239.0</ele><time>2026-05-04T14:13:35.88Z</time></trkpt><trkpt lat="41.5859742" lon="0.729852"><ele>239.0</ele><time>2026-05-04T14:13:36.88Z</time></trkpt><trkpt lat="41.585918" lon="0.7300016"><ele>239.0</ele><time>2026-05-04T14:13:37.88Z</time></trkpt><trkpt lat="41.585862" lon="0.73016"><ele>239.0</ele><time>2026-05-04T14:13:38.88Z</time></trkpt><trkpt lat="41.5858084" lon="0.7303201"><ele>239.0</ele><time>2026-05-04T14:13:39.88Z</time></trkpt><trkpt lat="41.5857534" lon="0.7304826"><ele>239.0</ele><time>2026-05-04T14:13:40.879Z</time></trkpt><trkpt lat="41.5857027" lon="0.7306357"><ele>239.0</ele><time>2026-05-04T14:13:41.88Z</time></trkpt><trkpt lat="41.5856504" lon="0.7307889"><ele>239.0</ele><time>2026-05-04T14:13:42.88Z</time></trkpt><trkpt lat="41.5856004" lon="0.7309406"><ele>239.0</ele><time>2026-05-04T14:13:43.88Z</time></trkpt><trkpt lat="41.5855475" lon="0.7311006"><ele>239.0</ele><time>2026-05-04T14:13:44.88Z</time></trkpt><trkpt lat="41.5854944" lon="0.7312622"><ele>239.0</ele><time>2026-05-04T14:13:45.88Z</time></trkpt><trkpt lat="41.5854438" lon="0.7314184"><ele>239.0</ele><time>2026-05-04T14:13:46.88Z</time></trkpt><trkpt lat="41.5853893" lon="0.731577"><ele>239.0</ele><time>2026-05-04T14:13:47.88Z</time></trkpt><trkpt lat="41.5853368" lon="0.731737"><ele>239.0</ele><time>2026-05-04T14:13:48.88Z</time></trkpt><trkpt lat="41.5852817" lon="0.7318919"><ele>239.0</ele><time>2026-05-04T14:13:49.881Z</time></trkpt><trkpt lat="41.5852229" lon="0.7320603"><ele>239.25</ele><time>2026-05-04T14:13:50.881Z</time></trkpt><trkpt lat="41.585165" lon="0.7322231"><ele>239.5</ele><time>2026-05-04T14:13:51.881Z</time></trkpt><trkpt lat="41.5851087" lon="0.7323858"><ele>239.75</ele><time>2026-05-04T14:13:52.881Z</time></trkpt><trkpt lat="41.5850556" lon="0.7325498"><ele>240.0</ele><time>2026-05-04T14:13:53.881Z</time></trkpt><trkpt lat="41.5849942" lon="0.7327163"><ele>240.25</ele><time>2026-05-04T14:13:54.881Z</time></trkpt><trkpt lat="41.5849402" lon="0.7328844"><ele>240.5</ele><time>2026-05-04T14:13:55.88Z</time></trkpt><trkpt lat="41.584884" lon="0.7330559"><ele>240.75</ele><time>2026-05-04T14:13:56.881Z</time></trkpt><trkpt lat="41.5848306" lon="0.7332237"><ele>241.0</ele><time>2026-05-04T14:13:57.881Z</time></trkpt><trkpt lat="41.5847723" lon="0.7333903"><ele>241.0</ele><time>2026-05-04T14:13:58.881Z</time></trkpt><trkpt lat="41.5847158" lon="0.7335587"><ele>241.0</ele><time>2026-05-04T14:13:59.881Z</time></trkpt><trkpt lat="41.5846611" lon="0.7337224"><ele>241.0</ele><time>2026-05-04T14:14:00.881Z</time></trkpt><trkpt lat="41.5846048" lon="0.7338883"><ele>241.0</ele><time>2026-05-04T14:14:01.88Z</time></trkpt><trkpt lat="41.5845509" lon="0.7340541"><ele>241.25</ele><time>2026-05-04T14:14:02.881Z</time></trkpt><trkpt lat="41.5844956" lon="0.7342216"><ele>241.5</ele><time>2026-05-04T14:14:03.881Z</time></trkpt><trkpt lat="41.5844419" lon="0.7343865"><ele>241.75</ele><time>2026-05-04T14:14:04.88Z</time></trkpt><trkpt lat="41.58439" lon="0.7345519"><ele>242.0</ele><time>2026-05-04T14:14:05.881Z</time></trkpt><trkpt lat="41.5843323" lon="0.734717"><ele>242.0</ele><time>2026-05-04T14:14:06.88Z</time></trkpt><trkpt lat="41.5842772" lon="0.7348824"><ele>242.0</ele><time>2026-05-04T14:14:07.88Z</time></trkpt><trkpt lat="41.5842225" lon="0.7350501"><ele>242.0</ele><time>2026-05-04T14:14:08.88Z</time></trkpt><trkpt lat="41.5841663" lon="0.7352159"><ele>242.0</ele><time>2026-05-04T14:14:09.881Z</time></trkpt><trkpt lat="41.5841114" lon="0.7353799"><ele>242.0</ele><time>2026-05-04T14:14:10.881Z</time></trkpt><trkpt lat="41.5840577" lon="0.7355423"><ele>242.0</ele><time>2026-05-04T14:14:11.881Z</time></trkpt><trkpt lat="41.5840046" lon="0.7357051"><ele>242.0</ele><time>2026-05-04T14:14:12.881Z</time></trkpt><trkpt lat="41.5839523" lon="0.7358668"><ele>242.0</ele><time>2026-05-04T14:14:13.88Z</time></trkpt><trkpt lat="41.5838977" lon="0.736027"><ele>242.0</ele><time>2026-05-04T14:14:14.881Z</time></trkpt><trkpt lat="41.5838443" lon="0.7361856"><ele>242.0</ele><time>2026-05-04T14:14:15.88Z</time></trkpt><trkpt lat="41.5837884" lon="0.7363421"><ele>242.0</ele><time>2026-05-04T14:14:16.881Z</time></trkpt><trkpt lat="41.5837361" lon="0.7365044"><ele>242.0</ele><time>2026-05-04T14:14:17.881Z</time></trkpt><trkpt lat="41.5836812" lon="0.7366695"><ele>242.0</ele><time>2026-05-04T14:14:18.881Z</time></trkpt><trkpt lat="41.5836318" lon="0.7368341"><ele>242.0</ele><time>2026-05-04T14:14:19.881Z</time></trkpt><trkpt lat="41.5835786" lon="0.7369948"><ele>242.0</ele><time>2026-05-04T14:14:20.881Z</time></trkpt><trkpt lat="41.5835226" lon="0.7371569"><ele>242.0</ele><time>2026-05-04T14:14:21.881Z</time></trkpt><trkpt lat="41.5834654" lon="0.7373217"><ele>242.0</ele><time>2026-05-04T14:14:22.881Z</time></trkpt><trkpt lat="41.5834115" lon="0.7374839"><ele>242.0</ele><time>2026-05-04T14:14:23.881Z</time></trkpt><trkpt lat="41.5833566" lon="0.7376544"><ele>242.0</ele><time>2026-05-04T14:14:24.881Z</time></trkpt><trkpt lat="41.5833004" lon="0.7378257"><ele>242.0</ele><time>2026-05-04T14:14:25.881Z</time></trkpt><trkpt lat="41.5832442" lon="0.7379915"><ele>242.25</ele><time>2026-05-04T14:14:26.881Z</time></trkpt><trkpt lat="41.5831904" lon="0.7381546"><ele>242.5</ele><time>2026-05-04T14:14:27.881Z</time></trkpt><trkpt lat="41.5831339" lon="0.738326"><ele>242.75</ele><time>2026-05-04T14:14:28.881Z</time></trkpt><trkpt lat="41.5830753" lon="0.738497"><ele>243.0</ele><time>2026-05-04T14:14:29.88Z</time></trkpt><trkpt lat="41.5830195" lon="0.7386665"><ele>243.0</ele><time>2026-05-04T14:14:30.88Z</time></trkpt><trkpt lat="41.5829634" lon="0.7388384"><ele>243.0</ele><time>2026-05-04T14:14:31.881Z</time></trkpt><trkpt lat="41.5829059" lon="0.7390108"><ele>243.0</ele><time>2026-05-04T14:14:32.881Z</time></trkpt><trkpt lat="41.5828487" lon="0.7391825"><ele>243.0</ele><time>2026-05-04T14:14:33.88Z</time></trkpt><trkpt lat="41.5827915" lon="0.7393556"><ele>243.0</ele><time>2026-05-04T14:14:34.881Z</time></trkpt><trkpt lat="41.5827311" lon="0.7395333"><ele>243.0</ele><time>2026-05-04T14:14:35.881Z</time></trkpt><trkpt lat="41.5826699" lon="0.7397144"><ele>243.0</ele><time>2026-05-04T14:14:36.881Z</time></trkpt><trkpt lat="41.5826127" lon="0.739893"><ele>243.0</ele><time>2026-05-04T14:14:37.881Z</time></trkpt><trkpt lat="41.5825566" lon="0.7400666"><ele>243.25</ele><time>2026-05-04T14:14:38.881Z</time></trkpt><trkpt lat="41.5825002" lon="0.7402363"><ele>243.5</ele><time>2026-05-04T14:14:39.881Z</time></trkpt><trkpt lat="41.5824471" lon="0.7403992"><ele>243.75</ele><time>2026-05-04T14:14:40.881Z</time></trkpt><trkpt lat="41.5823905" lon="0.7405667"><ele>244.0</ele><time>2026-05-04T14:14:41.881Z</time></trkpt><trkpt lat="41.5823416" lon="0.7407188"><ele>244.0</ele><time>2026-05-04T14:14:42.881Z</time></trkpt><trkpt lat="41.5822912" lon="0.7408662"><ele>244.0</ele><time>2026-05-04T14:14:43.881Z</time></trkpt><trkpt lat="41.5822331" lon="0.7410137"><ele>244.0</ele><time>2026-05-04T14:14:44.881Z</time></trkpt><trkpt lat="41.5821867" lon="0.7411692"><ele>244.0</ele><time>2026-05-04T14:14:45.881Z</time></trkpt><trkpt lat="41.5821346" lon="0.7413207"><ele>243.75</ele><time>2026-05-04T14:14:46.881Z</time></trkpt><trkpt lat="41.5820828" lon="0.7414684"><ele>243.5</ele><time>2026-05-04T14:14:47.881Z</time></trkpt><trkpt lat="41.5820362" lon="0.7416232"><ele>243.25</ele><time>2026-05-04T14:14:48.881Z</time></trkpt><trkpt lat="41.5819847" lon="0.7417722"><ele>243.0</ele><time>2026-05-04T14:14:49.881Z</time></trkpt><trkpt lat="41.5819297" lon="0.7419232"><ele>243.5</ele><time>2026-05-04T14:14:50.881Z</time></trkpt><trkpt lat="41.5818795" lon="0.7420775"><ele>244.0</ele><time>2026-05-04T14:14:51.881Z</time></trkpt><trkpt lat="41.5818258" lon="0.7422322"><ele>244.5</ele><time>2026-05-04T14:14:52.88Z</time></trkpt><trkpt lat="41.5817722" lon="0.7423894"><ele>245.0</ele><time>2026-05-04T14:14:53.881Z</time></trkpt><trkpt lat="41.5817211" lon="0.7425425"><ele>245.0</ele><time>2026-05-04T14:14:54.881Z</time></trkpt><trkpt lat="41.5816638" lon="0.7427049"><ele>245.0</ele><time>2026-05-04T14:14:55.881Z</time></trkpt><trkpt lat="41.5816063" lon="0.7428614"><ele>245.0</ele><time>2026-05-04T14:14:56.881Z</time></trkpt><trkpt lat="41.5815557" lon="0.7430198"><ele>245.0</ele><time>2026-05-04T14:14:57.881Z</time></trkpt><trkpt lat="41.5815022" lon="0.7431745"><ele>245.0</ele><time>2026-05-04T14:14:58.881Z</time></trkpt><trkpt lat="41.5814543" lon="0.7433374"><ele>245.0</ele><time>2026-05-04T14:14:59.881Z</time></trkpt><trkpt lat="41.5814054" lon="0.7434988"><ele>245.0</ele><time>2026-05-04T14:15:00.881Z</time></trkpt><trkpt lat="41.5813495" lon="0.7436549"><ele>245.0</ele><time>2026-05-04T14:15:01.881Z</time></trkpt><trkpt lat="41.5812971" lon="0.7438146"><ele>245.0</ele><time>2026-05-04T14:15:02.88Z</time></trkpt><trkpt lat="41.5812469" lon="0.7439728"><ele>245.0</ele><time>2026-05-04T14:15:03.88Z</time></trkpt><trkpt lat="41.5811903" lon="0.7441309"><ele>245.0</ele><time>2026-05-04T14:15:04.881Z</time></trkpt><trkpt lat="41.5811374" lon="0.744294"><ele>245.0</ele><time>2026-05-04T14:15:05.881Z</time></trkpt><trkpt lat="41.5810841" lon="0.7444599"><ele>245.25</ele><time>2026-05-04T14:15:06.881Z</time></trkpt><trkpt lat="41.5810315" lon="0.7446245"><ele>245.5</ele><time>2026-05-04T14:15:07.881Z</time></trkpt><trkpt lat="41.5809757" lon="0.7447839"><ele>245.75</ele><time>2026-05-04T14:15:08.88Z</time></trkpt><trkpt lat="41.5809207" lon="0.7449459"><ele>246.0</ele><time>2026-05-04T14:15:09.881Z</time></trkpt><trkpt lat="41.5808697" lon="0.7451081"><ele>246.0</ele><time>2026-05-04T14:15:10.881Z</time></trkpt><trkpt lat="41.5808177" lon="0.745262"><ele>246.0</ele><time>2026-05-04T14:15:11.881Z</time></trkpt><trkpt lat="41.5807658" lon="0.7454163"><ele>246.0</ele><time>2026-05-04T14:15:12.881Z</time></trkpt><trkpt lat="41.5807155" lon="0.745572"><ele>246.0</ele><time>2026-05-04T14:15:13.881Z</time></trkpt><trkpt lat="41.5806643" lon="0.7457288"><ele>246.0</ele><time>2026-05-04T14:15:14.881Z</time></trkpt><trkpt lat="41.5806153" lon="0.7458823"><ele>246.0</ele><time>2026-05-04T14:15:15.881Z</time></trkpt><trkpt lat="41.5805637" lon="0.7460435"><ele>246.0</ele><time>2026-05-04T14:15:16.881Z</time></trkpt><trkpt lat="41.5805099" lon="0.7462019"><ele>246.0</ele><time>2026-05-04T14:15:17.881Z</time></trkpt><trkpt lat="41.5804565" lon="0.7463608"><ele>246.0</ele><time>2026-05-04T14:15:18.881Z</time></trkpt><trkpt lat="41.5804026" lon="0.746514"><ele>246.0</ele><time>2026-05-04T14:15:19.881Z</time></trkpt><trkpt lat="41.5803474" lon="0.7466706"><ele>246.0</ele><time>2026-05-04T14:15:20.881Z</time></trkpt><trkpt lat="41.5802935" lon="0.7468346"><ele>246.0</ele><time>2026-05-04T14:15:21.881Z</time></trkpt><trkpt lat="41.5802381" lon="0.7469969"><ele>246.5</ele><time>2026-05-04T14:15:22.881Z</time></trkpt><trkpt lat="41.5801829" lon="0.7471643"><ele>247.0</ele><time>2026-05-04T14:15:23.881Z</time></trkpt><trkpt lat="41.5801288" lon="0.7473292"><ele>247.5</ele><time>2026-05-04T14:15:24.881Z</time></trkpt><trkpt lat="41.5800748" lon="0.747491"><ele>248.0</ele><time>2026-05-04T14:15:25.881Z</time></trkpt><trkpt lat="41.5800232" lon="0.74765"><ele>248.25</ele><time>2026-05-04T14:15:26.881Z</time></trkpt><trkpt lat="41.5799696" lon="0.7478123"><ele>248.5</ele><time>2026-05-04T14:15:27.881Z</time></trkpt><trkpt lat="41.5799201" lon="0.7479705"><ele>248.75</ele><time>2026-05-04T14:15:28.881Z</time></trkpt><trkpt lat="41.5798653" lon="0.7481303"><ele>249.0</ele><time>2026-05-04T14:15:29.881Z</time></trkpt><trkpt lat="41.5798091" lon="0.7482916"><ele>249.0</ele><time>2026-05-04T14:15:30.881Z</time></trkpt><trkpt lat="41.579752" lon="0.7484566"><ele>249.0</ele><time>2026-05-04T14:15:31.88Z</time></trkpt><trkpt lat="41.5796988" lon="0.7486179"><ele>249.0</ele><time>2026-05-04T14:15:32.881Z</time></trkpt><trkpt lat="41.5796455" lon="0.7487818"><ele>249.0</ele><time>2026-05-04T14:15:33.881Z</time></trkpt><trkpt lat="41.5795867" lon="0.7489534"><ele>248.75</ele><time>2026-05-04T14:15:34.881Z</time></trkpt><trkpt lat="41.5795308" lon="0.7491215"><ele>248.5</ele><time>2026-05-04T14:15:35.881Z</time></trkpt><trkpt lat="41.5794745" lon="0.749287"><ele>248.25</ele><time>2026-05-04T14:15:36.88Z</time></trkpt><trkpt lat="41.5794187" lon="0.7494562"><ele>248.0</ele><time>2026-05-04T14:15:37.881Z</time></trkpt><trkpt lat="41.5793619" lon="0.7496224"><ele>248.25</ele><time>2026-05-04T14:15:38.881Z</time></trkpt><trkpt lat="41.5793083" lon="0.7497881"><ele>248.5</ele><time>2026-05-04T14:15:39.881Z</time></trkpt><trkpt lat="41.5792549" lon="0.7499476"><ele>248.75</ele><time>2026-05-04T14:15:40.881Z</time></trkpt><trkpt lat="41.5792024" lon="0.7501097"><ele>249.0</ele><time>2026-05-04T14:15:41.88Z</time></trkpt><trkpt lat="41.579151" lon="0.7502654"><ele>249.0</ele><time>2026-05-04T14:15:42.881Z</time></trkpt><trkpt lat="41.5790944" lon="0.7504228"><ele>249.0</ele><time>2026-05-04T14:15:43.881Z</time></trkpt><trkpt lat="41.5790378" lon="0.7505862"><ele>249.0</ele><time>2026-05-04T14:15:44.88Z</time></trkpt><trkpt lat="41.5789821" lon="0.7507476"><ele>249.0</ele><time>2026-05-04T14:15:45.881Z</time></trkpt><trkpt lat="41.5789294" lon="0.7509053"><ele>249.0</ele><time>2026-05-04T14:15:46.88Z</time></trkpt><trkpt lat="41.5788787" lon="0.7510608"><ele>249.0</ele><time>2026-05-04T14:15:47.881Z</time></trkpt><trkpt lat="41.5788275" lon="0.7512168"><ele>249.0</ele><time>2026-05-04T14:15:48.88Z</time></trkpt><trkpt lat="41.5787773" lon="0.7513681"><ele>249.0</ele><time>2026-05-04T14:15:49.881Z</time></trkpt><trkpt lat="41.5787291" lon="0.7515215"><ele>248.75</ele><time>2026-05-04T14:15:50.88Z</time></trkpt><trkpt lat="41.5786792" lon="0.7516727"><ele>248.5</ele><time>2026-05-04T14:15:51.881Z</time></trkpt><trkpt lat="41.5786232" lon="0.7518242"><ele>248.25</ele><time>2026-05-04T14:15:52.881Z</time></trkpt><trkpt lat="41.5785751" lon="0.7519788"><ele>248.0</ele><time>2026-05-04T14:15:53.881Z</time></trkpt><trkpt lat="41.5785253" lon="0.7521285"><ele>248.0</ele><time>2026-05-04T14:15:54.881Z</time></trkpt><trkpt lat="41.5784733" lon="0.752286"><ele>248.0</ele><time>2026-05-04T14:15:55.881Z</time></trkpt><trkpt lat="41.5784207" lon="0.7524424"><ele>248.0</ele><time>2026-05-04T14:15:56.881Z</time></trkpt><trkpt lat="41.5783646" lon="0.7525978"><ele>248.0</ele><time>2026-05-04T14:15:57.881Z</time></trkpt><trkpt lat="41.5783126" lon="0.7527518"><ele>248.75</ele><time>2026-05-04T14:15:58.881Z</time></trkpt><trkpt lat="41.5782618" lon="0.7529067"><ele>249.5</ele><time>2026-05-04T14:15:59.881Z</time></trkpt><trkpt lat="41.5782122" lon="0.7530625"><ele>250.25</ele><time>2026-05-04T14:16:00.881Z</time></trkpt><trkpt lat="41.5781599" lon="0.7532212"><ele>251.0</ele><time>2026-05-04T14:16:01.881Z</time></trkpt><trkpt lat="41.5781102" lon="0.7533838"><ele>251.0</ele><time>2026-05-04T14:16:02.88Z</time></trkpt><trkpt lat="41.5780611" lon="0.7535387"><ele>251.0</ele><time>2026-05-04T14:16:03.88Z</time></trkpt><trkpt lat="41.5780068" lon="0.7536949"><ele>251.0</ele><time>2026-05-04T14:16:04.881Z</time></trkpt><trkpt lat="41.5779537" lon="0.7538575"><ele>251.0</ele><time>2026-05-04T14:16:05.881Z</time></trkpt><trkpt lat="41.5778996" lon="0.754013"><ele>251.0</ele><time>2026-05-04T14:16:06.881Z</time></trkpt><trkpt lat="41.5778464" lon="0.7541748"><ele>251.0</ele><time>2026-05-04T14:16:07.881Z</time></trkpt><trkpt lat="41.5777902" lon="0.7543309"><ele>251.0</ele><time>2026-05-04T14:16:08.88Z</time></trkpt><trkpt lat="41.5777351" lon="0.7544924"><ele>251.0</ele><time>2026-05-04T14:16:09.881Z</time></trkpt><trkpt lat="41.5776822" lon="0.7546547"><ele>251.25</ele><time>2026-05-04T14:16:10.881Z</time></trkpt><trkpt lat="41.5776264" lon="0.7548139"><ele>251.5</ele><time>2026-05-04T14:16:11.881Z</time></trkpt><trkpt lat="41.5775716" lon="0.7549789"><ele>251.75</ele><time>2026-05-04T14:16:12.881Z</time></trkpt><trkpt lat="41.5775182" lon="0.7551459"><ele>252.0</ele><time>2026-05-04T14:16:13.881Z</time></trkpt><trkpt lat="41.5774632" lon="0.7553102"><ele>252.5</ele><time>2026-05-04T14:16:14.881Z</time></trkpt><trkpt lat="41.5774078" lon="0.7554774"><ele>253.0</ele><time>2026-05-04T14:16:15.88Z</time></trkpt><trkpt lat="41.5773536" lon="0.7556443"><ele>253.5</ele><time>2026-05-04T14:16:16.88Z</time></trkpt><trkpt lat="41.5772983" lon="0.7558118"><ele>254.0</ele><time>2026-05-04T14:16:17.881Z</time></trkpt><trkpt lat="41.5772425" lon="0.7559787"><ele>254.5</ele><time>2026-05-04T14:16:18.881Z</time></trkpt><trkpt lat="41.5771906" lon="0.7561432"><ele>255.0</ele><time>2026-05-04T14:16:19.881Z</time></trkpt><trkpt lat="41.5771345" lon="0.7563106"><ele>255.5</ele><time>2026-05-04T14:16:20.881Z</time></trkpt><trkpt lat="41.5770773" lon="0.7564761"><ele>256.0</ele><time>2026-05-04T14:16:21.88Z</time></trkpt><trkpt lat="41.5770219" lon="0.7566434"><ele>254.75</ele><time>2026-05-04T14:16:22.881Z</time></trkpt><trkpt lat="41.576964" lon="0.756809"><ele>253.5</ele><time>2026-05-04T14:16:23.881Z</time></trkpt><trkpt lat="41.5769082" lon="0.7569745"><ele>252.25</ele><time>2026-05-04T14:16:24.881Z</time></trkpt><trkpt lat="41.5768568" lon="0.7571443"><ele>251.0</ele><time>2026-05-04T14:16:25.881Z</time></trkpt><trkpt lat="41.5767983" lon="0.7573129"><ele>251.0</ele><time>2026-05-04T14:16:26.882Z</time></trkpt><trkpt lat="41.5767465" lon="0.7574783"><ele>251.0</ele><time>2026-05-04T14:16:27.881Z</time></trkpt><trkpt lat="41.5766924" lon="0.7576442"><ele>251.0</ele><time>2026-05-04T14:16:28.882Z</time></trkpt><trkpt lat="41.5766448" lon="0.7578169"><ele>251.0</ele><time>2026-05-04T14:16:29.882Z</time></trkpt><trkpt lat="41.576589" lon="0.7579866"><ele>251.5</ele><time>2026-05-04T14:16:30.882Z</time></trkpt><trkpt lat="41.5765313" lon="0.758155"><ele>252.0</ele><time>2026-05-04T14:16:31.882Z</time></trkpt><trkpt lat="41.5764686" lon="0.7583271"><ele>252.5</ele><time>2026-05-04T14:16:32.882Z</time></trkpt><trkpt lat="41.5764108" lon="0.7584944"><ele>253.0</ele><time>2026-05-04T14:16:33.882Z</time></trkpt><trkpt lat="41.5763532" lon="0.7586597"><ele>253.0</ele><time>2026-05-04T14:16:34.882Z</time></trkpt><trkpt lat="41.5762978" lon="0.7588398"><ele>253.0</ele><time>2026-05-04T14:16:35.881Z</time></trkpt><trkpt lat="41.5762402" lon="0.7590093"><ele>253.0</ele><time>2026-05-04T14:16:36.882Z</time></trkpt><trkpt lat="41.5761797" lon="0.7591776"><ele>253.0</ele><time>2026-05-04T14:16:37.882Z</time></trkpt><trkpt lat="41.5761207" lon="0.7593492"><ele>253.0</ele><time>2026-05-04T14:16:38.882Z</time></trkpt><trkpt lat="41.5760622" lon="0.7595228"><ele>253.0</ele><time>2026-05-04T14:16:39.881Z</time></trkpt><trkpt lat="41.576006" lon="0.7596922"><ele>253.0</ele><time>2026-05-04T14:16:40.882Z</time></trkpt><trkpt lat="41.5759501" lon="0.7598676"><ele>253.0</ele><time>2026-05-04T14:16:41.882Z</time></trkpt><trkpt lat="41.575893" lon="0.7600397"><ele>253.25</ele><time>2026-05-04T14:16:42.882Z</time></trkpt><trkpt lat="41.5758377" lon="0.7602054"><ele>253.5</ele><time>2026-05-04T14:16:43.882Z</time></trkpt><trkpt lat="41.5757763" lon="0.760378"><ele>253.75</ele><time>2026-05-04T14:16:44.882Z</time></trkpt><trkpt lat="41.5757223" lon="0.760541"><ele>254.0</ele><time>2026-05-04T14:16:45.882Z</time></trkpt><trkpt lat="41.5756719" lon="0.7607077"><ele>254.0</ele><time>2026-05-04T14:16:46.882Z</time></trkpt><trkpt lat="41.575622" lon="0.7608617"><ele>254.0</ele><time>2026-05-04T14:16:47.882Z</time></trkpt><trkpt lat="41.575568" lon="0.7610137"><ele>254.0</ele><time>2026-05-04T14:16:48.882Z</time></trkpt><trkpt lat="41.5755179" lon="0.7611715"><ele>254.0</ele><time>2026-05-04T14:16:49.882Z</time></trkpt><trkpt lat="41.5754651" lon="0.7613274"><ele>254.0</ele><time>2026-05-04T14:16:50.882Z</time></trkpt><trkpt lat="41.5754145" lon="0.7614853"><ele>254.0</ele><time>2026-05-04T14:16:51.882Z</time></trkpt><trkpt lat="41.5753614" lon="0.761646"><ele>254.0</ele><time>2026-05-04T14:16:52.881Z</time></trkpt><trkpt lat="41.5753045" lon="0.7618075"><ele>254.0</ele><time>2026-05-04T14:16:53.882Z</time></trkpt><trkpt lat="41.5752495" lon="0.761972"><ele>254.0</ele><time>2026-05-04T14:16:54.882Z</time></trkpt><trkpt lat="41.5751966" lon="0.7621364"><ele>254.0</ele><time>2026-05-04T14:16:55.882Z</time></trkpt><trkpt lat="41.5751398" lon="0.7623025"><ele>254.0</ele><time>2026-05-04T14:16:56.882Z</time></trkpt><trkpt lat="41.5750876" lon="0.7624642"><ele>254.0</ele><time>2026-05-04T14:16:57.882Z</time></trkpt><trkpt lat="41.5750332" lon="0.7626242"><ele>254.0</ele><time>2026-05-04T14:16:58.882Z</time></trkpt><trkpt lat="41.5749821" lon="0.7627805"><ele>254.0</ele><time>2026-05-04T14:16:59.882Z</time></trkpt><trkpt lat="41.5749244" lon="0.7629444"><ele>254.0</ele><time>2026-05-04T14:17:00.882Z</time></trkpt><trkpt lat="41.574872" lon="0.7631054"><ele>254.0</ele><time>2026-05-04T14:17:01.882Z</time></trkpt><trkpt lat="41.574819" lon="0.7632684"><ele>254.0</ele><time>2026-05-04T14:17:02.881Z</time></trkpt><trkpt lat="41.5747632" lon="0.7634303"><ele>254.0</ele><time>2026-05-04T14:17:03.882Z</time></trkpt><trkpt lat="41.5747113" lon="0.7635924"><ele>254.0</ele><time>2026-05-04T14:17:04.882Z</time></trkpt><trkpt lat="41.5746613" lon="0.7637557"><ele>254.0</ele><time>2026-05-04T14:17:05.882Z</time></trkpt><trkpt lat="41.5746044" lon="0.7639221"><ele>254.25</ele><time>2026-05-04T14:17:06.882Z</time></trkpt><trkpt lat="41.5745515" lon="0.7640764"><ele>254.5</ele><time>2026-05-04T14:17:07.881Z</time></trkpt><trkpt lat="41.5744978" lon="0.7642363"><ele>254.75</ele><time>2026-05-04T14:17:08.882Z</time></trkpt><trkpt lat="41.5744417" lon="0.7643971"><ele>255.0</ele><time>2026-05-04T14:17:09.882Z</time></trkpt><trkpt lat="41.5743922" lon="0.7645581"><ele>255.0</ele><time>2026-05-04T14:17:10.882Z</time></trkpt><trkpt lat="41.5743376" lon="0.7647113"><ele>255.0</ele><time>2026-05-04T14:17:11.881Z</time></trkpt><trkpt lat="41.5742841" lon="0.7648652"><ele>255.0</ele><time>2026-05-04T14:17:12.882Z</time></trkpt><trkpt lat="41.5742269" lon="0.7650231"><ele>255.0</ele><time>2026-05-04T14:17:13.882Z</time></trkpt><trkpt lat="41.5741702" lon="0.765181"><ele>255.25</ele><time>2026-05-04T14:17:14.882Z</time></trkpt><trkpt lat="41.574115" lon="0.7653383"><ele>255.5</ele><time>2026-05-04T14:17:15.881Z</time></trkpt><trkpt lat="41.5740616" lon="0.7654931"><ele>255.75</ele><time>2026-05-04T14:17:16.882Z</time></trkpt><trkpt lat="41.5740035" lon="0.7656462"><ele>256.0</ele><time>2026-05-04T14:17:17.882Z</time></trkpt><trkpt lat="41.5739476" lon="0.765806"><ele>256.0</ele><time>2026-05-04T14:17:18.882Z</time></trkpt><trkpt lat="41.5738891" lon="0.7659664"><ele>256.0</ele><time>2026-05-04T14:17:19.882Z</time></trkpt><trkpt lat="41.5738311" lon="0.7661341"><ele>256.0</ele><time>2026-05-04T14:17:20.882Z</time></trkpt><trkpt lat="41.5737688" lon="0.7662954"><ele>256.0</ele><time>2026-05-04T14:17:21.882Z</time></trkpt><trkpt lat="41.5737098" lon="0.7664525"><ele>256.25</ele><time>2026-05-04T14:17:22.882Z</time></trkpt><trkpt lat="41.5736483" lon="0.7666185"><ele>256.5</ele><time>2026-05-04T14:17:23.882Z</time></trkpt><trkpt lat="41.573584" lon="0.7667812"><ele>256.75</ele><time>2026-05-04T14:17:24.882Z</time></trkpt><trkpt lat="41.5735275" lon="0.7669461"><ele>257.0</ele><time>2026-05-04T14:17:25.881Z</time></trkpt><trkpt lat="41.5734652" lon="0.7671087"><ele>257.0</ele><time>2026-05-04T14:17:26.882Z</time></trkpt><trkpt lat="41.5734051" lon="0.7672683"><ele>257.0</ele><time>2026-05-04T14:17:27.882Z</time></trkpt><trkpt lat="41.573338" lon="0.7674291"><ele>257.0</ele><time>2026-05-04T14:17:28.882Z</time></trkpt><trkpt lat="41.5732722" lon="0.7675905"><ele>257.0</ele><time>2026-05-04T14:17:29.881Z</time></trkpt><trkpt lat="41.5732102" lon="0.7677553"><ele>257.75</ele><time>2026-05-04T14:17:30.882Z</time></trkpt><trkpt lat="41.5731461" lon="0.76792"><ele>258.5</ele><time>2026-05-04T14:17:31.882Z</time></trkpt><trkpt lat="41.5730802" lon="0.7680847"><ele>259.25</ele><time>2026-05-04T14:17:32.882Z</time></trkpt><trkpt lat="41.573014" lon="0.768249"><ele>260.0</ele><time>2026-05-04T14:17:33.882Z</time></trkpt><trkpt lat="41.5729462" lon="0.768415"><ele>260.0</ele><time>2026-05-04T14:17:34.881Z</time></trkpt><trkpt lat="41.5728831" lon="0.7685736"><ele>260.0</ele><time>2026-05-04T14:17:35.882Z</time></trkpt><trkpt lat="41.5728265" lon="0.7687199"><ele>260.0</ele><time>2026-05-04T14:17:36.882Z</time></trkpt><trkpt lat="41.5727701" lon="0.7688578"><ele>260.0</ele><time>2026-05-04T14:17:37.882Z</time></trkpt><trkpt lat="41.5727128" lon="0.7690021"><ele>260.0</ele><time>2026-05-04T14:17:38.882Z</time></trkpt><trkpt lat="41.5726603" lon="0.769136"><ele>260.0</ele><time>2026-05-04T14:17:39.881Z</time></trkpt><trkpt lat="41.5726068" lon="0.7692647"><ele>260.0</ele><time>2026-05-04T14:17:40.882Z</time></trkpt><trkpt lat="41.5725531" lon="0.7693951"><ele>260.0</ele><time>2026-05-04T14:17:41.882Z</time></trkpt><trkpt lat="41.5724996" lon="0.7695186"><ele>260.0</ele><time>2026-05-04T14:17:42.882Z</time></trkpt><trkpt lat="41.5724423" lon="0.7696408"><ele>259.8</ele><time>2026-05-04T14:17:43.882Z</time></trkpt><trkpt lat="41.572381" lon="0.7697603"><ele>259.6</ele><time>2026-05-04T14:17:44.882Z</time></trkpt><trkpt lat="41.5723103" lon="0.7698698"><ele>259.4</ele><time>2026-05-04T14:17:45.882Z</time></trkpt><trkpt lat="41.572231" lon="0.7699628"><ele>259.2</ele><time>2026-05-04T14:17:46.882Z</time></trkpt><trkpt lat="41.5721478" lon="0.7700569"><ele>259.0</ele><time>2026-05-04T14:17:47.881Z</time></trkpt><trkpt lat="41.5720829" lon="0.7701711"><ele>259.0</ele><time>2026-05-04T14:17:48.882Z</time></trkpt><trkpt lat="41.5720464" lon="0.7702998"><ele>259.0</ele><time>2026-05-04T14:17:49.882Z</time></trkpt><trkpt lat="41.5720228" lon="0.7704319"><ele>259.0</ele><time>2026-05-04T14:17:50.882Z</time></trkpt><trkpt lat="41.5720046" lon="0.7705629"><ele>259.0</ele><time>2026-05-04T14:17:51.882Z</time></trkpt><trkpt lat="41.571972" lon="0.7706964"><ele>259.0</ele><time>2026-05-04T14:17:52.882Z</time></trkpt><trkpt lat="41.5719373" lon="0.7708232"><ele>259.0</ele><time>2026-05-04T14:17:53.882Z</time></trkpt><trkpt lat="41.5718881" lon="0.7709522"><ele>259.0</ele><time>2026-05-04T14:17:54.881Z</time></trkpt><trkpt lat="41.5718345" lon="0.7710757"><ele>259.0</ele><time>2026-05-04T14:17:55.882Z</time></trkpt><trkpt lat="41.571776" lon="0.7712089"><ele>259.0</ele><time>2026-05-04T14:17:56.882Z</time></trkpt><trkpt lat="41.5717159" lon="0.7713425"><ele>259.0</ele><time>2026-05-04T14:17:57.882Z</time></trkpt><trkpt lat="41.5716545" lon="0.7714806"><ele>258.5</ele><time>2026-05-04T14:17:58.881Z</time></trkpt><trkpt lat="41.5715918" lon="0.7716185"><ele>258.0</ele><time>2026-05-04T14:17:59.882Z</time></trkpt><trkpt lat="41.5715312" lon="0.771761"><ele>257.5</ele><time>2026-05-04T14:18:00.882Z</time></trkpt><trkpt lat="41.5714691" lon="0.7719057"><ele>257.0</ele><time>2026-05-04T14:18:01.882Z</time></trkpt><trkpt lat="41.5714045" lon="0.7720527"><ele>257.0</ele><time>2026-05-04T14:18:02.882Z</time></trkpt><trkpt lat="41.5713383" lon="0.7722115"><ele>257.0</ele><time>2026-05-04T14:18:03.881Z</time></trkpt><trkpt lat="41.5712713" lon="0.7723667"><ele>257.0</ele><time>2026-05-04T14:18:04.882Z</time></trkpt><trkpt lat="41.5712002" lon="0.7725221"><ele>257.0</ele><time>2026-05-04T14:18:05.882Z</time></trkpt><trkpt lat="41.571127" lon="0.7726764"><ele>257.0</ele><time>2026-05-04T14:18:06.882Z</time></trkpt><trkpt lat="41.571052" lon="0.7728349"><ele>257.0</ele><time>2026-05-04T14:18:07.882Z</time></trkpt><trkpt lat="41.5709783" lon="0.7729958"><ele>257.0</ele><time>2026-05-04T14:18:08.882Z</time></trkpt><trkpt lat="41.5709078" lon="0.773157"><ele>257.0</ele><time>2026-05-04T14:18:09.882Z</time></trkpt><trkpt lat="41.5708395" lon="0.7733104"><ele>257.0</ele><time>2026-05-04T14:18:10.882Z</time></trkpt><trkpt lat="41.5707685" lon="0.7734617"><ele>257.0</ele><time>2026-05-04T14:18:11.882Z</time></trkpt><trkpt lat="41.5707015" lon="0.7736128"><ele>257.0</ele><time>2026-05-04T14:18:12.882Z</time></trkpt><trkpt lat="41.5706285" lon="0.7737645"><ele>257.0</ele><time>2026-05-04T14:18:13.882Z</time></trkpt><trkpt lat="41.5705597" lon="0.7739119"><ele>257.25</ele><time>2026-05-04T14:18:14.882Z</time></trkpt><trkpt lat="41.5704898" lon="0.7740653"><ele>257.5</ele><time>2026-05-04T14:18:15.882Z</time></trkpt><trkpt lat="41.5704195" lon="0.7742176"><ele>257.75</ele><time>2026-05-04T14:18:16.882Z</time></trkpt><trkpt lat="41.5703552" lon="0.7743661"><ele>258.0</ele><time>2026-05-04T14:18:17.882Z</time></trkpt><trkpt lat="41.5702877" lon="0.774503"><ele>258.0</ele><time>2026-05-04T14:18:18.882Z</time></trkpt><trkpt lat="41.5702258" lon="0.7746475"><ele>258.0</ele><time>2026-05-04T14:18:19.882Z</time></trkpt><trkpt lat="41.5701608" lon="0.7747915"><ele>258.0</ele><time>2026-05-04T14:18:20.882Z</time></trkpt><trkpt lat="41.5700959" lon="0.7749297"><ele>258.0</ele><time>2026-05-04T14:18:21.882Z</time></trkpt><trkpt lat="41.5700301" lon="0.7750734"><ele>258.25</ele><time>2026-05-04T14:18:22.882Z</time></trkpt><trkpt lat="41.5699679" lon="0.7752167"><ele>258.5</ele><time>2026-05-04T14:18:23.882Z</time></trkpt><trkpt lat="41.5699039" lon="0.7753613"><ele>258.75</ele><time>2026-05-04T14:18:24.882Z</time></trkpt><trkpt lat="41.5698393" lon="0.7755061"><ele>259.0</ele><time>2026-05-04T14:18:25.882Z</time></trkpt><trkpt lat="41.5697739" lon="0.775657"><ele>259.0</ele><time>2026-05-04T14:18:26.881Z</time></trkpt><trkpt lat="41.5697042" lon="0.7758034"><ele>259.0</ele><time>2026-05-04T14:18:27.882Z</time></trkpt><trkpt lat="41.5696349" lon="0.7759512"><ele>259.0</ele><time>2026-05-04T14:18:28.882Z</time></trkpt><trkpt lat="41.5695647" lon="0.776095"><ele>259.0</ele><time>2026-05-04T14:18:29.882Z</time></trkpt><trkpt lat="41.5694902" lon="0.7762464"><ele>259.0</ele><time>2026-05-04T14:18:30.882Z</time></trkpt><trkpt lat="41.5694191" lon="0.7764003"><ele>259.0</ele><time>2026-05-04T14:18:31.881Z</time></trkpt><trkpt lat="41.5693517" lon="0.7765588"><ele>259.0</ele><time>2026-05-04T14:18:32.882Z</time></trkpt><trkpt lat="41.5692818" lon="0.7767153"><ele>259.0</ele><time>2026-05-04T14:18:33.882Z</time></trkpt><trkpt lat="41.5692142" lon="0.7768747"><ele>259.0</ele><time>2026-05-04T14:18:34.882Z</time></trkpt><trkpt lat="41.5691489" lon="0.7770164"><ele>259.0</ele><time>2026-05-04T14:18:35.882Z</time></trkpt><trkpt lat="41.5690828" lon="0.7771609"><ele>259.0</ele><time>2026-05-04T14:18:36.882Z</time></trkpt><trkpt lat="41.5690165" lon="0.7773006"><ele>259.0</ele><time>2026-05-04T14:18:37.881Z</time></trkpt><trkpt lat="41.5689517" lon="0.7774371"><ele>259.0</ele><time>2026-05-04T14:18:38.881Z</time></trkpt><trkpt lat="41.5688877" lon="0.7775825"><ele>259.0</ele><time>2026-05-04T14:18:39.882Z</time></trkpt><trkpt lat="41.5688285" lon="0.7777185"><ele>259.0</ele><time>2026-05-04T14:18:40.882Z</time></trkpt><trkpt lat="41.5687647" lon="0.7778608"><ele>259.0</ele><time>2026-05-04T14:18:41.882Z</time></trkpt><trkpt lat="41.568701" lon="0.7779996"><ele>259.0</ele><time>2026-05-04T14:18:42.882Z</time></trkpt><trkpt lat="41.5686386" lon="0.7781357"><ele>259.0</ele><time>2026-05-04T14:18:43.881Z</time></trkpt><trkpt lat="41.5685731" lon="0.7782796"><ele>259.0</ele><time>2026-05-04T14:18:44.882Z</time></trkpt><trkpt lat="41.5685078" lon="0.7784192"><ele>259.0</ele><time>2026-05-04T14:18:45.882Z</time></trkpt><trkpt lat="41.5684434" lon="0.778556"><ele>259.0</ele><time>2026-05-04T14:18:46.882Z</time></trkpt><trkpt lat="41.5683851" lon="0.7786911"><ele>259.0</ele><time>2026-05-04T14:18:47.881Z</time></trkpt><trkpt lat="41.5683226" lon="0.7788214"><ele>259.0</ele><time>2026-05-04T14:18:48.882Z</time></trkpt><trkpt lat="41.5682604" lon="0.7789573"><ele>259.0</ele><time>2026-05-04T14:18:49.882Z</time></trkpt><trkpt lat="41.5682005" lon="0.7790966"><ele>259.0</ele><time>2026-05-04T14:18:50.882Z</time></trkpt><trkpt lat="41.5681365" lon="0.7792396"><ele>259.0</ele><time>2026-05-04T14:18:51.882Z</time></trkpt><trkpt lat="41.5680652" lon="0.7793857"><ele>259.0</ele><time>2026-05-04T14:18:52.882Z</time></trkpt><trkpt lat="41.567998" lon="0.779534"><ele>259.0</ele><time>2026-05-04T14:18:53.882Z</time></trkpt><trkpt lat="41.567934" lon="0.7796814"><ele>259.25</ele><time>2026-05-04T14:18:54.882Z</time></trkpt><trkpt lat="41.5678688" lon="0.7798339"><ele>259.5</ele><time>2026-05-04T14:18:55.882Z</time></trkpt><trkpt lat="41.5678054" lon="0.7799733"><ele>259.75</ele><time>2026-05-04T14:18:56.882Z</time></trkpt><trkpt lat="41.5677416" lon="0.7801089"><ele>260.0</ele><time>2026-05-04T14:18:57.882Z</time></trkpt><trkpt lat="41.5676798" lon="0.7802476"><ele>260.25</ele><time>2026-05-04T14:18:58.881Z</time></trkpt><trkpt lat="41.5676155" lon="0.7803812"><ele>260.5</ele><time>2026-05-04T14:18:59.882Z</time></trkpt><trkpt lat="41.567555" lon="0.7805185"><ele>260.75</ele><time>2026-05-04T14:19:00.882Z</time></trkpt><trkpt lat="41.5674925" lon="0.7806526"><ele>261.0</ele><time>2026-05-04T14:19:01.882Z</time></trkpt><trkpt lat="41.5674292" lon="0.7807929"><ele>261.0</ele><time>2026-05-04T14:19:02.882Z</time></trkpt><trkpt lat="41.5673651" lon="0.7809314"><ele>261.0</ele><time>2026-05-04T14:19:03.882Z</time></trkpt><trkpt lat="41.5673014" lon="0.7810759"><ele>261.0</ele><time>2026-05-04T14:19:04.882Z</time></trkpt><trkpt lat="41.5672391" lon="0.7812245"><ele>261.0</ele><time>2026-05-04T14:19:05.882Z</time></trkpt><trkpt lat="41.5671714" lon="0.7813682"><ele>261.0</ele><time>2026-05-04T14:19:06.883Z</time></trkpt><trkpt lat="41.5671031" lon="0.7815147"><ele>261.0</ele><time>2026-05-04T14:19:07.882Z</time></trkpt><trkpt lat="41.5670325" lon="0.7816649"><ele>261.0</ele><time>2026-05-04T14:19:08.883Z</time></trkpt><trkpt lat="41.5669607" lon="0.7818115"><ele>261.0</ele><time>2026-05-04T14:19:09.883Z</time></trkpt><trkpt lat="41.5668874" lon="0.7819664"><ele>261.0</ele><time>2026-05-04T14:19:10.882Z</time></trkpt><trkpt lat="41.5668168" lon="0.7821171"><ele>261.0</ele><time>2026-05-04T14:19:11.883Z</time></trkpt><trkpt lat="41.5667485" lon="0.7822681"><ele>261.0</ele><time>2026-05-04T14:19:12.883Z</time></trkpt><trkpt lat="41.5666835" lon="0.7824183"><ele>261.0</ele><time>2026-05-04T14:19:13.883Z</time></trkpt><trkpt lat="41.5666182" lon="0.782573"><ele>260.75</ele><time>2026-05-04T14:19:14.883Z</time></trkpt><trkpt lat="41.5665485" lon="0.7827225"><ele>260.5</ele><time>2026-05-04T14:19:15.883Z</time></trkpt><trkpt lat="41.5664791" lon="0.7828754"><ele>260.25</ele><time>2026-05-04T14:19:16.883Z</time></trkpt><trkpt lat="41.5664156" lon="0.7830204"><ele>260.0</ele><time>2026-05-04T14:19:17.883Z</time></trkpt><trkpt lat="41.5663496" lon="0.7831676"><ele>260.0</ele><time>2026-05-04T14:19:18.883Z</time></trkpt><trkpt lat="41.5662758" lon="0.7833168"><ele>260.0</ele><time>2026-05-04T14:19:19.883Z</time></trkpt><trkpt lat="41.5662073" lon="0.7834629"><ele>260.0</ele><time>2026-05-04T14:19:20.883Z</time></trkpt><trkpt lat="41.566139" lon="0.783608"><ele>260.0</ele><time>2026-05-04T14:19:21.883Z</time></trkpt><trkpt lat="41.5660729" lon="0.7837584"><ele>260.25</ele><time>2026-05-04T14:19:22.883Z</time></trkpt><trkpt lat="41.5660073" lon="0.7839012"><ele>260.5</ele><time>2026-05-04T14:19:23.883Z</time></trkpt><trkpt lat="41.5659406" lon="0.784049"><ele>260.75</ele><time>2026-05-04T14:19:24.882Z</time></trkpt><trkpt lat="41.5658745" lon="0.7841937"><ele>261.0</ele><time>2026-05-04T14:19:25.883Z</time></trkpt><trkpt lat="41.5658113" lon="0.7843413"><ele>260.5</ele><time>2026-05-04T14:19:26.883Z</time></trkpt><trkpt lat="41.5657482" lon="0.7844851"><ele>260.0</ele><time>2026-05-04T14:19:27.883Z</time></trkpt><trkpt lat="41.565683" lon="0.7846295"><ele>259.5</ele><time>2026-05-04T14:19:28.883Z</time></trkpt><trkpt lat="41.5656179" lon="0.7847735"><ele>259.0</ele><time>2026-05-04T14:19:29.882Z</time></trkpt><trkpt lat="41.5655515" lon="0.7849191"><ele>259.0</ele><time>2026-05-04T14:19:30.883Z</time></trkpt><trkpt lat="41.5654829" lon="0.7850614"><ele>259.0</ele><time>2026-05-04T14:19:31.882Z</time></trkpt><trkpt lat="41.565417" lon="0.7852055"><ele>259.0</ele><time>2026-05-04T14:19:32.883Z</time></trkpt><trkpt lat="41.5653511" lon="0.7853478"><ele>259.0</ele><time>2026-05-04T14:19:33.882Z</time></trkpt><trkpt lat="41.5652866" lon="0.7854966"><ele>259.5</ele><time>2026-05-04T14:19:34.883Z</time></trkpt><trkpt lat="41.5652222" lon="0.7856453"><ele>260.0</ele><time>2026-05-04T14:19:35.883Z</time></trkpt><trkpt lat="41.5651547" lon="0.7857921"><ele>260.5</ele><time>2026-05-04T14:19:36.883Z</time></trkpt><trkpt lat="41.5650882" lon="0.7859483"><ele>261.0</ele><time>2026-05-04T14:19:37.883Z</time></trkpt><trkpt lat="41.5650184" lon="0.7861009"><ele>261.0</ele><time>2026-05-04T14:19:38.883Z</time></trkpt><trkpt lat="41.5649508" lon="0.7862537"><ele>261.0</ele><time>2026-05-04T14:19:39.883Z</time></trkpt><trkpt lat="41.5648851" lon="0.7864073"><ele>261.0</ele><time>2026-05-04T14:19:40.883Z</time></trkpt><trkpt lat="41.5648169" lon="0.7865568"><ele>261.0</ele><time>2026-05-04T14:19:41.882Z</time></trkpt><trkpt lat="41.5647469" lon="0.7867059"><ele>261.0</ele><time>2026-05-04T14:19:42.883Z</time></trkpt><trkpt lat="41.564675" lon="0.7868535"><ele>261.0</ele><time>2026-05-04T14:19:43.883Z</time></trkpt><trkpt lat="41.5646045" lon="0.7870011"><ele>261.0</ele><time>2026-05-04T14:19:44.883Z</time></trkpt><trkpt lat="41.5645362" lon="0.787145"><ele>261.0</ele><time>2026-05-04T14:19:45.882Z</time></trkpt><trkpt lat="41.5644666" lon="0.7872945"><ele>261.5</ele><time>2026-05-04T14:19:46.883Z</time></trkpt><trkpt lat="41.5644003" lon="0.7874446"><ele>262.0</ele><time>2026-05-04T14:19:47.883Z</time></trkpt><trkpt lat="41.5643338" lon="0.7875958"><ele>262.5</ele><time>2026-05-04T14:19:48.883Z</time></trkpt><trkpt lat="41.5642656" lon="0.7877487"><ele>263.0</ele><time>2026-05-04T14:19:49.883Z</time></trkpt><trkpt lat="41.5641986" lon="0.7878992"><ele>263.0</ele><time>2026-05-04T14:19:50.883Z</time></trkpt><trkpt lat="41.5641271" lon="0.7880444"><ele>263.0</ele><time>2026-05-04T14:19:51.883Z</time></trkpt><trkpt lat="41.5640584" lon="0.7881929"><ele>263.0</ele><time>2026-05-04T14:19:52.882Z</time></trkpt><trkpt lat="41.5639833" lon="0.788343"><ele>263.0</ele><time>2026-05-04T14:19:53.883Z</time></trkpt><trkpt lat="41.563917" lon="0.7884952"><ele>263.25</ele><time>2026-05-04T14:19:54.883Z</time></trkpt><trkpt lat="41.5638504" lon="0.7886451"><ele>263.5</ele><time>2026-05-04T14:19:55.883Z</time></trkpt><trkpt lat="41.5637852" lon="0.788787"><ele>263.75</ele><time>2026-05-04T14:19:56.883Z</time></trkpt><trkpt lat="41.5637186" lon="0.7889281"><ele>264.0</ele><time>2026-05-04T14:19:57.883Z</time></trkpt><trkpt lat="41.5636549" lon="0.7890676"><ele>264.0</ele><time>2026-05-04T14:19:58.883Z</time></trkpt><trkpt lat="41.5635904" lon="0.7892086"><ele>264.0</ele><time>2026-05-04T14:19:59.883Z</time></trkpt><trkpt lat="41.5635238" lon="0.7893541"><ele>264.0</ele><time>2026-05-04T14:20:00.882Z</time></trkpt><trkpt lat="41.5634584" lon="0.7894941"><ele>264.0</ele><time>2026-05-04T14:20:01.882Z</time></trkpt><trkpt lat="41.5633914" lon="0.7896366"><ele>264.0</ele><time>2026-05-04T14:20:02.883Z</time></trkpt><trkpt lat="41.563325" lon="0.7897843"><ele>264.0</ele><time>2026-05-04T14:20:03.883Z</time></trkpt><trkpt lat="41.563263" lon="0.7899354"><ele>264.0</ele><time>2026-05-04T14:20:04.883Z</time></trkpt><trkpt lat="41.5631965" lon="0.7900863"><ele>264.0</ele><time>2026-05-04T14:20:05.883Z</time></trkpt><trkpt lat="41.5631317" lon="0.7902336"><ele>263.75</ele><time>2026-05-04T14:20:06.883Z</time></trkpt><trkpt lat="41.5630618" lon="0.7903857"><ele>263.5</ele><time>2026-05-04T14:20:07.883Z</time></trkpt><trkpt lat="41.562997" lon="0.7905343"><ele>263.25</ele><time>2026-05-04T14:20:08.883Z</time></trkpt><trkpt lat="41.5629283" lon="0.7906829"><ele>263.0</ele><time>2026-05-04T14:20:09.883Z</time></trkpt><trkpt lat="41.5628593" lon="0.790827"><ele>262.75</ele><time>2026-05-04T14:20:10.883Z</time></trkpt><trkpt lat="41.5627866" lon="0.7909723"><ele>262.5</ele><time>2026-05-04T14:20:11.883Z</time></trkpt><trkpt lat="41.5627201" lon="0.7911201"><ele>262.25</ele><time>2026-05-04T14:20:12.883Z</time></trkpt><trkpt lat="41.5626546" lon="0.7912692"><ele>262.0</ele><time>2026-05-04T14:20:13.883Z</time></trkpt><trkpt lat="41.5625865" lon="0.7914196"><ele>262.0</ele><time>2026-05-04T14:20:14.883Z</time></trkpt><trkpt lat="41.5625194" lon="0.7915698"><ele>262.0</ele><time>2026-05-04T14:20:15.883Z</time></trkpt><trkpt lat="41.5624493" lon="0.7917195"><ele>262.0</ele><time>2026-05-04T14:20:16.883Z</time></trkpt><trkpt lat="41.5623837" lon="0.7918672"><ele>262.0</ele><time>2026-05-04T14:20:17.883Z</time></trkpt><trkpt lat="41.5623172" lon="0.7920196"><ele>261.5</ele><time>2026-05-04T14:20:18.883Z</time></trkpt><trkpt lat="41.5622459" lon="0.7921729"><ele>261.0</ele><time>2026-05-04T14:20:19.883Z</time></trkpt><trkpt lat="41.5621778" lon="0.792325"><ele>260.5</ele><time>2026-05-04T14:20:20.883Z</time></trkpt><trkpt lat="41.5621073" lon="0.792478"><ele>260.0</ele><time>2026-05-04T14:20:21.883Z</time></trkpt><trkpt lat="41.5620344" lon="0.7926326"><ele>260.25</ele><time>2026-05-04T14:20:22.883Z</time></trkpt><trkpt lat="41.5619638" lon="0.7927851"><ele>260.5</ele><time>2026-05-04T14:20:23.883Z</time></trkpt><trkpt lat="41.5619013" lon="0.7929372"><ele>260.75</ele><time>2026-05-04T14:20:24.883Z</time></trkpt><trkpt lat="41.5618333" lon="0.7930921"><ele>261.0</ele><time>2026-05-04T14:20:25.883Z</time></trkpt><trkpt lat="41.5617634" lon="0.7932461"><ele>261.0</ele><time>2026-05-04T14:20:26.883Z</time></trkpt><trkpt lat="41.5616944" lon="0.7934039"><ele>261.0</ele><time>2026-05-04T14:20:27.883Z</time></trkpt><trkpt lat="41.5616201" lon="0.7935542"><ele>261.0</ele><time>2026-05-04T14:20:28.883Z</time></trkpt><trkpt lat="41.5615476" lon="0.793706"><ele>261.0</ele><time>2026-05-04T14:20:29.883Z</time></trkpt><trkpt lat="41.5614801" lon="0.7938634"><ele>260.75</ele><time>2026-05-04T14:20:30.883Z</time></trkpt><trkpt lat="41.5614088" lon="0.7940127"><ele>260.5</ele><time>2026-05-04T14:20:31.883Z</time></trkpt><trkpt lat="41.56134" lon="0.7941662"><ele>260.25</ele><time>2026-05-04T14:20:32.882Z</time></trkpt><trkpt lat="41.5612688" lon="0.7943167"><ele>260.0</ele><time>2026-05-04T14:20:33.883Z</time></trkpt><trkpt lat="41.5611982" lon="0.7944712"><ele>259.75</ele><time>2026-05-04T14:20:34.882Z</time></trkpt><trkpt lat="41.5611303" lon="0.7946245"><ele>259.5</ele><time>2026-05-04T14:20:35.883Z</time></trkpt><trkpt lat="41.561059" lon="0.7947857"><ele>259.25</ele><time>2026-05-04T14:20:36.883Z</time></trkpt><trkpt lat="41.5609889" lon="0.794938"><ele>259.0</ele><time>2026-05-04T14:20:37.883Z</time></trkpt><trkpt lat="41.5609218" lon="0.7950883"><ele>259.25</ele><time>2026-05-04T14:20:38.883Z</time></trkpt><trkpt lat="41.5608561" lon="0.7952345"><ele>259.5</ele><time>2026-05-04T14:20:39.883Z</time></trkpt><trkpt lat="41.5607893" lon="0.7953846"><ele>259.75</ele><time>2026-05-04T14:20:40.882Z</time></trkpt><trkpt lat="41.560722" lon="0.7955295"><ele>260.0</ele><time>2026-05-04T14:20:41.883Z</time></trkpt><trkpt lat="41.5606535" lon="0.7956791"><ele>260.0</ele><time>2026-05-04T14:20:42.882Z</time></trkpt><trkpt lat="41.5605842" lon="0.7958298"><ele>260.0</ele><time>2026-05-04T14:20:43.883Z</time></trkpt><trkpt lat="41.5605191" lon="0.7959823"><ele>260.0</ele><time>2026-05-04T14:20:44.883Z</time></trkpt><trkpt lat="41.5604472" lon="0.7961338"><ele>260.0</ele><time>2026-05-04T14:20:45.883Z</time></trkpt><trkpt lat="41.5603785" lon="0.7962874"><ele>260.0</ele><time>2026-05-04T14:20:46.882Z</time></trkpt><trkpt lat="41.5603076" lon="0.7964405"><ele>260.0</ele><time>2026-05-04T14:20:47.883Z</time></trkpt><trkpt lat="41.5602365" lon="0.7965989"><ele>260.0</ele><time>2026-05-04T14:20:48.883Z</time></trkpt><trkpt lat="41.5601643" lon="0.7967525"><ele>260.0</ele><time>2026-05-04T14:20:49.883Z</time></trkpt><trkpt lat="41.5600892" lon="0.7969097"><ele>259.75</ele><time>2026-05-04T14:20:50.883Z</time></trkpt><trkpt lat="41.5600184" lon="0.7970679"><ele>259.5</ele><time>2026-05-04T14:20:51.883Z</time></trkpt><trkpt lat="41.5599463" lon="0.7972244"><ele>259.25</ele><time>2026-05-04T14:20:52.882Z</time></trkpt><trkpt lat="41.5598734" lon="0.7973861"><ele>259.0</ele><time>2026-05-04T14:20:53.882Z</time></trkpt><trkpt lat="41.5598003" lon="0.7975469"><ele>260.0</ele><time>2026-05-04T14:20:54.883Z</time></trkpt><trkpt lat="41.5597286" lon="0.7977027"><ele>261.0</ele><time>2026-05-04T14:20:55.883Z</time></trkpt><trkpt lat="41.5596574" lon="0.7978612"><ele>262.0</ele><time>2026-05-04T14:20:56.883Z</time></trkpt><trkpt lat="41.5595845" lon="0.7980202"><ele>263.0</ele><time>2026-05-04T14:20:57.883Z</time></trkpt><trkpt lat="41.5595095" lon="0.7981792"><ele>263.25</ele><time>2026-05-04T14:20:58.883Z</time></trkpt><trkpt lat="41.5594351" lon="0.7983375"><ele>263.5</ele><time>2026-05-04T14:20:59.883Z</time></trkpt><trkpt lat="41.5593647" lon="0.7984965"><ele>263.75</ele><time>2026-05-04T14:21:00.883Z</time></trkpt><trkpt lat="41.5592929" lon="0.7986582"><ele>264.0</ele><time>2026-05-04T14:21:01.883Z</time></trkpt><trkpt lat="41.5592203" lon="0.7988226"><ele>263.75</ele><time>2026-05-04T14:21:02.882Z</time></trkpt><trkpt lat="41.5591453" lon="0.7989813"><ele>263.5</ele><time>2026-05-04T14:21:03.882Z</time></trkpt><trkpt lat="41.5590714" lon="0.7991426"><ele>263.25</ele><time>2026-05-04T14:21:04.883Z</time></trkpt><trkpt lat="41.5590034" lon="0.7993002"><ele>263.0</ele><time>2026-05-04T14:21:05.883Z</time></trkpt><trkpt lat="41.5589357" lon="0.7994451"><ele>263.0</ele><time>2026-05-04T14:21:06.883Z</time></trkpt><trkpt lat="41.5588716" lon="0.7995898"><ele>263.0</ele><time>2026-05-04T14:21:07.883Z</time></trkpt><trkpt lat="41.5588049" lon="0.7997382"><ele>263.0</ele><time>2026-05-04T14:21:08.883Z</time></trkpt><trkpt lat="41.558739" lon="0.7998783"><ele>263.0</ele><time>2026-05-04T14:21:09.883Z</time></trkpt><trkpt lat="41.5586737" lon="0.8000247"><ele>263.0</ele><time>2026-05-04T14:21:10.883Z</time></trkpt><trkpt lat="41.5586102" lon="0.8001632"><ele>263.0</ele><time>2026-05-04T14:21:11.882Z</time></trkpt><trkpt lat="41.5585436" lon="0.8003022"><ele>263.0</ele><time>2026-05-04T14:21:12.883Z</time></trkpt><trkpt lat="41.5584779" lon="0.8004409"><ele>263.0</ele><time>2026-05-04T14:21:13.883Z</time></trkpt><trkpt lat="41.5584116" lon="0.8005823"><ele>263.5</ele><time>2026-05-04T14:21:14.883Z</time></trkpt><trkpt lat="41.5583479" lon="0.8007268"><ele>264.0</ele><time>2026-05-04T14:21:15.883Z</time></trkpt><trkpt lat="41.5582878" lon="0.8008649"><ele>264.5</ele><time>2026-05-04T14:21:16.883Z</time></trkpt><trkpt lat="41.5582253" lon="0.8010043"><ele>265.0</ele><time>2026-05-04T14:21:17.883Z</time></trkpt><trkpt lat="41.5581655" lon="0.801144"><ele>265.0</ele><time>2026-05-04T14:21:18.883Z</time></trkpt><trkpt lat="41.5581052" lon="0.8012758"><ele>265.0</ele><time>2026-05-04T14:21:19.883Z</time></trkpt><trkpt lat="41.5580398" lon="0.8014079"><ele>265.0</ele><time>2026-05-04T14:21:20.883Z</time></trkpt><trkpt lat="41.5579778" lon="0.8015386"><ele>265.0</ele><time>2026-05-04T14:21:21.883Z</time></trkpt><trkpt lat="41.5579162" lon="0.8016703"><ele>265.5</ele><time>2026-05-04T14:21:22.883Z</time></trkpt><trkpt lat="41.557855" lon="0.8018048"><ele>266.0</ele><time>2026-05-04T14:21:23.883Z</time></trkpt><trkpt lat="41.5577937" lon="0.8019357"><ele>266.5</ele><time>2026-05-04T14:21:24.883Z</time></trkpt><trkpt lat="41.5577319" lon="0.8020694"><ele>267.0</ele><time>2026-05-04T14:21:25.883Z</time></trkpt><trkpt lat="41.5576699" lon="0.8022005"><ele>267.0</ele><time>2026-05-04T14:21:26.883Z</time></trkpt><trkpt lat="41.557608" lon="0.802332"><ele>267.0</ele><time>2026-05-04T14:21:27.883Z</time></trkpt><trkpt lat="41.5575499" lon="0.8024672"><ele>267.0</ele><time>2026-05-04T14:21:28.883Z</time></trkpt><trkpt lat="41.5574899" lon="0.8026018"><ele>267.0</ele><time>2026-05-04T14:21:29.883Z</time></trkpt><trkpt lat="41.5574266" lon="0.8027429"><ele>266.75</ele><time>2026-05-04T14:21:30.883Z</time></trkpt><trkpt lat="41.5573639" lon="0.8028842"><ele>266.5</ele><time>2026-05-04T14:21:31.883Z</time></trkpt><trkpt lat="41.5572971" lon="0.8030278"><ele>266.25</ele><time>2026-05-04T14:21:32.883Z</time></trkpt><trkpt lat="41.5572357" lon="0.8031721"><ele>266.0</ele><time>2026-05-04T14:21:33.883Z</time></trkpt><trkpt lat="41.5571679" lon="0.8033201"><ele>266.0</ele><time>2026-05-04T14:21:34.883Z</time></trkpt><trkpt lat="41.557099" lon="0.8034639"><ele>266.0</ele><time>2026-05-04T14:21:35.883Z</time></trkpt><trkpt lat="41.5570299" lon="0.8036109"><ele>266.0</ele><time>2026-05-04T14:21:36.883Z</time></trkpt><trkpt lat="41.5569621" lon="0.8037681"><ele>266.0</ele><time>2026-05-04T14:21:37.883Z</time></trkpt><trkpt lat="41.5568928" lon="0.8039204"><ele>267.0</ele><time>2026-05-04T14:21:38.883Z</time></trkpt><trkpt lat="41.5568234" lon="0.8040793"><ele>268.0</ele><time>2026-05-04T14:21:39.883Z</time></trkpt><trkpt lat="41.5567497" lon="0.8042373"><ele>269.0</ele><time>2026-05-04T14:21:40.883Z</time></trkpt><trkpt lat="41.5566778" lon="0.8043932"><ele>270.0</ele><time>2026-05-04T14:21:41.883Z</time></trkpt><trkpt lat="41.5566047" lon="0.8045521"><ele>270.0</ele><time>2026-05-04T14:21:42.883Z</time></trkpt><trkpt lat="41.556529" lon="0.8047143"><ele>270.0</ele><time>2026-05-04T14:21:43.884Z</time></trkpt><trkpt lat="41.5564566" lon="0.8048712"><ele>270.0</ele><time>2026-05-04T14:21:44.884Z</time></trkpt><trkpt lat="41.5563841" lon="0.805024"><ele>270.0</ele><time>2026-05-04T14:21:45.884Z</time></trkpt><trkpt lat="41.5563163" lon="0.8051732"><ele>270.25</ele><time>2026-05-04T14:21:46.883Z</time></trkpt><trkpt lat="41.5562447" lon="0.8053253"><ele>270.5</ele><time>2026-05-04T14:21:47.884Z</time></trkpt><trkpt lat="41.5561761" lon="0.805484"><ele>270.75</ele><time>2026-05-04T14:21:48.883Z</time></trkpt><trkpt lat="41.5561038" lon="0.8056423"><ele>271.0</ele><time>2026-05-04T14:21:49.884Z</time></trkpt><trkpt lat="41.5560375" lon="0.8057993"><ele>271.0</ele><time>2026-05-04T14:21:50.884Z</time></trkpt><trkpt lat="41.5559764" lon="0.8059487"><ele>271.0</ele><time>2026-05-04T14:21:51.883Z</time></trkpt><trkpt lat="41.5559118" lon="0.8060989"><ele>271.0</ele><time>2026-05-04T14:21:52.884Z</time></trkpt><trkpt lat="41.5558565" lon="0.8062431"><ele>271.0</ele><time>2026-05-04T14:21:53.884Z</time></trkpt><trkpt lat="41.5558049" lon="0.8063926"><ele>270.5</ele><time>2026-05-04T14:21:54.883Z</time></trkpt><trkpt lat="41.5557522" lon="0.8065402"><ele>270.0</ele><time>2026-05-04T14:21:55.884Z</time></trkpt><trkpt lat="41.5557013" lon="0.8066869"><ele>269.5</ele><time>2026-05-04T14:21:56.884Z</time></trkpt><trkpt lat="41.5556454" lon="0.8068348"><ele>269.0</ele><time>2026-05-04T14:21:57.884Z</time></trkpt><trkpt lat="41.5555884" lon="0.8069804"><ele>269.0</ele><time>2026-05-04T14:21:58.884Z</time></trkpt><trkpt lat="41.5555358" lon="0.8071308"><ele>269.0</ele><time>2026-05-04T14:21:59.884Z</time></trkpt><trkpt lat="41.5554819" lon="0.8072827"><ele>269.0</ele><time>2026-05-04T14:22:00.884Z</time></trkpt><trkpt lat="41.555426" lon="0.807438"><ele>269.0</ele><time>2026-05-04T14:22:01.884Z</time></trkpt><trkpt lat="41.5553725" lon="0.8075913"><ele>270.0</ele><time>2026-05-04T14:22:02.884Z</time></trkpt><trkpt lat="41.5553167" lon="0.807742"><ele>271.0</ele><time>2026-05-04T14:22:03.884Z</time></trkpt><trkpt lat="41.5552614" lon="0.8078929"><ele>272.0</ele><time>2026-05-04T14:22:04.884Z</time></trkpt><trkpt lat="41.5552035" lon="0.8080438"><ele>273.0</ele><time>2026-05-04T14:22:05.883Z</time></trkpt><trkpt lat="41.5551498" lon="0.8081977"><ele>273.0</ele><time>2026-05-04T14:22:06.884Z</time></trkpt><trkpt lat="41.5550929" lon="0.8083563"><ele>273.0</ele><time>2026-05-04T14:22:07.884Z</time></trkpt><trkpt lat="41.5550374" lon="0.8085082"><ele>273.0</ele><time>2026-05-04T14:22:08.884Z</time></trkpt><trkpt lat="41.5549813" lon="0.8086587"><ele>273.0</ele><time>2026-05-04T14:22:09.884Z</time></trkpt><trkpt lat="41.5549269" lon="0.8088134"><ele>272.75</ele><time>2026-05-04T14:22:10.883Z</time></trkpt><trkpt lat="41.5548744" lon="0.8089649"><ele>272.5</ele><time>2026-05-04T14:22:11.883Z</time></trkpt><trkpt lat="41.554822" lon="0.8091225"><ele>272.25</ele><time>2026-05-04T14:22:12.884Z</time></trkpt><trkpt lat="41.5547664" lon="0.809278"><ele>272.0</ele><time>2026-05-04T14:22:13.884Z</time></trkpt><trkpt lat="41.5547124" lon="0.8094375"><ele>272.0</ele><time>2026-05-04T14:22:14.884Z</time></trkpt><trkpt lat="41.5546588" lon="0.8095948"><ele>272.0</ele><time>2026-05-04T14:22:15.884Z</time></trkpt><trkpt lat="41.5546066" lon="0.8097474"><ele>272.0</ele><time>2026-05-04T14:22:16.884Z</time></trkpt><trkpt lat="41.5545573" lon="0.8098962"><ele>272.0</ele><time>2026-05-04T14:22:17.884Z</time></trkpt><trkpt lat="41.5545161" lon="0.8100513"><ele>272.5</ele><time>2026-05-04T14:22:18.883Z</time></trkpt><trkpt lat="41.5544756" lon="0.8102122"><ele>273.0</ele><time>2026-05-04T14:22:19.884Z</time></trkpt><trkpt lat="41.5544317" lon="0.8103683"><ele>273.5</ele><time>2026-05-04T14:22:20.883Z</time></trkpt><trkpt lat="41.5543835" lon="0.810516"><ele>274.0</ele><time>2026-05-04T14:22:21.884Z</time></trkpt><trkpt lat="41.5543354" lon="0.8106606"><ele>274.0</ele><time>2026-05-04T14:22:22.884Z</time></trkpt><trkpt lat="41.5542918" lon="0.8108035"><ele>274.0</ele><time>2026-05-04T14:22:23.884Z</time></trkpt><trkpt lat="41.5542456" lon="0.8109567"><ele>274.0</ele><time>2026-05-04T14:22:24.883Z</time></trkpt><trkpt lat="41.5542015" lon="0.8111018"><ele>274.0</ele><time>2026-05-04T14:22:25.884Z</time></trkpt><trkpt lat="41.5541528" lon="0.811247"><ele>274.25</ele><time>2026-05-04T14:22:26.884Z</time></trkpt><trkpt lat="41.554108" lon="0.8113976"><ele>274.5</ele><time>2026-05-04T14:22:27.884Z</time></trkpt><trkpt lat="41.5540613" lon="0.8115533"><ele>274.75</ele><time>2026-05-04T14:22:28.883Z</time></trkpt><trkpt lat="41.5540184" lon="0.8117056"><ele>275.0</ele><time>2026-05-04T14:22:29.884Z</time></trkpt><trkpt lat="41.553971" lon="0.8118558"><ele>275.0</ele><time>2026-05-04T14:22:30.884Z</time></trkpt><trkpt lat="41.5539291" lon="0.8120103"><ele>275.0</ele><time>2026-05-04T14:22:31.884Z</time></trkpt><trkpt lat="41.5538829" lon="0.8121638"><ele>275.0</ele><time>2026-05-04T14:22:32.884Z</time></trkpt><trkpt lat="41.5538342" lon="0.812321"><ele>275.0</ele><time>2026-05-04T14:22:33.884Z</time></trkpt><trkpt lat="41.5537851" lon="0.8124786"><ele>275.0</ele><time>2026-05-04T14:22:34.884Z</time></trkpt><trkpt lat="41.553739" lon="0.8126372"><ele>275.0</ele><time>2026-05-04T14:22:35.883Z</time></trkpt><trkpt lat="41.553686" lon="0.8128025"><ele>275.0</ele><time>2026-05-04T14:22:36.884Z</time></trkpt><trkpt lat="41.553638" lon="0.8129719"><ele>275.0</ele><time>2026-05-04T14:22:37.884Z</time></trkpt><trkpt lat="41.5535859" lon="0.813138"><ele>275.0</ele><time>2026-05-04T14:22:38.884Z</time></trkpt><trkpt lat="41.5535374" lon="0.8133098"><ele>275.0</ele><time>2026-05-04T14:22:39.883Z</time></trkpt><trkpt lat="41.5534882" lon="0.8134735"><ele>275.0</ele><time>2026-05-04T14:22:40.884Z</time></trkpt><trkpt lat="41.553439" lon="0.8136313"><ele>275.0</ele><time>2026-05-04T14:22:41.884Z</time></trkpt><trkpt lat="41.5533891" lon="0.8137903"><ele>275.0</ele><time>2026-05-04T14:22:42.884Z</time></trkpt><trkpt lat="41.5533442" lon="0.8139493"><ele>275.0</ele><time>2026-05-04T14:22:43.884Z</time></trkpt><trkpt lat="41.5532969" lon="0.8141073"><ele>275.0</ele><time>2026-05-04T14:22:44.884Z</time></trkpt><trkpt lat="41.5532494" lon="0.814268"><ele>275.0</ele><time>2026-05-04T14:22:45.884Z</time></trkpt><trkpt lat="41.5531978" lon="0.8144236"><ele>275.75</ele><time>2026-05-04T14:22:46.884Z</time></trkpt><trkpt lat="41.5531483" lon="0.8145803"><ele>276.5</ele><time>2026-05-04T14:22:47.884Z</time></trkpt><trkpt lat="41.5530971" lon="0.8147378"><ele>277.25</ele><time>2026-05-04T14:22:48.884Z</time></trkpt><trkpt lat="41.5530495" lon="0.8148949"><ele>278.0</ele><time>2026-05-04T14:22:49.884Z</time></trkpt><trkpt lat="41.5529993" lon="0.8150478"><ele>278.0</ele><time>2026-05-04T14:22:50.884Z</time></trkpt><trkpt lat="41.5529506" lon="0.8151988"><ele>278.0</ele><time>2026-05-04T14:22:51.883Z</time></trkpt><trkpt lat="41.5529038" lon="0.8153511"><ele>278.0</ele><time>2026-05-04T14:22:52.884Z</time></trkpt><trkpt lat="41.552858" lon="0.8155052"><ele>278.0</ele><time>2026-05-04T14:22:53.884Z</time></trkpt><trkpt lat="41.552814" lon="0.8156577"><ele>277.75</ele><time>2026-05-04T14:22:54.883Z</time></trkpt><trkpt lat="41.5527658" lon="0.8158054"><ele>277.5</ele><time>2026-05-04T14:22:55.884Z</time></trkpt><trkpt lat="41.5527163" lon="0.8159595"><ele>277.25</ele><time>2026-05-04T14:22:56.884Z</time></trkpt><trkpt lat="41.552667" lon="0.8161074"><ele>277.0</ele><time>2026-05-04T14:22:57.884Z</time></trkpt><trkpt lat="41.5526129" lon="0.8162499"><ele>277.0</ele><time>2026-05-04T14:22:58.884Z</time></trkpt><trkpt lat="41.5525519" lon="0.8163955"><ele>277.0</ele><time>2026-05-04T14:22:59.883Z</time></trkpt><trkpt lat="41.5524819" lon="0.81654"><ele>277.0</ele><time>2026-05-04T14:23:00.884Z</time></trkpt><trkpt lat="41.5524149" lon="0.8166774"><ele>277.0</ele><time>2026-05-04T14:23:01.884Z</time></trkpt><trkpt lat="41.5523477" lon="0.8168192"><ele>277.5</ele><time>2026-05-04T14:23:02.884Z</time></trkpt><trkpt lat="41.5522826" lon="0.8169652"><ele>278.0</ele><time>2026-05-04T14:23:03.884Z</time></trkpt><trkpt lat="41.5522203" lon="0.8171067"><ele>278.5</ele><time>2026-05-04T14:23:04.884Z</time></trkpt><trkpt lat="41.5521582" lon="0.8172377"><ele>279.0</ele><time>2026-05-04T14:23:05.884Z</time></trkpt><trkpt lat="41.5520977" lon="0.8173708"><ele>278.75</ele><time>2026-05-04T14:23:06.883Z</time></trkpt><trkpt lat="41.5520359" lon="0.8175044"><ele>278.5</ele><time>2026-05-04T14:23:07.883Z</time></trkpt><trkpt lat="41.5519722" lon="0.8176331"><ele>278.25</ele><time>2026-05-04T14:23:08.883Z</time></trkpt><trkpt lat="41.5519067" lon="0.8177653"><ele>278.0</ele><time>2026-05-04T14:23:09.884Z</time></trkpt><trkpt lat="41.5518443" lon="0.8179"><ele>277.75</ele><time>2026-05-04T14:23:10.883Z</time></trkpt><trkpt lat="41.551783" lon="0.8180353"><ele>277.5</ele><time>2026-05-04T14:23:11.884Z</time></trkpt><trkpt lat="41.5517212" lon="0.8181679"><ele>277.25</ele><time>2026-05-04T14:23:12.884Z</time></trkpt><trkpt lat="41.5516597" lon="0.8183001"><ele>277.0</ele><time>2026-05-04T14:23:13.883Z</time></trkpt><trkpt lat="41.5515979" lon="0.8184244"><ele>277.2</ele><time>2026-05-04T14:23:14.884Z</time></trkpt><trkpt lat="41.5515412" lon="0.8185399"><ele>277.4</ele><time>2026-05-04T14:23:15.884Z</time></trkpt><trkpt lat="41.5514845" lon="0.8186573"><ele>277.6</ele><time>2026-05-04T14:23:16.884Z</time></trkpt><trkpt lat="41.5514291" lon="0.8187744"><ele>277.8</ele><time>2026-05-04T14:23:17.884Z</time></trkpt><trkpt lat="41.5513711" lon="0.8188938"><ele>278.0</ele><time>2026-05-04T14:23:18.884Z</time></trkpt><trkpt lat="41.5513094" lon="0.8190155"><ele>278.0</ele><time>2026-05-04T14:23:19.884Z</time></trkpt><trkpt lat="41.5512498" lon="0.8191467"><ele>278.0</ele><time>2026-05-04T14:23:20.884Z</time></trkpt><trkpt lat="41.5511834" lon="0.8192844"><ele>278.0</ele><time>2026-05-04T14:23:21.884Z</time></trkpt><trkpt lat="41.5511192" lon="0.8194218"><ele>278.0</ele><time>2026-05-04T14:23:22.884Z</time></trkpt><trkpt lat="41.5510478" lon="0.8195601"><ele>277.25</ele><time>2026-05-04T14:23:23.884Z</time></trkpt><trkpt lat="41.550981" lon="0.8196979"><ele>276.5</ele><time>2026-05-04T14:23:24.884Z</time></trkpt><trkpt lat="41.5509106" lon="0.8198425"><ele>275.75</ele><time>2026-05-04T14:23:25.884Z</time></trkpt><trkpt lat="41.5508344" lon="0.8199764"><ele>275.0</ele><time>2026-05-04T14:23:26.884Z</time></trkpt><trkpt lat="41.5507504" lon="0.8201017"><ele>275.5</ele><time>2026-05-04T14:23:27.884Z</time></trkpt><trkpt lat="41.550664" lon="0.8202173"><ele>276.0</ele><time>2026-05-04T14:23:28.884Z</time></trkpt><trkpt lat="41.5505724" lon="0.8203292"><ele>276.5</ele><time>2026-05-04T14:23:29.884Z</time></trkpt><trkpt lat="41.5504744" lon="0.8204277"><ele>277.0</ele><time>2026-05-04T14:23:30.884Z</time></trkpt><trkpt lat="41.5503783" lon="0.8205211"><ele>274.25</ele><time>2026-05-04T14:23:31.884Z</time></trkpt><trkpt lat="41.5502766" lon="0.8206083"><ele>271.5</ele><time>2026-05-04T14:23:32.883Z</time></trkpt><trkpt lat="41.5501672" lon="0.8207003"><ele>268.75</ele><time>2026-05-04T14:23:33.884Z</time></trkpt><trkpt lat="41.5500553" lon="0.8207813"><ele>266.0</ele><time>2026-05-04T14:23:34.884Z</time></trkpt><trkpt lat="41.5499393" lon="0.8208525"><ele>266.0</ele><time>2026-05-04T14:23:35.884Z</time></trkpt><trkpt lat="41.5498191" lon="0.8209048"><ele>266.0</ele><time>2026-05-04T14:23:36.884Z</time></trkpt><trkpt lat="41.5496985" lon="0.8209519"><ele>266.0</ele><time>2026-05-04T14:23:37.884Z</time></trkpt><trkpt lat="41.5495685" lon="0.8209876"><ele>266.0</ele><time>2026-05-04T14:23:38.884Z</time></trkpt><trkpt lat="41.5494375" lon="0.8210156"><ele>265.25</ele><time>2026-05-04T14:23:39.884Z</time></trkpt><trkpt lat="41.549305" lon="0.8210368"><ele>264.5</ele><time>2026-05-04T14:23:40.884Z</time></trkpt><trkpt lat="41.5491717" lon="0.8210542"><ele>263.75</ele><time>2026-05-04T14:23:41.883Z</time></trkpt><trkpt lat="41.5490397" lon="0.8210656"><ele>263.0</ele><time>2026-05-04T14:23:42.883Z</time></trkpt><trkpt lat="41.5489078" lon="0.8210726"><ele>263.0</ele><time>2026-05-04T14:23:43.883Z</time></trkpt><trkpt lat="41.5487757" lon="0.8210819"><ele>263.0</ele><time>2026-05-04T14:23:44.884Z</time></trkpt><trkpt lat="41.5486475" lon="0.821095"><ele>263.0</ele><time>2026-05-04T14:23:45.884Z</time></trkpt><trkpt lat="41.5485181" lon="0.8211116"><ele>263.0</ele><time>2026-05-04T14:23:46.884Z</time></trkpt><trkpt lat="41.5483894" lon="0.8211231"><ele>263.25</ele><time>2026-05-04T14:23:47.884Z</time></trkpt><trkpt lat="41.5482607" lon="0.8211358"><ele>263.5</ele><time>2026-05-04T14:23:48.884Z</time></trkpt><trkpt lat="41.5481352" lon="0.8211476"><ele>263.75</ele><time>2026-05-04T14:23:49.884Z</time></trkpt><trkpt lat="41.5480113" lon="0.8211595"><ele>264.0</ele><time>2026-05-04T14:23:50.883Z</time></trkpt><trkpt lat="41.5478885" lon="0.8211712"><ele>263.5</ele><time>2026-05-04T14:23:51.884Z</time></trkpt><trkpt lat="41.5477665" lon="0.8211841"><ele>263.0</ele><time>2026-05-04T14:23:52.884Z</time></trkpt><trkpt lat="41.5476414" lon="0.8211992"><ele>262.5</ele><time>2026-05-04T14:23:53.884Z</time></trkpt><trkpt lat="41.5475182" lon="0.821217"><ele>262.0</ele><time>2026-05-04T14:23:54.884Z</time></trkpt><trkpt lat="41.5473954" lon="0.8212269"><ele>262.0</ele><time>2026-05-04T14:23:55.884Z</time></trkpt><trkpt lat="41.5472724" lon="0.8212398"><ele>262.0</ele><time>2026-05-04T14:23:56.884Z</time></trkpt><trkpt lat="41.5471482" lon="0.8212548"><ele>262.0</ele><time>2026-05-04T14:23:57.884Z</time></trkpt><trkpt lat="41.5470217" lon="0.8212705"><ele>262.0</ele><time>2026-05-04T14:23:58.884Z</time></trkpt><trkpt lat="41.5468939" lon="0.8212893"><ele>261.0</ele><time>2026-05-04T14:23:59.884Z</time></trkpt><trkpt lat="41.5467622" lon="0.8213078"><ele>260.0</ele><time>2026-05-04T14:24:00.884Z</time></trkpt><trkpt lat="41.5466318" lon="0.8213247"><ele>259.0</ele><time>2026-05-04T14:24:01.884Z</time></trkpt><trkpt lat="41.5465025" lon="0.8213422"><ele>258.0</ele><time>2026-05-04T14:24:02.884Z</time></trkpt><trkpt lat="41.5463686" lon="0.8213633"><ele>258.0</ele><time>2026-05-04T14:24:03.883Z</time></trkpt><trkpt lat="41.5462324" lon="0.8213864"><ele>258.0</ele><time>2026-05-04T14:24:04.884Z</time></trkpt><trkpt lat="41.5460951" lon="0.8214092"><ele>258.0</ele><time>2026-05-04T14:24:05.884Z</time></trkpt><trkpt lat="41.5459613" lon="0.8214255"><ele>258.0</ele><time>2026-05-04T14:24:06.884Z</time></trkpt><trkpt lat="41.5458316" lon="0.82144"><ele>257.5</ele><time>2026-05-04T14:24:07.884Z</time></trkpt><trkpt lat="41.5457053" lon="0.8214554"><ele>257.0</ele><time>2026-05-04T14:24:08.883Z</time></trkpt><trkpt lat="41.5455797" lon="0.821473"><ele>256.5</ele><time>2026-05-04T14:24:09.884Z</time></trkpt><trkpt lat="41.5454537" lon="0.82149"><ele>256.0</ele><time>2026-05-04T14:24:10.884Z</time></trkpt><trkpt lat="41.5453267" lon="0.8215086"><ele>255.5</ele><time>2026-05-04T14:24:11.884Z</time></trkpt><trkpt lat="41.5452" lon="0.8215186"><ele>255.0</ele><time>2026-05-04T14:24:12.884Z</time></trkpt><trkpt lat="41.5450758" lon="0.8215276"><ele>254.5</ele><time>2026-05-04T14:24:13.884Z</time></trkpt><trkpt lat="41.5449571" lon="0.8215409"><ele>254.0</ele><time>2026-05-04T14:24:14.883Z</time></trkpt><trkpt lat="41.5448359" lon="0.8215511"><ele>254.0</ele><time>2026-05-04T14:24:15.884Z</time></trkpt><trkpt lat="41.5447087" lon="0.8215598"><ele>254.0</ele><time>2026-05-04T14:24:16.884Z</time></trkpt><trkpt lat="41.5445815" lon="0.8215733"><ele>254.0</ele><time>2026-05-04T14:24:17.884Z</time></trkpt><trkpt lat="41.5444485" lon="0.821589"><ele>254.0</ele><time>2026-05-04T14:24:18.884Z</time></trkpt><trkpt lat="41.5443181" lon="0.8216013"><ele>253.0</ele><time>2026-05-04T14:24:19.884Z</time></trkpt><trkpt lat="41.5441826" lon="0.8216152"><ele>252.0</ele><time>2026-05-04T14:24:20.884Z</time></trkpt><trkpt lat="41.5440536" lon="0.8216291"><ele>251.0</ele><time>2026-05-04T14:24:21.885Z</time></trkpt><trkpt lat="41.543924" lon="0.8216449"><ele>250.0</ele><time>2026-05-04T14:24:22.885Z</time></trkpt><trkpt lat="41.5437996" lon="0.8216558"><ele>248.5</ele><time>2026-05-04T14:24:23.885Z</time></trkpt><trkpt lat="41.5436697" lon="0.8216705"><ele>247.0</ele><time>2026-05-04T14:24:24.885Z</time></trkpt><trkpt lat="41.5435432" lon="0.8216815"><ele>245.5</ele><time>2026-05-04T14:24:25.885Z</time></trkpt><trkpt lat="41.5434144" lon="0.8216982"><ele>244.0</ele><time>2026-05-04T14:24:26.885Z</time></trkpt><trkpt lat="41.5432874" lon="0.8217159"><ele>244.0</ele><time>2026-05-04T14:24:27.885Z</time></trkpt><trkpt lat="41.5431576" lon="0.8217312"><ele>244.0</ele><time>2026-05-04T14:24:28.885Z</time></trkpt><trkpt lat="41.5430314" lon="0.8217419"><ele>244.0</ele><time>2026-05-04T14:24:29.885Z</time></trkpt><trkpt lat="41.5429068" lon="0.821756"><ele>244.0</ele><time>2026-05-04T14:24:30.885Z</time></trkpt><trkpt lat="41.5427817" lon="0.8217695"><ele>243.75</ele><time>2026-05-04T14:24:31.884Z</time></trkpt><trkpt lat="41.5426534" lon="0.8217864"><ele>243.5</ele><time>2026-05-04T14:24:32.885Z</time></trkpt><trkpt lat="41.5425302" lon="0.8218098"><ele>243.25</ele><time>2026-05-04T14:24:33.885Z</time></trkpt><trkpt lat="41.5424115" lon="0.8218442"><ele>243.0</ele><time>2026-05-04T14:24:34.885Z</time></trkpt><trkpt lat="41.5422934" lon="0.8218844"><ele>243.0</ele><time>2026-05-04T14:24:35.884Z</time></trkpt><trkpt lat="41.5421781" lon="0.8219295"><ele>243.0</ele><time>2026-05-04T14:24:36.885Z</time></trkpt><trkpt lat="41.5420658" lon="0.8219916"><ele>243.0</ele><time>2026-05-04T14:24:37.885Z</time></trkpt><trkpt lat="41.5419576" lon="0.822057"><ele>243.0</ele><time>2026-05-04T14:24:38.885Z</time></trkpt><trkpt lat="41.5418536" lon="0.8221308"><ele>243.25</ele><time>2026-05-04T14:24:39.885Z</time></trkpt><trkpt lat="41.5417522" lon="0.8222112"><ele>243.5</ele><time>2026-05-04T14:24:40.885Z</time></trkpt><trkpt lat="41.5416467" lon="0.8222981"><ele>243.75</ele><time>2026-05-04T14:24:41.885Z</time></trkpt><trkpt lat="41.5415508" lon="0.8223871"><ele>244.0</ele><time>2026-05-04T14:24:42.885Z</time></trkpt><trkpt lat="41.5414591" lon="0.8224871"><ele>244.0</ele><time>2026-05-04T14:24:43.885Z</time></trkpt><trkpt lat="41.5413703" lon="0.8225998"><ele>244.0</ele><time>2026-05-04T14:24:44.885Z</time></trkpt><trkpt lat="41.5412896" lon="0.8227216"><ele>244.0</ele><time>2026-05-04T14:24:45.885Z</time></trkpt><trkpt lat="41.5412109" lon="0.8228473"><ele>244.0</ele><time>2026-05-04T14:24:46.885Z</time></trkpt><trkpt lat="41.541144" lon="0.822971"><ele>244.75</ele><time>2026-05-04T14:24:47.884Z</time></trkpt><trkpt lat="41.5410798" lon="0.8230981"><ele>245.5</ele><time>2026-05-04T14:24:48.885Z</time></trkpt><trkpt lat="41.5410233" lon="0.8232275"><ele>246.25</ele><time>2026-05-04T14:24:49.885Z</time></trkpt><trkpt lat="41.540967" lon="0.8233628"><ele>247.0</ele><time>2026-05-04T14:24:50.885Z</time></trkpt><trkpt lat="41.5409226" lon="0.8235087"><ele>247.0</ele><time>2026-05-04T14:24:51.885Z</time></trkpt><trkpt lat="41.5408812" lon="0.8236567"><ele>247.0</ele><time>2026-05-04T14:24:52.885Z</time></trkpt><trkpt lat="41.5408465" lon="0.8238101"><ele>247.0</ele><time>2026-05-04T14:24:53.885Z</time></trkpt><trkpt lat="41.5408179" lon="0.8239681"><ele>247.0</ele><time>2026-05-04T14:24:54.885Z</time></trkpt><trkpt lat="41.540801" lon="0.8241334"><ele>247.0</ele><time>2026-05-04T14:24:55.885Z</time></trkpt><trkpt lat="41.540787" lon="0.8243"><ele>247.0</ele><time>2026-05-04T14:24:56.885Z</time></trkpt><trkpt lat="41.5407717" lon="0.8244714"><ele>247.0</ele><time>2026-05-04T14:24:57.885Z</time></trkpt><trkpt lat="41.5407589" lon="0.8246472"><ele>247.0</ele><time>2026-05-04T14:24:58.884Z</time></trkpt><trkpt lat="41.5407486" lon="0.8248247"><ele>246.75</ele><time>2026-05-04T14:24:59.884Z</time></trkpt><trkpt lat="41.5407368" lon="0.8249923"><ele>246.5</ele><time>2026-05-04T14:25:00.885Z</time></trkpt><trkpt lat="41.5407302" lon="0.825147"><ele>246.25</ele><time>2026-05-04T14:25:01.885Z</time></trkpt><trkpt lat="41.5407242" lon="0.8252941"><ele>246.0</ele><time>2026-05-04T14:25:02.884Z</time></trkpt><trkpt lat="41.5407166" lon="0.8254437"><ele>246.5</ele><time>2026-05-04T14:25:03.885Z</time></trkpt><trkpt lat="41.5407083" lon="0.8255957"><ele>247.0</ele><time>2026-05-04T14:25:04.884Z</time></trkpt><trkpt lat="41.5406992" lon="0.825749"><ele>247.5</ele><time>2026-05-04T14:25:05.885Z</time></trkpt><trkpt lat="41.5406888" lon="0.8259033"><ele>248.0</ele><time>2026-05-04T14:25:06.885Z</time></trkpt><trkpt lat="41.5406862" lon="0.8260583"><ele>248.0</ele><time>2026-05-04T14:25:07.885Z</time></trkpt><trkpt lat="41.5406824" lon="0.8262108"><ele>248.0</ele><time>2026-05-04T14:25:08.885Z</time></trkpt><trkpt lat="41.5406705" lon="0.8263749"><ele>248.0</ele><time>2026-05-04T14:25:09.885Z</time></trkpt><trkpt lat="41.5406586" lon="0.8265336"><ele>248.0</ele><time>2026-05-04T14:25:10.885Z</time></trkpt><trkpt lat="41.5406486" lon="0.8266952"><ele>248.0</ele><time>2026-05-04T14:25:11.885Z</time></trkpt><trkpt lat="41.5406425" lon="0.8268528"><ele>248.0</ele><time>2026-05-04T14:25:12.885Z</time></trkpt><trkpt lat="41.5406353" lon="0.8270121"><ele>248.0</ele><time>2026-05-04T14:25:13.885Z</time></trkpt><trkpt lat="41.5406329" lon="0.8271709"><ele>248.0</ele><time>2026-05-04T14:25:14.885Z</time></trkpt><trkpt lat="41.5406255" lon="0.82733"><ele>248.0</ele><time>2026-05-04T14:25:15.884Z</time></trkpt><trkpt lat="41.5406155" lon="0.8274953"><ele>248.0</ele><time>2026-05-04T14:25:16.885Z</time></trkpt><trkpt lat="41.5406055" lon="0.8276626"><ele>248.0</ele><time>2026-05-04T14:25:17.885Z</time></trkpt><trkpt lat="41.540596" lon="0.8278289"><ele>248.0</ele><time>2026-05-04T14:25:18.884Z</time></trkpt><trkpt lat="41.5405876" lon="0.827995"><ele>247.75</ele><time>2026-05-04T14:25:19.885Z</time></trkpt><trkpt lat="41.5405771" lon="0.8281551"><ele>247.5</ele><time>2026-05-04T14:25:20.885Z</time></trkpt><trkpt lat="41.540568" lon="0.8283158"><ele>247.25</ele><time>2026-05-04T14:25:21.885Z</time></trkpt><trkpt lat="41.5405544" lon="0.8284766"><ele>247.0</ele><time>2026-05-04T14:25:22.884Z</time></trkpt><trkpt lat="41.5405474" lon="0.8286346"><ele>247.0</ele><time>2026-05-04T14:25:23.885Z</time></trkpt><trkpt lat="41.5405364" lon="0.8287966"><ele>247.0</ele><time>2026-05-04T14:25:24.885Z</time></trkpt><trkpt lat="41.5405266" lon="0.8289553"><ele>247.0</ele><time>2026-05-04T14:25:25.885Z</time></trkpt><trkpt lat="41.5405142" lon="0.8291126"><ele>247.0</ele><time>2026-05-04T14:25:26.885Z</time></trkpt><trkpt lat="41.5404949" lon="0.8292729"><ele>247.75</ele><time>2026-05-04T14:25:27.885Z</time></trkpt><trkpt lat="41.5404695" lon="0.8294301"><ele>248.5</ele><time>2026-05-04T14:25:28.885Z</time></trkpt><trkpt lat="41.5404418" lon="0.8295873"><ele>249.25</ele><time>2026-05-04T14:25:29.885Z</time></trkpt><trkpt lat="41.540403" lon="0.8297369"><ele>250.0</ele><time>2026-05-04T14:25:30.885Z</time></trkpt><trkpt lat="41.5403577" lon="0.8298899"><ele>250.25</ele><time>2026-05-04T14:25:31.885Z</time></trkpt><trkpt lat="41.5403064" lon="0.8300371"><ele>250.5</ele><time>2026-05-04T14:25:32.885Z</time></trkpt><trkpt lat="41.5402424" lon="0.830183"><ele>250.75</ele><time>2026-05-04T14:25:33.885Z</time></trkpt><trkpt lat="41.5401766" lon="0.8303162"><ele>251.0</ele><time>2026-05-04T14:25:34.885Z</time></trkpt><trkpt lat="41.5401101" lon="0.8304531"><ele>251.0</ele><time>2026-05-04T14:25:35.885Z</time></trkpt><trkpt lat="41.5400346" lon="0.8305886"><ele>251.0</ele><time>2026-05-04T14:25:36.885Z</time></trkpt><trkpt lat="41.5399612" lon="0.8307164"><ele>251.0</ele><time>2026-05-04T14:25:37.885Z</time></trkpt><trkpt lat="41.539887" lon="0.8308584"><ele>251.0</ele><time>2026-05-04T14:25:38.885Z</time></trkpt><trkpt lat="41.5398129" lon="0.8309945"><ele>251.0</ele><time>2026-05-04T14:25:39.885Z</time></trkpt><trkpt lat="41.5397396" lon="0.8311313"><ele>251.0</ele><time>2026-05-04T14:25:40.885Z</time></trkpt><trkpt lat="41.5396632" lon="0.8312708"><ele>251.0</ele><time>2026-05-04T14:25:41.885Z</time></trkpt><trkpt lat="41.5395902" lon="0.8314086"><ele>251.0</ele><time>2026-05-04T14:25:42.885Z</time></trkpt><trkpt lat="41.5395104" lon="0.8315425"><ele>251.25</ele><time>2026-05-04T14:25:43.885Z</time></trkpt><trkpt lat="41.5394327" lon="0.8316738"><ele>251.5</ele><time>2026-05-04T14:25:44.885Z</time></trkpt><trkpt lat="41.5393559" lon="0.8318098"><ele>251.75</ele><time>2026-05-04T14:25:45.885Z</time></trkpt><trkpt lat="41.5392789" lon="0.831949"><ele>252.0</ele><time>2026-05-04T14:25:46.885Z</time></trkpt><trkpt lat="41.5392009" lon="0.8320833"><ele>252.0</ele><time>2026-05-04T14:25:47.885Z</time></trkpt><trkpt lat="41.539126" lon="0.8322199"><ele>252.0</ele><time>2026-05-04T14:25:48.884Z</time></trkpt><trkpt lat="41.5390507" lon="0.8323559"><ele>252.0</ele><time>2026-05-04T14:25:49.885Z</time></trkpt><trkpt lat="41.538976" lon="0.832492"><ele>252.0</ele><time>2026-05-04T14:25:50.884Z</time></trkpt><trkpt lat="41.5389044" lon="0.832628"><ele>251.75</ele><time>2026-05-04T14:25:51.885Z</time></trkpt><trkpt lat="41.538832" lon="0.8327596"><ele>251.5</ele><time>2026-05-04T14:25:52.885Z</time></trkpt><trkpt lat="41.5387612" lon="0.8328926"><ele>251.25</ele><time>2026-05-04T14:25:53.885Z</time></trkpt><trkpt lat="41.5386875" lon="0.8330261"><ele>251.0</ele><time>2026-05-04T14:25:54.885Z</time></trkpt><trkpt lat="41.5386159" lon="0.8331598"><ele>251.5</ele><time>2026-05-04T14:25:55.885Z</time></trkpt><trkpt lat="41.5385424" lon="0.8332954"><ele>252.0</ele><time>2026-05-04T14:25:56.885Z</time></trkpt><trkpt lat="41.5384708" lon="0.8334291"><ele>252.5</ele><time>2026-05-04T14:25:57.885Z</time></trkpt><trkpt lat="41.5383964" lon="0.8335646"><ele>253.0</ele><time>2026-05-04T14:25:58.885Z</time></trkpt><trkpt lat="41.5383222" lon="0.8336986"><ele>253.0</ele><time>2026-05-04T14:25:59.885Z</time></trkpt><trkpt lat="41.5382447" lon="0.8338361"><ele>253.0</ele><time>2026-05-04T14:26:00.885Z</time></trkpt><trkpt lat="41.5381678" lon="0.8339735"><ele>253.0</ele><time>2026-05-04T14:26:01.885Z</time></trkpt><trkpt lat="41.5380883" lon="0.8341104"><ele>253.0</ele><time>2026-05-04T14:26:02.884Z</time></trkpt><trkpt lat="41.5380152" lon="0.8342428"><ele>253.0</ele><time>2026-05-04T14:26:03.884Z</time></trkpt><trkpt lat="41.5379429" lon="0.8343741"><ele>253.0</ele><time>2026-05-04T14:26:04.885Z</time></trkpt><trkpt lat="41.5378704" lon="0.8345115"><ele>253.0</ele><time>2026-05-04T14:26:05.885Z</time></trkpt><trkpt lat="41.5377979" lon="0.8346451"><ele>253.0</ele><time>2026-05-04T14:26:06.885Z</time></trkpt><trkpt lat="41.5377247" lon="0.8347839"><ele>253.25</ele><time>2026-05-04T14:26:07.885Z</time></trkpt><trkpt lat="41.5376528" lon="0.8349197"><ele>253.5</ele><time>2026-05-04T14:26:08.885Z</time></trkpt><trkpt lat="41.537578" lon="0.8350514"><ele>253.75</ele><time>2026-05-04T14:26:09.885Z</time></trkpt><trkpt lat="41.5375029" lon="0.8351897"><ele>254.0</ele><time>2026-05-04T14:26:10.885Z</time></trkpt><trkpt lat="41.5374325" lon="0.8353219"><ele>254.0</ele><time>2026-05-04T14:26:11.885Z</time></trkpt><trkpt lat="41.537359" lon="0.8354561"><ele>254.0</ele><time>2026-05-04T14:26:12.885Z</time></trkpt><trkpt lat="41.5372864" lon="0.8355913"><ele>254.0</ele><time>2026-05-04T14:26:13.885Z</time></trkpt><trkpt lat="41.5372134" lon="0.8357251"><ele>254.0</ele><time>2026-05-04T14:26:14.885Z</time></trkpt><trkpt lat="41.5371396" lon="0.8358544"><ele>254.0</ele><time>2026-05-04T14:26:15.884Z</time></trkpt><trkpt lat="41.5370691" lon="0.8359814"><ele>254.0</ele><time>2026-05-04T14:26:16.885Z</time></trkpt><trkpt lat="41.5369973" lon="0.8361135"><ele>254.0</ele><time>2026-05-04T14:26:17.884Z</time></trkpt><trkpt lat="41.536928" lon="0.836237"><ele>254.0</ele><time>2026-05-04T14:26:18.885Z</time></trkpt><trkpt lat="41.536858" lon="0.8363631"><ele>254.25</ele><time>2026-05-04T14:26:19.884Z</time></trkpt><trkpt lat="41.5367896" lon="0.8364896"><ele>254.5</ele><time>2026-05-04T14:26:20.884Z</time></trkpt><trkpt lat="41.5367217" lon="0.836615"><ele>254.75</ele><time>2026-05-04T14:26:21.885Z</time></trkpt><trkpt lat="41.5366537" lon="0.8367356"><ele>255.0</ele><time>2026-05-04T14:26:22.885Z</time></trkpt><trkpt lat="41.5365857" lon="0.8368524"><ele>255.25</ele><time>2026-05-04T14:26:23.885Z</time></trkpt><trkpt lat="41.5365175" lon="0.8369747"><ele>255.5</ele><time>2026-05-04T14:26:24.884Z</time></trkpt><trkpt lat="41.5364514" lon="0.8370969"><ele>255.75</ele><time>2026-05-04T14:26:25.885Z</time></trkpt><trkpt lat="41.5363837" lon="0.8372163"><ele>256.0</ele><time>2026-05-04T14:26:26.885Z</time></trkpt><trkpt lat="41.5363182" lon="0.8373422"><ele>256.0</ele><time>2026-05-04T14:26:27.885Z</time></trkpt><trkpt lat="41.5362485" lon="0.8374675"><ele>256.0</ele><time>2026-05-04T14:26:28.885Z</time></trkpt><trkpt lat="41.5361784" lon="0.8375947"><ele>256.0</ele><time>2026-05-04T14:26:29.885Z</time></trkpt><trkpt lat="41.5361091" lon="0.8377305"><ele>256.0</ele><time>2026-05-04T14:26:30.885Z</time></trkpt><trkpt lat="41.5360378" lon="0.8378637"><ele>255.75</ele><time>2026-05-04T14:26:31.884Z</time></trkpt><trkpt lat="41.5359646" lon="0.8379967"><ele>255.5</ele><time>2026-05-04T14:26:32.885Z</time></trkpt><trkpt lat="41.5358921" lon="0.838131"><ele>255.25</ele><time>2026-05-04T14:26:33.885Z</time></trkpt><trkpt lat="41.5358137" lon="0.8382627"><ele>255.0</ele><time>2026-05-04T14:26:34.885Z</time></trkpt><trkpt lat="41.5357364" lon="0.8383918"><ele>255.75</ele><time>2026-05-04T14:26:35.884Z</time></trkpt><trkpt lat="41.5356602" lon="0.8385228"><ele>256.5</ele><time>2026-05-04T14:26:36.885Z</time></trkpt><trkpt lat="41.5355886" lon="0.8386475"><ele>257.25</ele><time>2026-05-04T14:26:37.885Z</time></trkpt><trkpt lat="41.5355186" lon="0.8387696"><ele>258.0</ele><time>2026-05-04T14:26:38.885Z</time></trkpt><trkpt lat="41.5354527" lon="0.8388944"><ele>258.0</ele><time>2026-05-04T14:26:39.885Z</time></trkpt><trkpt lat="41.5353866" lon="0.8390205"><ele>258.0</ele><time>2026-05-04T14:26:40.885Z</time></trkpt><trkpt lat="41.5353186" lon="0.8391474"><ele>258.0</ele><time>2026-05-04T14:26:41.885Z</time></trkpt><trkpt lat="41.5352476" lon="0.8392751"><ele>258.0</ele><time>2026-05-04T14:26:42.884Z</time></trkpt><trkpt lat="41.5351793" lon="0.8394022"><ele>258.0</ele><time>2026-05-04T14:26:43.885Z</time></trkpt><trkpt lat="41.5351099" lon="0.8395287"><ele>258.0</ele><time>2026-05-04T14:26:44.885Z</time></trkpt><trkpt lat="41.5350392" lon="0.8396572"><ele>258.0</ele><time>2026-05-04T14:26:45.885Z</time></trkpt><trkpt lat="41.5349708" lon="0.8397859"><ele>258.0</ele><time>2026-05-04T14:26:46.885Z</time></trkpt><trkpt lat="41.534898" lon="0.8399154"><ele>258.0</ele><time>2026-05-04T14:26:47.885Z</time></trkpt><trkpt lat="41.5348254" lon="0.8400465"><ele>258.0</ele><time>2026-05-04T14:26:48.885Z</time></trkpt><trkpt lat="41.5347555" lon="0.8401748"><ele>258.0</ele><time>2026-05-04T14:26:49.885Z</time></trkpt><trkpt lat="41.5346809" lon="0.840306"><ele>258.0</ele><time>2026-05-04T14:26:50.884Z</time></trkpt><trkpt lat="41.5346075" lon="0.840439"><ele>258.25</ele><time>2026-05-04T14:26:51.885Z</time></trkpt><trkpt lat="41.5345332" lon="0.840576"><ele>258.5</ele><time>2026-05-04T14:26:52.885Z</time></trkpt><trkpt lat="41.534461" lon="0.8407073"><ele>258.75</ele><time>2026-05-04T14:26:53.884Z</time></trkpt><trkpt lat="41.5343908" lon="0.8408464"><ele>259.0</ele><time>2026-05-04T14:26:54.885Z</time></trkpt><trkpt lat="41.5343167" lon="0.8409751"><ele>258.0</ele><time>2026-05-04T14:26:55.885Z</time></trkpt><trkpt lat="41.5342458" lon="0.8411091"><ele>257.0</ele><time>2026-05-04T14:26:56.884Z</time></trkpt><trkpt lat="41.5341703" lon="0.8412473"><ele>256.0</ele><time>2026-05-04T14:26:57.885Z</time></trkpt><trkpt lat="41.534092" lon="0.8413849"><ele>255.0</ele><time>2026-05-04T14:26:58.885Z</time></trkpt><trkpt lat="41.5340182" lon="0.8415217"><ele>255.0</ele><time>2026-05-04T14:26:59.885Z</time></trkpt><trkpt lat="41.5339438" lon="0.8416565"><ele>255.0</ele><time>2026-05-04T14:27:00.886Z</time></trkpt><trkpt lat="41.5338712" lon="0.841793"><ele>255.0</ele><time>2026-05-04T14:27:01.885Z</time></trkpt><trkpt lat="41.5337972" lon="0.8419286"><ele>255.0</ele><time>2026-05-04T14:27:02.885Z</time></trkpt><trkpt lat="41.5337207" lon="0.8420673"><ele>255.25</ele><time>2026-05-04T14:27:03.885Z</time></trkpt><trkpt lat="41.5336468" lon="0.842203"><ele>255.5</ele><time>2026-05-04T14:27:04.886Z</time></trkpt><trkpt lat="41.5335692" lon="0.8423415"><ele>255.75</ele><time>2026-05-04T14:27:05.886Z</time></trkpt><trkpt lat="41.5334951" lon="0.8424804"><ele>256.0</ele><time>2026-05-04T14:27:06.885Z</time></trkpt><trkpt lat="41.5334187" lon="0.8426153"><ele>256.25</ele><time>2026-05-04T14:27:07.886Z</time></trkpt><trkpt lat="41.5333441" lon="0.8427459"><ele>256.5</ele><time>2026-05-04T14:27:08.886Z</time></trkpt><trkpt lat="41.5332709" lon="0.8428745"><ele>256.75</ele><time>2026-05-04T14:27:09.885Z</time></trkpt><trkpt lat="41.5331975" lon="0.8430004"><ele>257.0</ele><time>2026-05-04T14:27:10.885Z</time></trkpt><trkpt lat="41.533125" lon="0.843127"><ele>257.0</ele><time>2026-05-04T14:27:11.886Z</time></trkpt><trkpt lat="41.5330516" lon="0.8432606"><ele>257.0</ele><time>2026-05-04T14:27:12.885Z</time></trkpt><trkpt lat="41.5329808" lon="0.8433927"><ele>257.0</ele><time>2026-05-04T14:27:13.885Z</time></trkpt><trkpt lat="41.5329083" lon="0.8435263"><ele>257.0</ele><time>2026-05-04T14:27:14.886Z</time></trkpt><trkpt lat="41.5328346" lon="0.8436541"><ele>258.0</ele><time>2026-05-04T14:27:15.886Z</time></trkpt><trkpt lat="41.5327609" lon="0.8437833"><ele>259.0</ele><time>2026-05-04T14:27:16.886Z</time></trkpt><trkpt lat="41.5326912" lon="0.8439152"><ele>260.0</ele><time>2026-05-04T14:27:17.886Z</time></trkpt><trkpt lat="41.5326185" lon="0.8440421"><ele>261.0</ele><time>2026-05-04T14:27:18.886Z</time></trkpt><trkpt lat="41.5325475" lon="0.8441653"><ele>261.0</ele><time>2026-05-04T14:27:19.886Z</time></trkpt><trkpt lat="41.532481" lon="0.8442928"><ele>261.0</ele><time>2026-05-04T14:27:20.885Z</time></trkpt><trkpt lat="41.5324159" lon="0.8444215"><ele>261.0</ele><time>2026-05-04T14:27:21.886Z</time></trkpt><trkpt lat="41.5323473" lon="0.8445483"><ele>261.0</ele><time>2026-05-04T14:27:22.886Z</time></trkpt><trkpt lat="41.5322791" lon="0.8446694"><ele>261.0</ele><time>2026-05-04T14:27:23.885Z</time></trkpt><trkpt lat="41.5322076" lon="0.844791"><ele>261.0</ele><time>2026-05-04T14:27:24.886Z</time></trkpt><trkpt lat="41.5321406" lon="0.8449114"><ele>261.0</ele><time>2026-05-04T14:27:25.885Z</time></trkpt><trkpt lat="41.532075" lon="0.845032"><ele>261.0</ele><time>2026-05-04T14:27:26.886Z</time></trkpt><trkpt lat="41.532011" lon="0.845159"><ele>262.2</ele><time>2026-05-04T14:27:27.885Z</time></trkpt><trkpt lat="41.5319439" lon="0.8452833"><ele>263.40000000000003</ele><time>2026-05-04T14:27:28.886Z</time></trkpt><trkpt lat="41.5318782" lon="0.845405"><ele>264.6</ele><time>2026-05-04T14:27:29.886Z</time></trkpt><trkpt lat="41.531812" lon="0.8455216"><ele>265.8</ele><time>2026-05-04T14:27:30.885Z</time></trkpt><trkpt lat="41.5317426" lon="0.8456371"><ele>267.0</ele><time>2026-05-04T14:27:31.886Z</time></trkpt><trkpt lat="41.531673" lon="0.8457449"><ele>267.0</ele><time>2026-05-04T14:27:32.885Z</time></trkpt><trkpt lat="41.5316043" lon="0.84585"><ele>267.0</ele><time>2026-05-04T14:27:33.886Z</time></trkpt><trkpt lat="41.5315365" lon="0.845958"><ele>267.0</ele><time>2026-05-04T14:27:34.886Z</time></trkpt><trkpt lat="41.5314738" lon="0.8460622"><ele>267.0</ele><time>2026-05-04T14:27:35.885Z</time></trkpt><trkpt lat="41.5314123" lon="0.8461661"><ele>267.0</ele><time>2026-05-04T14:27:36.886Z</time></trkpt><trkpt lat="41.5313526" lon="0.8462716"><ele>267.4</ele><time>2026-05-04T14:27:37.886Z</time></trkpt><trkpt lat="41.5312934" lon="0.846377"><ele>267.79999999999995</ele><time>2026-05-04T14:27:38.886Z</time></trkpt><trkpt lat="41.5312321" lon="0.8464856"><ele>268.2</ele><time>2026-05-04T14:27:39.886Z</time></trkpt><trkpt lat="41.5311714" lon="0.8465993"><ele>268.59999999999997</ele><time>2026-05-04T14:27:40.886Z</time></trkpt><trkpt lat="41.5311097" lon="0.8467141"><ele>269.0</ele><time>2026-05-04T14:27:41.886Z</time></trkpt><trkpt lat="41.5310484" lon="0.8468302"><ele>269.8</ele><time>2026-05-04T14:27:42.886Z</time></trkpt><trkpt lat="41.5309833" lon="0.8469458"><ele>270.59999999999997</ele><time>2026-05-04T14:27:43.886Z</time></trkpt><trkpt lat="41.5309153" lon="0.8470661"><ele>271.4</ele><time>2026-05-04T14:27:44.886Z</time></trkpt><trkpt lat="41.530851" lon="0.8471828"><ele>272.2</ele><time>2026-05-04T14:27:45.886Z</time></trkpt><trkpt lat="41.5307866" lon="0.847304"><ele>273.0</ele><time>2026-05-04T14:27:46.886Z</time></trkpt><trkpt lat="41.53072" lon="0.8474203"><ele>273.0</ele><time>2026-05-04T14:27:47.886Z</time></trkpt><trkpt lat="41.5306458" lon="0.8475407"><ele>273.0</ele><time>2026-05-04T14:27:48.886Z</time></trkpt><trkpt lat="41.5305777" lon="0.8476647"><ele>273.0</ele><time>2026-05-04T14:27:49.886Z</time></trkpt><trkpt lat="41.53051" lon="0.8477867"><ele>273.0</ele><time>2026-05-04T14:27:50.885Z</time></trkpt><trkpt lat="41.5304391" lon="0.8479134"><ele>273.5</ele><time>2026-05-04T14:27:51.886Z</time></trkpt><trkpt lat="41.5303709" lon="0.8480411"><ele>274.0</ele><time>2026-05-04T14:27:52.886Z</time></trkpt><trkpt lat="41.5303038" lon="0.8481657"><ele>274.5</ele><time>2026-05-04T14:27:53.886Z</time></trkpt><trkpt lat="41.5302365" lon="0.8482869"><ele>275.0</ele><time>2026-05-04T14:27:54.886Z</time></trkpt><trkpt lat="41.5301715" lon="0.8484022"><ele>275.0</ele><time>2026-05-04T14:27:55.886Z</time></trkpt><trkpt lat="41.5301094" lon="0.8485224"><ele>275.0</ele><time>2026-05-04T14:27:56.886Z</time></trkpt><trkpt lat="41.5300464" lon="0.8486423"><ele>275.0</ele><time>2026-05-04T14:27:57.886Z</time></trkpt><trkpt lat="41.5299816" lon="0.8487666"><ele>275.0</ele><time>2026-05-04T14:27:58.885Z</time></trkpt><trkpt lat="41.5299153" lon="0.8488861"><ele>275.0</ele><time>2026-05-04T14:27:59.885Z</time></trkpt><trkpt lat="41.5298479" lon="0.8490119"><ele>275.0</ele><time>2026-05-04T14:28:00.886Z</time></trkpt><trkpt lat="41.5297805" lon="0.8491369"><ele>275.0</ele><time>2026-05-04T14:28:01.886Z</time></trkpt><trkpt lat="41.5297083" lon="0.8492605"><ele>275.0</ele><time>2026-05-04T14:28:02.886Z</time></trkpt><trkpt lat="41.5296353" lon="0.849378"><ele>275.0</ele><time>2026-05-04T14:28:03.886Z</time></trkpt><trkpt lat="41.5295717" lon="0.8494916"><ele>274.8</ele><time>2026-05-04T14:28:04.886Z</time></trkpt><trkpt lat="41.5295071" lon="0.8496124"><ele>274.6</ele><time>2026-05-04T14:28:05.885Z</time></trkpt><trkpt lat="41.5294479" lon="0.8497323"><ele>274.4</ele><time>2026-05-04T14:28:06.886Z</time></trkpt><trkpt lat="41.5293879" lon="0.8498594"><ele>274.2</ele><time>2026-05-04T14:28:07.886Z</time></trkpt><trkpt lat="41.5293276" lon="0.8499862"><ele>274.0</ele><time>2026-05-04T14:28:08.886Z</time></trkpt><trkpt lat="41.5292614" lon="0.8501184"><ele>274.25</ele><time>2026-05-04T14:28:09.886Z</time></trkpt><trkpt lat="41.5291878" lon="0.8502599"><ele>274.5</ele><time>2026-05-04T14:28:10.886Z</time></trkpt><trkpt lat="41.5291158" lon="0.8504027"><ele>274.75</ele><time>2026-05-04T14:28:11.885Z</time></trkpt><trkpt lat="41.5290426" lon="0.8505503"><ele>275.0</ele><time>2026-05-04T14:28:12.886Z</time></trkpt><trkpt lat="41.5289677" lon="0.8506979"><ele>275.0</ele><time>2026-05-04T14:28:13.886Z</time></trkpt><trkpt lat="41.5288941" lon="0.8508493"><ele>275.0</ele><time>2026-05-04T14:28:14.886Z</time></trkpt><trkpt lat="41.5288149" lon="0.851004"><ele>275.0</ele><time>2026-05-04T14:28:15.886Z</time></trkpt><trkpt lat="41.5287372" lon="0.8511587"><ele>275.0</ele><time>2026-05-04T14:28:16.886Z</time></trkpt><trkpt lat="41.5286604" lon="0.8513141"><ele>274.5</ele><time>2026-05-04T14:28:17.886Z</time></trkpt><trkpt lat="41.5285861" lon="0.851461"><ele>274.0</ele><time>2026-05-04T14:28:18.886Z</time></trkpt><trkpt lat="41.5285141" lon="0.85161"><ele>273.5</ele><time>2026-05-04T14:28:19.886Z</time></trkpt><trkpt lat="41.5284421" lon="0.8517572"><ele>273.0</ele><time>2026-05-04T14:28:20.886Z</time></trkpt><trkpt lat="41.5283657" lon="0.8518977"><ele>273.0</ele><time>2026-05-04T14:28:21.886Z</time></trkpt><trkpt lat="41.5282911" lon="0.8520362"><ele>273.0</ele><time>2026-05-04T14:28:22.885Z</time></trkpt><trkpt lat="41.5282183" lon="0.8521801"><ele>273.0</ele><time>2026-05-04T14:28:23.886Z</time></trkpt><trkpt lat="41.5281461" lon="0.8523208"><ele>273.0</ele><time>2026-05-04T14:28:24.885Z</time></trkpt><trkpt lat="41.5280722" lon="0.8524599"><ele>273.0</ele><time>2026-05-04T14:28:25.886Z</time></trkpt><trkpt lat="41.5280014" lon="0.8525993"><ele>273.0</ele><time>2026-05-04T14:28:26.886Z</time></trkpt><trkpt lat="41.5279338" lon="0.8527382"><ele>273.0</ele><time>2026-05-04T14:28:27.886Z</time></trkpt><trkpt lat="41.5278668" lon="0.8528718"><ele>273.0</ele><time>2026-05-04T14:28:28.886Z</time></trkpt><trkpt lat="41.5277975" lon="0.8530051"><ele>273.0</ele><time>2026-05-04T14:28:29.885Z</time></trkpt><trkpt lat="41.5277307" lon="0.8531366"><ele>273.0</ele><time>2026-05-04T14:28:30.885Z</time></trkpt><trkpt lat="41.5276602" lon="0.8532709"><ele>273.0</ele><time>2026-05-04T14:28:31.886Z</time></trkpt><trkpt lat="41.5275896" lon="0.8534068"><ele>273.0</ele><time>2026-05-04T14:28:32.885Z</time></trkpt><trkpt lat="41.5275212" lon="0.8535502"><ele>272.75</ele><time>2026-05-04T14:28:33.886Z</time></trkpt><trkpt lat="41.5274557" lon="0.8536851"><ele>272.5</ele><time>2026-05-04T14:28:34.885Z</time></trkpt><trkpt lat="41.5273874" lon="0.8538227"><ele>272.25</ele><time>2026-05-04T14:28:35.885Z</time></trkpt><trkpt lat="41.5273215" lon="0.8539584"><ele>272.0</ele><time>2026-05-04T14:28:36.886Z</time></trkpt><trkpt lat="41.5272563" lon="0.8540945"><ele>272.0</ele><time>2026-05-04T14:28:37.886Z</time></trkpt><trkpt lat="41.5271873" lon="0.8542386"><ele>272.0</ele><time>2026-05-04T14:28:38.886Z</time></trkpt><trkpt lat="41.5271231" lon="0.8543769"><ele>272.0</ele><time>2026-05-04T14:28:39.885Z</time></trkpt><trkpt lat="41.5270624" lon="0.8545244"><ele>272.0</ele><time>2026-05-04T14:28:40.886Z</time></trkpt><trkpt lat="41.5270004" lon="0.8546658"><ele>272.25</ele><time>2026-05-04T14:28:41.886Z</time></trkpt><trkpt lat="41.5269347" lon="0.8548106"><ele>272.5</ele><time>2026-05-04T14:28:42.886Z</time></trkpt><trkpt lat="41.5268684" lon="0.854955"><ele>272.75</ele><time>2026-05-04T14:28:43.886Z</time></trkpt><trkpt lat="41.5268006" lon="0.8550987"><ele>273.0</ele><time>2026-05-04T14:28:44.886Z</time></trkpt><trkpt lat="41.5267344" lon="0.8552383"><ele>273.0</ele><time>2026-05-04T14:28:45.885Z</time></trkpt><trkpt lat="41.5266604" lon="0.8553715"><ele>273.0</ele><time>2026-05-04T14:28:46.886Z</time></trkpt><trkpt lat="41.5265878" lon="0.8555077"><ele>273.0</ele><time>2026-05-04T14:28:47.886Z</time></trkpt><trkpt lat="41.5265208" lon="0.8556331"><ele>273.0</ele><time>2026-05-04T14:28:48.886Z</time></trkpt><trkpt lat="41.5264489" lon="0.8557615"><ele>273.0</ele><time>2026-05-04T14:28:49.885Z</time></trkpt><trkpt lat="41.5263825" lon="0.8558849"><ele>273.0</ele><time>2026-05-04T14:28:50.886Z</time></trkpt><trkpt lat="41.5263097" lon="0.8560068"><ele>273.0</ele><time>2026-05-04T14:28:51.886Z</time></trkpt><trkpt lat="41.5262341" lon="0.8561231"><ele>273.0</ele><time>2026-05-04T14:28:52.886Z</time></trkpt><trkpt lat="41.526158" lon="0.8562431"><ele>272.75</ele><time>2026-05-04T14:28:53.886Z</time></trkpt><trkpt lat="41.5260826" lon="0.8563526"><ele>272.5</ele><time>2026-05-04T14:28:54.886Z</time></trkpt><trkpt lat="41.5260052" lon="0.8564641"><ele>272.25</ele><time>2026-05-04T14:28:55.886Z</time></trkpt><trkpt lat="41.5259245" lon="0.8565743"><ele>272.0</ele><time>2026-05-04T14:28:56.886Z</time></trkpt><trkpt lat="41.5258471" lon="0.8566828"><ele>271.6</ele><time>2026-05-04T14:28:57.886Z</time></trkpt><trkpt lat="41.5257671" lon="0.8567875"><ele>271.2</ele><time>2026-05-04T14:28:58.886Z</time></trkpt><trkpt lat="41.5256851" lon="0.856885"><ele>270.8</ele><time>2026-05-04T14:28:59.886Z</time></trkpt><trkpt lat="41.5255998" lon="0.8569859"><ele>270.4</ele><time>2026-05-04T14:29:00.886Z</time></trkpt><trkpt lat="41.5255137" lon="0.8570844"><ele>270.0</ele><time>2026-05-04T14:29:01.885Z</time></trkpt><trkpt lat="41.5254273" lon="0.8571829"><ele>270.5</ele><time>2026-05-04T14:29:02.886Z</time></trkpt><trkpt lat="41.5253435" lon="0.8572734"><ele>271.0</ele><time>2026-05-04T14:29:03.885Z</time></trkpt><trkpt lat="41.525253" lon="0.8573688"><ele>271.5</ele><time>2026-05-04T14:29:04.886Z</time></trkpt><trkpt lat="41.5251614" lon="0.8574596"><ele>272.0</ele><time>2026-05-04T14:29:05.885Z</time></trkpt><trkpt lat="41.5250646" lon="0.8575429"><ele>271.8</ele><time>2026-05-04T14:29:06.886Z</time></trkpt><trkpt lat="41.5249727" lon="0.857621"><ele>271.6</ele><time>2026-05-04T14:29:07.885Z</time></trkpt><trkpt lat="41.5248793" lon="0.8576965"><ele>271.40000000000003</ele><time>2026-05-04T14:29:08.886Z</time></trkpt><trkpt lat="41.5247819" lon="0.8577689"><ele>271.2</ele><time>2026-05-04T14:29:09.886Z</time></trkpt><trkpt lat="41.524683" lon="0.8578439"><ele>271.0</ele><time>2026-05-04T14:29:10.886Z</time></trkpt><trkpt lat="41.5245826" lon="0.8579061"><ele>271.40000000000003</ele><time>2026-05-04T14:29:11.885Z</time></trkpt><trkpt lat="41.5244843" lon="0.8579642"><ele>271.8</ele><time>2026-05-04T14:29:12.886Z</time></trkpt><trkpt lat="41.5243818" lon="0.8580233"><ele>272.20000000000005</ele><time>2026-05-04T14:29:13.886Z</time></trkpt><trkpt lat="41.5242838" lon="0.8580805"><ele>272.6</ele><time>2026-05-04T14:29:14.886Z</time></trkpt><trkpt lat="41.5241833" lon="0.8581332"><ele>273.0</ele><time>2026-05-04T14:29:15.886Z</time></trkpt><trkpt lat="41.524082" lon="0.8581828"><ele>273.0</ele><time>2026-05-04T14:29:16.885Z</time></trkpt><trkpt lat="41.5239745" lon="0.8582341"><ele>273.0</ele><time>2026-05-04T14:29:17.886Z</time></trkpt><trkpt lat="41.5238672" lon="0.8582807"><ele>273.0</ele><time>2026-05-04T14:29:18.885Z</time></trkpt><trkpt lat="41.5237515" lon="0.8583269"><ele>273.0</ele><time>2026-05-04T14:29:19.886Z</time></trkpt><trkpt lat="41.523637" lon="0.8583718"><ele>273.25</ele><time>2026-05-04T14:29:20.886Z</time></trkpt><trkpt lat="41.5235197" lon="0.8584068"><ele>273.5</ele><time>2026-05-04T14:29:21.886Z</time></trkpt><trkpt lat="41.5234054" lon="0.8584413"><ele>273.75</ele><time>2026-05-04T14:29:22.886Z</time></trkpt><trkpt lat="41.5232937" lon="0.8584676"><ele>274.0</ele><time>2026-05-04T14:29:23.886Z</time></trkpt><trkpt lat="41.523179" lon="0.858493"><ele>274.5</ele><time>2026-05-04T14:29:24.886Z</time></trkpt><trkpt lat="41.5230623" lon="0.8585076"><ele>275.0</ele><time>2026-05-04T14:29:25.886Z</time></trkpt><trkpt lat="41.5229491" lon="0.8585258"><ele>275.5</ele><time>2026-05-04T14:29:26.885Z</time></trkpt><trkpt lat="41.52283" lon="0.8585376"><ele>276.0</ele><time>2026-05-04T14:29:27.886Z</time></trkpt><trkpt lat="41.5227132" lon="0.8585412"><ele>276.0</ele><time>2026-05-04T14:29:28.886Z</time></trkpt><trkpt lat="41.5225947" lon="0.8585406"><ele>276.0</ele><time>2026-05-04T14:29:29.886Z</time></trkpt><trkpt lat="41.5224744" lon="0.8585378"><ele>276.0</ele><time>2026-05-04T14:29:30.886Z</time></trkpt><trkpt lat="41.5223555" lon="0.858527"><ele>276.0</ele><time>2026-05-04T14:29:31.886Z</time></trkpt><trkpt lat="41.5222352" lon="0.8585172"><ele>276.0</ele><time>2026-05-04T14:29:32.886Z</time></trkpt><trkpt lat="41.5221146" lon="0.8585012"><ele>276.0</ele><time>2026-05-04T14:29:33.886Z</time></trkpt><trkpt lat="41.5219981" lon="0.8584803"><ele>276.0</ele><time>2026-05-04T14:29:34.886Z</time></trkpt><trkpt lat="41.5218805" lon="0.8584612"><ele>276.0</ele><time>2026-05-04T14:29:35.886Z</time></trkpt><trkpt lat="41.5217621" lon="0.8584346"><ele>276.0</ele><time>2026-05-04T14:29:36.887Z</time></trkpt><trkpt lat="41.5216418" lon="0.8584127"><ele>276.0</ele><time>2026-05-04T14:29:37.886Z</time></trkpt><trkpt lat="41.5215264" lon="0.8583939"><ele>276.0</ele><time>2026-05-04T14:29:38.887Z</time></trkpt><trkpt lat="41.5214016" lon="0.8583713"><ele>276.0</ele><time>2026-05-04T14:29:39.887Z</time></trkpt><trkpt lat="41.5212775" lon="0.8583486"><ele>277.0</ele><time>2026-05-04T14:29:40.887Z</time></trkpt><trkpt lat="41.5211581" lon="0.8583242"><ele>278.0</ele><time>2026-05-04T14:29:41.887Z</time></trkpt><trkpt lat="41.5210349" lon="0.8582992"><ele>279.0</ele><time>2026-05-04T14:29:42.887Z</time></trkpt><trkpt lat="41.5209113" lon="0.8582761"><ele>280.0</ele><time>2026-05-04T14:29:43.887Z</time></trkpt><trkpt lat="41.5207885" lon="0.8582543"><ele>280.0</ele><time>2026-05-04T14:29:44.887Z</time></trkpt><trkpt lat="41.5206639" lon="0.8582366"><ele>280.0</ele><time>2026-05-04T14:29:45.887Z</time></trkpt><trkpt lat="41.52054" lon="0.8582223"><ele>280.0</ele><time>2026-05-04T14:29:46.887Z</time></trkpt><trkpt lat="41.520415" lon="0.8582076"><ele>280.0</ele><time>2026-05-04T14:29:47.886Z</time></trkpt><trkpt lat="41.5202916" lon="0.8581922"><ele>280.5</ele><time>2026-05-04T14:29:48.887Z</time></trkpt><trkpt lat="41.520169" lon="0.8581831"><ele>281.0</ele><time>2026-05-04T14:29:49.887Z</time></trkpt><trkpt lat="41.5200454" lon="0.8581739"><ele>281.5</ele><time>2026-05-04T14:29:50.886Z</time></trkpt><trkpt lat="41.5199205" lon="0.8581622"><ele>282.0</ele><time>2026-05-04T14:29:51.887Z</time></trkpt><trkpt lat="41.5197988" lon="0.8581594"><ele>282.0</ele><time>2026-05-04T14:29:52.887Z</time></trkpt><trkpt lat="41.5196712" lon="0.8581539"><ele>282.0</ele><time>2026-05-04T14:29:53.887Z</time></trkpt><trkpt lat="41.5195464" lon="0.8581537"><ele>282.0</ele><time>2026-05-04T14:29:54.887Z</time></trkpt><trkpt lat="41.519421" lon="0.8581532"><ele>282.0</ele><time>2026-05-04T14:29:55.887Z</time></trkpt><trkpt lat="41.5192973" lon="0.8581622"><ele>281.0</ele><time>2026-05-04T14:29:56.887Z</time></trkpt><trkpt lat="41.5191695" lon="0.8581743"><ele>280.0</ele><time>2026-05-04T14:29:57.886Z</time></trkpt><trkpt lat="41.5190451" lon="0.8581904"><ele>279.0</ele><time>2026-05-04T14:29:58.886Z</time></trkpt><trkpt lat="41.5189211" lon="0.858204"><ele>278.0</ele><time>2026-05-04T14:29:59.887Z</time></trkpt><trkpt lat="41.5188" lon="0.8582252"><ele>279.0</ele><time>2026-05-04T14:30:00.886Z</time></trkpt><trkpt lat="41.5186804" lon="0.858248"><ele>280.0</ele><time>2026-05-04T14:30:01.887Z</time></trkpt><trkpt lat="41.5185574" lon="0.8582749"><ele>281.0</ele><time>2026-05-04T14:30:02.886Z</time></trkpt><trkpt lat="41.5184361" lon="0.8582983"><ele>282.0</ele><time>2026-05-04T14:30:03.887Z</time></trkpt><trkpt lat="41.5183136" lon="0.858331"><ele>282.0</ele><time>2026-05-04T14:30:04.887Z</time></trkpt><trkpt lat="41.5181936" lon="0.8583575"><ele>282.0</ele><time>2026-05-04T14:30:05.887Z</time></trkpt><trkpt lat="41.5180749" lon="0.8583881"><ele>282.0</ele><time>2026-05-04T14:30:06.887Z</time></trkpt><trkpt lat="41.5179539" lon="0.858423"><ele>282.0</ele><time>2026-05-04T14:30:07.887Z</time></trkpt><trkpt lat="41.5178344" lon="0.8584622"><ele>282.5</ele><time>2026-05-04T14:30:08.887Z</time></trkpt><trkpt lat="41.5177171" lon="0.8585042"><ele>283.0</ele><time>2026-05-04T14:30:09.887Z</time></trkpt><trkpt lat="41.5175968" lon="0.8585459"><ele>283.5</ele><time>2026-05-04T14:30:10.887Z</time></trkpt><trkpt lat="41.5174759" lon="0.8585888"><ele>284.0</ele><time>2026-05-04T14:30:11.887Z</time></trkpt><trkpt lat="41.517355" lon="0.8586352"><ele>284.0</ele><time>2026-05-04T14:30:12.886Z</time></trkpt><trkpt lat="41.5172392" lon="0.858678"><ele>284.0</ele><time>2026-05-04T14:30:13.887Z</time></trkpt><trkpt lat="41.5171311" lon="0.8587275"><ele>284.0</ele><time>2026-05-04T14:30:14.887Z</time></trkpt><trkpt lat="41.5170187" lon="0.8587743"><ele>284.0</ele><time>2026-05-04T14:30:15.887Z</time></trkpt><trkpt lat="41.5169062" lon="0.8588262"><ele>285.5</ele><time>2026-05-04T14:30:16.887Z</time></trkpt><trkpt lat="41.5167975" lon="0.8588869"><ele>287.0</ele><time>2026-05-04T14:30:17.887Z</time></trkpt><trkpt lat="41.5166825" lon="0.8589486"><ele>288.5</ele><time>2026-05-04T14:30:18.887Z</time></trkpt><trkpt lat="41.5165667" lon="0.8590066"><ele>290.0</ele><time>2026-05-04T14:30:19.887Z</time></trkpt><trkpt lat="41.5164531" lon="0.8590697"><ele>290.0</ele><time>2026-05-04T14:30:20.886Z</time></trkpt><trkpt lat="41.5163408" lon="0.8591346"><ele>290.0</ele><time>2026-05-04T14:30:21.887Z</time></trkpt><trkpt lat="41.5162318" lon="0.8591997"><ele>290.0</ele><time>2026-05-04T14:30:22.886Z</time></trkpt><trkpt lat="41.5161171" lon="0.8592681"><ele>290.0</ele><time>2026-05-04T14:30:23.887Z</time></trkpt><trkpt lat="41.5160076" lon="0.8593473"><ele>289.5</ele><time>2026-05-04T14:30:24.887Z</time></trkpt><trkpt lat="41.515893" lon="0.8594259"><ele>289.0</ele><time>2026-05-04T14:30:25.886Z</time></trkpt><trkpt lat="41.5157783" lon="0.8595043"><ele>288.5</ele><time>2026-05-04T14:30:26.887Z</time></trkpt><trkpt lat="41.5156672" lon="0.8595945"><ele>288.0</ele><time>2026-05-04T14:30:27.887Z</time></trkpt><trkpt lat="41.5155543" lon="0.8596823"><ele>288.0</ele><time>2026-05-04T14:30:28.887Z</time></trkpt><trkpt lat="41.5154453" lon="0.859772"><ele>288.0</ele><time>2026-05-04T14:30:29.887Z</time></trkpt><trkpt lat="41.5153422" lon="0.8598599"><ele>288.0</ele><time>2026-05-04T14:30:30.887Z</time></trkpt><trkpt lat="41.5152401" lon="0.8599491"><ele>288.0</ele><time>2026-05-04T14:30:31.887Z</time></trkpt><trkpt lat="41.5151395" lon="0.8600354"><ele>287.75</ele><time>2026-05-04T14:30:32.887Z</time></trkpt><trkpt lat="41.5150385" lon="0.8601205"><ele>287.5</ele><time>2026-05-04T14:30:33.887Z</time></trkpt><trkpt lat="41.5149386" lon="0.8602092"><ele>287.25</ele><time>2026-05-04T14:30:34.887Z</time></trkpt><trkpt lat="41.5148457" lon="0.8603006"><ele>287.0</ele><time>2026-05-04T14:30:35.887Z</time></trkpt><trkpt lat="41.5147507" lon="0.8603991"><ele>287.0</ele><time>2026-05-04T14:30:36.887Z</time></trkpt><trkpt lat="41.5146577" lon="0.8604958"><ele>287.0</ele><time>2026-05-04T14:30:37.887Z</time></trkpt><trkpt lat="41.5145626" lon="0.8605967"><ele>287.0</ele><time>2026-05-04T14:30:38.887Z</time></trkpt><trkpt lat="41.5144701" lon="0.8606955"><ele>287.0</ele><time>2026-05-04T14:30:39.887Z</time></trkpt><trkpt lat="41.514383" lon="0.860806"><ele>287.5</ele><time>2026-05-04T14:30:40.887Z</time></trkpt><trkpt lat="41.514296" lon="0.8609072"><ele>288.0</ele><time>2026-05-04T14:30:41.887Z</time></trkpt><trkpt lat="41.5142047" lon="0.8610165"><ele>288.5</ele><time>2026-05-04T14:30:42.887Z</time></trkpt><trkpt lat="41.514112" lon="0.8611261"><ele>289.0</ele><time>2026-05-04T14:30:43.887Z</time></trkpt><trkpt lat="41.5140223" lon="0.8612426"><ele>289.75</ele><time>2026-05-04T14:30:44.887Z</time></trkpt><trkpt lat="41.5139342" lon="0.8613596"><ele>290.5</ele><time>2026-05-04T14:30:45.887Z</time></trkpt><trkpt lat="41.5138493" lon="0.8614829"><ele>291.25</ele><time>2026-05-04T14:30:46.887Z</time></trkpt><trkpt lat="41.5137649" lon="0.8616078"><ele>292.0</ele><time>2026-05-04T14:30:47.887Z</time></trkpt><trkpt lat="41.5136767" lon="0.8617295"><ele>293.0</ele><time>2026-05-04T14:30:48.887Z</time></trkpt><trkpt lat="41.513591" lon="0.8618534"><ele>294.0</ele><time>2026-05-04T14:30:49.887Z</time></trkpt><trkpt lat="41.5135084" lon="0.8619849"><ele>295.0</ele><time>2026-05-04T14:30:50.887Z</time></trkpt><trkpt lat="41.5134259" lon="0.8621103"><ele>296.0</ele><time>2026-05-04T14:30:51.887Z</time></trkpt><trkpt lat="41.5133481" lon="0.8622398"><ele>296.0</ele><time>2026-05-04T14:30:52.887Z</time></trkpt><trkpt lat="41.5132685" lon="0.8623741"><ele>296.0</ele><time>2026-05-04T14:30:53.887Z</time></trkpt><trkpt lat="41.5131869" lon="0.8625097"><ele>296.0</ele><time>2026-05-04T14:30:54.887Z</time></trkpt><trkpt lat="41.5131089" lon="0.8626474"><ele>296.0</ele><time>2026-05-04T14:30:55.887Z</time></trkpt><trkpt lat="41.5130365" lon="0.8627873"><ele>296.0</ele><time>2026-05-04T14:30:56.887Z</time></trkpt><trkpt lat="41.5129675" lon="0.8629287"><ele>296.0</ele><time>2026-05-04T14:30:57.887Z</time></trkpt><trkpt lat="41.5128997" lon="0.8630748"><ele>296.0</ele><time>2026-05-04T14:30:58.887Z</time></trkpt><trkpt lat="41.5128358" lon="0.8632156"><ele>296.0</ele><time>2026-05-04T14:30:59.887Z</time></trkpt><trkpt lat="41.51277" lon="0.8633572"><ele>295.5</ele><time>2026-05-04T14:31:00.887Z</time></trkpt><trkpt lat="41.5127021" lon="0.863503"><ele>295.0</ele><time>2026-05-04T14:31:01.887Z</time></trkpt><trkpt lat="41.5126394" lon="0.8636407"><ele>294.5</ele><time>2026-05-04T14:31:02.887Z</time></trkpt><trkpt lat="41.5125809" lon="0.8637838"><ele>294.0</ele><time>2026-05-04T14:31:03.887Z</time></trkpt><trkpt lat="41.5125253" lon="0.8639277"><ele>294.0</ele><time>2026-05-04T14:31:04.887Z</time></trkpt><trkpt lat="41.5124739" lon="0.8640619"><ele>294.0</ele><time>2026-05-04T14:31:05.887Z</time></trkpt><trkpt lat="41.5124263" lon="0.8641949"><ele>294.0</ele><time>2026-05-04T14:31:06.887Z</time></trkpt><trkpt lat="41.5123732" lon="0.8643219"><ele>294.0</ele><time>2026-05-04T14:31:07.887Z</time></trkpt><trkpt lat="41.5123307" lon="0.8644566"><ele>294.0</ele><time>2026-05-04T14:31:08.887Z</time></trkpt><trkpt lat="41.5122838" lon="0.8645916"><ele>293.75</ele><time>2026-05-04T14:31:09.886Z</time></trkpt><trkpt lat="41.5122334" lon="0.8647282"><ele>293.5</ele><time>2026-05-04T14:31:10.887Z</time></trkpt><trkpt lat="41.5121866" lon="0.8648686"><ele>293.25</ele><time>2026-05-04T14:31:11.887Z</time></trkpt><trkpt lat="41.5121392" lon="0.8650157"><ele>293.0</ele><time>2026-05-04T14:31:12.887Z</time></trkpt><trkpt lat="41.5120933" lon="0.8651588"><ele>293.5</ele><time>2026-05-04T14:31:13.887Z</time></trkpt><trkpt lat="41.5120507" lon="0.8653023"><ele>294.0</ele><time>2026-05-04T14:31:14.887Z</time></trkpt><trkpt lat="41.5120068" lon="0.8654483"><ele>294.5</ele><time>2026-05-04T14:31:15.886Z</time></trkpt><trkpt lat="41.5119627" lon="0.8656006"><ele>295.0</ele><time>2026-05-04T14:31:16.887Z</time></trkpt><trkpt lat="41.5119184" lon="0.8657477"><ele>295.0</ele><time>2026-05-04T14:31:17.887Z</time></trkpt><trkpt lat="41.5118749" lon="0.8658951"><ele>295.0</ele><time>2026-05-04T14:31:18.887Z</time></trkpt><trkpt lat="41.51183" lon="0.8660436"><ele>295.0</ele><time>2026-05-04T14:31:19.886Z</time></trkpt><trkpt lat="41.5117863" lon="0.8661913"><ele>295.0</ele><time>2026-05-04T14:31:20.887Z</time></trkpt><trkpt lat="41.5117445" lon="0.8663351"><ele>295.2</ele><time>2026-05-04T14:31:21.887Z</time></trkpt><trkpt lat="41.511702" lon="0.8664725"><ele>295.4</ele><time>2026-05-04T14:31:22.887Z</time></trkpt><trkpt lat="41.5116641" lon="0.8666087"><ele>295.6</ele><time>2026-05-04T14:31:23.887Z</time></trkpt><trkpt lat="41.5116228" lon="0.8667486"><ele>295.8</ele><time>2026-05-04T14:31:24.887Z</time></trkpt><trkpt lat="41.5115915" lon="0.8668822"><ele>296.0</ele><time>2026-05-04T14:31:25.886Z</time></trkpt><trkpt lat="41.5115558" lon="0.8670152"><ele>296.0</ele><time>2026-05-04T14:31:26.887Z</time></trkpt><trkpt lat="41.5115192" lon="0.8671442"><ele>296.0</ele><time>2026-05-04T14:31:27.887Z</time></trkpt><trkpt lat="41.5114832" lon="0.8672727"><ele>296.0</ele><time>2026-05-04T14:31:28.887Z</time></trkpt><trkpt lat="41.5114459" lon="0.8674031"><ele>296.0</ele><time>2026-05-04T14:31:29.886Z</time></trkpt><trkpt lat="41.5114049" lon="0.8675405"><ele>296.0</ele><time>2026-05-04T14:31:30.887Z</time></trkpt><trkpt lat="41.5113627" lon="0.8676754"><ele>296.0</ele><time>2026-05-04T14:31:31.887Z</time></trkpt><trkpt lat="41.511323" lon="0.8678126"><ele>296.0</ele><time>2026-05-04T14:31:32.886Z</time></trkpt><trkpt lat="41.5112829" lon="0.8679581"><ele>296.0</ele><time>2026-05-04T14:31:33.887Z</time></trkpt><trkpt lat="41.5112423" lon="0.8680969"><ele>296.0</ele><time>2026-05-04T14:31:34.887Z</time></trkpt><trkpt lat="41.5112032" lon="0.8682395"><ele>297.0</ele><time>2026-05-04T14:31:35.887Z</time></trkpt><trkpt lat="41.5111639" lon="0.8683831"><ele>298.0</ele><time>2026-05-04T14:31:36.887Z</time></trkpt><trkpt lat="41.5111235" lon="0.8685217"><ele>299.0</ele><time>2026-05-04T14:31:37.887Z</time></trkpt><trkpt lat="41.5110799" lon="0.868669"><ele>300.0</ele><time>2026-05-04T14:31:38.887Z</time></trkpt><trkpt lat="41.5110403" lon="0.8688159"><ele>300.0</ele><time>2026-05-04T14:31:39.886Z</time></trkpt><trkpt lat="41.5110077" lon="0.868963"><ele>300.0</ele><time>2026-05-04T14:31:40.887Z</time></trkpt><trkpt lat="41.5109702" lon="0.8691133"><ele>300.0</ele><time>2026-05-04T14:31:41.887Z</time></trkpt><trkpt lat="41.5109297" lon="0.8692628"><ele>300.0</ele><time>2026-05-04T14:31:42.887Z</time></trkpt><trkpt lat="41.5108866" lon="0.8694132"><ele>299.75</ele><time>2026-05-04T14:31:43.887Z</time></trkpt><trkpt lat="41.5108484" lon="0.8695648"><ele>299.5</ele><time>2026-05-04T14:31:44.887Z</time></trkpt><trkpt lat="41.510807" lon="0.8697152"><ele>299.25</ele><time>2026-05-04T14:31:45.886Z</time></trkpt><trkpt lat="41.5107675" lon="0.8698598"><ele>299.0</ele><time>2026-05-04T14:31:46.887Z</time></trkpt><trkpt lat="41.5107293" lon="0.8700074"><ele>299.5</ele><time>2026-05-04T14:31:47.887Z</time></trkpt><trkpt lat="41.5106878" lon="0.8701529"><ele>300.0</ele><time>2026-05-04T14:31:48.887Z</time></trkpt><trkpt lat="41.5106495" lon="0.8703024"><ele>300.5</ele><time>2026-05-04T14:31:49.887Z</time></trkpt><trkpt lat="41.5106101" lon="0.8704457"><ele>301.0</ele><time>2026-05-04T14:31:50.887Z</time></trkpt><trkpt lat="41.5105766" lon="0.8705942"><ele>301.0</ele><time>2026-05-04T14:31:51.887Z</time></trkpt><trkpt lat="41.5105394" lon="0.8707418"><ele>301.0</ele><time>2026-05-04T14:31:52.887Z</time></trkpt><trkpt lat="41.5104994" lon="0.8708765"><ele>301.0</ele><time>2026-05-04T14:31:53.887Z</time></trkpt><trkpt lat="41.5104632" lon="0.8710116"><ele>301.0</ele><time>2026-05-04T14:31:54.887Z</time></trkpt><trkpt lat="41.510432" lon="0.8711493"><ele>301.0</ele><time>2026-05-04T14:31:55.887Z</time></trkpt><trkpt lat="41.5103987" lon="0.8712952"><ele>302.25</ele><time>2026-05-04T14:31:56.887Z</time></trkpt><trkpt lat="41.5103694" lon="0.8714356"><ele>303.5</ele><time>2026-05-04T14:31:57.887Z</time></trkpt><trkpt lat="41.5103331" lon="0.8715803"><ele>304.75</ele><time>2026-05-04T14:31:58.887Z</time></trkpt><trkpt lat="41.5102962" lon="0.8717245"><ele>306.0</ele><time>2026-05-04T14:31:59.886Z</time></trkpt><trkpt lat="41.5102608" lon="0.8718698"><ele>306.25</ele><time>2026-05-04T14:32:00.887Z</time></trkpt><trkpt lat="41.510225" lon="0.8720182"><ele>306.5</ele><time>2026-05-04T14:32:01.886Z</time></trkpt><trkpt lat="41.5101888" lon="0.8721624"><ele>306.75</ele><time>2026-05-04T14:32:02.887Z</time></trkpt><trkpt lat="41.5101522" lon="0.8723117"><ele>307.0</ele><time>2026-05-04T14:32:03.887Z</time></trkpt><trkpt lat="41.5101152" lon="0.8724539"><ele>307.0</ele><time>2026-05-04T14:32:04.887Z</time></trkpt><trkpt lat="41.5100785" lon="0.8726043"><ele>307.0</ele><time>2026-05-04T14:32:05.887Z</time></trkpt><trkpt lat="41.5100423" lon="0.8727552"><ele>307.0</ele><time>2026-05-04T14:32:06.887Z</time></trkpt><trkpt lat="41.5100025" lon="0.8729098"><ele>307.0</ele><time>2026-05-04T14:32:07.887Z</time></trkpt><trkpt lat="41.509965" lon="0.873066"><ele>307.0</ele><time>2026-05-04T14:32:08.887Z</time></trkpt><trkpt lat="41.5099283" lon="0.8732252"><ele>307.0</ele><time>2026-05-04T14:32:09.887Z</time></trkpt><trkpt lat="41.5098924" lon="0.8733855"><ele>307.0</ele><time>2026-05-04T14:32:10.887Z</time></trkpt><trkpt lat="41.5098545" lon="0.8735503"><ele>307.0</ele><time>2026-05-04T14:32:11.887Z</time></trkpt><trkpt lat="41.5098133" lon="0.8737128"><ele>307.0</ele><time>2026-05-04T14:32:12.886Z</time></trkpt><trkpt lat="41.5097754" lon="0.8738783"><ele>307.0</ele><time>2026-05-04T14:32:13.887Z</time></trkpt><trkpt lat="41.5097355" lon="0.8740412"><ele>307.0</ele><time>2026-05-04T14:32:14.888Z</time></trkpt><trkpt lat="41.5096981" lon="0.8742101"><ele>307.0</ele><time>2026-05-04T14:32:15.888Z</time></trkpt><trkpt lat="41.50966" lon="0.8743749"><ele>308.0</ele><time>2026-05-04T14:32:16.888Z</time></trkpt><trkpt lat="41.5096217" lon="0.8745453"><ele>309.0</ele><time>2026-05-04T14:32:17.887Z</time></trkpt><trkpt lat="41.509584" lon="0.8747221"><ele>310.0</ele><time>2026-05-04T14:32:18.888Z</time></trkpt><trkpt lat="41.5095443" lon="0.874898"><ele>311.0</ele><time>2026-05-04T14:32:19.888Z</time></trkpt><trkpt lat="41.5095051" lon="0.8750668"><ele>312.25</ele><time>2026-05-04T14:32:20.888Z</time></trkpt><trkpt lat="41.5094674" lon="0.8752367"><ele>313.5</ele><time>2026-05-04T14:32:21.888Z</time></trkpt><trkpt lat="41.5094285" lon="0.8754058"><ele>314.75</ele><time>2026-05-04T14:32:22.888Z</time></trkpt><trkpt lat="41.5093926" lon="0.8755791"><ele>316.0</ele><time>2026-05-04T14:32:23.888Z</time></trkpt><trkpt lat="41.509354" lon="0.8757594"><ele>316.75</ele><time>2026-05-04T14:32:24.887Z</time></trkpt><trkpt lat="41.509315" lon="0.8759379"><ele>317.5</ele><time>2026-05-04T14:32:25.888Z</time></trkpt><trkpt lat="41.5092801" lon="0.8761161"><ele>318.25</ele><time>2026-05-04T14:32:26.888Z</time></trkpt><trkpt lat="41.5092438" lon="0.8763024"><ele>319.0</ele><time>2026-05-04T14:32:27.888Z</time></trkpt><trkpt lat="41.509207" lon="0.8764798"><ele>319.0</ele><time>2026-05-04T14:32:28.888Z</time></trkpt><trkpt lat="41.509179" lon="0.8766526"><ele>319.0</ele><time>2026-05-04T14:32:29.887Z</time></trkpt><trkpt lat="41.5091437" lon="0.8768332"><ele>319.0</ele><time>2026-05-04T14:32:30.888Z</time></trkpt><trkpt lat="41.5091136" lon="0.8770119"><ele>319.0</ele><time>2026-05-04T14:32:31.888Z</time></trkpt><trkpt lat="41.5090869" lon="0.8771937"><ele>319.5</ele><time>2026-05-04T14:32:32.887Z</time></trkpt><trkpt lat="41.5090655" lon="0.8773771"><ele>320.0</ele><time>2026-05-04T14:32:33.888Z</time></trkpt><trkpt lat="41.5090362" lon="0.8775626"><ele>320.5</ele><time>2026-05-04T14:32:34.888Z</time></trkpt><trkpt lat="41.5090114" lon="0.8777469"><ele>321.0</ele><time>2026-05-04T14:32:35.887Z</time></trkpt><trkpt lat="41.5089932" lon="0.8779267"><ele>321.25</ele><time>2026-05-04T14:32:36.888Z</time></trkpt><trkpt lat="41.5089789" lon="0.8781085"><ele>321.5</ele><time>2026-05-04T14:32:37.888Z</time></trkpt><trkpt lat="41.5089618" lon="0.8782937"><ele>321.75</ele><time>2026-05-04T14:32:38.888Z</time></trkpt><trkpt lat="41.5089468" lon="0.8784773"><ele>322.0</ele><time>2026-05-04T14:32:39.887Z</time></trkpt><trkpt lat="41.5089302" lon="0.8786602"><ele>322.5</ele><time>2026-05-04T14:32:40.888Z</time></trkpt><trkpt lat="41.5089153" lon="0.8788499"><ele>323.0</ele><time>2026-05-04T14:32:41.888Z</time></trkpt><trkpt lat="41.5089031" lon="0.8790377"><ele>323.5</ele><time>2026-05-04T14:32:42.888Z</time></trkpt><trkpt lat="41.5088895" lon="0.8792161"><ele>324.0</ele><time>2026-05-04T14:32:43.888Z</time></trkpt><trkpt lat="41.5088786" lon="0.8793936"><ele>324.5</ele><time>2026-05-04T14:32:44.888Z</time></trkpt><trkpt lat="41.5088685" lon="0.8795774"><ele>325.0</ele><time>2026-05-04T14:32:45.887Z</time></trkpt><trkpt lat="41.5088596" lon="0.8797613"><ele>325.5</ele><time>2026-05-04T14:32:46.888Z</time></trkpt><trkpt lat="41.5088447" lon="0.8799444"><ele>326.0</ele><time>2026-05-04T14:32:47.887Z</time></trkpt><trkpt lat="41.5088292" lon="0.8801294"><ele>326.75</ele><time>2026-05-04T14:32:48.888Z</time></trkpt><trkpt lat="41.5088193" lon="0.8803125"><ele>327.5</ele><time>2026-05-04T14:32:49.888Z</time></trkpt><trkpt lat="41.5088089" lon="0.8805053"><ele>328.25</ele><time>2026-05-04T14:32:50.888Z</time></trkpt><trkpt lat="41.5087947" lon="0.8806926"><ele>329.0</ele><time>2026-05-04T14:32:51.888Z</time></trkpt><trkpt lat="41.5087787" lon="0.8808771"><ele>330.25</ele><time>2026-05-04T14:32:52.888Z</time></trkpt><trkpt lat="41.508765" lon="0.8810652"><ele>331.5</ele><time>2026-05-04T14:32:53.887Z</time></trkpt><trkpt lat="41.50875" lon="0.8812508"><ele>332.75</ele><time>2026-05-04T14:32:54.887Z</time></trkpt><trkpt lat="41.5087326" lon="0.8814404"><ele>334.0</ele><time>2026-05-04T14:32:55.888Z</time></trkpt><trkpt lat="41.5087167" lon="0.8816289"><ele>335.5</ele><time>2026-05-04T14:32:56.888Z</time></trkpt><trkpt lat="41.5086969" lon="0.8818194"><ele>337.0</ele><time>2026-05-04T14:32:57.888Z</time></trkpt><trkpt lat="41.5086742" lon="0.8820065"><ele>338.5</ele><time>2026-05-04T14:32:58.888Z</time></trkpt><trkpt lat="41.5086535" lon="0.8821936"><ele>340.0</ele><time>2026-05-04T14:32:59.888Z</time></trkpt><trkpt lat="41.5086308" lon="0.8823813"><ele>340.0</ele><time>2026-05-04T14:33:00.887Z</time></trkpt><trkpt lat="41.5086039" lon="0.8825675"><ele>340.0</ele><time>2026-05-04T14:33:01.888Z</time></trkpt><trkpt lat="41.508579" lon="0.882756"><ele>340.0</ele><time>2026-05-04T14:33:02.888Z</time></trkpt><trkpt lat="41.5085482" lon="0.8829459"><ele>340.0</ele><time>2026-05-04T14:33:03.888Z</time></trkpt><trkpt lat="41.5085168" lon="0.8831321"><ele>340.25</ele><time>2026-05-04T14:33:04.888Z</time></trkpt><trkpt lat="41.5084867" lon="0.8833163"><ele>340.5</ele><time>2026-05-04T14:33:05.888Z</time></trkpt><trkpt lat="41.5084536" lon="0.8835031"><ele>340.75</ele><time>2026-05-04T14:33:06.888Z</time></trkpt><trkpt lat="41.5084178" lon="0.8836844"><ele>341.0</ele><time>2026-05-04T14:33:07.888Z</time></trkpt><trkpt lat="41.5083842" lon="0.8838643"><ele>340.25</ele><time>2026-05-04T14:33:08.888Z</time></trkpt><trkpt lat="41.5083471" lon="0.8840346"><ele>339.5</ele><time>2026-05-04T14:33:09.888Z</time></trkpt><trkpt lat="41.5083075" lon="0.8842156"><ele>338.75</ele><time>2026-05-04T14:33:10.888Z</time></trkpt><trkpt lat="41.5082664" lon="0.8843924"><ele>338.0</ele><time>2026-05-04T14:33:11.888Z</time></trkpt><trkpt lat="41.5082265" lon="0.8845608"><ele>337.75</ele><time>2026-05-04T14:33:12.888Z</time></trkpt><trkpt lat="41.5081885" lon="0.8847303"><ele>337.5</ele><time>2026-05-04T14:33:13.888Z</time></trkpt><trkpt lat="41.5081427" lon="0.8849007"><ele>337.25</ele><time>2026-05-04T14:33:14.888Z</time></trkpt><trkpt lat="41.5080975" lon="0.885069"><ele>337.0</ele><time>2026-05-04T14:33:15.888Z</time></trkpt><trkpt lat="41.5080533" lon="0.8852358"><ele>337.0</ele><time>2026-05-04T14:33:16.887Z</time></trkpt><trkpt lat="41.508004" lon="0.8854064"><ele>337.0</ele><time>2026-05-04T14:33:17.888Z</time></trkpt><trkpt lat="41.5079573" lon="0.8855736"><ele>337.0</ele><time>2026-05-04T14:33:18.888Z</time></trkpt><trkpt lat="41.507912" lon="0.8857388"><ele>337.0</ele><time>2026-05-04T14:33:19.888Z</time></trkpt><trkpt lat="41.5078653" lon="0.8859011"><ele>336.75</ele><time>2026-05-04T14:33:20.888Z</time></trkpt><trkpt lat="41.5078171" lon="0.8860684"><ele>336.5</ele><time>2026-05-04T14:33:21.888Z</time></trkpt><trkpt lat="41.5077638" lon="0.8862322"><ele>336.25</ele><time>2026-05-04T14:33:22.888Z</time></trkpt><trkpt lat="41.5077132" lon="0.886401"><ele>336.0</ele><time>2026-05-04T14:33:23.888Z</time></trkpt><trkpt lat="41.5076577" lon="0.8865678"><ele>336.0</ele><time>2026-05-04T14:33:24.888Z</time></trkpt><trkpt lat="41.5076043" lon="0.8867349"><ele>336.0</ele><time>2026-05-04T14:33:25.888Z</time></trkpt><trkpt lat="41.5075469" lon="0.8868964"><ele>336.0</ele><time>2026-05-04T14:33:26.888Z</time></trkpt><trkpt lat="41.5074893" lon="0.887056"><ele>336.0</ele><time>2026-05-04T14:33:27.888Z</time></trkpt><trkpt lat="41.5074306" lon="0.8872188"><ele>335.5</ele><time>2026-05-04T14:33:28.888Z</time></trkpt><trkpt lat="41.5073699" lon="0.8873823"><ele>335.0</ele><time>2026-05-04T14:33:29.888Z</time></trkpt><trkpt lat="41.5073033" lon="0.8875425"><ele>334.5</ele><time>2026-05-04T14:33:30.888Z</time></trkpt><trkpt lat="41.5072363" lon="0.8877057"><ele>334.0</ele><time>2026-05-04T14:33:31.888Z</time></trkpt><trkpt lat="41.507169" lon="0.8878722"><ele>333.75</ele><time>2026-05-04T14:33:32.888Z</time></trkpt><trkpt lat="41.5071001" lon="0.8880387"><ele>333.5</ele><time>2026-05-04T14:33:33.888Z</time></trkpt><trkpt lat="41.5070311" lon="0.8882061"><ele>333.25</ele><time>2026-05-04T14:33:34.887Z</time></trkpt><trkpt lat="41.506959" lon="0.8883727"><ele>333.0</ele><time>2026-05-04T14:33:35.888Z</time></trkpt><trkpt lat="41.5068849" lon="0.8885402"><ele>332.25</ele><time>2026-05-04T14:33:36.888Z</time></trkpt><trkpt lat="41.5068097" lon="0.8887051"><ele>331.5</ele><time>2026-05-04T14:33:37.888Z</time></trkpt><trkpt lat="41.5067321" lon="0.8888743"><ele>330.75</ele><time>2026-05-04T14:33:38.887Z</time></trkpt><trkpt lat="41.5066488" lon="0.8890385"><ele>330.0</ele><time>2026-05-04T14:33:39.888Z</time></trkpt><trkpt lat="41.5065662" lon="0.8892022"><ele>329.75</ele><time>2026-05-04T14:33:40.888Z</time></trkpt><trkpt lat="41.5064867" lon="0.8893598"><ele>329.5</ele><time>2026-05-04T14:33:41.888Z</time></trkpt><trkpt lat="41.5064044" lon="0.8895182"><ele>329.25</ele><time>2026-05-04T14:33:42.888Z</time></trkpt><trkpt lat="41.50632" lon="0.8896753"><ele>329.0</ele><time>2026-05-04T14:33:43.888Z</time></trkpt><trkpt lat="41.5062376" lon="0.889826"><ele>329.25</ele><time>2026-05-04T14:33:44.888Z</time></trkpt><trkpt lat="41.5061514" lon="0.8899763"><ele>329.5</ele><time>2026-05-04T14:33:45.888Z</time></trkpt><trkpt lat="41.5060719" lon="0.8901145"><ele>329.75</ele><time>2026-05-04T14:33:46.887Z</time></trkpt><trkpt lat="41.5059889" lon="0.8902564"><ele>330.0</ele><time>2026-05-04T14:33:47.888Z</time></trkpt><trkpt lat="41.5059056" lon="0.8904038"><ele>330.0</ele><time>2026-05-04T14:33:48.888Z</time></trkpt><trkpt lat="41.5058174" lon="0.8905526"><ele>330.0</ele><time>2026-05-04T14:33:49.887Z</time></trkpt><trkpt lat="41.5057259" lon="0.8906987"><ele>330.0</ele><time>2026-05-04T14:33:50.888Z</time></trkpt><trkpt lat="41.5056307" lon="0.8908392"><ele>330.0</ele><time>2026-05-04T14:33:51.888Z</time></trkpt><trkpt lat="41.5055357" lon="0.8909757"><ele>330.0</ele><time>2026-05-04T14:33:52.888Z</time></trkpt><trkpt lat="41.5054364" lon="0.8911075"><ele>330.0</ele><time>2026-05-04T14:33:53.887Z</time></trkpt><trkpt lat="41.5053335" lon="0.8912395"><ele>330.0</ele><time>2026-05-04T14:33:54.888Z</time></trkpt><trkpt lat="41.5052281" lon="0.8913667"><ele>330.0</ele><time>2026-05-04T14:33:55.888Z</time></trkpt><trkpt lat="41.5051175" lon="0.8914888"><ele>330.0</ele><time>2026-05-04T14:33:56.888Z</time></trkpt><trkpt lat="41.5050078" lon="0.8916094"><ele>330.0</ele><time>2026-05-04T14:33:57.888Z</time></trkpt><trkpt lat="41.5048898" lon="0.8917251"><ele>330.0</ele><time>2026-05-04T14:33:58.888Z</time></trkpt><trkpt lat="41.504775" lon="0.8918382"><ele>330.0</ele><time>2026-05-04T14:33:59.888Z</time></trkpt><trkpt lat="41.50466" lon="0.8919519"><ele>331.0</ele><time>2026-05-04T14:34:00.888Z</time></trkpt><trkpt lat="41.5045456" lon="0.8920627"><ele>332.0</ele><time>2026-05-04T14:34:01.888Z</time></trkpt><trkpt lat="41.5044334" lon="0.8921742"><ele>333.0</ele><time>2026-05-04T14:34:02.888Z</time></trkpt><trkpt lat="41.504321" lon="0.8922866"><ele>334.0</ele><time>2026-05-04T14:34:03.888Z</time></trkpt><trkpt lat="41.504204" lon="0.8923978"><ele>334.0</ele><time>2026-05-04T14:34:04.887Z</time></trkpt><trkpt lat="41.5040927" lon="0.892508"><ele>334.0</ele><time>2026-05-04T14:34:05.888Z</time></trkpt><trkpt lat="41.5039788" lon="0.8926197"><ele>334.0</ele><time>2026-05-04T14:34:06.888Z</time></trkpt><trkpt lat="41.5038683" lon="0.89273"><ele>334.0</ele><time>2026-05-04T14:34:07.888Z</time></trkpt><trkpt lat="41.5037558" lon="0.8928433"><ele>334.75</ele><time>2026-05-04T14:34:08.887Z</time></trkpt><trkpt lat="41.5036459" lon="0.892967"><ele>335.5</ele><time>2026-05-04T14:34:09.888Z</time></trkpt><trkpt lat="41.5035391" lon="0.8930868"><ele>336.25</ele><time>2026-05-04T14:34:10.887Z</time></trkpt><trkpt lat="41.5034332" lon="0.8932075"><ele>337.0</ele><time>2026-05-04T14:34:11.888Z</time></trkpt><trkpt lat="41.5033334" lon="0.8933307"><ele>336.5</ele><time>2026-05-04T14:34:12.888Z</time></trkpt><trkpt lat="41.5032368" lon="0.8934499"><ele>336.0</ele><time>2026-05-04T14:34:13.888Z</time></trkpt><trkpt lat="41.5031449" lon="0.8935674"><ele>335.5</ele><time>2026-05-04T14:34:14.888Z</time></trkpt><trkpt lat="41.5030492" lon="0.8936898"><ele>335.0</ele><time>2026-05-04T14:34:15.887Z</time></trkpt><trkpt lat="41.5029508" lon="0.8938192"><ele>335.5</ele><time>2026-05-04T14:34:16.888Z</time></trkpt><trkpt lat="41.5028558" lon="0.8939502"><ele>336.0</ele><time>2026-05-04T14:34:17.888Z</time></trkpt><trkpt lat="41.5027625" lon="0.8940808"><ele>336.5</ele><time>2026-05-04T14:34:18.888Z</time></trkpt><trkpt lat="41.5026685" lon="0.8942141"><ele>337.0</ele><time>2026-05-04T14:34:19.888Z</time></trkpt><trkpt lat="41.5025781" lon="0.8943427"><ele>337.0</ele><time>2026-05-04T14:34:20.888Z</time></trkpt><trkpt lat="41.5024855" lon="0.89447"><ele>337.0</ele><time>2026-05-04T14:34:21.888Z</time></trkpt><trkpt lat="41.5023925" lon="0.8945984"><ele>337.0</ele><time>2026-05-04T14:34:22.888Z</time></trkpt><trkpt lat="41.5023046" lon="0.8947252"><ele>337.0</ele><time>2026-05-04T14:34:23.888Z</time></trkpt><trkpt lat="41.5022152" lon="0.894848"><ele>337.0</ele><time>2026-05-04T14:34:24.888Z</time></trkpt><trkpt lat="41.5021286" lon="0.8949721"><ele>337.0</ele><time>2026-05-04T14:34:25.888Z</time></trkpt><trkpt lat="41.5020395" lon="0.8950996"><ele>337.0</ele><time>2026-05-04T14:34:26.888Z</time></trkpt><trkpt lat="41.5019521" lon="0.895225"><ele>337.0</ele><time>2026-05-04T14:34:27.887Z</time></trkpt><trkpt lat="41.5018619" lon="0.8953468"><ele>337.5</ele><time>2026-05-04T14:34:28.888Z</time></trkpt><trkpt lat="41.5017766" lon="0.8954746"><ele>338.0</ele><time>2026-05-04T14:34:29.888Z</time></trkpt><trkpt lat="41.5016837" lon="0.8956001"><ele>338.5</ele><time>2026-05-04T14:34:30.888Z</time></trkpt><trkpt lat="41.5015926" lon="0.8957281"><ele>339.0</ele><time>2026-05-04T14:34:31.888Z</time></trkpt><trkpt lat="41.5014984" lon="0.8958505"><ele>340.25</ele><time>2026-05-04T14:34:32.888Z</time></trkpt><trkpt lat="41.5014045" lon="0.8959755"><ele>341.5</ele><time>2026-05-04T14:34:33.888Z</time></trkpt><trkpt lat="41.5013046" lon="0.896095"><ele>342.75</ele><time>2026-05-04T14:34:34.887Z</time></trkpt><trkpt lat="41.5011987" lon="0.8962124"><ele>344.0</ele><time>2026-05-04T14:34:35.888Z</time></trkpt><trkpt lat="41.5010886" lon="0.8963124"><ele>344.25</ele><time>2026-05-04T14:34:36.888Z</time></trkpt><trkpt lat="41.5009748" lon="0.8964115"><ele>344.5</ele><time>2026-05-04T14:34:37.888Z</time></trkpt><trkpt lat="41.5008591" lon="0.8965113"><ele>344.75</ele><time>2026-05-04T14:34:38.888Z</time></trkpt><trkpt lat="41.5007479" lon="0.8966025"><ele>345.0</ele><time>2026-05-04T14:34:39.887Z</time></trkpt><trkpt lat="41.500636" lon="0.8966921"><ele>345.5</ele><time>2026-05-04T14:34:40.888Z</time></trkpt><trkpt lat="41.5005227" lon="0.8967786"><ele>346.0</ele><time>2026-05-04T14:34:41.888Z</time></trkpt><trkpt lat="41.5004117" lon="0.8968673"><ele>346.5</ele><time>2026-05-04T14:34:42.888Z</time></trkpt><trkpt lat="41.5002982" lon="0.89695"><ele>347.0</ele><time>2026-05-04T14:34:43.888Z</time></trkpt><trkpt lat="41.5001869" lon="0.8970358"><ele>347.0</ele><time>2026-05-04T14:34:44.887Z</time></trkpt><trkpt lat="41.5000745" lon="0.8971209"><ele>347.0</ele><time>2026-05-04T14:34:45.888Z</time></trkpt><trkpt lat="41.499964" lon="0.8971984"><ele>347.0</ele><time>2026-05-04T14:34:46.888Z</time></trkpt><trkpt lat="41.4998524" lon="0.8972805"><ele>347.0</ele><time>2026-05-04T14:34:47.888Z</time></trkpt><trkpt lat="41.4997472" lon="0.897365"><ele>347.0</ele><time>2026-05-04T14:34:48.887Z</time></trkpt><trkpt lat="41.4996398" lon="0.8974463"><ele>347.0</ele><time>2026-05-04T14:34:49.888Z</time></trkpt><trkpt lat="41.499531" lon="0.8975285"><ele>347.0</ele><time>2026-05-04T14:34:50.887Z</time></trkpt><trkpt lat="41.4994195" lon="0.8976102"><ele>347.0</ele><time>2026-05-04T14:34:51.888Z</time></trkpt><trkpt lat="41.4993091" lon="0.8976954"><ele>348.25</ele><time>2026-05-04T14:34:52.888Z</time></trkpt><trkpt lat="41.4991965" lon="0.897781"><ele>349.5</ele><time>2026-05-04T14:34:53.888Z</time></trkpt><trkpt lat="41.4990847" lon="0.8978633"><ele>350.75</ele><time>2026-05-04T14:34:54.887Z</time></trkpt><trkpt lat="41.4989715" lon="0.8979452"><ele>352.0</ele><time>2026-05-04T14:34:55.887Z</time></trkpt><trkpt lat="41.4988598" lon="0.8980286"><ele>352.0</ele><time>2026-05-04T14:34:56.888Z</time></trkpt><trkpt lat="41.4987515" lon="0.8981144"><ele>352.0</ele><time>2026-05-04T14:34:57.888Z</time></trkpt><trkpt lat="41.4986428" lon="0.8981992"><ele>352.0</ele><time>2026-05-04T14:34:58.889Z</time></trkpt><trkpt lat="41.4985346" lon="0.8982817"><ele>352.0</ele><time>2026-05-04T14:34:59.889Z</time></trkpt><trkpt lat="41.4984206" lon="0.8983645"><ele>353.0</ele><time>2026-05-04T14:35:00.889Z</time></trkpt><trkpt lat="41.4983092" lon="0.8984448"><ele>354.0</ele><time>2026-05-04T14:35:01.889Z</time></trkpt><trkpt lat="41.498201" lon="0.8985238"><ele>355.0</ele><time>2026-05-04T14:35:02.889Z</time></trkpt><trkpt lat="41.49809" lon="0.8986051"><ele>356.0</ele><time>2026-05-04T14:35:03.889Z</time></trkpt><trkpt lat="41.4979813" lon="0.8986866"><ele>357.0</ele><time>2026-05-04T14:35:04.889Z</time></trkpt><trkpt lat="41.4978685" lon="0.8987647"><ele>358.0</ele><time>2026-05-04T14:35:05.889Z</time></trkpt><trkpt lat="41.4977592" lon="0.8988492"><ele>359.0</ele><time>2026-05-04T14:35:06.889Z</time></trkpt><trkpt lat="41.4976502" lon="0.8989331"><ele>360.0</ele><time>2026-05-04T14:35:07.889Z</time></trkpt><trkpt lat="41.4975435" lon="0.8990156"><ele>360.0</ele><time>2026-05-04T14:35:08.889Z</time></trkpt><trkpt lat="41.4974275" lon="0.8990939"><ele>360.0</ele><time>2026-05-04T14:35:09.889Z</time></trkpt><trkpt lat="41.4973166" lon="0.8991696"><ele>360.0</ele><time>2026-05-04T14:35:10.889Z</time></trkpt><trkpt lat="41.4972034" lon="0.899245"><ele>360.0</ele><time>2026-05-04T14:35:11.889Z</time></trkpt><trkpt lat="41.497089" lon="0.8993173"><ele>359.75</ele><time>2026-05-04T14:35:12.889Z</time></trkpt><trkpt lat="41.4969712" lon="0.8993868"><ele>359.5</ele><time>2026-05-04T14:35:13.889Z</time></trkpt><trkpt lat="41.496849" lon="0.8994554"><ele>359.25</ele><time>2026-05-04T14:35:14.889Z</time></trkpt><trkpt lat="41.4967249" lon="0.8995203"><ele>359.0</ele><time>2026-05-04T14:35:15.889Z</time></trkpt><trkpt lat="41.4966007" lon="0.8995793"><ele>359.0</ele><time>2026-05-04T14:35:16.889Z</time></trkpt><trkpt lat="41.4964731" lon="0.8996467"><ele>359.0</ele><time>2026-05-04T14:35:17.888Z</time></trkpt><trkpt lat="41.4963453" lon="0.8997141"><ele>359.0</ele><time>2026-05-04T14:35:18.889Z</time></trkpt><trkpt lat="41.4962142" lon="0.8997832"><ele>359.0</ele><time>2026-05-04T14:35:19.889Z</time></trkpt><trkpt lat="41.4960857" lon="0.8998511"><ele>359.25</ele><time>2026-05-04T14:35:20.889Z</time></trkpt><trkpt lat="41.4959559" lon="0.8999167"><ele>359.5</ele><time>2026-05-04T14:35:21.889Z</time></trkpt><trkpt lat="41.4958266" lon="0.8999802"><ele>359.75</ele><time>2026-05-04T14:35:22.889Z</time></trkpt><trkpt lat="41.4956938" lon="0.9000455"><ele>360.0</ele><time>2026-05-04T14:35:23.889Z</time></trkpt><trkpt lat="41.495563" lon="0.9001117"><ele>360.0</ele><time>2026-05-04T14:35:24.889Z</time></trkpt><trkpt lat="41.4954286" lon="0.9001777"><ele>360.0</ele><time>2026-05-04T14:35:25.889Z</time></trkpt><trkpt lat="41.4952939" lon="0.9002485"><ele>360.0</ele><time>2026-05-04T14:35:26.889Z</time></trkpt><trkpt lat="41.495159" lon="0.9003184"><ele>360.0</ele><time>2026-05-04T14:35:27.889Z</time></trkpt><trkpt lat="41.4950233" lon="0.900389"><ele>360.75</ele><time>2026-05-04T14:35:28.889Z</time></trkpt><trkpt lat="41.4948919" lon="0.9004572"><ele>361.5</ele><time>2026-05-04T14:35:29.888Z</time></trkpt><trkpt lat="41.4947554" lon="0.9005238"><ele>362.25</ele><time>2026-05-04T14:35:30.889Z</time></trkpt><trkpt lat="41.494625" lon="0.9005984"><ele>363.0</ele><time>2026-05-04T14:35:31.889Z</time></trkpt><trkpt lat="41.4944926" lon="0.90068"><ele>362.75</ele><time>2026-05-04T14:35:32.889Z</time></trkpt><trkpt lat="41.4943691" lon="0.9007689"><ele>362.5</ele><time>2026-05-04T14:35:33.889Z</time></trkpt><trkpt lat="41.4942428" lon="0.9008657"><ele>362.25</ele><time>2026-05-04T14:35:34.889Z</time></trkpt><trkpt lat="41.4941196" lon="0.9009734"><ele>362.0</ele><time>2026-05-04T14:35:35.889Z</time></trkpt><trkpt lat="41.4940012" lon="0.9010884"><ele>362.0</ele><time>2026-05-04T14:35:36.889Z</time></trkpt><trkpt lat="41.4938888" lon="0.9012111"><ele>362.0</ele><time>2026-05-04T14:35:37.889Z</time></trkpt><trkpt lat="41.4937816" lon="0.9013372"><ele>362.0</ele><time>2026-05-04T14:35:38.889Z</time></trkpt><trkpt lat="41.493676" lon="0.9014587"><ele>362.0</ele><time>2026-05-04T14:35:39.889Z</time></trkpt><trkpt lat="41.4935688" lon="0.9015859"><ele>362.5</ele><time>2026-05-04T14:35:40.889Z</time></trkpt><trkpt lat="41.4934609" lon="0.9016995"><ele>363.0</ele><time>2026-05-04T14:35:41.888Z</time></trkpt><trkpt lat="41.4933583" lon="0.9018189"><ele>363.5</ele><time>2026-05-04T14:35:42.888Z</time></trkpt><trkpt lat="41.4932585" lon="0.9019443"><ele>364.0</ele><time>2026-05-04T14:35:43.889Z</time></trkpt><trkpt lat="41.4931573" lon="0.9020655"><ele>364.5</ele><time>2026-05-04T14:35:44.888Z</time></trkpt><trkpt lat="41.4930552" lon="0.9021851"><ele>365.0</ele><time>2026-05-04T14:35:45.889Z</time></trkpt><trkpt lat="41.4929588" lon="0.9022996"><ele>365.5</ele><time>2026-05-04T14:35:46.889Z</time></trkpt><trkpt lat="41.4928667" lon="0.9024148"><ele>366.0</ele><time>2026-05-04T14:35:47.889Z</time></trkpt><trkpt lat="41.4927704" lon="0.9025212"><ele>366.25</ele><time>2026-05-04T14:35:48.889Z</time></trkpt><trkpt lat="41.4926783" lon="0.9026289"><ele>366.5</ele><time>2026-05-04T14:35:49.889Z</time></trkpt><trkpt lat="41.4925863" lon="0.902742"><ele>366.75</ele><time>2026-05-04T14:35:50.889Z</time></trkpt><trkpt lat="41.4924918" lon="0.9028532"><ele>367.0</ele><time>2026-05-04T14:35:51.889Z</time></trkpt><trkpt lat="41.4923951" lon="0.9029622"><ele>367.0</ele><time>2026-05-04T14:35:52.889Z</time></trkpt><trkpt lat="41.4923009" lon="0.9030743"><ele>367.0</ele><time>2026-05-04T14:35:53.889Z</time></trkpt><trkpt lat="41.4922024" lon="0.9031866"><ele>367.0</ele><time>2026-05-04T14:35:54.889Z</time></trkpt><trkpt lat="41.4921022" lon="0.9033036"><ele>367.0</ele><time>2026-05-04T14:35:55.889Z</time></trkpt><trkpt lat="41.4920046" lon="0.90342"><ele>368.25</ele><time>2026-05-04T14:35:56.889Z</time></trkpt><trkpt lat="41.4919016" lon="0.9035372"><ele>369.5</ele><time>2026-05-04T14:35:57.888Z</time></trkpt><trkpt lat="41.4917978" lon="0.903648"><ele>370.75</ele><time>2026-05-04T14:35:58.888Z</time></trkpt><trkpt lat="41.491691" lon="0.9037547"><ele>372.0</ele><time>2026-05-04T14:35:59.889Z</time></trkpt><trkpt lat="41.4915788" lon="0.9038609"><ele>372.0</ele><time>2026-05-04T14:36:00.888Z</time></trkpt><trkpt lat="41.4914609" lon="0.9039613"><ele>372.0</ele><time>2026-05-04T14:36:01.889Z</time></trkpt><trkpt lat="41.4913434" lon="0.9040521"><ele>372.0</ele><time>2026-05-04T14:36:02.889Z</time></trkpt><trkpt lat="41.4912219" lon="0.9041422"><ele>372.0</ele><time>2026-05-04T14:36:03.889Z</time></trkpt><trkpt lat="41.4911034" lon="0.9042281"><ele>372.0</ele><time>2026-05-04T14:36:04.889Z</time></trkpt><trkpt lat="41.4909833" lon="0.9043117"><ele>372.0</ele><time>2026-05-04T14:36:05.889Z</time></trkpt><trkpt lat="41.4908633" lon="0.9043989"><ele>372.0</ele><time>2026-05-04T14:36:06.889Z</time></trkpt><trkpt lat="41.4907418" lon="0.9044864"><ele>372.0</ele><time>2026-05-04T14:36:07.889Z</time></trkpt><trkpt lat="41.4906239" lon="0.9045683"><ele>372.0</ele><time>2026-05-04T14:36:08.889Z</time></trkpt><trkpt lat="41.4905023" lon="0.9046456"><ele>372.0</ele><time>2026-05-04T14:36:09.889Z</time></trkpt><trkpt lat="41.4903786" lon="0.9047273"><ele>372.0</ele><time>2026-05-04T14:36:10.889Z</time></trkpt><trkpt lat="41.4902595" lon="0.9048108"><ele>372.0</ele><time>2026-05-04T14:36:11.889Z</time></trkpt><trkpt lat="41.4901353" lon="0.9048896"><ele>373.75</ele><time>2026-05-04T14:36:12.889Z</time></trkpt><trkpt lat="41.490013" lon="0.9049718"><ele>375.5</ele><time>2026-05-04T14:36:13.889Z</time></trkpt><trkpt lat="41.4898923" lon="0.9050456"><ele>377.25</ele><time>2026-05-04T14:36:14.889Z</time></trkpt><trkpt lat="41.4897771" lon="0.9051209"><ele>379.0</ele><time>2026-05-04T14:36:15.889Z</time></trkpt><trkpt lat="41.4896613" lon="0.9051981"><ele>379.75</ele><time>2026-05-04T14:36:16.889Z</time></trkpt><trkpt lat="41.4895487" lon="0.9052735"><ele>380.5</ele><time>2026-05-04T14:36:17.889Z</time></trkpt><trkpt lat="41.4894329" lon="0.9053525"><ele>381.25</ele><time>2026-05-04T14:36:18.889Z</time></trkpt><trkpt lat="41.4893191" lon="0.9054304"><ele>382.0</ele><time>2026-05-04T14:36:19.889Z</time></trkpt><trkpt lat="41.489203" lon="0.9055094"><ele>382.0</ele><time>2026-05-04T14:36:20.889Z</time></trkpt><trkpt lat="41.4890866" lon="0.9055829"><ele>382.0</ele><time>2026-05-04T14:36:21.888Z</time></trkpt><trkpt lat="41.4889719" lon="0.9056515"><ele>382.0</ele><time>2026-05-04T14:36:22.889Z</time></trkpt><trkpt lat="41.488858" lon="0.9057229"><ele>382.0</ele><time>2026-05-04T14:36:23.889Z</time></trkpt><trkpt lat="41.4887431" lon="0.9058021"><ele>382.25</ele><time>2026-05-04T14:36:24.889Z</time></trkpt><trkpt lat="41.4886286" lon="0.9058797"><ele>382.5</ele><time>2026-05-04T14:36:25.889Z</time></trkpt><trkpt lat="41.4885162" lon="0.9059597"><ele>382.75</ele><time>2026-05-04T14:36:26.889Z</time></trkpt><trkpt lat="41.4884018" lon="0.9060381"><ele>383.0</ele><time>2026-05-04T14:36:27.889Z</time></trkpt><trkpt lat="41.4882842" lon="0.9061184"><ele>383.0</ele><time>2026-05-04T14:36:28.888Z</time></trkpt><trkpt lat="41.4881661" lon="0.9061981"><ele>383.0</ele><time>2026-05-04T14:36:29.889Z</time></trkpt><trkpt lat="41.4880442" lon="0.9062781"><ele>383.0</ele><time>2026-05-04T14:36:30.889Z</time></trkpt><trkpt lat="41.4879207" lon="0.9063585"><ele>383.0</ele><time>2026-05-04T14:36:31.889Z</time></trkpt><trkpt lat="41.4877979" lon="0.9064439"><ele>383.0</ele><time>2026-05-04T14:36:32.889Z</time></trkpt><trkpt lat="41.4876704" lon="0.906526"><ele>383.0</ele><time>2026-05-04T14:36:33.889Z</time></trkpt><trkpt lat="41.487545" lon="0.906605"><ele>383.0</ele><time>2026-05-04T14:36:34.889Z</time></trkpt><trkpt lat="41.4874213" lon="0.9066887"><ele>383.0</ele><time>2026-05-04T14:36:35.888Z</time></trkpt><trkpt lat="41.4872924" lon="0.9067712"><ele>382.5</ele><time>2026-05-04T14:36:36.889Z</time></trkpt><trkpt lat="41.487166" lon="0.9068609"><ele>382.0</ele><time>2026-05-04T14:36:37.889Z</time></trkpt><trkpt lat="41.4870326" lon="0.9069517"><ele>381.5</ele><time>2026-05-04T14:36:38.889Z</time></trkpt><trkpt lat="41.4869003" lon="0.9070412"><ele>381.0</ele><time>2026-05-04T14:36:39.889Z</time></trkpt><trkpt lat="41.4867625" lon="0.9071345"><ele>381.0</ele><time>2026-05-04T14:36:40.889Z</time></trkpt><trkpt lat="41.4866244" lon="0.9072276"><ele>381.0</ele><time>2026-05-04T14:36:41.888Z</time></trkpt><trkpt lat="41.4864908" lon="0.9073196"><ele>381.0</ele><time>2026-05-04T14:36:42.889Z</time></trkpt><trkpt lat="41.4863598" lon="0.9074045"><ele>381.0</ele><time>2026-05-04T14:36:43.889Z</time></trkpt><trkpt lat="41.4862303" lon="0.9074882"><ele>381.0</ele><time>2026-05-04T14:36:44.889Z</time></trkpt><trkpt lat="41.486109" lon="0.907574"><ele>381.0</ele><time>2026-05-04T14:36:45.888Z</time></trkpt><trkpt lat="41.4859867" lon="0.9076518"><ele>381.0</ele><time>2026-05-04T14:36:46.888Z</time></trkpt><trkpt lat="41.4858643" lon="0.9077337"><ele>381.0</ele><time>2026-05-04T14:36:47.889Z</time></trkpt><trkpt lat="41.4857372" lon="0.9078141"><ele>381.0</ele><time>2026-05-04T14:36:48.889Z</time></trkpt><trkpt lat="41.485618" lon="0.9078951"><ele>381.0</ele><time>2026-05-04T14:36:49.889Z</time></trkpt><trkpt lat="41.4854972" lon="0.9079681"><ele>381.0</ele><time>2026-05-04T14:36:50.888Z</time></trkpt><trkpt lat="41.4853769" lon="0.9080489"><ele>382.0</ele><time>2026-05-04T14:36:51.889Z</time></trkpt><trkpt lat="41.4852563" lon="0.908133"><ele>383.0</ele><time>2026-05-04T14:36:52.889Z</time></trkpt><trkpt lat="41.4851353" lon="0.9082131"><ele>384.0</ele><time>2026-05-04T14:36:53.889Z</time></trkpt><trkpt lat="41.4850243" lon="0.9082897"><ele>385.0</ele><time>2026-05-04T14:36:54.889Z</time></trkpt><trkpt lat="41.4849142" lon="0.9083582"><ele>385.25</ele><time>2026-05-04T14:36:55.889Z</time></trkpt><trkpt lat="41.4848063" lon="0.9084326"><ele>385.5</ele><time>2026-05-04T14:36:56.889Z</time></trkpt><trkpt lat="41.4846955" lon="0.9085056"><ele>385.75</ele><time>2026-05-04T14:36:57.889Z</time></trkpt><trkpt lat="41.4845849" lon="0.9085735"><ele>386.0</ele><time>2026-05-04T14:36:58.889Z</time></trkpt><trkpt lat="41.4844752" lon="0.9086412"><ele>386.75</ele><time>2026-05-04T14:36:59.889Z</time></trkpt><trkpt lat="41.4843683" lon="0.9087084"><ele>387.5</ele><time>2026-05-04T14:37:00.888Z</time></trkpt><trkpt lat="41.4842614" lon="0.9087774"><ele>388.25</ele><time>2026-05-04T14:37:01.889Z</time></trkpt><trkpt lat="41.4841531" lon="0.9088562"><ele>389.0</ele><time>2026-05-04T14:37:02.889Z</time></trkpt><trkpt lat="41.4840431" lon="0.9089301"><ele>389.0</ele><time>2026-05-04T14:37:03.889Z</time></trkpt><trkpt lat="41.4839329" lon="0.9090053"><ele>389.0</ele><time>2026-05-04T14:37:04.888Z</time></trkpt><trkpt lat="41.4838215" lon="0.9090698"><ele>389.0</ele><time>2026-05-04T14:37:05.889Z</time></trkpt><trkpt lat="41.4837144" lon="0.9091428"><ele>389.0</ele><time>2026-05-04T14:37:06.889Z</time></trkpt><trkpt lat="41.4836082" lon="0.9092212"><ele>390.0</ele><time>2026-05-04T14:37:07.888Z</time></trkpt><trkpt lat="41.4834973" lon="0.9092947"><ele>391.0</ele><time>2026-05-04T14:37:08.889Z</time></trkpt><trkpt lat="41.4833853" lon="0.9093681"><ele>392.0</ele><time>2026-05-04T14:37:09.889Z</time></trkpt><trkpt lat="41.4832747" lon="0.9094432"><ele>393.0</ele><time>2026-05-04T14:37:10.889Z</time></trkpt><trkpt lat="41.4831606" lon="0.9095161"><ele>393.0</ele><time>2026-05-04T14:37:11.889Z</time></trkpt><trkpt lat="41.4830462" lon="0.9095933"><ele>393.0</ele><time>2026-05-04T14:37:12.889Z</time></trkpt><trkpt lat="41.4829261" lon="0.9096741"><ele>393.0</ele><time>2026-05-04T14:37:13.889Z</time></trkpt><trkpt lat="41.4828065" lon="0.9097565"><ele>393.0</ele><time>2026-05-04T14:37:14.889Z</time></trkpt><trkpt lat="41.4826877" lon="0.9098387"><ele>393.75</ele><time>2026-05-04T14:37:15.889Z</time></trkpt><trkpt lat="41.4825637" lon="0.9099249"><ele>394.5</ele><time>2026-05-04T14:37:16.888Z</time></trkpt><trkpt lat="41.4824427" lon="0.910005"><ele>395.25</ele><time>2026-05-04T14:37:17.889Z</time></trkpt><trkpt lat="41.4823218" lon="0.9100896"><ele>396.0</ele><time>2026-05-04T14:37:18.889Z</time></trkpt><trkpt lat="41.4821991" lon="0.9101678"><ele>396.75</ele><time>2026-05-04T14:37:19.889Z</time></trkpt><trkpt lat="41.4820702" lon="0.9102464"><ele>397.5</ele><time>2026-05-04T14:37:20.889Z</time></trkpt><trkpt lat="41.4819444" lon="0.9103245"><ele>398.25</ele><time>2026-05-04T14:37:21.889Z</time></trkpt><trkpt lat="41.4818171" lon="0.9104034"><ele>399.0</ele><time>2026-05-04T14:37:22.888Z</time></trkpt><trkpt lat="41.4816959" lon="0.9104847"><ele>399.0</ele><time>2026-05-04T14:37:23.889Z</time></trkpt><trkpt lat="41.4815768" lon="0.9105665"><ele>399.0</ele><time>2026-05-04T14:37:24.889Z</time></trkpt><trkpt lat="41.4814604" lon="0.9106449"><ele>399.0</ele><time>2026-05-04T14:37:25.889Z</time></trkpt><trkpt lat="41.4813425" lon="0.9107243"><ele>399.0</ele><time>2026-05-04T14:37:26.889Z</time></trkpt><trkpt lat="41.4812219" lon="0.9108026"><ele>399.5</ele><time>2026-05-04T14:37:27.889Z</time></trkpt><trkpt lat="41.4810988" lon="0.9108841"><ele>400.0</ele><time>2026-05-04T14:37:28.889Z</time></trkpt><trkpt lat="41.480975" lon="0.9109623"><ele>400.5</ele><time>2026-05-04T14:37:29.889Z</time></trkpt><trkpt lat="41.4808567" lon="0.9110458"><ele>401.0</ele><time>2026-05-04T14:37:30.889Z</time></trkpt><trkpt lat="41.4807298" lon="0.911127"><ele>401.0</ele><time>2026-05-04T14:37:31.889Z</time></trkpt><trkpt lat="41.4806091" lon="0.9112036"><ele>401.0</ele><time>2026-05-04T14:37:32.889Z</time></trkpt><trkpt lat="41.480493" lon="0.9112873"><ele>401.0</ele><time>2026-05-04T14:37:33.888Z</time></trkpt><trkpt lat="41.4803805" lon="0.9113636"><ele>401.0</ele><time>2026-05-04T14:37:34.889Z</time></trkpt><trkpt lat="41.4802664" lon="0.9114419"><ele>401.25</ele><time>2026-05-04T14:37:35.89Z</time></trkpt><trkpt lat="41.4801522" lon="0.9115208"><ele>401.5</ele><time>2026-05-04T14:37:36.89Z</time></trkpt><trkpt lat="41.480037" lon="0.9115939"><ele>401.75</ele><time>2026-05-04T14:37:37.89Z</time></trkpt><trkpt lat="41.4799241" lon="0.9116647"><ele>402.0</ele><time>2026-05-04T14:37:38.89Z</time></trkpt><trkpt lat="41.47981" lon="0.9117408"><ele>402.25</ele><time>2026-05-04T14:37:39.89Z</time></trkpt><trkpt lat="41.4796934" lon="0.9118161"><ele>402.5</ele><time>2026-05-04T14:37:40.889Z</time></trkpt><trkpt lat="41.4795775" lon="0.9118958"><ele>402.75</ele><time>2026-05-04T14:37:41.89Z</time></trkpt><trkpt lat="41.4794604" lon="0.9119763"><ele>403.0</ele><time>2026-05-04T14:37:42.89Z</time></trkpt><trkpt lat="41.479346" lon="0.9120584"><ele>403.5</ele><time>2026-05-04T14:37:43.889Z</time></trkpt><trkpt lat="41.4792278" lon="0.9121369"><ele>404.0</ele><time>2026-05-04T14:37:44.89Z</time></trkpt><trkpt lat="41.4791114" lon="0.9122119"><ele>404.5</ele><time>2026-05-04T14:37:45.89Z</time></trkpt><trkpt lat="41.4789949" lon="0.9122914"><ele>405.0</ele><time>2026-05-04T14:37:46.889Z</time></trkpt><trkpt lat="41.4788763" lon="0.9123675"><ele>406.0</ele><time>2026-05-04T14:37:47.89Z</time></trkpt><trkpt lat="41.4787603" lon="0.9124469"><ele>407.0</ele><time>2026-05-04T14:37:48.89Z</time></trkpt><trkpt lat="41.4786418" lon="0.9125254"><ele>408.0</ele><time>2026-05-04T14:37:49.889Z</time></trkpt><trkpt lat="41.478521" lon="0.9126054"><ele>409.0</ele><time>2026-05-04T14:37:50.89Z</time></trkpt><trkpt lat="41.4783995" lon="0.9126801"><ele>409.25</ele><time>2026-05-04T14:37:51.89Z</time></trkpt><trkpt lat="41.478279" lon="0.9127566"><ele>409.5</ele><time>2026-05-04T14:37:52.89Z</time></trkpt><trkpt lat="41.4781593" lon="0.9128328"><ele>409.75</ele><time>2026-05-04T14:37:53.89Z</time></trkpt><trkpt lat="41.4780405" lon="0.9129169"><ele>410.0</ele><time>2026-05-04T14:37:54.89Z</time></trkpt><trkpt lat="41.4779222" lon="0.9129955"><ele>410.75</ele><time>2026-05-04T14:37:55.889Z</time></trkpt><trkpt lat="41.477802" lon="0.9130774"><ele>411.5</ele><time>2026-05-04T14:37:56.89Z</time></trkpt><trkpt lat="41.4776849" lon="0.9131645"><ele>412.25</ele><time>2026-05-04T14:37:57.89Z</time></trkpt><trkpt lat="41.4775732" lon="0.9132597"><ele>413.0</ele><time>2026-05-04T14:37:58.889Z</time></trkpt><trkpt lat="41.4774632" lon="0.9133612"><ele>413.0</ele><time>2026-05-04T14:37:59.889Z</time></trkpt><trkpt lat="41.4773603" lon="0.9134653"><ele>413.0</ele><time>2026-05-04T14:38:00.89Z</time></trkpt><trkpt lat="41.4772598" lon="0.9135751"><ele>413.0</ele><time>2026-05-04T14:38:01.89Z</time></trkpt><trkpt lat="41.4771625" lon="0.9136928"><ele>413.0</ele><time>2026-05-04T14:38:02.89Z</time></trkpt><trkpt lat="41.4770718" lon="0.9138139"><ele>413.0</ele><time>2026-05-04T14:38:03.89Z</time></trkpt><trkpt lat="41.4769848" lon="0.9139333"><ele>413.0</ele><time>2026-05-04T14:38:04.89Z</time></trkpt><trkpt lat="41.476907" lon="0.914059"><ele>413.0</ele><time>2026-05-04T14:38:05.89Z</time></trkpt><trkpt lat="41.476831" lon="0.9141866"><ele>413.0</ele><time>2026-05-04T14:38:06.89Z</time></trkpt><trkpt lat="41.4767558" lon="0.9143147"><ele>413.25</ele><time>2026-05-04T14:38:07.889Z</time></trkpt><trkpt lat="41.4766852" lon="0.9144494"><ele>413.5</ele><time>2026-05-04T14:38:08.889Z</time></trkpt><trkpt lat="41.4766131" lon="0.9145893"><ele>413.75</ele><time>2026-05-04T14:38:09.89Z</time></trkpt><trkpt lat="41.4765407" lon="0.9147292"><ele>414.0</ele><time>2026-05-04T14:38:10.89Z</time></trkpt><trkpt lat="41.4764707" lon="0.9148696"><ele>414.0</ele><time>2026-05-04T14:38:11.89Z</time></trkpt><trkpt lat="41.4764" lon="0.9150075"><ele>414.0</ele><time>2026-05-04T14:38:12.89Z</time></trkpt><trkpt lat="41.4763289" lon="0.9151479"><ele>414.0</ele><time>2026-05-04T14:38:13.89Z</time></trkpt><trkpt lat="41.4762585" lon="0.9152868"><ele>414.0</ele><time>2026-05-04T14:38:14.89Z</time></trkpt><trkpt lat="41.4761904" lon="0.9154184"><ele>416.0</ele><time>2026-05-04T14:38:15.89Z</time></trkpt><trkpt lat="41.476121" lon="0.9155569"><ele>418.0</ele><time>2026-05-04T14:38:16.89Z</time></trkpt><trkpt lat="41.476052" lon="0.9156932"><ele>420.0</ele><time>2026-05-04T14:38:17.89Z</time></trkpt><trkpt lat="41.4759826" lon="0.9158307"><ele>422.0</ele><time>2026-05-04T14:38:18.89Z</time></trkpt><trkpt lat="41.4759161" lon="0.9159661"><ele>422.0</ele><time>2026-05-04T14:38:19.89Z</time></trkpt><trkpt lat="41.4758475" lon="0.916102"><ele>422.0</ele><time>2026-05-04T14:38:20.889Z</time></trkpt><trkpt lat="41.4757804" lon="0.916232"><ele>422.0</ele><time>2026-05-04T14:38:21.89Z</time></trkpt><trkpt lat="41.475711" lon="0.9163699"><ele>422.0</ele><time>2026-05-04T14:38:22.89Z</time></trkpt><trkpt lat="41.4756423" lon="0.9165063"><ele>422.0</ele><time>2026-05-04T14:38:23.89Z</time></trkpt><trkpt lat="41.4755744" lon="0.9166419"><ele>422.0</ele><time>2026-05-04T14:38:24.89Z</time></trkpt><trkpt lat="41.4755093" lon="0.9167779"><ele>422.0</ele><time>2026-05-04T14:38:25.89Z</time></trkpt><trkpt lat="41.4754411" lon="0.9169112"><ele>422.0</ele><time>2026-05-04T14:38:26.89Z</time></trkpt><trkpt lat="41.4753719" lon="0.9170411"><ele>423.0</ele><time>2026-05-04T14:38:27.89Z</time></trkpt><trkpt lat="41.4753024" lon="0.9171796"><ele>424.0</ele><time>2026-05-04T14:38:28.89Z</time></trkpt><trkpt lat="41.4752326" lon="0.9173121"><ele>425.0</ele><time>2026-05-04T14:38:29.889Z</time></trkpt><trkpt lat="41.475164" lon="0.917445"><ele>426.0</ele><time>2026-05-04T14:38:30.89Z</time></trkpt><trkpt lat="41.4750954" lon="0.9175797"><ele>426.0</ele><time>2026-05-04T14:38:31.89Z</time></trkpt><trkpt lat="41.4750251" lon="0.9177116"><ele>426.0</ele><time>2026-05-04T14:38:32.89Z</time></trkpt><trkpt lat="41.4749469" lon="0.9178421"><ele>426.0</ele><time>2026-05-04T14:38:33.89Z</time></trkpt><trkpt lat="41.4748756" lon="0.917971"><ele>426.0</ele><time>2026-05-04T14:38:34.89Z</time></trkpt><trkpt lat="41.4748032" lon="0.9181077"><ele>426.0</ele><time>2026-05-04T14:38:35.89Z</time></trkpt><trkpt lat="41.4747344" lon="0.9182441"><ele>426.0</ele><time>2026-05-04T14:38:36.89Z</time></trkpt><trkpt lat="41.4746642" lon="0.9183787"><ele>426.0</ele><time>2026-05-04T14:38:37.89Z</time></trkpt><trkpt lat="41.4745997" lon="0.9185128"><ele>426.0</ele><time>2026-05-04T14:38:38.89Z</time></trkpt><trkpt lat="41.4745311" lon="0.9186378"><ele>427.25</ele><time>2026-05-04T14:38:39.89Z</time></trkpt><trkpt lat="41.4744655" lon="0.9187611"><ele>428.5</ele><time>2026-05-04T14:38:40.889Z</time></trkpt><trkpt lat="41.4743988" lon="0.9188839"><ele>429.75</ele><time>2026-05-04T14:38:41.89Z</time></trkpt><trkpt lat="41.4743337" lon="0.9190137"><ele>431.0</ele><time>2026-05-04T14:38:42.89Z</time></trkpt><trkpt lat="41.4742643" lon="0.9191437"><ele>432.0</ele><time>2026-05-04T14:38:43.89Z</time></trkpt><trkpt lat="41.4742013" lon="0.9192745"><ele>433.0</ele><time>2026-05-04T14:38:44.89Z</time></trkpt><trkpt lat="41.4741315" lon="0.9194027"><ele>434.0</ele><time>2026-05-04T14:38:45.89Z</time></trkpt><trkpt lat="41.4740646" lon="0.9195302"><ele>435.0</ele><time>2026-05-04T14:38:46.889Z</time></trkpt><trkpt lat="41.4739985" lon="0.9196607"><ele>435.0</ele><time>2026-05-04T14:38:47.89Z</time></trkpt><trkpt lat="41.4739345" lon="0.919788"><ele>435.0</ele><time>2026-05-04T14:38:48.89Z</time></trkpt><trkpt lat="41.4738656" lon="0.9199138"><ele>435.0</ele><time>2026-05-04T14:38:49.889Z</time></trkpt><trkpt lat="41.4738022" lon="0.9200468"><ele>435.0</ele><time>2026-05-04T14:38:50.889Z</time></trkpt><trkpt lat="41.4737381" lon="0.9201742"><ele>435.75</ele><time>2026-05-04T14:38:51.89Z</time></trkpt><trkpt lat="41.4736742" lon="0.9203025"><ele>436.5</ele><time>2026-05-04T14:38:52.89Z</time></trkpt><trkpt lat="41.4736118" lon="0.9204263"><ele>437.25</ele><time>2026-05-04T14:38:53.89Z</time></trkpt><trkpt lat="41.4735477" lon="0.9205453"><ele>438.0</ele><time>2026-05-04T14:38:54.89Z</time></trkpt><trkpt lat="41.4734854" lon="0.9206729"><ele>438.0</ele><time>2026-05-04T14:38:55.89Z</time></trkpt><trkpt lat="41.4734227" lon="0.9207955"><ele>437.99999999999994</ele><time>2026-05-04T14:38:56.89Z</time></trkpt><trkpt lat="41.4733608" lon="0.9209147"><ele>437.99999999999994</ele><time>2026-05-04T14:38:57.89Z</time></trkpt><trkpt lat="41.4732993" lon="0.9210345"><ele>438.0</ele><time>2026-05-04T14:38:58.89Z</time></trkpt><trkpt lat="41.4732408" lon="0.9211526"><ele>438.0</ele><time>2026-05-04T14:38:59.89Z</time></trkpt><trkpt lat="41.4731863" lon="0.9212659"><ele>438.79999999999995</ele><time>2026-05-04T14:39:00.89Z</time></trkpt><trkpt lat="41.4731278" lon="0.9213776"><ele>439.59999999999997</ele><time>2026-05-04T14:39:01.89Z</time></trkpt><trkpt lat="41.4730691" lon="0.9214876"><ele>440.40000000000003</ele><time>2026-05-04T14:39:02.89Z</time></trkpt><trkpt lat="41.4730144" lon="0.9215951"><ele>441.20000000000005</ele><time>2026-05-04T14:39:03.89Z</time></trkpt><trkpt lat="41.4729569" lon="0.9217066"><ele>442.0</ele><time>2026-05-04T14:39:04.89Z</time></trkpt><trkpt lat="41.4729003" lon="0.9218156"><ele>444.0</ele><time>2026-05-04T14:39:05.89Z</time></trkpt><trkpt lat="41.4728449" lon="0.9219214"><ele>446.00000000000006</ele><time>2026-05-04T14:39:06.89Z</time></trkpt><trkpt lat="41.4727919" lon="0.9220287"><ele>448.00000000000006</ele><time>2026-05-04T14:39:07.89Z</time></trkpt><trkpt lat="41.4727397" lon="0.9221345"><ele>450.0</ele><time>2026-05-04T14:39:08.889Z</time></trkpt><trkpt lat="41.4726815" lon="0.9222381"><ele>452.0</ele><time>2026-05-04T14:39:09.89Z</time></trkpt><trkpt lat="41.4726283" lon="0.9223503"><ele>452.0</ele><time>2026-05-04T14:39:10.89Z</time></trkpt><trkpt lat="41.4725757" lon="0.9224564"><ele>452.00000000000006</ele><time>2026-05-04T14:39:11.89Z</time></trkpt><trkpt lat="41.4725243" lon="0.9225633"><ele>452.00000000000006</ele><time>2026-05-04T14:39:12.89Z</time></trkpt><trkpt lat="41.472471" lon="0.9226657"><ele>452.0</ele><time>2026-05-04T14:39:13.89Z</time></trkpt><trkpt lat="41.4724156" lon="0.9227754"><ele>452.0</ele><time>2026-05-04T14:39:14.89Z</time></trkpt><trkpt lat="41.472358" lon="0.9228861"><ele>453.20000000000005</ele><time>2026-05-04T14:39:15.89Z</time></trkpt><trkpt lat="41.4723057" lon="0.9229977"><ele>454.40000000000003</ele><time>2026-05-04T14:39:16.89Z</time></trkpt><trkpt lat="41.4722503" lon="0.9231087"><ele>455.59999999999997</ele><time>2026-05-04T14:39:17.889Z</time></trkpt><trkpt lat="41.4721975" lon="0.9232133"><ele>456.79999999999995</ele><time>2026-05-04T14:39:18.89Z</time></trkpt><trkpt lat="41.4721479" lon="0.9233184"><ele>458.0</ele><time>2026-05-04T14:39:19.89Z</time></trkpt><trkpt lat="41.4720964" lon="0.9234226"><ele>460.0</ele><time>2026-05-04T14:39:20.89Z</time></trkpt><trkpt lat="41.4720401" lon="0.9235259"><ele>461.99999999999994</ele><time>2026-05-04T14:39:21.889Z</time></trkpt><trkpt lat="41.4719873" lon="0.9236309"><ele>463.99999999999994</ele><time>2026-05-04T14:39:22.889Z</time></trkpt><trkpt lat="41.4719283" lon="0.9237317"><ele>466.0</ele><time>2026-05-04T14:39:23.89Z</time></trkpt><trkpt lat="41.4718675" lon="0.9238291"><ele>468.0</ele><time>2026-05-04T14:39:24.89Z</time></trkpt><trkpt lat="41.4718069" lon="0.9239236"><ele>468.0</ele><time>2026-05-04T14:39:25.89Z</time></trkpt><trkpt lat="41.4717418" lon="0.9240146"><ele>467.99999999999994</ele><time>2026-05-04T14:39:26.89Z</time></trkpt><trkpt lat="41.4716753" lon="0.9241051"><ele>467.99999999999994</ele><time>2026-05-04T14:39:27.89Z</time></trkpt><trkpt lat="41.4716092" lon="0.9241957"><ele>468.0</ele><time>2026-05-04T14:39:28.89Z</time></trkpt><trkpt lat="41.4715374" lon="0.92428"><ele>468.0</ele><time>2026-05-04T14:39:29.89Z</time></trkpt><trkpt lat="41.4714599" lon="0.9243564"><ele>468.4</ele><time>2026-05-04T14:39:30.89Z</time></trkpt><trkpt lat="41.4713823" lon="0.9244299"><ele>468.79999999999995</ele><time>2026-05-04T14:39:31.89Z</time></trkpt><trkpt lat="41.4713068" lon="0.9245062"><ele>469.2</ele><time>2026-05-04T14:39:32.89Z</time></trkpt><trkpt lat="41.4712341" lon="0.9245905"><ele>469.6</ele><time>2026-05-04T14:39:33.89Z</time></trkpt><trkpt lat="41.4711519" lon="0.9246742"><ele>470.0</ele><time>2026-05-04T14:39:34.89Z</time></trkpt><trkpt lat="41.471073" lon="0.924756"><ele>470.0</ele><time>2026-05-04T14:39:35.89Z</time></trkpt><trkpt lat="41.4709902" lon="0.9248426"><ele>470.0</ele><time>2026-05-04T14:39:36.889Z</time></trkpt><trkpt lat="41.4709056" lon="0.9249233"><ele>470.0</ele><time>2026-05-04T14:39:37.889Z</time></trkpt><trkpt lat="41.4708195" lon="0.9250129"><ele>470.0</ele><time>2026-05-04T14:39:38.889Z</time></trkpt><trkpt lat="41.4707344" lon="0.925101"><ele>470.0</ele><time>2026-05-04T14:39:39.889Z</time></trkpt><trkpt lat="41.470647" lon="0.9251951"><ele>470.0</ele><time>2026-05-04T14:39:40.89Z</time></trkpt><trkpt lat="41.4705575" lon="0.9252945"><ele>470.0</ele><time>2026-05-04T14:39:41.889Z</time></trkpt><trkpt lat="41.4704698" lon="0.9253909"><ele>470.0</ele><time>2026-05-04T14:39:42.89Z</time></trkpt><trkpt lat="41.4703808" lon="0.9254841"><ele>470.0</ele><time>2026-05-04T14:39:43.89Z</time></trkpt><trkpt lat="41.4702898" lon="0.9255733"><ele>470.75</ele><time>2026-05-04T14:39:44.89Z</time></trkpt><trkpt lat="41.4701958" lon="0.9256669"><ele>471.5</ele><time>2026-05-04T14:39:45.89Z</time></trkpt><trkpt lat="41.4701026" lon="0.9257651"><ele>472.25</ele><time>2026-05-04T14:39:46.89Z</time></trkpt><trkpt lat="41.4700118" lon="0.9258613"><ele>473.0</ele><time>2026-05-04T14:39:47.89Z</time></trkpt><trkpt lat="41.4699175" lon="0.9259602"><ele>473.0</ele><time>2026-05-04T14:39:48.89Z</time></trkpt><trkpt lat="41.4698208" lon="0.9260549"><ele>473.0</ele><time>2026-05-04T14:39:49.89Z</time></trkpt><trkpt lat="41.4697254" lon="0.9261484"><ele>473.0</ele><time>2026-05-04T14:39:50.889Z</time></trkpt><trkpt lat="41.4696277" lon="0.9262431"><ele>473.0</ele><time>2026-05-04T14:39:51.89Z</time></trkpt><trkpt lat="41.4695365" lon="0.9263361"><ele>473.59999999999997</ele><time>2026-05-04T14:39:52.889Z</time></trkpt><trkpt lat="41.469452" lon="0.9264269"><ele>474.19999999999993</ele><time>2026-05-04T14:39:53.89Z</time></trkpt><trkpt lat="41.4693651" lon="0.9265209"><ele>474.8</ele><time>2026-05-04T14:39:54.89Z</time></trkpt><trkpt lat="41.4692797" lon="0.9266151"><ele>475.4</ele><time>2026-05-04T14:39:55.889Z</time></trkpt><trkpt lat="41.4691961" lon="0.9267161"><ele>476.0</ele><time>2026-05-04T14:39:56.889Z</time></trkpt><trkpt lat="41.4691134" lon="0.9268175"><ele>476.0</ele><time>2026-05-04T14:39:57.89Z</time></trkpt><trkpt lat="41.4690288" lon="0.9269137"><ele>476.0</ele><time>2026-05-04T14:39:58.889Z</time></trkpt><trkpt lat="41.4689478" lon="0.9270144"><ele>476.0</ele><time>2026-05-04T14:39:59.89Z</time></trkpt><trkpt lat="41.4688716" lon="0.9271209"><ele>476.0</ele><time>2026-05-04T14:40:00.89Z</time></trkpt><trkpt lat="41.4687899" lon="0.9272339"><ele>477.0</ele><time>2026-05-04T14:40:01.89Z</time></trkpt><trkpt lat="41.4687127" lon="0.9273393"><ele>478.0</ele><time>2026-05-04T14:40:02.89Z</time></trkpt><trkpt lat="41.4686361" lon="0.9274527"><ele>479.0</ele><time>2026-05-04T14:40:03.889Z</time></trkpt><trkpt lat="41.4685605" lon="0.9275651"><ele>480.0</ele><time>2026-05-04T14:40:04.89Z</time></trkpt><trkpt lat="41.4684846" lon="0.9276779"><ele>480.5</ele><time>2026-05-04T14:40:05.889Z</time></trkpt><trkpt lat="41.4684074" lon="0.9277889"><ele>481.0</ele><time>2026-05-04T14:40:06.89Z</time></trkpt><trkpt lat="41.4683282" lon="0.927901"><ele>481.5</ele><time>2026-05-04T14:40:07.889Z</time></trkpt><trkpt lat="41.4682491" lon="0.9280115"><ele>482.0</ele><time>2026-05-04T14:40:08.89Z</time></trkpt><trkpt lat="41.4681735" lon="0.9281238"><ele>482.0</ele><time>2026-05-04T14:40:09.89Z</time></trkpt><trkpt lat="41.4680989" lon="0.928241"><ele>482.0</ele><time>2026-05-04T14:40:10.89Z</time></trkpt><trkpt lat="41.4680179" lon="0.9283545"><ele>482.0</ele><time>2026-05-04T14:40:11.891Z</time></trkpt><trkpt lat="41.4679372" lon="0.9284675"><ele>482.0</ele><time>2026-05-04T14:40:12.891Z</time></trkpt><trkpt lat="41.4678559" lon="0.9285835"><ele>482.75</ele><time>2026-05-04T14:40:13.891Z</time></trkpt><trkpt lat="41.4677751" lon="0.9286993"><ele>483.5</ele><time>2026-05-04T14:40:14.891Z</time></trkpt><trkpt lat="41.4676965" lon="0.9288182"><ele>484.25</ele><time>2026-05-04T14:40:15.891Z</time></trkpt><trkpt lat="41.4676149" lon="0.9289371"><ele>485.0</ele><time>2026-05-04T14:40:16.891Z</time></trkpt><trkpt lat="41.4675337" lon="0.9290557"><ele>485.0</ele><time>2026-05-04T14:40:17.891Z</time></trkpt><trkpt lat="41.467455" lon="0.9291785"><ele>485.0</ele><time>2026-05-04T14:40:18.891Z</time></trkpt><trkpt lat="41.4673757" lon="0.9292971"><ele>485.0</ele><time>2026-05-04T14:40:19.891Z</time></trkpt><trkpt lat="41.4672954" lon="0.9294145"><ele>485.0</ele><time>2026-05-04T14:40:20.891Z</time></trkpt><trkpt lat="41.4672154" lon="0.9295303"><ele>485.5</ele><time>2026-05-04T14:40:21.891Z</time></trkpt><trkpt lat="41.4671329" lon="0.9296467"><ele>486.0</ele><time>2026-05-04T14:40:22.891Z</time></trkpt><trkpt lat="41.4670551" lon="0.9297712"><ele>486.5</ele><time>2026-05-04T14:40:23.891Z</time></trkpt><trkpt lat="41.4669753" lon="0.9298962"><ele>487.0</ele><time>2026-05-04T14:40:24.89Z</time></trkpt><trkpt lat="41.4668952" lon="0.9300213"><ele>487.75</ele><time>2026-05-04T14:40:25.891Z</time></trkpt><trkpt lat="41.4668121" lon="0.9301443"><ele>488.5</ele><time>2026-05-04T14:40:26.891Z</time></trkpt><trkpt lat="41.4667341" lon="0.9302677"><ele>489.25</ele><time>2026-05-04T14:40:27.891Z</time></trkpt><trkpt lat="41.4666536" lon="0.9303895"><ele>490.0</ele><time>2026-05-04T14:40:28.891Z</time></trkpt><trkpt lat="41.4665739" lon="0.9305142"><ele>490.0</ele><time>2026-05-04T14:40:29.891Z</time></trkpt><trkpt lat="41.4665001" lon="0.9306357"><ele>490.0</ele><time>2026-05-04T14:40:30.891Z</time></trkpt><trkpt lat="41.4664284" lon="0.9307575"><ele>490.0</ele><time>2026-05-04T14:40:31.89Z</time></trkpt><trkpt lat="41.4663575" lon="0.9308836"><ele>490.0</ele><time>2026-05-04T14:40:32.891Z</time></trkpt><trkpt lat="41.4662889" lon="0.9310068"><ele>490.25</ele><time>2026-05-04T14:40:33.89Z</time></trkpt><trkpt lat="41.4662161" lon="0.9311228"><ele>490.5</ele><time>2026-05-04T14:40:34.891Z</time></trkpt><trkpt lat="41.4661481" lon="0.9312455"><ele>490.75</ele><time>2026-05-04T14:40:35.89Z</time></trkpt><trkpt lat="41.4660817" lon="0.9313702"><ele>491.0</ele><time>2026-05-04T14:40:36.89Z</time></trkpt><trkpt lat="41.4660159" lon="0.931492"><ele>491.0</ele><time>2026-05-04T14:40:37.891Z</time></trkpt><trkpt lat="41.465948" lon="0.9316107"><ele>491.0</ele><time>2026-05-04T14:40:38.89Z</time></trkpt><trkpt lat="41.4658822" lon="0.9317317"><ele>491.0</ele><time>2026-05-04T14:40:39.891Z</time></trkpt><trkpt lat="41.4658173" lon="0.9318571"><ele>491.0</ele><time>2026-05-04T14:40:40.891Z</time></trkpt><trkpt lat="41.4657531" lon="0.9319821"><ele>491.5</ele><time>2026-05-04T14:40:41.891Z</time></trkpt><trkpt lat="41.4656883" lon="0.9321149"><ele>492.0</ele><time>2026-05-04T14:40:42.89Z</time></trkpt><trkpt lat="41.4656236" lon="0.9322512"><ele>492.5</ele><time>2026-05-04T14:40:43.891Z</time></trkpt><trkpt lat="41.4655554" lon="0.9323882"><ele>493.0</ele><time>2026-05-04T14:40:44.891Z</time></trkpt><trkpt lat="41.4654872" lon="0.9325181"><ele>493.75</ele><time>2026-05-04T14:40:45.891Z</time></trkpt><trkpt lat="41.4654207" lon="0.9326528"><ele>494.5</ele><time>2026-05-04T14:40:46.891Z</time></trkpt><trkpt lat="41.4653568" lon="0.932778"><ele>495.25</ele><time>2026-05-04T14:40:47.891Z</time></trkpt><trkpt lat="41.4652944" lon="0.9329117"><ele>496.0</ele><time>2026-05-04T14:40:48.891Z</time></trkpt><trkpt lat="41.4652319" lon="0.9330445"><ele>496.0</ele><time>2026-05-04T14:40:49.891Z</time></trkpt><trkpt lat="41.4651708" lon="0.933176"><ele>496.0</ele><time>2026-05-04T14:40:50.891Z</time></trkpt><trkpt lat="41.4651074" lon="0.9333085"><ele>496.0</ele><time>2026-05-04T14:40:51.891Z</time></trkpt><trkpt lat="41.465044" lon="0.933432"><ele>496.0</ele><time>2026-05-04T14:40:52.891Z</time></trkpt><trkpt lat="41.4649841" lon="0.933563"><ele>497.25</ele><time>2026-05-04T14:40:53.891Z</time></trkpt><trkpt lat="41.4649223" lon="0.9336907"><ele>498.5</ele><time>2026-05-04T14:40:54.891Z</time></trkpt><trkpt lat="41.4648619" lon="0.933823"><ele>499.75</ele><time>2026-05-04T14:40:55.891Z</time></trkpt><trkpt lat="41.464798" lon="0.9339557"><ele>501.0</ele><time>2026-05-04T14:40:56.891Z</time></trkpt><trkpt lat="41.4647357" lon="0.9340826"><ele>501.0</ele><time>2026-05-04T14:40:57.891Z</time></trkpt><trkpt lat="41.4646764" lon="0.9342151"><ele>501.0</ele><time>2026-05-04T14:40:58.891Z</time></trkpt><trkpt lat="41.46461" lon="0.9343369"><ele>501.0</ele><time>2026-05-04T14:40:59.89Z</time></trkpt><trkpt lat="41.4645416" lon="0.934472"><ele>501.0</ele><time>2026-05-04T14:41:00.891Z</time></trkpt><trkpt lat="41.4644731" lon="0.934598"><ele>501.25</ele><time>2026-05-04T14:41:01.891Z</time></trkpt><trkpt lat="41.4644058" lon="0.9347242"><ele>501.5</ele><time>2026-05-04T14:41:02.891Z</time></trkpt><trkpt lat="41.4643269" lon="0.9348524"><ele>501.75</ele><time>2026-05-04T14:41:03.891Z</time></trkpt><trkpt lat="41.4642495" lon="0.9349745"><ele>502.0</ele><time>2026-05-04T14:41:04.891Z</time></trkpt><trkpt lat="41.4641675" lon="0.9350922"><ele>502.5</ele><time>2026-05-04T14:41:05.891Z</time></trkpt><trkpt lat="41.4640806" lon="0.9352069"><ele>503.0</ele><time>2026-05-04T14:41:06.891Z</time></trkpt><trkpt lat="41.463988" lon="0.9353143"><ele>503.5</ele><time>2026-05-04T14:41:07.89Z</time></trkpt><trkpt lat="41.4638939" lon="0.935418"><ele>504.0</ele><time>2026-05-04T14:41:08.891Z</time></trkpt><trkpt lat="41.463798" lon="0.9355235"><ele>504.25</ele><time>2026-05-04T14:41:09.891Z</time></trkpt><trkpt lat="41.4636992" lon="0.9356178"><ele>504.5</ele><time>2026-05-04T14:41:10.891Z</time></trkpt><trkpt lat="41.4635925" lon="0.9357045"><ele>504.75</ele><time>2026-05-04T14:41:11.89Z</time></trkpt><trkpt lat="41.4634909" lon="0.9357951"><ele>505.0</ele><time>2026-05-04T14:41:12.89Z</time></trkpt><trkpt lat="41.463394" lon="0.9358833"><ele>504.75</ele><time>2026-05-04T14:41:13.89Z</time></trkpt><trkpt lat="41.4632949" lon="0.9359706"><ele>504.5</ele><time>2026-05-04T14:41:14.891Z</time></trkpt><trkpt lat="41.4631957" lon="0.9360598"><ele>504.25</ele><time>2026-05-04T14:41:15.891Z</time></trkpt><trkpt lat="41.4630984" lon="0.936142"><ele>504.0</ele><time>2026-05-04T14:41:16.89Z</time></trkpt><trkpt lat="41.4630019" lon="0.9362215"><ele>504.75</ele><time>2026-05-04T14:41:17.891Z</time></trkpt><trkpt lat="41.4629045" lon="0.9363076"><ele>505.5</ele><time>2026-05-04T14:41:18.891Z</time></trkpt><trkpt lat="41.4628087" lon="0.9363905"><ele>506.25</ele><time>2026-05-04T14:41:19.891Z</time></trkpt><trkpt lat="41.4627172" lon="0.9364756"><ele>507.0</ele><time>2026-05-04T14:41:20.891Z</time></trkpt><trkpt lat="41.4626237" lon="0.9365612"><ele>507.0</ele><time>2026-05-04T14:41:21.891Z</time></trkpt><trkpt lat="41.4625257" lon="0.9366425"><ele>507.00000000000006</ele><time>2026-05-04T14:41:22.891Z</time></trkpt><trkpt lat="41.4624329" lon="0.9367216"><ele>507.00000000000006</ele><time>2026-05-04T14:41:23.89Z</time></trkpt><trkpt lat="41.4623415" lon="0.936806"><ele>507.0</ele><time>2026-05-04T14:41:24.891Z</time></trkpt><trkpt lat="41.4622523" lon="0.9368867"><ele>507.0</ele><time>2026-05-04T14:41:25.89Z</time></trkpt><trkpt lat="41.4621666" lon="0.9369669"><ele>508.40000000000003</ele><time>2026-05-04T14:41:26.891Z</time></trkpt><trkpt lat="41.4620762" lon="0.9370509"><ele>509.80000000000007</ele><time>2026-05-04T14:41:27.891Z</time></trkpt><trkpt lat="41.4619825" lon="0.9371346"><ele>511.2</ele><time>2026-05-04T14:41:28.891Z</time></trkpt><trkpt lat="41.4618926" lon="0.9372195"><ele>512.6</ele><time>2026-05-04T14:41:29.891Z</time></trkpt><trkpt lat="41.4617979" lon="0.9373048"><ele>514.0</ele><time>2026-05-04T14:41:30.89Z</time></trkpt><trkpt lat="41.4617044" lon="0.9373885"><ele>514.0</ele><time>2026-05-04T14:41:31.891Z</time></trkpt><trkpt lat="41.4616108" lon="0.937477"><ele>514.0</ele><time>2026-05-04T14:41:32.891Z</time></trkpt><trkpt lat="41.4615166" lon="0.937564"><ele>514.0</ele><time>2026-05-04T14:41:33.891Z</time></trkpt><trkpt lat="41.4614282" lon="0.9376491"><ele>514.0</ele><time>2026-05-04T14:41:34.89Z</time></trkpt><trkpt lat="41.4613371" lon="0.9377325"><ele>514.0</ele><time>2026-05-04T14:41:35.891Z</time></trkpt><trkpt lat="41.461247" lon="0.9378221"><ele>514.5</ele><time>2026-05-04T14:41:36.891Z</time></trkpt><trkpt lat="41.4611531" lon="0.9379136"><ele>515.0</ele><time>2026-05-04T14:41:37.891Z</time></trkpt><trkpt lat="41.4610596" lon="0.9380018"><ele>515.5</ele><time>2026-05-04T14:41:38.891Z</time></trkpt><trkpt lat="41.4609668" lon="0.9380941"><ele>516.0</ele><time>2026-05-04T14:41:39.89Z</time></trkpt><trkpt lat="41.4608738" lon="0.9381832"><ele>516.0</ele><time>2026-05-04T14:41:40.891Z</time></trkpt><trkpt lat="41.4607814" lon="0.9382723"><ele>516.0</ele><time>2026-05-04T14:41:41.891Z</time></trkpt><trkpt lat="41.4606911" lon="0.9383669"><ele>516.0</ele><time>2026-05-04T14:41:42.891Z</time></trkpt><trkpt lat="41.4606007" lon="0.9384629"><ele>516.0</ele><time>2026-05-04T14:41:43.891Z</time></trkpt><trkpt lat="41.46051" lon="0.9385569"><ele>516.25</ele><time>2026-05-04T14:41:44.891Z</time></trkpt><trkpt lat="41.4604162" lon="0.9386585"><ele>516.5</ele><time>2026-05-04T14:41:45.89Z</time></trkpt><trkpt lat="41.4603178" lon="0.938756"><ele>516.75</ele><time>2026-05-04T14:41:46.891Z</time></trkpt><trkpt lat="41.4602249" lon="0.9388515"><ele>517.0</ele><time>2026-05-04T14:41:47.89Z</time></trkpt><trkpt lat="41.4601315" lon="0.9389446"><ele>517.0</ele><time>2026-05-04T14:41:48.891Z</time></trkpt><trkpt lat="41.4600388" lon="0.9390368"><ele>517.0</ele><time>2026-05-04T14:41:49.891Z</time></trkpt><trkpt lat="41.4599542" lon="0.939133"><ele>517.0</ele><time>2026-05-04T14:41:50.891Z</time></trkpt><trkpt lat="41.4598654" lon="0.9392244"><ele>517.0</ele><time>2026-05-04T14:41:51.89Z</time></trkpt><trkpt lat="41.4597782" lon="0.9393166"><ele>517.6</ele><time>2026-05-04T14:41:52.891Z</time></trkpt><trkpt lat="41.4596903" lon="0.9394068"><ele>518.2</ele><time>2026-05-04T14:41:53.89Z</time></trkpt><trkpt lat="41.4596027" lon="0.9395008"><ele>518.8</ele><time>2026-05-04T14:41:54.891Z</time></trkpt><trkpt lat="41.4595158" lon="0.9395933"><ele>519.4</ele><time>2026-05-04T14:41:55.891Z</time></trkpt><trkpt lat="41.4594315" lon="0.9396806"><ele>520.0</ele><time>2026-05-04T14:41:56.891Z</time></trkpt><trkpt lat="41.459348" lon="0.9397704"><ele>520.0</ele><time>2026-05-04T14:41:57.891Z</time></trkpt><trkpt lat="41.4592618" lon="0.9398632"><ele>520.0</ele><time>2026-05-04T14:41:58.891Z</time></trkpt><trkpt lat="41.4591765" lon="0.9399524"><ele>520.0</ele><time>2026-05-04T14:41:59.891Z</time></trkpt><trkpt lat="41.4590922" lon="0.9400459"><ele>520.0</ele><time>2026-05-04T14:42:00.891Z</time></trkpt><trkpt lat="41.4590114" lon="0.9401387"><ele>520.0</ele><time>2026-05-04T14:42:01.891Z</time></trkpt><trkpt lat="41.4589278" lon="0.940235"><ele>520.2</ele><time>2026-05-04T14:42:02.891Z</time></trkpt><trkpt lat="41.4588433" lon="0.9403345"><ele>520.4</ele><time>2026-05-04T14:42:03.891Z</time></trkpt><trkpt lat="41.4587615" lon="0.9404356"><ele>520.6</ele><time>2026-05-04T14:42:04.891Z</time></trkpt><trkpt lat="41.458679" lon="0.9405295"><ele>520.8</ele><time>2026-05-04T14:42:05.891Z</time></trkpt><trkpt lat="41.4585931" lon="0.9406256"><ele>521.0</ele><time>2026-05-04T14:42:06.891Z</time></trkpt><trkpt lat="41.4585051" lon="0.940724"><ele>521.2</ele><time>2026-05-04T14:42:07.891Z</time></trkpt><trkpt lat="41.4584219" lon="0.9408152"><ele>521.4000000000001</ele><time>2026-05-04T14:42:08.891Z</time></trkpt><trkpt lat="41.4583373" lon="0.9409135"><ele>521.6</ele><time>2026-05-04T14:42:09.891Z</time></trkpt><trkpt lat="41.4582517" lon="0.941004"><ele>521.8000000000001</ele><time>2026-05-04T14:42:10.891Z</time></trkpt><trkpt lat="41.458168" lon="0.9410988"><ele>522.0</ele><time>2026-05-04T14:42:11.891Z</time></trkpt><trkpt lat="41.4580813" lon="0.9411899"><ele>522.4</ele><time>2026-05-04T14:42:12.89Z</time></trkpt><trkpt lat="41.4579919" lon="0.9412783"><ele>522.8000000000001</ele><time>2026-05-04T14:42:13.891Z</time></trkpt><trkpt lat="41.4578991" lon="0.9413653"><ele>523.2</ele><time>2026-05-04T14:42:14.89Z</time></trkpt><trkpt lat="41.4578071" lon="0.9414487"><ele>523.6</ele><time>2026-05-04T14:42:15.891Z</time></trkpt><trkpt lat="41.4577136" lon="0.9415259"><ele>524.0</ele><time>2026-05-04T14:42:16.891Z</time></trkpt><trkpt lat="41.457616" lon="0.9416027"><ele>524.5</ele><time>2026-05-04T14:42:17.891Z</time></trkpt><trkpt lat="41.4575159" lon="0.9416772"><ele>525.0</ele><time>2026-05-04T14:42:18.891Z</time></trkpt><trkpt lat="41.4574194" lon="0.9417523"><ele>525.5</ele><time>2026-05-04T14:42:19.891Z</time></trkpt><trkpt lat="41.4573173" lon="0.9418194"><ele>526.0</ele><time>2026-05-04T14:42:20.891Z</time></trkpt><trkpt lat="41.4572144" lon="0.9418822"><ele>526.75</ele><time>2026-05-04T14:42:21.891Z</time></trkpt><trkpt lat="41.4571058" lon="0.9419432"><ele>527.5</ele><time>2026-05-04T14:42:22.891Z</time></trkpt><trkpt lat="41.4569977" lon="0.9419968"><ele>528.25</ele><time>2026-05-04T14:42:23.891Z</time></trkpt><trkpt lat="41.4568909" lon="0.942048"><ele>529.0</ele><time>2026-05-04T14:42:24.891Z</time></trkpt><trkpt lat="41.4567851" lon="0.9420983"><ele>529.0</ele><time>2026-05-04T14:42:25.891Z</time></trkpt><trkpt lat="41.4566753" lon="0.9421448"><ele>529.0</ele><time>2026-05-04T14:42:26.891Z</time></trkpt><trkpt lat="41.4565673" lon="0.9421992"><ele>529.0</ele><time>2026-05-04T14:42:27.891Z</time></trkpt><trkpt lat="41.4564567" lon="0.9422446"><ele>529.0</ele><time>2026-05-04T14:42:28.891Z</time></trkpt><trkpt lat="41.456346" lon="0.9422893"><ele>529.75</ele><time>2026-05-04T14:42:29.89Z</time></trkpt><trkpt lat="41.4562345" lon="0.9423343"><ele>530.5</ele><time>2026-05-04T14:42:30.891Z</time></trkpt><trkpt lat="41.4561274" lon="0.9423804"><ele>531.25</ele><time>2026-05-04T14:42:31.891Z</time></trkpt><trkpt lat="41.4560156" lon="0.9424214"><ele>532.0</ele><time>2026-05-04T14:42:32.891Z</time></trkpt><trkpt lat="41.4559108" lon="0.9424667"><ele>532.0</ele><time>2026-05-04T14:42:33.89Z</time></trkpt><trkpt lat="41.4558008" lon="0.942512"><ele>532.0</ele><time>2026-05-04T14:42:34.891Z</time></trkpt><trkpt lat="41.4556943" lon="0.9425547"><ele>532.0</ele><time>2026-05-04T14:42:35.891Z</time></trkpt><trkpt lat="41.4555866" lon="0.9425976"><ele>532.0</ele><time>2026-05-04T14:42:36.891Z</time></trkpt><trkpt lat="41.4554782" lon="0.9426381"><ele>533.0</ele><time>2026-05-04T14:42:37.89Z</time></trkpt><trkpt lat="41.455369" lon="0.9426857"><ele>534.0</ele><time>2026-05-04T14:42:38.891Z</time></trkpt><trkpt lat="41.4552609" lon="0.9427264"><ele>535.0</ele><time>2026-05-04T14:42:39.891Z</time></trkpt><trkpt lat="41.4551471" lon="0.9427703"><ele>536.0</ele><time>2026-05-04T14:42:40.891Z</time></trkpt><trkpt lat="41.4550364" lon="0.9428188"><ele>536.0</ele><time>2026-05-04T14:42:41.891Z</time></trkpt><trkpt lat="41.4549236" lon="0.9428644"><ele>536.0</ele><time>2026-05-04T14:42:42.891Z</time></trkpt><trkpt lat="41.4548132" lon="0.9429105"><ele>536.0</ele><time>2026-05-04T14:42:43.891Z</time></trkpt><trkpt lat="41.4546979" lon="0.9429547"><ele>536.0</ele><time>2026-05-04T14:42:44.891Z</time></trkpt><trkpt lat="41.4545836" lon="0.9430056"><ele>535.75</ele><time>2026-05-04T14:42:45.891Z</time></trkpt><trkpt lat="41.4544659" lon="0.943054"><ele>535.5</ele><time>2026-05-04T14:42:46.892Z</time></trkpt><trkpt lat="41.4543496" lon="0.9431015"><ele>535.25</ele><time>2026-05-04T14:42:47.891Z</time></trkpt><trkpt lat="41.4542324" lon="0.9431502"><ele>535.0</ele><time>2026-05-04T14:42:48.891Z</time></trkpt><trkpt lat="41.4541123" lon="0.9431945"><ele>535.0</ele><time>2026-05-04T14:42:49.892Z</time></trkpt><trkpt lat="41.453996" lon="0.9432415"><ele>535.0</ele><time>2026-05-04T14:42:50.892Z</time></trkpt><trkpt lat="41.4538809" lon="0.9432904"><ele>535.0</ele><time>2026-05-04T14:42:51.892Z</time></trkpt><trkpt lat="41.4537679" lon="0.9433331"><ele>535.0</ele><time>2026-05-04T14:42:52.892Z</time></trkpt><trkpt lat="41.4536536" lon="0.943376"><ele>535.5</ele><time>2026-05-04T14:42:53.892Z</time></trkpt><trkpt lat="41.4535353" lon="0.9434232"><ele>536.0</ele><time>2026-05-04T14:42:54.892Z</time></trkpt><trkpt lat="41.4534199" lon="0.9434658"><ele>536.5</ele><time>2026-05-04T14:42:55.892Z</time></trkpt><trkpt lat="41.4533048" lon="0.9435119"><ele>537.0</ele><time>2026-05-04T14:42:56.892Z</time></trkpt><trkpt lat="41.4531914" lon="0.9435651"><ele>537.0</ele><time>2026-05-04T14:42:57.892Z</time></trkpt><trkpt lat="41.4530779" lon="0.9436123"><ele>537.0</ele><time>2026-05-04T14:42:58.891Z</time></trkpt><trkpt lat="41.452959" lon="0.9436625"><ele>537.0</ele><time>2026-05-04T14:42:59.892Z</time></trkpt><trkpt lat="41.4528432" lon="0.9437109"><ele>537.0</ele><time>2026-05-04T14:43:00.892Z</time></trkpt><trkpt lat="41.4527241" lon="0.9437565"><ele>536.25</ele><time>2026-05-04T14:43:01.891Z</time></trkpt><trkpt lat="41.4526066" lon="0.9438067"><ele>535.5</ele><time>2026-05-04T14:43:02.892Z</time></trkpt><trkpt lat="41.4524895" lon="0.9438557"><ele>534.75</ele><time>2026-05-04T14:43:03.892Z</time></trkpt><trkpt lat="41.4523731" lon="0.9439067"><ele>534.0</ele><time>2026-05-04T14:43:04.892Z</time></trkpt><trkpt lat="41.4522579" lon="0.943956"><ele>534.0</ele><time>2026-05-04T14:43:05.892Z</time></trkpt><trkpt lat="41.4521413" lon="0.9439988"><ele>534.0</ele><time>2026-05-04T14:43:06.892Z</time></trkpt><trkpt lat="41.4520227" lon="0.944046"><ele>534.0</ele><time>2026-05-04T14:43:07.892Z</time></trkpt><trkpt lat="41.4519043" lon="0.9440913"><ele>534.0</ele><time>2026-05-04T14:43:08.892Z</time></trkpt><trkpt lat="41.4517888" lon="0.944138"><ele>534.25</ele><time>2026-05-04T14:43:09.891Z</time></trkpt><trkpt lat="41.4516735" lon="0.9441837"><ele>534.5</ele><time>2026-05-04T14:43:10.892Z</time></trkpt><trkpt lat="41.4515612" lon="0.9442344"><ele>534.75</ele><time>2026-05-04T14:43:11.892Z</time></trkpt><trkpt lat="41.4514477" lon="0.944278"><ele>535.0</ele><time>2026-05-04T14:43:12.891Z</time></trkpt><trkpt lat="41.4513309" lon="0.9443219"><ele>537.0</ele><time>2026-05-04T14:43:13.892Z</time></trkpt><trkpt lat="41.4512105" lon="0.9443685"><ele>539.0</ele><time>2026-05-04T14:43:14.892Z</time></trkpt><trkpt lat="41.4510921" lon="0.9444167"><ele>541.0</ele><time>2026-05-04T14:43:15.892Z</time></trkpt><trkpt lat="41.4509726" lon="0.9444625"><ele>543.0</ele><time>2026-05-04T14:43:16.892Z</time></trkpt><trkpt lat="41.4508531" lon="0.9445111"><ele>543.0</ele><time>2026-05-04T14:43:17.892Z</time></trkpt><trkpt lat="41.450736" lon="0.9445638"><ele>543.0</ele><time>2026-05-04T14:43:18.891Z</time></trkpt><trkpt lat="41.4506144" lon="0.9446133"><ele>543.0</ele><time>2026-05-04T14:43:19.892Z</time></trkpt><trkpt lat="41.4504982" lon="0.9446636"><ele>543.0</ele><time>2026-05-04T14:43:20.892Z</time></trkpt><trkpt lat="41.4503802" lon="0.9447093"><ele>543.0</ele><time>2026-05-04T14:43:21.892Z</time></trkpt><trkpt lat="41.4502611" lon="0.944759"><ele>543.0</ele><time>2026-05-04T14:43:22.891Z</time></trkpt><trkpt lat="41.450144" lon="0.944809"><ele>543.0</ele><time>2026-05-04T14:43:23.892Z</time></trkpt><trkpt lat="41.4500273" lon="0.9448579"><ele>543.0</ele><time>2026-05-04T14:43:24.892Z</time></trkpt><trkpt lat="41.4499107" lon="0.9449125"><ele>543.0</ele><time>2026-05-04T14:43:25.892Z</time></trkpt><trkpt lat="41.4497897" lon="0.9449682"><ele>543.0</ele><time>2026-05-04T14:43:26.892Z</time></trkpt><trkpt lat="41.4496707" lon="0.9450204"><ele>543.0</ele><time>2026-05-04T14:43:27.892Z</time></trkpt><trkpt lat="41.4495512" lon="0.9450831"><ele>543.0</ele><time>2026-05-04T14:43:28.892Z</time></trkpt><trkpt lat="41.4494417" lon="0.945147"><ele>543.75</ele><time>2026-05-04T14:43:29.892Z</time></trkpt><trkpt lat="41.4493294" lon="0.9452209"><ele>544.5</ele><time>2026-05-04T14:43:30.892Z</time></trkpt><trkpt lat="41.4492179" lon="0.9452996"><ele>545.25</ele><time>2026-05-04T14:43:31.892Z</time></trkpt><trkpt lat="41.4491105" lon="0.9453933"><ele>546.0</ele><time>2026-05-04T14:43:32.892Z</time></trkpt><trkpt lat="41.4490045" lon="0.945491"><ele>546.0</ele><time>2026-05-04T14:43:33.892Z</time></trkpt><trkpt lat="41.4489084" lon="0.9455891"><ele>546.0</ele><time>2026-05-04T14:43:34.892Z</time></trkpt><trkpt lat="41.4488066" lon="0.9456914"><ele>546.0</ele><time>2026-05-04T14:43:35.892Z</time></trkpt><trkpt lat="41.4487085" lon="0.9458"><ele>546.0</ele><time>2026-05-04T14:43:36.892Z</time></trkpt><trkpt lat="41.4486109" lon="0.9459131"><ele>547.0</ele><time>2026-05-04T14:43:37.892Z</time></trkpt><trkpt lat="41.4485197" lon="0.9460309"><ele>548.0</ele><time>2026-05-04T14:43:38.891Z</time></trkpt><trkpt lat="41.4484355" lon="0.9461479"><ele>549.0</ele><time>2026-05-04T14:43:39.892Z</time></trkpt><trkpt lat="41.4483454" lon="0.9462661"><ele>550.0</ele><time>2026-05-04T14:43:40.892Z</time></trkpt><trkpt lat="41.4482574" lon="0.9463865"><ele>550.0</ele><time>2026-05-04T14:43:41.892Z</time></trkpt><trkpt lat="41.4481705" lon="0.9465055"><ele>550.0</ele><time>2026-05-04T14:43:42.892Z</time></trkpt><trkpt lat="41.4480798" lon="0.9466165"><ele>550.0</ele><time>2026-05-04T14:43:43.892Z</time></trkpt><trkpt lat="41.4479934" lon="0.9467267"><ele>550.0</ele><time>2026-05-04T14:43:44.892Z</time></trkpt><trkpt lat="41.4479119" lon="0.946846"><ele>551.75</ele><time>2026-05-04T14:43:45.891Z</time></trkpt><trkpt lat="41.4478268" lon="0.9469593"><ele>553.5</ele><time>2026-05-04T14:43:46.892Z</time></trkpt><trkpt lat="41.4477431" lon="0.947075"><ele>555.25</ele><time>2026-05-04T14:43:47.891Z</time></trkpt><trkpt lat="41.4476619" lon="0.9471854"><ele>557.0</ele><time>2026-05-04T14:43:48.891Z</time></trkpt><trkpt lat="41.4475809" lon="0.9472923"><ele>557.0</ele><time>2026-05-04T14:43:49.892Z</time></trkpt><trkpt lat="41.4474948" lon="0.947404"><ele>557.0</ele><time>2026-05-04T14:43:50.892Z</time></trkpt><trkpt lat="41.4474099" lon="0.9475216"><ele>557.0</ele><time>2026-05-04T14:43:51.891Z</time></trkpt><trkpt lat="41.4473243" lon="0.9476332"><ele>557.0</ele><time>2026-05-04T14:43:52.891Z</time></trkpt><trkpt lat="41.4472369" lon="0.9477463"><ele>557.25</ele><time>2026-05-04T14:43:53.892Z</time></trkpt><trkpt lat="41.4471499" lon="0.9478625"><ele>557.5</ele><time>2026-05-04T14:43:54.891Z</time></trkpt><trkpt lat="41.4470565" lon="0.9479763"><ele>557.75</ele><time>2026-05-04T14:43:55.892Z</time></trkpt><trkpt lat="41.4469695" lon="0.9480937"><ele>558.0</ele><time>2026-05-04T14:43:56.892Z</time></trkpt><trkpt lat="41.4468787" lon="0.9482138"><ele>558.0</ele><time>2026-05-04T14:43:57.892Z</time></trkpt><trkpt lat="41.4467934" lon="0.948334"><ele>558.0</ele><time>2026-05-04T14:43:58.891Z</time></trkpt><trkpt lat="41.4466985" lon="0.9484614"><ele>558.0</ele><time>2026-05-04T14:43:59.892Z</time></trkpt><trkpt lat="41.4466061" lon="0.9485935"><ele>558.0</ele><time>2026-05-04T14:44:00.892Z</time></trkpt><trkpt lat="41.4465119" lon="0.9487231"><ele>558.0</ele><time>2026-05-04T14:44:01.892Z</time></trkpt><trkpt lat="41.4464199" lon="0.9488508"><ele>558.0</ele><time>2026-05-04T14:44:02.892Z</time></trkpt><trkpt lat="41.4463312" lon="0.9489732"><ele>558.0</ele><time>2026-05-04T14:44:03.891Z</time></trkpt><trkpt lat="41.4462417" lon="0.9490898"><ele>558.0</ele><time>2026-05-04T14:44:04.892Z</time></trkpt><trkpt lat="41.4461534" lon="0.9492049"><ele>558.75</ele><time>2026-05-04T14:44:05.892Z</time></trkpt><trkpt lat="41.446066" lon="0.9493129"><ele>559.5</ele><time>2026-05-04T14:44:06.891Z</time></trkpt><trkpt lat="41.4459817" lon="0.9494266"><ele>560.25</ele><time>2026-05-04T14:44:07.891Z</time></trkpt><trkpt lat="41.4458984" lon="0.9495411"><ele>561.0</ele><time>2026-05-04T14:44:08.892Z</time></trkpt><trkpt lat="41.4458142" lon="0.9496592"><ele>561.0</ele><time>2026-05-04T14:44:09.892Z</time></trkpt><trkpt lat="41.4457279" lon="0.9497779"><ele>561.0</ele><time>2026-05-04T14:44:10.892Z</time></trkpt><trkpt lat="41.4456412" lon="0.949891"><ele>561.0</ele><time>2026-05-04T14:44:11.892Z</time></trkpt><trkpt lat="41.4455578" lon="0.9499979"><ele>561.0</ele><time>2026-05-04T14:44:12.892Z</time></trkpt><trkpt lat="41.4454714" lon="0.9501098"><ele>561.75</ele><time>2026-05-04T14:44:13.892Z</time></trkpt><trkpt lat="41.4453866" lon="0.9502243"><ele>562.5</ele><time>2026-05-04T14:44:14.892Z</time></trkpt><trkpt lat="41.4453012" lon="0.9503397"><ele>563.25</ele><time>2026-05-04T14:44:15.892Z</time></trkpt><trkpt lat="41.4452184" lon="0.9504514"><ele>564.0</ele><time>2026-05-04T14:44:16.892Z</time></trkpt><trkpt lat="41.4451316" lon="0.9505631"><ele>564.0</ele><time>2026-05-04T14:44:17.892Z</time></trkpt><trkpt lat="41.4450456" lon="0.9506866"><ele>564.0</ele><time>2026-05-04T14:44:18.892Z</time></trkpt><trkpt lat="41.4449586" lon="0.9507998"><ele>564.0</ele><time>2026-05-04T14:44:19.892Z</time></trkpt><trkpt lat="41.4448699" lon="0.9509184"><ele>564.0</ele><time>2026-05-04T14:44:20.892Z</time></trkpt><trkpt lat="41.4447797" lon="0.9510362"><ele>564.25</ele><time>2026-05-04T14:44:21.892Z</time></trkpt><trkpt lat="41.4446852" lon="0.9511558"><ele>564.5</ele><time>2026-05-04T14:44:22.892Z</time></trkpt><trkpt lat="41.4445938" lon="0.9512789"><ele>564.75</ele><time>2026-05-04T14:44:23.892Z</time></trkpt><trkpt lat="41.4445038" lon="0.9513978"><ele>565.0</ele><time>2026-05-04T14:44:24.892Z</time></trkpt><trkpt lat="41.4444079" lon="0.9515148"><ele>565.0</ele><time>2026-05-04T14:44:25.892Z</time></trkpt><trkpt lat="41.4443132" lon="0.9516306"><ele>565.0</ele><time>2026-05-04T14:44:26.892Z</time></trkpt><trkpt lat="41.4442175" lon="0.9517473"><ele>565.0</ele><time>2026-05-04T14:44:27.892Z</time></trkpt><trkpt lat="41.4441158" lon="0.9518733"><ele>565.0</ele><time>2026-05-04T14:44:28.892Z</time></trkpt><trkpt lat="41.4440172" lon="0.9519964"><ele>565.75</ele><time>2026-05-04T14:44:29.891Z</time></trkpt><trkpt lat="41.4439123" lon="0.9521212"><ele>566.5</ele><time>2026-05-04T14:44:30.892Z</time></trkpt><trkpt lat="41.443809" lon="0.9522427"><ele>567.25</ele><time>2026-05-04T14:44:31.891Z</time></trkpt><trkpt lat="41.4437083" lon="0.9523613"><ele>568.0</ele><time>2026-05-04T14:44:32.892Z</time></trkpt><trkpt lat="41.4435997" lon="0.9524783"><ele>569.0</ele><time>2026-05-04T14:44:33.892Z</time></trkpt><trkpt lat="41.4434965" lon="0.9525973"><ele>570.0</ele><time>2026-05-04T14:44:34.892Z</time></trkpt><trkpt lat="41.4433908" lon="0.9527136"><ele>571.0</ele><time>2026-05-04T14:44:35.892Z</time></trkpt><trkpt lat="41.44328" lon="0.9528326"><ele>572.0</ele><time>2026-05-04T14:44:36.892Z</time></trkpt><trkpt lat="41.4431687" lon="0.9529516"><ele>572.0</ele><time>2026-05-04T14:44:37.892Z</time></trkpt><trkpt lat="41.4430602" lon="0.9530749"><ele>572.0</ele><time>2026-05-04T14:44:38.892Z</time></trkpt><trkpt lat="41.4429535" lon="0.9531915"><ele>572.0</ele><time>2026-05-04T14:44:39.892Z</time></trkpt><trkpt lat="41.4428466" lon="0.9533153"><ele>572.0</ele><time>2026-05-04T14:44:40.892Z</time></trkpt><trkpt lat="41.4427406" lon="0.9534318"><ele>573.5</ele><time>2026-05-04T14:44:41.892Z</time></trkpt><trkpt lat="41.4426415" lon="0.9535439"><ele>575.0</ele><time>2026-05-04T14:44:42.892Z</time></trkpt><trkpt lat="41.4425393" lon="0.9536554"><ele>576.5</ele><time>2026-05-04T14:44:43.892Z</time></trkpt><trkpt lat="41.442443" lon="0.9537659"><ele>578.0</ele><time>2026-05-04T14:44:44.892Z</time></trkpt><trkpt lat="41.442345" lon="0.9538766"><ele>578.0</ele><time>2026-05-04T14:44:45.892Z</time></trkpt><trkpt lat="41.4422498" lon="0.9539843"><ele>578.0</ele><time>2026-05-04T14:44:46.892Z</time></trkpt><trkpt lat="41.4421523" lon="0.9540907"><ele>578.0</ele><time>2026-05-04T14:44:47.892Z</time></trkpt><trkpt lat="41.4420513" lon="0.9541954"><ele>578.0</ele><time>2026-05-04T14:44:48.891Z</time></trkpt><trkpt lat="41.4419517" lon="0.9543026"><ele>578.25</ele><time>2026-05-04T14:44:49.892Z</time></trkpt><trkpt lat="41.441857" lon="0.9544119"><ele>578.5</ele><time>2026-05-04T14:44:50.892Z</time></trkpt><trkpt lat="41.4417594" lon="0.9545191"><ele>578.75</ele><time>2026-05-04T14:44:51.892Z</time></trkpt><trkpt lat="41.4416602" lon="0.9546352"><ele>579.0</ele><time>2026-05-04T14:44:52.891Z</time></trkpt><trkpt lat="41.4415668" lon="0.9547504"><ele>579.0</ele><time>2026-05-04T14:44:53.892Z</time></trkpt><trkpt lat="41.4414695" lon="0.9548654"><ele>579.0</ele><time>2026-05-04T14:44:54.892Z</time></trkpt><trkpt lat="41.4413692" lon="0.954979"><ele>579.0</ele><time>2026-05-04T14:44:55.892Z</time></trkpt><trkpt lat="41.4412722" lon="0.9550904"><ele>579.0</ele><time>2026-05-04T14:44:56.892Z</time></trkpt><trkpt lat="41.4411727" lon="0.9551964"><ele>579.5</ele><time>2026-05-04T14:44:57.892Z</time></trkpt><trkpt lat="41.441067" lon="0.9553096"><ele>580.0</ele><time>2026-05-04T14:44:58.892Z</time></trkpt><trkpt lat="41.4409683" lon="0.9554171"><ele>580.5</ele><time>2026-05-04T14:44:59.891Z</time></trkpt><trkpt lat="41.4408696" lon="0.9555218"><ele>581.0</ele><time>2026-05-04T14:45:00.892Z</time></trkpt><trkpt lat="41.4407773" lon="0.9556251"><ele>581.0</ele><time>2026-05-04T14:45:01.892Z</time></trkpt><trkpt lat="41.4406851" lon="0.9557312"><ele>581.0</ele><time>2026-05-04T14:45:02.892Z</time></trkpt><trkpt lat="41.4405923" lon="0.9558362"><ele>581.0</ele><time>2026-05-04T14:45:03.892Z</time></trkpt><trkpt lat="41.4404989" lon="0.9559378"><ele>581.0</ele><time>2026-05-04T14:45:04.892Z</time></trkpt><trkpt lat="41.4404071" lon="0.9560353"><ele>581.5</ele><time>2026-05-04T14:45:05.891Z</time></trkpt><trkpt lat="41.4403092" lon="0.9561307"><ele>582.0</ele><time>2026-05-04T14:45:06.891Z</time></trkpt><trkpt lat="41.4402113" lon="0.9562292"><ele>582.5</ele><time>2026-05-04T14:45:07.892Z</time></trkpt><trkpt lat="41.4401066" lon="0.9563204"><ele>583.0</ele><time>2026-05-04T14:45:08.892Z</time></trkpt><trkpt lat="41.4399956" lon="0.9564094"><ele>583.0</ele><time>2026-05-04T14:45:09.891Z</time></trkpt><trkpt lat="41.4398787" lon="0.9564824"><ele>583.0</ele><time>2026-05-04T14:45:10.892Z</time></trkpt><trkpt lat="41.4397543" lon="0.9565516"><ele>583.0</ele><time>2026-05-04T14:45:11.892Z</time></trkpt><trkpt lat="41.4396291" lon="0.9566132"><ele>583.0</ele><time>2026-05-04T14:45:12.892Z</time></trkpt><trkpt lat="41.439505" lon="0.9566734"><ele>579.0</ele><time>2026-05-04T14:45:13.892Z</time></trkpt><trkpt lat="41.4393735" lon="0.9567381"><ele>575.0</ele><time>2026-05-04T14:45:14.892Z</time></trkpt><trkpt lat="41.439241" lon="0.9567985"><ele>571.0</ele><time>2026-05-04T14:45:15.892Z</time></trkpt><trkpt lat="41.4391039" lon="0.9568648"><ele>567.0</ele><time>2026-05-04T14:45:16.892Z</time></trkpt><trkpt lat="41.4389705" lon="0.9569323"><ele>567.0</ele><time>2026-05-04T14:45:17.891Z</time></trkpt><trkpt lat="41.438836" lon="0.9570076"><ele>567.0</ele><time>2026-05-04T14:45:18.891Z</time></trkpt><trkpt lat="41.4387026" lon="0.9570946"><ele>567.0</ele><time>2026-05-04T14:45:19.892Z</time></trkpt><trkpt lat="41.438569" lon="0.9571996"><ele>567.0</ele><time>2026-05-04T14:45:20.893Z</time></trkpt><trkpt lat="41.4384408" lon="0.9573175"><ele>569.6666666666666</ele><time>2026-05-04T14:45:21.893Z</time></trkpt><trkpt lat="41.4383175" lon="0.9574516"><ele>572.3333333333333</ele><time>2026-05-04T14:45:22.893Z</time></trkpt><trkpt lat="41.4381991" lon="0.957601"><ele>575.0</ele><time>2026-05-04T14:45:23.893Z</time></trkpt><trkpt lat="41.4380858" lon="0.9577643"><ele>576.3333333333333</ele><time>2026-05-04T14:45:24.893Z</time></trkpt><trkpt lat="41.4379801" lon="0.9579374"><ele>577.6666666666666</ele><time>2026-05-04T14:45:25.893Z</time></trkpt><trkpt lat="41.4378769" lon="0.9581182"><ele>579.0</ele><time>2026-05-04T14:45:26.893Z</time></trkpt><trkpt lat="41.4377767" lon="0.9583074"><ele>572.0</ele><time>2026-05-04T14:45:27.893Z</time></trkpt><trkpt lat="41.4376848" lon="0.95851"><ele>565.0</ele><time>2026-05-04T14:45:28.893Z</time></trkpt><trkpt lat="41.4375921" lon="0.9587093"><ele>558.0</ele><time>2026-05-04T14:45:29.893Z</time></trkpt><trkpt lat="41.4374983" lon="0.9589046"><ele>558.0</ele><time>2026-05-04T14:45:30.893Z</time></trkpt><trkpt lat="41.4374006" lon="0.959104"><ele>558.0</ele><time>2026-05-04T14:45:31.893Z</time></trkpt><trkpt lat="41.4373022" lon="0.9593047"><ele>558.0</ele><time>2026-05-04T14:45:32.893Z</time></trkpt><trkpt lat="41.4371911" lon="0.9595099"><ele>554.0</ele><time>2026-05-04T14:45:33.893Z</time></trkpt><trkpt lat="41.4370798" lon="0.9597143"><ele>550.0</ele><time>2026-05-04T14:45:34.893Z</time></trkpt><trkpt lat="41.4369638" lon="0.9599233"><ele>546.0</ele><time>2026-05-04T14:45:35.893Z</time></trkpt><trkpt lat="41.436852" lon="0.9601303"><ele>546.0</ele><time>2026-05-04T14:45:36.893Z</time></trkpt><trkpt lat="41.4367404" lon="0.9603307"><ele>546.0</ele><time>2026-05-04T14:45:37.893Z</time></trkpt><trkpt lat="41.4366328" lon="0.9605356"><ele>546.0</ele><time>2026-05-04T14:45:38.893Z</time></trkpt><trkpt lat="41.4365335" lon="0.9607362"><ele>545.0</ele><time>2026-05-04T14:45:39.893Z</time></trkpt><trkpt lat="41.436448" lon="0.9609336"><ele>544.0</ele><time>2026-05-04T14:45:40.893Z</time></trkpt><trkpt lat="41.4363687" lon="0.9611296"><ele>543.0</ele><time>2026-05-04T14:45:41.893Z</time></trkpt><trkpt lat="41.436301" lon="0.9613298"><ele>539.0</ele><time>2026-05-04T14:45:42.893Z</time></trkpt><trkpt lat="41.4362313" lon="0.9615309"><ele>535.0</ele><time>2026-05-04T14:45:43.893Z</time></trkpt><trkpt lat="41.4361659" lon="0.9617393"><ele>531.0</ele><time>2026-05-04T14:45:44.893Z</time></trkpt><trkpt lat="41.4361053" lon="0.9619543"><ele>530.0</ele><time>2026-05-04T14:45:45.893Z</time></trkpt><trkpt lat="41.4360413" lon="0.9621734"><ele>529.0</ele><time>2026-05-04T14:45:46.893Z</time></trkpt><trkpt lat="41.4359756" lon="0.9623945"><ele>528.0</ele><time>2026-05-04T14:45:47.893Z</time></trkpt><trkpt lat="41.4359092" lon="0.9626174"><ele>526.0</ele><time>2026-05-04T14:45:48.893Z</time></trkpt><trkpt lat="41.4358444" lon="0.962835"><ele>524.0</ele><time>2026-05-04T14:45:49.893Z</time></trkpt><trkpt lat="41.4357832" lon="0.9630516"><ele>522.0</ele><time>2026-05-04T14:45:50.893Z</time></trkpt><trkpt lat="41.4357214" lon="0.9632708"><ele>520.3333333333334</ele><time>2026-05-04T14:45:51.893Z</time></trkpt><trkpt lat="41.4356575" lon="0.9634968"><ele>518.6666666666667</ele><time>2026-05-04T14:45:52.893Z</time></trkpt><trkpt lat="41.4355957" lon="0.9637191"><ele>517.0</ele><time>2026-05-04T14:45:53.892Z</time></trkpt><trkpt lat="41.4355348" lon="0.9639325"><ele>517.0</ele><time>2026-05-04T14:45:54.893Z</time></trkpt><trkpt lat="41.4354763" lon="0.964135"><ele>517.0</ele><time>2026-05-04T14:45:55.893Z</time></trkpt><trkpt lat="41.4354186" lon="0.9643338"><ele>517.0</ele><time>2026-05-04T14:45:56.893Z</time></trkpt><trkpt lat="41.435357" lon="0.9645165"><ele>517.25</ele><time>2026-05-04T14:45:57.892Z</time></trkpt><trkpt lat="41.4352897" lon="0.9646886"><ele>517.5</ele><time>2026-05-04T14:45:58.893Z</time></trkpt><trkpt lat="41.4352127" lon="0.9648488"><ele>517.75</ele><time>2026-05-04T14:45:59.893Z</time></trkpt><trkpt lat="41.4351296" lon="0.9650033"><ele>518.0</ele><time>2026-05-04T14:46:00.893Z</time></trkpt><trkpt lat="41.435046" lon="0.9651467"><ele>517.25</ele><time>2026-05-04T14:46:01.893Z</time></trkpt><trkpt lat="41.4349611" lon="0.9652823"><ele>516.5</ele><time>2026-05-04T14:46:02.893Z</time></trkpt><trkpt lat="41.4348719" lon="0.9654053"><ele>515.75</ele><time>2026-05-04T14:46:03.893Z</time></trkpt><trkpt lat="41.4347798" lon="0.9655197"><ele>515.0</ele><time>2026-05-04T14:46:04.893Z</time></trkpt><trkpt lat="41.4346856" lon="0.9656256"><ele>515.75</ele><time>2026-05-04T14:46:05.892Z</time></trkpt><trkpt lat="41.4345945" lon="0.9657239"><ele>516.5</ele><time>2026-05-04T14:46:06.893Z</time></trkpt><trkpt lat="41.4345006" lon="0.9658192"><ele>517.25</ele><time>2026-05-04T14:46:07.892Z</time></trkpt><trkpt lat="41.4344031" lon="0.9659147"><ele>518.0</ele><time>2026-05-04T14:46:08.893Z</time></trkpt><trkpt lat="41.434305" lon="0.9660059"><ele>519.0</ele><time>2026-05-04T14:46:09.892Z</time></trkpt><trkpt lat="41.4342083" lon="0.9660907"><ele>520.0</ele><time>2026-05-04T14:46:10.893Z</time></trkpt><trkpt lat="41.4341107" lon="0.9661742"><ele>521.0</ele><time>2026-05-04T14:46:11.893Z</time></trkpt><trkpt lat="41.4340128" lon="0.9662655"><ele>522.0</ele><time>2026-05-04T14:46:12.893Z</time></trkpt><trkpt lat="41.433916" lon="0.9663559"><ele>522.0</ele><time>2026-05-04T14:46:13.893Z</time></trkpt><trkpt lat="41.4338136" lon="0.9664474"><ele>522.0</ele><time>2026-05-04T14:46:14.893Z</time></trkpt><trkpt lat="41.4337121" lon="0.9665446"><ele>522.0</ele><time>2026-05-04T14:46:15.893Z</time></trkpt><trkpt lat="41.4336131" lon="0.9666467"><ele>522.0</ele><time>2026-05-04T14:46:16.892Z</time></trkpt><trkpt lat="41.433521" lon="0.9667457"><ele>521.5</ele><time>2026-05-04T14:46:17.893Z</time></trkpt><trkpt lat="41.4334342" lon="0.9668486"><ele>521.0</ele><time>2026-05-04T14:46:18.893Z</time></trkpt><trkpt lat="41.4333472" lon="0.9669592"><ele>520.5</ele><time>2026-05-04T14:46:19.893Z</time></trkpt><trkpt lat="41.4332677" lon="0.967076"><ele>520.0</ele><time>2026-05-04T14:46:20.893Z</time></trkpt><trkpt lat="41.4331931" lon="0.9671958"><ele>520.0</ele><time>2026-05-04T14:46:21.893Z</time></trkpt><trkpt lat="41.433119" lon="0.9673131"><ele>520.0</ele><time>2026-05-04T14:46:22.893Z</time></trkpt><trkpt lat="41.4330525" lon="0.9674371"><ele>520.0</ele><time>2026-05-04T14:46:23.893Z</time></trkpt><trkpt lat="41.4329884" lon="0.967568"><ele>520.0</ele><time>2026-05-04T14:46:24.893Z</time></trkpt><trkpt lat="41.4329245" lon="0.9676982"><ele>519.0</ele><time>2026-05-04T14:46:25.893Z</time></trkpt><trkpt lat="41.4328651" lon="0.9678362"><ele>518.0</ele><time>2026-05-04T14:46:26.893Z</time></trkpt><trkpt lat="41.432811" lon="0.9679877"><ele>517.0</ele><time>2026-05-04T14:46:27.893Z</time></trkpt><trkpt lat="41.4327561" lon="0.968133"><ele>516.0</ele><time>2026-05-04T14:46:28.893Z</time></trkpt><trkpt lat="41.4327094" lon="0.9682807"><ele>516.25</ele><time>2026-05-04T14:46:29.893Z</time></trkpt><trkpt lat="41.4326696" lon="0.9684303"><ele>516.5</ele><time>2026-05-04T14:46:30.893Z</time></trkpt><trkpt lat="41.4326287" lon="0.968581"><ele>516.75</ele><time>2026-05-04T14:46:31.892Z</time></trkpt><trkpt lat="41.4325925" lon="0.9687432"><ele>517.0</ele><time>2026-05-04T14:46:32.893Z</time></trkpt><trkpt lat="41.4325543" lon="0.9688992"><ele>517.0</ele><time>2026-05-04T14:46:33.893Z</time></trkpt><trkpt lat="41.4325178" lon="0.9690578"><ele>517.0</ele><time>2026-05-04T14:46:34.893Z</time></trkpt><trkpt lat="41.4324903" lon="0.9692162"><ele>517.0</ele><time>2026-05-04T14:46:35.893Z</time></trkpt><trkpt lat="41.4324576" lon="0.9693716"><ele>517.0</ele><time>2026-05-04T14:46:36.893Z</time></trkpt><trkpt lat="41.4324313" lon="0.9695399"><ele>517.0</ele><time>2026-05-04T14:46:37.893Z</time></trkpt><trkpt lat="41.4323959" lon="0.9697088"><ele>517.0</ele><time>2026-05-04T14:46:38.893Z</time></trkpt><trkpt lat="41.4323599" lon="0.9698804"><ele>517.0</ele><time>2026-05-04T14:46:39.893Z</time></trkpt><trkpt lat="41.4323217" lon="0.9700562"><ele>517.0</ele><time>2026-05-04T14:46:40.893Z</time></trkpt><trkpt lat="41.4322915" lon="0.9702388"><ele>516.75</ele><time>2026-05-04T14:46:41.893Z</time></trkpt><trkpt lat="41.4322574" lon="0.9704244"><ele>516.5</ele><time>2026-05-04T14:46:42.893Z</time></trkpt><trkpt lat="41.4322213" lon="0.9706104"><ele>516.25</ele><time>2026-05-04T14:46:43.893Z</time></trkpt><trkpt lat="41.43218" lon="0.970807"><ele>516.0</ele><time>2026-05-04T14:46:44.892Z</time></trkpt><trkpt lat="41.4321413" lon="0.9710033"><ele>512.0</ele><time>2026-05-04T14:46:45.893Z</time></trkpt><trkpt lat="41.4321049" lon="0.9712061"><ele>508.0</ele><time>2026-05-04T14:46:46.892Z</time></trkpt><trkpt lat="41.4320681" lon="0.9714073"><ele>504.0</ele><time>2026-05-04T14:46:47.893Z</time></trkpt><trkpt lat="41.4320294" lon="0.9716127"><ele>503.66666666666663</ele><time>2026-05-04T14:46:48.893Z</time></trkpt><trkpt lat="41.4319877" lon="0.9718212"><ele>503.3333333333333</ele><time>2026-05-04T14:46:49.893Z</time></trkpt><trkpt lat="41.4319436" lon="0.9720338"><ele>503.0</ele><time>2026-05-04T14:46:50.893Z</time></trkpt><trkpt lat="41.4319036" lon="0.9722449"><ele>503.0</ele><time>2026-05-04T14:46:51.893Z</time></trkpt><trkpt lat="41.431866" lon="0.9724564"><ele>503.0</ele><time>2026-05-04T14:46:52.893Z</time></trkpt><trkpt lat="41.4318271" lon="0.9726577"><ele>503.0</ele><time>2026-05-04T14:46:53.893Z</time></trkpt><trkpt lat="41.4317882" lon="0.9728626"><ele>502.0</ele><time>2026-05-04T14:46:54.893Z</time></trkpt><trkpt lat="41.4317524" lon="0.9730716"><ele>501.0</ele><time>2026-05-04T14:46:55.893Z</time></trkpt><trkpt lat="41.4317151" lon="0.9732842"><ele>500.0</ele><time>2026-05-04T14:46:56.893Z</time></trkpt><trkpt lat="41.4316767" lon="0.9734978"><ele>497.3333333333333</ele><time>2026-05-04T14:46:57.892Z</time></trkpt><trkpt lat="41.4316365" lon="0.9737138"><ele>494.66666666666663</ele><time>2026-05-04T14:46:58.893Z</time></trkpt><trkpt lat="41.4315976" lon="0.973929"><ele>492.0</ele><time>2026-05-04T14:46:59.893Z</time></trkpt><trkpt lat="41.4315577" lon="0.9741411"><ele>489.66666666666663</ele><time>2026-05-04T14:47:00.892Z</time></trkpt><trkpt lat="41.4315187" lon="0.9743577"><ele>487.3333333333333</ele><time>2026-05-04T14:47:01.893Z</time></trkpt><trkpt lat="41.4314812" lon="0.9745711"><ele>485.0</ele><time>2026-05-04T14:47:02.893Z</time></trkpt><trkpt lat="41.4314393" lon="0.9747785"><ele>485.0</ele><time>2026-05-04T14:47:03.893Z</time></trkpt><trkpt lat="41.4314016" lon="0.9749805"><ele>485.0</ele><time>2026-05-04T14:47:04.892Z</time></trkpt><trkpt lat="41.4313647" lon="0.9751774"><ele>485.0</ele><time>2026-05-04T14:47:05.893Z</time></trkpt><trkpt lat="41.4313293" lon="0.9753774"><ele>484.25</ele><time>2026-05-04T14:47:06.893Z</time></trkpt><trkpt lat="41.4312873" lon="0.97557"><ele>483.5</ele><time>2026-05-04T14:47:07.893Z</time></trkpt><trkpt lat="41.4312485" lon="0.9757586"><ele>482.75</ele><time>2026-05-04T14:47:08.893Z</time></trkpt><trkpt lat="41.4312115" lon="0.9759435"><ele>482.0</ele><time>2026-05-04T14:47:09.893Z</time></trkpt><trkpt lat="41.4311793" lon="0.9761244"><ele>482.0</ele><time>2026-05-04T14:47:10.893Z</time></trkpt><trkpt lat="41.4311392" lon="0.9763097"><ele>482.0</ele><time>2026-05-04T14:47:11.893Z</time></trkpt><trkpt lat="41.4310912" lon="0.9764939"><ele>482.0</ele><time>2026-05-04T14:47:12.893Z</time></trkpt><trkpt lat="41.4310292" lon="0.9766816"><ele>482.0</ele><time>2026-05-04T14:47:13.893Z</time></trkpt><trkpt lat="41.4309607" lon="0.9768645"><ele>480.5</ele><time>2026-05-04T14:47:14.893Z</time></trkpt><trkpt lat="41.4308941" lon="0.9770398"><ele>479.0</ele><time>2026-05-04T14:47:15.893Z</time></trkpt><trkpt lat="41.4308251" lon="0.9772017"><ele>477.5</ele><time>2026-05-04T14:47:16.893Z</time></trkpt><trkpt lat="41.4307505" lon="0.9773684"><ele>476.0</ele><time>2026-05-04T14:47:17.893Z</time></trkpt><trkpt lat="41.4306681" lon="0.9775365"><ele>475.0</ele><time>2026-05-04T14:47:18.893Z</time></trkpt><trkpt lat="41.43058" lon="0.9776936"><ele>474.0</ele><time>2026-05-04T14:47:19.893Z</time></trkpt><trkpt lat="41.4304919" lon="0.9778383"><ele>473.0</ele><time>2026-05-04T14:47:20.893Z</time></trkpt><trkpt lat="41.4304002" lon="0.9779771"><ele>472.0</ele><time>2026-05-04T14:47:21.892Z</time></trkpt><trkpt lat="41.4303116" lon="0.9781065"><ele>472.0</ele><time>2026-05-04T14:47:22.893Z</time></trkpt><trkpt lat="41.4302199" lon="0.978236"><ele>472.0</ele><time>2026-05-04T14:47:23.893Z</time></trkpt><trkpt lat="41.4301244" lon="0.9783571"><ele>472.0</ele><time>2026-05-04T14:47:24.893Z</time></trkpt><trkpt lat="41.4300257" lon="0.9784748"><ele>472.0</ele><time>2026-05-04T14:47:25.893Z</time></trkpt><trkpt lat="41.4299213" lon="0.9785893"><ele>472.5</ele><time>2026-05-04T14:47:26.893Z</time></trkpt><trkpt lat="41.4298138" lon="0.9787014"><ele>473.0</ele><time>2026-05-04T14:47:27.893Z</time></trkpt><trkpt lat="41.4297083" lon="0.9788109"><ele>473.5</ele><time>2026-05-04T14:47:28.893Z</time></trkpt><trkpt lat="41.4296099" lon="0.9789222"><ele>474.0</ele><time>2026-05-04T14:47:29.893Z</time></trkpt><trkpt lat="41.4295108" lon="0.9790285"><ele>474.5</ele><time>2026-05-04T14:47:30.893Z</time></trkpt><trkpt lat="41.4294136" lon="0.9791315"><ele>475.0</ele><time>2026-05-04T14:47:31.893Z</time></trkpt><trkpt lat="41.429316" lon="0.9792368"><ele>475.5</ele><time>2026-05-04T14:47:32.893Z</time></trkpt><trkpt lat="41.429216" lon="0.9793413"><ele>476.0</ele><time>2026-05-04T14:47:33.892Z</time></trkpt><trkpt lat="41.4291182" lon="0.9794449"><ele>476.25</ele><time>2026-05-04T14:47:34.893Z</time></trkpt><trkpt lat="41.429021" lon="0.9795447"><ele>476.5</ele><time>2026-05-04T14:47:35.893Z</time></trkpt><trkpt lat="41.4289281" lon="0.9796524"><ele>476.75</ele><time>2026-05-04T14:47:36.892Z</time></trkpt><trkpt lat="41.4288338" lon="0.9797486"><ele>477.0</ele><time>2026-05-04T14:47:37.892Z</time></trkpt><trkpt lat="41.4287352" lon="0.9798452"><ele>477.0</ele><time>2026-05-04T14:47:38.893Z</time></trkpt><trkpt lat="41.4286358" lon="0.979949"><ele>477.0</ele><time>2026-05-04T14:47:39.892Z</time></trkpt><trkpt lat="41.428539" lon="0.9800518"><ele>477.0</ele><time>2026-05-04T14:47:40.892Z</time></trkpt><trkpt lat="41.4284424" lon="0.9801568"><ele>477.0</ele><time>2026-05-04T14:47:41.892Z</time></trkpt><trkpt lat="41.4283519" lon="0.9802663"><ele>477.25</ele><time>2026-05-04T14:47:42.893Z</time></trkpt><trkpt lat="41.4282603" lon="0.9803757"><ele>477.5</ele><time>2026-05-04T14:47:43.893Z</time></trkpt><trkpt lat="41.4281678" lon="0.9804863"><ele>477.75</ele><time>2026-05-04T14:47:44.893Z</time></trkpt><trkpt lat="41.4280744" lon="0.9806049"><ele>478.0</ele><time>2026-05-04T14:47:45.892Z</time></trkpt><trkpt lat="41.4279932" lon="0.9807277"><ele>479.0</ele><time>2026-05-04T14:47:46.893Z</time></trkpt><trkpt lat="41.4279117" lon="0.980861"><ele>480.0</ele><time>2026-05-04T14:47:47.893Z</time></trkpt><trkpt lat="41.4278336" lon="0.9809938"><ele>481.0</ele><time>2026-05-04T14:47:48.893Z</time></trkpt><trkpt lat="41.4277573" lon="0.9811314"><ele>482.0</ele><time>2026-05-04T14:47:49.893Z</time></trkpt><trkpt lat="41.4276841" lon="0.9812718"><ele>482.0</ele><time>2026-05-04T14:47:50.893Z</time></trkpt><trkpt lat="41.4276155" lon="0.9814184"><ele>482.0</ele><time>2026-05-04T14:47:51.894Z</time></trkpt><trkpt lat="41.4275488" lon="0.9815619"><ele>482.0</ele><time>2026-05-04T14:47:52.894Z</time></trkpt><trkpt lat="41.42749" lon="0.9817097"><ele>482.0</ele><time>2026-05-04T14:47:53.894Z</time></trkpt><trkpt lat="41.4274343" lon="0.9818566"><ele>482.25</ele><time>2026-05-04T14:47:54.894Z</time></trkpt><trkpt lat="41.4273866" lon="0.9820112"><ele>482.5</ele><time>2026-05-04T14:47:55.893Z</time></trkpt><trkpt lat="41.427343" lon="0.9821594"><ele>482.75</ele><time>2026-05-04T14:47:56.894Z</time></trkpt><trkpt lat="41.4272944" lon="0.9823123"><ele>483.0</ele><time>2026-05-04T14:47:57.894Z</time></trkpt><trkpt lat="41.4272471" lon="0.9824521"><ele>484.0</ele><time>2026-05-04T14:47:58.894Z</time></trkpt><trkpt lat="41.4272013" lon="0.9825878"><ele>484.99999999999994</ele><time>2026-05-04T14:47:59.894Z</time></trkpt><trkpt lat="41.4271594" lon="0.9827237"><ele>485.99999999999994</ele><time>2026-05-04T14:48:00.894Z</time></trkpt><trkpt lat="41.42712" lon="0.9828601"><ele>487.0</ele><time>2026-05-04T14:48:01.894Z</time></trkpt><trkpt lat="41.4270787" lon="0.9829995"><ele>488.0</ele><time>2026-05-04T14:48:02.894Z</time></trkpt><trkpt lat="41.4270396" lon="0.9831348"><ele>488.79999999999995</ele><time>2026-05-04T14:48:03.894Z</time></trkpt><trkpt lat="41.4270006" lon="0.9832647"><ele>489.59999999999997</ele><time>2026-05-04T14:48:04.894Z</time></trkpt><trkpt lat="41.4269599" lon="0.9834003"><ele>490.40000000000003</ele><time>2026-05-04T14:48:05.893Z</time></trkpt><trkpt lat="41.4269183" lon="0.983537"><ele>491.20000000000005</ele><time>2026-05-04T14:48:06.894Z</time></trkpt><trkpt lat="41.4268734" lon="0.9836667"><ele>492.0</ele><time>2026-05-04T14:48:07.894Z</time></trkpt><trkpt lat="41.4268269" lon="0.9837975"><ele>492.20000000000005</ele><time>2026-05-04T14:48:08.894Z</time></trkpt><trkpt lat="41.4267768" lon="0.9839228"><ele>492.40000000000003</ele><time>2026-05-04T14:48:09.894Z</time></trkpt><trkpt lat="41.4267265" lon="0.9840468"><ele>492.59999999999997</ele><time>2026-05-04T14:48:10.894Z</time></trkpt><trkpt lat="41.4266751" lon="0.9841702"><ele>492.79999999999995</ele><time>2026-05-04T14:48:11.894Z</time></trkpt><trkpt lat="41.4266218" lon="0.9842889"><ele>493.0</ele><time>2026-05-04T14:48:12.893Z</time></trkpt><trkpt lat="41.4265594" lon="0.984395"><ele>493.0</ele><time>2026-05-04T14:48:13.894Z</time></trkpt><trkpt lat="41.4264867" lon="0.9845029"><ele>492.99999999999994</ele><time>2026-05-04T14:48:14.894Z</time></trkpt><trkpt lat="41.4264141" lon="0.9846061"><ele>492.99999999999994</ele><time>2026-05-04T14:48:15.894Z</time></trkpt><trkpt lat="41.4263414" lon="0.9847038"><ele>493.0</ele><time>2026-05-04T14:48:16.894Z</time></trkpt><trkpt lat="41.426267" lon="0.9848027"><ele>493.0</ele><time>2026-05-04T14:48:17.894Z</time></trkpt><trkpt lat="41.4261891" lon="0.9849004"><ele>493.0</ele><time>2026-05-04T14:48:18.893Z</time></trkpt><trkpt lat="41.426109" lon="0.9849968"><ele>492.99999999999994</ele><time>2026-05-04T14:48:19.893Z</time></trkpt><trkpt lat="41.4260261" lon="0.9850835"><ele>492.99999999999994</ele><time>2026-05-04T14:48:20.894Z</time></trkpt><trkpt lat="41.4259421" lon="0.9851755"><ele>493.0</ele><time>2026-05-04T14:48:21.894Z</time></trkpt><trkpt lat="41.4258574" lon="0.9852689"><ele>493.0</ele><time>2026-05-04T14:48:22.894Z</time></trkpt><trkpt lat="41.4257763" lon="0.9853719"><ele>493.0</ele><time>2026-05-04T14:48:23.894Z</time></trkpt><trkpt lat="41.4256922" lon="0.9854721"><ele>492.99999999999994</ele><time>2026-05-04T14:48:24.894Z</time></trkpt><trkpt lat="41.4256097" lon="0.9855731"><ele>492.99999999999994</ele><time>2026-05-04T14:48:25.894Z</time></trkpt><trkpt lat="41.4255241" lon="0.9856775"><ele>493.0</ele><time>2026-05-04T14:48:26.893Z</time></trkpt><trkpt lat="41.4254442" lon="0.9857747"><ele>493.0</ele><time>2026-05-04T14:48:27.894Z</time></trkpt><trkpt lat="41.4253625" lon="0.9858716"><ele>494.0</ele><time>2026-05-04T14:48:28.894Z</time></trkpt><trkpt lat="41.4252828" lon="0.9859711"><ele>494.99999999999994</ele><time>2026-05-04T14:48:29.894Z</time></trkpt><trkpt lat="41.4252074" lon="0.9860722"><ele>495.99999999999994</ele><time>2026-05-04T14:48:30.894Z</time></trkpt><trkpt lat="41.4251275" lon="0.9861638"><ele>497.0</ele><time>2026-05-04T14:48:31.893Z</time></trkpt><trkpt lat="41.4250502" lon="0.9862604"><ele>498.0</ele><time>2026-05-04T14:48:32.894Z</time></trkpt><trkpt lat="41.4249728" lon="0.9863544"><ele>498.0</ele><time>2026-05-04T14:48:33.894Z</time></trkpt><trkpt lat="41.4248983" lon="0.9864513"><ele>497.99999999999994</ele><time>2026-05-04T14:48:34.894Z</time></trkpt><trkpt lat="41.424824" lon="0.9865484"><ele>497.99999999999994</ele><time>2026-05-04T14:48:35.894Z</time></trkpt><trkpt lat="41.4247484" lon="0.9866409"><ele>498.0</ele><time>2026-05-04T14:48:36.894Z</time></trkpt><trkpt lat="41.4246763" lon="0.98673"><ele>498.0</ele><time>2026-05-04T14:48:37.894Z</time></trkpt><trkpt lat="41.4246039" lon="0.9868181"><ele>499.59999999999997</ele><time>2026-05-04T14:48:38.894Z</time></trkpt><trkpt lat="41.4245262" lon="0.9869061"><ele>501.19999999999993</ele><time>2026-05-04T14:48:39.894Z</time></trkpt><trkpt lat="41.4244532" lon="0.986987"><ele>502.8</ele><time>2026-05-04T14:48:40.893Z</time></trkpt><trkpt lat="41.4243825" lon="0.9870621"><ele>504.4</ele><time>2026-05-04T14:48:41.894Z</time></trkpt><trkpt lat="41.4243065" lon="0.9871407"><ele>506.0</ele><time>2026-05-04T14:48:42.893Z</time></trkpt><trkpt lat="41.4242316" lon="0.9872165"><ele>506.0</ele><time>2026-05-04T14:48:43.894Z</time></trkpt><trkpt lat="41.424158" lon="0.9872848"><ele>506.0</ele><time>2026-05-04T14:48:44.894Z</time></trkpt><trkpt lat="41.4240777" lon="0.9873495"><ele>506.0</ele><time>2026-05-04T14:48:45.893Z</time></trkpt><trkpt lat="41.4240038" lon="0.9874133"><ele>506.0</ele><time>2026-05-04T14:48:46.893Z</time></trkpt><trkpt lat="41.4239227" lon="0.9874802"><ele>506.0</ele><time>2026-05-04T14:48:47.894Z</time></trkpt><trkpt lat="41.4238445" lon="0.9875407"><ele>508.99999999999994</ele><time>2026-05-04T14:48:48.894Z</time></trkpt><trkpt lat="41.4237662" lon="0.987593"><ele>512.0</ele><time>2026-05-04T14:48:49.894Z</time></trkpt><trkpt lat="41.4236909" lon="0.9876445"><ele>515.0</ele><time>2026-05-04T14:48:50.894Z</time></trkpt><trkpt lat="41.4236158" lon="0.9876953"><ele>518.0</ele><time>2026-05-04T14:48:51.894Z</time></trkpt><trkpt lat="41.4235363" lon="0.9877481"><ele>521.0</ele><time>2026-05-04T14:48:52.894Z</time></trkpt><trkpt lat="41.4234562" lon="0.9877961"><ele>524.0</ele><time>2026-05-04T14:48:53.893Z</time></trkpt><trkpt lat="41.4233755" lon="0.9878409"><ele>524.0</ele><time>2026-05-04T14:48:54.894Z</time></trkpt><trkpt lat="41.4232896" lon="0.9878883"><ele>524.0</ele><time>2026-05-04T14:48:55.894Z</time></trkpt><trkpt lat="41.4232059" lon="0.987944"><ele>524.0</ele><time>2026-05-04T14:48:56.894Z</time></trkpt><trkpt lat="41.4231232" lon="0.9879939"><ele>524.0</ele><time>2026-05-04T14:48:57.894Z</time></trkpt><trkpt lat="41.423038" lon="0.9880444"><ele>524.0</ele><time>2026-05-04T14:48:58.894Z</time></trkpt><trkpt lat="41.4229522" lon="0.9881054"><ele>523.4</ele><time>2026-05-04T14:48:59.894Z</time></trkpt><trkpt lat="41.4228719" lon="0.9881574"><ele>522.8</ele><time>2026-05-04T14:49:00.894Z</time></trkpt><trkpt lat="41.4227861" lon="0.9882209"><ele>522.2</ele><time>2026-05-04T14:49:01.894Z</time></trkpt><trkpt lat="41.4227028" lon="0.9882776"><ele>521.6</ele><time>2026-05-04T14:49:02.894Z</time></trkpt><trkpt lat="41.4226203" lon="0.9883374"><ele>521.0</ele><time>2026-05-04T14:49:03.894Z</time></trkpt><trkpt lat="41.422535" lon="0.9884106"><ele>522.0</ele><time>2026-05-04T14:49:04.894Z</time></trkpt><trkpt lat="41.4224511" lon="0.9884838"><ele>523.0</ele><time>2026-05-04T14:49:05.894Z</time></trkpt><trkpt lat="41.422366" lon="0.9885626"><ele>524.0</ele><time>2026-05-04T14:49:06.894Z</time></trkpt><trkpt lat="41.4222842" lon="0.9886487"><ele>525.0</ele><time>2026-05-04T14:49:07.894Z</time></trkpt><trkpt lat="41.4222069" lon="0.9887349"><ele>526.0</ele><time>2026-05-04T14:49:08.894Z</time></trkpt><trkpt lat="41.4221325" lon="0.9888357"><ele>526.0</ele><time>2026-05-04T14:49:09.894Z</time></trkpt><trkpt lat="41.4220552" lon="0.9889367"><ele>526.0</ele><time>2026-05-04T14:49:10.894Z</time></trkpt><trkpt lat="41.4219855" lon="0.9890433"><ele>526.0</ele><time>2026-05-04T14:49:11.894Z</time></trkpt><trkpt lat="41.4219198" lon="0.989156"><ele>526.0</ele><time>2026-05-04T14:49:12.894Z</time></trkpt><trkpt lat="41.4218558" lon="0.9892764"><ele>526.0</ele><time>2026-05-04T14:49:13.894Z</time></trkpt><trkpt lat="41.4217981" lon="0.9893973"><ele>526.2</ele><time>2026-05-04T14:49:14.894Z</time></trkpt><trkpt lat="41.4217427" lon="0.9895277"><ele>526.4000000000001</ele><time>2026-05-04T14:49:15.894Z</time></trkpt><trkpt lat="41.4216947" lon="0.9896604"><ele>526.6</ele><time>2026-05-04T14:49:16.893Z</time></trkpt><trkpt lat="41.42165" lon="0.9897949"><ele>526.8000000000001</ele><time>2026-05-04T14:49:17.894Z</time></trkpt><trkpt lat="41.4216059" lon="0.9899326"><ele>527.0</ele><time>2026-05-04T14:49:18.894Z</time></trkpt><trkpt lat="41.4215637" lon="0.9900805"><ele>527.8000000000001</ele><time>2026-05-04T14:49:19.894Z</time></trkpt><trkpt lat="41.4215278" lon="0.9902181"><ele>528.6</ele><time>2026-05-04T14:49:20.894Z</time></trkpt><trkpt lat="41.4214989" lon="0.990364"><ele>529.4000000000001</ele><time>2026-05-04T14:49:21.894Z</time></trkpt><trkpt lat="41.4214742" lon="0.990509"><ele>530.2</ele><time>2026-05-04T14:49:22.894Z</time></trkpt><trkpt lat="41.4214571" lon="0.9906598"><ele>531.0</ele><time>2026-05-04T14:49:23.893Z</time></trkpt><trkpt lat="41.4214431" lon="0.9908082"><ele>531.0</ele><time>2026-05-04T14:49:24.894Z</time></trkpt><trkpt lat="41.421431" lon="0.9909503"><ele>531.0</ele><time>2026-05-04T14:49:25.894Z</time></trkpt><trkpt lat="41.4214185" lon="0.9911013"><ele>531.0</ele><time>2026-05-04T14:49:26.894Z</time></trkpt><trkpt lat="41.4214065" lon="0.9912516"><ele>531.0</ele><time>2026-05-04T14:49:27.894Z</time></trkpt><trkpt lat="41.4213999" lon="0.9913944"><ele>531.0</ele><time>2026-05-04T14:49:28.894Z</time></trkpt><trkpt lat="41.4213899" lon="0.9915433"><ele>531.2</ele><time>2026-05-04T14:49:29.894Z</time></trkpt><trkpt lat="41.421378" lon="0.99169"><ele>531.4000000000001</ele><time>2026-05-04T14:49:30.893Z</time></trkpt><trkpt lat="41.4213621" lon="0.9918373"><ele>531.6</ele><time>2026-05-04T14:49:31.894Z</time></trkpt><trkpt lat="41.4213493" lon="0.9919846"><ele>531.8000000000001</ele><time>2026-05-04T14:49:32.893Z</time></trkpt><trkpt lat="41.4213396" lon="0.9921298"><ele>532.0</ele><time>2026-05-04T14:49:33.894Z</time></trkpt><trkpt lat="41.4213249" lon="0.9922742"><ele>533.4</ele><time>2026-05-04T14:49:34.894Z</time></trkpt><trkpt lat="41.4213042" lon="0.9924183"><ele>534.8000000000001</ele><time>2026-05-04T14:49:35.894Z</time></trkpt><trkpt lat="41.4212849" lon="0.9925613"><ele>536.2</ele><time>2026-05-04T14:49:36.894Z</time></trkpt><trkpt lat="41.4212616" lon="0.992703"><ele>537.6</ele><time>2026-05-04T14:49:37.894Z</time></trkpt><trkpt lat="41.4212358" lon="0.9928436"><ele>539.0</ele><time>2026-05-04T14:49:38.894Z</time></trkpt><trkpt lat="41.421201" lon="0.9929852"><ele>539.0</ele><time>2026-05-04T14:49:39.894Z</time></trkpt><trkpt lat="41.4211676" lon="0.9931228"><ele>539.0</ele><time>2026-05-04T14:49:40.893Z</time></trkpt><trkpt lat="41.4211269" lon="0.9932615"><ele>539.0</ele><time>2026-05-04T14:49:41.893Z</time></trkpt><trkpt lat="41.4210832" lon="0.9933963"><ele>539.0</ele><time>2026-05-04T14:49:42.893Z</time></trkpt><trkpt lat="41.4210349" lon="0.9935331"><ele>539.0</ele><time>2026-05-04T14:49:43.894Z</time></trkpt><trkpt lat="41.4209823" lon="0.9936682"><ele>538.75</ele><time>2026-05-04T14:49:44.893Z</time></trkpt><trkpt lat="41.4209305" lon="0.9937998"><ele>538.5</ele><time>2026-05-04T14:49:45.894Z</time></trkpt><trkpt lat="41.4208724" lon="0.9939332"><ele>538.25</ele><time>2026-05-04T14:49:46.894Z</time></trkpt><trkpt lat="41.4208114" lon="0.9940661"><ele>538.0</ele><time>2026-05-04T14:49:47.893Z</time></trkpt><trkpt lat="41.4207471" lon="0.9941932"><ele>537.25</ele><time>2026-05-04T14:49:48.894Z</time></trkpt><trkpt lat="41.4206813" lon="0.99432"><ele>536.5</ele><time>2026-05-04T14:49:49.894Z</time></trkpt><trkpt lat="41.4206128" lon="0.9944467"><ele>535.75</ele><time>2026-05-04T14:49:50.894Z</time></trkpt><trkpt lat="41.4205443" lon="0.994571"><ele>535.0</ele><time>2026-05-04T14:49:51.894Z</time></trkpt><trkpt lat="41.4204762" lon="0.9946941"><ele>535.5</ele><time>2026-05-04T14:49:52.894Z</time></trkpt><trkpt lat="41.4204113" lon="0.9948193"><ele>536.0</ele><time>2026-05-04T14:49:53.894Z</time></trkpt><trkpt lat="41.4203445" lon="0.9949494"><ele>536.5</ele><time>2026-05-04T14:49:54.894Z</time></trkpt><trkpt lat="41.4202827" lon="0.9950805"><ele>537.0</ele><time>2026-05-04T14:49:55.893Z</time></trkpt><trkpt lat="41.4202153" lon="0.9952148"><ele>537.0</ele><time>2026-05-04T14:49:56.893Z</time></trkpt><trkpt lat="41.4201521" lon="0.995346"><ele>537.0</ele><time>2026-05-04T14:49:57.894Z</time></trkpt><trkpt lat="41.4200885" lon="0.9954765"><ele>537.0</ele><time>2026-05-04T14:49:58.894Z</time></trkpt><trkpt lat="41.4200267" lon="0.9956086"><ele>537.0</ele><time>2026-05-04T14:49:59.894Z</time></trkpt><trkpt lat="41.4199716" lon="0.9957343"><ele>537.0</ele><time>2026-05-04T14:50:00.894Z</time></trkpt><trkpt lat="41.4199154" lon="0.9958644"><ele>537.0</ele><time>2026-05-04T14:50:01.894Z</time></trkpt><trkpt lat="41.4198624" lon="0.9959993"><ele>537.0</ele><time>2026-05-04T14:50:02.894Z</time></trkpt><trkpt lat="41.4198144" lon="0.996133"><ele>537.0</ele><time>2026-05-04T14:50:03.894Z</time></trkpt><trkpt lat="41.4197698" lon="0.9962671"><ele>537.0</ele><time>2026-05-04T14:50:04.894Z</time></trkpt><trkpt lat="41.4197247" lon="0.9964039"><ele>537.0</ele><time>2026-05-04T14:50:05.894Z</time></trkpt><trkpt lat="41.4196861" lon="0.9965476"><ele>537.0</ele><time>2026-05-04T14:50:06.894Z</time></trkpt><trkpt lat="41.41965" lon="0.9966936"><ele>537.0</ele><time>2026-05-04T14:50:07.894Z</time></trkpt><trkpt lat="41.4196153" lon="0.9968378"><ele>537.0</ele><time>2026-05-04T14:50:08.894Z</time></trkpt><trkpt lat="41.4195774" lon="0.9969852"><ele>541.0</ele><time>2026-05-04T14:50:09.894Z</time></trkpt><trkpt lat="41.4195412" lon="0.9971325"><ele>545.0</ele><time>2026-05-04T14:50:10.894Z</time></trkpt><trkpt lat="41.4195093" lon="0.9972816"><ele>549.0</ele><time>2026-05-04T14:50:11.894Z</time></trkpt><trkpt lat="41.4194738" lon="0.9974292"><ele>553.0</ele><time>2026-05-04T14:50:12.894Z</time></trkpt><trkpt lat="41.4194392" lon="0.9975786"><ele>553.0</ele><time>2026-05-04T14:50:13.894Z</time></trkpt><trkpt lat="41.4193993" lon="0.9977242"><ele>553.0</ele><time>2026-05-04T14:50:14.894Z</time></trkpt><trkpt lat="41.4193593" lon="0.9978752"><ele>553.0</ele><time>2026-05-04T14:50:15.894Z</time></trkpt><trkpt lat="41.4193217" lon="0.9980258"><ele>553.0</ele><time>2026-05-04T14:50:16.894Z</time></trkpt><trkpt lat="41.4192873" lon="0.9981757"><ele>553.0</ele><time>2026-05-04T14:50:17.894Z</time></trkpt><trkpt lat="41.41925" lon="0.9983293"><ele>553.0</ele><time>2026-05-04T14:50:18.894Z</time></trkpt><trkpt lat="41.4192166" lon="0.9984741"><ele>553.0</ele><time>2026-05-04T14:50:19.894Z</time></trkpt><trkpt lat="41.4191821" lon="0.9986178"><ele>553.0</ele><time>2026-05-04T14:50:20.894Z</time></trkpt><trkpt lat="41.4191438" lon="0.9987583"><ele>550.75</ele><time>2026-05-04T14:50:21.894Z</time></trkpt><trkpt lat="41.4191121" lon="0.9989059"><ele>548.5</ele><time>2026-05-04T14:50:22.895Z</time></trkpt><trkpt lat="41.4190837" lon="0.9990535"><ele>546.25</ele><time>2026-05-04T14:50:23.895Z</time></trkpt><trkpt lat="41.4190599" lon="0.9992028"><ele>544.0</ele><time>2026-05-04T14:50:24.895Z</time></trkpt><trkpt lat="41.4190376" lon="0.9993516"><ele>544.0</ele><time>2026-05-04T14:50:25.895Z</time></trkpt><trkpt lat="41.4190118" lon="0.9994988"><ele>544.0</ele><time>2026-05-04T14:50:26.895Z</time></trkpt><trkpt lat="41.4189877" lon="0.9996363"><ele>544.0</ele><time>2026-05-04T14:50:27.895Z</time></trkpt><trkpt lat="41.4189691" lon="0.9997739"><ele>544.0</ele><time>2026-05-04T14:50:28.894Z</time></trkpt><trkpt lat="41.418948" lon="0.9999147"><ele>544.0</ele><time>2026-05-04T14:50:29.894Z</time></trkpt><trkpt lat="41.4189329" lon="1.0000586"><ele>544.0</ele><time>2026-05-04T14:50:30.894Z</time></trkpt><trkpt lat="41.4189202" lon="1.0001982"><ele>544.0</ele><time>2026-05-04T14:50:31.894Z</time></trkpt><trkpt lat="41.4189088" lon="1.0003351"><ele>544.0</ele><time>2026-05-04T14:50:32.894Z</time></trkpt><trkpt lat="41.4188978" lon="1.0004732"><ele>544.0</ele><time>2026-05-04T14:50:33.895Z</time></trkpt><trkpt lat="41.4188968" lon="1.0006081"><ele>544.0</ele><time>2026-05-04T14:50:34.895Z</time></trkpt><trkpt lat="41.4188972" lon="1.0007495"><ele>545.2</ele><time>2026-05-04T14:50:35.894Z</time></trkpt><trkpt lat="41.4188999" lon="1.0008849"><ele>546.4</ele><time>2026-05-04T14:50:36.895Z</time></trkpt><trkpt lat="41.4189052" lon="1.0010275"><ele>547.6</ele><time>2026-05-04T14:50:37.895Z</time></trkpt><trkpt lat="41.4189133" lon="1.0011672"><ele>548.8</ele><time>2026-05-04T14:50:38.894Z</time></trkpt><trkpt lat="41.4189142" lon="1.0013087"><ele>550.0</ele><time>2026-05-04T14:50:39.894Z</time></trkpt><trkpt lat="41.4189262" lon="1.0014472"><ele>550.0</ele><time>2026-05-04T14:50:40.895Z</time></trkpt><trkpt lat="41.4189433" lon="1.0015826"><ele>550.0</ele><time>2026-05-04T14:50:41.895Z</time></trkpt><trkpt lat="41.4189544" lon="1.0017211"><ele>550.0</ele><time>2026-05-04T14:50:42.895Z</time></trkpt><trkpt lat="41.4189755" lon="1.0018617"><ele>550.0</ele><time>2026-05-04T14:50:43.894Z</time></trkpt><trkpt lat="41.4189996" lon="1.002003"><ele>550.0</ele><time>2026-05-04T14:50:44.895Z</time></trkpt><trkpt lat="41.4190224" lon="1.0021382"><ele>550.6</ele><time>2026-05-04T14:50:45.895Z</time></trkpt><trkpt lat="41.4190413" lon="1.0022843"><ele>551.2</ele><time>2026-05-04T14:50:46.895Z</time></trkpt><trkpt lat="41.4190632" lon="1.0024289"><ele>551.8</ele><time>2026-05-04T14:50:47.895Z</time></trkpt><trkpt lat="41.4190858" lon="1.0025716"><ele>552.4</ele><time>2026-05-04T14:50:48.895Z</time></trkpt><trkpt lat="41.4191047" lon="1.0027184"><ele>553.0</ele><time>2026-05-04T14:50:49.895Z</time></trkpt><trkpt lat="41.4191258" lon="1.0028652"><ele>554.5</ele><time>2026-05-04T14:50:50.895Z</time></trkpt><trkpt lat="41.4191479" lon="1.0030116"><ele>556.0</ele><time>2026-05-04T14:50:51.894Z</time></trkpt><trkpt lat="41.4191653" lon="1.0031678"><ele>557.5</ele><time>2026-05-04T14:50:52.894Z</time></trkpt><trkpt lat="41.4191776" lon="1.0033195"><ele>559.0</ele><time>2026-05-04T14:50:53.895Z</time></trkpt><trkpt lat="41.4191832" lon="1.0034766"><ele>559.75</ele><time>2026-05-04T14:50:54.895Z</time></trkpt><trkpt lat="41.4191847" lon="1.0036332"><ele>560.5</ele><time>2026-05-04T14:50:55.895Z</time></trkpt><trkpt lat="41.419178" lon="1.0037894"><ele>561.25</ele><time>2026-05-04T14:50:56.895Z</time></trkpt><trkpt lat="41.4191675" lon="1.0039435"><ele>562.0</ele><time>2026-05-04T14:50:57.895Z</time></trkpt><trkpt lat="41.4191516" lon="1.0040968"><ele>563.25</ele><time>2026-05-04T14:50:58.895Z</time></trkpt><trkpt lat="41.4191303" lon="1.004252"><ele>564.5</ele><time>2026-05-04T14:50:59.895Z</time></trkpt><trkpt lat="41.4191057" lon="1.0044041"><ele>565.75</ele><time>2026-05-04T14:51:00.895Z</time></trkpt><trkpt lat="41.4190736" lon="1.004554"><ele>567.0</ele><time>2026-05-04T14:51:01.895Z</time></trkpt><trkpt lat="41.419038" lon="1.0046919"><ele>567.0</ele><time>2026-05-04T14:51:02.895Z</time></trkpt><trkpt lat="41.4189997" lon="1.0048272"><ele>567.0</ele><time>2026-05-04T14:51:03.894Z</time></trkpt><trkpt lat="41.418954" lon="1.0049629"><ele>567.0</ele><time>2026-05-04T14:51:04.895Z</time></trkpt><trkpt lat="41.4189056" lon="1.005101"><ele>567.0</ele><time>2026-05-04T14:51:05.895Z</time></trkpt><trkpt lat="41.4188518" lon="1.0052326"><ele>567.0</ele><time>2026-05-04T14:51:06.895Z</time></trkpt><trkpt lat="41.4188006" lon="1.0053644"><ele>569.0</ele><time>2026-05-04T14:51:07.895Z</time></trkpt><trkpt lat="41.4187461" lon="1.0054965"><ele>571.0</ele><time>2026-05-04T14:51:08.895Z</time></trkpt><trkpt lat="41.4186956" lon="1.0056283"><ele>573.0</ele><time>2026-05-04T14:51:09.895Z</time></trkpt><trkpt lat="41.418641" lon="1.0057626"><ele>575.0</ele><time>2026-05-04T14:51:10.895Z</time></trkpt><trkpt lat="41.4185887" lon="1.0058962"><ele>575.25</ele><time>2026-05-04T14:51:11.895Z</time></trkpt><trkpt lat="41.4185344" lon="1.0060297"><ele>575.5</ele><time>2026-05-04T14:51:12.895Z</time></trkpt><trkpt lat="41.4184831" lon="1.0061672"><ele>575.75</ele><time>2026-05-04T14:51:13.895Z</time></trkpt><trkpt lat="41.4184331" lon="1.0063035"><ele>576.0</ele><time>2026-05-04T14:51:14.894Z</time></trkpt><trkpt lat="41.4183871" lon="1.0064377"><ele>576.0</ele><time>2026-05-04T14:51:15.895Z</time></trkpt><trkpt lat="41.4183463" lon="1.0065816"><ele>576.0</ele><time>2026-05-04T14:51:16.895Z</time></trkpt><trkpt lat="41.4183008" lon="1.0067211"><ele>576.0</ele><time>2026-05-04T14:51:17.895Z</time></trkpt><trkpt lat="41.4182645" lon="1.0068664"><ele>576.0</ele><time>2026-05-04T14:51:18.894Z</time></trkpt><trkpt lat="41.4182296" lon="1.0070162"><ele>576.5</ele><time>2026-05-04T14:51:19.895Z</time></trkpt><trkpt lat="41.4181957" lon="1.0071673"><ele>577.0</ele><time>2026-05-04T14:51:20.895Z</time></trkpt><trkpt lat="41.4181689" lon="1.0073235"><ele>577.5</ele><time>2026-05-04T14:51:21.895Z</time></trkpt><trkpt lat="41.4181499" lon="1.0074796"><ele>578.0</ele><time>2026-05-04T14:51:22.895Z</time></trkpt><trkpt lat="41.4181286" lon="1.0076387"><ele>579.25</ele><time>2026-05-04T14:51:23.895Z</time></trkpt><trkpt lat="41.4181119" lon="1.0077969"><ele>580.5</ele><time>2026-05-04T14:51:24.895Z</time></trkpt><trkpt lat="41.4181026" lon="1.0079456"><ele>581.75</ele><time>2026-05-04T14:51:25.895Z</time></trkpt><trkpt lat="41.4180907" lon="1.0080963"><ele>583.0</ele><time>2026-05-04T14:51:26.895Z</time></trkpt><trkpt lat="41.4180815" lon="1.0082513"><ele>583.25</ele><time>2026-05-04T14:51:27.894Z</time></trkpt><trkpt lat="41.4180678" lon="1.0084028"><ele>583.5</ele><time>2026-05-04T14:51:28.895Z</time></trkpt><trkpt lat="41.418057" lon="1.0085581"><ele>583.75</ele><time>2026-05-04T14:51:29.895Z</time></trkpt><trkpt lat="41.4180429" lon="1.0087144"><ele>584.0</ele><time>2026-05-04T14:51:30.895Z</time></trkpt><trkpt lat="41.418028" lon="1.0088693"><ele>584.0</ele><time>2026-05-04T14:51:31.895Z</time></trkpt><trkpt lat="41.4180138" lon="1.0090287"><ele>584.0</ele><time>2026-05-04T14:51:32.895Z</time></trkpt><trkpt lat="41.4180009" lon="1.0091947"><ele>584.0</ele><time>2026-05-04T14:51:33.894Z</time></trkpt><trkpt lat="41.4179889" lon="1.0093611"><ele>584.0</ele><time>2026-05-04T14:51:34.895Z</time></trkpt><trkpt lat="41.4179746" lon="1.0095355"><ele>582.0</ele><time>2026-05-04T14:51:35.894Z</time></trkpt><trkpt lat="41.4179584" lon="1.0097174"><ele>580.0</ele><time>2026-05-04T14:51:36.895Z</time></trkpt><trkpt lat="41.4179433" lon="1.0098988"><ele>578.0</ele><time>2026-05-04T14:51:37.895Z</time></trkpt><trkpt lat="41.4179304" lon="1.0100852"><ele>576.0</ele><time>2026-05-04T14:51:38.895Z</time></trkpt><trkpt lat="41.4179184" lon="1.0102671"><ele>575.25</ele><time>2026-05-04T14:51:39.895Z</time></trkpt><trkpt lat="41.4179076" lon="1.010453"><ele>574.5</ele><time>2026-05-04T14:51:40.895Z</time></trkpt><trkpt lat="41.4178915" lon="1.0106408"><ele>573.75</ele><time>2026-05-04T14:51:41.895Z</time></trkpt><trkpt lat="41.4178761" lon="1.0108376"><ele>573.0</ele><time>2026-05-04T14:51:42.894Z</time></trkpt><trkpt lat="41.4178654" lon="1.0110274"><ele>572.5</ele><time>2026-05-04T14:51:43.895Z</time></trkpt><trkpt lat="41.4178558" lon="1.0112184"><ele>572.0</ele><time>2026-05-04T14:51:44.895Z</time></trkpt><trkpt lat="41.4178493" lon="1.0114113"><ele>571.5</ele><time>2026-05-04T14:51:45.895Z</time></trkpt><trkpt lat="41.4178423" lon="1.0115978"><ele>571.0</ele><time>2026-05-04T14:51:46.895Z</time></trkpt><trkpt lat="41.4178356" lon="1.0117748"><ele>569.75</ele><time>2026-05-04T14:51:47.895Z</time></trkpt><trkpt lat="41.4178309" lon="1.0119532"><ele>568.5</ele><time>2026-05-04T14:51:48.895Z</time></trkpt><trkpt lat="41.4178295" lon="1.0121263"><ele>567.25</ele><time>2026-05-04T14:51:49.895Z</time></trkpt><trkpt lat="41.4178263" lon="1.0123048"><ele>566.0</ele><time>2026-05-04T14:51:50.895Z</time></trkpt><trkpt lat="41.4178295" lon="1.0124868"><ele>566.25</ele><time>2026-05-04T14:51:51.894Z</time></trkpt><trkpt lat="41.4178272" lon="1.0126663"><ele>566.5</ele><time>2026-05-04T14:51:52.895Z</time></trkpt><trkpt lat="41.4178257" lon="1.0128505"><ele>566.75</ele><time>2026-05-04T14:51:53.895Z</time></trkpt><trkpt lat="41.41783" lon="1.0130335"><ele>567.0</ele><time>2026-05-04T14:51:54.895Z</time></trkpt><trkpt lat="41.4178278" lon="1.0132105"><ele>567.5</ele><time>2026-05-04T14:51:55.895Z</time></trkpt><trkpt lat="41.4178285" lon="1.0133863"><ele>568.0</ele><time>2026-05-04T14:51:56.895Z</time></trkpt><trkpt lat="41.4178354" lon="1.0135569"><ele>568.5</ele><time>2026-05-04T14:51:57.895Z</time></trkpt><trkpt lat="41.4178342" lon="1.0137311"><ele>569.0</ele><time>2026-05-04T14:51:58.895Z</time></trkpt><trkpt lat="41.4178359" lon="1.0139071"><ele>569.0</ele><time>2026-05-04T14:51:59.895Z</time></trkpt><trkpt lat="41.417836" lon="1.0140869"><ele>569.0</ele><time>2026-05-04T14:52:00.894Z</time></trkpt><trkpt lat="41.4178369" lon="1.0142704"><ele>569.0</ele><time>2026-05-04T14:52:01.895Z</time></trkpt><trkpt lat="41.4178361" lon="1.0144539"><ele>569.0</ele><time>2026-05-04T14:52:02.895Z</time></trkpt><trkpt lat="41.4178318" lon="1.014642"><ele>569.25</ele><time>2026-05-04T14:52:03.895Z</time></trkpt><trkpt lat="41.4178255" lon="1.0148253"><ele>569.5</ele><time>2026-05-04T14:52:04.894Z</time></trkpt><trkpt lat="41.4178134" lon="1.015008"><ele>569.75</ele><time>2026-05-04T14:52:05.895Z</time></trkpt><trkpt lat="41.417801" lon="1.0151961"><ele>570.0</ele><time>2026-05-04T14:52:06.895Z</time></trkpt><trkpt lat="41.4177836" lon="1.0153816"><ele>570.0</ele><time>2026-05-04T14:52:07.894Z</time></trkpt><trkpt lat="41.4177587" lon="1.0155681"><ele>570.0</ele><time>2026-05-04T14:52:08.895Z</time></trkpt><trkpt lat="41.4177275" lon="1.0157496"><ele>570.0</ele><time>2026-05-04T14:52:09.895Z</time></trkpt><trkpt lat="41.4176908" lon="1.0159268"><ele>570.0</ele><time>2026-05-04T14:52:10.895Z</time></trkpt><trkpt lat="41.4176506" lon="1.0161064"><ele>570.0</ele><time>2026-05-04T14:52:11.895Z</time></trkpt><trkpt lat="41.417609" lon="1.0162857"><ele>570.0</ele><time>2026-05-04T14:52:12.895Z</time></trkpt><trkpt lat="41.4175597" lon="1.0164684"><ele>570.0</ele><time>2026-05-04T14:52:13.895Z</time></trkpt><trkpt lat="41.4175068" lon="1.016653"><ele>570.0</ele><time>2026-05-04T14:52:14.895Z</time></trkpt><trkpt lat="41.4174463" lon="1.0168399"><ele>566.6666666666666</ele><time>2026-05-04T14:52:15.895Z</time></trkpt><trkpt lat="41.4173783" lon="1.0170351"><ele>563.3333333333333</ele><time>2026-05-04T14:52:16.895Z</time></trkpt><trkpt lat="41.4173031" lon="1.0172182"><ele>560.0</ele><time>2026-05-04T14:52:17.894Z</time></trkpt><trkpt lat="41.4172205" lon="1.0174089"><ele>559.3333333333333</ele><time>2026-05-04T14:52:18.894Z</time></trkpt><trkpt lat="41.4171364" lon="1.0175996"><ele>558.6666666666666</ele><time>2026-05-04T14:52:19.895Z</time></trkpt><trkpt lat="41.4170512" lon="1.0177949"><ele>558.0</ele><time>2026-05-04T14:52:20.895Z</time></trkpt><trkpt lat="41.4169684" lon="1.017984"><ele>558.0</ele><time>2026-05-04T14:52:21.895Z</time></trkpt><trkpt lat="41.4168904" lon="1.0181768"><ele>558.0</ele><time>2026-05-04T14:52:22.895Z</time></trkpt><trkpt lat="41.4168134" lon="1.0183607"><ele>558.0</ele><time>2026-05-04T14:52:23.894Z</time></trkpt><trkpt lat="41.4167369" lon="1.0185403"><ele>555.0</ele><time>2026-05-04T14:52:24.895Z</time></trkpt><trkpt lat="41.4166605" lon="1.0187226"><ele>552.0</ele><time>2026-05-04T14:52:25.895Z</time></trkpt><trkpt lat="41.4165854" lon="1.0189081"><ele>549.0</ele><time>2026-05-04T14:52:26.895Z</time></trkpt><trkpt lat="41.4165073" lon="1.01909"><ele>548.6666666666666</ele><time>2026-05-04T14:52:27.894Z</time></trkpt><trkpt lat="41.4164326" lon="1.0192692"><ele>548.3333333333333</ele><time>2026-05-04T14:52:28.895Z</time></trkpt><trkpt lat="41.4163593" lon="1.0194481"><ele>548.0</ele><time>2026-05-04T14:52:29.895Z</time></trkpt><trkpt lat="41.4162835" lon="1.0196182"><ele>548.0</ele><time>2026-05-04T14:52:30.895Z</time></trkpt><trkpt lat="41.4162122" lon="1.0197827"><ele>548.0</ele><time>2026-05-04T14:52:31.895Z</time></trkpt><trkpt lat="41.4161388" lon="1.0199514"><ele>548.0</ele><time>2026-05-04T14:52:32.895Z</time></trkpt><trkpt lat="41.4160663" lon="1.0201233"><ele>548.0</ele><time>2026-05-04T14:52:33.895Z</time></trkpt><trkpt lat="41.4159908" lon="1.0202966"><ele>545.5</ele><time>2026-05-04T14:52:34.895Z</time></trkpt><trkpt lat="41.4159198" lon="1.0204716"><ele>543.0</ele><time>2026-05-04T14:52:35.895Z</time></trkpt><trkpt lat="41.4158511" lon="1.020643"><ele>540.5</ele><time>2026-05-04T14:52:36.895Z</time></trkpt><trkpt lat="41.4157786" lon="1.0208102"><ele>538.0</ele><time>2026-05-04T14:52:37.895Z</time></trkpt><trkpt lat="41.4157068" lon="1.0209808"><ele>537.5</ele><time>2026-05-04T14:52:38.895Z</time></trkpt><trkpt lat="41.4156302" lon="1.0211479"><ele>537.0</ele><time>2026-05-04T14:52:39.894Z</time></trkpt><trkpt lat="41.4155519" lon="1.0213191"><ele>536.5</ele><time>2026-05-04T14:52:40.895Z</time></trkpt><trkpt lat="41.4154804" lon="1.0214875"><ele>536.0</ele><time>2026-05-04T14:52:41.895Z</time></trkpt><trkpt lat="41.4154009" lon="1.0216557"><ele>536.0</ele><time>2026-05-04T14:52:42.895Z</time></trkpt><trkpt lat="41.4153185" lon="1.0218161"><ele>536.0</ele><time>2026-05-04T14:52:43.894Z</time></trkpt><trkpt lat="41.4152366" lon="1.0219744"><ele>536.0</ele><time>2026-05-04T14:52:44.895Z</time></trkpt><trkpt lat="41.4151492" lon="1.0221358"><ele>536.0</ele><time>2026-05-04T14:52:45.895Z</time></trkpt><trkpt lat="41.4150625" lon="1.0222925"><ele>536.0</ele><time>2026-05-04T14:52:46.895Z</time></trkpt><trkpt lat="41.414975" lon="1.0224512"><ele>536.0</ele><time>2026-05-04T14:52:47.895Z</time></trkpt><trkpt lat="41.41489" lon="1.0226084"><ele>536.0</ele><time>2026-05-04T14:52:48.895Z</time></trkpt><trkpt lat="41.4148049" lon="1.0227631"><ele>536.0</ele><time>2026-05-04T14:52:49.895Z</time></trkpt><trkpt lat="41.414719" lon="1.0229186"><ele>535.5</ele><time>2026-05-04T14:52:50.895Z</time></trkpt><trkpt lat="41.4146314" lon="1.023075"><ele>535.0</ele><time>2026-05-04T14:52:51.896Z</time></trkpt><trkpt lat="41.4145418" lon="1.0232331"><ele>534.5</ele><time>2026-05-04T14:52:52.896Z</time></trkpt><trkpt lat="41.4144519" lon="1.0233985"><ele>534.0</ele><time>2026-05-04T14:52:53.896Z</time></trkpt><trkpt lat="41.4143661" lon="1.0235564"><ele>534.0</ele><time>2026-05-04T14:52:54.896Z</time></trkpt><trkpt lat="41.4142795" lon="1.0237116"><ele>534.0</ele><time>2026-05-04T14:52:55.896Z</time></trkpt><trkpt lat="41.4141936" lon="1.0238702"><ele>534.0</ele><time>2026-05-04T14:52:56.895Z</time></trkpt><trkpt lat="41.4141044" lon="1.0240305"><ele>534.0</ele><time>2026-05-04T14:52:57.896Z</time></trkpt><trkpt lat="41.4140127" lon="1.0241905"><ele>532.0</ele><time>2026-05-04T14:52:58.896Z</time></trkpt><trkpt lat="41.4139292" lon="1.024346"><ele>530.0</ele><time>2026-05-04T14:52:59.896Z</time></trkpt><trkpt lat="41.4138431" lon="1.0245073"><ele>528.0</ele><time>2026-05-04T14:53:00.896Z</time></trkpt><trkpt lat="41.4137552" lon="1.0246665"><ele>526.0</ele><time>2026-05-04T14:53:01.896Z</time></trkpt><trkpt lat="41.4136662" lon="1.0248297"><ele>529.0</ele><time>2026-05-04T14:53:02.895Z</time></trkpt><trkpt lat="41.4135757" lon="1.0249943"><ele>532.0</ele><time>2026-05-04T14:53:03.896Z</time></trkpt><trkpt lat="41.4134885" lon="1.0251596"><ele>535.0</ele><time>2026-05-04T14:53:04.895Z</time></trkpt><trkpt lat="41.4133933" lon="1.0253285"><ele>535.0</ele><time>2026-05-04T14:53:05.896Z</time></trkpt><trkpt lat="41.4132992" lon="1.0254941"><ele>535.0</ele><time>2026-05-04T14:53:06.896Z</time></trkpt><trkpt lat="41.4132076" lon="1.0256548"><ele>535.0</ele><time>2026-05-04T14:53:07.896Z</time></trkpt><trkpt lat="41.4131234" lon="1.0258063"><ele>535.0</ele><time>2026-05-04T14:53:08.895Z</time></trkpt><trkpt lat="41.413038" lon="1.0259645"><ele>531.25</ele><time>2026-05-04T14:53:09.896Z</time></trkpt><trkpt lat="41.4129488" lon="1.0261217"><ele>527.5</ele><time>2026-05-04T14:53:10.895Z</time></trkpt><trkpt lat="41.4128562" lon="1.0262801"><ele>523.75</ele><time>2026-05-04T14:53:11.896Z</time></trkpt><trkpt lat="41.4127646" lon="1.0264385"><ele>520.0</ele><time>2026-05-04T14:53:12.896Z</time></trkpt><trkpt lat="41.4126707" lon="1.0265933"><ele>517.6666666666667</ele><time>2026-05-04T14:53:13.896Z</time></trkpt><trkpt lat="41.4125758" lon="1.0267524"><ele>515.3333333333334</ele><time>2026-05-04T14:53:14.896Z</time></trkpt><trkpt lat="41.4124762" lon="1.0269097"><ele>513.0</ele><time>2026-05-04T14:53:15.896Z</time></trkpt><trkpt lat="41.4123734" lon="1.0270651"><ele>513.0</ele><time>2026-05-04T14:53:16.896Z</time></trkpt><trkpt lat="41.4122713" lon="1.0272116"><ele>513.0</ele><time>2026-05-04T14:53:17.896Z</time></trkpt><trkpt lat="41.4121595" lon="1.0273588"><ele>513.0</ele><time>2026-05-04T14:53:18.896Z</time></trkpt><trkpt lat="41.4120546" lon="1.0275012"><ele>511.66666666666663</ele><time>2026-05-04T14:53:19.896Z</time></trkpt><trkpt lat="41.4119434" lon="1.0276399"><ele>510.3333333333333</ele><time>2026-05-04T14:53:20.896Z</time></trkpt><trkpt lat="41.4118309" lon="1.0277807"><ele>509.0</ele><time>2026-05-04T14:53:21.896Z</time></trkpt><trkpt lat="41.4117247" lon="1.0279221"><ele>509.0</ele><time>2026-05-04T14:53:22.896Z</time></trkpt><trkpt lat="41.4116269" lon="1.0280647"><ele>509.0</ele><time>2026-05-04T14:53:23.896Z</time></trkpt><trkpt lat="41.4115291" lon="1.0282053"><ele>509.0</ele><time>2026-05-04T14:53:24.896Z</time></trkpt><trkpt lat="41.4114354" lon="1.0283466"><ele>509.0</ele><time>2026-05-04T14:53:25.895Z</time></trkpt><trkpt lat="41.4113447" lon="1.0284928"><ele>509.0</ele><time>2026-05-04T14:53:26.896Z</time></trkpt><trkpt lat="41.4112578" lon="1.0286404"><ele>509.0</ele><time>2026-05-04T14:53:27.896Z</time></trkpt><trkpt lat="41.4111763" lon="1.0287905"><ele>509.0</ele><time>2026-05-04T14:53:28.896Z</time></trkpt><trkpt lat="41.4111002" lon="1.0289401"><ele>509.0</ele><time>2026-05-04T14:53:29.896Z</time></trkpt><trkpt lat="41.411024" lon="1.0290882"><ele>509.0</ele><time>2026-05-04T14:53:30.896Z</time></trkpt><trkpt lat="41.410948" lon="1.0292436"><ele>509.0</ele><time>2026-05-04T14:53:31.896Z</time></trkpt><trkpt lat="41.4108754" lon="1.0293964"><ele>509.0</ele><time>2026-05-04T14:53:32.896Z</time></trkpt><trkpt lat="41.4107956" lon="1.0295526"><ele>509.0</ele><time>2026-05-04T14:53:33.896Z</time></trkpt><trkpt lat="41.4107165" lon="1.0297"><ele>509.0</ele><time>2026-05-04T14:53:34.896Z</time></trkpt><trkpt lat="41.4106387" lon="1.0298587"><ele>509.0</ele><time>2026-05-04T14:53:35.895Z</time></trkpt><trkpt lat="41.4099766" lon="1.0311359"><ele>508.0</ele><time>2026-05-04T14:53:43.896Z</time></trkpt><trkpt lat="41.4098769" lon="1.0312693"><ele>507.0</ele><time>2026-05-04T14:53:44.896Z</time></trkpt><trkpt lat="41.4098186" lon="1.0314257"><ele>506.0</ele><time>2026-05-04T14:53:45.896Z</time></trkpt><trkpt lat="41.4097243" lon="1.0315768"><ele>505.0</ele><time>2026-05-04T14:53:46.896Z</time></trkpt><trkpt lat="41.4096365" lon="1.0317245"><ele>504.0</ele><time>2026-05-04T14:53:47.896Z</time></trkpt><trkpt lat="41.4095478" lon="1.0318699"><ele>503.0</ele><time>2026-05-04T14:53:48.896Z</time></trkpt><trkpt lat="41.4094601" lon="1.0320126"><ele>502.0</ele><time>2026-05-04T14:53:49.896Z</time></trkpt><trkpt lat="41.4093691" lon="1.0321542"><ele>501.0</ele><time>2026-05-04T14:53:50.896Z</time></trkpt><trkpt lat="41.4092804" lon="1.0322966"><ele>501.0</ele><time>2026-05-04T14:53:51.895Z</time></trkpt><trkpt lat="41.4091918" lon="1.032436"><ele>501.0</ele><time>2026-05-04T14:53:52.896Z</time></trkpt><trkpt lat="41.4091037" lon="1.0325705"><ele>501.0</ele><time>2026-05-04T14:53:53.896Z</time></trkpt><trkpt lat="41.4090164" lon="1.0327056"><ele>501.0</ele><time>2026-05-04T14:53:54.895Z</time></trkpt><trkpt lat="41.4089322" lon="1.0328412"><ele>501.25</ele><time>2026-05-04T14:53:55.896Z</time></trkpt><trkpt lat="41.4088556" lon="1.032976"><ele>501.5</ele><time>2026-05-04T14:53:56.896Z</time></trkpt><trkpt lat="41.4087716" lon="1.0331172"><ele>501.75</ele><time>2026-05-04T14:53:57.896Z</time></trkpt><trkpt lat="41.4086792" lon="1.0332616"><ele>502.0</ele><time>2026-05-04T14:53:58.896Z</time></trkpt><trkpt lat="41.4085203" lon="1.0335277"><ele>502.0</ele><time>2026-05-04T14:54:00.896Z</time></trkpt><trkpt lat="41.4084079" lon="1.0336574"><ele>502.0</ele><time>2026-05-04T14:54:01.896Z</time></trkpt><trkpt lat="41.4083196" lon="1.0337632"><ele>502.0</ele><time>2026-05-04T14:54:02.896Z</time></trkpt><trkpt lat="41.4082481" lon="1.0339018"><ele>502.0</ele><time>2026-05-04T14:54:03.896Z</time></trkpt><trkpt lat="41.4081821" lon="1.0340524"><ele>502.25</ele><time>2026-05-04T14:54:04.895Z</time></trkpt><trkpt lat="41.4081037" lon="1.0341994"><ele>502.5</ele><time>2026-05-04T14:54:05.896Z</time></trkpt><trkpt lat="41.4080298" lon="1.0343514"><ele>502.75</ele><time>2026-05-04T14:54:06.896Z</time></trkpt><trkpt lat="41.4079487" lon="1.0345017"><ele>503.0</ele><time>2026-05-04T14:54:07.896Z</time></trkpt><trkpt lat="41.4078699" lon="1.0346506"><ele>502.25</ele><time>2026-05-04T14:54:08.896Z</time></trkpt><trkpt lat="41.4077922" lon="1.0348037"><ele>501.5</ele><time>2026-05-04T14:54:09.896Z</time></trkpt><trkpt lat="41.4077155" lon="1.0349609"><ele>500.75</ele><time>2026-05-04T14:54:10.896Z</time></trkpt><trkpt lat="41.4076427" lon="1.0351172"><ele>500.0</ele><time>2026-05-04T14:54:11.896Z</time></trkpt><trkpt lat="41.4075733" lon="1.0352727"><ele>500.0</ele><time>2026-05-04T14:54:12.895Z</time></trkpt><trkpt lat="41.4075046" lon="1.0354292"><ele>500.0</ele><time>2026-05-04T14:54:13.896Z</time></trkpt><trkpt lat="41.4074377" lon="1.0355773"><ele>500.0</ele><time>2026-05-04T14:54:14.896Z</time></trkpt><trkpt lat="41.4073727" lon="1.035725"><ele>500.0</ele><time>2026-05-04T14:54:15.896Z</time></trkpt><trkpt lat="41.407304" lon="1.0358706"><ele>500.0</ele><time>2026-05-04T14:54:16.896Z</time></trkpt><trkpt lat="41.4072445" lon="1.0360199"><ele>500.0</ele><time>2026-05-04T14:54:17.896Z</time></trkpt><trkpt lat="41.407189" lon="1.0361715"><ele>500.0</ele><time>2026-05-04T14:54:18.896Z</time></trkpt><trkpt lat="41.4071301" lon="1.0363303"><ele>500.0</ele><time>2026-05-04T14:54:19.895Z</time></trkpt><trkpt lat="41.4070667" lon="1.0364824"><ele>499.25</ele><time>2026-05-04T14:54:20.895Z</time></trkpt><trkpt lat="41.4070063" lon="1.0366351"><ele>498.5</ele><time>2026-05-04T14:54:21.896Z</time></trkpt><trkpt lat="41.406947" lon="1.0367875"><ele>497.75</ele><time>2026-05-04T14:54:22.896Z</time></trkpt><trkpt lat="41.4068884" lon="1.0369418"><ele>497.0</ele><time>2026-05-04T14:54:23.896Z</time></trkpt><trkpt lat="41.4068312" lon="1.0370915"><ele>497.0</ele><time>2026-05-04T14:54:24.896Z</time></trkpt><trkpt lat="41.4067743" lon="1.0372438"><ele>497.0</ele><time>2026-05-04T14:54:25.896Z</time></trkpt><trkpt lat="41.4067144" lon="1.0373982"><ele>497.0</ele><time>2026-05-04T14:54:26.895Z</time></trkpt><trkpt lat="41.4066613" lon="1.0375532"><ele>497.0</ele><time>2026-05-04T14:54:27.896Z</time></trkpt><trkpt lat="41.4066079" lon="1.0377023"><ele>498.5</ele><time>2026-05-04T14:54:28.896Z</time></trkpt><trkpt lat="41.4065481" lon="1.0378563"><ele>500.0</ele><time>2026-05-04T14:54:29.896Z</time></trkpt><trkpt lat="41.4064909" lon="1.0380089"><ele>501.5</ele><time>2026-05-04T14:54:30.896Z</time></trkpt><trkpt lat="41.4064364" lon="1.0381624"><ele>503.0</ele><time>2026-05-04T14:54:31.896Z</time></trkpt><trkpt lat="41.4063751" lon="1.0383192"><ele>499.75</ele><time>2026-05-04T14:54:32.896Z</time></trkpt><trkpt lat="41.4063132" lon="1.0384797"><ele>496.5</ele><time>2026-05-04T14:54:33.896Z</time></trkpt><trkpt lat="41.4062484" lon="1.0386347"><ele>493.25</ele><time>2026-05-04T14:54:34.896Z</time></trkpt><trkpt lat="41.406189" lon="1.0387945"><ele>490.0</ele><time>2026-05-04T14:54:35.896Z</time></trkpt><trkpt lat="41.4061252" lon="1.0389549"><ele>490.0</ele><time>2026-05-04T14:54:36.895Z</time></trkpt><trkpt lat="41.406064" lon="1.0391169"><ele>490.0</ele><time>2026-05-04T14:54:37.895Z</time></trkpt><trkpt lat="41.4060055" lon="1.0392824"><ele>490.0</ele><time>2026-05-04T14:54:38.896Z</time></trkpt><trkpt lat="41.4059412" lon="1.039446"><ele>490.0</ele><time>2026-05-04T14:54:39.896Z</time></trkpt><trkpt lat="41.4058822" lon="1.0396071"><ele>490.0</ele><time>2026-05-04T14:54:40.896Z</time></trkpt><trkpt lat="41.4058203" lon="1.0397716"><ele>490.0</ele><time>2026-05-04T14:54:41.896Z</time></trkpt><trkpt lat="41.4057618" lon="1.0399254"><ele>490.0</ele><time>2026-05-04T14:54:42.896Z</time></trkpt><trkpt lat="41.4057012" lon="1.0400798"><ele>490.0</ele><time>2026-05-04T14:54:43.896Z</time></trkpt><trkpt lat="41.4056456" lon="1.0402378"><ele>489.75</ele><time>2026-05-04T14:54:44.896Z</time></trkpt><trkpt lat="41.4055901" lon="1.0403954"><ele>489.5</ele><time>2026-05-04T14:54:45.895Z</time></trkpt><trkpt lat="41.4055286" lon="1.0405507"><ele>489.25</ele><time>2026-05-04T14:54:46.896Z</time></trkpt><trkpt lat="41.4054668" lon="1.0407055"><ele>489.0</ele><time>2026-05-04T14:54:47.896Z</time></trkpt><trkpt lat="41.4054051" lon="1.0408625"><ele>489.0</ele><time>2026-05-04T14:54:48.896Z</time></trkpt><trkpt lat="41.4053479" lon="1.0410129"><ele>489.0</ele><time>2026-05-04T14:54:49.896Z</time></trkpt><trkpt lat="41.4052873" lon="1.0411705"><ele>489.0</ele><time>2026-05-04T14:54:50.896Z</time></trkpt><trkpt lat="41.4052251" lon="1.0413238"><ele>489.0</ele><time>2026-05-04T14:54:51.896Z</time></trkpt><trkpt lat="41.4051602" lon="1.0414811"><ele>489.0</ele><time>2026-05-04T14:54:52.896Z</time></trkpt><trkpt lat="41.4050932" lon="1.0416242"><ele>489.0</ele><time>2026-05-04T14:54:53.896Z</time></trkpt><trkpt lat="41.4050191" lon="1.0417681"><ele>489.0</ele><time>2026-05-04T14:54:54.896Z</time></trkpt><trkpt lat="41.4049464" lon="1.0419055"><ele>489.0</ele><time>2026-05-04T14:54:55.896Z</time></trkpt><trkpt lat="41.4048727" lon="1.0420447"><ele>489.25</ele><time>2026-05-04T14:54:56.896Z</time></trkpt><trkpt lat="41.4047944" lon="1.0421799"><ele>489.5</ele><time>2026-05-04T14:54:57.896Z</time></trkpt><trkpt lat="41.4047192" lon="1.0423035"><ele>489.75</ele><time>2026-05-04T14:54:58.895Z</time></trkpt><trkpt lat="41.4046446" lon="1.0424308"><ele>490.0</ele><time>2026-05-04T14:54:59.896Z</time></trkpt><trkpt lat="41.4045649" lon="1.0425586"><ele>491.75</ele><time>2026-05-04T14:55:00.896Z</time></trkpt><trkpt lat="41.4044866" lon="1.0426823"><ele>493.5</ele><time>2026-05-04T14:55:01.896Z</time></trkpt><trkpt lat="41.4044101" lon="1.0428071"><ele>495.25</ele><time>2026-05-04T14:55:02.896Z</time></trkpt><trkpt lat="41.4043387" lon="1.0429253"><ele>497.0</ele><time>2026-05-04T14:55:03.895Z</time></trkpt><trkpt lat="41.4042606" lon="1.0430443"><ele>497.0</ele><time>2026-05-04T14:55:04.896Z</time></trkpt><trkpt lat="41.4041931" lon="1.0431606"><ele>497.00000000000006</ele><time>2026-05-04T14:55:05.896Z</time></trkpt><trkpt lat="41.4041269" lon="1.0432735"><ele>497.00000000000006</ele><time>2026-05-04T14:55:06.896Z</time></trkpt><trkpt lat="41.4040616" lon="1.043387"><ele>497.0</ele><time>2026-05-04T14:55:07.896Z</time></trkpt><trkpt lat="41.4040075" lon="1.0435021"><ele>497.0</ele><time>2026-05-04T14:55:08.896Z</time></trkpt><trkpt lat="41.4039596" lon="1.0436225"><ele>497.6</ele><time>2026-05-04T14:55:09.896Z</time></trkpt><trkpt lat="41.4039154" lon="1.0437549"><ele>498.20000000000005</ele><time>2026-05-04T14:55:10.896Z</time></trkpt><trkpt lat="41.4038747" lon="1.0438833"><ele>498.8</ele><time>2026-05-04T14:55:11.896Z</time></trkpt><trkpt lat="41.4038306" lon="1.0440162"><ele>499.4</ele><time>2026-05-04T14:55:12.896Z</time></trkpt><trkpt lat="41.4037887" lon="1.0441544"><ele>500.0</ele><time>2026-05-04T14:55:13.896Z</time></trkpt><trkpt lat="41.4037487" lon="1.0442996"><ele>500.0</ele><time>2026-05-04T14:55:14.896Z</time></trkpt><trkpt lat="41.4037084" lon="1.0444526"><ele>500.0</ele><time>2026-05-04T14:55:15.896Z</time></trkpt><trkpt lat="41.4036764" lon="1.0446024"><ele>500.0</ele><time>2026-05-04T14:55:16.896Z</time></trkpt><trkpt lat="41.4036507" lon="1.0447658"><ele>500.0</ele><time>2026-05-04T14:55:17.896Z</time></trkpt><trkpt lat="41.4036307" lon="1.0449387"><ele>499.5</ele><time>2026-05-04T14:55:18.896Z</time></trkpt><trkpt lat="41.4036126" lon="1.0451139"><ele>499.0</ele><time>2026-05-04T14:55:19.896Z</time></trkpt><trkpt lat="41.4035932" lon="1.045291"><ele>498.5</ele><time>2026-05-04T14:55:20.897Z</time></trkpt><trkpt lat="41.4035849" lon="1.0454718"><ele>498.0</ele><time>2026-05-04T14:55:21.897Z</time></trkpt><trkpt lat="41.4035784" lon="1.0456606"><ele>498.25</ele><time>2026-05-04T14:55:22.897Z</time></trkpt><trkpt lat="41.4035698" lon="1.045849"><ele>498.5</ele><time>2026-05-04T14:55:23.897Z</time></trkpt><trkpt lat="41.4035626" lon="1.0460401"><ele>498.75</ele><time>2026-05-04T14:55:24.896Z</time></trkpt><trkpt lat="41.4035526" lon="1.0462349"><ele>499.0</ele><time>2026-05-04T14:55:25.897Z</time></trkpt><trkpt lat="41.4035419" lon="1.0464291"><ele>499.0</ele><time>2026-05-04T14:55:26.897Z</time></trkpt><trkpt lat="41.4035372" lon="1.0466255"><ele>499.0</ele><time>2026-05-04T14:55:27.897Z</time></trkpt><trkpt lat="41.4035273" lon="1.0468162"><ele>499.0</ele><time>2026-05-04T14:55:28.897Z</time></trkpt><trkpt lat="41.4035158" lon="1.0470081"><ele>499.0</ele><time>2026-05-04T14:55:29.897Z</time></trkpt><trkpt lat="41.4035064" lon="1.0472005"><ele>498.75</ele><time>2026-05-04T14:55:30.897Z</time></trkpt><trkpt lat="41.4034913" lon="1.0473907"><ele>498.5</ele><time>2026-05-04T14:55:31.897Z</time></trkpt><trkpt lat="41.4034771" lon="1.0475751"><ele>498.25</ele><time>2026-05-04T14:55:32.896Z</time></trkpt><trkpt lat="41.4034649" lon="1.047763"><ele>498.0</ele><time>2026-05-04T14:55:33.897Z</time></trkpt><trkpt lat="41.4034563" lon="1.0479452"><ele>497.75</ele><time>2026-05-04T14:55:34.896Z</time></trkpt><trkpt lat="41.4034461" lon="1.0481299"><ele>497.5</ele><time>2026-05-04T14:55:35.896Z</time></trkpt><trkpt lat="41.4034379" lon="1.0483172"><ele>497.25</ele><time>2026-05-04T14:55:36.897Z</time></trkpt><trkpt lat="41.4034292" lon="1.0485012"><ele>497.0</ele><time>2026-05-04T14:55:37.896Z</time></trkpt><trkpt lat="41.4034235" lon="1.0486874"><ele>496.5</ele><time>2026-05-04T14:55:38.897Z</time></trkpt><trkpt lat="41.4034204" lon="1.0488667"><ele>496.0</ele><time>2026-05-04T14:55:39.897Z</time></trkpt><trkpt lat="41.4034132" lon="1.0490497"><ele>495.5</ele><time>2026-05-04T14:55:40.896Z</time></trkpt><trkpt lat="41.403402" lon="1.0492321"><ele>495.0</ele><time>2026-05-04T14:55:41.896Z</time></trkpt><trkpt lat="41.4033926" lon="1.0494183"><ele>494.75</ele><time>2026-05-04T14:55:42.897Z</time></trkpt><trkpt lat="41.4033764" lon="1.0496012"><ele>494.5</ele><time>2026-05-04T14:55:43.897Z</time></trkpt><trkpt lat="41.4033629" lon="1.0497848"><ele>494.25</ele><time>2026-05-04T14:55:44.897Z</time></trkpt><trkpt lat="41.4033475" lon="1.0499598"><ele>494.0</ele><time>2026-05-04T14:55:45.897Z</time></trkpt><trkpt lat="41.4033296" lon="1.0501396"><ele>493.75</ele><time>2026-05-04T14:55:46.897Z</time></trkpt><trkpt lat="41.4033107" lon="1.0503171"><ele>493.5</ele><time>2026-05-04T14:55:47.897Z</time></trkpt><trkpt lat="41.40329" lon="1.0504976"><ele>493.25</ele><time>2026-05-04T14:55:48.897Z</time></trkpt><trkpt lat="41.4032717" lon="1.0506832"><ele>493.0</ele><time>2026-05-04T14:55:49.897Z</time></trkpt><trkpt lat="41.4032509" lon="1.0508705"><ele>492.25</ele><time>2026-05-04T14:55:50.897Z</time></trkpt><trkpt lat="41.4032258" lon="1.0510563"><ele>491.5</ele><time>2026-05-04T14:55:51.896Z</time></trkpt><trkpt lat="41.4031955" lon="1.0512477"><ele>490.75</ele><time>2026-05-04T14:55:52.897Z</time></trkpt><trkpt lat="41.4031687" lon="1.0514347"><ele>490.0</ele><time>2026-05-04T14:55:53.897Z</time></trkpt><trkpt lat="41.4031417" lon="1.0516236"><ele>489.5</ele><time>2026-05-04T14:55:54.897Z</time></trkpt><trkpt lat="41.4031091" lon="1.0518192"><ele>489.0</ele><time>2026-05-04T14:55:55.897Z</time></trkpt><trkpt lat="41.4030834" lon="1.052015"><ele>488.5</ele><time>2026-05-04T14:55:56.897Z</time></trkpt><trkpt lat="41.4030556" lon="1.0522086"><ele>488.0</ele><time>2026-05-04T14:55:57.897Z</time></trkpt><trkpt lat="41.4030279" lon="1.05241"><ele>487.5</ele><time>2026-05-04T14:55:58.897Z</time></trkpt><trkpt lat="41.4029982" lon="1.0526059"><ele>487.0</ele><time>2026-05-04T14:55:59.896Z</time></trkpt><trkpt lat="41.4029726" lon="1.0527991"><ele>486.5</ele><time>2026-05-04T14:56:00.897Z</time></trkpt><trkpt lat="41.4029489" lon="1.0529903"><ele>486.0</ele><time>2026-05-04T14:56:01.896Z</time></trkpt><trkpt lat="41.4029202" lon="1.0531815"><ele>485.0</ele><time>2026-05-04T14:56:02.896Z</time></trkpt><trkpt lat="41.402894" lon="1.0533708"><ele>484.0</ele><time>2026-05-04T14:56:03.897Z</time></trkpt><trkpt lat="41.4028707" lon="1.0535637"><ele>483.0</ele><time>2026-05-04T14:56:04.897Z</time></trkpt><trkpt lat="41.4028473" lon="1.0537477"><ele>482.0</ele><time>2026-05-04T14:56:05.897Z</time></trkpt><trkpt lat="41.4028217" lon="1.0539284"><ele>482.0</ele><time>2026-05-04T14:56:06.896Z</time></trkpt><trkpt lat="41.4027972" lon="1.0541093"><ele>482.0</ele><time>2026-05-04T14:56:07.897Z</time></trkpt><trkpt lat="41.4027732" lon="1.0542881"><ele>482.0</ele><time>2026-05-04T14:56:08.896Z</time></trkpt><trkpt lat="41.4027431" lon="1.0544667"><ele>482.0</ele><time>2026-05-04T14:56:09.896Z</time></trkpt><trkpt lat="41.4027162" lon="1.0546478"><ele>483.25</ele><time>2026-05-04T14:56:10.897Z</time></trkpt><trkpt lat="41.4026894" lon="1.0548261"><ele>484.5</ele><time>2026-05-04T14:56:11.897Z</time></trkpt><trkpt lat="41.4026692" lon="1.0550017"><ele>485.75</ele><time>2026-05-04T14:56:12.897Z</time></trkpt><trkpt lat="41.4026434" lon="1.0551792"><ele>487.0</ele><time>2026-05-04T14:56:13.896Z</time></trkpt><trkpt lat="41.402626" lon="1.0553586"><ele>487.0</ele><time>2026-05-04T14:56:14.896Z</time></trkpt><trkpt lat="41.4026097" lon="1.055543"><ele>487.0</ele><time>2026-05-04T14:56:15.897Z</time></trkpt><trkpt lat="41.4026007" lon="1.0557331"><ele>487.0</ele><time>2026-05-04T14:56:16.897Z</time></trkpt><trkpt lat="41.402599" lon="1.055929"><ele>487.0</ele><time>2026-05-04T14:56:17.897Z</time></trkpt><trkpt lat="41.4026037" lon="1.0561221"><ele>487.0</ele><time>2026-05-04T14:56:18.897Z</time></trkpt><trkpt lat="41.4026094" lon="1.056314"><ele>487.0</ele><time>2026-05-04T14:56:19.897Z</time></trkpt><trkpt lat="41.4026164" lon="1.0565062"><ele>487.0</ele><time>2026-05-04T14:56:20.897Z</time></trkpt><trkpt lat="41.402621" lon="1.0566997"><ele>487.0</ele><time>2026-05-04T14:56:21.897Z</time></trkpt><trkpt lat="41.4026326" lon="1.0568954"><ele>485.0</ele><time>2026-05-04T14:56:22.897Z</time></trkpt><trkpt lat="41.4026455" lon="1.0570991"><ele>483.0</ele><time>2026-05-04T14:56:23.897Z</time></trkpt><trkpt lat="41.402653" lon="1.0573006"><ele>481.0</ele><time>2026-05-04T14:56:24.897Z</time></trkpt><trkpt lat="41.4026606" lon="1.0574996"><ele>480.33333333333337</ele><time>2026-05-04T14:56:25.896Z</time></trkpt><trkpt lat="41.4026694" lon="1.0577033"><ele>479.66666666666663</ele><time>2026-05-04T14:56:26.897Z</time></trkpt><trkpt lat="41.4026775" lon="1.0579011"><ele>479.0</ele><time>2026-05-04T14:56:27.897Z</time></trkpt><trkpt lat="41.4026849" lon="1.0581059"><ele>479.5</ele><time>2026-05-04T14:56:28.897Z</time></trkpt><trkpt lat="41.4026849" lon="1.0583086"><ele>480.0</ele><time>2026-05-04T14:56:29.897Z</time></trkpt><trkpt lat="41.4026842" lon="1.0585043"><ele>480.5</ele><time>2026-05-04T14:56:30.896Z</time></trkpt><trkpt lat="41.4026833" lon="1.0587029"><ele>481.0</ele><time>2026-05-04T14:56:31.897Z</time></trkpt><trkpt lat="41.4026692" lon="1.0589006"><ele>481.0</ele><time>2026-05-04T14:56:32.897Z</time></trkpt><trkpt lat="41.4026579" lon="1.0590995"><ele>481.0</ele><time>2026-05-04T14:56:33.896Z</time></trkpt><trkpt lat="41.4026463" lon="1.0592818"><ele>481.0</ele><time>2026-05-04T14:56:34.897Z</time></trkpt><trkpt lat="41.4026367" lon="1.0594663"><ele>481.0</ele><time>2026-05-04T14:56:35.896Z</time></trkpt><trkpt lat="41.4026237" lon="1.0596495"><ele>481.5</ele><time>2026-05-04T14:56:36.897Z</time></trkpt><trkpt lat="41.4026155" lon="1.059832"><ele>482.0</ele><time>2026-05-04T14:56:37.897Z</time></trkpt><trkpt lat="41.4026051" lon="1.0600124"><ele>482.5</ele><time>2026-05-04T14:56:38.897Z</time></trkpt><trkpt lat="41.4025975" lon="1.0601891"><ele>483.0</ele><time>2026-05-04T14:56:39.896Z</time></trkpt><trkpt lat="41.4025867" lon="1.0603672"><ele>483.75</ele><time>2026-05-04T14:56:40.897Z</time></trkpt><trkpt lat="41.4025722" lon="1.0605432"><ele>484.5</ele><time>2026-05-04T14:56:41.897Z</time></trkpt><trkpt lat="41.4025576" lon="1.0607169"><ele>485.25</ele><time>2026-05-04T14:56:42.896Z</time></trkpt><trkpt lat="41.4025376" lon="1.0608934"><ele>486.0</ele><time>2026-05-04T14:56:43.896Z</time></trkpt><trkpt lat="41.4025106" lon="1.0610668"><ele>486.0</ele><time>2026-05-04T14:56:44.897Z</time></trkpt><trkpt lat="41.4024891" lon="1.061239"><ele>486.0</ele><time>2026-05-04T14:56:45.896Z</time></trkpt><trkpt lat="41.4024643" lon="1.0614174"><ele>486.0</ele><time>2026-05-04T14:56:46.897Z</time></trkpt><trkpt lat="41.4024416" lon="1.0615966"><ele>486.0</ele><time>2026-05-04T14:56:47.897Z</time></trkpt><trkpt lat="41.4024239" lon="1.0617721"><ele>486.0</ele><time>2026-05-04T14:56:48.896Z</time></trkpt><trkpt lat="41.4024045" lon="1.0619497"><ele>486.0</ele><time>2026-05-04T14:56:49.897Z</time></trkpt><trkpt lat="41.4023894" lon="1.0621321"><ele>486.0</ele><time>2026-05-04T14:56:50.897Z</time></trkpt><trkpt lat="41.4023728" lon="1.0623108"><ele>486.0</ele><time>2026-05-04T14:56:51.897Z</time></trkpt><trkpt lat="41.4023632" lon="1.0624957"><ele>486.0</ele><time>2026-05-04T14:56:52.897Z</time></trkpt><trkpt lat="41.4023512" lon="1.0626915"><ele>486.0</ele><time>2026-05-04T14:56:53.897Z</time></trkpt><trkpt lat="41.4023358" lon="1.0628806"><ele>486.0</ele><time>2026-05-04T14:56:54.897Z</time></trkpt><trkpt lat="41.4023247" lon="1.063075"><ele>486.0</ele><time>2026-05-04T14:56:55.897Z</time></trkpt><trkpt lat="41.402314" lon="1.0632686"><ele>485.75</ele><time>2026-05-04T14:56:56.896Z</time></trkpt><trkpt lat="41.4023042" lon="1.063463"><ele>485.5</ele><time>2026-05-04T14:56:57.897Z</time></trkpt><trkpt lat="41.4022924" lon="1.0636563"><ele>485.25</ele><time>2026-05-04T14:56:58.897Z</time></trkpt><trkpt lat="41.4022826" lon="1.0638575"><ele>485.0</ele><time>2026-05-04T14:56:59.897Z</time></trkpt><trkpt lat="41.402271" lon="1.0640584"><ele>485.0</ele><time>2026-05-04T14:57:00.897Z</time></trkpt><trkpt lat="41.4022606" lon="1.0642578"><ele>485.0</ele><time>2026-05-04T14:57:01.897Z</time></trkpt><trkpt lat="41.4022526" lon="1.0644575"><ele>485.0</ele><time>2026-05-04T14:57:02.897Z</time></trkpt><trkpt lat="41.4022443" lon="1.064661"><ele>485.0</ele><time>2026-05-04T14:57:03.897Z</time></trkpt><trkpt lat="41.4022438" lon="1.0648661"><ele>485.0</ele><time>2026-05-04T14:57:04.897Z</time></trkpt><trkpt lat="41.4022457" lon="1.0650719"><ele>485.0</ele><time>2026-05-04T14:57:05.897Z</time></trkpt><trkpt lat="41.4022551" lon="1.0652723"><ele>484.0</ele><time>2026-05-04T14:57:06.896Z</time></trkpt><trkpt lat="41.4022672" lon="1.0654745"><ele>483.0</ele><time>2026-05-04T14:57:07.897Z</time></trkpt><trkpt lat="41.4022796" lon="1.0656754"><ele>482.0</ele><time>2026-05-04T14:57:08.897Z</time></trkpt><trkpt lat="41.4023021" lon="1.0658768"><ele>480.0</ele><time>2026-05-04T14:57:09.897Z</time></trkpt><trkpt lat="41.4023262" lon="1.0660708"><ele>478.0</ele><time>2026-05-04T14:57:10.897Z</time></trkpt><trkpt lat="41.4023564" lon="1.0662724"><ele>476.0</ele><time>2026-05-04T14:57:11.897Z</time></trkpt><trkpt lat="41.4023948" lon="1.0664725"><ele>474.66666666666663</ele><time>2026-05-04T14:57:12.897Z</time></trkpt><trkpt lat="41.4024315" lon="1.0666719"><ele>473.33333333333337</ele><time>2026-05-04T14:57:13.896Z</time></trkpt><trkpt lat="41.4024733" lon="1.0668737"><ele>472.0</ele><time>2026-05-04T14:57:14.897Z</time></trkpt><trkpt lat="41.4025147" lon="1.0670669"><ele>472.0</ele><time>2026-05-04T14:57:15.896Z</time></trkpt><trkpt lat="41.4025631" lon="1.0672619"><ele>472.0</ele><time>2026-05-04T14:57:16.897Z</time></trkpt><trkpt lat="41.402616" lon="1.0674505"><ele>472.0</ele><time>2026-05-04T14:57:17.896Z</time></trkpt><trkpt lat="41.4026768" lon="1.0676363"><ele>471.33333333333337</ele><time>2026-05-04T14:57:18.897Z</time></trkpt><trkpt lat="41.4027416" lon="1.0678281"><ele>470.66666666666663</ele><time>2026-05-04T14:57:19.897Z</time></trkpt><trkpt lat="41.4028105" lon="1.0680177"><ele>470.0</ele><time>2026-05-04T14:57:20.897Z</time></trkpt><trkpt lat="41.4028843" lon="1.0682018"><ele>470.66666666666663</ele><time>2026-05-04T14:57:21.897Z</time></trkpt><trkpt lat="41.4029533" lon="1.0683892"><ele>471.33333333333337</ele><time>2026-05-04T14:57:22.896Z</time></trkpt><trkpt lat="41.4030197" lon="1.0685765"><ele>472.0</ele><time>2026-05-04T14:57:23.897Z</time></trkpt><trkpt lat="41.4030895" lon="1.0687652"><ele>472.0</ele><time>2026-05-04T14:57:24.896Z</time></trkpt><trkpt lat="41.4031648" lon="1.0689499"><ele>472.0</ele><time>2026-05-04T14:57:25.897Z</time></trkpt><trkpt lat="41.4032363" lon="1.0691365"><ele>472.0</ele><time>2026-05-04T14:57:26.897Z</time></trkpt><trkpt lat="41.4033053" lon="1.069327"><ele>469.0</ele><time>2026-05-04T14:57:27.897Z</time></trkpt><trkpt lat="41.4033725" lon="1.0695172"><ele>466.0</ele><time>2026-05-04T14:57:28.897Z</time></trkpt><trkpt lat="41.4034401" lon="1.069708"><ele>463.0</ele><time>2026-05-04T14:57:29.897Z</time></trkpt><trkpt lat="41.4035098" lon="1.0699012"><ele>461.0</ele><time>2026-05-04T14:57:30.897Z</time></trkpt><trkpt lat="41.4035762" lon="1.0700887"><ele>459.0</ele><time>2026-05-04T14:57:31.896Z</time></trkpt><trkpt lat="41.4036353" lon="1.0702838"><ele>457.0</ele><time>2026-05-04T14:57:32.897Z</time></trkpt><trkpt lat="41.4036916" lon="1.0704807"><ele>457.0</ele><time>2026-05-04T14:57:33.897Z</time></trkpt><trkpt lat="41.4037461" lon="1.0706744"><ele>457.0</ele><time>2026-05-04T14:57:34.897Z</time></trkpt><trkpt lat="41.4037921" lon="1.070871"><ele>457.0</ele><time>2026-05-04T14:57:35.897Z</time></trkpt><trkpt lat="41.4038393" lon="1.071065"><ele>454.6666666666667</ele><time>2026-05-04T14:57:36.896Z</time></trkpt><trkpt lat="41.4038812" lon="1.0712651"><ele>452.33333333333337</ele><time>2026-05-04T14:57:37.897Z</time></trkpt><trkpt lat="41.4039138" lon="1.0714622"><ele>450.0</ele><time>2026-05-04T14:57:38.897Z</time></trkpt><trkpt lat="41.4039503" lon="1.0716628"><ele>450.0</ele><time>2026-05-04T14:57:39.897Z</time></trkpt><trkpt lat="41.4039824" lon="1.0718649"><ele>450.0</ele><time>2026-05-04T14:57:40.896Z</time></trkpt><trkpt lat="41.4040056" lon="1.0720644"><ele>450.0</ele><time>2026-05-04T14:57:41.896Z</time></trkpt><trkpt lat="41.4040266" lon="1.0722607"><ele>450.33333333333337</ele><time>2026-05-04T14:57:42.897Z</time></trkpt><trkpt lat="41.4040441" lon="1.0724599"><ele>450.6666666666667</ele><time>2026-05-04T14:57:43.897Z</time></trkpt><trkpt lat="41.4040559" lon="1.0726624"><ele>451.0</ele><time>2026-05-04T14:57:44.897Z</time></trkpt><trkpt lat="41.4040625" lon="1.0728598"><ele>451.0</ele><time>2026-05-04T14:57:45.897Z</time></trkpt><trkpt lat="41.4040682" lon="1.0730569"><ele>451.0</ele><time>2026-05-04T14:57:46.898Z</time></trkpt><trkpt lat="41.4040687" lon="1.0732528"><ele>451.0</ele><time>2026-05-04T14:57:47.898Z</time></trkpt><trkpt lat="41.4040689" lon="1.0734452"><ele>451.0</ele><time>2026-05-04T14:57:48.897Z</time></trkpt><trkpt lat="41.4040609" lon="1.0736432"><ele>451.25</ele><time>2026-05-04T14:57:49.897Z</time></trkpt><trkpt lat="41.4040519" lon="1.0738324"><ele>451.5</ele><time>2026-05-04T14:57:50.897Z</time></trkpt><trkpt lat="41.4040402" lon="1.0740199"><ele>451.75</ele><time>2026-05-04T14:57:51.898Z</time></trkpt><trkpt lat="41.4040245" lon="1.0742105"><ele>452.0</ele><time>2026-05-04T14:57:52.898Z</time></trkpt><trkpt lat="41.4040046" lon="1.0743953"><ele>452.25</ele><time>2026-05-04T14:57:53.898Z</time></trkpt><trkpt lat="41.4039811" lon="1.0745795"><ele>452.5</ele><time>2026-05-04T14:57:54.898Z</time></trkpt><trkpt lat="41.4039609" lon="1.0747591"><ele>452.75</ele><time>2026-05-04T14:57:55.898Z</time></trkpt><trkpt lat="41.4039352" lon="1.0749365"><ele>453.0</ele><time>2026-05-04T14:57:56.897Z</time></trkpt><trkpt lat="41.4039024" lon="1.075116"><ele>452.5</ele><time>2026-05-04T14:57:57.898Z</time></trkpt><trkpt lat="41.4038655" lon="1.075294"><ele>452.0</ele><time>2026-05-04T14:57:58.898Z</time></trkpt><trkpt lat="41.4038229" lon="1.0754667"><ele>451.5</ele><time>2026-05-04T14:57:59.898Z</time></trkpt><trkpt lat="41.4037709" lon="1.0756397"><ele>451.0</ele><time>2026-05-04T14:58:00.898Z</time></trkpt><trkpt lat="41.4037245" lon="1.0758143"><ele>450.0</ele><time>2026-05-04T14:58:01.898Z</time></trkpt><trkpt lat="41.4036727" lon="1.0759992"><ele>449.0</ele><time>2026-05-04T14:58:02.898Z</time></trkpt><trkpt lat="41.4036256" lon="1.0761743"><ele>448.0</ele><time>2026-05-04T14:58:03.897Z</time></trkpt><trkpt lat="41.4035761" lon="1.0763551"><ele>447.0</ele><time>2026-05-04T14:58:04.897Z</time></trkpt><trkpt lat="41.4035248" lon="1.0765369"><ele>446.25</ele><time>2026-05-04T14:58:05.898Z</time></trkpt><trkpt lat="41.403476" lon="1.0767208"><ele>445.5</ele><time>2026-05-04T14:58:06.898Z</time></trkpt><trkpt lat="41.403434" lon="1.0769011"><ele>444.75</ele><time>2026-05-04T14:58:07.898Z</time></trkpt><trkpt lat="41.4033935" lon="1.0770811"><ele>444.0</ele><time>2026-05-04T14:58:08.898Z</time></trkpt><trkpt lat="41.4033538" lon="1.0772637"><ele>444.75</ele><time>2026-05-04T14:58:09.897Z</time></trkpt><trkpt lat="41.403315" lon="1.0774426"><ele>445.5</ele><time>2026-05-04T14:58:10.898Z</time></trkpt><trkpt lat="41.4032852" lon="1.0776164"><ele>446.25</ele><time>2026-05-04T14:58:11.897Z</time></trkpt><trkpt lat="41.403255" lon="1.0777987"><ele>447.0</ele><time>2026-05-04T14:58:12.898Z</time></trkpt><trkpt lat="41.4032249" lon="1.0779754"><ele>447.0</ele><time>2026-05-04T14:58:13.898Z</time></trkpt><trkpt lat="41.4031925" lon="1.0781551"><ele>447.0</ele><time>2026-05-04T14:58:14.898Z</time></trkpt><trkpt lat="41.4031661" lon="1.0783267"><ele>447.0</ele><time>2026-05-04T14:58:15.898Z</time></trkpt><trkpt lat="41.4031466" lon="1.0784992"><ele>447.0</ele><time>2026-05-04T14:58:16.898Z</time></trkpt><trkpt lat="41.4031216" lon="1.0786737"><ele>447.75</ele><time>2026-05-04T14:58:17.898Z</time></trkpt><trkpt lat="41.4031103" lon="1.0788446"><ele>448.5</ele><time>2026-05-04T14:58:18.898Z</time></trkpt><trkpt lat="41.4030993" lon="1.0790151"><ele>449.25</ele><time>2026-05-04T14:58:19.898Z</time></trkpt><trkpt lat="41.4030964" lon="1.0791908"><ele>450.0</ele><time>2026-05-04T14:58:20.898Z</time></trkpt><trkpt lat="41.4030926" lon="1.0793617"><ele>451.5</ele><time>2026-05-04T14:58:21.898Z</time></trkpt><trkpt lat="41.403089" lon="1.0795349"><ele>453.0</ele><time>2026-05-04T14:58:22.897Z</time></trkpt><trkpt lat="41.4030927" lon="1.0797048"><ele>454.5</ele><time>2026-05-04T14:58:23.898Z</time></trkpt><trkpt lat="41.4030975" lon="1.0798802"><ele>456.0</ele><time>2026-05-04T14:58:24.898Z</time></trkpt><trkpt lat="41.4031072" lon="1.0800565"><ele>456.25</ele><time>2026-05-04T14:58:25.898Z</time></trkpt><trkpt lat="41.4031223" lon="1.0802332"><ele>456.5</ele><time>2026-05-04T14:58:26.898Z</time></trkpt><trkpt lat="41.4031388" lon="1.0804111"><ele>456.75</ele><time>2026-05-04T14:58:27.898Z</time></trkpt><trkpt lat="41.4031608" lon="1.0805875"><ele>457.0</ele><time>2026-05-04T14:58:28.898Z</time></trkpt><trkpt lat="41.4031836" lon="1.0807699"><ele>455.0</ele><time>2026-05-04T14:58:29.898Z</time></trkpt><trkpt lat="41.4032082" lon="1.0809539"><ele>453.0</ele><time>2026-05-04T14:58:30.898Z</time></trkpt><trkpt lat="41.4032324" lon="1.081141"><ele>451.0</ele><time>2026-05-04T14:58:31.898Z</time></trkpt><trkpt lat="41.4032628" lon="1.0813309"><ele>449.0</ele><time>2026-05-04T14:58:32.898Z</time></trkpt><trkpt lat="41.403294" lon="1.0815196"><ele>447.75</ele><time>2026-05-04T14:58:33.898Z</time></trkpt><trkpt lat="41.4033291" lon="1.0817097"><ele>446.5</ele><time>2026-05-04T14:58:34.898Z</time></trkpt><trkpt lat="41.4033657" lon="1.0819038"><ele>445.25</ele><time>2026-05-04T14:58:35.898Z</time></trkpt><trkpt lat="41.403397" lon="1.0820949"><ele>444.0</ele><time>2026-05-04T14:58:36.898Z</time></trkpt><trkpt lat="41.4034337" lon="1.082293"><ele>443.0</ele><time>2026-05-04T14:58:37.898Z</time></trkpt><trkpt lat="41.4034709" lon="1.082487"><ele>442.0</ele><time>2026-05-04T14:58:38.897Z</time></trkpt><trkpt lat="41.4035095" lon="1.0826841"><ele>441.0</ele><time>2026-05-04T14:58:39.898Z</time></trkpt><trkpt lat="41.403546" lon="1.0828779"><ele>441.0</ele><time>2026-05-04T14:58:40.898Z</time></trkpt><trkpt lat="41.4035806" lon="1.0830719"><ele>441.0</ele><time>2026-05-04T14:58:41.898Z</time></trkpt><trkpt lat="41.403611" lon="1.0832679"><ele>441.0</ele><time>2026-05-04T14:58:42.898Z</time></trkpt><trkpt lat="41.4036421" lon="1.0834605"><ele>441.0</ele><time>2026-05-04T14:58:43.898Z</time></trkpt><trkpt lat="41.4036716" lon="1.0836569"><ele>440.33333333333337</ele><time>2026-05-04T14:58:44.897Z</time></trkpt><trkpt lat="41.4037014" lon="1.0838522"><ele>439.6666666666667</ele><time>2026-05-04T14:58:45.898Z</time></trkpt><trkpt lat="41.4037258" lon="1.0840499"><ele>439.0</ele><time>2026-05-04T14:58:46.898Z</time></trkpt><trkpt lat="41.4037473" lon="1.0842476"><ele>439.0</ele><time>2026-05-04T14:58:47.897Z</time></trkpt><trkpt lat="41.4037637" lon="1.0844418"><ele>439.0</ele><time>2026-05-04T14:58:48.897Z</time></trkpt><trkpt lat="41.4037801" lon="1.0846317"><ele>439.0</ele><time>2026-05-04T14:58:49.898Z</time></trkpt><trkpt lat="41.4037928" lon="1.0848261"><ele>439.0</ele><time>2026-05-04T14:58:50.898Z</time></trkpt><trkpt lat="41.4037996" lon="1.0850155"><ele>439.0</ele><time>2026-05-04T14:58:51.897Z</time></trkpt><trkpt lat="41.4038089" lon="1.085211"><ele>439.0</ele><time>2026-05-04T14:58:52.898Z</time></trkpt><trkpt lat="41.4038146" lon="1.0854058"><ele>439.0</ele><time>2026-05-04T14:58:53.897Z</time></trkpt><trkpt lat="41.4038171" lon="1.0855983"><ele>439.0</ele><time>2026-05-04T14:58:54.898Z</time></trkpt><trkpt lat="41.4038176" lon="1.0857893"><ele>437.5</ele><time>2026-05-04T14:58:55.897Z</time></trkpt><trkpt lat="41.4038122" lon="1.0859833"><ele>436.0</ele><time>2026-05-04T14:58:56.898Z</time></trkpt><trkpt lat="41.4038074" lon="1.0861739"><ele>434.5</ele><time>2026-05-04T14:58:57.897Z</time></trkpt><trkpt lat="41.4037944" lon="1.0863657"><ele>433.0</ele><time>2026-05-04T14:58:58.898Z</time></trkpt><trkpt lat="41.4037835" lon="1.0865557"><ele>433.5</ele><time>2026-05-04T14:58:59.897Z</time></trkpt><trkpt lat="41.4037712" lon="1.0867518"><ele>434.0</ele><time>2026-05-04T14:59:00.898Z</time></trkpt><trkpt lat="41.4037569" lon="1.0869411"><ele>434.5</ele><time>2026-05-04T14:59:01.897Z</time></trkpt><trkpt lat="41.4037382" lon="1.0871383"><ele>435.0</ele><time>2026-05-04T14:59:02.897Z</time></trkpt><trkpt lat="41.403717" lon="1.0873281"><ele>434.75</ele><time>2026-05-04T14:59:03.898Z</time></trkpt><trkpt lat="41.4036982" lon="1.0875192"><ele>434.5</ele><time>2026-05-04T14:59:04.898Z</time></trkpt><trkpt lat="41.4036746" lon="1.0877083"><ele>434.25</ele><time>2026-05-04T14:59:05.898Z</time></trkpt><trkpt lat="41.4036498" lon="1.0878935"><ele>434.0</ele><time>2026-05-04T14:59:06.897Z</time></trkpt><trkpt lat="41.4036258" lon="1.0880808"><ele>434.25</ele><time>2026-05-04T14:59:07.898Z</time></trkpt><trkpt lat="41.4036019" lon="1.0882652"><ele>434.5</ele><time>2026-05-04T14:59:08.897Z</time></trkpt><trkpt lat="41.4035765" lon="1.0884535"><ele>434.75</ele><time>2026-05-04T14:59:09.898Z</time></trkpt><trkpt lat="41.4035537" lon="1.0886402"><ele>435.0</ele><time>2026-05-04T14:59:10.898Z</time></trkpt><trkpt lat="41.4035317" lon="1.0888298"><ele>435.0</ele><time>2026-05-04T14:59:11.898Z</time></trkpt><trkpt lat="41.4035125" lon="1.0890163"><ele>435.0</ele><time>2026-05-04T14:59:12.897Z</time></trkpt><trkpt lat="41.4034898" lon="1.0892106"><ele>435.0</ele><time>2026-05-04T14:59:13.898Z</time></trkpt><trkpt lat="41.4034702" lon="1.0893948"><ele>435.0</ele><time>2026-05-04T14:59:14.898Z</time></trkpt><trkpt lat="41.4034493" lon="1.0895788"><ele>435.0</ele><time>2026-05-04T14:59:15.898Z</time></trkpt><trkpt lat="41.4034285" lon="1.0897648"><ele>435.0</ele><time>2026-05-04T14:59:16.898Z</time></trkpt><trkpt lat="41.4034093" lon="1.0899462"><ele>435.0</ele><time>2026-05-04T14:59:17.898Z</time></trkpt><trkpt lat="41.4033924" lon="1.0901393"><ele>435.0</ele><time>2026-05-04T14:59:18.898Z</time></trkpt><trkpt lat="41.4033709" lon="1.0903279"><ele>435.0</ele><time>2026-05-04T14:59:19.897Z</time></trkpt><trkpt lat="41.4033478" lon="1.0905126"><ele>435.0</ele><time>2026-05-04T14:59:20.898Z</time></trkpt><trkpt lat="41.4033214" lon="1.0906909"><ele>435.0</ele><time>2026-05-04T14:59:21.898Z</time></trkpt><trkpt lat="41.4032976" lon="1.0908781"><ele>435.0</ele><time>2026-05-04T14:59:22.898Z</time></trkpt><trkpt lat="41.4032809" lon="1.0910645"><ele>434.75</ele><time>2026-05-04T14:59:23.898Z</time></trkpt><trkpt lat="41.4032613" lon="1.0912501"><ele>434.5</ele><time>2026-05-04T14:59:24.898Z</time></trkpt><trkpt lat="41.4032437" lon="1.0914433"><ele>434.25</ele><time>2026-05-04T14:59:25.898Z</time></trkpt><trkpt lat="41.4032238" lon="1.091636"><ele>434.0</ele><time>2026-05-04T14:59:26.898Z</time></trkpt><trkpt lat="41.4032054" lon="1.091826"><ele>433.25</ele><time>2026-05-04T14:59:27.898Z</time></trkpt><trkpt lat="41.4031855" lon="1.0920205"><ele>432.5</ele><time>2026-05-04T14:59:28.897Z</time></trkpt><trkpt lat="41.4031676" lon="1.0922145"><ele>431.75</ele><time>2026-05-04T14:59:29.898Z</time></trkpt><trkpt lat="41.4031501" lon="1.0924047"><ele>431.0</ele><time>2026-05-04T14:59:30.898Z</time></trkpt><trkpt lat="41.4031339" lon="1.0925988"><ele>430.5</ele><time>2026-05-04T14:59:31.898Z</time></trkpt><trkpt lat="41.4031166" lon="1.0927944"><ele>430.0</ele><time>2026-05-04T14:59:32.898Z</time></trkpt><trkpt lat="41.4030988" lon="1.0929894"><ele>429.5</ele><time>2026-05-04T14:59:33.898Z</time></trkpt><trkpt lat="41.4030794" lon="1.093175"><ele>429.0</ele><time>2026-05-04T14:59:34.898Z</time></trkpt><trkpt lat="41.4030617" lon="1.0933691"><ele>428.75</ele><time>2026-05-04T14:59:35.898Z</time></trkpt><trkpt lat="41.4030415" lon="1.0935572"><ele>428.5</ele><time>2026-05-04T14:59:36.898Z</time></trkpt><trkpt lat="41.4030226" lon="1.0937441"><ele>428.25</ele><time>2026-05-04T14:59:37.898Z</time></trkpt><trkpt lat="41.4030013" lon="1.0939353"><ele>428.0</ele><time>2026-05-04T14:59:38.897Z</time></trkpt><trkpt lat="41.4029838" lon="1.0941266"><ele>427.75</ele><time>2026-05-04T14:59:39.898Z</time></trkpt><trkpt lat="41.4029684" lon="1.0943207"><ele>427.5</ele><time>2026-05-04T14:59:40.897Z</time></trkpt><trkpt lat="41.4029501" lon="1.0945074"><ele>427.25</ele><time>2026-05-04T14:59:41.898Z</time></trkpt><trkpt lat="41.402929" lon="1.0947033"><ele>427.0</ele><time>2026-05-04T14:59:42.898Z</time></trkpt><trkpt lat="41.4029084" lon="1.0949028"><ele>426.5</ele><time>2026-05-04T14:59:43.898Z</time></trkpt><trkpt lat="41.4028902" lon="1.0950967"><ele>426.0</ele><time>2026-05-04T14:59:44.897Z</time></trkpt><trkpt lat="41.4028726" lon="1.0952936"><ele>425.5</ele><time>2026-05-04T14:59:45.898Z</time></trkpt><trkpt lat="41.402856" lon="1.0954898"><ele>425.0</ele><time>2026-05-04T14:59:46.898Z</time></trkpt><trkpt lat="41.4028353" lon="1.0956884"><ele>425.0</ele><time>2026-05-04T14:59:47.898Z</time></trkpt><trkpt lat="41.4028162" lon="1.0958808"><ele>425.0</ele><time>2026-05-04T14:59:48.898Z</time></trkpt><trkpt lat="41.4027977" lon="1.0960745"><ele>425.0</ele><time>2026-05-04T14:59:49.898Z</time></trkpt><trkpt lat="41.4027777" lon="1.0962702"><ele>425.0</ele><time>2026-05-04T14:59:50.898Z</time></trkpt><trkpt lat="41.4027606" lon="1.0964659"><ele>424.5</ele><time>2026-05-04T14:59:51.898Z</time></trkpt><trkpt lat="41.402741" lon="1.0966542"><ele>424.0</ele><time>2026-05-04T14:59:52.897Z</time></trkpt><trkpt lat="41.4027274" lon="1.0968437"><ele>423.5</ele><time>2026-05-04T14:59:53.898Z</time></trkpt><trkpt lat="41.4027061" lon="1.097024"><ele>423.0</ele><time>2026-05-04T14:59:54.898Z</time></trkpt><trkpt lat="41.4026879" lon="1.0971993"><ele>423.0</ele><time>2026-05-04T14:59:55.897Z</time></trkpt><trkpt lat="41.4026695" lon="1.0973754"><ele>423.0</ele><time>2026-05-04T14:59:56.898Z</time></trkpt><trkpt lat="41.4026548" lon="1.0975479"><ele>423.0</ele><time>2026-05-04T14:59:57.898Z</time></trkpt><trkpt lat="41.4026378" lon="1.097725"><ele>423.0</ele><time>2026-05-04T14:59:58.898Z</time></trkpt><trkpt lat="41.4026251" lon="1.0978936"><ele>423.25</ele><time>2026-05-04T14:59:59.898Z</time></trkpt><trkpt lat="41.4026082" lon="1.0980553"><ele>423.5</ele><time>2026-05-04T15:00:00.898Z</time></trkpt><trkpt lat="41.4025934" lon="1.0982177"><ele>423.75</ele><time>2026-05-04T15:00:01.897Z</time></trkpt><trkpt lat="41.4025817" lon="1.0983778"><ele>424.0</ele><time>2026-05-04T15:00:02.898Z</time></trkpt><trkpt lat="41.4025655" lon="1.0985407"><ele>425.25</ele><time>2026-05-04T15:00:03.898Z</time></trkpt><trkpt lat="41.4025488" lon="1.0986975"><ele>426.5</ele><time>2026-05-04T15:00:04.898Z</time></trkpt><trkpt lat="41.4025305" lon="1.0988585"><ele>427.75</ele><time>2026-05-04T15:00:05.898Z</time></trkpt><trkpt lat="41.4025096" lon="1.0990206"><ele>429.0</ele><time>2026-05-04T15:00:06.898Z</time></trkpt><trkpt lat="41.4024913" lon="1.0991863"><ele>429.25</ele><time>2026-05-04T15:00:07.898Z</time></trkpt><trkpt lat="41.4024716" lon="1.0993511"><ele>429.5</ele><time>2026-05-04T15:00:08.898Z</time></trkpt><trkpt lat="41.4024559" lon="1.0995162"><ele>429.75</ele><time>2026-05-04T15:00:09.897Z</time></trkpt><trkpt lat="41.4024392" lon="1.099682"><ele>430.0</ele><time>2026-05-04T15:00:10.898Z</time></trkpt><trkpt lat="41.402423" lon="1.099852"><ele>430.5</ele><time>2026-05-04T15:00:11.898Z</time></trkpt><trkpt lat="41.4024031" lon="1.1000226"><ele>431.0</ele><time>2026-05-04T15:00:12.898Z</time></trkpt><trkpt lat="41.4023857" lon="1.1002001"><ele>431.5</ele><time>2026-05-04T15:00:13.898Z</time></trkpt><trkpt lat="41.4023682" lon="1.1003783"><ele>432.0</ele><time>2026-05-04T15:00:14.897Z</time></trkpt><trkpt lat="41.4023525" lon="1.1005484"><ele>432.0</ele><time>2026-05-04T15:00:15.899Z</time></trkpt><trkpt lat="41.4023397" lon="1.1007168"><ele>432.0</ele><time>2026-05-04T15:00:16.899Z</time></trkpt><trkpt lat="41.4023209" lon="1.1008912"><ele>432.0</ele><time>2026-05-04T15:00:17.899Z</time></trkpt><trkpt lat="41.4023006" lon="1.1010659"><ele>432.0</ele><time>2026-05-04T15:00:18.899Z</time></trkpt><trkpt lat="41.4022837" lon="1.1012414"><ele>432.25</ele><time>2026-05-04T15:00:19.899Z</time></trkpt><trkpt lat="41.4022684" lon="1.1014228"><ele>432.5</ele><time>2026-05-04T15:00:20.898Z</time></trkpt><trkpt lat="41.4022521" lon="1.1016062"><ele>432.75</ele><time>2026-05-04T15:00:21.899Z</time></trkpt><trkpt lat="41.4022361" lon="1.1017864"><ele>433.0</ele><time>2026-05-04T15:00:22.899Z</time></trkpt><trkpt lat="41.4022183" lon="1.1019726"><ele>433.0</ele><time>2026-05-04T15:00:23.899Z</time></trkpt><trkpt lat="41.4022031" lon="1.1021527"><ele>433.0</ele><time>2026-05-04T15:00:24.898Z</time></trkpt><trkpt lat="41.4021829" lon="1.1023368"><ele>433.0</ele><time>2026-05-04T15:00:25.899Z</time></trkpt><trkpt lat="41.4021614" lon="1.1025191"><ele>433.0</ele><time>2026-05-04T15:00:26.899Z</time></trkpt><trkpt lat="41.4021444" lon="1.1027003"><ele>430.75</ele><time>2026-05-04T15:00:27.899Z</time></trkpt><trkpt lat="41.4021238" lon="1.1028819"><ele>428.5</ele><time>2026-05-04T15:00:28.899Z</time></trkpt><trkpt lat="41.4021065" lon="1.1030629"><ele>426.25</ele><time>2026-05-04T15:00:29.898Z</time></trkpt><trkpt lat="41.4020961" lon="1.103248"><ele>424.0</ele><time>2026-05-04T15:00:30.899Z</time></trkpt><trkpt lat="41.4020789" lon="1.1034361"><ele>423.5</ele><time>2026-05-04T15:00:31.899Z</time></trkpt><trkpt lat="41.4020557" lon="1.1036228"><ele>423.0</ele><time>2026-05-04T15:00:32.899Z</time></trkpt><trkpt lat="41.402027" lon="1.1038058"><ele>422.5</ele><time>2026-05-04T15:00:33.899Z</time></trkpt><trkpt lat="41.4019992" lon="1.103982"><ele>422.0</ele><time>2026-05-04T15:00:34.899Z</time></trkpt><trkpt lat="41.4019671" lon="1.104148"><ele>421.5</ele><time>2026-05-04T15:00:35.899Z</time></trkpt><trkpt lat="41.4019255" lon="1.1043144"><ele>421.0</ele><time>2026-05-04T15:00:36.899Z</time></trkpt><trkpt lat="41.4018784" lon="1.1044705"><ele>420.5</ele><time>2026-05-04T15:00:37.898Z</time></trkpt><trkpt lat="41.4018257" lon="1.1046102"><ele>420.0</ele><time>2026-05-04T15:00:38.898Z</time></trkpt><trkpt lat="41.4017695" lon="1.1047361"><ele>420.0</ele><time>2026-05-04T15:00:39.899Z</time></trkpt><trkpt lat="41.4017117" lon="1.1048603"><ele>420.0</ele><time>2026-05-04T15:00:40.899Z</time></trkpt><trkpt lat="41.4016477" lon="1.1049712"><ele>420.0</ele><time>2026-05-04T15:00:41.898Z</time></trkpt><trkpt lat="41.4015794" lon="1.1050594"><ele>420.0</ele><time>2026-05-04T15:00:42.898Z</time></trkpt><trkpt lat="41.4014979" lon="1.1051137"><ele>420.0</ele><time>2026-05-04T15:00:43.899Z</time></trkpt><trkpt lat="41.4014093" lon="1.1051436"><ele>419.6</ele><time>2026-05-04T15:00:44.899Z</time></trkpt><trkpt lat="41.401313" lon="1.1051605"><ele>419.2</ele><time>2026-05-04T15:00:45.899Z</time></trkpt><trkpt lat="41.4012129" lon="1.1051746"><ele>418.79999999999995</ele><time>2026-05-04T15:00:46.899Z</time></trkpt><trkpt lat="41.401117" lon="1.1051792"><ele>418.4</ele><time>2026-05-04T15:00:47.899Z</time></trkpt><trkpt lat="41.4010316" lon="1.1051859"><ele>418.0</ele><time>2026-05-04T15:00:48.899Z</time></trkpt><trkpt lat="41.4009591" lon="1.1051805"><ele>418.00000000000006</ele><time>2026-05-04T15:00:49.899Z</time></trkpt><trkpt lat="41.4008536" lon="1.1051046"><ele>418.0</ele><time>2026-05-04T15:00:51.899Z</time></trkpt><trkpt lat="41.4008248" lon="1.1050226"><ele>418.0</ele><time>2026-05-04T15:00:52.899Z</time></trkpt><trkpt lat="41.4008207" lon="1.104936"><ele>418.0</ele><time>2026-05-04T15:00:53.899Z</time></trkpt><trkpt lat="41.4008942" lon="1.1048018"><ele>418.00000000000006</ele><time>2026-05-04T15:00:55.899Z</time></trkpt><trkpt lat="41.4009567" lon="1.104755"><ele>418.0</ele><time>2026-05-04T15:00:56.899Z</time></trkpt><trkpt lat="41.4010207" lon="1.1047016"><ele>418.4</ele><time>2026-05-04T15:00:57.899Z</time></trkpt><trkpt lat="41.4010977" lon="1.1046446"><ele>418.79999999999995</ele><time>2026-05-04T15:00:58.899Z</time></trkpt><trkpt lat="41.4011788" lon="1.1045778"><ele>419.2</ele><time>2026-05-04T15:00:59.899Z</time></trkpt><trkpt lat="41.4012691" lon="1.1045085"><ele>419.6</ele><time>2026-05-04T15:01:00.899Z</time></trkpt><trkpt lat="41.401359" lon="1.1044392"><ele>420.0</ele><time>2026-05-04T15:01:01.899Z</time></trkpt><trkpt lat="41.4014592" lon="1.1043767"><ele>420.0</ele><time>2026-05-04T15:01:02.899Z</time></trkpt><trkpt lat="41.4015677" lon="1.1043252"><ele>420.0</ele><time>2026-05-04T15:01:03.898Z</time></trkpt><trkpt lat="41.4016802" lon="1.1042846"><ele>420.0</ele><time>2026-05-04T15:01:04.898Z</time></trkpt><trkpt lat="41.4017949" lon="1.1042568"><ele>420.0</ele><time>2026-05-04T15:01:05.899Z</time></trkpt><trkpt lat="41.4019057" lon="1.1042308"><ele>420.0</ele><time>2026-05-04T15:01:06.898Z</time></trkpt><trkpt lat="41.4020178" lon="1.104204"><ele>420.0</ele><time>2026-05-04T15:01:07.899Z</time></trkpt><trkpt lat="41.402122" lon="1.1041844"><ele>420.0</ele><time>2026-05-04T15:01:08.899Z</time></trkpt><trkpt lat="41.4022197" lon="1.1041601"><ele>420.0</ele><time>2026-05-04T15:01:09.898Z</time></trkpt><trkpt lat="41.4023179" lon="1.1041525"><ele>420.0</ele><time>2026-05-04T15:01:10.899Z</time></trkpt><trkpt lat="41.4024041" lon="1.1041238"><ele>419.5</ele><time>2026-05-04T15:01:11.899Z</time></trkpt><trkpt lat="41.4024964" lon="1.1041068"><ele>419.0</ele><time>2026-05-04T15:01:12.899Z</time></trkpt><trkpt lat="41.4025849" lon="1.1040939"><ele>418.5</ele><time>2026-05-04T15:01:13.899Z</time></trkpt><trkpt lat="41.4026637" lon="1.1040808"><ele>418.0</ele><time>2026-05-04T15:01:14.899Z</time></trkpt><trkpt lat="41.4027275" lon="1.1040916"><ele>417.5</ele><time>2026-05-04T15:01:15.898Z</time></trkpt><trkpt lat="41.4027885" lon="1.1041334"><ele>417.0</ele><time>2026-05-04T15:01:16.899Z</time></trkpt><trkpt lat="41.4028387" lon="1.1041852"><ele>417.0</ele><time>2026-05-04T15:01:17.899Z</time></trkpt><trkpt lat="41.4028802" lon="1.1043188"><ele>417.0</ele><time>2026-05-04T15:01:19.899Z</time></trkpt><trkpt lat="41.4029252" lon="1.1044229"><ele>417.0</ele><time>2026-05-04T15:01:21.899Z</time></trkpt><trkpt lat="41.4029712" lon="1.1045094"><ele>417.0</ele><time>2026-05-04T15:01:23.899Z</time></trkpt><trkpt lat="41.403011" lon="1.1046075"><ele>417.0</ele><time>2026-05-04T15:01:25.899Z</time></trkpt><trkpt lat="41.4030465" lon="1.1047099"><ele>417.0</ele><time>2026-05-04T15:01:27.899Z</time></trkpt><trkpt lat="41.4030837" lon="1.1047904"><ele>417.0</ele><time>2026-05-04T15:01:29.899Z</time></trkpt><trkpt lat="41.4031446" lon="1.1048252"><ele>417.0</ele><time>2026-05-04T15:01:32.899Z</time></trkpt><trkpt lat="41.4030914" lon="1.1047747"><ele>417.0</ele><time>2026-05-04T15:13:16.903Z</time></trkpt><trkpt lat="41.4030421" lon="1.1048275"><ele>417.0</ele><time>2026-05-04T15:14:12.903Z</time></trkpt><trkpt lat="41.4029866" lon="1.1047793"><ele>417.0</ele><time>2026-05-04T15:16:19.904Z</time></trkpt><trkpt lat="41.4029357" lon="1.1048322"><ele>417.0</ele><time>2026-05-04T15:16:44.903Z</time></trkpt><trkpt lat="41.4029317" lon="1.1049226"><ele>417.0</ele><time>2026-05-04T15:17:21.904Z</time></trkpt><trkpt lat="41.4029363" lon="1.105026"><ele>416.6</ele><time>2026-05-04T15:17:24.904Z</time></trkpt><trkpt lat="41.4029397" lon="1.1051596"><ele>416.20000000000005</ele><time>2026-05-04T15:17:26.904Z</time></trkpt><trkpt lat="41.4029373" lon="1.1053129"><ele>415.8</ele><time>2026-05-04T15:17:28.904Z</time></trkpt><trkpt lat="41.4029249" lon="1.1054773"><ele>415.4</ele><time>2026-05-04T15:17:30.904Z</time></trkpt><trkpt lat="41.4029125" lon="1.1055605"><ele>415.0</ele><time>2026-05-04T15:17:31.904Z</time></trkpt><trkpt lat="41.4028899" lon="1.1056498"><ele>415.00000000000006</ele><time>2026-05-04T15:17:32.904Z</time></trkpt><trkpt lat="41.4028579" lon="1.105739"><ele>415.0</ele><time>2026-05-04T15:17:33.903Z</time></trkpt><trkpt lat="41.4028254" lon="1.105829"><ele>415.0</ele><time>2026-05-04T15:17:34.903Z</time></trkpt><trkpt lat="41.4027952" lon="1.1059282"><ele>415.0</ele><time>2026-05-04T15:17:35.904Z</time></trkpt><trkpt lat="41.40276" lon="1.1060262"><ele>415.00000000000006</ele><time>2026-05-04T15:17:36.905Z</time></trkpt><trkpt lat="41.4027228" lon="1.1061142"><ele>415.0</ele><time>2026-05-04T15:17:37.905Z</time></trkpt><trkpt lat="41.4026815" lon="1.1062106"><ele>415.33333333333337</ele><time>2026-05-04T15:17:38.905Z</time></trkpt><trkpt lat="41.4026349" lon="1.1063033"><ele>415.6666666666667</ele><time>2026-05-04T15:17:39.905Z</time></trkpt><trkpt lat="41.4025919" lon="1.1064008"><ele>416.0</ele><time>2026-05-04T15:17:40.905Z</time></trkpt><trkpt lat="41.402544" lon="1.1064954"><ele>416.33333333333337</ele><time>2026-05-04T15:17:41.905Z</time></trkpt><trkpt lat="41.4024968" lon="1.106589"><ele>416.6666666666667</ele><time>2026-05-04T15:17:42.904Z</time></trkpt><trkpt lat="41.4024496" lon="1.1066783"><ele>417.0</ele><time>2026-05-04T15:17:43.905Z</time></trkpt><trkpt lat="41.402401" lon="1.1067694"><ele>417.3333333333333</ele><time>2026-05-04T15:17:44.905Z</time></trkpt><trkpt lat="41.4023524" lon="1.1068594"><ele>417.66666666666663</ele><time>2026-05-04T15:17:45.904Z</time></trkpt><trkpt lat="41.4023021" lon="1.1069531"><ele>418.0</ele><time>2026-05-04T15:17:46.905Z</time></trkpt><trkpt lat="41.4022591" lon="1.1070435"><ele>418.3333333333333</ele><time>2026-05-04T15:17:47.905Z</time></trkpt><trkpt lat="41.4022134" lon="1.1071301"><ele>418.66666666666663</ele><time>2026-05-04T15:17:48.905Z</time></trkpt><trkpt lat="41.4021681" lon="1.1072198"><ele>419.0</ele><time>2026-05-04T15:17:49.905Z</time></trkpt><trkpt lat="41.4021204" lon="1.1073048"><ele>419.4</ele><time>2026-05-04T15:17:50.905Z</time></trkpt><trkpt lat="41.4020725" lon="1.1073915"><ele>419.79999999999995</ele><time>2026-05-04T15:17:51.905Z</time></trkpt><trkpt lat="41.4020293" lon="1.107463"><ele>420.20000000000005</ele><time>2026-05-04T15:17:52.905Z</time></trkpt><trkpt lat="41.4019315" lon="1.1075458"><ele>420.6</ele><time>2026-05-04T15:17:54.905Z</time></trkpt><trkpt lat="41.4018039" lon="1.1075672"><ele>421.0</ele><time>2026-05-04T15:17:56.905Z</time></trkpt><trkpt lat="41.4017344" lon="1.107566"><ele>421.33333333333337</ele><time>2026-05-04T15:17:57.904Z</time></trkpt><trkpt lat="41.4016685" lon="1.1075577"><ele>421.6666666666667</ele><time>2026-05-04T15:17:58.905Z</time></trkpt><trkpt lat="41.4016008" lon="1.1075411"><ele>422.0</ele><time>2026-05-04T15:17:59.904Z</time></trkpt><trkpt lat="41.4015261" lon="1.107513"><ele>422.33333333333337</ele><time>2026-05-04T15:18:00.905Z</time></trkpt><trkpt lat="41.4014511" lon="1.1074814"><ele>422.6666666666667</ele><time>2026-05-04T15:18:01.905Z</time></trkpt><trkpt lat="41.4013738" lon="1.1074548"><ele>423.0</ele><time>2026-05-04T15:18:02.904Z</time></trkpt><trkpt lat="41.4012909" lon="1.1074301"><ele>423.0</ele><time>2026-05-04T15:18:03.905Z</time></trkpt><trkpt lat="41.4012124" lon="1.1074001"><ele>423.0</ele><time>2026-05-04T15:18:04.905Z</time></trkpt><trkpt lat="41.4011308" lon="1.107372"><ele>423.0</ele><time>2026-05-04T15:18:05.904Z</time></trkpt><trkpt lat="41.4010608" lon="1.1073406"><ele>423.0</ele><time>2026-05-04T15:18:06.904Z</time></trkpt><trkpt lat="41.4009997" lon="1.107315"><ele>423.0</ele><time>2026-05-04T15:18:07.905Z</time></trkpt><trkpt lat="41.4009133" lon="1.1072615"><ele>423.0</ele><time>2026-05-04T15:18:09.905Z</time></trkpt><trkpt lat="41.4008665" lon="1.1071951"><ele>423.0</ele><time>2026-05-04T15:18:13.905Z</time></trkpt><trkpt lat="41.4007866" lon="1.1072502"><ele>423.0</ele><time>2026-05-04T15:18:17.905Z</time></trkpt><trkpt lat="41.4007281" lon="1.1073868"><ele>423.0</ele><time>2026-05-04T15:18:19.905Z</time></trkpt><trkpt lat="41.4006873" lon="1.1074745"><ele>423.0</ele><time>2026-05-04T15:18:20.904Z</time></trkpt><trkpt lat="41.4006495" lon="1.1075609"><ele>423.0</ele><time>2026-05-04T15:18:21.904Z</time></trkpt><trkpt lat="41.4006138" lon="1.1076535"><ele>423.0</ele><time>2026-05-04T15:18:22.905Z</time></trkpt><trkpt lat="41.4005745" lon="1.1077483"><ele>423.59999999999997</ele><time>2026-05-04T15:18:23.904Z</time></trkpt><trkpt lat="41.4005315" lon="1.1078511"><ele>424.2</ele><time>2026-05-04T15:18:24.905Z</time></trkpt><trkpt lat="41.4004905" lon="1.1079522"><ele>424.8</ele><time>2026-05-04T15:18:25.905Z</time></trkpt><trkpt lat="41.4004468" lon="1.1080582"><ele>425.4</ele><time>2026-05-04T15:18:26.905Z</time></trkpt><trkpt lat="41.4003978" lon="1.108164"><ele>426.0</ele><time>2026-05-04T15:18:27.905Z</time></trkpt><trkpt lat="41.4003481" lon="1.1082751"><ele>427.20000000000005</ele><time>2026-05-04T15:18:28.905Z</time></trkpt><trkpt lat="41.4003035" lon="1.1083909"><ele>428.40000000000003</ele><time>2026-05-04T15:18:29.905Z</time></trkpt><trkpt lat="41.4002559" lon="1.1085041"><ele>429.6</ele><time>2026-05-04T15:18:30.904Z</time></trkpt><trkpt lat="41.4002057" lon="1.1086227"><ele>430.8</ele><time>2026-05-04T15:18:31.905Z</time></trkpt><trkpt lat="41.4001603" lon="1.1087385"><ele>432.0</ele><time>2026-05-04T15:18:32.905Z</time></trkpt><trkpt lat="41.4001123" lon="1.1088576"><ele>432.0</ele><time>2026-05-04T15:18:33.905Z</time></trkpt><trkpt lat="41.4000627" lon="1.1089778"><ele>432.00000000000006</ele><time>2026-05-04T15:18:34.905Z</time></trkpt><trkpt lat="41.4000124" lon="1.1090971"><ele>432.00000000000006</ele><time>2026-05-04T15:18:35.905Z</time></trkpt><trkpt lat="41.3999628" lon="1.1092171"><ele>432.0</ele><time>2026-05-04T15:18:36.905Z</time></trkpt><trkpt lat="41.399913" lon="1.1093415"><ele>432.0</ele><time>2026-05-04T15:18:37.905Z</time></trkpt><trkpt lat="41.3998619" lon="1.109466"><ele>432.40000000000003</ele><time>2026-05-04T15:18:38.904Z</time></trkpt><trkpt lat="41.3998119" lon="1.1095906"><ele>432.80000000000007</ele><time>2026-05-04T15:18:39.905Z</time></trkpt><trkpt lat="41.3997617" lon="1.1097142"><ele>433.2</ele><time>2026-05-04T15:18:40.905Z</time></trkpt><trkpt lat="41.3997102" lon="1.1098377"><ele>433.6</ele><time>2026-05-04T15:18:41.905Z</time></trkpt><trkpt lat="41.3996594" lon="1.1099698"><ele>434.0</ele><time>2026-05-04T15:18:42.905Z</time></trkpt><trkpt lat="41.3996093" lon="1.1100999"><ele>435.25</ele><time>2026-05-04T15:18:43.905Z</time></trkpt><trkpt lat="41.3995559" lon="1.1102293"><ele>436.5</ele><time>2026-05-04T15:18:44.905Z</time></trkpt><trkpt lat="41.3995042" lon="1.1103621"><ele>437.75</ele><time>2026-05-04T15:18:45.904Z</time></trkpt><trkpt lat="41.3994482" lon="1.1104989"><ele>439.0</ele><time>2026-05-04T15:18:46.905Z</time></trkpt><trkpt lat="41.399389" lon="1.1106387"><ele>439.0</ele><time>2026-05-04T15:18:47.904Z</time></trkpt><trkpt lat="41.3993353" lon="1.1107824"><ele>439.0</ele><time>2026-05-04T15:18:48.905Z</time></trkpt><trkpt lat="41.3992864" lon="1.1109262"><ele>439.0</ele><time>2026-05-04T15:18:49.905Z</time></trkpt><trkpt lat="41.3992346" lon="1.1110692"><ele>439.0</ele><time>2026-05-04T15:18:50.905Z</time></trkpt><trkpt lat="41.3991812" lon="1.1112165"><ele>439.0</ele><time>2026-05-04T15:18:51.905Z</time></trkpt><trkpt lat="41.3991271" lon="1.1113665"><ele>439.0</ele><time>2026-05-04T15:18:52.905Z</time></trkpt><trkpt lat="41.3990754" lon="1.111522"><ele>439.0</ele><time>2026-05-04T15:18:53.905Z</time></trkpt><trkpt lat="41.3990253" lon="1.1116815"><ele>439.0</ele><time>2026-05-04T15:18:54.905Z</time></trkpt><trkpt lat="41.3989766" lon="1.1118493"><ele>438.75</ele><time>2026-05-04T15:18:55.905Z</time></trkpt><trkpt lat="41.3989259" lon="1.1120175"><ele>438.5</ele><time>2026-05-04T15:18:56.905Z</time></trkpt><trkpt lat="41.3988758" lon="1.112187"><ele>438.25</ele><time>2026-05-04T15:18:57.905Z</time></trkpt><trkpt lat="41.3988308" lon="1.1123655"><ele>438.0</ele><time>2026-05-04T15:18:58.905Z</time></trkpt><trkpt lat="41.3987855" lon="1.1125422"><ele>437.75</ele><time>2026-05-04T15:18:59.905Z</time></trkpt><trkpt lat="41.3987449" lon="1.1127178"><ele>437.5</ele><time>2026-05-04T15:19:00.905Z</time></trkpt><trkpt lat="41.3987048" lon="1.1128915"><ele>437.25</ele><time>2026-05-04T15:19:01.905Z</time></trkpt><trkpt lat="41.3986673" lon="1.1130697"><ele>437.0</ele><time>2026-05-04T15:19:02.904Z</time></trkpt><trkpt lat="41.3986285" lon="1.1132462"><ele>436.25</ele><time>2026-05-04T15:19:03.905Z</time></trkpt><trkpt lat="41.3985931" lon="1.1134254"><ele>435.5</ele><time>2026-05-04T15:19:04.905Z</time></trkpt><trkpt lat="41.3985656" lon="1.1135927"><ele>434.75</ele><time>2026-05-04T15:19:05.905Z</time></trkpt><trkpt lat="41.3985397" lon="1.1137525"><ele>434.0</ele><time>2026-05-04T15:19:06.905Z</time></trkpt><trkpt lat="41.3985179" lon="1.1139144"><ele>432.5</ele><time>2026-05-04T15:19:07.905Z</time></trkpt><trkpt lat="41.3984978" lon="1.1140741"><ele>431.0</ele><time>2026-05-04T15:19:08.905Z</time></trkpt><trkpt lat="41.3984689" lon="1.1142449"><ele>429.5</ele><time>2026-05-04T15:19:09.905Z</time></trkpt><trkpt lat="41.3984489" lon="1.1144127"><ele>428.0</ele><time>2026-05-04T15:19:10.905Z</time></trkpt><trkpt lat="41.3984273" lon="1.1145844"><ele>428.0</ele><time>2026-05-04T15:19:11.905Z</time></trkpt><trkpt lat="41.3984129" lon="1.1147536"><ele>428.0</ele><time>2026-05-04T15:19:12.905Z</time></trkpt><trkpt lat="41.3984003" lon="1.114924"><ele>428.0</ele><time>2026-05-04T15:19:13.905Z</time></trkpt><trkpt lat="41.3983865" lon="1.1150981"><ele>428.0</ele><time>2026-05-04T15:19:14.905Z</time></trkpt><trkpt lat="41.3983732" lon="1.1152767"><ele>427.25</ele><time>2026-05-04T15:19:15.905Z</time></trkpt><trkpt lat="41.398362" lon="1.1154556"><ele>426.5</ele><time>2026-05-04T15:19:16.905Z</time></trkpt><trkpt lat="41.3983525" lon="1.1156356"><ele>425.75</ele><time>2026-05-04T15:19:17.905Z</time></trkpt><trkpt lat="41.3983467" lon="1.1158247"><ele>425.0</ele><time>2026-05-04T15:19:18.905Z</time></trkpt><trkpt lat="41.3983436" lon="1.1160095"><ele>424.75</ele><time>2026-05-04T15:19:19.904Z</time></trkpt><trkpt lat="41.3983421" lon="1.1161924"><ele>424.5</ele><time>2026-05-04T15:19:20.905Z</time></trkpt><trkpt lat="41.3983438" lon="1.1163799"><ele>424.25</ele><time>2026-05-04T15:19:21.905Z</time></trkpt><trkpt lat="41.3983446" lon="1.1165729"><ele>424.0</ele><time>2026-05-04T15:19:22.905Z</time></trkpt><trkpt lat="41.3983496" lon="1.1167686"><ele>423.75</ele><time>2026-05-04T15:19:23.905Z</time></trkpt><trkpt lat="41.3983539" lon="1.1169675"><ele>423.5</ele><time>2026-05-04T15:19:24.905Z</time></trkpt><trkpt lat="41.3983623" lon="1.1171624"><ele>423.25</ele><time>2026-05-04T15:19:25.905Z</time></trkpt><trkpt lat="41.398373" lon="1.1173591"><ele>423.0</ele><time>2026-05-04T15:19:26.905Z</time></trkpt><trkpt lat="41.3983873" lon="1.1175517"><ele>421.0</ele><time>2026-05-04T15:19:27.905Z</time></trkpt><trkpt lat="41.3984062" lon="1.1177439"><ele>419.0</ele><time>2026-05-04T15:19:28.904Z</time></trkpt><trkpt lat="41.3984247" lon="1.1179401"><ele>417.0</ele><time>2026-05-04T15:19:29.905Z</time></trkpt><trkpt lat="41.3984451" lon="1.1181403"><ele>415.0</ele><time>2026-05-04T15:19:30.905Z</time></trkpt><trkpt lat="41.3984679" lon="1.1183375"><ele>413.33333333333337</ele><time>2026-05-04T15:19:31.905Z</time></trkpt><trkpt lat="41.3984968" lon="1.1185418"><ele>411.66666666666663</ele><time>2026-05-04T15:19:32.905Z</time></trkpt><trkpt lat="41.3985295" lon="1.1187422"><ele>410.0</ele><time>2026-05-04T15:19:33.905Z</time></trkpt><trkpt lat="41.3985586" lon="1.1189479"><ele>408.3333333333333</ele><time>2026-05-04T15:19:34.905Z</time></trkpt><trkpt lat="41.3985863" lon="1.1191532"><ele>406.66666666666663</ele><time>2026-05-04T15:19:35.905Z</time></trkpt><trkpt lat="41.3986142" lon="1.1193639"><ele>405.0</ele><time>2026-05-04T15:19:36.905Z</time></trkpt><trkpt lat="41.3986423" lon="1.1195726"><ele>405.0</ele><time>2026-05-04T15:19:37.905Z</time></trkpt><trkpt lat="41.3986729" lon="1.1197754"><ele>405.0</ele><time>2026-05-04T15:19:38.905Z</time></trkpt><trkpt lat="41.3987051" lon="1.1199813"><ele>405.0</ele><time>2026-05-04T15:19:39.905Z</time></trkpt><trkpt lat="41.3987336" lon="1.1202018"><ele>403.66666666666663</ele><time>2026-05-04T15:19:40.905Z</time></trkpt><trkpt lat="41.3987657" lon="1.1204206"><ele>402.3333333333333</ele><time>2026-05-04T15:19:41.905Z</time></trkpt><trkpt lat="41.3987925" lon="1.1206372"><ele>401.0</ele><time>2026-05-04T15:19:42.905Z</time></trkpt><trkpt lat="41.3988221" lon="1.1208506"><ele>401.3333333333333</ele><time>2026-05-04T15:19:43.905Z</time></trkpt><trkpt lat="41.3988528" lon="1.1210588"><ele>401.66666666666663</ele><time>2026-05-04T15:19:44.905Z</time></trkpt><trkpt lat="41.39888" lon="1.1212577"><ele>402.0</ele><time>2026-05-04T15:19:45.904Z</time></trkpt><trkpt lat="41.3989072" lon="1.1214585"><ele>400.75</ele><time>2026-05-04T15:19:46.905Z</time></trkpt><trkpt lat="41.3989276" lon="1.1216542"><ele>399.5</ele><time>2026-05-04T15:19:47.905Z</time></trkpt><trkpt lat="41.3989491" lon="1.1218523"><ele>398.25</ele><time>2026-05-04T15:19:48.905Z</time></trkpt><trkpt lat="41.398964" lon="1.1220525"><ele>397.0</ele><time>2026-05-04T15:19:49.905Z</time></trkpt><trkpt lat="41.3989691" lon="1.1222572"><ele>396.0</ele><time>2026-05-04T15:19:50.904Z</time></trkpt><trkpt lat="41.3989578" lon="1.1224647"><ele>395.0</ele><time>2026-05-04T15:19:51.905Z</time></trkpt><trkpt lat="41.3989331" lon="1.1226655"><ele>394.0</ele><time>2026-05-04T15:19:52.905Z</time></trkpt><trkpt lat="41.3989011" lon="1.1228672"><ele>394.0</ele><time>2026-05-04T15:19:53.905Z</time></trkpt><trkpt lat="41.3988577" lon="1.1230668"><ele>394.0</ele><time>2026-05-04T15:19:54.905Z</time></trkpt><trkpt lat="41.3988044" lon="1.123256"><ele>394.0</ele><time>2026-05-04T15:19:55.905Z</time></trkpt><trkpt lat="41.3987459" lon="1.1234427"><ele>394.33333333333337</ele><time>2026-05-04T15:19:56.905Z</time></trkpt><trkpt lat="41.3986711" lon="1.1236216"><ele>394.66666666666663</ele><time>2026-05-04T15:19:57.905Z</time></trkpt><trkpt lat="41.3985938" lon="1.1237977"><ele>395.0</ele><time>2026-05-04T15:19:58.905Z</time></trkpt><trkpt lat="41.3985096" lon="1.1239628"><ele>395.0</ele><time>2026-05-04T15:19:59.905Z</time></trkpt><trkpt lat="41.3984141" lon="1.1241149"><ele>395.0</ele><time>2026-05-04T15:20:00.905Z</time></trkpt><trkpt lat="41.3983135" lon="1.1242658"><ele>395.0</ele><time>2026-05-04T15:20:01.905Z</time></trkpt><trkpt lat="41.3982074" lon="1.1244106"><ele>395.0</ele><time>2026-05-04T15:20:02.905Z</time></trkpt><trkpt lat="41.3981018" lon="1.1245571"><ele>395.0</ele><time>2026-05-04T15:20:03.905Z</time></trkpt><trkpt lat="41.3979905" lon="1.1247005"><ele>395.0</ele><time>2026-05-04T15:20:04.905Z</time></trkpt><trkpt lat="41.3978753" lon="1.1248465"><ele>395.3333333333333</ele><time>2026-05-04T15:20:05.905Z</time></trkpt><trkpt lat="41.3977648" lon="1.1249921"><ele>395.66666666666663</ele><time>2026-05-04T15:20:06.905Z</time></trkpt><trkpt lat="41.3976528" lon="1.1251381"><ele>396.0</ele><time>2026-05-04T15:20:07.905Z</time></trkpt><trkpt lat="41.3975447" lon="1.125282"><ele>396.0</ele><time>2026-05-04T15:20:08.905Z</time></trkpt><trkpt lat="41.3974335" lon="1.1254254"><ele>396.0</ele><time>2026-05-04T15:20:09.905Z</time></trkpt><trkpt lat="41.397325" lon="1.125567"><ele>396.0</ele><time>2026-05-04T15:20:10.904Z</time></trkpt><trkpt lat="41.3972114" lon="1.1257102"><ele>397.0</ele><time>2026-05-04T15:20:11.905Z</time></trkpt><trkpt lat="41.3971107" lon="1.125846"><ele>398.0</ele><time>2026-05-04T15:20:12.905Z</time></trkpt><trkpt lat="41.3970118" lon="1.1259753"><ele>399.0</ele><time>2026-05-04T15:20:13.906Z</time></trkpt><trkpt lat="41.3969173" lon="1.1260982"><ele>400.0</ele><time>2026-05-04T15:20:14.906Z</time></trkpt><trkpt lat="41.3968233" lon="1.1262206"><ele>400.0</ele><time>2026-05-04T15:20:15.906Z</time></trkpt><trkpt lat="41.3967293" lon="1.126342"><ele>400.0</ele><time>2026-05-04T15:20:16.905Z</time></trkpt><trkpt lat="41.3966367" lon="1.1264617"><ele>400.0</ele><time>2026-05-04T15:20:17.906Z</time></trkpt><trkpt lat="41.3965426" lon="1.1265935"><ele>400.0</ele><time>2026-05-04T15:20:18.906Z</time></trkpt><trkpt lat="41.3964443" lon="1.1267273"><ele>398.25</ele><time>2026-05-04T15:20:19.906Z</time></trkpt><trkpt lat="41.3963465" lon="1.1268552"><ele>396.5</ele><time>2026-05-04T15:20:20.906Z</time></trkpt><trkpt lat="41.3962498" lon="1.1269922"><ele>394.75</ele><time>2026-05-04T15:20:21.906Z</time></trkpt><trkpt lat="41.3961498" lon="1.1271337"><ele>393.0</ele><time>2026-05-04T15:20:22.906Z</time></trkpt><trkpt lat="41.3960524" lon="1.127277"><ele>390.66666666666663</ele><time>2026-05-04T15:20:23.906Z</time></trkpt><trkpt lat="41.3959562" lon="1.127429"><ele>388.3333333333333</ele><time>2026-05-04T15:20:24.906Z</time></trkpt><trkpt lat="41.3958581" lon="1.1275832"><ele>386.0</ele><time>2026-05-04T15:20:25.906Z</time></trkpt><trkpt lat="41.3957609" lon="1.127735"><ele>386.0</ele><time>2026-05-04T15:20:26.906Z</time></trkpt><trkpt lat="41.3956622" lon="1.1278877"><ele>386.0</ele><time>2026-05-04T15:20:27.906Z</time></trkpt><trkpt lat="41.3955709" lon="1.1280419"><ele>386.0</ele><time>2026-05-04T15:20:28.906Z</time></trkpt><trkpt lat="41.3954781" lon="1.1281922"><ele>386.0</ele><time>2026-05-04T15:20:29.905Z</time></trkpt><trkpt lat="41.3953889" lon="1.1283408"><ele>384.5</ele><time>2026-05-04T15:20:30.906Z</time></trkpt><trkpt lat="41.3952959" lon="1.1284954"><ele>383.0</ele><time>2026-05-04T15:20:31.906Z</time></trkpt><trkpt lat="41.3952055" lon="1.1286521"><ele>381.5</ele><time>2026-05-04T15:20:32.906Z</time></trkpt><trkpt lat="41.3951129" lon="1.1288114"><ele>380.0</ele><time>2026-05-04T15:20:33.906Z</time></trkpt><trkpt lat="41.3950253" lon="1.1289647"><ele>380.0</ele><time>2026-05-04T15:20:34.906Z</time></trkpt><trkpt lat="41.3949375" lon="1.1291212"><ele>380.0</ele><time>2026-05-04T15:20:35.906Z</time></trkpt><trkpt lat="41.3948502" lon="1.1292688"><ele>380.0</ele><time>2026-05-04T15:20:36.906Z</time></trkpt><trkpt lat="41.3947613" lon="1.1294159"><ele>380.0</ele><time>2026-05-04T15:20:37.905Z</time></trkpt><trkpt lat="41.3946707" lon="1.1295661"><ele>379.25</ele><time>2026-05-04T15:20:38.906Z</time></trkpt><trkpt lat="41.3945821" lon="1.1297177"><ele>378.5</ele><time>2026-05-04T15:20:39.905Z</time></trkpt><trkpt lat="41.394493" lon="1.1298635"><ele>377.75</ele><time>2026-05-04T15:20:40.905Z</time></trkpt><trkpt lat="41.3944081" lon="1.1300052"><ele>377.0</ele><time>2026-05-04T15:20:41.906Z</time></trkpt><trkpt lat="41.3943238" lon="1.1301444"><ele>376.75</ele><time>2026-05-04T15:20:42.906Z</time></trkpt><trkpt lat="41.3942353" lon="1.1302875"><ele>376.5</ele><time>2026-05-04T15:20:43.906Z</time></trkpt><trkpt lat="41.3941475" lon="1.1304301"><ele>376.25</ele><time>2026-05-04T15:20:44.906Z</time></trkpt><trkpt lat="41.3940627" lon="1.1305695"><ele>376.0</ele><time>2026-05-04T15:20:45.906Z</time></trkpt><trkpt lat="41.3939754" lon="1.1307047"><ele>376.25</ele><time>2026-05-04T15:20:46.906Z</time></trkpt><trkpt lat="41.3938926" lon="1.1308378"><ele>376.5</ele><time>2026-05-04T15:20:47.906Z</time></trkpt><trkpt lat="41.3938023" lon="1.1309758"><ele>376.75</ele><time>2026-05-04T15:20:48.906Z</time></trkpt><trkpt lat="41.3937175" lon="1.1311129"><ele>377.0</ele><time>2026-05-04T15:20:49.906Z</time></trkpt><trkpt lat="41.3936256" lon="1.1312467"><ele>376.25</ele><time>2026-05-04T15:20:50.906Z</time></trkpt><trkpt lat="41.3935324" lon="1.1313795"><ele>375.5</ele><time>2026-05-04T15:20:51.906Z</time></trkpt><trkpt lat="41.3934394" lon="1.13151"><ele>374.75</ele><time>2026-05-04T15:20:52.906Z</time></trkpt><trkpt lat="41.3933412" lon="1.1316425"><ele>374.0</ele><time>2026-05-04T15:20:53.906Z</time></trkpt><trkpt lat="41.3932442" lon="1.1317802"><ele>374.0</ele><time>2026-05-04T15:20:54.906Z</time></trkpt><trkpt lat="41.3931465" lon="1.1319209"><ele>374.0</ele><time>2026-05-04T15:20:55.906Z</time></trkpt><trkpt lat="41.3930449" lon="1.1320655"><ele>374.0</ele><time>2026-05-04T15:20:56.906Z</time></trkpt><trkpt lat="41.3929447" lon="1.1322042"><ele>374.0</ele><time>2026-05-04T15:20:57.906Z</time></trkpt><trkpt lat="41.3928485" lon="1.1323468"><ele>373.0</ele><time>2026-05-04T15:20:58.906Z</time></trkpt><trkpt lat="41.3927582" lon="1.1324943"><ele>372.0</ele><time>2026-05-04T15:20:59.906Z</time></trkpt><trkpt lat="41.3926699" lon="1.1326643"><ele>371.0</ele><time>2026-05-04T15:21:00.906Z</time></trkpt><trkpt lat="41.3925849" lon="1.1328388"><ele>371.0</ele><time>2026-05-04T15:21:01.906Z</time></trkpt><trkpt lat="41.3925029" lon="1.1330162"><ele>371.0</ele><time>2026-05-04T15:21:02.906Z</time></trkpt><trkpt lat="41.3924334" lon="1.1332013"><ele>371.0</ele><time>2026-05-04T15:21:03.906Z</time></trkpt><trkpt lat="41.3923846" lon="1.1333941"><ele>371.33333333333337</ele><time>2026-05-04T15:21:04.905Z</time></trkpt><trkpt lat="41.3923402" lon="1.1335915"><ele>371.6666666666667</ele><time>2026-05-04T15:21:05.906Z</time></trkpt><trkpt lat="41.3922992" lon="1.1337951"><ele>372.0</ele><time>2026-05-04T15:21:06.906Z</time></trkpt><trkpt lat="41.3922622" lon="1.133989"><ele>371.3333333333333</ele><time>2026-05-04T15:21:07.906Z</time></trkpt><trkpt lat="41.3922211" lon="1.1341906"><ele>370.66666666666663</ele><time>2026-05-04T15:21:08.905Z</time></trkpt><trkpt lat="41.3921827" lon="1.1343952"><ele>370.0</ele><time>2026-05-04T15:21:09.906Z</time></trkpt><trkpt lat="41.3921428" lon="1.1345906"><ele>369.0</ele><time>2026-05-04T15:21:10.906Z</time></trkpt><trkpt lat="41.3921076" lon="1.1347915"><ele>368.0</ele><time>2026-05-04T15:21:11.906Z</time></trkpt><trkpt lat="41.3920725" lon="1.1349916"><ele>367.0</ele><time>2026-05-04T15:21:12.906Z</time></trkpt><trkpt lat="41.3920365" lon="1.1351885"><ele>367.0</ele><time>2026-05-04T15:21:13.906Z</time></trkpt><trkpt lat="41.3920017" lon="1.1353872"><ele>367.0</ele><time>2026-05-04T15:21:14.906Z</time></trkpt><trkpt lat="41.3919644" lon="1.1355843"><ele>367.0</ele><time>2026-05-04T15:21:15.906Z</time></trkpt><trkpt lat="41.3919244" lon="1.1357839"><ele>367.3333333333333</ele><time>2026-05-04T15:21:16.906Z</time></trkpt><trkpt lat="41.3918863" lon="1.1359905"><ele>367.6666666666667</ele><time>2026-05-04T15:21:17.906Z</time></trkpt><trkpt lat="41.3918426" lon="1.1361873"><ele>368.0</ele><time>2026-05-04T15:21:18.906Z</time></trkpt><trkpt lat="41.3917982" lon="1.1363869"><ele>368.0</ele><time>2026-05-04T15:21:19.905Z</time></trkpt><trkpt lat="41.3917608" lon="1.1365878"><ele>368.0</ele><time>2026-05-04T15:21:20.906Z</time></trkpt><trkpt lat="41.391724" lon="1.1367878"><ele>368.0</ele><time>2026-05-04T15:21:21.906Z</time></trkpt><trkpt lat="41.3916892" lon="1.1369882"><ele>368.0</ele><time>2026-05-04T15:21:22.905Z</time></trkpt><trkpt lat="41.3916535" lon="1.1371783"><ele>368.0</ele><time>2026-05-04T15:21:23.906Z</time></trkpt><trkpt lat="41.3916186" lon="1.1373756"><ele>368.0</ele><time>2026-05-04T15:21:24.906Z</time></trkpt><trkpt lat="41.3915785" lon="1.1375696"><ele>368.0</ele><time>2026-05-04T15:21:25.905Z</time></trkpt><trkpt lat="41.3915422" lon="1.1377707"><ele>368.0</ele><time>2026-05-04T15:21:26.906Z</time></trkpt><trkpt lat="41.3915038" lon="1.1379707"><ele>368.0</ele><time>2026-05-04T15:21:27.906Z</time></trkpt><trkpt lat="41.391464" lon="1.1381685"><ele>368.0</ele><time>2026-05-04T15:21:28.905Z</time></trkpt><trkpt lat="41.3914252" lon="1.1383622"><ele>368.0</ele><time>2026-05-04T15:21:29.906Z</time></trkpt><trkpt lat="41.3913901" lon="1.1385611"><ele>368.0</ele><time>2026-05-04T15:21:30.906Z</time></trkpt><trkpt lat="41.3913564" lon="1.1387578"><ele>366.33333333333337</ele><time>2026-05-04T15:21:31.906Z</time></trkpt><trkpt lat="41.3913217" lon="1.1389582"><ele>364.6666666666667</ele><time>2026-05-04T15:21:32.906Z</time></trkpt><trkpt lat="41.3912867" lon="1.1391625"><ele>363.0</ele><time>2026-05-04T15:21:33.905Z</time></trkpt><trkpt lat="41.3912511" lon="1.1393702"><ele>363.0</ele><time>2026-05-04T15:21:34.906Z</time></trkpt><trkpt lat="41.3912137" lon="1.1395754"><ele>363.0</ele><time>2026-05-04T15:21:35.905Z</time></trkpt><trkpt lat="41.3911775" lon="1.1397798"><ele>363.0</ele><time>2026-05-04T15:21:36.905Z</time></trkpt><trkpt lat="41.3911402" lon="1.1399869"><ele>363.3333333333333</ele><time>2026-05-04T15:21:37.906Z</time></trkpt><trkpt lat="41.391095" lon="1.1401935"><ele>363.66666666666663</ele><time>2026-05-04T15:21:38.906Z</time></trkpt><trkpt lat="41.391058" lon="1.1404016"><ele>364.0</ele><time>2026-05-04T15:21:39.906Z</time></trkpt><trkpt lat="41.3910141" lon="1.1406131"><ele>363.0</ele><time>2026-05-04T15:21:40.906Z</time></trkpt><trkpt lat="41.3909769" lon="1.1408075"><ele>362.0</ele><time>2026-05-04T15:21:41.906Z</time></trkpt><trkpt lat="41.3909384" lon="1.1410023"><ele>361.0</ele><time>2026-05-04T15:21:42.905Z</time></trkpt><trkpt lat="41.3909035" lon="1.1412006"><ele>361.0</ele><time>2026-05-04T15:21:43.906Z</time></trkpt><trkpt lat="41.3908697" lon="1.1413931"><ele>361.0</ele><time>2026-05-04T15:21:44.906Z</time></trkpt><trkpt lat="41.3908377" lon="1.1415837"><ele>361.0</ele><time>2026-05-04T15:21:45.906Z</time></trkpt><trkpt lat="41.3908018" lon="1.1417746"><ele>361.0</ele><time>2026-05-04T15:21:46.906Z</time></trkpt><trkpt lat="41.3907668" lon="1.1419672"><ele>360.66666666666663</ele><time>2026-05-04T15:21:47.906Z</time></trkpt><trkpt lat="41.3907291" lon="1.142166"><ele>360.3333333333333</ele><time>2026-05-04T15:21:48.906Z</time></trkpt><trkpt lat="41.390689" lon="1.142362"><ele>360.0</ele><time>2026-05-04T15:21:49.906Z</time></trkpt><trkpt lat="41.3906507" lon="1.142561"><ele>360.0</ele><time>2026-05-04T15:21:50.906Z</time></trkpt><trkpt lat="41.390615" lon="1.1427572"><ele>360.0</ele><time>2026-05-04T15:21:51.906Z</time></trkpt><trkpt lat="41.3905773" lon="1.1429552"><ele>360.0</ele><time>2026-05-04T15:21:52.906Z</time></trkpt><trkpt lat="41.3905401" lon="1.143154"><ele>359.3333333333333</ele><time>2026-05-04T15:21:53.906Z</time></trkpt><trkpt lat="41.3904977" lon="1.1433538"><ele>358.66666666666663</ele><time>2026-05-04T15:21:54.906Z</time></trkpt><trkpt lat="41.3904624" lon="1.1435521"><ele>358.0</ele><time>2026-05-04T15:21:55.906Z</time></trkpt><trkpt lat="41.3904225" lon="1.1437563"><ele>358.0</ele><time>2026-05-04T15:21:56.906Z</time></trkpt><trkpt lat="41.3903869" lon="1.1439575"><ele>358.0</ele><time>2026-05-04T15:21:57.906Z</time></trkpt><trkpt lat="41.3903532" lon="1.1441588"><ele>358.0</ele><time>2026-05-04T15:21:58.906Z</time></trkpt><trkpt lat="41.390317" lon="1.144362"><ele>358.3333333333333</ele><time>2026-05-04T15:21:59.906Z</time></trkpt><trkpt lat="41.3902813" lon="1.1445703"><ele>358.6666666666667</ele><time>2026-05-04T15:22:00.905Z</time></trkpt><trkpt lat="41.3902425" lon="1.1447666"><ele>359.0</ele><time>2026-05-04T15:22:01.905Z</time></trkpt><trkpt lat="41.3902088" lon="1.1449656"><ele>359.33333333333337</ele><time>2026-05-04T15:22:02.906Z</time></trkpt><trkpt lat="41.3901723" lon="1.1451683"><ele>359.6666666666667</ele><time>2026-05-04T15:22:03.906Z</time></trkpt><trkpt lat="41.3901344" lon="1.1453715"><ele>360.0</ele><time>2026-05-04T15:22:04.906Z</time></trkpt><trkpt lat="41.3900969" lon="1.1455653"><ele>359.6666666666667</ele><time>2026-05-04T15:22:05.906Z</time></trkpt><trkpt lat="41.3900628" lon="1.1457632"><ele>359.33333333333337</ele><time>2026-05-04T15:22:06.906Z</time></trkpt><trkpt lat="41.3900235" lon="1.1459583"><ele>359.0</ele><time>2026-05-04T15:22:07.906Z</time></trkpt><trkpt lat="41.3899886" lon="1.1461538"><ele>359.0</ele><time>2026-05-04T15:22:08.906Z</time></trkpt><trkpt lat="41.3899524" lon="1.1463464"><ele>359.0</ele><time>2026-05-04T15:22:09.906Z</time></trkpt><trkpt lat="41.3899203" lon="1.146539"><ele>359.0</ele><time>2026-05-04T15:22:10.905Z</time></trkpt><trkpt lat="41.3898802" lon="1.1467347"><ele>359.0</ele><time>2026-05-04T15:22:11.906Z</time></trkpt><trkpt lat="41.3898441" lon="1.1469266"><ele>359.0</ele><time>2026-05-04T15:22:12.906Z</time></trkpt><trkpt lat="41.3898047" lon="1.1471208"><ele>359.0</ele><time>2026-05-04T15:22:13.906Z</time></trkpt><trkpt lat="41.3897681" lon="1.1473129"><ele>359.0</ele><time>2026-05-04T15:22:14.905Z</time></trkpt><trkpt lat="41.3897319" lon="1.1475045"><ele>359.0</ele><time>2026-05-04T15:22:15.906Z</time></trkpt><trkpt lat="41.3896962" lon="1.1477011"><ele>358.5</ele><time>2026-05-04T15:22:16.905Z</time></trkpt><trkpt lat="41.3896552" lon="1.1478968"><ele>358.0</ele><time>2026-05-04T15:22:17.906Z</time></trkpt><trkpt lat="41.3896191" lon="1.1480892"><ele>357.5</ele><time>2026-05-04T15:22:18.906Z</time></trkpt><trkpt lat="41.3895878" lon="1.1482815"><ele>357.0</ele><time>2026-05-04T15:22:19.906Z</time></trkpt><trkpt lat="41.3895537" lon="1.148476"><ele>357.0</ele><time>2026-05-04T15:22:20.906Z</time></trkpt><trkpt lat="41.389518" lon="1.1486729"><ele>357.0</ele><time>2026-05-04T15:22:21.906Z</time></trkpt><trkpt lat="41.3894803" lon="1.1488637"><ele>357.0</ele><time>2026-05-04T15:22:22.906Z</time></trkpt><trkpt lat="41.3894415" lon="1.1490631"><ele>356.5</ele><time>2026-05-04T15:22:23.905Z</time></trkpt><trkpt lat="41.3894041" lon="1.1492549"><ele>356.0</ele><time>2026-05-04T15:22:24.906Z</time></trkpt><trkpt lat="41.3893675" lon="1.1494468"><ele>355.5</ele><time>2026-05-04T15:22:25.906Z</time></trkpt><trkpt lat="41.3893336" lon="1.1496399"><ele>355.0</ele><time>2026-05-04T15:22:26.906Z</time></trkpt><trkpt lat="41.3893008" lon="1.1498319"><ele>354.75</ele><time>2026-05-04T15:22:27.906Z</time></trkpt><trkpt lat="41.3892647" lon="1.1500241"><ele>354.5</ele><time>2026-05-04T15:22:28.906Z</time></trkpt><trkpt lat="41.3892336" lon="1.1502184"><ele>354.25</ele><time>2026-05-04T15:22:29.906Z</time></trkpt><trkpt lat="41.3892014" lon="1.1504107"><ele>354.0</ele><time>2026-05-04T15:22:30.905Z</time></trkpt><trkpt lat="41.3891686" lon="1.1506036"><ele>354.0</ele><time>2026-05-04T15:22:31.906Z</time></trkpt><trkpt lat="41.3891363" lon="1.150798"><ele>354.0</ele><time>2026-05-04T15:22:32.906Z</time></trkpt><trkpt lat="41.3891" lon="1.1509915"><ele>354.0</ele><time>2026-05-04T15:22:33.905Z</time></trkpt><trkpt lat="41.3890636" lon="1.1511848"><ele>354.0</ele><time>2026-05-04T15:22:34.906Z</time></trkpt><trkpt lat="41.3890265" lon="1.1513814"><ele>353.5</ele><time>2026-05-04T15:22:35.906Z</time></trkpt><trkpt lat="41.3889879" lon="1.1515742"><ele>353.0</ele><time>2026-05-04T15:22:36.906Z</time></trkpt><trkpt lat="41.3889513" lon="1.1517619"><ele>352.5</ele><time>2026-05-04T15:22:37.905Z</time></trkpt><trkpt lat="41.3889121" lon="1.1519488"><ele>352.0</ele><time>2026-05-04T15:22:38.905Z</time></trkpt><trkpt lat="41.3888773" lon="1.152142"><ele>351.5</ele><time>2026-05-04T15:22:39.906Z</time></trkpt><trkpt lat="41.3888417" lon="1.1523324"><ele>351.0</ele><time>2026-05-04T15:22:40.906Z</time></trkpt><trkpt lat="41.3888032" lon="1.1525246"><ele>350.5</ele><time>2026-05-04T15:22:41.906Z</time></trkpt><trkpt lat="41.3887647" lon="1.1527077"><ele>350.0</ele><time>2026-05-04T15:22:42.906Z</time></trkpt><trkpt lat="41.3887353" lon="1.1529009"><ele>349.5</ele><time>2026-05-04T15:22:43.906Z</time></trkpt><trkpt lat="41.3887025" lon="1.1530879"><ele>349.0</ele><time>2026-05-04T15:22:44.906Z</time></trkpt><trkpt lat="41.3886712" lon="1.1532699"><ele>348.5</ele><time>2026-05-04T15:22:45.906Z</time></trkpt><trkpt lat="41.3886388" lon="1.1534524"><ele>348.0</ele><time>2026-05-04T15:22:46.906Z</time></trkpt><trkpt lat="41.3886045" lon="1.1536311"><ele>347.75</ele><time>2026-05-04T15:22:47.905Z</time></trkpt><trkpt lat="41.3885703" lon="1.1538095"><ele>347.5</ele><time>2026-05-04T15:22:48.907Z</time></trkpt><trkpt lat="41.3885375" lon="1.1539862"><ele>347.25</ele><time>2026-05-04T15:22:49.907Z</time></trkpt><trkpt lat="41.3885021" lon="1.1541648"><ele>347.0</ele><time>2026-05-04T15:22:50.907Z</time></trkpt><trkpt lat="41.3884675" lon="1.1543432"><ele>347.5</ele><time>2026-05-04T15:22:51.907Z</time></trkpt><trkpt lat="41.3884357" lon="1.1545175"><ele>348.0</ele><time>2026-05-04T15:22:52.906Z</time></trkpt><trkpt lat="41.3884026" lon="1.1546936"><ele>348.5</ele><time>2026-05-04T15:22:53.907Z</time></trkpt><trkpt lat="41.3883698" lon="1.1548679"><ele>349.0</ele><time>2026-05-04T15:22:54.907Z</time></trkpt><trkpt lat="41.3883392" lon="1.1550467"><ele>349.0</ele><time>2026-05-04T15:22:55.907Z</time></trkpt><trkpt lat="41.388306" lon="1.1552242"><ele>349.0</ele><time>2026-05-04T15:22:56.907Z</time></trkpt><trkpt lat="41.3882734" lon="1.1554049"><ele>349.0</ele><time>2026-05-04T15:22:57.907Z</time></trkpt><trkpt lat="41.3882378" lon="1.1555821"><ele>349.0</ele><time>2026-05-04T15:22:58.907Z</time></trkpt><trkpt lat="41.3882054" lon="1.1557554"><ele>349.0</ele><time>2026-05-04T15:22:59.907Z</time></trkpt><trkpt lat="41.3881707" lon="1.1559317"><ele>349.0</ele><time>2026-05-04T15:23:00.907Z</time></trkpt><trkpt lat="41.3881365" lon="1.1561089"><ele>349.0</ele><time>2026-05-04T15:23:01.907Z</time></trkpt><trkpt lat="41.3881031" lon="1.1562807"><ele>349.0</ele><time>2026-05-04T15:23:02.906Z</time></trkpt><trkpt lat="41.3880692" lon="1.1564598"><ele>348.5</ele><time>2026-05-04T15:23:03.907Z</time></trkpt><trkpt lat="41.3880346" lon="1.1566414"><ele>348.0</ele><time>2026-05-04T15:23:04.907Z</time></trkpt><trkpt lat="41.3880012" lon="1.1568298"><ele>347.5</ele><time>2026-05-04T15:23:05.907Z</time></trkpt><trkpt lat="41.3879651" lon="1.1570138"><ele>347.0</ele><time>2026-05-04T15:23:06.907Z</time></trkpt><trkpt lat="41.3879293" lon="1.1571929"><ele>346.25</ele><time>2026-05-04T15:23:07.907Z</time></trkpt><trkpt lat="41.3879003" lon="1.1573715"><ele>345.5</ele><time>2026-05-04T15:23:08.907Z</time></trkpt><trkpt lat="41.3878699" lon="1.1575617"><ele>344.75</ele><time>2026-05-04T15:23:09.907Z</time></trkpt><trkpt lat="41.3878349" lon="1.1577526"><ele>344.0</ele><time>2026-05-04T15:23:10.907Z</time></trkpt><trkpt lat="41.3877994" lon="1.1579411"><ele>344.0</ele><time>2026-05-04T15:23:11.907Z</time></trkpt><trkpt lat="41.3877626" lon="1.1581352"><ele>344.0</ele><time>2026-05-04T15:23:12.906Z</time></trkpt><trkpt lat="41.3877251" lon="1.158324"><ele>344.0</ele><time>2026-05-04T15:23:13.907Z</time></trkpt><trkpt lat="41.3876847" lon="1.1585211"><ele>344.33333333333337</ele><time>2026-05-04T15:23:14.907Z</time></trkpt><trkpt lat="41.3876465" lon="1.1587149"><ele>344.6666666666667</ele><time>2026-05-04T15:23:15.907Z</time></trkpt><trkpt lat="41.3876087" lon="1.1589072"><ele>345.0</ele><time>2026-05-04T15:23:16.906Z</time></trkpt><trkpt lat="41.3875678" lon="1.1591"><ele>343.75</ele><time>2026-05-04T15:23:17.907Z</time></trkpt><trkpt lat="41.3875271" lon="1.1592982"><ele>342.5</ele><time>2026-05-04T15:23:18.907Z</time></trkpt><trkpt lat="41.3874862" lon="1.1594865"><ele>341.25</ele><time>2026-05-04T15:23:19.907Z</time></trkpt><trkpt lat="41.3874468" lon="1.1596661"><ele>340.0</ele><time>2026-05-04T15:23:20.907Z</time></trkpt><trkpt lat="41.3874037" lon="1.1598456"><ele>340.25</ele><time>2026-05-04T15:23:21.907Z</time></trkpt><trkpt lat="41.3873605" lon="1.1600255"><ele>340.5</ele><time>2026-05-04T15:23:22.907Z</time></trkpt><trkpt lat="41.3873134" lon="1.1602088"><ele>340.75</ele><time>2026-05-04T15:23:23.907Z</time></trkpt><trkpt lat="41.3872684" lon="1.1603975"><ele>341.0</ele><time>2026-05-04T15:23:24.907Z</time></trkpt><trkpt lat="41.3872192" lon="1.1605893"><ele>340.75</ele><time>2026-05-04T15:23:25.907Z</time></trkpt><trkpt lat="41.3871667" lon="1.1607826"><ele>340.5</ele><time>2026-05-04T15:23:26.907Z</time></trkpt><trkpt lat="41.387116" lon="1.1609679"><ele>340.25</ele><time>2026-05-04T15:23:27.907Z</time></trkpt><trkpt lat="41.3870673" lon="1.1611476"><ele>340.0</ele><time>2026-05-04T15:23:28.907Z</time></trkpt><trkpt lat="41.3870173" lon="1.1613357"><ele>340.0</ele><time>2026-05-04T15:23:29.906Z</time></trkpt><trkpt lat="41.3869682" lon="1.161519"><ele>340.0</ele><time>2026-05-04T15:23:30.907Z</time></trkpt><trkpt lat="41.3869101" lon="1.1616989"><ele>340.0</ele><time>2026-05-04T15:23:31.907Z</time></trkpt><trkpt lat="41.3868578" lon="1.1618771"><ele>340.0</ele><time>2026-05-04T15:23:32.907Z</time></trkpt><trkpt lat="41.3868" lon="1.1620505"><ele>339.25</ele><time>2026-05-04T15:23:33.907Z</time></trkpt><trkpt lat="41.3867375" lon="1.162223"><ele>338.5</ele><time>2026-05-04T15:23:34.907Z</time></trkpt><trkpt lat="41.3866833" lon="1.1623946"><ele>337.75</ele><time>2026-05-04T15:23:35.907Z</time></trkpt><trkpt lat="41.3866277" lon="1.1625634"><ele>337.0</ele><time>2026-05-04T15:23:36.907Z</time></trkpt><trkpt lat="41.386567" lon="1.1627243"><ele>337.0</ele><time>2026-05-04T15:23:37.906Z</time></trkpt><trkpt lat="41.3865062" lon="1.1628871"><ele>337.0</ele><time>2026-05-04T15:23:38.907Z</time></trkpt><trkpt lat="41.3864416" lon="1.1630543"><ele>337.0</ele><time>2026-05-04T15:23:39.907Z</time></trkpt><trkpt lat="41.3863743" lon="1.16322"><ele>337.0</ele><time>2026-05-04T15:23:40.907Z</time></trkpt><trkpt lat="41.3863105" lon="1.1633756"><ele>336.75</ele><time>2026-05-04T15:23:41.907Z</time></trkpt><trkpt lat="41.3862475" lon="1.1635381"><ele>336.5</ele><time>2026-05-04T15:23:42.907Z</time></trkpt><trkpt lat="41.386181" lon="1.1636999"><ele>336.25</ele><time>2026-05-04T15:23:43.907Z</time></trkpt><trkpt lat="41.3861114" lon="1.1638599"><ele>336.0</ele><time>2026-05-04T15:23:44.907Z</time></trkpt><trkpt lat="41.3860403" lon="1.1640202"><ele>336.0</ele><time>2026-05-04T15:23:45.906Z</time></trkpt><trkpt lat="41.385966" lon="1.1641867"><ele>336.0</ele><time>2026-05-04T15:23:46.906Z</time></trkpt><trkpt lat="41.3858953" lon="1.1643432"><ele>336.0</ele><time>2026-05-04T15:23:47.907Z</time></trkpt><trkpt lat="41.3858247" lon="1.1645015"><ele>336.0</ele><time>2026-05-04T15:23:48.906Z</time></trkpt><trkpt lat="41.3857465" lon="1.1646597"><ele>336.0</ele><time>2026-05-04T15:23:49.907Z</time></trkpt><trkpt lat="41.3856707" lon="1.1648104"><ele>336.0</ele><time>2026-05-04T15:23:50.907Z</time></trkpt><trkpt lat="41.3855934" lon="1.1649673"><ele>336.0</ele><time>2026-05-04T15:23:51.906Z</time></trkpt><trkpt lat="41.3855136" lon="1.1651223"><ele>336.0</ele><time>2026-05-04T15:23:52.907Z</time></trkpt><trkpt lat="41.3854328" lon="1.1652749"><ele>336.25</ele><time>2026-05-04T15:23:53.906Z</time></trkpt><trkpt lat="41.3853527" lon="1.1654191"><ele>336.5</ele><time>2026-05-04T15:23:54.906Z</time></trkpt><trkpt lat="41.3852696" lon="1.1655695"><ele>336.75</ele><time>2026-05-04T15:23:55.907Z</time></trkpt><trkpt lat="41.3851897" lon="1.165716"><ele>337.0</ele><time>2026-05-04T15:23:56.907Z</time></trkpt><trkpt lat="41.3851026" lon="1.16586"><ele>336.0</ele><time>2026-05-04T15:23:57.907Z</time></trkpt><trkpt lat="41.3850169" lon="1.1660081"><ele>335.0</ele><time>2026-05-04T15:23:58.907Z</time></trkpt><trkpt lat="41.3849318" lon="1.1661517"><ele>334.0</ele><time>2026-05-04T15:23:59.907Z</time></trkpt><trkpt lat="41.384847" lon="1.1662917"><ele>333.0</ele><time>2026-05-04T15:24:00.907Z</time></trkpt><trkpt lat="41.3847625" lon="1.1664369"><ele>332.75</ele><time>2026-05-04T15:24:01.907Z</time></trkpt><trkpt lat="41.3846778" lon="1.1665767"><ele>332.5</ele><time>2026-05-04T15:24:02.906Z</time></trkpt><trkpt lat="41.3845938" lon="1.1667165"><ele>332.25</ele><time>2026-05-04T15:24:03.906Z</time></trkpt><trkpt lat="41.3845004" lon="1.166853"><ele>332.0</ele><time>2026-05-04T15:24:04.907Z</time></trkpt><trkpt lat="41.3844142" lon="1.1669875"><ele>332.0</ele><time>2026-05-04T15:24:05.906Z</time></trkpt><trkpt lat="41.3843244" lon="1.1671244"><ele>332.0</ele><time>2026-05-04T15:24:06.907Z</time></trkpt><trkpt lat="41.3842362" lon="1.1672566"><ele>332.0</ele><time>2026-05-04T15:24:07.907Z</time></trkpt><trkpt lat="41.3841452" lon="1.1673864"><ele>332.0</ele><time>2026-05-04T15:24:08.907Z</time></trkpt><trkpt lat="41.3840532" lon="1.167513"><ele>332.0</ele><time>2026-05-04T15:24:09.907Z</time></trkpt><trkpt lat="41.3839564" lon="1.1676465"><ele>332.0</ele><time>2026-05-04T15:24:10.907Z</time></trkpt><trkpt lat="41.3838492" lon="1.1677682"><ele>332.0</ele><time>2026-05-04T15:24:11.907Z</time></trkpt><trkpt lat="41.3837429" lon="1.1678827"><ele>332.0</ele><time>2026-05-04T15:24:12.907Z</time></trkpt><trkpt lat="41.3836378" lon="1.1680045"><ele>332.0</ele><time>2026-05-04T15:24:13.907Z</time></trkpt><trkpt lat="41.3835386" lon="1.1681318"><ele>332.0</ele><time>2026-05-04T15:24:14.907Z</time></trkpt><trkpt lat="41.3834428" lon="1.1682523"><ele>332.0</ele><time>2026-05-04T15:24:15.907Z</time></trkpt><trkpt lat="41.3833456" lon="1.1683697"><ele>332.0</ele><time>2026-05-04T15:24:16.907Z</time></trkpt><trkpt lat="41.3832453" lon="1.1684806"><ele>331.25</ele><time>2026-05-04T15:24:17.906Z</time></trkpt><trkpt lat="41.3831434" lon="1.168599"><ele>330.5</ele><time>2026-05-04T15:24:18.907Z</time></trkpt><trkpt lat="41.3830458" lon="1.1687136"><ele>329.75</ele><time>2026-05-04T15:24:19.907Z</time></trkpt><trkpt lat="41.3829417" lon="1.1688318"><ele>329.0</ele><time>2026-05-04T15:24:20.907Z</time></trkpt><trkpt lat="41.382835" lon="1.1689443"><ele>328.25</ele><time>2026-05-04T15:24:21.907Z</time></trkpt><trkpt lat="41.3827264" lon="1.1690597"><ele>327.5</ele><time>2026-05-04T15:24:22.907Z</time></trkpt><trkpt lat="41.3826206" lon="1.1691736"><ele>326.75</ele><time>2026-05-04T15:24:23.907Z</time></trkpt><trkpt lat="41.3825156" lon="1.1692892"><ele>326.0</ele><time>2026-05-04T15:24:24.906Z</time></trkpt><trkpt lat="41.382405" lon="1.1693985"><ele>326.0</ele><time>2026-05-04T15:24:25.907Z</time></trkpt><trkpt lat="41.382299" lon="1.169511"><ele>326.0</ele><time>2026-05-04T15:24:26.906Z</time></trkpt><trkpt lat="41.382193" lon="1.1696197"><ele>326.0</ele><time>2026-05-04T15:24:27.906Z</time></trkpt><trkpt lat="41.3820825" lon="1.1697319"><ele>326.0</ele><time>2026-05-04T15:24:28.906Z</time></trkpt><trkpt lat="41.3819682" lon="1.1698429"><ele>325.5</ele><time>2026-05-04T15:24:29.907Z</time></trkpt><trkpt lat="41.3818521" lon="1.1699506"><ele>325.0</ele><time>2026-05-04T15:24:30.907Z</time></trkpt><trkpt lat="41.3817381" lon="1.1700517"><ele>324.5</ele><time>2026-05-04T15:24:31.907Z</time></trkpt><trkpt lat="41.381624" lon="1.1701579"><ele>324.0</ele><time>2026-05-04T15:24:32.907Z</time></trkpt><trkpt lat="41.3815122" lon="1.17026"><ele>324.0</ele><time>2026-05-04T15:24:33.906Z</time></trkpt><trkpt lat="41.3813978" lon="1.1703581"><ele>324.0</ele><time>2026-05-04T15:24:34.907Z</time></trkpt><trkpt lat="41.3812807" lon="1.1704548"><ele>324.0</ele><time>2026-05-04T15:24:35.906Z</time></trkpt><trkpt lat="41.3811623" lon="1.1705527"><ele>324.0</ele><time>2026-05-04T15:24:36.907Z</time></trkpt><trkpt lat="41.381043" lon="1.1706504"><ele>323.75</ele><time>2026-05-04T15:24:37.907Z</time></trkpt><trkpt lat="41.3809243" lon="1.1707489"><ele>323.5</ele><time>2026-05-04T15:24:38.907Z</time></trkpt><trkpt lat="41.3808083" lon="1.1708455"><ele>323.25</ele><time>2026-05-04T15:24:39.907Z</time></trkpt><trkpt lat="41.3806862" lon="1.1709471"><ele>323.0</ele><time>2026-05-04T15:24:40.907Z</time></trkpt><trkpt lat="41.3805642" lon="1.1710458"><ele>323.25</ele><time>2026-05-04T15:24:41.907Z</time></trkpt><trkpt lat="41.3804432" lon="1.1711418"><ele>323.5</ele><time>2026-05-04T15:24:42.907Z</time></trkpt><trkpt lat="41.3803224" lon="1.1712337"><ele>323.75</ele><time>2026-05-04T15:24:43.907Z</time></trkpt><trkpt lat="41.3802019" lon="1.1713329"><ele>324.0</ele><time>2026-05-04T15:24:44.907Z</time></trkpt><trkpt lat="41.3800788" lon="1.1714293"><ele>323.75</ele><time>2026-05-04T15:24:45.907Z</time></trkpt><trkpt lat="41.379955" lon="1.17153"><ele>323.5</ele><time>2026-05-04T15:24:46.907Z</time></trkpt><trkpt lat="41.3798314" lon="1.1716275"><ele>323.25</ele><time>2026-05-04T15:24:47.907Z</time></trkpt><trkpt lat="41.3797104" lon="1.1717181"><ele>323.0</ele><time>2026-05-04T15:24:48.906Z</time></trkpt><trkpt lat="41.3795849" lon="1.1718194"><ele>323.0</ele><time>2026-05-04T15:24:49.906Z</time></trkpt><trkpt lat="41.3794647" lon="1.1719191"><ele>323.0</ele><time>2026-05-04T15:24:50.907Z</time></trkpt><trkpt lat="41.3793433" lon="1.1720193"><ele>323.0</ele><time>2026-05-04T15:24:51.907Z</time></trkpt><trkpt lat="41.3792175" lon="1.1721134"><ele>323.0</ele><time>2026-05-04T15:24:52.907Z</time></trkpt><trkpt lat="41.3790913" lon="1.1722108"><ele>323.0</ele><time>2026-05-04T15:24:53.907Z</time></trkpt><trkpt lat="41.3789646" lon="1.1723126"><ele>323.0</ele><time>2026-05-04T15:24:54.907Z</time></trkpt><trkpt lat="41.3788424" lon="1.1724103"><ele>323.0</ele><time>2026-05-04T15:24:55.907Z</time></trkpt><trkpt lat="41.3787172" lon="1.1725106"><ele>323.0</ele><time>2026-05-04T15:24:56.906Z</time></trkpt><trkpt lat="41.3785915" lon="1.172611"><ele>322.25</ele><time>2026-05-04T15:24:57.907Z</time></trkpt><trkpt lat="41.3784683" lon="1.1727096"><ele>321.5</ele><time>2026-05-04T15:24:58.906Z</time></trkpt><trkpt lat="41.3783468" lon="1.1728069"><ele>320.75</ele><time>2026-05-04T15:24:59.907Z</time></trkpt><trkpt lat="41.3782239" lon="1.1728986"><ele>320.0</ele><time>2026-05-04T15:25:00.907Z</time></trkpt><trkpt lat="41.3781091" lon="1.1729919"><ele>319.5</ele><time>2026-05-04T15:25:01.907Z</time></trkpt><trkpt lat="41.3779917" lon="1.1730859"><ele>319.0</ele><time>2026-05-04T15:25:02.907Z</time></trkpt><trkpt lat="41.377877" lon="1.1731723"><ele>318.5</ele><time>2026-05-04T15:25:03.906Z</time></trkpt><trkpt lat="41.3777627" lon="1.173263"><ele>318.0</ele><time>2026-05-04T15:25:04.907Z</time></trkpt><trkpt lat="41.3776496" lon="1.1733492"><ele>318.0</ele><time>2026-05-04T15:25:05.906Z</time></trkpt><trkpt lat="41.3775417" lon="1.1734423"><ele>318.0</ele><time>2026-05-04T15:25:06.907Z</time></trkpt><trkpt lat="41.3774316" lon="1.1735341"><ele>318.0</ele><time>2026-05-04T15:25:07.907Z</time></trkpt><trkpt lat="41.3773218" lon="1.1736272"><ele>318.0</ele><time>2026-05-04T15:25:08.907Z</time></trkpt><trkpt lat="41.3772169" lon="1.1737182"><ele>318.0</ele><time>2026-05-04T15:25:09.906Z</time></trkpt><trkpt lat="41.3771081" lon="1.1738141"><ele>318.0</ele><time>2026-05-04T15:25:10.907Z</time></trkpt><trkpt lat="41.377001" lon="1.1739178"><ele>318.0</ele><time>2026-05-04T15:25:11.907Z</time></trkpt><trkpt lat="41.3768923" lon="1.1740129"><ele>318.0</ele><time>2026-05-04T15:25:12.907Z</time></trkpt><trkpt lat="41.3767816" lon="1.1741063"><ele>318.0</ele><time>2026-05-04T15:25:13.907Z</time></trkpt><trkpt lat="41.376673" lon="1.174201"><ele>318.0</ele><time>2026-05-04T15:25:14.907Z</time></trkpt><trkpt lat="41.3765602" lon="1.174295"><ele>318.0</ele><time>2026-05-04T15:25:15.907Z</time></trkpt><trkpt lat="41.3764485" lon="1.1743937"><ele>318.0</ele><time>2026-05-04T15:25:16.907Z</time></trkpt><trkpt lat="41.3763295" lon="1.1744885"><ele>318.5</ele><time>2026-05-04T15:25:17.906Z</time></trkpt><trkpt lat="41.3762099" lon="1.1745855"><ele>319.0</ele><time>2026-05-04T15:25:18.906Z</time></trkpt><trkpt lat="41.3760917" lon="1.174677"><ele>319.5</ele><time>2026-05-04T15:25:19.907Z</time></trkpt><trkpt lat="41.3759757" lon="1.1747737"><ele>320.0</ele><time>2026-05-04T15:25:20.907Z</time></trkpt><trkpt lat="41.3758576" lon="1.1748692"><ele>319.5</ele><time>2026-05-04T15:25:21.907Z</time></trkpt><trkpt lat="41.3757405" lon="1.1749731"><ele>319.0</ele><time>2026-05-04T15:25:22.907Z</time></trkpt><trkpt lat="41.375624" lon="1.1750773"><ele>318.5</ele><time>2026-05-04T15:25:23.907Z</time></trkpt><trkpt lat="41.3755102" lon="1.1751764"><ele>318.0</ele><time>2026-05-04T15:25:24.908Z</time></trkpt><trkpt lat="41.3753967" lon="1.175278"><ele>318.0</ele><time>2026-05-04T15:25:25.908Z</time></trkpt><trkpt lat="41.3752861" lon="1.1753734"><ele>318.0</ele><time>2026-05-04T15:25:26.908Z</time></trkpt><trkpt lat="41.3751784" lon="1.1754794"><ele>318.0</ele><time>2026-05-04T15:25:27.908Z</time></trkpt><trkpt lat="41.3750718" lon="1.1755892"><ele>318.0</ele><time>2026-05-04T15:25:28.908Z</time></trkpt><trkpt lat="41.3749645" lon="1.1756932"><ele>317.25</ele><time>2026-05-04T15:25:29.908Z</time></trkpt><trkpt lat="41.3748597" lon="1.1758022"><ele>316.5</ele><time>2026-05-04T15:25:30.908Z</time></trkpt><trkpt lat="41.3747536" lon="1.1759109"><ele>315.75</ele><time>2026-05-04T15:25:31.908Z</time></trkpt><trkpt lat="41.374651" lon="1.1760194"><ele>315.0</ele><time>2026-05-04T15:25:32.908Z</time></trkpt><trkpt lat="41.3745455" lon="1.1761315"><ele>315.0</ele><time>2026-05-04T15:25:33.908Z</time></trkpt><trkpt lat="41.3744462" lon="1.1762451"><ele>315.0</ele><time>2026-05-04T15:25:34.908Z</time></trkpt><trkpt lat="41.3743425" lon="1.1763591"><ele>315.0</ele><time>2026-05-04T15:25:35.908Z</time></trkpt><trkpt lat="41.3742409" lon="1.1764726"><ele>315.0</ele><time>2026-05-04T15:25:36.908Z</time></trkpt><trkpt lat="41.3741404" lon="1.17659"><ele>314.75</ele><time>2026-05-04T15:25:37.908Z</time></trkpt><trkpt lat="41.3740411" lon="1.1767103"><ele>314.5</ele><time>2026-05-04T15:25:38.908Z</time></trkpt><trkpt lat="41.373944" lon="1.1768344"><ele>314.25</ele><time>2026-05-04T15:25:39.908Z</time></trkpt><trkpt lat="41.373841" lon="1.1769549"><ele>314.0</ele><time>2026-05-04T15:25:40.907Z</time></trkpt><trkpt lat="41.373737" lon="1.1770774"><ele>313.0</ele><time>2026-05-04T15:25:41.907Z</time></trkpt><trkpt lat="41.3736362" lon="1.1772013"><ele>312.0</ele><time>2026-05-04T15:25:42.908Z</time></trkpt><trkpt lat="41.3735382" lon="1.1773213"><ele>311.0</ele><time>2026-05-04T15:25:43.908Z</time></trkpt><trkpt lat="41.3734434" lon="1.1774417"><ele>310.0</ele><time>2026-05-04T15:25:44.908Z</time></trkpt><trkpt lat="41.3733494" lon="1.1775614"><ele>309.0</ele><time>2026-05-04T15:25:45.908Z</time></trkpt><trkpt lat="41.3732482" lon="1.177678"><ele>308.0</ele><time>2026-05-04T15:25:46.908Z</time></trkpt><trkpt lat="41.3731478" lon="1.1777987"><ele>307.0</ele><time>2026-05-04T15:25:47.908Z</time></trkpt><trkpt lat="41.3730472" lon="1.1779207"><ele>306.0</ele><time>2026-05-04T15:25:48.908Z</time></trkpt><trkpt lat="41.3729476" lon="1.1780452"><ele>306.0</ele><time>2026-05-04T15:25:49.908Z</time></trkpt><trkpt lat="41.3728498" lon="1.178173"><ele>306.0</ele><time>2026-05-04T15:25:50.908Z</time></trkpt><trkpt lat="41.3727508" lon="1.1783036"><ele>306.0</ele><time>2026-05-04T15:25:51.907Z</time></trkpt><trkpt lat="41.3726533" lon="1.1784295"><ele>306.0</ele><time>2026-05-04T15:25:52.908Z</time></trkpt><trkpt lat="41.3725554" lon="1.1785553"><ele>306.0</ele><time>2026-05-04T15:25:53.907Z</time></trkpt><trkpt lat="41.3724593" lon="1.1786767"><ele>306.0</ele><time>2026-05-04T15:25:54.908Z</time></trkpt><trkpt lat="41.3723635" lon="1.1788017"><ele>306.0</ele><time>2026-05-04T15:25:55.908Z</time></trkpt><trkpt lat="41.3722636" lon="1.178926"><ele>306.0</ele><time>2026-05-04T15:25:56.908Z</time></trkpt><trkpt lat="41.372166" lon="1.1790521"><ele>305.75</ele><time>2026-05-04T15:25:57.907Z</time></trkpt><trkpt lat="41.3720643" lon="1.1791784"><ele>305.5</ele><time>2026-05-04T15:25:58.908Z</time></trkpt><trkpt lat="41.3719658" lon="1.1793041"><ele>305.25</ele><time>2026-05-04T15:25:59.908Z</time></trkpt><trkpt lat="41.371864" lon="1.1794288"><ele>305.0</ele><time>2026-05-04T15:26:00.907Z</time></trkpt><trkpt lat="41.371767" lon="1.1795564"><ele>305.0</ele><time>2026-05-04T15:26:01.908Z</time></trkpt><trkpt lat="41.3716654" lon="1.179685"><ele>305.0</ele><time>2026-05-04T15:26:02.908Z</time></trkpt><trkpt lat="41.3715682" lon="1.1798058"><ele>305.0</ele><time>2026-05-04T15:26:03.908Z</time></trkpt><trkpt lat="41.3714714" lon="1.1799276"><ele>305.0</ele><time>2026-05-04T15:26:04.908Z</time></trkpt><trkpt lat="41.3713706" lon="1.1800561"><ele>304.25</ele><time>2026-05-04T15:26:05.908Z</time></trkpt><trkpt lat="41.3712693" lon="1.1801832"><ele>303.5</ele><time>2026-05-04T15:26:06.908Z</time></trkpt><trkpt lat="41.3711686" lon="1.1803118"><ele>302.75</ele><time>2026-05-04T15:26:07.908Z</time></trkpt><trkpt lat="41.3710625" lon="1.1804418"><ele>302.0</ele><time>2026-05-04T15:26:08.908Z</time></trkpt><trkpt lat="41.3709574" lon="1.1805717"><ele>301.75</ele><time>2026-05-04T15:26:09.908Z</time></trkpt><trkpt lat="41.3708568" lon="1.1807004"><ele>301.5</ele><time>2026-05-04T15:26:10.908Z</time></trkpt><trkpt lat="41.3707553" lon="1.1808295"><ele>301.25</ele><time>2026-05-04T15:26:11.908Z</time></trkpt><trkpt lat="41.3706498" lon="1.1809582"><ele>301.0</ele><time>2026-05-04T15:26:12.908Z</time></trkpt><trkpt lat="41.37054" lon="1.1810865"><ele>301.0</ele><time>2026-05-04T15:26:13.908Z</time></trkpt><trkpt lat="41.3704265" lon="1.1812065"><ele>301.0</ele><time>2026-05-04T15:26:14.908Z</time></trkpt><trkpt lat="41.3703136" lon="1.1813221"><ele>301.0</ele><time>2026-05-04T15:26:15.908Z</time></trkpt><trkpt lat="41.3701982" lon="1.1814389"><ele>301.0</ele><time>2026-05-04T15:26:16.908Z</time></trkpt><trkpt lat="41.3700818" lon="1.181554"><ele>301.0</ele><time>2026-05-04T15:26:17.908Z</time></trkpt><trkpt lat="41.3699656" lon="1.1816627"><ele>301.0</ele><time>2026-05-04T15:26:18.908Z</time></trkpt><trkpt lat="41.3698508" lon="1.1817709"><ele>301.0</ele><time>2026-05-04T15:26:19.908Z</time></trkpt><trkpt lat="41.369731" lon="1.1818695"><ele>301.0</ele><time>2026-05-04T15:26:20.908Z</time></trkpt><trkpt lat="41.3696097" lon="1.181968"><ele>300.75</ele><time>2026-05-04T15:26:21.908Z</time></trkpt><trkpt lat="41.3694876" lon="1.1820633"><ele>300.5</ele><time>2026-05-04T15:26:22.908Z</time></trkpt><trkpt lat="41.3693637" lon="1.1821433"><ele>300.25</ele><time>2026-05-04T15:26:23.908Z</time></trkpt><trkpt lat="41.3692357" lon="1.1822205"><ele>300.0</ele><time>2026-05-04T15:26:24.908Z</time></trkpt><trkpt lat="41.3691082" lon="1.1822914"><ele>300.0</ele><time>2026-05-04T15:26:25.908Z</time></trkpt><trkpt lat="41.3689839" lon="1.1823645"><ele>300.0</ele><time>2026-05-04T15:26:26.907Z</time></trkpt><trkpt lat="41.3688559" lon="1.18243"><ele>300.0</ele><time>2026-05-04T15:26:27.908Z</time></trkpt><trkpt lat="41.3687262" lon="1.18249"><ele>300.0</ele><time>2026-05-04T15:26:28.907Z</time></trkpt><trkpt lat="41.3685936" lon="1.1825445"><ele>300.0</ele><time>2026-05-04T15:26:29.908Z</time></trkpt><trkpt lat="41.3684619" lon="1.1825878"><ele>300.0</ele><time>2026-05-04T15:26:30.908Z</time></trkpt><trkpt lat="41.3683301" lon="1.1826331"><ele>300.0</ele><time>2026-05-04T15:26:31.908Z</time></trkpt><trkpt lat="41.3681951" lon="1.1826727"><ele>300.0</ele><time>2026-05-04T15:26:32.908Z</time></trkpt><trkpt lat="41.368063" lon="1.1827169"><ele>300.75</ele><time>2026-05-04T15:26:33.908Z</time></trkpt><trkpt lat="41.3679322" lon="1.1827476"><ele>301.5</ele><time>2026-05-04T15:26:34.908Z</time></trkpt><trkpt lat="41.367801" lon="1.18277"><ele>302.25</ele><time>2026-05-04T15:26:35.908Z</time></trkpt><trkpt lat="41.3676677" lon="1.1827927"><ele>303.0</ele><time>2026-05-04T15:26:36.908Z</time></trkpt><trkpt lat="41.3675407" lon="1.1828217"><ele>303.0</ele><time>2026-05-04T15:26:37.908Z</time></trkpt><trkpt lat="41.3674099" lon="1.1828509"><ele>303.0</ele><time>2026-05-04T15:26:38.908Z</time></trkpt><trkpt lat="41.3672853" lon="1.1828741"><ele>303.0</ele><time>2026-05-04T15:26:39.908Z</time></trkpt><trkpt lat="41.3671619" lon="1.1828969"><ele>303.0</ele><time>2026-05-04T15:26:40.908Z</time></trkpt><trkpt lat="41.367038" lon="1.1829256"><ele>302.25</ele><time>2026-05-04T15:26:41.908Z</time></trkpt><trkpt lat="41.3669137" lon="1.182947"><ele>301.5</ele><time>2026-05-04T15:26:42.908Z</time></trkpt><trkpt lat="41.3667926" lon="1.1829757"><ele>300.75</ele><time>2026-05-04T15:26:43.908Z</time></trkpt><trkpt lat="41.3666713" lon="1.1830128"><ele>300.0</ele><time>2026-05-04T15:26:44.908Z</time></trkpt><trkpt lat="41.3665496" lon="1.1830465"><ele>300.0</ele><time>2026-05-04T15:26:45.908Z</time></trkpt><trkpt lat="41.3664286" lon="1.1830876"><ele>300.0</ele><time>2026-05-04T15:26:46.908Z</time></trkpt><trkpt lat="41.3663105" lon="1.1831336"><ele>300.0</ele><time>2026-05-04T15:26:47.908Z</time></trkpt><trkpt lat="41.3661945" lon="1.183179"><ele>300.0</ele><time>2026-05-04T15:26:48.908Z</time></trkpt><trkpt lat="41.3660809" lon="1.1832279"><ele>301.5</ele><time>2026-05-04T15:26:49.908Z</time></trkpt><trkpt lat="41.3659657" lon="1.1832797"><ele>303.0</ele><time>2026-05-04T15:26:50.907Z</time></trkpt><trkpt lat="41.3658525" lon="1.1833363"><ele>304.5</ele><time>2026-05-04T15:26:51.907Z</time></trkpt><trkpt lat="41.3657398" lon="1.1834014"><ele>306.0</ele><time>2026-05-04T15:26:52.908Z</time></trkpt><trkpt lat="41.3656277" lon="1.1834712"><ele>307.75</ele><time>2026-05-04T15:26:53.908Z</time></trkpt><trkpt lat="41.3655194" lon="1.1835395"><ele>309.5</ele><time>2026-05-04T15:26:54.908Z</time></trkpt><trkpt lat="41.3654156" lon="1.1836027"><ele>311.25</ele><time>2026-05-04T15:26:55.907Z</time></trkpt><trkpt lat="41.3653062" lon="1.1836749"><ele>313.0</ele><time>2026-05-04T15:26:56.908Z</time></trkpt><trkpt lat="41.3652042" lon="1.1837496"><ele>313.0</ele><time>2026-05-04T15:26:57.908Z</time></trkpt><trkpt lat="41.3650984" lon="1.1838258"><ele>313.0</ele><time>2026-05-04T15:26:58.908Z</time></trkpt><trkpt lat="41.3649999" lon="1.1839035"><ele>313.0</ele><time>2026-05-04T15:26:59.908Z</time></trkpt><trkpt lat="41.3648952" lon="1.1839844"><ele>313.0</ele><time>2026-05-04T15:27:00.908Z</time></trkpt><trkpt lat="41.3647911" lon="1.1840756"><ele>314.5</ele><time>2026-05-04T15:27:01.908Z</time></trkpt><trkpt lat="41.3646893" lon="1.1841693"><ele>316.0</ele><time>2026-05-04T15:27:02.908Z</time></trkpt><trkpt lat="41.3645922" lon="1.1842695"><ele>317.5</ele><time>2026-05-04T15:27:03.908Z</time></trkpt><trkpt lat="41.3644951" lon="1.1843659"><ele>319.0</ele><time>2026-05-04T15:27:04.908Z</time></trkpt><trkpt lat="41.3643987" lon="1.1844617"><ele>319.0</ele><time>2026-05-04T15:27:05.908Z</time></trkpt><trkpt lat="41.3643062" lon="1.1845594"><ele>319.0</ele><time>2026-05-04T15:27:06.908Z</time></trkpt><trkpt lat="41.3642179" lon="1.1846648"><ele>319.0</ele><time>2026-05-04T15:27:07.908Z</time></trkpt><trkpt lat="41.3641281" lon="1.1847717"><ele>319.0</ele><time>2026-05-04T15:27:08.908Z</time></trkpt><trkpt lat="41.3640406" lon="1.1848797"><ele>318.5</ele><time>2026-05-04T15:27:09.908Z</time></trkpt><trkpt lat="41.3639539" lon="1.1849923"><ele>318.0</ele><time>2026-05-04T15:27:10.908Z</time></trkpt><trkpt lat="41.3638697" lon="1.1851066"><ele>317.5</ele><time>2026-05-04T15:27:11.908Z</time></trkpt><trkpt lat="41.3637877" lon="1.1852247"><ele>317.0</ele><time>2026-05-04T15:27:12.907Z</time></trkpt><trkpt lat="41.363708" lon="1.1853503"><ele>317.75</ele><time>2026-05-04T15:27:13.908Z</time></trkpt><trkpt lat="41.3636345" lon="1.185475"><ele>318.5</ele><time>2026-05-04T15:27:14.908Z</time></trkpt><trkpt lat="41.3635599" lon="1.1856013"><ele>319.25</ele><time>2026-05-04T15:27:15.908Z</time></trkpt><trkpt lat="41.3634876" lon="1.1857272"><ele>320.0</ele><time>2026-05-04T15:27:16.908Z</time></trkpt><trkpt lat="41.3634182" lon="1.1858577"><ele>320.0</ele><time>2026-05-04T15:27:17.907Z</time></trkpt><trkpt lat="41.3633495" lon="1.1859822"><ele>320.0</ele><time>2026-05-04T15:27:18.908Z</time></trkpt><trkpt lat="41.3632793" lon="1.1861178"><ele>320.0</ele><time>2026-05-04T15:27:19.908Z</time></trkpt><trkpt lat="41.3632086" lon="1.1862586"><ele>320.0</ele><time>2026-05-04T15:27:20.908Z</time></trkpt><trkpt lat="41.3631392" lon="1.1863948"><ele>320.25</ele><time>2026-05-04T15:27:21.908Z</time></trkpt><trkpt lat="41.3630751" lon="1.1865402"><ele>320.5</ele><time>2026-05-04T15:27:22.908Z</time></trkpt><trkpt lat="41.3630166" lon="1.1866855"><ele>320.75</ele><time>2026-05-04T15:27:23.907Z</time></trkpt><trkpt lat="41.362961" lon="1.186829"><ele>321.0</ele><time>2026-05-04T15:27:24.908Z</time></trkpt><trkpt lat="41.3628994" lon="1.1869779"><ele>321.5</ele><time>2026-05-04T15:27:25.908Z</time></trkpt><trkpt lat="41.3628337" lon="1.1871231"><ele>322.0</ele><time>2026-05-04T15:27:26.908Z</time></trkpt><trkpt lat="41.3627717" lon="1.1872645"><ele>322.5</ele><time>2026-05-04T15:27:27.908Z</time></trkpt><trkpt lat="41.3627123" lon="1.1874014"><ele>323.0</ele><time>2026-05-04T15:27:28.908Z</time></trkpt><trkpt lat="41.3626494" lon="1.1875408"><ele>323.25</ele><time>2026-05-04T15:27:29.908Z</time></trkpt><trkpt lat="41.3625893" lon="1.1876759"><ele>323.5</ele><time>2026-05-04T15:27:30.908Z</time></trkpt><trkpt lat="41.3625295" lon="1.1878106"><ele>323.75</ele><time>2026-05-04T15:27:31.908Z</time></trkpt><trkpt lat="41.362466" lon="1.1879409"><ele>324.0</ele><time>2026-05-04T15:27:32.907Z</time></trkpt><trkpt lat="41.3623976" lon="1.1880648"><ele>324.0</ele><time>2026-05-04T15:27:33.908Z</time></trkpt><trkpt lat="41.3623378" lon="1.1881919"><ele>324.0</ele><time>2026-05-04T15:27:34.908Z</time></trkpt><trkpt lat="41.3622795" lon="1.18832"><ele>324.0</ele><time>2026-05-04T15:27:35.908Z</time></trkpt><trkpt lat="41.3622246" lon="1.1884488"><ele>324.0</ele><time>2026-05-04T15:27:36.908Z</time></trkpt><trkpt lat="41.3621666" lon="1.1885794"><ele>324.2</ele><time>2026-05-04T15:27:37.908Z</time></trkpt><trkpt lat="41.3621098" lon="1.1887035"><ele>324.4</ele><time>2026-05-04T15:27:38.907Z</time></trkpt><trkpt lat="41.3620541" lon="1.1888307"><ele>324.6</ele><time>2026-05-04T15:27:39.907Z</time></trkpt><trkpt lat="41.3619941" lon="1.1889616"><ele>324.8</ele><time>2026-05-04T15:27:40.907Z</time></trkpt><trkpt lat="41.3619336" lon="1.1890884"><ele>325.0</ele><time>2026-05-04T15:27:41.907Z</time></trkpt><trkpt lat="41.3618734" lon="1.1892213"><ele>325.75</ele><time>2026-05-04T15:27:42.908Z</time></trkpt><trkpt lat="41.3618132" lon="1.1893485"><ele>326.5</ele><time>2026-05-04T15:27:43.908Z</time></trkpt><trkpt lat="41.3617555" lon="1.1894885"><ele>327.25</ele><time>2026-05-04T15:27:44.907Z</time></trkpt><trkpt lat="41.3616984" lon="1.1896308"><ele>328.0</ele><time>2026-05-04T15:27:45.908Z</time></trkpt><trkpt lat="41.3616377" lon="1.189768"><ele>329.5</ele><time>2026-05-04T15:27:46.908Z</time></trkpt><trkpt lat="41.3615729" lon="1.1899041"><ele>331.0</ele><time>2026-05-04T15:27:47.908Z</time></trkpt><trkpt lat="41.3615154" lon="1.1900446"><ele>332.5</ele><time>2026-05-04T15:27:48.908Z</time></trkpt><trkpt lat="41.3614574" lon="1.1901882"><ele>334.0</ele><time>2026-05-04T15:27:49.908Z</time></trkpt><trkpt lat="41.3614041" lon="1.1903268"><ele>336.5</ele><time>2026-05-04T15:27:50.908Z</time></trkpt><trkpt lat="41.3613451" lon="1.1904662"><ele>339.0</ele><time>2026-05-04T15:27:51.907Z</time></trkpt><trkpt lat="41.3612828" lon="1.1906048"><ele>341.5</ele><time>2026-05-04T15:27:52.908Z</time></trkpt><trkpt lat="41.3612184" lon="1.190746"><ele>344.0</ele><time>2026-05-04T15:27:53.907Z</time></trkpt><trkpt lat="41.3611513" lon="1.1908807"><ele>344.75</ele><time>2026-05-04T15:27:54.907Z</time></trkpt><trkpt lat="41.3610854" lon="1.1910188"><ele>345.5</ele><time>2026-05-04T15:27:55.908Z</time></trkpt><trkpt lat="41.3610213" lon="1.1911539"><ele>346.25</ele><time>2026-05-04T15:27:56.907Z</time></trkpt><trkpt lat="41.3609548" lon="1.1912944"><ele>347.0</ele><time>2026-05-04T15:27:57.909Z</time></trkpt><trkpt lat="41.3608964" lon="1.1914344"><ele>346.75</ele><time>2026-05-04T15:27:58.909Z</time></trkpt><trkpt lat="41.3608353" lon="1.1915731"><ele>346.5</ele><time>2026-05-04T15:27:59.909Z</time></trkpt><trkpt lat="41.3607753" lon="1.1917175"><ele>346.25</ele><time>2026-05-04T15:28:00.909Z</time></trkpt><trkpt lat="41.3607149" lon="1.1918599"><ele>346.0</ele><time>2026-05-04T15:28:01.909Z</time></trkpt><trkpt lat="41.360656" lon="1.1920006"><ele>346.0</ele><time>2026-05-04T15:28:02.909Z</time></trkpt><trkpt lat="41.3605914" lon="1.1921379"><ele>346.0</ele><time>2026-05-04T15:28:03.909Z</time></trkpt><trkpt lat="41.3605299" lon="1.1922857"><ele>346.0</ele><time>2026-05-04T15:28:04.909Z</time></trkpt><trkpt lat="41.3604626" lon="1.1924308"><ele>346.0</ele><time>2026-05-04T15:28:05.909Z</time></trkpt><trkpt lat="41.360399" lon="1.192576"><ele>349.5</ele><time>2026-05-04T15:28:06.909Z</time></trkpt><trkpt lat="41.3603332" lon="1.1927129"><ele>353.0</ele><time>2026-05-04T15:28:07.909Z</time></trkpt><trkpt lat="41.3602687" lon="1.1928519"><ele>356.5</ele><time>2026-05-04T15:28:08.909Z</time></trkpt><trkpt lat="41.36021" lon="1.1929983"><ele>360.0</ele><time>2026-05-04T15:28:09.909Z</time></trkpt><trkpt lat="41.3601534" lon="1.1931398"><ele>359.75</ele><time>2026-05-04T15:28:10.909Z</time></trkpt><trkpt lat="41.3600954" lon="1.1932799"><ele>359.5</ele><time>2026-05-04T15:28:11.908Z</time></trkpt><trkpt lat="41.3600361" lon="1.1934255"><ele>359.25</ele><time>2026-05-04T15:28:12.909Z</time></trkpt><trkpt lat="41.3599762" lon="1.1935655"><ele>359.0</ele><time>2026-05-04T15:28:13.909Z</time></trkpt><trkpt lat="41.3599143" lon="1.1937055"><ele>359.0</ele><time>2026-05-04T15:28:14.909Z</time></trkpt><trkpt lat="41.3598521" lon="1.1938434"><ele>359.0</ele><time>2026-05-04T15:28:15.908Z</time></trkpt><trkpt lat="41.3597928" lon="1.1939843"><ele>359.0</ele><time>2026-05-04T15:28:16.909Z</time></trkpt><trkpt lat="41.3597312" lon="1.1941307"><ele>359.0</ele><time>2026-05-04T15:28:17.909Z</time></trkpt><trkpt lat="41.3596718" lon="1.1942708"><ele>360.75</ele><time>2026-05-04T15:28:18.908Z</time></trkpt><trkpt lat="41.3596148" lon="1.1944132"><ele>362.5</ele><time>2026-05-04T15:28:19.909Z</time></trkpt><trkpt lat="41.3595541" lon="1.19456"><ele>364.25</ele><time>2026-05-04T15:28:20.909Z</time></trkpt><trkpt lat="41.3594909" lon="1.1947061"><ele>366.0</ele><time>2026-05-04T15:28:21.908Z</time></trkpt><trkpt lat="41.3594264" lon="1.1948504"><ele>366.5</ele><time>2026-05-04T15:28:22.909Z</time></trkpt><trkpt lat="41.3593677" lon="1.1949943"><ele>367.0</ele><time>2026-05-04T15:28:23.909Z</time></trkpt><trkpt lat="41.3593066" lon="1.1951458"><ele>367.5</ele><time>2026-05-04T15:28:24.908Z</time></trkpt><trkpt lat="41.3592481" lon="1.1952934"><ele>368.0</ele><time>2026-05-04T15:28:25.909Z</time></trkpt><trkpt lat="41.3591888" lon="1.1954434"><ele>368.0</ele><time>2026-05-04T15:28:26.908Z</time></trkpt><trkpt lat="41.3591275" lon="1.1955929"><ele>368.0</ele><time>2026-05-04T15:28:27.909Z</time></trkpt><trkpt lat="41.3590691" lon="1.19575"><ele>368.0</ele><time>2026-05-04T15:28:28.909Z</time></trkpt><trkpt lat="41.3590101" lon="1.1959059"><ele>368.0</ele><time>2026-05-04T15:28:29.909Z</time></trkpt><trkpt lat="41.3589469" lon="1.196063"><ele>368.0</ele><time>2026-05-04T15:28:30.909Z</time></trkpt><trkpt lat="41.3588853" lon="1.1962171"><ele>368.0</ele><time>2026-05-04T15:28:31.909Z</time></trkpt><trkpt lat="41.3588241" lon="1.1963785"><ele>368.0</ele><time>2026-05-04T15:28:32.909Z</time></trkpt><trkpt lat="41.3587621" lon="1.1965373"><ele>368.0</ele><time>2026-05-04T15:28:33.909Z</time></trkpt><trkpt lat="41.3586997" lon="1.1966924"><ele>368.0</ele><time>2026-05-04T15:28:34.909Z</time></trkpt><trkpt lat="41.3586394" lon="1.1968442"><ele>368.0</ele><time>2026-05-04T15:28:35.909Z</time></trkpt><trkpt lat="41.3585806" lon="1.1969902"><ele>368.0</ele><time>2026-05-04T15:28:36.909Z</time></trkpt><trkpt lat="41.3585221" lon="1.1971355"><ele>368.0</ele><time>2026-05-04T15:28:37.909Z</time></trkpt><trkpt lat="41.3584654" lon="1.1972861"><ele>369.0</ele><time>2026-05-04T15:28:38.909Z</time></trkpt><trkpt lat="41.358408" lon="1.1974342"><ele>370.0</ele><time>2026-05-04T15:28:39.909Z</time></trkpt><trkpt lat="41.3583468" lon="1.1975807"><ele>371.0</ele><time>2026-05-04T15:28:40.909Z</time></trkpt><trkpt lat="41.3582868" lon="1.1977216"><ele>372.0</ele><time>2026-05-04T15:28:41.909Z</time></trkpt><trkpt lat="41.3582289" lon="1.1978621"><ele>372.0</ele><time>2026-05-04T15:28:42.909Z</time></trkpt><trkpt lat="41.358162" lon="1.19799"><ele>372.0</ele><time>2026-05-04T15:28:43.909Z</time></trkpt><trkpt lat="41.3580884" lon="1.1981156"><ele>372.0</ele><time>2026-05-04T15:28:44.909Z</time></trkpt><trkpt lat="41.3580034" lon="1.198234"><ele>372.0</ele><time>2026-05-04T15:28:45.908Z</time></trkpt><trkpt lat="41.3579186" lon="1.1983397"><ele>376.0</ele><time>2026-05-04T15:28:46.908Z</time></trkpt><trkpt lat="41.3578351" lon="1.1984329"><ele>380.0</ele><time>2026-05-04T15:28:47.909Z</time></trkpt><trkpt lat="41.3577355" lon="1.1985253"><ele>384.0</ele><time>2026-05-04T15:28:48.909Z</time></trkpt><trkpt lat="41.3576405" lon="1.1986214"><ele>388.0</ele><time>2026-05-04T15:28:49.908Z</time></trkpt><trkpt lat="41.3575469" lon="1.1987272"><ele>388.0</ele><time>2026-05-04T15:28:50.909Z</time></trkpt><trkpt lat="41.3574572" lon="1.198823"><ele>388.0</ele><time>2026-05-04T15:28:51.908Z</time></trkpt><trkpt lat="41.3573639" lon="1.1989201"><ele>388.0</ele><time>2026-05-04T15:28:52.909Z</time></trkpt><trkpt lat="41.3572741" lon="1.1990215"><ele>388.0</ele><time>2026-05-04T15:28:53.908Z</time></trkpt><trkpt lat="41.3571881" lon="1.1991371"><ele>389.25</ele><time>2026-05-04T15:28:54.909Z</time></trkpt><trkpt lat="41.357115" lon="1.1992549"><ele>390.5</ele><time>2026-05-04T15:28:55.908Z</time></trkpt><trkpt lat="41.3570373" lon="1.1994016"><ele>391.75</ele><time>2026-05-04T15:28:56.909Z</time></trkpt><trkpt lat="41.3569696" lon="1.1995426"><ele>393.0</ele><time>2026-05-04T15:28:57.909Z</time></trkpt><trkpt lat="41.3569067" lon="1.1996851"><ele>393.0</ele><time>2026-05-04T15:28:58.908Z</time></trkpt><trkpt lat="41.3568424" lon="1.1998212"><ele>393.0</ele><time>2026-05-04T15:28:59.909Z</time></trkpt><trkpt lat="41.3567862" lon="1.199957"><ele>393.0</ele><time>2026-05-04T15:29:00.909Z</time></trkpt><trkpt lat="41.3567346" lon="1.2000944"><ele>393.0</ele><time>2026-05-04T15:29:01.909Z</time></trkpt><trkpt lat="41.3566855" lon="1.2002237"><ele>393.0</ele><time>2026-05-04T15:29:02.909Z</time></trkpt><trkpt lat="41.3566418" lon="1.2003463"><ele>393.0</ele><time>2026-05-04T15:29:03.909Z</time></trkpt><trkpt lat="41.3565956" lon="1.2004522"><ele>393.0</ele><time>2026-05-04T15:29:04.909Z</time></trkpt><trkpt lat="41.3565556" lon="1.2005542"><ele>393.0</ele><time>2026-05-04T15:29:05.909Z</time></trkpt><trkpt lat="41.3565209" lon="1.2006534"><ele>393.0</ele><time>2026-05-04T15:29:06.908Z</time></trkpt><trkpt lat="41.3564928" lon="1.2007515"><ele>393.0</ele><time>2026-05-04T15:29:07.909Z</time></trkpt><trkpt lat="41.3564692" lon="1.2008525"><ele>393.0</ele><time>2026-05-04T15:29:08.909Z</time></trkpt><trkpt lat="41.3564484" lon="1.2009586"><ele>393.0</ele><time>2026-05-04T15:29:09.909Z</time></trkpt><trkpt lat="41.3564205" lon="1.2010602"><ele>393.0</ele><time>2026-05-04T15:29:10.909Z</time></trkpt><trkpt lat="41.3563975" lon="1.2011722"><ele>393.0</ele><time>2026-05-04T15:29:11.909Z</time></trkpt><trkpt lat="41.3563776" lon="1.2012794"><ele>393.0</ele><time>2026-05-04T15:29:12.908Z</time></trkpt><trkpt lat="41.3563518" lon="1.2013855"><ele>393.0</ele><time>2026-05-04T15:29:13.909Z</time></trkpt><trkpt lat="41.3563325" lon="1.2014924"><ele>394.5</ele><time>2026-05-04T15:29:14.909Z</time></trkpt><trkpt lat="41.3563113" lon="1.2015948"><ele>396.0</ele><time>2026-05-04T15:29:15.909Z</time></trkpt><trkpt lat="41.3562891" lon="1.2017012"><ele>397.5</ele><time>2026-05-04T15:29:16.909Z</time></trkpt><trkpt lat="41.3562597" lon="1.2018046"><ele>399.0</ele><time>2026-05-04T15:29:17.909Z</time></trkpt><trkpt lat="41.3562245" lon="1.201904"><ele>400.5</ele><time>2026-05-04T15:29:18.908Z</time></trkpt><trkpt lat="41.3561847" lon="1.2020065"><ele>402.0</ele><time>2026-05-04T15:29:19.908Z</time></trkpt><trkpt lat="41.3561542" lon="1.2021155"><ele>402.0</ele><time>2026-05-04T15:29:20.908Z</time></trkpt><trkpt lat="41.3561161" lon="1.2022203"><ele>402.0</ele><time>2026-05-04T15:29:21.908Z</time></trkpt><trkpt lat="41.3560718" lon="1.2023247"><ele>402.0</ele><time>2026-05-04T15:29:22.909Z</time></trkpt><trkpt lat="41.3560288" lon="1.2024229"><ele>402.0</ele><time>2026-05-04T15:29:23.909Z</time></trkpt><trkpt lat="41.3559826" lon="1.2025247"><ele>402.0</ele><time>2026-05-04T15:29:24.909Z</time></trkpt><trkpt lat="41.3559451" lon="1.2026262"><ele>402.0</ele><time>2026-05-04T15:29:25.909Z</time></trkpt><trkpt lat="41.3559083" lon="1.2027286"><ele>402.6666666666667</ele><time>2026-05-04T15:29:26.909Z</time></trkpt><trkpt lat="41.3558698" lon="1.202833"><ele>403.33333333333337</ele><time>2026-05-04T15:29:27.909Z</time></trkpt><trkpt lat="41.3558311" lon="1.2029376"><ele>404.0</ele><time>2026-05-04T15:29:28.909Z</time></trkpt><trkpt lat="41.3557893" lon="1.2030469"><ele>404.6666666666667</ele><time>2026-05-04T15:29:29.909Z</time></trkpt><trkpt lat="41.3557509" lon="1.2031516"><ele>405.33333333333337</ele><time>2026-05-04T15:29:30.909Z</time></trkpt><trkpt lat="41.355711" lon="1.2032535"><ele>406.0</ele><time>2026-05-04T15:29:31.909Z</time></trkpt><trkpt lat="41.3556794" lon="1.2033606"><ele>406.8</ele><time>2026-05-04T15:29:32.908Z</time></trkpt><trkpt lat="41.3556447" lon="1.2034715"><ele>407.6</ele><time>2026-05-04T15:29:33.909Z</time></trkpt><trkpt lat="41.3556095" lon="1.2035825"><ele>408.4</ele><time>2026-05-04T15:29:34.909Z</time></trkpt><trkpt lat="41.3555728" lon="1.2036989"><ele>409.2</ele><time>2026-05-04T15:29:35.908Z</time></trkpt><trkpt lat="41.3555369" lon="1.2038243"><ele>410.0</ele><time>2026-05-04T15:29:36.909Z</time></trkpt><trkpt lat="41.3555061" lon="1.2039492"><ele>410.8</ele><time>2026-05-04T15:29:37.909Z</time></trkpt><trkpt lat="41.3554699" lon="1.2040748"><ele>411.6</ele><time>2026-05-04T15:29:38.909Z</time></trkpt><trkpt lat="41.3554374" lon="1.2041984"><ele>412.4</ele><time>2026-05-04T15:29:39.909Z</time></trkpt><trkpt lat="41.3554035" lon="1.2043292"><ele>413.2</ele><time>2026-05-04T15:29:40.909Z</time></trkpt><trkpt lat="41.355367" lon="1.2044553"><ele>414.0</ele><time>2026-05-04T15:29:41.909Z</time></trkpt><trkpt lat="41.3553277" lon="1.2045859"><ele>414.0</ele><time>2026-05-04T15:29:42.908Z</time></trkpt><trkpt lat="41.3552866" lon="1.2047118"><ele>414.0</ele><time>2026-05-04T15:29:43.909Z</time></trkpt><trkpt lat="41.3552428" lon="1.2048412"><ele>414.0</ele><time>2026-05-04T15:29:44.908Z</time></trkpt><trkpt lat="41.3551972" lon="1.2049801"><ele>414.0</ele><time>2026-05-04T15:29:45.909Z</time></trkpt><trkpt lat="41.3551538" lon="1.2051227"><ele>414.0</ele><time>2026-05-04T15:29:46.909Z</time></trkpt><trkpt lat="41.3550987" lon="1.2052668"><ele>415.0</ele><time>2026-05-04T15:29:47.909Z</time></trkpt><trkpt lat="41.3550397" lon="1.2054064"><ele>416.0</ele><time>2026-05-04T15:29:48.909Z</time></trkpt><trkpt lat="41.3549754" lon="1.205549"><ele>417.0</ele><time>2026-05-04T15:29:49.909Z</time></trkpt><trkpt lat="41.3549099" lon="1.2056892"><ele>418.0</ele><time>2026-05-04T15:29:50.909Z</time></trkpt><trkpt lat="41.3548324" lon="1.2058248"><ele>419.25</ele><time>2026-05-04T15:29:51.909Z</time></trkpt><trkpt lat="41.3547598" lon="1.2059691"><ele>420.5</ele><time>2026-05-04T15:29:52.909Z</time></trkpt><trkpt lat="41.3546797" lon="1.2061054"><ele>421.75</ele><time>2026-05-04T15:29:53.908Z</time></trkpt><trkpt lat="41.354591" lon="1.2062434"><ele>423.0</ele><time>2026-05-04T15:29:54.909Z</time></trkpt><trkpt lat="41.3544998" lon="1.2063779"><ele>424.25</ele><time>2026-05-04T15:29:55.909Z</time></trkpt><trkpt lat="41.3544036" lon="1.2065035"><ele>425.5</ele><time>2026-05-04T15:29:56.909Z</time></trkpt><trkpt lat="41.3543027" lon="1.2066263"><ele>426.75</ele><time>2026-05-04T15:29:57.909Z</time></trkpt><trkpt lat="41.3541957" lon="1.206743"><ele>428.0</ele><time>2026-05-04T15:29:58.909Z</time></trkpt><trkpt lat="41.3540895" lon="1.2068611"><ele>428.0</ele><time>2026-05-04T15:29:59.909Z</time></trkpt><trkpt lat="41.3539839" lon="1.2069679"><ele>428.0</ele><time>2026-05-04T15:30:00.908Z</time></trkpt><trkpt lat="41.3538787" lon="1.207077"><ele>428.0</ele><time>2026-05-04T15:30:01.909Z</time></trkpt><trkpt lat="41.3537784" lon="1.2071745"><ele>428.0</ele><time>2026-05-04T15:30:02.909Z</time></trkpt><trkpt lat="41.3536824" lon="1.207267"><ele>430.0</ele><time>2026-05-04T15:30:03.909Z</time></trkpt><trkpt lat="41.3535993" lon="1.2073452"><ele>431.99999999999994</ele><time>2026-05-04T15:30:04.909Z</time></trkpt><trkpt lat="41.3535152" lon="1.2074128"><ele>433.99999999999994</ele><time>2026-05-04T15:30:05.909Z</time></trkpt><trkpt lat="41.353441" lon="1.2074795"><ele>436.0</ele><time>2026-05-04T15:30:06.908Z</time></trkpt><trkpt lat="41.3533612" lon="1.2075389"><ele>438.0</ele><time>2026-05-04T15:30:07.909Z</time></trkpt><trkpt lat="41.3532853" lon="1.2075991"><ele>438.0</ele><time>2026-05-04T15:30:08.909Z</time></trkpt><trkpt lat="41.3532071" lon="1.2076564"><ele>438.0</ele><time>2026-05-04T15:30:09.909Z</time></trkpt><trkpt lat="41.353131" lon="1.2077098"><ele>438.0</ele><time>2026-05-04T15:30:10.909Z</time></trkpt><trkpt lat="41.3530533" lon="1.207758"><ele>438.0</ele><time>2026-05-04T15:30:11.909Z</time></trkpt><trkpt lat="41.3529774" lon="1.2078062"><ele>438.0</ele><time>2026-05-04T15:30:12.909Z</time></trkpt><trkpt lat="41.352912" lon="1.2078417"><ele>438.0</ele><time>2026-05-04T15:30:13.909Z</time></trkpt><trkpt lat="41.3528252" lon="1.207883"><ele>438.6666666666667</ele><time>2026-05-04T15:30:15.909Z</time></trkpt><trkpt lat="41.3527416" lon="1.2079156"><ele>439.33333333333337</ele><time>2026-05-04T15:30:28.909Z</time></trkpt><trkpt lat="41.3526644" lon="1.2079588"><ele>440.0</ele><time>2026-05-04T15:30:30.91Z</time></trkpt><trkpt lat="41.352599" lon="1.2080047"><ele>440.6666666666667</ele><time>2026-05-04T15:30:33.91Z</time></trkpt><trkpt lat="41.3526294" lon="1.2079202"><ele>441.33333333333337</ele><time>2026-05-04T15:30:42.909Z</time></trkpt><trkpt lat="41.3527111" lon="1.2078622"><ele>442.0</ele><time>2026-05-04T15:30:44.91Z</time></trkpt><trkpt lat="41.3527866" lon="1.2077926"><ele>442.0</ele><time>2026-05-04T15:30:46.91Z</time></trkpt><trkpt lat="41.3528779" lon="1.2077069"><ele>442.00000000000006</ele><time>2026-05-04T15:30:48.91Z</time></trkpt><trkpt lat="41.3529699" lon="1.2076081"><ele>442.00000000000006</ele><time>2026-05-04T15:30:50.91Z</time></trkpt><trkpt lat="41.353045" lon="1.2075077"><ele>442.0</ele><time>2026-05-04T15:30:52.91Z</time></trkpt><trkpt lat="41.3529709" lon="1.207524"><ele>442.0</ele><time>2026-05-04T15:31:04.91Z</time></trkpt><trkpt lat="41.3529188" lon="1.2075871"><ele>442.00000000000006</ele><time>2026-05-04T15:31:05.91Z</time></trkpt><trkpt lat="41.3528683" lon="1.2076546"><ele>442.0</ele><time>2026-05-04T15:31:06.91Z</time></trkpt><trkpt lat="41.3528173" lon="1.2077179"><ele>442.0</ele><time>2026-05-04T15:31:07.909Z</time></trkpt><trkpt lat="41.3527293" lon="1.2077917"><ele>442.0</ele><time>2026-05-04T15:31:09.91Z</time></trkpt><trkpt lat="41.3526565" lon="1.2078695"><ele>442.00000000000006</ele><time>2026-05-04T15:31:11.91Z</time></trkpt><trkpt lat="41.3526065" lon="1.2079485"><ele>442.0</ele><time>2026-05-04T15:31:13.91Z</time></trkpt><trkpt lat="41.3525373" lon="1.2079816"><ele>442.00000000000006</ele><time>2026-05-04T15:31:16.91Z</time></trkpt><trkpt lat="41.3524805" lon="1.2080208"><ele>442.0</ele><time>2026-05-04T15:31:19.91Z</time></trkpt><trkpt lat="41.3524026" lon="1.2080607"><ele>442.0</ele><time>2026-05-04T15:31:21.91Z</time></trkpt><trkpt lat="41.3522942" lon="1.2081156"><ele>442.0</ele><time>2026-05-04T15:31:23.909Z</time></trkpt><trkpt lat="41.3522069" lon="1.2081684"><ele>442.00000000000006</ele><time>2026-05-04T15:31:25.909Z</time></trkpt><trkpt lat="41.3521317" lon="1.2082021"><ele>442.0</ele><time>2026-05-04T15:31:27.91Z</time></trkpt><trkpt lat="41.3520596" lon="1.2082445"><ele>441.0</ele><time>2026-05-04T15:31:29.91Z</time></trkpt><trkpt lat="41.3519957" lon="1.2082684"><ele>440.00000000000006</ele><time>2026-05-04T15:31:31.91Z</time></trkpt><trkpt lat="41.3519237" lon="1.2083024"><ele>439.00000000000006</ele><time>2026-05-04T15:31:33.91Z</time></trkpt><trkpt lat="41.3518071" lon="1.2083492"><ele>438.0</ele><time>2026-05-04T15:31:35.909Z</time></trkpt><trkpt lat="41.351689" lon="1.2083809"><ele>437.0</ele><time>2026-05-04T15:31:37.91Z</time></trkpt><trkpt lat="41.3516231" lon="1.2084053"><ele>436.99999999999994</ele><time>2026-05-04T15:31:38.91Z</time></trkpt><trkpt lat="41.351554" lon="1.2084316"><ele>437.0</ele><time>2026-05-04T15:31:39.91Z</time></trkpt><trkpt lat="41.3514772" lon="1.2084608"><ele>437.0</ele><time>2026-05-04T15:31:40.91Z</time></trkpt><trkpt lat="41.3514004" lon="1.208485"><ele>437.0</ele><time>2026-05-04T15:31:41.909Z</time></trkpt><trkpt lat="41.3513202" lon="1.2085092"><ele>436.99999999999994</ele><time>2026-05-04T15:31:42.91Z</time></trkpt><trkpt lat="41.3512402" lon="1.2085328"><ele>437.0</ele><time>2026-05-04T15:31:43.91Z</time></trkpt><trkpt lat="41.3511487" lon="1.2085499"><ele>437.8333333333333</ele><time>2026-05-04T15:31:44.91Z</time></trkpt><trkpt lat="41.3510629" lon="1.2085766"><ele>438.66666666666663</ele><time>2026-05-04T15:31:45.91Z</time></trkpt><trkpt lat="41.3509764" lon="1.2085912"><ele>439.5</ele><time>2026-05-04T15:31:46.91Z</time></trkpt><trkpt lat="41.3508948" lon="1.2086106"><ele>440.33333333333337</ele><time>2026-05-04T15:31:47.91Z</time></trkpt><trkpt lat="41.3508091" lon="1.2086244"><ele>441.1666666666667</ele><time>2026-05-04T15:31:48.91Z</time></trkpt><trkpt lat="41.3507235" lon="1.2086359"><ele>442.0</ele><time>2026-05-04T15:31:49.91Z</time></trkpt><trkpt lat="41.350639" lon="1.2086469"><ele>442.0</ele><time>2026-05-04T15:31:50.91Z</time></trkpt><trkpt lat="41.3505443" lon="1.2086622"><ele>442.00000000000006</ele><time>2026-05-04T15:31:51.91Z</time></trkpt><trkpt lat="41.3504444" lon="1.2086684"><ele>442.00000000000006</ele><time>2026-05-04T15:31:52.909Z</time></trkpt><trkpt lat="41.3503526" lon="1.2086746"><ele>442.0</ele><time>2026-05-04T15:31:53.91Z</time></trkpt><trkpt lat="41.3502579" lon="1.2086808"><ele>442.0</ele><time>2026-05-04T15:31:54.91Z</time></trkpt><trkpt lat="41.3501585" lon="1.2086787"><ele>442.6666666666667</ele><time>2026-05-04T15:31:55.91Z</time></trkpt><trkpt lat="41.3500633" lon="1.2086755"><ele>443.33333333333337</ele><time>2026-05-04T15:31:56.91Z</time></trkpt><trkpt lat="41.3499686" lon="1.208682"><ele>444.0</ele><time>2026-05-04T15:31:57.91Z</time></trkpt><trkpt lat="41.3498836" lon="1.2086851"><ele>444.66666666666663</ele><time>2026-05-04T15:31:58.91Z</time></trkpt><trkpt lat="41.3497995" lon="1.2086828"><ele>445.3333333333333</ele><time>2026-05-04T15:31:59.91Z</time></trkpt><trkpt lat="41.3497133" lon="1.2086841"><ele>446.0</ele><time>2026-05-04T15:32:00.91Z</time></trkpt><trkpt lat="41.3496204" lon="1.2086748"><ele>446.8</ele><time>2026-05-04T15:32:01.909Z</time></trkpt><trkpt lat="41.3495301" lon="1.2086739"><ele>447.6</ele><time>2026-05-04T15:32:02.91Z</time></trkpt><trkpt lat="41.3494365" lon="1.2086715"><ele>448.4</ele><time>2026-05-04T15:32:03.91Z</time></trkpt><trkpt lat="41.3493399" lon="1.20867"><ele>449.2</ele><time>2026-05-04T15:32:04.91Z</time></trkpt><trkpt lat="41.3492402" lon="1.2086649"><ele>450.0</ele><time>2026-05-04T15:32:05.91Z</time></trkpt><trkpt lat="41.3491414" lon="1.2086626"><ele>450.0</ele><time>2026-05-04T15:32:06.909Z</time></trkpt><trkpt lat="41.3490402" lon="1.2086595"><ele>450.0</ele><time>2026-05-04T15:32:07.91Z</time></trkpt><trkpt lat="41.3489325" lon="1.2086612"><ele>450.0</ele><time>2026-05-04T15:32:08.91Z</time></trkpt><trkpt lat="41.3488289" lon="1.2086565"><ele>450.0</ele><time>2026-05-04T15:32:09.91Z</time></trkpt><trkpt lat="41.3487228" lon="1.2086556"><ele>450.0</ele><time>2026-05-04T15:32:10.91Z</time></trkpt><trkpt lat="41.3486231" lon="1.2086559"><ele>451.2</ele><time>2026-05-04T15:32:11.909Z</time></trkpt><trkpt lat="41.3485197" lon="1.2086548"><ele>452.4</ele><time>2026-05-04T15:32:12.909Z</time></trkpt><trkpt lat="41.3484083" lon="1.2086522"><ele>453.6</ele><time>2026-05-04T15:32:13.91Z</time></trkpt><trkpt lat="41.3483001" lon="1.2086542"><ele>454.8</ele><time>2026-05-04T15:32:14.91Z</time></trkpt><trkpt lat="41.348195" lon="1.2086569"><ele>456.0</ele><time>2026-05-04T15:32:15.91Z</time></trkpt><trkpt lat="41.3480868" lon="1.2086609"><ele>453.75</ele><time>2026-05-04T15:32:16.91Z</time></trkpt><trkpt lat="41.3479742" lon="1.2086666"><ele>451.5</ele><time>2026-05-04T15:32:17.91Z</time></trkpt><trkpt lat="41.3478609" lon="1.2086766"><ele>449.25</ele><time>2026-05-04T15:32:18.91Z</time></trkpt><trkpt lat="41.3477464" lon="1.2086853"><ele>447.0</ele><time>2026-05-04T15:32:19.91Z</time></trkpt><trkpt lat="41.3476289" lon="1.2086886"><ele>447.0</ele><time>2026-05-04T15:32:20.909Z</time></trkpt><trkpt lat="41.3475115" lon="1.2086968"><ele>447.0</ele><time>2026-05-04T15:32:21.909Z</time></trkpt><trkpt lat="41.3473917" lon="1.2087138"><ele>447.0</ele><time>2026-05-04T15:32:22.91Z</time></trkpt><trkpt lat="41.3472774" lon="1.2087334"><ele>447.0</ele><time>2026-05-04T15:32:23.909Z</time></trkpt><trkpt lat="41.3471661" lon="1.2087486"><ele>442.6</ele><time>2026-05-04T15:32:24.91Z</time></trkpt><trkpt lat="41.3470616" lon="1.2087675"><ele>438.20000000000005</ele><time>2026-05-04T15:32:25.91Z</time></trkpt><trkpt lat="41.346951" lon="1.208788"><ele>433.8</ele><time>2026-05-04T15:32:26.91Z</time></trkpt><trkpt lat="41.3468431" lon="1.2088061"><ele>429.4</ele><time>2026-05-04T15:32:27.909Z</time></trkpt><trkpt lat="41.346732" lon="1.2088319"><ele>425.0</ele><time>2026-05-04T15:32:28.91Z</time></trkpt><trkpt lat="41.3466222" lon="1.2088546"><ele>425.0</ele><time>2026-05-04T15:32:29.91Z</time></trkpt><trkpt lat="41.3465113" lon="1.2088859"><ele>425.0</ele><time>2026-05-04T15:32:30.91Z</time></trkpt><trkpt lat="41.3463997" lon="1.2089151"><ele>425.0</ele><time>2026-05-04T15:32:31.91Z</time></trkpt><trkpt lat="41.3462867" lon="1.2089388"><ele>425.0</ele><time>2026-05-04T15:32:32.909Z</time></trkpt><trkpt lat="41.3461717" lon="1.2089608"><ele>426.0</ele><time>2026-05-04T15:32:33.91Z</time></trkpt><trkpt lat="41.3460593" lon="1.2089811"><ele>427.0</ele><time>2026-05-04T15:32:34.909Z</time></trkpt><trkpt lat="41.3459472" lon="1.2090136"><ele>428.0</ele><time>2026-05-04T15:32:35.91Z</time></trkpt><trkpt lat="41.3458368" lon="1.2090459"><ele>429.0</ele><time>2026-05-04T15:32:36.91Z</time></trkpt><trkpt lat="41.3457219" lon="1.2090812"><ele>429.0</ele><time>2026-05-04T15:32:37.91Z</time></trkpt><trkpt lat="41.3456122" lon="1.2091209"><ele>429.0</ele><time>2026-05-04T15:32:38.91Z</time></trkpt><trkpt lat="41.3455033" lon="1.2091523"><ele>429.0</ele><time>2026-05-04T15:32:39.909Z</time></trkpt><trkpt lat="41.3453952" lon="1.2091887"><ele>429.0</ele><time>2026-05-04T15:32:40.91Z</time></trkpt><trkpt lat="41.3452901" lon="1.2092259"><ele>429.0</ele><time>2026-05-04T15:32:41.91Z</time></trkpt><trkpt lat="41.3451831" lon="1.2092653"><ele>434.0</ele><time>2026-05-04T15:32:42.909Z</time></trkpt><trkpt lat="41.3450756" lon="1.2093063"><ele>439.0</ele><time>2026-05-04T15:32:43.909Z</time></trkpt><trkpt lat="41.3449688" lon="1.2093535"><ele>444.0</ele><time>2026-05-04T15:32:44.91Z</time></trkpt><trkpt lat="41.3448586" lon="1.2093965"><ele>449.0</ele><time>2026-05-04T15:32:45.91Z</time></trkpt><trkpt lat="41.3447501" lon="1.2094441"><ele>450.75</ele><time>2026-05-04T15:32:46.91Z</time></trkpt><trkpt lat="41.344637" lon="1.209487"><ele>452.5</ele><time>2026-05-04T15:32:47.909Z</time></trkpt><trkpt lat="41.3445228" lon="1.2095324"><ele>454.25</ele><time>2026-05-04T15:32:48.91Z</time></trkpt><trkpt lat="41.3444075" lon="1.2095842"><ele>456.0</ele><time>2026-05-04T15:32:49.91Z</time></trkpt><trkpt lat="41.3442948" lon="1.2096391"><ele>456.0</ele><time>2026-05-04T15:32:50.91Z</time></trkpt><trkpt lat="41.3441866" lon="1.2096919"><ele>456.0</ele><time>2026-05-04T15:32:51.91Z</time></trkpt><trkpt lat="41.3440808" lon="1.2097419"><ele>456.0</ele><time>2026-05-04T15:32:52.909Z</time></trkpt><trkpt lat="41.343977" lon="1.209795"><ele>456.0</ele><time>2026-05-04T15:32:53.91Z</time></trkpt><trkpt lat="41.3438732" lon="1.2098507"><ele>453.6</ele><time>2026-05-04T15:32:54.91Z</time></trkpt><trkpt lat="41.3437733" lon="1.2099043"><ele>451.20000000000005</ele><time>2026-05-04T15:32:55.91Z</time></trkpt><trkpt lat="41.3436712" lon="1.209958"><ele>448.79999999999995</ele><time>2026-05-04T15:32:56.91Z</time></trkpt><trkpt lat="41.3435667" lon="1.2100145"><ele>446.4</ele><time>2026-05-04T15:32:57.91Z</time></trkpt><trkpt lat="41.3434621" lon="1.2100745"><ele>444.0</ele><time>2026-05-04T15:32:58.91Z</time></trkpt><trkpt lat="41.343359" lon="1.2101357"><ele>444.0</ele><time>2026-05-04T15:32:59.909Z</time></trkpt><trkpt lat="41.3432616" lon="1.2102083"><ele>444.0</ele><time>2026-05-04T15:33:00.91Z</time></trkpt><trkpt lat="41.3431585" lon="1.2102731"><ele>444.0</ele><time>2026-05-04T15:33:01.91Z</time></trkpt><trkpt lat="41.3430584" lon="1.2103435"><ele>444.0</ele><time>2026-05-04T15:33:02.91Z</time></trkpt><trkpt lat="41.3429543" lon="1.2104114"><ele>443.75</ele><time>2026-05-04T15:33:03.91Z</time></trkpt><trkpt lat="41.3428488" lon="1.2104864"><ele>443.5</ele><time>2026-05-04T15:33:04.91Z</time></trkpt><trkpt lat="41.3427439" lon="1.2105552"><ele>443.25</ele><time>2026-05-04T15:33:05.91Z</time></trkpt><trkpt lat="41.3426383" lon="1.2106341"><ele>443.0</ele><time>2026-05-04T15:33:06.909Z</time></trkpt><trkpt lat="41.3425313" lon="1.2107113"><ele>443.0</ele><time>2026-05-04T15:33:07.91Z</time></trkpt><trkpt lat="41.3424252" lon="1.2107875"><ele>443.0</ele><time>2026-05-04T15:33:08.911Z</time></trkpt><trkpt lat="41.3423119" lon="1.210866"><ele>443.0</ele><time>2026-05-04T15:33:09.911Z</time></trkpt><trkpt lat="41.3422056" lon="1.2109473"><ele>443.0</ele><time>2026-05-04T15:33:10.91Z</time></trkpt><trkpt lat="41.3421" lon="1.2110293"><ele>443.5</ele><time>2026-05-04T15:33:11.91Z</time></trkpt><trkpt lat="41.341993" lon="1.2111115"><ele>444.0</ele><time>2026-05-04T15:33:12.911Z</time></trkpt><trkpt lat="41.3418831" lon="1.2111973"><ele>444.5</ele><time>2026-05-04T15:33:13.91Z</time></trkpt><trkpt lat="41.3417746" lon="1.2112769"><ele>445.0</ele><time>2026-05-04T15:33:14.911Z</time></trkpt><trkpt lat="41.3416656" lon="1.2113601"><ele>445.0</ele><time>2026-05-04T15:33:15.911Z</time></trkpt><trkpt lat="41.3415577" lon="1.2114518"><ele>445.0</ele><time>2026-05-04T15:33:16.91Z</time></trkpt><trkpt lat="41.3330669" lon="1.2253521"><ele>430.33333333333337</ele><time>2026-05-04T15:34:37.943Z</time></trkpt><trkpt lat="41.332934" lon="1.2254622"><ele>415.66666666666663</ele><time>2026-05-04T15:34:38.911Z</time></trkpt><trkpt lat="41.3327951" lon="1.2255917"><ele>401.0</ele><time>2026-05-04T15:34:39.911Z</time></trkpt><trkpt lat="41.3326634" lon="1.2257217"><ele>400.0</ele><time>2026-05-04T15:34:40.911Z</time></trkpt><trkpt lat="41.3325266" lon="1.2258515"><ele>399.0</ele><time>2026-05-04T15:34:41.911Z</time></trkpt><trkpt lat="41.3323861" lon="1.225981"><ele>398.0</ele><time>2026-05-04T15:34:42.911Z</time></trkpt><trkpt lat="41.3322483" lon="1.2261057"><ele>396.0</ele><time>2026-05-04T15:34:43.911Z</time></trkpt><trkpt lat="41.3321079" lon="1.2262252"><ele>394.0</ele><time>2026-05-04T15:34:44.911Z</time></trkpt><trkpt lat="41.3319636" lon="1.2263469"><ele>392.0</ele><time>2026-05-04T15:34:45.911Z</time></trkpt><trkpt lat="41.3318204" lon="1.2264616"><ele>391.0</ele><time>2026-05-04T15:34:46.911Z</time></trkpt><trkpt lat="41.3316792" lon="1.2265704"><ele>390.0</ele><time>2026-05-04T15:34:47.911Z</time></trkpt><trkpt lat="41.3315375" lon="1.2266759"><ele>389.0</ele><time>2026-05-04T15:34:48.911Z</time></trkpt><trkpt lat="41.3313924" lon="1.2267769"><ele>387.3333333333333</ele><time>2026-05-04T15:34:49.911Z</time></trkpt><trkpt lat="41.3312462" lon="1.2268723"><ele>385.66666666666663</ele><time>2026-05-04T15:34:50.911Z</time></trkpt><trkpt lat="41.3310966" lon="1.2269683"><ele>384.0</ele><time>2026-05-04T15:34:51.911Z</time></trkpt><trkpt lat="41.3309478" lon="1.2270592"><ele>384.0</ele><time>2026-05-04T15:34:52.91Z</time></trkpt><trkpt lat="41.3307955" lon="1.2271483"><ele>384.0</ele><time>2026-05-04T15:34:53.911Z</time></trkpt><trkpt lat="41.3306446" lon="1.2272305"><ele>384.0</ele><time>2026-05-04T15:34:54.911Z</time></trkpt><trkpt lat="41.33049" lon="1.2273136"><ele>383.6666666666667</ele><time>2026-05-04T15:34:55.911Z</time></trkpt><trkpt lat="41.3303346" lon="1.2273908"><ele>383.33333333333337</ele><time>2026-05-04T15:34:56.911Z</time></trkpt><trkpt lat="41.3301764" lon="1.2274643"><ele>383.0</ele><time>2026-05-04T15:34:57.911Z</time></trkpt><trkpt lat="41.3300225" lon="1.2275367"><ele>383.0</ele><time>2026-05-04T15:34:58.911Z</time></trkpt><trkpt lat="41.3298717" lon="1.2276034"><ele>383.0</ele><time>2026-05-04T15:34:59.911Z</time></trkpt><trkpt lat="41.32972" lon="1.2276676"><ele>383.0</ele><time>2026-05-04T15:35:00.911Z</time></trkpt><trkpt lat="41.329567" lon="1.2277321"><ele>382.33333333333337</ele><time>2026-05-04T15:35:01.911Z</time></trkpt><trkpt lat="41.3294159" lon="1.2277974"><ele>381.6666666666667</ele><time>2026-05-04T15:35:02.911Z</time></trkpt><trkpt lat="41.3292654" lon="1.2278537"><ele>381.0</ele><time>2026-05-04T15:35:03.911Z</time></trkpt><trkpt lat="41.3291133" lon="1.2279069"><ele>381.0</ele><time>2026-05-04T15:35:04.911Z</time></trkpt><trkpt lat="41.3289633" lon="1.2279597"><ele>381.0</ele><time>2026-05-04T15:35:05.911Z</time></trkpt><trkpt lat="41.3288094" lon="1.22801"><ele>381.0</ele><time>2026-05-04T15:35:06.911Z</time></trkpt><trkpt lat="41.3286611" lon="1.2280605"><ele>378.6666666666667</ele><time>2026-05-04T15:35:07.91Z</time></trkpt><trkpt lat="41.3285125" lon="1.2281098"><ele>376.33333333333337</ele><time>2026-05-04T15:35:08.91Z</time></trkpt><trkpt lat="41.3283644" lon="1.2281624"><ele>374.0</ele><time>2026-05-04T15:35:09.911Z</time></trkpt><trkpt lat="41.3282096" lon="1.2282061"><ele>371.6666666666667</ele><time>2026-05-04T15:35:10.911Z</time></trkpt><trkpt lat="41.3280566" lon="1.2282527"><ele>369.3333333333333</ele><time>2026-05-04T15:35:11.911Z</time></trkpt><trkpt lat="41.3278979" lon="1.2282994"><ele>367.0</ele><time>2026-05-04T15:35:12.911Z</time></trkpt><trkpt lat="41.3277456" lon="1.228344"><ele>367.0</ele><time>2026-05-04T15:35:13.91Z</time></trkpt><trkpt lat="41.3275887" lon="1.2283928"><ele>367.0</ele><time>2026-05-04T15:35:14.911Z</time></trkpt><trkpt lat="41.3274329" lon="1.2284393"><ele>367.0</ele><time>2026-05-04T15:35:15.911Z</time></trkpt><trkpt lat="41.3272769" lon="1.2284855"><ele>366.3333333333333</ele><time>2026-05-04T15:35:16.911Z</time></trkpt><trkpt lat="41.327119" lon="1.2285381"><ele>365.6666666666667</ele><time>2026-05-04T15:35:17.911Z</time></trkpt><trkpt lat="41.3269593" lon="1.2285907"><ele>365.0</ele><time>2026-05-04T15:35:18.911Z</time></trkpt><trkpt lat="41.3267997" lon="1.2286457"><ele>365.0</ele><time>2026-05-04T15:35:19.911Z</time></trkpt><trkpt lat="41.3266404" lon="1.2286966"><ele>365.0</ele><time>2026-05-04T15:35:20.911Z</time></trkpt><trkpt lat="41.3264801" lon="1.2287615"><ele>365.0</ele><time>2026-05-04T15:35:21.911Z</time></trkpt><trkpt lat="41.3263217" lon="1.2288293"><ele>363.0</ele><time>2026-05-04T15:35:22.911Z</time></trkpt><trkpt lat="41.3261611" lon="1.2288988"><ele>361.0</ele><time>2026-05-04T15:35:23.911Z</time></trkpt><trkpt lat="41.3259964" lon="1.2289748"><ele>359.0</ele><time>2026-05-04T15:35:24.911Z</time></trkpt><trkpt lat="41.3258351" lon="1.229051"><ele>357.0</ele><time>2026-05-04T15:35:25.911Z</time></trkpt><trkpt lat="41.3256705" lon="1.2291255"><ele>355.0</ele><time>2026-05-04T15:35:26.911Z</time></trkpt><trkpt lat="41.325505" lon="1.2292081"><ele>353.0</ele><time>2026-05-04T15:35:27.911Z</time></trkpt><trkpt lat="41.3253414" lon="1.229297"><ele>349.6666666666667</ele><time>2026-05-04T15:35:28.911Z</time></trkpt><trkpt lat="41.3251766" lon="1.2293869"><ele>346.3333333333333</ele><time>2026-05-04T15:35:29.911Z</time></trkpt><trkpt lat="41.3250092" lon="1.2294799"><ele>343.0</ele><time>2026-05-04T15:35:30.911Z</time></trkpt><trkpt lat="41.3248442" lon="1.2295713"><ele>342.66666666666663</ele><time>2026-05-04T15:35:31.911Z</time></trkpt><trkpt lat="41.3246857" lon="1.2296653"><ele>342.3333333333333</ele><time>2026-05-04T15:35:32.911Z</time></trkpt><trkpt lat="41.3245215" lon="1.2297699"><ele>342.0</ele><time>2026-05-04T15:35:33.911Z</time></trkpt><trkpt lat="41.3243591" lon="1.2298758"><ele>342.0</ele><time>2026-05-04T15:35:34.911Z</time></trkpt><trkpt lat="41.3242015" lon="1.2299809"><ele>342.0</ele><time>2026-05-04T15:35:35.91Z</time></trkpt><trkpt lat="41.3240433" lon="1.2300904"><ele>342.0</ele><time>2026-05-04T15:35:36.911Z</time></trkpt><trkpt lat="41.3238845" lon="1.2301989"><ele>339.6666666666667</ele><time>2026-05-04T15:35:37.911Z</time></trkpt><trkpt lat="41.323726" lon="1.2303098"><ele>337.33333333333337</ele><time>2026-05-04T15:35:38.911Z</time></trkpt><trkpt lat="41.3235692" lon="1.2304186"><ele>335.0</ele><time>2026-05-04T15:35:39.911Z</time></trkpt><trkpt lat="41.3234168" lon="1.2305304"><ele>335.0</ele><time>2026-05-04T15:35:40.911Z</time></trkpt><trkpt lat="41.3232648" lon="1.2306381"><ele>335.0</ele><time>2026-05-04T15:35:41.911Z</time></trkpt><trkpt lat="41.3231148" lon="1.2307442"><ele>335.0</ele><time>2026-05-04T15:35:42.911Z</time></trkpt><trkpt lat="41.322965" lon="1.2308562"><ele>334.33333333333337</ele><time>2026-05-04T15:35:43.91Z</time></trkpt><trkpt lat="41.3228185" lon="1.2309566"><ele>333.6666666666667</ele><time>2026-05-04T15:35:44.911Z</time></trkpt><trkpt lat="41.3226676" lon="1.2310561"><ele>333.0</ele><time>2026-05-04T15:35:45.911Z</time></trkpt><trkpt lat="41.3225165" lon="1.2311653"><ele>333.0</ele><time>2026-05-04T15:35:46.912Z</time></trkpt><trkpt lat="41.3223629" lon="1.2312719"><ele>333.0</ele><time>2026-05-04T15:35:47.911Z</time></trkpt><trkpt lat="41.3222076" lon="1.2313832"><ele>333.0</ele><time>2026-05-04T15:35:48.912Z</time></trkpt><trkpt lat="41.3220539" lon="1.2314926"><ele>332.0</ele><time>2026-05-04T15:35:49.912Z</time></trkpt><trkpt lat="41.3218968" lon="1.2316019"><ele>331.0</ele><time>2026-05-04T15:35:50.912Z</time></trkpt><trkpt lat="41.3217374" lon="1.2317104"><ele>330.0</ele><time>2026-05-04T15:35:51.911Z</time></trkpt><trkpt lat="41.321579" lon="1.2318208"><ele>330.0</ele><time>2026-05-04T15:35:52.912Z</time></trkpt><trkpt lat="41.3214234" lon="1.231928"><ele>330.0</ele><time>2026-05-04T15:35:53.912Z</time></trkpt><trkpt lat="41.3212686" lon="1.2320327"><ele>330.0</ele><time>2026-05-04T15:35:54.911Z</time></trkpt><trkpt lat="41.3211157" lon="1.2321345"><ele>328.3333333333333</ele><time>2026-05-04T15:35:55.912Z</time></trkpt><trkpt lat="41.3209597" lon="1.2322363"><ele>326.66666666666663</ele><time>2026-05-04T15:35:56.912Z</time></trkpt><trkpt lat="41.3208005" lon="1.2323355"><ele>325.0</ele><time>2026-05-04T15:35:57.912Z</time></trkpt><trkpt lat="41.3206443" lon="1.2324404"><ele>323.3333333333333</ele><time>2026-05-04T15:35:58.912Z</time></trkpt><trkpt lat="41.3204861" lon="1.2325434"><ele>321.6666666666667</ele><time>2026-05-04T15:35:59.912Z</time></trkpt><trkpt lat="41.3203205" lon="1.2326445"><ele>320.0</ele><time>2026-05-04T15:36:00.911Z</time></trkpt><trkpt lat="41.3201531" lon="1.2327437"><ele>320.0</ele><time>2026-05-04T15:36:01.912Z</time></trkpt><trkpt lat="41.3199838" lon="1.2328429"><ele>320.0</ele><time>2026-05-04T15:36:02.911Z</time></trkpt><trkpt lat="41.3198101" lon="1.2329454"><ele>320.0</ele><time>2026-05-04T15:36:03.912Z</time></trkpt><trkpt lat="41.3196332" lon="1.2330449"><ele>318.6666666666667</ele><time>2026-05-04T15:36:04.912Z</time></trkpt><trkpt lat="41.3194569" lon="1.2331369"><ele>317.3333333333333</ele><time>2026-05-04T15:36:05.912Z</time></trkpt><trkpt lat="41.3192835" lon="1.2332322"><ele>316.0</ele><time>2026-05-04T15:36:06.912Z</time></trkpt><trkpt lat="41.3191101" lon="1.2333245"><ele>315.3333333333333</ele><time>2026-05-04T15:36:07.912Z</time></trkpt><trkpt lat="41.3189317" lon="1.2334152"><ele>314.6666666666667</ele><time>2026-05-04T15:36:08.912Z</time></trkpt><trkpt lat="41.3187539" lon="1.2335076"><ele>314.0</ele><time>2026-05-04T15:36:09.912Z</time></trkpt><trkpt lat="41.3185717" lon="1.2335977"><ele>314.0</ele><time>2026-05-04T15:36:10.912Z</time></trkpt><trkpt lat="41.3183933" lon="1.2336811"><ele>314.0</ele><time>2026-05-04T15:36:11.912Z</time></trkpt><trkpt lat="41.3182246" lon="1.2337612"><ele>314.0</ele><time>2026-05-04T15:36:12.912Z</time></trkpt><trkpt lat="41.3180554" lon="1.233841"><ele>314.0</ele><time>2026-05-04T15:36:13.912Z</time></trkpt><trkpt lat="41.3178828" lon="1.2339185"><ele>314.0</ele><time>2026-05-04T15:36:14.911Z</time></trkpt><trkpt lat="41.3177122" lon="1.2339907"><ele>314.0</ele><time>2026-05-04T15:36:15.912Z</time></trkpt><trkpt lat="41.3175424" lon="1.2340675"><ele>312.6666666666667</ele><time>2026-05-04T15:36:16.912Z</time></trkpt><trkpt lat="41.3173706" lon="1.2341428"><ele>311.3333333333333</ele><time>2026-05-04T15:36:17.912Z</time></trkpt><trkpt lat="41.3171975" lon="1.2342259"><ele>310.0</ele><time>2026-05-04T15:36:18.912Z</time></trkpt><trkpt lat="41.3170236" lon="1.2343003"><ele>310.0</ele><time>2026-05-04T15:36:19.911Z</time></trkpt><trkpt lat="41.316848" lon="1.2343755"><ele>310.0</ele><time>2026-05-04T15:36:20.912Z</time></trkpt><trkpt lat="41.3166695" lon="1.234439"><ele>310.0</ele><time>2026-05-04T15:36:21.911Z</time></trkpt><trkpt lat="41.3164936" lon="1.2345016"><ele>308.66666666666663</ele><time>2026-05-04T15:36:22.911Z</time></trkpt><trkpt lat="41.316316" lon="1.2345638"><ele>307.3333333333333</ele><time>2026-05-04T15:36:23.912Z</time></trkpt><trkpt lat="41.3161405" lon="1.2346237"><ele>306.0</ele><time>2026-05-04T15:36:24.912Z</time></trkpt><trkpt lat="41.3159678" lon="1.2346843"><ele>306.0</ele><time>2026-05-04T15:36:25.912Z</time></trkpt><trkpt lat="41.3157953" lon="1.2347412"><ele>306.0</ele><time>2026-05-04T15:36:26.911Z</time></trkpt><trkpt lat="41.3156234" lon="1.2347947"><ele>306.0</ele><time>2026-05-04T15:36:27.911Z</time></trkpt><trkpt lat="41.3154499" lon="1.2348519"><ele>304.3333333333333</ele><time>2026-05-04T15:36:28.911Z</time></trkpt><trkpt lat="41.3152755" lon="1.2349067"><ele>302.66666666666663</ele><time>2026-05-04T15:36:29.911Z</time></trkpt><trkpt lat="41.3150989" lon="1.2349527"><ele>301.0</ele><time>2026-05-04T15:36:30.912Z</time></trkpt><trkpt lat="41.3149237" lon="1.2349984"><ele>301.0</ele><time>2026-05-04T15:36:31.912Z</time></trkpt><trkpt lat="41.3147516" lon="1.2350296"><ele>301.0</ele><time>2026-05-04T15:36:32.912Z</time></trkpt><trkpt lat="41.3145791" lon="1.2350623"><ele>301.0</ele><time>2026-05-04T15:36:33.912Z</time></trkpt><trkpt lat="41.314403" lon="1.2350895"><ele>300.0</ele><time>2026-05-04T15:36:34.912Z</time></trkpt><trkpt lat="41.3142343" lon="1.2351144"><ele>299.0</ele><time>2026-05-04T15:36:35.912Z</time></trkpt><trkpt lat="41.3140726" lon="1.2351395"><ele>298.0</ele><time>2026-05-04T15:36:36.912Z</time></trkpt><trkpt lat="41.3139119" lon="1.2351626"><ele>297.75</ele><time>2026-05-04T15:36:37.912Z</time></trkpt><trkpt lat="41.3137608" lon="1.235173"><ele>297.5</ele><time>2026-05-04T15:36:38.912Z</time></trkpt><trkpt lat="41.3136146" lon="1.2351754"><ele>297.25</ele><time>2026-05-04T15:36:39.911Z</time></trkpt><trkpt lat="41.3134678" lon="1.235169"><ele>297.0</ele><time>2026-05-04T15:36:40.912Z</time></trkpt><trkpt lat="41.3133211" lon="1.235153"><ele>297.0</ele><time>2026-05-04T15:36:41.912Z</time></trkpt><trkpt lat="41.3131864" lon="1.2351396"><ele>297.0</ele><time>2026-05-04T15:36:42.912Z</time></trkpt><trkpt lat="41.3130564" lon="1.2351186"><ele>297.0</ele><time>2026-05-04T15:36:43.912Z</time></trkpt><trkpt lat="41.312929" lon="1.2350991"><ele>297.0</ele><time>2026-05-04T15:36:44.912Z</time></trkpt><trkpt lat="41.3128036" lon="1.235076"><ele>296.75</ele><time>2026-05-04T15:36:45.911Z</time></trkpt><trkpt lat="41.3126805" lon="1.2350484"><ele>296.5</ele><time>2026-05-04T15:36:46.912Z</time></trkpt><trkpt lat="41.3125493" lon="1.2350215"><ele>296.25</ele><time>2026-05-04T15:36:47.912Z</time></trkpt><trkpt lat="41.3124181" lon="1.234992"><ele>296.0</ele><time>2026-05-04T15:36:48.912Z</time></trkpt><trkpt lat="41.3122929" lon="1.2349609"><ele>295.0</ele><time>2026-05-04T15:36:49.912Z</time></trkpt><trkpt lat="41.3121694" lon="1.2349384"><ele>294.0</ele><time>2026-05-04T15:36:50.911Z</time></trkpt><trkpt lat="41.3120532" lon="1.2349193"><ele>293.0</ele><time>2026-05-04T15:36:51.912Z</time></trkpt><trkpt lat="41.3119393" lon="1.2348946"><ele>292.0</ele><time>2026-05-04T15:36:52.912Z</time></trkpt><trkpt lat="41.3118428" lon="1.2348565"><ele>292.0</ele><time>2026-05-04T15:36:53.912Z</time></trkpt><trkpt lat="41.3117627" lon="1.2348141"><ele>292.0</ele><time>2026-05-04T15:36:54.912Z</time></trkpt><trkpt lat="41.3117023" lon="1.2347517"><ele>292.0</ele><time>2026-05-04T15:36:55.912Z</time></trkpt><trkpt lat="41.3116482" lon="1.2346709"><ele>292.0</ele><time>2026-05-04T15:36:56.912Z</time></trkpt><trkpt lat="41.3116048" lon="1.2345893"><ele>292.0</ele><time>2026-05-04T15:36:57.912Z</time></trkpt><trkpt lat="41.3115798" lon="1.2345084"><ele>292.0</ele><time>2026-05-04T15:36:58.912Z</time></trkpt><trkpt lat="41.3115783" lon="1.2343863"><ele>292.0</ele><time>2026-05-04T15:37:00.912Z</time></trkpt><trkpt lat="41.3115873" lon="1.2342998"><ele>292.0</ele><time>2026-05-04T15:37:03.912Z</time></trkpt><trkpt lat="41.3115785" lon="1.2341889"><ele>292.0</ele><time>2026-05-04T15:37:26.912Z</time></trkpt><trkpt lat="41.3115952" lon="1.234043"><ele>292.0</ele><time>2026-05-04T15:37:28.912Z</time></trkpt><trkpt lat="41.3115873" lon="1.2338849"><ele>292.0</ele><time>2026-05-04T15:37:30.912Z</time></trkpt><trkpt lat="41.3115367" lon="1.2337513"><ele>292.2857142857143</ele><time>2026-05-04T15:37:32.912Z</time></trkpt><trkpt lat="41.3114829" lon="1.2336984"><ele>292.57142857142856</ele><time>2026-05-04T15:37:33.911Z</time></trkpt><trkpt lat="41.3114182" lon="1.2336551"><ele>292.8571428571429</ele><time>2026-05-04T15:37:34.912Z</time></trkpt><trkpt lat="41.3113385" lon="1.2336371"><ele>293.1428571428571</ele><time>2026-05-04T15:37:35.912Z</time></trkpt><trkpt lat="41.3112687" lon="1.2336416"><ele>293.42857142857144</ele><time>2026-05-04T15:37:36.912Z</time></trkpt><trkpt lat="41.3112037" lon="1.2336768"><ele>293.7142857142857</ele><time>2026-05-04T15:37:37.912Z</time></trkpt><trkpt lat="41.3111469" lon="1.2337332"><ele>294.0</ele><time>2026-05-04T15:37:38.912Z</time></trkpt><trkpt lat="41.3111004" lon="1.233812"><ele>293.1666666666667</ele><time>2026-05-04T15:37:39.912Z</time></trkpt><trkpt lat="41.31107" lon="1.2339167"><ele>292.3333333333333</ele><time>2026-05-04T15:37:40.912Z</time></trkpt><trkpt lat="41.3110646" lon="1.2340253"><ele>291.5</ele><time>2026-05-04T15:37:41.911Z</time></trkpt><trkpt lat="41.3110711" lon="1.2341316"><ele>290.66666666666663</ele><time>2026-05-04T15:37:42.912Z</time></trkpt><trkpt lat="41.3110638" lon="1.234244"><ele>289.8333333333333</ele><time>2026-05-04T15:37:43.912Z</time></trkpt><trkpt lat="41.3110584" lon="1.23436"><ele>289.0</ele><time>2026-05-04T15:37:44.912Z</time></trkpt><trkpt lat="41.3110427" lon="1.2344931"><ele>288.8</ele><time>2026-05-04T15:37:45.912Z</time></trkpt><trkpt lat="41.311011" lon="1.2346222"><ele>288.59999999999997</ele><time>2026-05-04T15:37:46.912Z</time></trkpt><trkpt lat="41.3109746" lon="1.2347496"><ele>288.4</ele><time>2026-05-04T15:37:47.912Z</time></trkpt><trkpt lat="41.3109357" lon="1.2348854"><ele>288.2</ele><time>2026-05-04T15:37:48.911Z</time></trkpt><trkpt lat="41.3108986" lon="1.2350246"><ele>288.0</ele><time>2026-05-04T15:37:49.912Z</time></trkpt><trkpt lat="41.3108581" lon="1.2351627"><ele>288.0</ele><time>2026-05-04T15:37:50.912Z</time></trkpt><trkpt lat="41.3108196" lon="1.2352997"><ele>288.0</ele><time>2026-05-04T15:37:51.912Z</time></trkpt><trkpt lat="41.3107847" lon="1.2354204"><ele>288.0</ele><time>2026-05-04T15:37:52.912Z</time></trkpt><trkpt lat="41.3107475" lon="1.2355371"><ele>288.0</ele><time>2026-05-04T15:37:53.912Z</time></trkpt><trkpt lat="41.310687" lon="1.2356419"><ele>288.0</ele><time>2026-05-04T15:37:54.912Z</time></trkpt><trkpt lat="41.3106165" lon="1.2357192"><ele>287.4</ele><time>2026-05-04T15:37:55.912Z</time></trkpt><trkpt lat="41.3105418" lon="1.2357711"><ele>286.8</ele><time>2026-05-04T15:37:56.912Z</time></trkpt><trkpt lat="41.3104585" lon="1.2358183"><ele>286.2</ele><time>2026-05-04T15:37:57.911Z</time></trkpt><trkpt lat="41.3103887" lon="1.2358949"><ele>285.6</ele><time>2026-05-04T15:37:58.912Z</time></trkpt><trkpt lat="41.3103331" lon="1.2359918"><ele>285.0</ele><time>2026-05-04T15:37:59.912Z</time></trkpt><trkpt lat="41.3102781" lon="1.2360995"><ele>285.0</ele><time>2026-05-04T15:38:00.912Z</time></trkpt><trkpt lat="41.3102257" lon="1.2362021"><ele>285.0</ele><time>2026-05-04T15:38:01.912Z</time></trkpt><trkpt lat="41.3101603" lon="1.2362964"><ele>285.0</ele><time>2026-05-04T15:38:02.912Z</time></trkpt><trkpt lat="41.3100841" lon="1.2363828"><ele>285.0</ele><time>2026-05-04T15:38:03.912Z</time></trkpt><trkpt lat="41.3099924" lon="1.2364411"><ele>285.0</ele><time>2026-05-04T15:38:04.912Z</time></trkpt><trkpt lat="41.3098934" lon="1.2364995"><ele>285.0</ele><time>2026-05-04T15:38:05.912Z</time></trkpt><trkpt lat="41.3097874" lon="1.2365547"><ele>285.0</ele><time>2026-05-04T15:38:06.912Z</time></trkpt><trkpt lat="41.3096813" lon="1.2366126"><ele>285.0</ele><time>2026-05-04T15:38:07.912Z</time></trkpt><trkpt lat="41.3095785" lon="1.236672"><ele>285.0</ele><time>2026-05-04T15:38:08.912Z</time></trkpt><trkpt lat="41.3094687" lon="1.2367228"><ele>285.0</ele><time>2026-05-04T15:38:09.912Z</time></trkpt><trkpt lat="41.3093522" lon="1.2367806"><ele>285.0</ele><time>2026-05-04T15:38:10.912Z</time></trkpt><trkpt lat="41.3092346" lon="1.2368385"><ele>285.0</ele><time>2026-05-04T15:38:11.912Z</time></trkpt><trkpt lat="41.3091198" lon="1.2369004"><ele>285.0</ele><time>2026-05-04T15:38:12.912Z</time></trkpt><trkpt lat="41.3090027" lon="1.2369568"><ele>285.0</ele><time>2026-05-04T15:38:13.912Z</time></trkpt><trkpt lat="41.308881" lon="1.2370209"><ele>285.0</ele><time>2026-05-04T15:38:14.912Z</time></trkpt><trkpt lat="41.3087559" lon="1.2370836"><ele>285.0</ele><time>2026-05-04T15:38:15.911Z</time></trkpt><trkpt lat="41.3086331" lon="1.2371467"><ele>285.0</ele><time>2026-05-04T15:38:16.912Z</time></trkpt><trkpt lat="41.3085132" lon="1.2372065"><ele>285.0</ele><time>2026-05-04T15:38:17.912Z</time></trkpt><trkpt lat="41.3083896" lon="1.2372653"><ele>285.0</ele><time>2026-05-04T15:38:18.912Z</time></trkpt><trkpt lat="41.3082653" lon="1.2373314"><ele>285.0</ele><time>2026-05-04T15:38:19.911Z</time></trkpt><trkpt lat="41.308144" lon="1.2373988"><ele>285.0</ele><time>2026-05-04T15:38:20.912Z</time></trkpt><trkpt lat="41.3080186" lon="1.2374644"><ele>283.25</ele><time>2026-05-04T15:38:21.912Z</time></trkpt><trkpt lat="41.3078928" lon="1.2375268"><ele>281.5</ele><time>2026-05-04T15:38:22.912Z</time></trkpt><trkpt lat="41.3077682" lon="1.2375941"><ele>279.75</ele><time>2026-05-04T15:38:23.912Z</time></trkpt><trkpt lat="41.3076406" lon="1.2376618"><ele>278.0</ele><time>2026-05-04T15:38:24.912Z</time></trkpt><trkpt lat="41.3075215" lon="1.2377278"><ele>278.0</ele><time>2026-05-04T15:38:25.913Z</time></trkpt><trkpt lat="41.3074013" lon="1.2377915"><ele>278.0</ele><time>2026-05-04T15:38:26.912Z</time></trkpt><trkpt lat="41.3072744" lon="1.2378563"><ele>278.0</ele><time>2026-05-04T15:38:27.913Z</time></trkpt><trkpt lat="41.3071531" lon="1.2379203"><ele>278.0</ele><time>2026-05-04T15:38:28.913Z</time></trkpt><trkpt lat="41.3070363" lon="1.2379813"><ele>277.25</ele><time>2026-05-04T15:38:29.913Z</time></trkpt><trkpt lat="41.3069182" lon="1.2380364"><ele>276.5</ele><time>2026-05-04T15:38:30.913Z</time></trkpt><trkpt lat="41.306799" lon="1.2380975"><ele>275.75</ele><time>2026-05-04T15:38:31.912Z</time></trkpt><trkpt lat="41.3066787" lon="1.2381612"><ele>275.0</ele><time>2026-05-04T15:38:32.912Z</time></trkpt><trkpt lat="41.3065633" lon="1.2382298"><ele>274.75</ele><time>2026-05-04T15:38:33.913Z</time></trkpt><trkpt lat="41.3064448" lon="1.2383015"><ele>274.5</ele><time>2026-05-04T15:38:34.913Z</time></trkpt><trkpt lat="41.3063282" lon="1.2383668"><ele>274.25</ele><time>2026-05-04T15:38:35.912Z</time></trkpt><trkpt lat="41.3062101" lon="1.2384383"><ele>274.0</ele><time>2026-05-04T15:38:36.913Z</time></trkpt><trkpt lat="41.3060907" lon="1.2385012"><ele>273.5</ele><time>2026-05-04T15:38:37.913Z</time></trkpt><trkpt lat="41.3059714" lon="1.2385681"><ele>273.0</ele><time>2026-05-04T15:38:38.913Z</time></trkpt><trkpt lat="41.3058551" lon="1.2386378"><ele>272.5</ele><time>2026-05-04T15:38:39.913Z</time></trkpt><trkpt lat="41.3057411" lon="1.2387103"><ele>272.0</ele><time>2026-05-04T15:38:40.913Z</time></trkpt><trkpt lat="41.3056272" lon="1.2387819"><ele>271.25</ele><time>2026-05-04T15:38:41.913Z</time></trkpt><trkpt lat="41.3055105" lon="1.2388547"><ele>270.5</ele><time>2026-05-04T15:38:42.913Z</time></trkpt><trkpt lat="41.3053924" lon="1.2389323"><ele>269.75</ele><time>2026-05-04T15:38:43.913Z</time></trkpt><trkpt lat="41.3052726" lon="1.2390061"><ele>269.0</ele><time>2026-05-04T15:38:44.913Z</time></trkpt><trkpt lat="41.305157" lon="1.2390828"><ele>268.25</ele><time>2026-05-04T15:38:45.913Z</time></trkpt><trkpt lat="41.3050437" lon="1.2391608"><ele>267.5</ele><time>2026-05-04T15:38:46.913Z</time></trkpt><trkpt lat="41.3049359" lon="1.2392303"><ele>266.75</ele><time>2026-05-04T15:38:47.912Z</time></trkpt><trkpt lat="41.3048301" lon="1.2393009"><ele>266.0</ele><time>2026-05-04T15:38:48.912Z</time></trkpt><trkpt lat="41.3047297" lon="1.2393801"><ele>265.6666666666667</ele><time>2026-05-04T15:38:49.913Z</time></trkpt><trkpt lat="41.3046326" lon="1.2394495"><ele>265.33333333333337</ele><time>2026-05-04T15:38:50.913Z</time></trkpt><trkpt lat="41.3045506" lon="1.2395139"><ele>265.0</ele><time>2026-05-04T15:38:51.913Z</time></trkpt><trkpt lat="41.3044803" lon="1.2395605"><ele>264.6666666666667</ele><time>2026-05-04T15:38:52.913Z</time></trkpt><trkpt lat="41.3044134" lon="1.2395994"><ele>264.3333333333333</ele><time>2026-05-04T15:38:53.913Z</time></trkpt><trkpt lat="41.3043398" lon="1.2396403"><ele>264.0</ele><time>2026-05-04T15:38:54.913Z</time></trkpt><trkpt lat="41.3042501" lon="1.2396528"><ele>264.0</ele><time>2026-05-04T15:38:55.913Z</time></trkpt><trkpt lat="41.3041605" lon="1.2396657"><ele>264.0</ele><time>2026-05-04T15:38:56.913Z</time></trkpt><trkpt lat="41.3040744" lon="1.2396989"><ele>264.0</ele><time>2026-05-04T15:38:57.913Z</time></trkpt><trkpt lat="41.3040073" lon="1.2397537"><ele>264.0</ele><time>2026-05-04T15:38:58.913Z</time></trkpt><trkpt lat="41.3039584" lon="1.2398416"><ele>264.0</ele><time>2026-05-04T15:38:59.913Z</time></trkpt><trkpt lat="41.3039367" lon="1.2399349"><ele>264.0</ele><time>2026-05-04T15:39:00.913Z</time></trkpt><trkpt lat="41.3039353" lon="1.2400279"><ele>263.5</ele><time>2026-05-04T15:39:01.912Z</time></trkpt><trkpt lat="41.3039633" lon="1.2401287"><ele>263.0</ele><time>2026-05-04T15:39:02.912Z</time></trkpt><trkpt lat="41.3039971" lon="1.2402356"><ele>262.5</ele><time>2026-05-04T15:39:03.912Z</time></trkpt><trkpt lat="41.304014" lon="1.2403387"><ele>262.0</ele><time>2026-05-04T15:39:04.913Z</time></trkpt><trkpt lat="41.3040188" lon="1.2404642"><ele>261.5</ele><time>2026-05-04T15:39:05.913Z</time></trkpt><trkpt lat="41.3040094" lon="1.2405977"><ele>261.0</ele><time>2026-05-04T15:39:06.913Z</time></trkpt><trkpt lat="41.3039873" lon="1.2407406"><ele>260.25</ele><time>2026-05-04T15:39:07.913Z</time></trkpt><trkpt lat="41.3039556" lon="1.2408875"><ele>259.5</ele><time>2026-05-04T15:39:08.913Z</time></trkpt><trkpt lat="41.3039394" lon="1.2410433"><ele>258.75</ele><time>2026-05-04T15:39:09.913Z</time></trkpt><trkpt lat="41.3039262" lon="1.2412046"><ele>258.0</ele><time>2026-05-04T15:39:10.912Z</time></trkpt><trkpt lat="41.3039201" lon="1.2413677"><ele>257.5</ele><time>2026-05-04T15:39:11.912Z</time></trkpt><trkpt lat="41.3039209" lon="1.2415327"><ele>257.0</ele><time>2026-05-04T15:39:12.912Z</time></trkpt><trkpt lat="41.3039258" lon="1.2416958"><ele>256.5</ele><time>2026-05-04T15:39:13.912Z</time></trkpt><trkpt lat="41.3039305" lon="1.2418571"><ele>256.0</ele><time>2026-05-04T15:39:14.913Z</time></trkpt><trkpt lat="41.3039406" lon="1.2420206"><ele>256.0</ele><time>2026-05-04T15:39:15.913Z</time></trkpt><trkpt lat="41.303945" lon="1.2421854"><ele>256.0</ele><time>2026-05-04T15:39:16.913Z</time></trkpt><trkpt lat="41.3039555" lon="1.2423466"><ele>256.0</ele><time>2026-05-04T15:39:17.913Z</time></trkpt><trkpt lat="41.3039615" lon="1.242498"><ele>256.0</ele><time>2026-05-04T15:39:18.913Z</time></trkpt><trkpt lat="41.3039718" lon="1.2426478"><ele>256.0</ele><time>2026-05-04T15:39:19.913Z</time></trkpt><trkpt lat="41.3039826" lon="1.2428033"><ele>256.0</ele><time>2026-05-04T15:39:20.913Z</time></trkpt><trkpt lat="41.303993" lon="1.2429549"><ele>256.0</ele><time>2026-05-04T15:39:21.913Z</time></trkpt><trkpt lat="41.3040027" lon="1.2431087"><ele>256.0</ele><time>2026-05-04T15:39:22.913Z</time></trkpt><trkpt lat="41.3040158" lon="1.2432615"><ele>256.25</ele><time>2026-05-04T15:39:23.913Z</time></trkpt><trkpt lat="41.3040246" lon="1.2434159"><ele>256.5</ele><time>2026-05-04T15:39:24.913Z</time></trkpt><trkpt lat="41.3040355" lon="1.2435698"><ele>256.75</ele><time>2026-05-04T15:39:25.913Z</time></trkpt><trkpt lat="41.3040444" lon="1.2437244"><ele>257.0</ele><time>2026-05-04T15:39:26.913Z</time></trkpt><trkpt lat="41.304051" lon="1.2438868"><ele>257.0</ele><time>2026-05-04T15:39:27.913Z</time></trkpt><trkpt lat="41.3040624" lon="1.244053"><ele>257.0</ele><time>2026-05-04T15:39:28.913Z</time></trkpt><trkpt lat="41.3040761" lon="1.2442188"><ele>257.0</ele><time>2026-05-04T15:39:29.912Z</time></trkpt><trkpt lat="41.3040895" lon="1.2443842"><ele>257.0</ele><time>2026-05-04T15:39:30.913Z</time></trkpt><trkpt lat="41.3040984" lon="1.2445462"><ele>257.0</ele><time>2026-05-04T15:39:31.913Z</time></trkpt><trkpt lat="41.3041058" lon="1.2447139"><ele>257.0</ele><time>2026-05-04T15:39:32.913Z</time></trkpt><trkpt lat="41.3041132" lon="1.2448663"><ele>257.0</ele><time>2026-05-04T15:39:33.913Z</time></trkpt><trkpt lat="41.3041213" lon="1.2450202"><ele>257.0</ele><time>2026-05-04T15:39:34.913Z</time></trkpt><trkpt lat="41.3041268" lon="1.2451719"><ele>257.25</ele><time>2026-05-04T15:39:35.913Z</time></trkpt><trkpt lat="41.3041378" lon="1.2453229"><ele>257.5</ele><time>2026-05-04T15:39:36.913Z</time></trkpt><trkpt lat="41.3041477" lon="1.2454793"><ele>257.75</ele><time>2026-05-04T15:39:37.913Z</time></trkpt><trkpt lat="41.3041602" lon="1.245635"><ele>258.0</ele><time>2026-05-04T15:39:38.913Z</time></trkpt><trkpt lat="41.3041662" lon="1.2457934"><ele>258.0</ele><time>2026-05-04T15:39:39.913Z</time></trkpt><trkpt lat="41.3041761" lon="1.2459467"><ele>258.0</ele><time>2026-05-04T15:39:40.913Z</time></trkpt><trkpt lat="41.304188" lon="1.2461007"><ele>258.0</ele><time>2026-05-04T15:39:41.913Z</time></trkpt><trkpt lat="41.3041972" lon="1.2462542"><ele>258.0</ele><time>2026-05-04T15:39:42.912Z</time></trkpt><trkpt lat="41.3042058" lon="1.2464064"><ele>257.25</ele><time>2026-05-04T15:39:43.912Z</time></trkpt><trkpt lat="41.304214" lon="1.2465577"><ele>256.5</ele><time>2026-05-04T15:39:44.913Z</time></trkpt><trkpt lat="41.30422" lon="1.2467187"><ele>255.75</ele><time>2026-05-04T15:39:45.913Z</time></trkpt><trkpt lat="41.3042238" lon="1.2468772"><ele>255.0</ele><time>2026-05-04T15:39:46.913Z</time></trkpt><trkpt lat="41.3042239" lon="1.247035"><ele>255.0</ele><time>2026-05-04T15:39:47.912Z</time></trkpt><trkpt lat="41.3042259" lon="1.2471894"><ele>255.0</ele><time>2026-05-04T15:39:48.912Z</time></trkpt><trkpt lat="41.3042216" lon="1.2473492"><ele>255.0</ele><time>2026-05-04T15:39:49.912Z</time></trkpt><trkpt lat="41.3042155" lon="1.2475123"><ele>255.0</ele><time>2026-05-04T15:39:50.912Z</time></trkpt><trkpt lat="41.3042075" lon="1.2476723"><ele>254.5</ele><time>2026-05-04T15:39:51.913Z</time></trkpt><trkpt lat="41.3041949" lon="1.2478359"><ele>254.0</ele><time>2026-05-04T15:39:52.913Z</time></trkpt><trkpt lat="41.3041836" lon="1.2479993"><ele>253.5</ele><time>2026-05-04T15:39:53.913Z</time></trkpt><trkpt lat="41.3041641" lon="1.2481615"><ele>253.0</ele><time>2026-05-04T15:39:54.913Z</time></trkpt><trkpt lat="41.3041486" lon="1.2483289"><ele>252.5</ele><time>2026-05-04T15:39:55.912Z</time></trkpt><trkpt lat="41.3041225" lon="1.2484947"><ele>252.0</ele><time>2026-05-04T15:39:56.913Z</time></trkpt><trkpt lat="41.3040925" lon="1.2486613"><ele>251.5</ele><time>2026-05-04T15:39:57.913Z</time></trkpt><trkpt lat="41.3040574" lon="1.2488271"><ele>251.0</ele><time>2026-05-04T15:39:58.913Z</time></trkpt><trkpt lat="41.3040205" lon="1.2489864"><ele>250.25</ele><time>2026-05-04T15:39:59.913Z</time></trkpt><trkpt lat="41.3039779" lon="1.2491425"><ele>249.5</ele><time>2026-05-04T15:40:00.913Z</time></trkpt><trkpt lat="41.303942" lon="1.2493014"><ele>248.75</ele><time>2026-05-04T15:40:01.913Z</time></trkpt><trkpt lat="41.3039071" lon="1.2494606"><ele>248.0</ele><time>2026-05-04T15:40:02.913Z</time></trkpt><trkpt lat="41.3038726" lon="1.2496156"><ele>248.0</ele><time>2026-05-04T15:40:03.913Z</time></trkpt><trkpt lat="41.3038389" lon="1.2497627"><ele>248.0</ele><time>2026-05-04T15:40:04.913Z</time></trkpt><trkpt lat="41.3037997" lon="1.2499156"><ele>248.0</ele><time>2026-05-04T15:40:05.913Z</time></trkpt><trkpt lat="41.3037652" lon="1.2500674"><ele>248.0</ele><time>2026-05-04T15:40:06.912Z</time></trkpt><trkpt lat="41.303731" lon="1.2502178"><ele>248.0</ele><time>2026-05-04T15:40:07.913Z</time></trkpt><trkpt lat="41.3036963" lon="1.2503707"><ele>248.0</ele><time>2026-05-04T15:40:08.913Z</time></trkpt><trkpt lat="41.3036598" lon="1.2505255"><ele>248.0</ele><time>2026-05-04T15:40:09.912Z</time></trkpt><trkpt lat="41.3036193" lon="1.2506802"><ele>248.0</ele><time>2026-05-04T15:40:10.913Z</time></trkpt><trkpt lat="41.3035791" lon="1.2508289"><ele>249.0</ele><time>2026-05-04T15:40:11.913Z</time></trkpt><trkpt lat="41.303539" lon="1.2509797"><ele>250.0</ele><time>2026-05-04T15:40:12.913Z</time></trkpt><trkpt lat="41.3035021" lon="1.2511311"><ele>251.0</ele><time>2026-05-04T15:40:13.913Z</time></trkpt><trkpt lat="41.3034644" lon="1.2512843"><ele>252.0</ele><time>2026-05-04T15:40:14.913Z</time></trkpt><trkpt lat="41.3034278" lon="1.2514344"><ele>252.0</ele><time>2026-05-04T15:40:15.913Z</time></trkpt><trkpt lat="41.3033945" lon="1.2515723"><ele>252.0</ele><time>2026-05-04T15:40:16.913Z</time></trkpt><trkpt lat="41.3033616" lon="1.2517009"><ele>252.0</ele><time>2026-05-04T15:40:17.913Z</time></trkpt><trkpt lat="41.303327" lon="1.251833"><ele>252.0</ele><time>2026-05-04T15:40:18.913Z</time></trkpt><trkpt lat="41.3032933" lon="1.2519577"><ele>252.0</ele><time>2026-05-04T15:40:19.913Z</time></trkpt><trkpt lat="41.3032563" lon="1.2520793"><ele>252.0</ele><time>2026-05-04T15:40:20.913Z</time></trkpt><trkpt lat="41.3032247" lon="1.2521925"><ele>252.0</ele><time>2026-05-04T15:40:21.913Z</time></trkpt><trkpt lat="41.3031929" lon="1.2523097"><ele>252.0</ele><time>2026-05-04T15:40:22.913Z</time></trkpt><trkpt lat="41.3031601" lon="1.2524284"><ele>252.0</ele><time>2026-05-04T15:40:23.913Z</time></trkpt><trkpt lat="41.3031254" lon="1.2525441"><ele>252.0</ele><time>2026-05-04T15:40:24.913Z</time></trkpt><trkpt lat="41.3030889" lon="1.2526614"><ele>252.0</ele><time>2026-05-04T15:40:25.913Z</time></trkpt><trkpt lat="41.3030508" lon="1.2527805"><ele>252.0</ele><time>2026-05-04T15:40:26.913Z</time></trkpt><trkpt lat="41.3030159" lon="1.2529053"><ele>252.0</ele><time>2026-05-04T15:40:27.913Z</time></trkpt><trkpt lat="41.3029821" lon="1.2530274"><ele>252.0</ele><time>2026-05-04T15:40:28.913Z</time></trkpt><trkpt lat="41.3029428" lon="1.2531567"><ele>252.0</ele><time>2026-05-04T15:40:29.913Z</time></trkpt><trkpt lat="41.3029022" lon="1.2532903"><ele>252.39999999999998</ele><time>2026-05-04T15:40:30.913Z</time></trkpt><trkpt lat="41.3028621" lon="1.253418"><ele>252.79999999999998</ele><time>2026-05-04T15:40:31.913Z</time></trkpt><trkpt lat="41.302822" lon="1.2535402"><ele>253.2</ele><time>2026-05-04T15:40:32.913Z</time></trkpt><trkpt lat="41.3027786" lon="1.2536675"><ele>253.6</ele><time>2026-05-04T15:40:33.913Z</time></trkpt><trkpt lat="41.3027335" lon="1.2537993"><ele>254.0</ele><time>2026-05-04T15:40:34.913Z</time></trkpt><trkpt lat="41.3026905" lon="1.2539359"><ele>253.79999999999998</ele><time>2026-05-04T15:40:35.912Z</time></trkpt><trkpt lat="41.3026487" lon="1.2540743"><ele>253.59999999999997</ele><time>2026-05-04T15:40:36.913Z</time></trkpt><trkpt lat="41.3026095" lon="1.2542053"><ele>253.4</ele><time>2026-05-04T15:40:37.913Z</time></trkpt><trkpt lat="41.3025693" lon="1.2543362"><ele>253.2</ele><time>2026-05-04T15:40:38.913Z</time></trkpt><trkpt lat="41.3025286" lon="1.2544658"><ele>253.0</ele><time>2026-05-04T15:40:39.913Z</time></trkpt><trkpt lat="41.3024851" lon="1.2545982"><ele>253.0</ele><time>2026-05-04T15:40:40.913Z</time></trkpt><trkpt lat="41.3024404" lon="1.2547308"><ele>253.0</ele><time>2026-05-04T15:40:41.913Z</time></trkpt><trkpt lat="41.302399" lon="1.2548614"><ele>253.0</ele><time>2026-05-04T15:40:42.912Z</time></trkpt><trkpt lat="41.3023585" lon="1.2549975"><ele>253.0</ele><time>2026-05-04T15:40:43.912Z</time></trkpt><trkpt lat="41.3023119" lon="1.2551364"><ele>253.0</ele><time>2026-05-04T15:40:44.913Z</time></trkpt><trkpt lat="41.3022674" lon="1.2552779"><ele>251.5</ele><time>2026-05-04T15:40:45.913Z</time></trkpt><trkpt lat="41.3022224" lon="1.2554316"><ele>250.0</ele><time>2026-05-04T15:40:46.913Z</time></trkpt><trkpt lat="41.3021755" lon="1.2555734"><ele>248.5</ele><time>2026-05-04T15:40:47.913Z</time></trkpt><trkpt lat="41.3021317" lon="1.2557109"><ele>247.0</ele><time>2026-05-04T15:40:48.913Z</time></trkpt><trkpt lat="41.3020827" lon="1.255854"><ele>245.75</ele><time>2026-05-04T15:40:49.913Z</time></trkpt><trkpt lat="41.3020332" lon="1.2560028"><ele>244.5</ele><time>2026-05-04T15:40:50.913Z</time></trkpt><trkpt lat="41.3019806" lon="1.2561474"><ele>243.25</ele><time>2026-05-04T15:40:51.913Z</time></trkpt><trkpt lat="41.3019281" lon="1.2562916"><ele>242.0</ele><time>2026-05-04T15:40:52.913Z</time></trkpt><trkpt lat="41.3018773" lon="1.2564366"><ele>241.5</ele><time>2026-05-04T15:40:53.912Z</time></trkpt><trkpt lat="41.301827" lon="1.2565842"><ele>241.0</ele><time>2026-05-04T15:40:54.912Z</time></trkpt><trkpt lat="41.3017745" lon="1.2567305"><ele>240.5</ele><time>2026-05-04T15:40:55.913Z</time></trkpt><trkpt lat="41.3017185" lon="1.256879"><ele>240.0</ele><time>2026-05-04T15:40:56.914Z</time></trkpt><trkpt lat="41.3016651" lon="1.2570276"><ele>240.0</ele><time>2026-05-04T15:40:57.914Z</time></trkpt><trkpt lat="41.3016154" lon="1.2571736"><ele>240.0</ele><time>2026-05-04T15:40:58.914Z</time></trkpt><trkpt lat="41.3015634" lon="1.2573075"><ele>240.0</ele><time>2026-05-04T15:40:59.913Z</time></trkpt><trkpt lat="41.3015146" lon="1.2574436"><ele>240.0</ele><time>2026-05-04T15:41:00.913Z</time></trkpt><trkpt lat="41.3014606" lon="1.2575832"><ele>240.4</ele><time>2026-05-04T15:41:01.914Z</time></trkpt><trkpt lat="41.3014134" lon="1.2577168"><ele>240.8</ele><time>2026-05-04T15:41:02.914Z</time></trkpt><trkpt lat="41.3013673" lon="1.2578503"><ele>241.2</ele><time>2026-05-04T15:41:03.914Z</time></trkpt><trkpt lat="41.3013201" lon="1.2579863"><ele>241.6</ele><time>2026-05-04T15:41:04.914Z</time></trkpt><trkpt lat="41.3012713" lon="1.2581131"><ele>242.0</ele><time>2026-05-04T15:41:05.913Z</time></trkpt><trkpt lat="41.3012221" lon="1.2582408"><ele>243.39999999999998</ele><time>2026-05-04T15:41:06.914Z</time></trkpt><trkpt lat="41.3011767" lon="1.2583654"><ele>244.79999999999998</ele><time>2026-05-04T15:41:07.914Z</time></trkpt><trkpt lat="41.3011297" lon="1.2585019"><ele>246.2</ele><time>2026-05-04T15:41:08.913Z</time></trkpt><trkpt lat="41.3010822" lon="1.2586296"><ele>247.6</ele><time>2026-05-04T15:41:09.914Z</time></trkpt><trkpt lat="41.3010341" lon="1.2587581"><ele>249.0</ele><time>2026-05-04T15:41:10.914Z</time></trkpt><trkpt lat="41.3009865" lon="1.2588885"><ele>250.25</ele><time>2026-05-04T15:41:11.914Z</time></trkpt><trkpt lat="41.3009385" lon="1.2590191"><ele>251.5</ele><time>2026-05-04T15:41:12.914Z</time></trkpt><trkpt lat="41.3008871" lon="1.2591532"><ele>252.75</ele><time>2026-05-04T15:41:13.913Z</time></trkpt><trkpt lat="41.3008368" lon="1.2592873"><ele>254.0</ele><time>2026-05-04T15:41:14.914Z</time></trkpt><trkpt lat="41.3007878" lon="1.2594252"><ele>254.0</ele><time>2026-05-04T15:41:15.914Z</time></trkpt><trkpt lat="41.3007374" lon="1.2595663"><ele>254.0</ele><time>2026-05-04T15:41:16.914Z</time></trkpt><trkpt lat="41.300686" lon="1.259705"><ele>254.0</ele><time>2026-05-04T15:41:17.914Z</time></trkpt><trkpt lat="41.3006345" lon="1.2598459"><ele>254.0</ele><time>2026-05-04T15:41:18.914Z</time></trkpt><trkpt lat="41.3005819" lon="1.2599893"><ele>253.25</ele><time>2026-05-04T15:41:19.914Z</time></trkpt><trkpt lat="41.3005281" lon="1.2601344"><ele>252.5</ele><time>2026-05-04T15:41:20.914Z</time></trkpt><trkpt lat="41.3004799" lon="1.2602786"><ele>251.75</ele><time>2026-05-04T15:41:21.914Z</time></trkpt><trkpt lat="41.3004219" lon="1.260416"><ele>251.0</ele><time>2026-05-04T15:41:22.913Z</time></trkpt><trkpt lat="41.3003661" lon="1.260563"><ele>250.75</ele><time>2026-05-04T15:41:23.914Z</time></trkpt><trkpt lat="41.3003104" lon="1.2607085"><ele>250.5</ele><time>2026-05-04T15:41:24.914Z</time></trkpt><trkpt lat="41.3002519" lon="1.2608595"><ele>250.25</ele><time>2026-05-04T15:41:25.914Z</time></trkpt><trkpt lat="41.300195" lon="1.2610096"><ele>250.0</ele><time>2026-05-04T15:41:26.914Z</time></trkpt><trkpt lat="41.3001399" lon="1.2611608"><ele>250.0</ele><time>2026-05-04T15:41:27.914Z</time></trkpt><trkpt lat="41.3000826" lon="1.2613123"><ele>250.0</ele><time>2026-05-04T15:41:28.914Z</time></trkpt><trkpt lat="41.3000274" lon="1.2614628"><ele>250.0</ele><time>2026-05-04T15:41:29.914Z</time></trkpt><trkpt lat="41.2999683" lon="1.26161"><ele>250.0</ele><time>2026-05-04T15:41:30.914Z</time></trkpt><trkpt lat="41.2999119" lon="1.2617571"><ele>249.75</ele><time>2026-05-04T15:41:31.914Z</time></trkpt><trkpt lat="41.2998536" lon="1.2619068"><ele>249.5</ele><time>2026-05-04T15:41:32.913Z</time></trkpt><trkpt lat="41.299803" lon="1.2620584"><ele>249.25</ele><time>2026-05-04T15:41:33.914Z</time></trkpt><trkpt lat="41.29975" lon="1.2622127"><ele>249.0</ele><time>2026-05-04T15:41:34.914Z</time></trkpt><trkpt lat="41.2996884" lon="1.2623618"><ele>248.75</ele><time>2026-05-04T15:41:35.914Z</time></trkpt><trkpt lat="41.2996299" lon="1.2625077"><ele>248.5</ele><time>2026-05-04T15:41:36.913Z</time></trkpt><trkpt lat="41.2995711" lon="1.2626561"><ele>248.25</ele><time>2026-05-04T15:41:37.914Z</time></trkpt><trkpt lat="41.2995107" lon="1.2628076"><ele>248.0</ele><time>2026-05-04T15:41:38.914Z</time></trkpt><trkpt lat="41.2994467" lon="1.2629532"><ele>248.0</ele><time>2026-05-04T15:41:39.914Z</time></trkpt><trkpt lat="41.2993824" lon="1.2631013"><ele>248.0</ele><time>2026-05-04T15:41:40.914Z</time></trkpt><trkpt lat="41.2993181" lon="1.2632449"><ele>248.0</ele><time>2026-05-04T15:41:41.914Z</time></trkpt><trkpt lat="41.2992551" lon="1.2633871"><ele>248.0</ele><time>2026-05-04T15:41:42.914Z</time></trkpt><trkpt lat="41.2991906" lon="1.2635231"><ele>248.5</ele><time>2026-05-04T15:41:43.914Z</time></trkpt><trkpt lat="41.2991291" lon="1.2636617"><ele>249.0</ele><time>2026-05-04T15:41:44.914Z</time></trkpt><trkpt lat="41.2990602" lon="1.2637897"><ele>249.5</ele><time>2026-05-04T15:41:45.914Z</time></trkpt><trkpt lat="41.2989924" lon="1.2639135"><ele>250.0</ele><time>2026-05-04T15:41:46.914Z</time></trkpt><trkpt lat="41.2989282" lon="1.264041"><ele>250.0</ele><time>2026-05-04T15:41:47.914Z</time></trkpt><trkpt lat="41.2988617" lon="1.2641711"><ele>250.0</ele><time>2026-05-04T15:41:48.913Z</time></trkpt><trkpt lat="41.2987951" lon="1.2642977"><ele>250.0</ele><time>2026-05-04T15:41:49.914Z</time></trkpt><trkpt lat="41.2987232" lon="1.2644222"><ele>250.0</ele><time>2026-05-04T15:41:50.914Z</time></trkpt><trkpt lat="41.2986463" lon="1.2645493"><ele>250.0</ele><time>2026-05-04T15:41:51.914Z</time></trkpt><trkpt lat="41.2985678" lon="1.2646766"><ele>250.0</ele><time>2026-05-04T15:41:52.913Z</time></trkpt><trkpt lat="41.2984827" lon="1.2647962"><ele>250.0</ele><time>2026-05-04T15:41:53.914Z</time></trkpt><trkpt lat="41.2983953" lon="1.264918"><ele>250.0</ele><time>2026-05-04T15:41:54.913Z</time></trkpt><trkpt lat="41.2983114" lon="1.2650345"><ele>250.25</ele><time>2026-05-04T15:41:55.914Z</time></trkpt><trkpt lat="41.298225" lon="1.2651517"><ele>250.5</ele><time>2026-05-04T15:41:56.914Z</time></trkpt><trkpt lat="41.2981323" lon="1.2652676"><ele>250.75</ele><time>2026-05-04T15:41:57.914Z</time></trkpt><trkpt lat="41.2980356" lon="1.265385"><ele>251.0</ele><time>2026-05-04T15:41:58.914Z</time></trkpt><trkpt lat="41.2979354" lon="1.2655016"><ele>250.5</ele><time>2026-05-04T15:41:59.914Z</time></trkpt><trkpt lat="41.2978296" lon="1.2656084"><ele>250.0</ele><time>2026-05-04T15:42:00.914Z</time></trkpt><trkpt lat="41.2977204" lon="1.2657107"><ele>249.5</ele><time>2026-05-04T15:42:01.914Z</time></trkpt><trkpt lat="41.2976119" lon="1.2658115"><ele>249.0</ele><time>2026-05-04T15:42:02.914Z</time></trkpt><trkpt lat="41.2975067" lon="1.2659078"><ele>248.25</ele><time>2026-05-04T15:42:03.913Z</time></trkpt><trkpt lat="41.2973966" lon="1.2659951"><ele>247.5</ele><time>2026-05-04T15:42:04.913Z</time></trkpt><trkpt lat="41.2972823" lon="1.2660811"><ele>246.75</ele><time>2026-05-04T15:42:05.914Z</time></trkpt><trkpt lat="41.2971717" lon="1.2661614"><ele>246.0</ele><time>2026-05-04T15:42:06.914Z</time></trkpt><trkpt lat="41.2970574" lon="1.2662382"><ele>245.25</ele><time>2026-05-04T15:42:07.913Z</time></trkpt><trkpt lat="41.2969412" lon="1.2663099"><ele>244.5</ele><time>2026-05-04T15:42:08.914Z</time></trkpt><trkpt lat="41.2968212" lon="1.2663746"><ele>243.75</ele><time>2026-05-04T15:42:09.914Z</time></trkpt><trkpt lat="41.2967" lon="1.2664386"><ele>243.0</ele><time>2026-05-04T15:42:10.914Z</time></trkpt><trkpt lat="41.2965782" lon="1.266504"><ele>242.0</ele><time>2026-05-04T15:42:11.914Z</time></trkpt><trkpt lat="41.296455" lon="1.2665729"><ele>241.0</ele><time>2026-05-04T15:42:12.913Z</time></trkpt><trkpt lat="41.2963314" lon="1.2666378"><ele>240.0</ele><time>2026-05-04T15:42:13.914Z</time></trkpt><trkpt lat="41.296208" lon="1.2666986"><ele>239.0</ele><time>2026-05-04T15:42:14.914Z</time></trkpt><trkpt lat="41.296081" lon="1.2667614"><ele>239.0</ele><time>2026-05-04T15:42:15.914Z</time></trkpt><trkpt lat="41.2959574" lon="1.2668262"><ele>239.0</ele><time>2026-05-04T15:42:16.914Z</time></trkpt><trkpt lat="41.2958346" lon="1.2668909"><ele>239.0</ele><time>2026-05-04T15:42:17.914Z</time></trkpt><trkpt lat="41.2957122" lon="1.2669591"><ele>239.0</ele><time>2026-05-04T15:42:18.914Z</time></trkpt><trkpt lat="41.2955874" lon="1.2670254"><ele>238.5</ele><time>2026-05-04T15:42:19.914Z</time></trkpt><trkpt lat="41.2954612" lon="1.2670868"><ele>238.0</ele><time>2026-05-04T15:42:20.914Z</time></trkpt><trkpt lat="41.2953364" lon="1.26715"><ele>237.5</ele><time>2026-05-04T15:42:21.914Z</time></trkpt><trkpt lat="41.2952088" lon="1.2672081"><ele>237.0</ele><time>2026-05-04T15:42:22.914Z</time></trkpt><trkpt lat="41.2950861" lon="1.2672649"><ele>236.0</ele><time>2026-05-04T15:42:23.914Z</time></trkpt><trkpt lat="41.2949633" lon="1.267328"><ele>235.0</ele><time>2026-05-04T15:42:24.914Z</time></trkpt><trkpt lat="41.2948395" lon="1.2673889"><ele>234.0</ele><time>2026-05-04T15:42:25.914Z</time></trkpt><trkpt lat="41.2947106" lon="1.2674508"><ele>233.0</ele><time>2026-05-04T15:42:26.914Z</time></trkpt><trkpt lat="41.2945825" lon="1.2675118"><ele>233.0</ele><time>2026-05-04T15:42:27.913Z</time></trkpt><trkpt lat="41.2944554" lon="1.2675799"><ele>233.0</ele><time>2026-05-04T15:42:28.914Z</time></trkpt><trkpt lat="41.2943226" lon="1.2676495"><ele>233.0</ele><time>2026-05-04T15:42:29.914Z</time></trkpt><trkpt lat="41.2941889" lon="1.2677139"><ele>233.0</ele><time>2026-05-04T15:42:30.914Z</time></trkpt><trkpt lat="41.2940589" lon="1.267782"><ele>233.0</ele><time>2026-05-04T15:42:31.914Z</time></trkpt><trkpt lat="41.2939332" lon="1.267856"><ele>233.0</ele><time>2026-05-04T15:42:32.913Z</time></trkpt><trkpt lat="41.2938069" lon="1.2679309"><ele>233.0</ele><time>2026-05-04T15:42:33.914Z</time></trkpt><trkpt lat="41.2936888" lon="1.2680146"><ele>233.0</ele><time>2026-05-04T15:42:34.914Z</time></trkpt><trkpt lat="41.29357" lon="1.2681058"><ele>233.5</ele><time>2026-05-04T15:42:35.914Z</time></trkpt><trkpt lat="41.2934526" lon="1.2682034"><ele>234.0</ele><time>2026-05-04T15:42:36.914Z</time></trkpt><trkpt lat="41.2933351" lon="1.2683064"><ele>234.5</ele><time>2026-05-04T15:42:37.914Z</time></trkpt><trkpt lat="41.2932256" lon="1.2684145"><ele>235.0</ele><time>2026-05-04T15:42:38.914Z</time></trkpt><trkpt lat="41.2931137" lon="1.2685285"><ele>235.25</ele><time>2026-05-04T15:42:39.914Z</time></trkpt><trkpt lat="41.2930059" lon="1.2686436"><ele>235.5</ele><time>2026-05-04T15:42:40.914Z</time></trkpt><trkpt lat="41.2929019" lon="1.2687652"><ele>235.75</ele><time>2026-05-04T15:42:41.914Z</time></trkpt><trkpt lat="41.2928006" lon="1.2688906"><ele>236.0</ele><time>2026-05-04T15:42:42.914Z</time></trkpt><trkpt lat="41.2927046" lon="1.2690185"><ele>236.75</ele><time>2026-05-04T15:42:43.914Z</time></trkpt><trkpt lat="41.292608" lon="1.2691522"><ele>237.5</ele><time>2026-05-04T15:42:44.914Z</time></trkpt><trkpt lat="41.2925138" lon="1.2692903"><ele>238.25</ele><time>2026-05-04T15:42:45.914Z</time></trkpt><trkpt lat="41.2924244" lon="1.2694327"><ele>239.0</ele><time>2026-05-04T15:42:46.914Z</time></trkpt><trkpt lat="41.2923409" lon="1.269572"><ele>239.5</ele><time>2026-05-04T15:42:47.914Z</time></trkpt><trkpt lat="41.2922524" lon="1.2697207"><ele>240.0</ele><time>2026-05-04T15:42:48.914Z</time></trkpt><trkpt lat="41.2921639" lon="1.2698681"><ele>240.5</ele><time>2026-05-04T15:42:49.914Z</time></trkpt><trkpt lat="41.2920704" lon="1.2700114"><ele>241.0</ele><time>2026-05-04T15:42:50.914Z</time></trkpt><trkpt lat="41.2919827" lon="1.2701512"><ele>241.25</ele><time>2026-05-04T15:42:51.914Z</time></trkpt><trkpt lat="41.2918957" lon="1.2702938"><ele>241.5</ele><time>2026-05-04T15:42:52.914Z</time></trkpt><trkpt lat="41.291799" lon="1.2704341"><ele>241.75</ele><time>2026-05-04T15:42:53.914Z</time></trkpt><trkpt lat="41.2916986" lon="1.2705608"><ele>242.0</ele><time>2026-05-04T15:42:54.913Z</time></trkpt><trkpt lat="41.2915874" lon="1.2706841"><ele>242.25</ele><time>2026-05-04T15:42:55.913Z</time></trkpt><trkpt lat="41.2914696" lon="1.2707972"><ele>242.5</ele><time>2026-05-04T15:42:56.914Z</time></trkpt><trkpt lat="41.2913463" lon="1.2709039"><ele>242.75</ele><time>2026-05-04T15:42:57.914Z</time></trkpt><trkpt lat="41.2912244" lon="1.2709921"><ele>243.0</ele><time>2026-05-04T15:42:58.913Z</time></trkpt><trkpt lat="41.291097" lon="1.2710689"><ele>243.25</ele><time>2026-05-04T15:42:59.914Z</time></trkpt><trkpt lat="41.290963" lon="1.2711372"><ele>243.5</ele><time>2026-05-04T15:43:00.914Z</time></trkpt><trkpt lat="41.2908343" lon="1.2711904"><ele>243.75</ele><time>2026-05-04T15:43:01.914Z</time></trkpt><trkpt lat="41.2907061" lon="1.2712309"><ele>244.0</ele><time>2026-05-04T15:43:02.913Z</time></trkpt><trkpt lat="41.2905837" lon="1.2712602"><ele>244.0</ele><time>2026-05-04T15:43:03.914Z</time></trkpt><trkpt lat="41.2904662" lon="1.2712914"><ele>243.99999999999997</ele><time>2026-05-04T15:43:04.914Z</time></trkpt><trkpt lat="41.2903536" lon="1.2713215"><ele>243.99999999999997</ele><time>2026-05-04T15:43:05.914Z</time></trkpt><trkpt lat="41.2902493" lon="1.2713501"><ele>244.0</ele><time>2026-05-04T15:43:06.914Z</time></trkpt><trkpt lat="41.2901506" lon="1.2713729"><ele>244.0</ele><time>2026-05-04T15:43:07.914Z</time></trkpt><trkpt lat="41.29005" lon="1.2713858"><ele>244.0</ele><time>2026-05-04T15:43:08.914Z</time></trkpt><trkpt lat="41.2899538" lon="1.2713737"><ele>243.99999999999997</ele><time>2026-05-04T15:43:09.913Z</time></trkpt><trkpt lat="41.2898615" lon="1.2713434"><ele>243.99999999999997</ele><time>2026-05-04T15:43:10.914Z</time></trkpt><trkpt lat="41.2897677" lon="1.2713063"><ele>244.0</ele><time>2026-05-04T15:43:11.914Z</time></trkpt><trkpt lat="41.289676" lon="1.2712891"><ele>244.0</ele><time>2026-05-04T15:43:12.914Z</time></trkpt><trkpt lat="41.2895909" lon="1.2712983"><ele>243.85714285714283</ele><time>2026-05-04T15:43:13.913Z</time></trkpt><trkpt lat="41.289517" lon="1.2713401"><ele>243.71428571428572</ele><time>2026-05-04T15:43:14.914Z</time></trkpt><trkpt lat="41.2894684" lon="1.2713944"><ele>243.57142857142856</ele><time>2026-05-04T15:43:15.914Z</time></trkpt><trkpt lat="41.2894322" lon="1.2714759"><ele>243.42857142857142</ele><time>2026-05-04T15:43:16.914Z</time></trkpt><trkpt lat="41.2894235" lon="1.2715677"><ele>243.28571428571428</ele><time>2026-05-04T15:43:17.914Z</time></trkpt><trkpt lat="41.2894335" lon="1.2716717"><ele>243.14285714285714</ele><time>2026-05-04T15:43:18.914Z</time></trkpt><trkpt lat="41.2894659" lon="1.2717567"><ele>243.0</ele><time>2026-05-04T15:43:19.914Z</time></trkpt><trkpt lat="41.2895093" lon="1.2718532"><ele>243.0</ele><time>2026-05-04T15:43:20.913Z</time></trkpt><trkpt lat="41.2895601" lon="1.2719498"><ele>243.0</ele><time>2026-05-04T15:43:21.914Z</time></trkpt><trkpt lat="41.289608" lon="1.2720589"><ele>243.0</ele><time>2026-05-04T15:43:22.913Z</time></trkpt><trkpt lat="41.2896491" lon="1.2721778"><ele>243.0</ele><time>2026-05-04T15:43:23.913Z</time></trkpt><trkpt lat="41.2896854" lon="1.2723112"><ele>243.0</ele><time>2026-05-04T15:43:24.914Z</time></trkpt><trkpt lat="41.2897207" lon="1.2724536"><ele>242.75</ele><time>2026-05-04T15:43:25.914Z</time></trkpt><trkpt lat="41.2897615" lon="1.2726022"><ele>242.5</ele><time>2026-05-04T15:43:26.913Z</time></trkpt><trkpt lat="41.2898019" lon="1.2727463"><ele>242.25</ele><time>2026-05-04T15:43:27.915Z</time></trkpt><trkpt lat="41.2898403" lon="1.2728928"><ele>242.0</ele><time>2026-05-04T15:43:28.914Z</time></trkpt><trkpt lat="41.2898757" lon="1.2730283"><ele>242.0</ele><time>2026-05-04T15:43:29.915Z</time></trkpt><trkpt lat="41.2899138" lon="1.2731532"><ele>242.0</ele><time>2026-05-04T15:43:30.915Z</time></trkpt><trkpt lat="41.2899469" lon="1.2732688"><ele>242.0</ele><time>2026-05-04T15:43:31.915Z</time></trkpt><trkpt lat="41.2899809" lon="1.2733897"><ele>242.0</ele><time>2026-05-04T15:43:32.915Z</time></trkpt><trkpt lat="41.2900183" lon="1.273505"><ele>242.0</ele><time>2026-05-04T15:43:33.915Z</time></trkpt><trkpt lat="41.2900515" lon="1.2736203"><ele>242.0</ele><time>2026-05-04T15:43:34.915Z</time></trkpt><trkpt lat="41.2900891" lon="1.2737384"><ele>242.0</ele><time>2026-05-04T15:43:35.915Z</time></trkpt><trkpt lat="41.2901286" lon="1.2738661"><ele>242.0</ele><time>2026-05-04T15:43:36.915Z</time></trkpt><trkpt lat="41.2901693" lon="1.2739987"><ele>242.0</ele><time>2026-05-04T15:43:37.915Z</time></trkpt><trkpt lat="41.2902138" lon="1.2741471"><ele>242.0</ele><time>2026-05-04T15:43:38.915Z</time></trkpt><trkpt lat="41.2902592" lon="1.2742939"><ele>242.25</ele><time>2026-05-04T15:43:39.915Z</time></trkpt><trkpt lat="41.2902995" lon="1.2744494"><ele>242.5</ele><time>2026-05-04T15:43:40.915Z</time></trkpt><trkpt lat="41.290352" lon="1.2746115"><ele>242.75</ele><time>2026-05-04T15:43:41.915Z</time></trkpt><trkpt lat="41.2904031" lon="1.2747761"><ele>243.0</ele><time>2026-05-04T15:43:42.915Z</time></trkpt><trkpt lat="41.290455" lon="1.2749481"><ele>243.25</ele><time>2026-05-04T15:43:43.915Z</time></trkpt><trkpt lat="41.2905042" lon="1.275114"><ele>243.5</ele><time>2026-05-04T15:43:44.915Z</time></trkpt><trkpt lat="41.2905566" lon="1.2752906"><ele>243.75</ele><time>2026-05-04T15:43:45.915Z</time></trkpt><trkpt lat="41.2906105" lon="1.2754641"><ele>244.0</ele><time>2026-05-04T15:43:46.915Z</time></trkpt><trkpt lat="41.2906652" lon="1.2756384"><ele>244.25</ele><time>2026-05-04T15:43:47.915Z</time></trkpt><trkpt lat="41.2907196" lon="1.2758165"><ele>244.5</ele><time>2026-05-04T15:43:48.915Z</time></trkpt><trkpt lat="41.2907753" lon="1.2759904"><ele>244.75</ele><time>2026-05-04T15:43:49.915Z</time></trkpt><trkpt lat="41.2908282" lon="1.2761743"><ele>245.0</ele><time>2026-05-04T15:43:50.915Z</time></trkpt><trkpt lat="41.2908828" lon="1.276345"><ele>244.5</ele><time>2026-05-04T15:43:51.915Z</time></trkpt><trkpt lat="41.2909355" lon="1.2765124"><ele>244.0</ele><time>2026-05-04T15:43:52.914Z</time></trkpt><trkpt lat="41.2909846" lon="1.2766761"><ele>243.5</ele><time>2026-05-04T15:43:53.915Z</time></trkpt><trkpt lat="41.2910355" lon="1.2768388"><ele>243.0</ele><time>2026-05-04T15:43:54.914Z</time></trkpt><trkpt lat="41.2910874" lon="1.2770007"><ele>243.0</ele><time>2026-05-04T15:43:55.915Z</time></trkpt><trkpt lat="41.2911341" lon="1.2771702"><ele>243.0</ele><time>2026-05-04T15:43:56.914Z</time></trkpt><trkpt lat="41.2911814" lon="1.2773409"><ele>243.0</ele><time>2026-05-04T15:43:57.915Z</time></trkpt><trkpt lat="41.2912286" lon="1.2775096"><ele>243.0</ele><time>2026-05-04T15:43:58.915Z</time></trkpt><trkpt lat="41.291277" lon="1.277677"><ele>243.5</ele><time>2026-05-04T15:43:59.914Z</time></trkpt><trkpt lat="41.2913289" lon="1.2778361"><ele>244.0</ele><time>2026-05-04T15:44:00.915Z</time></trkpt><trkpt lat="41.2913796" lon="1.277993"><ele>244.5</ele><time>2026-05-04T15:44:01.915Z</time></trkpt><trkpt lat="41.2914263" lon="1.2781592"><ele>245.0</ele><time>2026-05-04T15:44:02.914Z</time></trkpt><trkpt lat="41.2914761" lon="1.2783182"><ele>245.0</ele><time>2026-05-04T15:44:03.915Z</time></trkpt><trkpt lat="41.2915274" lon="1.2784707"><ele>245.0</ele><time>2026-05-04T15:44:04.915Z</time></trkpt><trkpt lat="41.2915782" lon="1.2786281"><ele>245.0</ele><time>2026-05-04T15:44:05.915Z</time></trkpt><trkpt lat="41.2916252" lon="1.2787815"><ele>245.0</ele><time>2026-05-04T15:44:06.915Z</time></trkpt><trkpt lat="41.2916755" lon="1.2789371"><ele>245.5</ele><time>2026-05-04T15:44:07.915Z</time></trkpt><trkpt lat="41.2917199" lon="1.2790993"><ele>246.0</ele><time>2026-05-04T15:44:08.915Z</time></trkpt><trkpt lat="41.291768" lon="1.2792574"><ele>246.5</ele><time>2026-05-04T15:44:09.915Z</time></trkpt><trkpt lat="41.2918125" lon="1.2794067"><ele>247.0</ele><time>2026-05-04T15:44:10.915Z</time></trkpt><trkpt lat="41.291853" lon="1.2795496"><ele>247.0</ele><time>2026-05-04T15:44:11.915Z</time></trkpt><trkpt lat="41.2918965" lon="1.2796953"><ele>247.0</ele><time>2026-05-04T15:44:12.914Z</time></trkpt><trkpt lat="41.2919422" lon="1.2798461"><ele>247.0</ele><time>2026-05-04T15:44:13.915Z</time></trkpt><trkpt lat="41.291989" lon="1.2800016"><ele>247.0</ele><time>2026-05-04T15:44:14.915Z</time></trkpt><trkpt lat="41.2920348" lon="1.2801655"><ele>247.25</ele><time>2026-05-04T15:44:15.915Z</time></trkpt><trkpt lat="41.2920841" lon="1.2803267"><ele>247.5</ele><time>2026-05-04T15:44:16.915Z</time></trkpt><trkpt lat="41.2921308" lon="1.2804858"><ele>247.75</ele><time>2026-05-04T15:44:17.915Z</time></trkpt><trkpt lat="41.2921733" lon="1.2806509"><ele>248.0</ele><time>2026-05-04T15:44:18.915Z</time></trkpt><trkpt lat="41.2922172" lon="1.2808213"><ele>248.0</ele><time>2026-05-04T15:44:19.915Z</time></trkpt><trkpt lat="41.2922581" lon="1.2809851"><ele>248.0</ele><time>2026-05-04T15:44:20.915Z</time></trkpt><trkpt lat="41.2923045" lon="1.2811569"><ele>248.0</ele><time>2026-05-04T15:44:21.915Z</time></trkpt><trkpt lat="41.292344" lon="1.2813318"><ele>248.0</ele><time>2026-05-04T15:44:22.914Z</time></trkpt><trkpt lat="41.2923863" lon="1.2815093"><ele>247.75</ele><time>2026-05-04T15:44:23.915Z</time></trkpt><trkpt lat="41.2924234" lon="1.2816891"><ele>247.5</ele><time>2026-05-04T15:44:24.915Z</time></trkpt><trkpt lat="41.2924604" lon="1.2818715"><ele>247.25</ele><time>2026-05-04T15:44:25.915Z</time></trkpt><trkpt lat="41.2924948" lon="1.2820559"><ele>247.0</ele><time>2026-05-04T15:44:26.915Z</time></trkpt><trkpt lat="41.2925284" lon="1.2822407"><ele>247.5</ele><time>2026-05-04T15:44:27.915Z</time></trkpt><trkpt lat="41.2925566" lon="1.2824258"><ele>248.0</ele><time>2026-05-04T15:44:28.915Z</time></trkpt><trkpt lat="41.2925855" lon="1.2826169"><ele>248.5</ele><time>2026-05-04T15:44:29.915Z</time></trkpt><trkpt lat="41.2926119" lon="1.2827968"><ele>249.0</ele><time>2026-05-04T15:44:30.915Z</time></trkpt><trkpt lat="41.2926355" lon="1.2829862"><ele>248.5</ele><time>2026-05-04T15:44:31.915Z</time></trkpt><trkpt lat="41.2926543" lon="1.2831702"><ele>248.0</ele><time>2026-05-04T15:44:32.915Z</time></trkpt><trkpt lat="41.2926693" lon="1.2833461"><ele>247.5</ele><time>2026-05-04T15:44:33.915Z</time></trkpt><trkpt lat="41.2926844" lon="1.283527"><ele>247.0</ele><time>2026-05-04T15:44:34.915Z</time></trkpt><trkpt lat="41.2926984" lon="1.283706"><ele>247.0</ele><time>2026-05-04T15:44:35.915Z</time></trkpt><trkpt lat="41.2927097" lon="1.2838866"><ele>247.0</ele><time>2026-05-04T15:44:36.915Z</time></trkpt><trkpt lat="41.2927196" lon="1.284069"><ele>247.0</ele><time>2026-05-04T15:44:37.915Z</time></trkpt><trkpt lat="41.2927288" lon="1.2842504"><ele>247.0</ele><time>2026-05-04T15:44:38.915Z</time></trkpt><trkpt lat="41.2927364" lon="1.2844272"><ele>247.5</ele><time>2026-05-04T15:44:39.915Z</time></trkpt><trkpt lat="41.292735" lon="1.2846122"><ele>248.0</ele><time>2026-05-04T15:44:40.915Z</time></trkpt><trkpt lat="41.2927377" lon="1.2847956"><ele>248.5</ele><time>2026-05-04T15:44:41.915Z</time></trkpt><trkpt lat="41.2927381" lon="1.284977"><ele>249.0</ele><time>2026-05-04T15:44:42.915Z</time></trkpt><trkpt lat="41.2927378" lon="1.2851608"><ele>249.0</ele><time>2026-05-04T15:44:43.915Z</time></trkpt><trkpt lat="41.2927328" lon="1.2853405"><ele>249.0</ele><time>2026-05-04T15:44:44.915Z</time></trkpt><trkpt lat="41.2927315" lon="1.2855145"><ele>249.0</ele><time>2026-05-04T15:44:45.915Z</time></trkpt><trkpt lat="41.2927221" lon="1.2856916"><ele>249.0</ele><time>2026-05-04T15:44:46.915Z</time></trkpt><trkpt lat="41.2927174" lon="1.2858678"><ele>248.5</ele><time>2026-05-04T15:44:47.915Z</time></trkpt><trkpt lat="41.292715" lon="1.2860517"><ele>248.0</ele><time>2026-05-04T15:44:48.915Z</time></trkpt><trkpt lat="41.2927107" lon="1.2862373"><ele>247.5</ele><time>2026-05-04T15:44:49.915Z</time></trkpt><trkpt lat="41.2927098" lon="1.286417"><ele>247.0</ele><time>2026-05-04T15:44:50.915Z</time></trkpt><trkpt lat="41.2927042" lon="1.2866058"><ele>246.75</ele><time>2026-05-04T15:44:51.915Z</time></trkpt><trkpt lat="41.2926991" lon="1.2867909"><ele>246.5</ele><time>2026-05-04T15:44:52.914Z</time></trkpt><trkpt lat="41.2926923" lon="1.2869701"><ele>246.25</ele><time>2026-05-04T15:44:53.915Z</time></trkpt><trkpt lat="41.292686" lon="1.2871508"><ele>246.0</ele><time>2026-05-04T15:44:54.915Z</time></trkpt><trkpt lat="41.2926794" lon="1.2873303"><ele>245.75</ele><time>2026-05-04T15:44:55.915Z</time></trkpt><trkpt lat="41.2926802" lon="1.2875079"><ele>245.5</ele><time>2026-05-04T15:44:56.915Z</time></trkpt><trkpt lat="41.292674" lon="1.2876892"><ele>245.25</ele><time>2026-05-04T15:44:57.915Z</time></trkpt><trkpt lat="41.2926712" lon="1.2878686"><ele>245.0</ele><time>2026-05-04T15:44:58.915Z</time></trkpt><trkpt lat="41.2926654" lon="1.2880444"><ele>245.25</ele><time>2026-05-04T15:44:59.915Z</time></trkpt><trkpt lat="41.2926601" lon="1.2882245"><ele>245.5</ele><time>2026-05-04T15:45:00.915Z</time></trkpt><trkpt lat="41.2926565" lon="1.2884014"><ele>245.75</ele><time>2026-05-04T15:45:01.914Z</time></trkpt><trkpt lat="41.2926489" lon="1.2885786"><ele>246.0</ele><time>2026-05-04T15:45:02.915Z</time></trkpt><trkpt lat="41.292638" lon="1.2887555"><ele>246.25</ele><time>2026-05-04T15:45:03.914Z</time></trkpt><trkpt lat="41.2926288" lon="1.2889263"><ele>246.5</ele><time>2026-05-04T15:45:04.914Z</time></trkpt><trkpt lat="41.2926199" lon="1.2890916"><ele>246.75</ele><time>2026-05-04T15:45:05.915Z</time></trkpt><trkpt lat="41.2926029" lon="1.2892701"><ele>247.0</ele><time>2026-05-04T15:45:06.915Z</time></trkpt><trkpt lat="41.2925832" lon="1.2894412"><ele>247.0</ele><time>2026-05-04T15:45:07.915Z</time></trkpt><trkpt lat="41.2925602" lon="1.289612"><ele>247.0</ele><time>2026-05-04T15:45:08.915Z</time></trkpt><trkpt lat="41.2925292" lon="1.289779"><ele>247.0</ele><time>2026-05-04T15:45:09.915Z</time></trkpt><trkpt lat="41.2924953" lon="1.2899385"><ele>247.0</ele><time>2026-05-04T15:45:10.915Z</time></trkpt><trkpt lat="41.2924632" lon="1.2900951"><ele>247.0</ele><time>2026-05-04T15:45:11.914Z</time></trkpt><trkpt lat="41.2924295" lon="1.2902492"><ele>247.0</ele><time>2026-05-04T15:45:12.915Z</time></trkpt><trkpt lat="41.2923941" lon="1.2903999"><ele>247.0</ele><time>2026-05-04T15:45:13.914Z</time></trkpt><trkpt lat="41.2923549" lon="1.2905517"><ele>247.0</ele><time>2026-05-04T15:45:14.915Z</time></trkpt><trkpt lat="41.2923116" lon="1.2907009"><ele>247.0</ele><time>2026-05-04T15:45:15.915Z</time></trkpt><trkpt lat="41.2922632" lon="1.2908527"><ele>247.0</ele><time>2026-05-04T15:45:16.914Z</time></trkpt><trkpt lat="41.292211" lon="1.291001"><ele>247.0</ele><time>2026-05-04T15:45:17.915Z</time></trkpt><trkpt lat="41.2921506" lon="1.2911533"><ele>247.0</ele><time>2026-05-04T15:45:18.915Z</time></trkpt><trkpt lat="41.2920894" lon="1.2913054"><ele>247.0</ele><time>2026-05-04T15:45:19.914Z</time></trkpt><trkpt lat="41.2920277" lon="1.2914507"><ele>247.0</ele><time>2026-05-04T15:45:20.915Z</time></trkpt><trkpt lat="41.2919641" lon="1.2915835"><ele>247.0</ele><time>2026-05-04T15:45:21.915Z</time></trkpt><trkpt lat="41.2919024" lon="1.2917162"><ele>247.0</ele><time>2026-05-04T15:45:22.915Z</time></trkpt><trkpt lat="41.2918417" lon="1.2918343"><ele>246.99999999999997</ele><time>2026-05-04T15:45:23.915Z</time></trkpt><trkpt lat="41.2917791" lon="1.2919425"><ele>247.0</ele><time>2026-05-04T15:45:24.914Z</time></trkpt><trkpt lat="41.291721" lon="1.2920427"><ele>247.0</ele><time>2026-05-04T15:45:25.914Z</time></trkpt><trkpt lat="41.2916681" lon="1.2921209"><ele>247.0</ele><time>2026-05-04T15:45:26.914Z</time></trkpt><trkpt lat="41.2916199" lon="1.2921854"><ele>246.99999999999997</ele><time>2026-05-04T15:45:27.915Z</time></trkpt><trkpt lat="41.2915525" lon="1.2922279"><ele>247.0</ele><time>2026-05-04T15:45:28.914Z</time></trkpt><trkpt lat="41.2914766" lon="1.2922574"><ele>246.49999999999997</ele><time>2026-05-04T15:45:29.915Z</time></trkpt><trkpt lat="41.2913963" lon="1.2922875"><ele>246.0</ele><time>2026-05-04T15:45:30.914Z</time></trkpt><trkpt lat="41.291311" lon="1.2923279"><ele>245.5</ele><time>2026-05-04T15:45:31.915Z</time></trkpt><trkpt lat="41.2912394" lon="1.2923831"><ele>245.0</ele><time>2026-05-04T15:45:32.915Z</time></trkpt><trkpt lat="41.2911795" lon="1.2924569"><ele>244.49999999999997</ele><time>2026-05-04T15:45:33.915Z</time></trkpt><trkpt lat="41.2911301" lon="1.2925448"><ele>244.0</ele><time>2026-05-04T15:45:34.914Z</time></trkpt><trkpt lat="41.2910964" lon="1.2926435"><ele>244.0</ele><time>2026-05-04T15:45:35.915Z</time></trkpt><trkpt lat="41.2910831" lon="1.2927521"><ele>243.99999999999997</ele><time>2026-05-04T15:45:36.914Z</time></trkpt><trkpt lat="41.2910892" lon="1.2928709"><ele>243.99999999999997</ele><time>2026-05-04T15:45:37.915Z</time></trkpt><trkpt lat="41.2911049" lon="1.292992"><ele>244.0</ele><time>2026-05-04T15:45:38.915Z</time></trkpt><trkpt lat="41.2911147" lon="1.2931247"><ele>244.0</ele><time>2026-05-04T15:45:39.915Z</time></trkpt><trkpt lat="41.2911107" lon="1.2932596"><ele>243.79999999999998</ele><time>2026-05-04T15:45:40.915Z</time></trkpt><trkpt lat="41.2910949" lon="1.2933972"><ele>243.59999999999997</ele><time>2026-05-04T15:45:41.915Z</time></trkpt><trkpt lat="41.291065" lon="1.2935286"><ele>243.4</ele><time>2026-05-04T15:45:42.914Z</time></trkpt><trkpt lat="41.2910322" lon="1.2936536"><ele>243.2</ele><time>2026-05-04T15:45:43.915Z</time></trkpt><trkpt lat="41.2909918" lon="1.2937806"><ele>243.0</ele><time>2026-05-04T15:45:44.915Z</time></trkpt><trkpt lat="41.2909483" lon="1.2939093"><ele>243.0</ele><time>2026-05-04T15:45:45.915Z</time></trkpt><trkpt lat="41.2909118" lon="1.2940503"><ele>243.0</ele><time>2026-05-04T15:45:46.915Z</time></trkpt><trkpt lat="41.2908832" lon="1.294192"><ele>243.0</ele><time>2026-05-04T15:45:47.915Z</time></trkpt><trkpt lat="41.2908496" lon="1.2943401"><ele>243.0</ele><time>2026-05-04T15:45:48.915Z</time></trkpt><trkpt lat="41.2908267" lon="1.29449"><ele>243.0</ele><time>2026-05-04T15:45:49.915Z</time></trkpt><trkpt lat="41.2908092" lon="1.2946479"><ele>243.0</ele><time>2026-05-04T15:45:50.915Z</time></trkpt><trkpt lat="41.2907974" lon="1.2948127"><ele>243.0</ele><time>2026-05-04T15:45:51.914Z</time></trkpt><trkpt lat="41.2907911" lon="1.2949809"><ele>243.0</ele><time>2026-05-04T15:45:52.915Z</time></trkpt><trkpt lat="41.290789" lon="1.2951522"><ele>243.5</ele><time>2026-05-04T15:45:53.915Z</time></trkpt><trkpt lat="41.2907918" lon="1.2953248"><ele>244.0</ele><time>2026-05-04T15:45:54.915Z</time></trkpt><trkpt lat="41.2908016" lon="1.2954975"><ele>244.5</ele><time>2026-05-04T15:45:55.915Z</time></trkpt><trkpt lat="41.2908134" lon="1.2956752"><ele>245.0</ele><time>2026-05-04T15:45:56.915Z</time></trkpt><trkpt lat="41.2908273" lon="1.2958525"><ele>245.5</ele><time>2026-05-04T15:45:57.914Z</time></trkpt><trkpt lat="41.2908392" lon="1.2960361"><ele>246.0</ele><time>2026-05-04T15:45:58.915Z</time></trkpt><trkpt lat="41.2908487" lon="1.2962158"><ele>246.5</ele><time>2026-05-04T15:45:59.916Z</time></trkpt><trkpt lat="41.2908641" lon="1.2964007"><ele>247.0</ele><time>2026-05-04T15:46:00.916Z</time></trkpt><trkpt lat="41.2908747" lon="1.2965892"><ele>247.5</ele><time>2026-05-04T15:46:01.915Z</time></trkpt><trkpt lat="41.2908803" lon="1.2967696"><ele>248.0</ele><time>2026-05-04T15:46:02.916Z</time></trkpt><trkpt lat="41.2908856" lon="1.2969548"><ele>248.5</ele><time>2026-05-04T15:46:03.916Z</time></trkpt><trkpt lat="41.2908882" lon="1.29714"><ele>249.0</ele><time>2026-05-04T15:46:04.916Z</time></trkpt><trkpt lat="41.290884" lon="1.2973226"><ele>249.25</ele><time>2026-05-04T15:46:05.916Z</time></trkpt><trkpt lat="41.2908815" lon="1.2975041"><ele>249.5</ele><time>2026-05-04T15:46:06.916Z</time></trkpt><trkpt lat="41.2908685" lon="1.2976856"><ele>249.75</ele><time>2026-05-04T15:46:07.916Z</time></trkpt><trkpt lat="41.2908555" lon="1.2978694"><ele>250.0</ele><time>2026-05-04T15:46:08.916Z</time></trkpt><trkpt lat="41.2908354" lon="1.2980564"><ele>249.75</ele><time>2026-05-04T15:46:09.916Z</time></trkpt><trkpt lat="41.2908146" lon="1.2982334"><ele>249.5</ele><time>2026-05-04T15:46:10.916Z</time></trkpt><trkpt lat="41.2907887" lon="1.2984121"><ele>249.25</ele><time>2026-05-04T15:46:11.916Z</time></trkpt><trkpt lat="41.2907628" lon="1.2985878"><ele>249.0</ele><time>2026-05-04T15:46:12.916Z</time></trkpt><trkpt lat="41.2907365" lon="1.2987715"><ele>248.25</ele><time>2026-05-04T15:46:13.916Z</time></trkpt><trkpt lat="41.290712" lon="1.2989526"><ele>247.5</ele><time>2026-05-04T15:46:14.916Z</time></trkpt><trkpt lat="41.2906866" lon="1.2991305"><ele>246.75</ele><time>2026-05-04T15:46:15.916Z</time></trkpt><trkpt lat="41.2906631" lon="1.2993146"><ele>246.0</ele><time>2026-05-04T15:46:16.915Z</time></trkpt><trkpt lat="41.2906414" lon="1.2994944"><ele>246.0</ele><time>2026-05-04T15:46:17.916Z</time></trkpt><trkpt lat="41.2906148" lon="1.2996806"><ele>246.0</ele><time>2026-05-04T15:46:18.915Z</time></trkpt><trkpt lat="41.290591" lon="1.2998691"><ele>246.0</ele><time>2026-05-04T15:46:19.916Z</time></trkpt><trkpt lat="41.2905636" lon="1.3000619"><ele>246.0</ele><time>2026-05-04T15:46:20.916Z</time></trkpt><trkpt lat="41.2905349" lon="1.3002534"><ele>245.0</ele><time>2026-05-04T15:46:21.915Z</time></trkpt><trkpt lat="41.2905092" lon="1.300439"><ele>244.0</ele><time>2026-05-04T15:46:22.915Z</time></trkpt><trkpt lat="41.2904855" lon="1.300627"><ele>243.0</ele><time>2026-05-04T15:46:23.915Z</time></trkpt><trkpt lat="41.2904608" lon="1.3008214"><ele>242.0</ele><time>2026-05-04T15:46:24.916Z</time></trkpt><trkpt lat="41.290431" lon="1.3010134"><ele>241.66666666666669</ele><time>2026-05-04T15:46:25.916Z</time></trkpt><trkpt lat="41.2904015" lon="1.3012061"><ele>241.33333333333331</ele><time>2026-05-04T15:46:26.916Z</time></trkpt><trkpt lat="41.2903748" lon="1.301404"><ele>241.0</ele><time>2026-05-04T15:46:27.916Z</time></trkpt><trkpt lat="41.2903517" lon="1.3016058"><ele>241.0</ele><time>2026-05-04T15:46:28.916Z</time></trkpt><trkpt lat="41.290321" lon="1.3018067"><ele>241.0</ele><time>2026-05-04T15:46:29.916Z</time></trkpt><trkpt lat="41.2902933" lon="1.3020101"><ele>241.0</ele><time>2026-05-04T15:46:30.916Z</time></trkpt><trkpt lat="41.2902599" lon="1.3022104"><ele>241.0</ele><time>2026-05-04T15:46:31.916Z</time></trkpt><trkpt lat="41.2902314" lon="1.3024077"><ele>241.0</ele><time>2026-05-04T15:46:32.915Z</time></trkpt><trkpt lat="41.2902031" lon="1.3026115"><ele>241.0</ele><time>2026-05-04T15:46:33.915Z</time></trkpt><trkpt lat="41.2901768" lon="1.3028201"><ele>241.0</ele><time>2026-05-04T15:46:34.915Z</time></trkpt><trkpt lat="41.2901485" lon="1.3030299"><ele>241.0</ele><time>2026-05-04T15:46:35.916Z</time></trkpt><trkpt lat="41.2901192" lon="1.3032378"><ele>241.0</ele><time>2026-05-04T15:46:36.916Z</time></trkpt><trkpt lat="41.2900911" lon="1.3034458"><ele>241.33333333333331</ele><time>2026-05-04T15:46:37.916Z</time></trkpt><trkpt lat="41.2900665" lon="1.303653"><ele>241.66666666666669</ele><time>2026-05-04T15:46:38.916Z</time></trkpt><trkpt lat="41.2900504" lon="1.3038605"><ele>242.0</ele><time>2026-05-04T15:46:39.916Z</time></trkpt><trkpt lat="41.2900405" lon="1.3040743"><ele>242.0</ele><time>2026-05-04T15:46:40.916Z</time></trkpt><trkpt lat="41.2900296" lon="1.3042877"><ele>242.0</ele><time>2026-05-04T15:46:41.916Z</time></trkpt><trkpt lat="41.2900241" lon="1.3044985"><ele>242.0</ele><time>2026-05-04T15:46:42.916Z</time></trkpt><trkpt lat="41.2900223" lon="1.3047151"><ele>242.0</ele><time>2026-05-04T15:46:43.916Z</time></trkpt><trkpt lat="41.2900268" lon="1.3049235"><ele>242.0</ele><time>2026-05-04T15:46:44.916Z</time></trkpt><trkpt lat="41.2900343" lon="1.305131"><ele>242.0</ele><time>2026-05-04T15:46:45.916Z</time></trkpt><trkpt lat="41.2900416" lon="1.3053383"><ele>242.0</ele><time>2026-05-04T15:46:46.916Z</time></trkpt><trkpt lat="41.290054" lon="1.3055449"><ele>242.0</ele><time>2026-05-04T15:46:47.916Z</time></trkpt><trkpt lat="41.2900664" lon="1.3057501"><ele>242.0</ele><time>2026-05-04T15:46:48.916Z</time></trkpt><trkpt lat="41.290082" lon="1.3059591"><ele>242.0</ele><time>2026-05-04T15:46:49.916Z</time></trkpt><trkpt lat="41.2901071" lon="1.3061664"><ele>242.0</ele><time>2026-05-04T15:46:50.915Z</time></trkpt><trkpt lat="41.2901361" lon="1.3063696"><ele>242.0</ele><time>2026-05-04T15:46:51.916Z</time></trkpt><trkpt lat="41.2901673" lon="1.3065737"><ele>243.33333333333334</ele><time>2026-05-04T15:46:52.916Z</time></trkpt><trkpt lat="41.2902083" lon="1.3067741"><ele>244.66666666666669</ele><time>2026-05-04T15:46:53.916Z</time></trkpt><trkpt lat="41.290252" lon="1.3069731"><ele>246.0</ele><time>2026-05-04T15:46:54.916Z</time></trkpt><trkpt lat="41.290295" lon="1.3071701"><ele>248.66666666666669</ele><time>2026-05-04T15:46:55.916Z</time></trkpt><trkpt lat="41.290342" lon="1.3073741"><ele>251.33333333333334</ele><time>2026-05-04T15:46:56.915Z</time></trkpt><trkpt lat="41.2903977" lon="1.3075776"><ele>254.0</ele><time>2026-05-04T15:46:57.916Z</time></trkpt><trkpt lat="41.2904579" lon="1.3077672"><ele>254.0</ele><time>2026-05-04T15:46:58.916Z</time></trkpt><trkpt lat="41.2905226" lon="1.3079574"><ele>254.0</ele><time>2026-05-04T15:46:59.915Z</time></trkpt><trkpt lat="41.290598" lon="1.3081412"><ele>254.0</ele><time>2026-05-04T15:47:00.916Z</time></trkpt><trkpt lat="41.2906816" lon="1.30832"><ele>251.66666666666669</ele><time>2026-05-04T15:47:01.916Z</time></trkpt><trkpt lat="41.2907688" lon="1.3085026"><ele>249.33333333333331</ele><time>2026-05-04T15:47:02.916Z</time></trkpt><trkpt lat="41.29086" lon="1.3086717"><ele>247.0</ele><time>2026-05-04T15:47:03.916Z</time></trkpt><trkpt lat="41.2909559" lon="1.3088388"><ele>248.0</ele><time>2026-05-04T15:47:04.916Z</time></trkpt><trkpt lat="41.2910622" lon="1.3089967"><ele>249.0</ele><time>2026-05-04T15:47:05.916Z</time></trkpt><trkpt lat="41.2911695" lon="1.3091549"><ele>250.0</ele><time>2026-05-04T15:47:06.916Z</time></trkpt><trkpt lat="41.2912774" lon="1.3093045"><ele>250.0</ele><time>2026-05-04T15:47:07.916Z</time></trkpt><trkpt lat="41.2913884" lon="1.3094491"><ele>250.0</ele><time>2026-05-04T15:47:08.916Z</time></trkpt><trkpt lat="41.2914968" lon="1.3095844"><ele>250.0</ele><time>2026-05-04T15:47:09.916Z</time></trkpt><trkpt lat="41.2916036" lon="1.3097077"><ele>250.0</ele><time>2026-05-04T15:47:10.915Z</time></trkpt><trkpt lat="41.2917196" lon="1.3098304"><ele>251.75</ele><time>2026-05-04T15:47:11.916Z</time></trkpt><trkpt lat="41.2918337" lon="1.3099364"><ele>253.5</ele><time>2026-05-04T15:47:12.915Z</time></trkpt><trkpt lat="41.2919551" lon="1.3100413"><ele>255.25</ele><time>2026-05-04T15:47:13.916Z</time></trkpt><trkpt lat="41.2920752" lon="1.3101381"><ele>257.0</ele><time>2026-05-04T15:47:14.916Z</time></trkpt><trkpt lat="41.2921954" lon="1.3102228"><ele>256.25</ele><time>2026-05-04T15:47:15.916Z</time></trkpt><trkpt lat="41.2923074" lon="1.3103119"><ele>255.5</ele><time>2026-05-04T15:47:16.916Z</time></trkpt><trkpt lat="41.2924229" lon="1.3103992"><ele>254.75</ele><time>2026-05-04T15:47:17.916Z</time></trkpt><trkpt lat="41.2925395" lon="1.3104796"><ele>254.0</ele><time>2026-05-04T15:47:18.916Z</time></trkpt><trkpt lat="41.2926601" lon="1.3105536"><ele>255.5</ele><time>2026-05-04T15:47:19.916Z</time></trkpt><trkpt lat="41.2927797" lon="1.3106329"><ele>257.0</ele><time>2026-05-04T15:47:20.916Z</time></trkpt><trkpt lat="41.2928984" lon="1.3107152"><ele>258.5</ele><time>2026-05-04T15:47:21.916Z</time></trkpt><trkpt lat="41.2930125" lon="1.3107989"><ele>260.0</ele><time>2026-05-04T15:47:22.916Z</time></trkpt><trkpt lat="41.293123" lon="1.3108851"><ele>260.5</ele><time>2026-05-04T15:47:23.916Z</time></trkpt><trkpt lat="41.2932333" lon="1.3109711"><ele>261.0</ele><time>2026-05-04T15:47:24.916Z</time></trkpt><trkpt lat="41.2933407" lon="1.3110593"><ele>261.5</ele><time>2026-05-04T15:47:25.916Z</time></trkpt><trkpt lat="41.2934442" lon="1.3111527"><ele>262.0</ele><time>2026-05-04T15:47:26.915Z</time></trkpt><trkpt lat="41.2935507" lon="1.3112527"><ele>262.0</ele><time>2026-05-04T15:47:27.916Z</time></trkpt><trkpt lat="41.2936525" lon="1.3113513"><ele>262.0</ele><time>2026-05-04T15:47:28.916Z</time></trkpt><trkpt lat="41.293753" lon="1.3114554"><ele>262.0</ele><time>2026-05-04T15:47:29.916Z</time></trkpt><trkpt lat="41.2938512" lon="1.3115682"><ele>262.0</ele><time>2026-05-04T15:47:30.916Z</time></trkpt><trkpt lat="41.2939445" lon="1.3116848"><ele>262.75</ele><time>2026-05-04T15:47:31.915Z</time></trkpt><trkpt lat="41.2940361" lon="1.3118017"><ele>263.5</ele><time>2026-05-04T15:47:32.915Z</time></trkpt><trkpt lat="41.2941238" lon="1.3119212"><ele>264.25</ele><time>2026-05-04T15:47:33.916Z</time></trkpt><trkpt lat="41.2942099" lon="1.3120493"><ele>265.0</ele><time>2026-05-04T15:47:34.916Z</time></trkpt><trkpt lat="41.2942946" lon="1.312177"><ele>265.75</ele><time>2026-05-04T15:47:35.916Z</time></trkpt><trkpt lat="41.2943758" lon="1.3123111"><ele>266.5</ele><time>2026-05-04T15:47:36.916Z</time></trkpt><trkpt lat="41.2944583" lon="1.312448"><ele>267.25</ele><time>2026-05-04T15:47:37.916Z</time></trkpt><trkpt lat="41.2945316" lon="1.3125855"><ele>268.0</ele><time>2026-05-04T15:47:38.916Z</time></trkpt><trkpt lat="41.2946077" lon="1.3127251"><ele>268.0</ele><time>2026-05-04T15:47:39.916Z</time></trkpt><trkpt lat="41.2946821" lon="1.3128715"><ele>268.0</ele><time>2026-05-04T15:47:40.916Z</time></trkpt><trkpt lat="41.2947554" lon="1.3130197"><ele>268.0</ele><time>2026-05-04T15:47:41.916Z</time></trkpt><trkpt lat="41.2948209" lon="1.3131751"><ele>268.0</ele><time>2026-05-04T15:47:42.916Z</time></trkpt><trkpt lat="41.2948819" lon="1.3133318"><ele>268.75</ele><time>2026-05-04T15:47:43.916Z</time></trkpt><trkpt lat="41.294938" lon="1.3134953"><ele>269.5</ele><time>2026-05-04T15:47:44.916Z</time></trkpt><trkpt lat="41.2949956" lon="1.3136648"><ele>270.25</ele><time>2026-05-04T15:47:45.916Z</time></trkpt><trkpt lat="41.2950495" lon="1.3138326"><ele>271.0</ele><time>2026-05-04T15:47:46.916Z</time></trkpt><trkpt lat="41.2950985" lon="1.3140086"><ele>271.25</ele><time>2026-05-04T15:47:47.916Z</time></trkpt><trkpt lat="41.2951434" lon="1.3141871"><ele>271.5</ele><time>2026-05-04T15:47:48.916Z</time></trkpt><trkpt lat="41.2951843" lon="1.3143639"><ele>271.75</ele><time>2026-05-04T15:47:49.916Z</time></trkpt><trkpt lat="41.2952213" lon="1.31454"><ele>272.0</ele><time>2026-05-04T15:47:50.916Z</time></trkpt><trkpt lat="41.2952505" lon="1.3147169"><ele>272.0</ele><time>2026-05-04T15:47:51.915Z</time></trkpt><trkpt lat="41.2952754" lon="1.3148836"><ele>272.0</ele><time>2026-05-04T15:47:52.916Z</time></trkpt><trkpt lat="41.2953001" lon="1.3150557"><ele>272.0</ele><time>2026-05-04T15:47:53.916Z</time></trkpt><trkpt lat="41.2953171" lon="1.3152296"><ele>272.0</ele><time>2026-05-04T15:47:54.915Z</time></trkpt><trkpt lat="41.2953319" lon="1.3154031"><ele>272.25</ele><time>2026-05-04T15:47:55.916Z</time></trkpt><trkpt lat="41.2953446" lon="1.31558"><ele>272.5</ele><time>2026-05-04T15:47:56.916Z</time></trkpt><trkpt lat="41.2953498" lon="1.3157619"><ele>272.75</ele><time>2026-05-04T15:47:57.916Z</time></trkpt><trkpt lat="41.2953542" lon="1.3159477"><ele>273.0</ele><time>2026-05-04T15:47:58.916Z</time></trkpt><trkpt lat="41.2953502" lon="1.3161357"><ele>273.0</ele><time>2026-05-04T15:47:59.916Z</time></trkpt><trkpt lat="41.2953507" lon="1.3163123"><ele>273.0</ele><time>2026-05-04T15:48:00.916Z</time></trkpt><trkpt lat="41.2953419" lon="1.3164903"><ele>273.0</ele><time>2026-05-04T15:48:01.916Z</time></trkpt><trkpt lat="41.2953256" lon="1.3166706"><ele>273.0</ele><time>2026-05-04T15:48:02.916Z</time></trkpt><trkpt lat="41.2953079" lon="1.3168497"><ele>273.25</ele><time>2026-05-04T15:48:03.915Z</time></trkpt><trkpt lat="41.2952843" lon="1.3170314"><ele>273.5</ele><time>2026-05-04T15:48:04.916Z</time></trkpt><trkpt lat="41.2952597" lon="1.3172111"><ele>273.75</ele><time>2026-05-04T15:48:05.916Z</time></trkpt><trkpt lat="41.2952387" lon="1.3173944"><ele>274.0</ele><time>2026-05-04T15:48:06.916Z</time></trkpt><trkpt lat="41.2952198" lon="1.3175742"><ele>274.5</ele><time>2026-05-04T15:48:07.916Z</time></trkpt><trkpt lat="41.2951931" lon="1.3177546"><ele>275.0</ele><time>2026-05-04T15:48:08.916Z</time></trkpt><trkpt lat="41.2951674" lon="1.3179326"><ele>275.5</ele><time>2026-05-04T15:48:09.916Z</time></trkpt><trkpt lat="41.2951424" lon="1.3181093"><ele>276.0</ele><time>2026-05-04T15:48:10.916Z</time></trkpt><trkpt lat="41.2951222" lon="1.3182872"><ele>276.0</ele><time>2026-05-04T15:48:11.916Z</time></trkpt><trkpt lat="41.295101" lon="1.3184613"><ele>276.0</ele><time>2026-05-04T15:48:12.916Z</time></trkpt><trkpt lat="41.2950788" lon="1.3186375"><ele>276.0</ele><time>2026-05-04T15:48:13.915Z</time></trkpt><trkpt lat="41.295056" lon="1.3188132"><ele>276.0</ele><time>2026-05-04T15:48:14.916Z</time></trkpt><trkpt lat="41.2950369" lon="1.3189838"><ele>276.0</ele><time>2026-05-04T15:48:15.915Z</time></trkpt><trkpt lat="41.2950118" lon="1.3191526"><ele>276.0</ele><time>2026-05-04T15:48:16.916Z</time></trkpt><trkpt lat="41.2949895" lon="1.3193209"><ele>276.0</ele><time>2026-05-04T15:48:17.916Z</time></trkpt><trkpt lat="41.2949662" lon="1.3194878"><ele>276.0</ele><time>2026-05-04T15:48:18.916Z</time></trkpt><trkpt lat="41.294942" lon="1.3196527"><ele>276.0</ele><time>2026-05-04T15:48:19.915Z</time></trkpt><trkpt lat="41.2949191" lon="1.3198183"><ele>276.0</ele><time>2026-05-04T15:48:20.916Z</time></trkpt><trkpt lat="41.2948958" lon="1.3199922"><ele>276.0</ele><time>2026-05-04T15:48:21.916Z</time></trkpt><trkpt lat="41.2948753" lon="1.3201653"><ele>276.0</ele><time>2026-05-04T15:48:22.915Z</time></trkpt><trkpt lat="41.2948543" lon="1.3203413"><ele>276.0</ele><time>2026-05-04T15:48:23.915Z</time></trkpt><trkpt lat="41.2948337" lon="1.320513"><ele>276.0</ele><time>2026-05-04T15:48:24.916Z</time></trkpt><trkpt lat="41.2948092" lon="1.3206887"><ele>276.0</ele><time>2026-05-04T15:48:25.916Z</time></trkpt><trkpt lat="41.2947852" lon="1.3208646"><ele>276.0</ele><time>2026-05-04T15:48:26.916Z</time></trkpt><trkpt lat="41.2947621" lon="1.3210379"><ele>275.75</ele><time>2026-05-04T15:48:27.916Z</time></trkpt><trkpt lat="41.2947351" lon="1.3212153"><ele>275.5</ele><time>2026-05-04T15:48:28.916Z</time></trkpt><trkpt lat="41.2947151" lon="1.3213964"><ele>275.25</ele><time>2026-05-04T15:48:29.915Z</time></trkpt><trkpt lat="41.2946951" lon="1.3215771"><ele>275.0</ele><time>2026-05-04T15:48:30.916Z</time></trkpt><trkpt lat="41.2946724" lon="1.3217566"><ele>275.0</ele><time>2026-05-04T15:48:31.916Z</time></trkpt><trkpt lat="41.294646" lon="1.3219338"><ele>275.0</ele><time>2026-05-04T15:48:32.917Z</time></trkpt><trkpt lat="41.2946201" lon="1.3221124"><ele>275.0</ele><time>2026-05-04T15:48:33.917Z</time></trkpt><trkpt lat="41.2945972" lon="1.3222853"><ele>275.0</ele><time>2026-05-04T15:48:34.917Z</time></trkpt><trkpt lat="41.2945724" lon="1.3224641"><ele>275.25</ele><time>2026-05-04T15:48:35.916Z</time></trkpt><trkpt lat="41.2945502" lon="1.3226417"><ele>275.5</ele><time>2026-05-04T15:48:36.917Z</time></trkpt><trkpt lat="41.2945286" lon="1.3228245"><ele>275.75</ele><time>2026-05-04T15:48:37.917Z</time></trkpt><trkpt lat="41.2945057" lon="1.3230024"><ele>276.0</ele><time>2026-05-04T15:48:38.917Z</time></trkpt><trkpt lat="41.2944858" lon="1.3231884"><ele>276.0</ele><time>2026-05-04T15:48:39.917Z</time></trkpt><trkpt lat="41.2944594" lon="1.3233625"><ele>276.0</ele><time>2026-05-04T15:48:40.917Z</time></trkpt><trkpt lat="41.2944332" lon="1.3235407"><ele>276.0</ele><time>2026-05-04T15:48:41.917Z</time></trkpt><trkpt lat="41.2944066" lon="1.3237203"><ele>276.0</ele><time>2026-05-04T15:48:42.917Z</time></trkpt><trkpt lat="41.2943857" lon="1.3238999"><ele>276.0</ele><time>2026-05-04T15:48:43.917Z</time></trkpt><trkpt lat="41.2943635" lon="1.3240849"><ele>276.0</ele><time>2026-05-04T15:48:44.917Z</time></trkpt><trkpt lat="41.2943419" lon="1.3242679"><ele>276.0</ele><time>2026-05-04T15:48:45.916Z</time></trkpt><trkpt lat="41.2943196" lon="1.3244486"><ele>276.0</ele><time>2026-05-04T15:48:46.916Z</time></trkpt><trkpt lat="41.2942936" lon="1.3246309"><ele>276.25</ele><time>2026-05-04T15:48:47.917Z</time></trkpt><trkpt lat="41.2942724" lon="1.3248092"><ele>276.5</ele><time>2026-05-04T15:48:48.916Z</time></trkpt><trkpt lat="41.2942475" lon="1.3249921"><ele>276.75</ele><time>2026-05-04T15:48:49.917Z</time></trkpt><trkpt lat="41.2942209" lon="1.3251692"><ele>277.0</ele><time>2026-05-04T15:48:50.916Z</time></trkpt><trkpt lat="41.2941985" lon="1.3253554"><ele>277.0</ele><time>2026-05-04T15:48:51.917Z</time></trkpt><trkpt lat="41.2941768" lon="1.3255385"><ele>277.0</ele><time>2026-05-04T15:48:52.917Z</time></trkpt><trkpt lat="41.2941557" lon="1.325716"><ele>277.0</ele><time>2026-05-04T15:48:53.917Z</time></trkpt><trkpt lat="41.2941333" lon="1.3258934"><ele>277.0</ele><time>2026-05-04T15:48:54.917Z</time></trkpt><trkpt lat="41.2941081" lon="1.3260758"><ele>276.75</ele><time>2026-05-04T15:48:55.917Z</time></trkpt><trkpt lat="41.2940856" lon="1.3262545"><ele>276.5</ele><time>2026-05-04T15:48:56.917Z</time></trkpt><trkpt lat="41.2940622" lon="1.3264395"><ele>276.25</ele><time>2026-05-04T15:48:57.917Z</time></trkpt><trkpt lat="41.2940415" lon="1.3266196"><ele>276.0</ele><time>2026-05-04T15:48:58.917Z</time></trkpt><trkpt lat="41.2940193" lon="1.326803"><ele>276.0</ele><time>2026-05-04T15:48:59.916Z</time></trkpt><trkpt lat="41.2939973" lon="1.3269845"><ele>276.0</ele><time>2026-05-04T15:49:00.917Z</time></trkpt><trkpt lat="41.2939717" lon="1.3271654"><ele>276.0</ele><time>2026-05-04T15:49:01.916Z</time></trkpt><trkpt lat="41.293948" lon="1.3273427"><ele>276.0</ele><time>2026-05-04T15:49:02.917Z</time></trkpt><trkpt lat="41.2939227" lon="1.3275285"><ele>276.25</ele><time>2026-05-04T15:49:03.917Z</time></trkpt><trkpt lat="41.2938968" lon="1.3277149"><ele>276.5</ele><time>2026-05-04T15:49:04.917Z</time></trkpt><trkpt lat="41.2938756" lon="1.3279016"><ele>276.75</ele><time>2026-05-04T15:49:05.917Z</time></trkpt><trkpt lat="41.2938492" lon="1.3280806"><ele>277.0</ele><time>2026-05-04T15:49:06.917Z</time></trkpt><trkpt lat="41.2938206" lon="1.3282632"><ele>277.5</ele><time>2026-05-04T15:49:07.917Z</time></trkpt><trkpt lat="41.293795" lon="1.3284488"><ele>278.0</ele><time>2026-05-04T15:49:08.917Z</time></trkpt><trkpt lat="41.2937693" lon="1.3286391"><ele>278.5</ele><time>2026-05-04T15:49:09.916Z</time></trkpt><trkpt lat="41.2937473" lon="1.328826"><ele>279.0</ele><time>2026-05-04T15:49:10.917Z</time></trkpt><trkpt lat="41.293723" lon="1.3290119"><ele>279.0</ele><time>2026-05-04T15:49:11.917Z</time></trkpt><trkpt lat="41.2936996" lon="1.3292006"><ele>279.0</ele><time>2026-05-04T15:49:12.917Z</time></trkpt><trkpt lat="41.2936758" lon="1.3293895"><ele>279.0</ele><time>2026-05-04T15:49:13.917Z</time></trkpt><trkpt lat="41.2936538" lon="1.3295786"><ele>279.0</ele><time>2026-05-04T15:49:14.917Z</time></trkpt><trkpt lat="41.2936258" lon="1.3297682"><ele>279.0</ele><time>2026-05-04T15:49:15.917Z</time></trkpt><trkpt lat="41.2936" lon="1.3299594"><ele>279.0</ele><time>2026-05-04T15:49:16.917Z</time></trkpt><trkpt lat="41.2935749" lon="1.3301442"><ele>279.0</ele><time>2026-05-04T15:49:17.917Z</time></trkpt><trkpt lat="41.2935487" lon="1.3303315"><ele>279.0</ele><time>2026-05-04T15:49:18.917Z</time></trkpt><trkpt lat="41.2935205" lon="1.3305219"><ele>278.5</ele><time>2026-05-04T15:49:19.916Z</time></trkpt><trkpt lat="41.2934913" lon="1.3307124"><ele>278.0</ele><time>2026-05-04T15:49:20.917Z</time></trkpt><trkpt lat="41.2934656" lon="1.3309021"><ele>277.5</ele><time>2026-05-04T15:49:21.917Z</time></trkpt><trkpt lat="41.2934416" lon="1.331096"><ele>277.0</ele><time>2026-05-04T15:49:22.916Z</time></trkpt><trkpt lat="41.2934153" lon="1.3312859"><ele>276.5</ele><time>2026-05-04T15:49:23.917Z</time></trkpt><trkpt lat="41.293391" lon="1.3314827"><ele>276.0</ele><time>2026-05-04T15:49:24.917Z</time></trkpt><trkpt lat="41.2933668" lon="1.3316781"><ele>275.5</ele><time>2026-05-04T15:49:25.917Z</time></trkpt><trkpt lat="41.2933405" lon="1.3318742"><ele>275.0</ele><time>2026-05-04T15:49:26.917Z</time></trkpt><trkpt lat="41.2933184" lon="1.3320668"><ele>275.6666666666667</ele><time>2026-05-04T15:49:27.917Z</time></trkpt><trkpt lat="41.2932894" lon="1.33226"><ele>276.3333333333333</ele><time>2026-05-04T15:49:28.917Z</time></trkpt><trkpt lat="41.2932621" lon="1.3324591"><ele>277.0</ele><time>2026-05-04T15:49:29.916Z</time></trkpt><trkpt lat="41.2932336" lon="1.3326606"><ele>277.0</ele><time>2026-05-04T15:49:30.917Z</time></trkpt><trkpt lat="41.2932035" lon="1.332858"><ele>277.0</ele><time>2026-05-04T15:49:31.917Z</time></trkpt><trkpt lat="41.293178" lon="1.3330583"><ele>277.0</ele><time>2026-05-04T15:49:32.917Z</time></trkpt><trkpt lat="41.2931515" lon="1.333258"><ele>276.0</ele><time>2026-05-04T15:49:33.917Z</time></trkpt><trkpt lat="41.2931256" lon="1.3334538"><ele>275.0</ele><time>2026-05-04T15:49:34.917Z</time></trkpt><trkpt lat="41.2930968" lon="1.3336573"><ele>274.0</ele><time>2026-05-04T15:49:35.917Z</time></trkpt><trkpt lat="41.2930698" lon="1.3338575"><ele>272.3333333333333</ele><time>2026-05-04T15:49:36.916Z</time></trkpt><trkpt lat="41.2930428" lon="1.3340526"><ele>270.6666666666667</ele><time>2026-05-04T15:49:37.917Z</time></trkpt><trkpt lat="41.293016" lon="1.3342526"><ele>269.0</ele><time>2026-05-04T15:49:38.916Z</time></trkpt><trkpt lat="41.2929936" lon="1.3344536"><ele>269.0</ele><time>2026-05-04T15:49:39.917Z</time></trkpt><trkpt lat="41.2929684" lon="1.3346508"><ele>269.0</ele><time>2026-05-04T15:49:40.917Z</time></trkpt><trkpt lat="41.2929409" lon="1.3348472"><ele>269.0</ele><time>2026-05-04T15:49:41.917Z</time></trkpt><trkpt lat="41.2929131" lon="1.3350452"><ele>268.33333333333337</ele><time>2026-05-04T15:49:42.917Z</time></trkpt><trkpt lat="41.2928806" lon="1.3352435"><ele>267.6666666666667</ele><time>2026-05-04T15:49:43.917Z</time></trkpt><trkpt lat="41.2928542" lon="1.3354472"><ele>267.0</ele><time>2026-05-04T15:49:44.917Z</time></trkpt><trkpt lat="41.2928266" lon="1.3356512"><ele>266.6666666666667</ele><time>2026-05-04T15:49:45.917Z</time></trkpt><trkpt lat="41.2928005" lon="1.3358465"><ele>266.33333333333337</ele><time>2026-05-04T15:49:46.917Z</time></trkpt><trkpt lat="41.2927759" lon="1.336051"><ele>266.0</ele><time>2026-05-04T15:49:47.916Z</time></trkpt><trkpt lat="41.2927483" lon="1.3362462"><ele>266.5</ele><time>2026-05-04T15:49:48.917Z</time></trkpt><trkpt lat="41.2927201" lon="1.336441"><ele>267.0</ele><time>2026-05-04T15:49:49.917Z</time></trkpt><trkpt lat="41.2926912" lon="1.3366284"><ele>267.5</ele><time>2026-05-04T15:49:50.917Z</time></trkpt><trkpt lat="41.2926643" lon="1.3368181"><ele>268.0</ele><time>2026-05-04T15:49:51.917Z</time></trkpt><trkpt lat="41.2926383" lon="1.3370076"><ele>268.0</ele><time>2026-05-04T15:49:52.917Z</time></trkpt><trkpt lat="41.2926129" lon="1.3371933"><ele>268.0</ele><time>2026-05-04T15:49:53.917Z</time></trkpt><trkpt lat="41.292587" lon="1.3373805"><ele>268.0</ele><time>2026-05-04T15:49:54.917Z</time></trkpt><trkpt lat="41.2925608" lon="1.3375684"><ele>268.0</ele><time>2026-05-04T15:49:55.917Z</time></trkpt><trkpt lat="41.2925364" lon="1.3377576"><ele>268.25</ele><time>2026-05-04T15:49:56.917Z</time></trkpt><trkpt lat="41.2925144" lon="1.3379484"><ele>268.5</ele><time>2026-05-04T15:49:57.917Z</time></trkpt><trkpt lat="41.2924888" lon="1.3381402"><ele>268.75</ele><time>2026-05-04T15:49:58.917Z</time></trkpt><trkpt lat="41.2924643" lon="1.3383299"><ele>269.0</ele><time>2026-05-04T15:49:59.917Z</time></trkpt><trkpt lat="41.292439" lon="1.3385268"><ele>269.0</ele><time>2026-05-04T15:50:00.916Z</time></trkpt><trkpt lat="41.2924093" lon="1.3387242"><ele>269.0</ele><time>2026-05-04T15:50:01.917Z</time></trkpt><trkpt lat="41.2923797" lon="1.3389178"><ele>269.0</ele><time>2026-05-04T15:50:02.917Z</time></trkpt><trkpt lat="41.2923533" lon="1.3391136"><ele>269.0</ele><time>2026-05-04T15:50:03.917Z</time></trkpt><trkpt lat="41.2923294" lon="1.3393032"><ele>268.75</ele><time>2026-05-04T15:50:04.917Z</time></trkpt><trkpt lat="41.2923048" lon="1.3394975"><ele>268.5</ele><time>2026-05-04T15:50:05.916Z</time></trkpt><trkpt lat="41.2922812" lon="1.3396859"><ele>268.25</ele><time>2026-05-04T15:50:06.917Z</time></trkpt><trkpt lat="41.2922615" lon="1.3398704"><ele>268.0</ele><time>2026-05-04T15:50:07.917Z</time></trkpt><trkpt lat="41.292242" lon="1.3400455"><ele>267.75</ele><time>2026-05-04T15:50:08.917Z</time></trkpt><trkpt lat="41.2922289" lon="1.340216"><ele>267.5</ele><time>2026-05-04T15:50:09.916Z</time></trkpt><trkpt lat="41.2922145" lon="1.3403866"><ele>267.25</ele><time>2026-05-04T15:50:10.917Z</time></trkpt><trkpt lat="41.2921964" lon="1.3405448"><ele>267.0</ele><time>2026-05-04T15:50:11.916Z</time></trkpt><trkpt lat="41.2921778" lon="1.3406847"><ele>267.0</ele><time>2026-05-04T15:50:12.917Z</time></trkpt><trkpt lat="41.2921593" lon="1.3408159"><ele>267.0</ele><time>2026-05-04T15:50:13.917Z</time></trkpt><trkpt lat="41.2921355" lon="1.3409425"><ele>267.0</ele><time>2026-05-04T15:50:14.917Z</time></trkpt><trkpt lat="41.292098" lon="1.3410612"><ele>267.0</ele><time>2026-05-04T15:50:15.917Z</time></trkpt><trkpt lat="41.2920443" lon="1.3411708"><ele>267.0</ele><time>2026-05-04T15:50:16.917Z</time></trkpt><trkpt lat="41.2919816" lon="1.3412596"><ele>267.0</ele><time>2026-05-04T15:50:17.917Z</time></trkpt><trkpt lat="41.2919063" lon="1.3413457"><ele>267.0</ele><time>2026-05-04T15:50:18.917Z</time></trkpt><trkpt lat="41.2918366" lon="1.3414366"><ele>267.0</ele><time>2026-05-04T15:50:19.917Z</time></trkpt><trkpt lat="41.2917805" lon="1.3415496"><ele>267.0</ele><time>2026-05-04T15:50:20.917Z</time></trkpt><trkpt lat="41.291741" lon="1.3416711"><ele>267.0</ele><time>2026-05-04T15:50:21.917Z</time></trkpt><trkpt lat="41.2917193" lon="1.3417894"><ele>267.0</ele><time>2026-05-04T15:50:22.917Z</time></trkpt><trkpt lat="41.2917188" lon="1.3419143"><ele>267.0</ele><time>2026-05-04T15:50:23.916Z</time></trkpt><trkpt lat="41.2917312" lon="1.3420468"><ele>267.0</ele><time>2026-05-04T15:50:24.917Z</time></trkpt><trkpt lat="41.2917649" lon="1.3421793"><ele>267.0</ele><time>2026-05-04T15:50:25.917Z</time></trkpt><trkpt lat="41.2918054" lon="1.3423046"><ele>267.0</ele><time>2026-05-04T15:50:26.917Z</time></trkpt><trkpt lat="41.2918397" lon="1.3424368"><ele>266.8</ele><time>2026-05-04T15:50:27.917Z</time></trkpt><trkpt lat="41.2918657" lon="1.3425765"><ele>266.6</ele><time>2026-05-04T15:50:28.917Z</time></trkpt><trkpt lat="41.2918768" lon="1.3427196"><ele>266.40000000000003</ele><time>2026-05-04T15:50:29.917Z</time></trkpt><trkpt lat="41.2918714" lon="1.3428582"><ele>266.2</ele><time>2026-05-04T15:50:30.917Z</time></trkpt><trkpt lat="41.291849" lon="1.3430013"><ele>266.0</ele><time>2026-05-04T15:50:31.917Z</time></trkpt><trkpt lat="41.2918293" lon="1.3431539"><ele>266.0</ele><time>2026-05-04T15:50:32.916Z</time></trkpt><trkpt lat="41.2918126" lon="1.3433043"><ele>266.0</ele><time>2026-05-04T15:50:33.917Z</time></trkpt><trkpt lat="41.2917937" lon="1.3434582"><ele>266.0</ele><time>2026-05-04T15:50:34.917Z</time></trkpt><trkpt lat="41.2917713" lon="1.3436158"><ele>266.0</ele><time>2026-05-04T15:50:35.917Z</time></trkpt><trkpt lat="41.2917526" lon="1.3437646"><ele>265.75</ele><time>2026-05-04T15:50:36.917Z</time></trkpt><trkpt lat="41.2917267" lon="1.3439249"><ele>265.5</ele><time>2026-05-04T15:50:37.917Z</time></trkpt><trkpt lat="41.2917037" lon="1.3440767"><ele>265.25</ele><time>2026-05-04T15:50:38.917Z</time></trkpt><trkpt lat="41.2916762" lon="1.3442307"><ele>265.0</ele><time>2026-05-04T15:50:39.917Z</time></trkpt><trkpt lat="41.2916522" lon="1.3443748"><ele>265.0</ele><time>2026-05-04T15:50:40.917Z</time></trkpt><trkpt lat="41.291636" lon="1.3445128"><ele>265.0</ele><time>2026-05-04T15:50:41.917Z</time></trkpt><trkpt lat="41.2916141" lon="1.3446615"><ele>265.0</ele><time>2026-05-04T15:50:42.916Z</time></trkpt><trkpt lat="41.2915957" lon="1.344803"><ele>265.0</ele><time>2026-05-04T15:50:43.917Z</time></trkpt><trkpt lat="41.2915761" lon="1.3449412"><ele>265.0</ele><time>2026-05-04T15:50:44.917Z</time></trkpt><trkpt lat="41.2915532" lon="1.345077"><ele>265.2</ele><time>2026-05-04T15:50:45.917Z</time></trkpt><trkpt lat="41.2915306" lon="1.3452231"><ele>265.4</ele><time>2026-05-04T15:50:46.917Z</time></trkpt><trkpt lat="41.2915097" lon="1.3453631"><ele>265.6</ele><time>2026-05-04T15:50:47.916Z</time></trkpt><trkpt lat="41.2914961" lon="1.3455006"><ele>265.8</ele><time>2026-05-04T15:50:48.917Z</time></trkpt><trkpt lat="41.2914778" lon="1.3456427"><ele>266.0</ele><time>2026-05-04T15:50:49.917Z</time></trkpt><trkpt lat="41.2914599" lon="1.3457868"><ele>266.0</ele><time>2026-05-04T15:50:50.916Z</time></trkpt><trkpt lat="41.2914396" lon="1.3459257"><ele>266.0</ele><time>2026-05-04T15:50:51.917Z</time></trkpt><trkpt lat="41.2914153" lon="1.3460699"><ele>266.0</ele><time>2026-05-04T15:50:52.916Z</time></trkpt><trkpt lat="41.2913979" lon="1.3462222"><ele>266.0</ele><time>2026-05-04T15:50:53.917Z</time></trkpt><trkpt lat="41.2913797" lon="1.3463727"><ele>266.0</ele><time>2026-05-04T15:50:54.917Z</time></trkpt><trkpt lat="41.2913422" lon="1.3465212"><ele>265.0</ele><time>2026-05-04T15:50:55.917Z</time></trkpt><trkpt lat="41.2913256" lon="1.3466677"><ele>264.0</ele><time>2026-05-04T15:50:56.917Z</time></trkpt><trkpt lat="41.2913067" lon="1.3468158"><ele>263.0</ele><time>2026-05-04T15:50:57.917Z</time></trkpt><trkpt lat="41.2912852" lon="1.3469629"><ele>262.0</ele><time>2026-05-04T15:50:58.917Z</time></trkpt><trkpt lat="41.2912668" lon="1.3471124"><ele>262.4</ele><time>2026-05-04T15:50:59.917Z</time></trkpt><trkpt lat="41.291249" lon="1.3472595"><ele>262.79999999999995</ele><time>2026-05-04T15:51:00.917Z</time></trkpt><trkpt lat="41.2912291" lon="1.347406"><ele>263.2</ele><time>2026-05-04T15:51:01.917Z</time></trkpt><trkpt lat="41.2912107" lon="1.3475519"><ele>263.59999999999997</ele><time>2026-05-04T15:51:02.918Z</time></trkpt><trkpt lat="41.2911901" lon="1.3477013"><ele>264.0</ele><time>2026-05-04T15:51:03.918Z</time></trkpt><trkpt lat="41.2911706" lon="1.3478487"><ele>264.0</ele><time>2026-05-04T15:51:04.917Z</time></trkpt><trkpt lat="41.2911495" lon="1.3479959"><ele>264.0</ele><time>2026-05-04T15:51:05.918Z</time></trkpt><trkpt lat="41.2911298" lon="1.3481435"><ele>264.0</ele><time>2026-05-04T15:51:06.917Z</time></trkpt><trkpt lat="41.2911108" lon="1.3482912"><ele>264.0</ele><time>2026-05-04T15:51:07.918Z</time></trkpt><trkpt lat="41.2910932" lon="1.3484384"><ele>263.8</ele><time>2026-05-04T15:51:08.918Z</time></trkpt><trkpt lat="41.2910744" lon="1.3485876"><ele>263.59999999999997</ele><time>2026-05-04T15:51:09.918Z</time></trkpt><trkpt lat="41.2910547" lon="1.3487223"><ele>263.4</ele><time>2026-05-04T15:51:10.918Z</time></trkpt><trkpt lat="41.2910264" lon="1.3488622"><ele>263.2</ele><time>2026-05-04T15:51:11.918Z</time></trkpt><trkpt lat="41.2909891" lon="1.3489946"><ele>263.0</ele><time>2026-05-04T15:51:12.918Z</time></trkpt><trkpt lat="41.2909384" lon="1.3491247"><ele>262.2</ele><time>2026-05-04T15:51:13.917Z</time></trkpt><trkpt lat="41.2908813" lon="1.3492344"><ele>261.4</ele><time>2026-05-04T15:51:14.918Z</time></trkpt><trkpt lat="41.290822" lon="1.3493349"><ele>260.59999999999997</ele><time>2026-05-04T15:51:15.917Z</time></trkpt><trkpt lat="41.2907687" lon="1.3494061"><ele>259.8</ele><time>2026-05-04T15:51:16.918Z</time></trkpt><trkpt lat="41.2906815" lon="1.3494853"><ele>259.0</ele><time>2026-05-04T15:51:19.917Z</time></trkpt><trkpt lat="41.2906167" lon="1.3495876"><ele>259.0</ele><time>2026-05-04T15:51:21.918Z</time></trkpt><trkpt lat="41.290538" lon="1.3496867"><ele>259.0</ele><time>2026-05-04T15:51:23.918Z</time></trkpt><trkpt lat="41.2904976" lon="1.3498336"><ele>259.0</ele><time>2026-05-04T15:51:25.917Z</time></trkpt><trkpt lat="41.2905053" lon="1.3499639"><ele>259.0</ele><time>2026-05-04T15:51:27.917Z</time></trkpt><trkpt lat="41.2905107" lon="1.3501242"><ele>259.0</ele><time>2026-05-04T15:51:29.918Z</time></trkpt><trkpt lat="41.2905225" lon="1.350239"><ele>259.0</ele><time>2026-05-04T15:51:30.918Z</time></trkpt><trkpt lat="41.2905442" lon="1.3503857"><ele>259.0</ele><time>2026-05-04T15:51:31.918Z</time></trkpt><trkpt lat="41.2905504" lon="1.3505201"><ele>259.0</ele><time>2026-05-04T15:51:32.918Z</time></trkpt><trkpt lat="41.2905428" lon="1.3506636"><ele>259.0</ele><time>2026-05-04T15:51:33.917Z</time></trkpt><trkpt lat="41.29052" lon="1.350819"><ele>259.0</ele><time>2026-05-04T15:51:34.917Z</time></trkpt><trkpt lat="41.2904706" lon="1.350953"><ele>257.59999999999997</ele><time>2026-05-04T15:51:35.918Z</time></trkpt><trkpt lat="41.290397" lon="1.351062"><ele>256.2</ele><time>2026-05-04T15:51:36.918Z</time></trkpt><trkpt lat="41.290318" lon="1.3511848"><ele>254.79999999999998</ele><time>2026-05-04T15:51:37.918Z</time></trkpt><trkpt lat="41.2902483" lon="1.3512495"><ele>253.39999999999998</ele><time>2026-05-04T15:51:38.918Z</time></trkpt><trkpt lat="41.2901737" lon="1.3513218"><ele>252.0</ele><time>2026-05-04T15:51:39.918Z</time></trkpt><trkpt lat="41.2901055" lon="1.3513616"><ele>251.0</ele><time>2026-05-04T15:51:40.918Z</time></trkpt><trkpt lat="41.2900197" lon="1.3514194"><ele>250.0</ele><time>2026-05-04T15:51:41.918Z</time></trkpt><trkpt lat="41.2899377" lon="1.3514861"><ele>249.0</ele><time>2026-05-04T15:51:42.918Z</time></trkpt><trkpt lat="41.2898589" lon="1.351565"><ele>248.0</ele><time>2026-05-04T15:51:43.918Z</time></trkpt><trkpt lat="41.2897848" lon="1.351652"><ele>247.0</ele><time>2026-05-04T15:51:44.917Z</time></trkpt><trkpt lat="41.2897125" lon="1.3517484"><ele>246.8</ele><time>2026-05-04T15:51:45.918Z</time></trkpt><trkpt lat="41.2896388" lon="1.3518442"><ele>246.6</ele><time>2026-05-04T15:51:46.918Z</time></trkpt><trkpt lat="41.2895661" lon="1.3519407"><ele>246.40000000000003</ele><time>2026-05-04T15:51:47.918Z</time></trkpt><trkpt lat="41.28949" lon="1.35204"><ele>246.20000000000002</ele><time>2026-05-04T15:51:48.918Z</time></trkpt><trkpt lat="41.2894185" lon="1.3521362"><ele>246.0</ele><time>2026-05-04T15:51:49.918Z</time></trkpt><trkpt lat="41.2893449" lon="1.3522342"><ele>244.8</ele><time>2026-05-04T15:51:50.917Z</time></trkpt><trkpt lat="41.289267" lon="1.3523325"><ele>243.60000000000002</ele><time>2026-05-04T15:51:51.918Z</time></trkpt><trkpt lat="41.2891909" lon="1.3524348"><ele>242.4</ele><time>2026-05-04T15:51:52.918Z</time></trkpt><trkpt lat="41.2891109" lon="1.3525397"><ele>241.2</ele><time>2026-05-04T15:51:53.918Z</time></trkpt><trkpt lat="41.289033" lon="1.3526436"><ele>240.0</ele><time>2026-05-04T15:51:54.917Z</time></trkpt><trkpt lat="41.28896" lon="1.3527464"><ele>240.0</ele><time>2026-05-04T15:51:55.918Z</time></trkpt><trkpt lat="41.2888773" lon="1.3528518"><ele>240.0</ele><time>2026-05-04T15:51:56.918Z</time></trkpt><trkpt lat="41.2887963" lon="1.3529604"><ele>240.0</ele><time>2026-05-04T15:51:57.917Z</time></trkpt><trkpt lat="41.2887149" lon="1.3530667"><ele>240.0</ele><time>2026-05-04T15:51:58.918Z</time></trkpt><trkpt lat="41.2886328" lon="1.3531759"><ele>239.25</ele><time>2026-05-04T15:51:59.918Z</time></trkpt><trkpt lat="41.2885506" lon="1.3532881"><ele>238.5</ele><time>2026-05-04T15:52:00.918Z</time></trkpt><trkpt lat="41.2884683" lon="1.3533991"><ele>237.75</ele><time>2026-05-04T15:52:01.918Z</time></trkpt><trkpt lat="41.288385" lon="1.3535148"><ele>237.0</ele><time>2026-05-04T15:52:02.918Z</time></trkpt><trkpt lat="41.2883075" lon="1.3536275"><ele>237.0</ele><time>2026-05-04T15:52:03.918Z</time></trkpt><trkpt lat="41.2882286" lon="1.3537418"><ele>237.0</ele><time>2026-05-04T15:52:04.918Z</time></trkpt><trkpt lat="41.2881481" lon="1.3538577"><ele>237.0</ele><time>2026-05-04T15:52:05.918Z</time></trkpt><trkpt lat="41.2880598" lon="1.3539769"><ele>237.0</ele><time>2026-05-04T15:52:06.918Z</time></trkpt><trkpt lat="41.2879707" lon="1.3540938"><ele>236.0</ele><time>2026-05-04T15:52:07.918Z</time></trkpt><trkpt lat="41.2878839" lon="1.3542079"><ele>235.0</ele><time>2026-05-04T15:52:08.918Z</time></trkpt><trkpt lat="41.2877996" lon="1.3543275"><ele>234.0</ele><time>2026-05-04T15:52:09.917Z</time></trkpt><trkpt lat="41.2877095" lon="1.3544542"><ele>233.0</ele><time>2026-05-04T15:52:10.918Z</time></trkpt><trkpt lat="41.2876163" lon="1.3545767"><ele>232.75</ele><time>2026-05-04T15:52:11.918Z</time></trkpt><trkpt lat="41.2875206" lon="1.3547063"><ele>232.5</ele><time>2026-05-04T15:52:12.918Z</time></trkpt><trkpt lat="41.2874272" lon="1.3548357"><ele>232.25</ele><time>2026-05-04T15:52:13.917Z</time></trkpt><trkpt lat="41.2873306" lon="1.3549662"><ele>232.0</ele><time>2026-05-04T15:52:14.918Z</time></trkpt><trkpt lat="41.2872344" lon="1.3550973"><ele>231.75</ele><time>2026-05-04T15:52:15.918Z</time></trkpt><trkpt lat="41.2871354" lon="1.3552289"><ele>231.5</ele><time>2026-05-04T15:52:16.918Z</time></trkpt><trkpt lat="41.2870469" lon="1.3553603"><ele>231.25</ele><time>2026-05-04T15:52:17.918Z</time></trkpt><trkpt lat="41.2869497" lon="1.3554915"><ele>231.0</ele><time>2026-05-04T15:52:18.918Z</time></trkpt><trkpt lat="41.2868582" lon="1.3556205"><ele>230.5</ele><time>2026-05-04T15:52:19.918Z</time></trkpt><trkpt lat="41.2867635" lon="1.3557501"><ele>230.0</ele><time>2026-05-04T15:52:20.918Z</time></trkpt><trkpt lat="41.2866723" lon="1.3558893"><ele>229.5</ele><time>2026-05-04T15:52:21.918Z</time></trkpt><trkpt lat="41.2865883" lon="1.3560289"><ele>229.0</ele><time>2026-05-04T15:52:22.918Z</time></trkpt><trkpt lat="41.2865083" lon="1.3561766"><ele>229.0</ele><time>2026-05-04T15:52:23.918Z</time></trkpt><trkpt lat="41.2864361" lon="1.3563307"><ele>229.0</ele><time>2026-05-04T15:52:24.918Z</time></trkpt><trkpt lat="41.2863672" lon="1.3564831"><ele>229.0</ele><time>2026-05-04T15:52:25.918Z</time></trkpt><trkpt lat="41.2863054" lon="1.3566415"><ele>229.0</ele><time>2026-05-04T15:52:26.918Z</time></trkpt><trkpt lat="41.2862489" lon="1.3568051"><ele>228.25</ele><time>2026-05-04T15:52:27.918Z</time></trkpt><trkpt lat="41.2861949" lon="1.3569724"><ele>227.5</ele><time>2026-05-04T15:52:28.918Z</time></trkpt><trkpt lat="41.2861411" lon="1.3571413"><ele>226.75</ele><time>2026-05-04T15:52:29.917Z</time></trkpt><trkpt lat="41.2860897" lon="1.3573097"><ele>226.0</ele><time>2026-05-04T15:52:30.918Z</time></trkpt><trkpt lat="41.2860404" lon="1.3574794"><ele>225.0</ele><time>2026-05-04T15:52:31.918Z</time></trkpt><trkpt lat="41.2859895" lon="1.3576461"><ele>224.0</ele><time>2026-05-04T15:52:32.917Z</time></trkpt><trkpt lat="41.2859419" lon="1.3578097"><ele>223.0</ele><time>2026-05-04T15:52:33.918Z</time></trkpt><trkpt lat="41.2858947" lon="1.3579764"><ele>222.0</ele><time>2026-05-04T15:52:34.917Z</time></trkpt><trkpt lat="41.2858493" lon="1.3581416"><ele>221.75</ele><time>2026-05-04T15:52:35.918Z</time></trkpt><trkpt lat="41.2858035" lon="1.3583036"><ele>221.5</ele><time>2026-05-04T15:52:36.918Z</time></trkpt><trkpt lat="41.2857589" lon="1.3584618"><ele>221.25</ele><time>2026-05-04T15:52:37.918Z</time></trkpt><trkpt lat="41.285713" lon="1.3586159"><ele>221.0</ele><time>2026-05-04T15:52:38.918Z</time></trkpt><trkpt lat="41.2856669" lon="1.3587716"><ele>221.0</ele><time>2026-05-04T15:52:39.918Z</time></trkpt><trkpt lat="41.2856174" lon="1.3589307"><ele>221.0</ele><time>2026-05-04T15:52:40.918Z</time></trkpt><trkpt lat="41.2855717" lon="1.3590891"><ele>221.0</ele><time>2026-05-04T15:52:41.917Z</time></trkpt><trkpt lat="41.2855252" lon="1.3592481"><ele>221.0</ele><time>2026-05-04T15:52:42.918Z</time></trkpt><trkpt lat="41.2854764" lon="1.3594151"><ele>221.0</ele><time>2026-05-04T15:52:43.918Z</time></trkpt><trkpt lat="41.2854281" lon="1.359583"><ele>221.0</ele><time>2026-05-04T15:52:44.918Z</time></trkpt><trkpt lat="41.2853787" lon="1.3597568"><ele>221.0</ele><time>2026-05-04T15:52:45.918Z</time></trkpt><trkpt lat="41.2853297" lon="1.3599278"><ele>221.0</ele><time>2026-05-04T15:52:46.918Z</time></trkpt><trkpt lat="41.2852815" lon="1.3601011"><ele>221.25</ele><time>2026-05-04T15:52:47.918Z</time></trkpt><trkpt lat="41.2852337" lon="1.3602787"><ele>221.5</ele><time>2026-05-04T15:52:48.918Z</time></trkpt><trkpt lat="41.2851886" lon="1.3604574"><ele>221.75</ele><time>2026-05-04T15:52:49.918Z</time></trkpt><trkpt lat="41.2851448" lon="1.3606341"><ele>222.0</ele><time>2026-05-04T15:52:50.918Z</time></trkpt><trkpt lat="41.2851112" lon="1.3608147"><ele>222.5</ele><time>2026-05-04T15:52:51.918Z</time></trkpt><trkpt lat="41.2850831" lon="1.3609889"><ele>223.0</ele><time>2026-05-04T15:52:52.918Z</time></trkpt><trkpt lat="41.2850787" lon="1.3611772"><ele>223.5</ele><time>2026-05-04T15:52:53.918Z</time></trkpt><trkpt lat="41.2850916" lon="1.3613782"><ele>224.0</ele><time>2026-05-04T15:52:54.918Z</time></trkpt><trkpt lat="41.2850996" lon="1.3615585"><ele>224.0</ele><time>2026-05-04T15:52:55.918Z</time></trkpt><trkpt lat="41.2851113" lon="1.3617407"><ele>224.0</ele><time>2026-05-04T15:52:56.918Z</time></trkpt><trkpt lat="41.2851292" lon="1.3619323"><ele>224.0</ele><time>2026-05-04T15:52:57.918Z</time></trkpt><trkpt lat="41.2851492" lon="1.3621268"><ele>224.0</ele><time>2026-05-04T15:52:58.917Z</time></trkpt><trkpt lat="41.2851619" lon="1.3623038"><ele>224.5</ele><time>2026-05-04T15:52:59.918Z</time></trkpt><trkpt lat="41.2851693" lon="1.3624725"><ele>225.0</ele><time>2026-05-04T15:53:00.918Z</time></trkpt><trkpt lat="41.2851805" lon="1.3626414"><ele>225.5</ele><time>2026-05-04T15:53:01.918Z</time></trkpt><trkpt lat="41.2851947" lon="1.362816"><ele>226.0</ele><time>2026-05-04T15:53:02.918Z</time></trkpt><trkpt lat="41.2852077" lon="1.3629909"><ele>226.75</ele><time>2026-05-04T15:53:03.917Z</time></trkpt><trkpt lat="41.2852235" lon="1.3631653"><ele>227.5</ele><time>2026-05-04T15:53:04.918Z</time></trkpt><trkpt lat="41.2852403" lon="1.3633404"><ele>228.25</ele><time>2026-05-04T15:53:05.918Z</time></trkpt><trkpt lat="41.2852573" lon="1.3635121"><ele>229.0</ele><time>2026-05-04T15:53:06.917Z</time></trkpt><trkpt lat="41.2852725" lon="1.3636857"><ele>229.0</ele><time>2026-05-04T15:53:07.917Z</time></trkpt><trkpt lat="41.2852874" lon="1.3638564"><ele>229.0</ele><time>2026-05-04T15:53:08.918Z</time></trkpt><trkpt lat="41.2853011" lon="1.3640257"><ele>229.0</ele><time>2026-05-04T15:53:09.918Z</time></trkpt><trkpt lat="41.2853224" lon="1.3641953"><ele>229.0</ele><time>2026-05-04T15:53:10.918Z</time></trkpt><trkpt lat="41.2853402" lon="1.3643608"><ele>229.75</ele><time>2026-05-04T15:53:11.918Z</time></trkpt><trkpt lat="41.2853649" lon="1.3645212"><ele>230.5</ele><time>2026-05-04T15:53:12.918Z</time></trkpt><trkpt lat="41.2853966" lon="1.364676"><ele>231.25</ele><time>2026-05-04T15:53:13.917Z</time></trkpt><trkpt lat="41.2854328" lon="1.3648302"><ele>232.0</ele><time>2026-05-04T15:53:14.918Z</time></trkpt><trkpt lat="41.285477" lon="1.3649757"><ele>232.75</ele><time>2026-05-04T15:53:15.918Z</time></trkpt><trkpt lat="41.2855283" lon="1.3651183"><ele>233.5</ele><time>2026-05-04T15:53:16.917Z</time></trkpt><trkpt lat="41.2855872" lon="1.365257"><ele>234.25</ele><time>2026-05-04T15:53:17.918Z</time></trkpt><trkpt lat="41.2856501" lon="1.3653875"><ele>235.0</ele><time>2026-05-04T15:53:18.918Z</time></trkpt><trkpt lat="41.2857192" lon="1.3655134"><ele>237.25</ele><time>2026-05-04T15:53:19.918Z</time></trkpt><trkpt lat="41.2857941" lon="1.3656341"><ele>239.5</ele><time>2026-05-04T15:53:20.918Z</time></trkpt><trkpt lat="41.2858764" lon="1.3657447"><ele>241.75</ele><time>2026-05-04T15:53:21.918Z</time></trkpt><trkpt lat="41.2859639" lon="1.365849"><ele>244.0</ele><time>2026-05-04T15:53:22.918Z</time></trkpt><trkpt lat="41.2860525" lon="1.3659498"><ele>244.0</ele><time>2026-05-04T15:53:23.917Z</time></trkpt><trkpt lat="41.2861469" lon="1.3660506"><ele>244.0</ele><time>2026-05-04T15:53:24.918Z</time></trkpt><trkpt lat="41.2862456" lon="1.36615"><ele>244.0</ele><time>2026-05-04T15:53:25.918Z</time></trkpt><trkpt lat="41.2863404" lon="1.3662496"><ele>244.0</ele><time>2026-05-04T15:53:26.917Z</time></trkpt><trkpt lat="41.2864236" lon="1.3663432"><ele>246.0</ele><time>2026-05-04T15:53:27.918Z</time></trkpt><trkpt lat="41.2865089" lon="1.366436"><ele>247.99999999999997</ele><time>2026-05-04T15:53:28.918Z</time></trkpt><trkpt lat="41.2865891" lon="1.3665209"><ele>249.99999999999997</ele><time>2026-05-04T15:53:29.917Z</time></trkpt><trkpt lat="41.2866726" lon="1.3666101"><ele>252.0</ele><time>2026-05-04T15:53:30.918Z</time></trkpt><trkpt lat="41.2867537" lon="1.3666983"><ele>254.0</ele><time>2026-05-04T15:53:31.917Z</time></trkpt><trkpt lat="41.2868354" lon="1.3667858"><ele>254.0</ele><time>2026-05-04T15:53:32.919Z</time></trkpt><trkpt lat="41.2869163" lon="1.3668742"><ele>253.99999999999997</ele><time>2026-05-04T15:53:33.918Z</time></trkpt><trkpt lat="41.2869922" lon="1.3669604"><ele>253.99999999999997</ele><time>2026-05-04T15:53:34.919Z</time></trkpt><trkpt lat="41.2870686" lon="1.3670467"><ele>254.0</ele><time>2026-05-04T15:53:35.919Z</time></trkpt><trkpt lat="41.2871472" lon="1.3671286"><ele>254.0</ele><time>2026-05-04T15:53:36.918Z</time></trkpt><trkpt lat="41.2872262" lon="1.3672094"><ele>254.6</ele><time>2026-05-04T15:53:37.919Z</time></trkpt><trkpt lat="41.2873056" lon="1.3672937"><ele>255.2</ele><time>2026-05-04T15:53:38.919Z</time></trkpt><trkpt lat="41.2873822" lon="1.3673776"><ele>255.79999999999998</ele><time>2026-05-04T15:53:39.919Z</time></trkpt><trkpt lat="41.2874629" lon="1.367456"><ele>256.4</ele><time>2026-05-04T15:53:40.918Z</time></trkpt><trkpt lat="41.2875456" lon="1.3675324"><ele>257.0</ele><time>2026-05-04T15:53:41.918Z</time></trkpt><trkpt lat="41.2876278" lon="1.3676048"><ele>257.0</ele><time>2026-05-04T15:53:42.919Z</time></trkpt><trkpt lat="41.2877172" lon="1.367672"><ele>257.0</ele><time>2026-05-04T15:53:43.919Z</time></trkpt><trkpt lat="41.2878059" lon="1.3677355"><ele>257.0</ele><time>2026-05-04T15:53:44.919Z</time></trkpt><trkpt lat="41.2878963" lon="1.3677971"><ele>257.0</ele><time>2026-05-04T15:53:45.919Z</time></trkpt><trkpt lat="41.2879891" lon="1.3678532"><ele>257.0</ele><time>2026-05-04T15:53:46.919Z</time></trkpt><trkpt lat="41.2880837" lon="1.3679042"><ele>258.0</ele><time>2026-05-04T15:53:47.918Z</time></trkpt><trkpt lat="41.2881798" lon="1.3679519"><ele>259.0</ele><time>2026-05-04T15:53:48.919Z</time></trkpt><trkpt lat="41.2882764" lon="1.3679984"><ele>260.0</ele><time>2026-05-04T15:53:49.918Z</time></trkpt><trkpt lat="41.2883764" lon="1.3680392"><ele>261.0</ele><time>2026-05-04T15:53:50.919Z</time></trkpt><trkpt lat="41.2884766" lon="1.3680771"><ele>262.0</ele><time>2026-05-04T15:53:51.919Z</time></trkpt><trkpt lat="41.2885781" lon="1.3681133"><ele>262.8</ele><time>2026-05-04T15:53:52.919Z</time></trkpt><trkpt lat="41.2886792" lon="1.3681501"><ele>263.6</ele><time>2026-05-04T15:53:53.919Z</time></trkpt><trkpt lat="41.2887816" lon="1.368186"><ele>264.40000000000003</ele><time>2026-05-04T15:53:54.919Z</time></trkpt><trkpt lat="41.2888816" lon="1.3682206"><ele>265.2</ele><time>2026-05-04T15:53:55.919Z</time></trkpt><trkpt lat="41.2889834" lon="1.3682607"><ele>266.0</ele><time>2026-05-04T15:53:56.919Z</time></trkpt><trkpt lat="41.2890845" lon="1.3683054"><ele>266.6</ele><time>2026-05-04T15:53:57.919Z</time></trkpt><trkpt lat="41.2891833" lon="1.3683516"><ele>267.20000000000005</ele><time>2026-05-04T15:53:58.918Z</time></trkpt><trkpt lat="41.2892851" lon="1.3684043"><ele>267.79999999999995</ele><time>2026-05-04T15:53:59.919Z</time></trkpt><trkpt lat="41.2893797" lon="1.3684623"><ele>268.4</ele><time>2026-05-04T15:54:00.919Z</time></trkpt><trkpt lat="41.2894748" lon="1.3685299"><ele>269.0</ele><time>2026-05-04T15:54:01.919Z</time></trkpt><trkpt lat="41.2895674" lon="1.3686028"><ele>269.0</ele><time>2026-05-04T15:54:02.919Z</time></trkpt><trkpt lat="41.2896557" lon="1.3686792"><ele>269.0</ele><time>2026-05-04T15:54:03.919Z</time></trkpt><trkpt lat="41.2897438" lon="1.3687659"><ele>269.0</ele><time>2026-05-04T15:54:04.918Z</time></trkpt><trkpt lat="41.2898269" lon="1.3688606"><ele>269.0</ele><time>2026-05-04T15:54:05.919Z</time></trkpt><trkpt lat="41.2899046" lon="1.3689557"><ele>269.0</ele><time>2026-05-04T15:54:06.919Z</time></trkpt><trkpt lat="41.2899784" lon="1.3690628"><ele>269.59999999999997</ele><time>2026-05-04T15:54:07.919Z</time></trkpt><trkpt lat="41.2900491" lon="1.3691759"><ele>270.2</ele><time>2026-05-04T15:54:08.919Z</time></trkpt><trkpt lat="41.2901171" lon="1.3692947"><ele>270.79999999999995</ele><time>2026-05-04T15:54:09.919Z</time></trkpt><trkpt lat="41.2901808" lon="1.3694166"><ele>271.4</ele><time>2026-05-04T15:54:10.919Z</time></trkpt><trkpt lat="41.2902374" lon="1.3695444"><ele>272.0</ele><time>2026-05-04T15:54:11.919Z</time></trkpt><trkpt lat="41.2902882" lon="1.3696768"><ele>273.75</ele><time>2026-05-04T15:54:12.919Z</time></trkpt><trkpt lat="41.2903331" lon="1.3698162"><ele>275.5</ele><time>2026-05-04T15:54:13.919Z</time></trkpt><trkpt lat="41.2903764" lon="1.3699601"><ele>277.25</ele><time>2026-05-04T15:54:14.919Z</time></trkpt><trkpt lat="41.2904124" lon="1.3701047"><ele>279.0</ele><time>2026-05-04T15:54:15.919Z</time></trkpt><trkpt lat="41.2904422" lon="1.3702537"><ele>279.0</ele><time>2026-05-04T15:54:16.919Z</time></trkpt><trkpt lat="41.2904672" lon="1.3704042"><ele>279.0</ele><time>2026-05-04T15:54:17.919Z</time></trkpt><trkpt lat="41.2904958" lon="1.3705583"><ele>279.0</ele><time>2026-05-04T15:54:18.919Z</time></trkpt><trkpt lat="41.2905281" lon="1.3707106"><ele>279.0</ele><time>2026-05-04T15:54:19.919Z</time></trkpt><trkpt lat="41.2905559" lon="1.3708637"><ele>279.75</ele><time>2026-05-04T15:54:20.919Z</time></trkpt><trkpt lat="41.2905829" lon="1.3710182"><ele>280.5</ele><time>2026-05-04T15:54:21.918Z</time></trkpt><trkpt lat="41.2906093" lon="1.3711734"><ele>281.25</ele><time>2026-05-04T15:54:22.919Z</time></trkpt><trkpt lat="41.2906376" lon="1.3713283"><ele>282.0</ele><time>2026-05-04T15:54:23.918Z</time></trkpt><trkpt lat="41.2906635" lon="1.3714843"><ele>282.0</ele><time>2026-05-04T15:54:24.918Z</time></trkpt><trkpt lat="41.2906916" lon="1.371638"><ele>282.0</ele><time>2026-05-04T15:54:25.919Z</time></trkpt><trkpt lat="41.2907196" lon="1.3717918"><ele>282.0</ele><time>2026-05-04T15:54:26.919Z</time></trkpt><trkpt lat="41.2907436" lon="1.3719472"><ele>282.0</ele><time>2026-05-04T15:54:27.919Z</time></trkpt><trkpt lat="41.290769" lon="1.3721041"><ele>282.25</ele><time>2026-05-04T15:54:28.919Z</time></trkpt><trkpt lat="41.2907943" lon="1.3722637"><ele>282.5</ele><time>2026-05-04T15:54:29.919Z</time></trkpt><trkpt lat="41.2908216" lon="1.3724256"><ele>282.75</ele><time>2026-05-04T15:54:30.918Z</time></trkpt><trkpt lat="41.2908525" lon="1.3725853"><ele>283.0</ele><time>2026-05-04T15:54:31.919Z</time></trkpt><trkpt lat="41.290886" lon="1.3727451"><ele>283.0</ele><time>2026-05-04T15:54:32.919Z</time></trkpt><trkpt lat="41.2909226" lon="1.3729058"><ele>283.0</ele><time>2026-05-04T15:54:33.919Z</time></trkpt><trkpt lat="41.2909591" lon="1.3730658"><ele>283.0</ele><time>2026-05-04T15:54:34.919Z</time></trkpt><trkpt lat="41.2909922" lon="1.3732175"><ele>283.0</ele><time>2026-05-04T15:54:35.918Z</time></trkpt><trkpt lat="41.2910275" lon="1.3733737"><ele>283.0</ele><time>2026-05-04T15:54:36.919Z</time></trkpt><trkpt lat="41.2910653" lon="1.3735291"><ele>283.0</ele><time>2026-05-04T15:54:37.919Z</time></trkpt><trkpt lat="41.2911014" lon="1.3736859"><ele>283.0</ele><time>2026-05-04T15:54:38.919Z</time></trkpt><trkpt lat="41.2911401" lon="1.3738407"><ele>283.0</ele><time>2026-05-04T15:54:39.919Z</time></trkpt><trkpt lat="41.2911752" lon="1.3739974"><ele>282.5</ele><time>2026-05-04T15:54:40.919Z</time></trkpt><trkpt lat="41.2912124" lon="1.3741533"><ele>282.0</ele><time>2026-05-04T15:54:41.919Z</time></trkpt><trkpt lat="41.291249" lon="1.3743087"><ele>281.5</ele><time>2026-05-04T15:54:42.919Z</time></trkpt><trkpt lat="41.2912855" lon="1.3744656"><ele>281.0</ele><time>2026-05-04T15:54:43.919Z</time></trkpt><trkpt lat="41.2913207" lon="1.3746211"><ele>280.75</ele><time>2026-05-04T15:54:44.919Z</time></trkpt><trkpt lat="41.2913542" lon="1.3747767"><ele>280.5</ele><time>2026-05-04T15:54:45.919Z</time></trkpt><trkpt lat="41.2913814" lon="1.3749323"><ele>280.25</ele><time>2026-05-04T15:54:46.919Z</time></trkpt><trkpt lat="41.2914087" lon="1.3750935"><ele>280.0</ele><time>2026-05-04T15:54:47.919Z</time></trkpt><trkpt lat="41.2914354" lon="1.3752558"><ele>281.5</ele><time>2026-05-04T15:54:48.919Z</time></trkpt><trkpt lat="41.2914648" lon="1.3754152"><ele>283.0</ele><time>2026-05-04T15:54:49.919Z</time></trkpt><trkpt lat="41.2914926" lon="1.3755746"><ele>284.5</ele><time>2026-05-04T15:54:50.919Z</time></trkpt><trkpt lat="41.2915222" lon="1.3757334"><ele>286.0</ele><time>2026-05-04T15:54:51.919Z</time></trkpt><trkpt lat="41.2915486" lon="1.375895"><ele>286.25</ele><time>2026-05-04T15:54:52.918Z</time></trkpt><trkpt lat="41.2915755" lon="1.3760607"><ele>286.5</ele><time>2026-05-04T15:54:53.919Z</time></trkpt><trkpt lat="41.2916036" lon="1.3762262"><ele>286.75</ele><time>2026-05-04T15:54:54.919Z</time></trkpt><trkpt lat="41.2916316" lon="1.3763941"><ele>287.0</ele><time>2026-05-04T15:54:55.919Z</time></trkpt><trkpt lat="41.2916611" lon="1.3765641"><ele>287.0</ele><time>2026-05-04T15:54:56.919Z</time></trkpt><trkpt lat="41.2916871" lon="1.3767376"><ele>287.0</ele><time>2026-05-04T15:54:57.918Z</time></trkpt><trkpt lat="41.2917116" lon="1.3769154"><ele>287.0</ele><time>2026-05-04T15:54:58.919Z</time></trkpt><trkpt lat="41.2917361" lon="1.3770967"><ele>287.0</ele><time>2026-05-04T15:54:59.919Z</time></trkpt><trkpt lat="41.2917544" lon="1.3772753"><ele>287.0</ele><time>2026-05-04T15:55:00.919Z</time></trkpt><trkpt lat="41.2917738" lon="1.3774594"><ele>287.0</ele><time>2026-05-04T15:55:01.919Z</time></trkpt><trkpt lat="41.2917884" lon="1.3776446"><ele>287.0</ele><time>2026-05-04T15:55:02.919Z</time></trkpt><trkpt lat="41.2917981" lon="1.377834"><ele>287.0</ele><time>2026-05-04T15:55:03.918Z</time></trkpt><trkpt lat="41.2917998" lon="1.3780178"><ele>287.0</ele><time>2026-05-04T15:55:04.919Z</time></trkpt><trkpt lat="41.2917958" lon="1.3782038"><ele>287.0</ele><time>2026-05-04T15:55:05.919Z</time></trkpt><trkpt lat="41.2917853" lon="1.3783865"><ele>287.0</ele><time>2026-05-04T15:55:06.919Z</time></trkpt><trkpt lat="41.2917697" lon="1.3785735"><ele>287.0</ele><time>2026-05-04T15:55:07.919Z</time></trkpt><trkpt lat="41.291749" lon="1.3787511"><ele>286.75</ele><time>2026-05-04T15:55:08.919Z</time></trkpt><trkpt lat="41.2917214" lon="1.3789295"><ele>286.5</ele><time>2026-05-04T15:55:09.919Z</time></trkpt><trkpt lat="41.2916877" lon="1.3791022"><ele>286.25</ele><time>2026-05-04T15:55:10.919Z</time></trkpt><trkpt lat="41.2916504" lon="1.379272"><ele>286.0</ele><time>2026-05-04T15:55:11.919Z</time></trkpt><trkpt lat="41.2916043" lon="1.3794366"><ele>286.0</ele><time>2026-05-04T15:55:12.919Z</time></trkpt><trkpt lat="41.2915557" lon="1.3796007"><ele>286.0</ele><time>2026-05-04T15:55:13.919Z</time></trkpt><trkpt lat="41.2915067" lon="1.3797628"><ele>286.0</ele><time>2026-05-04T15:55:14.919Z</time></trkpt><trkpt lat="41.2914576" lon="1.3799261"><ele>286.0</ele><time>2026-05-04T15:55:15.919Z</time></trkpt><trkpt lat="41.2914088" lon="1.3800872"><ele>287.5</ele><time>2026-05-04T15:55:16.919Z</time></trkpt><trkpt lat="41.2913609" lon="1.3802482"><ele>289.0</ele><time>2026-05-04T15:55:17.919Z</time></trkpt><trkpt lat="41.2913137" lon="1.3804031"><ele>290.5</ele><time>2026-05-04T15:55:18.919Z</time></trkpt><trkpt lat="41.2912725" lon="1.380555"><ele>292.0</ele><time>2026-05-04T15:55:19.919Z</time></trkpt><trkpt lat="41.2912261" lon="1.3807045"><ele>293.0</ele><time>2026-05-04T15:55:20.919Z</time></trkpt><trkpt lat="41.2911814" lon="1.3808552"><ele>294.0</ele><time>2026-05-04T15:55:21.919Z</time></trkpt><trkpt lat="41.2911386" lon="1.3810036"><ele>295.0</ele><time>2026-05-04T15:55:22.918Z</time></trkpt><trkpt lat="41.2910958" lon="1.3811499"><ele>296.0</ele><time>2026-05-04T15:55:23.919Z</time></trkpt><trkpt lat="41.2910503" lon="1.3812939"><ele>297.25</ele><time>2026-05-04T15:55:24.918Z</time></trkpt><trkpt lat="41.2910073" lon="1.3814386"><ele>298.5</ele><time>2026-05-04T15:55:25.919Z</time></trkpt><trkpt lat="41.2909657" lon="1.3815825"><ele>299.75</ele><time>2026-05-04T15:55:26.919Z</time></trkpt><trkpt lat="41.2909231" lon="1.3817236"><ele>301.0</ele><time>2026-05-04T15:55:27.919Z</time></trkpt><trkpt lat="41.2908805" lon="1.3818669"><ele>301.0</ele><time>2026-05-04T15:55:28.919Z</time></trkpt><trkpt lat="41.2908376" lon="1.3820083"><ele>301.0</ele><time>2026-05-04T15:55:29.918Z</time></trkpt><trkpt lat="41.290795" lon="1.3821441"><ele>301.0</ele><time>2026-05-04T15:55:30.919Z</time></trkpt><trkpt lat="41.2907509" lon="1.3822814"><ele>301.0</ele><time>2026-05-04T15:55:31.918Z</time></trkpt><trkpt lat="41.2907095" lon="1.3824185"><ele>301.0</ele><time>2026-05-04T15:55:32.919Z</time></trkpt><trkpt lat="41.2906681" lon="1.3825568"><ele>301.8</ele><time>2026-05-04T15:55:33.918Z</time></trkpt><trkpt lat="41.2906288" lon="1.3826937"><ele>302.6</ele><time>2026-05-04T15:55:34.919Z</time></trkpt><trkpt lat="41.2905877" lon="1.3828291"><ele>303.4</ele><time>2026-05-04T15:55:35.919Z</time></trkpt><trkpt lat="41.2905461" lon="1.3829647"><ele>304.2</ele><time>2026-05-04T15:55:36.919Z</time></trkpt><trkpt lat="41.2905038" lon="1.3831039"><ele>305.0</ele><time>2026-05-04T15:55:37.919Z</time></trkpt><trkpt lat="41.2904621" lon="1.3832439"><ele>306.5</ele><time>2026-05-04T15:55:38.919Z</time></trkpt><trkpt lat="41.2904176" lon="1.3833828"><ele>308.0</ele><time>2026-05-04T15:55:39.918Z</time></trkpt><trkpt lat="41.2903742" lon="1.3835285"><ele>309.5</ele><time>2026-05-04T15:55:40.919Z</time></trkpt><trkpt lat="41.2903328" lon="1.3836732"><ele>311.0</ele><time>2026-05-04T15:55:41.919Z</time></trkpt><trkpt lat="41.290289" lon="1.3838197"><ele>310.5</ele><time>2026-05-04T15:55:42.919Z</time></trkpt><trkpt lat="41.2902463" lon="1.3839701"><ele>310.0</ele><time>2026-05-04T15:55:43.919Z</time></trkpt><trkpt lat="41.2902028" lon="1.3841233"><ele>309.5</ele><time>2026-05-04T15:55:44.919Z</time></trkpt><trkpt lat="41.2901598" lon="1.3842758"><ele>309.0</ele><time>2026-05-04T15:55:45.919Z</time></trkpt><trkpt lat="41.2901163" lon="1.3844286"><ele>309.0</ele><time>2026-05-04T15:55:46.919Z</time></trkpt><trkpt lat="41.2900727" lon="1.384582"><ele>309.0</ele><time>2026-05-04T15:55:47.919Z</time></trkpt><trkpt lat="41.2900267" lon="1.3847333"><ele>309.0</ele><time>2026-05-04T15:55:48.919Z</time></trkpt><trkpt lat="41.2899796" lon="1.3848894"><ele>309.0</ele><time>2026-05-04T15:55:49.918Z</time></trkpt><trkpt lat="41.2899332" lon="1.3850452"><ele>309.25</ele><time>2026-05-04T15:55:50.919Z</time></trkpt><trkpt lat="41.2898871" lon="1.3852037"><ele>309.5</ele><time>2026-05-04T15:55:51.919Z</time></trkpt><trkpt lat="41.2898415" lon="1.3853599"><ele>309.75</ele><time>2026-05-04T15:55:52.919Z</time></trkpt><trkpt lat="41.289792" lon="1.3855187"><ele>310.0</ele><time>2026-05-04T15:55:53.918Z</time></trkpt><trkpt lat="41.2897455" lon="1.3856773"><ele>309.5</ele><time>2026-05-04T15:55:54.918Z</time></trkpt><trkpt lat="41.2896982" lon="1.3858358"><ele>309.0</ele><time>2026-05-04T15:55:55.918Z</time></trkpt><trkpt lat="41.2896532" lon="1.385996"><ele>308.5</ele><time>2026-05-04T15:55:56.919Z</time></trkpt><trkpt lat="41.2896102" lon="1.3861497"><ele>308.0</ele><time>2026-05-04T15:55:57.919Z</time></trkpt><trkpt lat="41.2895653" lon="1.3862982"><ele>307.75</ele><time>2026-05-04T15:55:58.919Z</time></trkpt><trkpt lat="41.2895197" lon="1.3864451"><ele>307.5</ele><time>2026-05-04T15:55:59.918Z</time></trkpt><trkpt lat="41.289476" lon="1.3865901"><ele>307.25</ele><time>2026-05-04T15:56:00.919Z</time></trkpt><trkpt lat="41.2894367" lon="1.3867381"><ele>307.0</ele><time>2026-05-04T15:56:01.919Z</time></trkpt><trkpt lat="41.2893956" lon="1.3868817"><ele>307.0</ele><time>2026-05-04T15:56:02.919Z</time></trkpt><trkpt lat="41.289356" lon="1.3870279"><ele>307.0</ele><time>2026-05-04T15:56:03.92Z</time></trkpt><trkpt lat="41.2893166" lon="1.387174"><ele>307.0</ele><time>2026-05-04T15:56:04.92Z</time></trkpt><trkpt lat="41.2892788" lon="1.3873229"><ele>307.0</ele><time>2026-05-04T15:56:05.92Z</time></trkpt><trkpt lat="41.2892435" lon="1.3874713"><ele>307.75</ele><time>2026-05-04T15:56:06.92Z</time></trkpt><trkpt lat="41.2892056" lon="1.3876146"><ele>308.5</ele><time>2026-05-04T15:56:07.92Z</time></trkpt><trkpt lat="41.2891659" lon="1.3877517"><ele>309.25</ele><time>2026-05-04T15:56:08.919Z</time></trkpt><trkpt lat="41.2891236" lon="1.3878925"><ele>310.0</ele><time>2026-05-04T15:56:09.92Z</time></trkpt><trkpt lat="41.2890822" lon="1.3880313"><ele>309.4</ele><time>2026-05-04T15:56:10.92Z</time></trkpt><trkpt lat="41.2890409" lon="1.3881677"><ele>308.8</ele><time>2026-05-04T15:56:11.92Z</time></trkpt><trkpt lat="41.2890024" lon="1.3883054"><ele>308.2</ele><time>2026-05-04T15:56:12.92Z</time></trkpt><trkpt lat="41.2889614" lon="1.3884416"><ele>307.6</ele><time>2026-05-04T15:56:13.92Z</time></trkpt><trkpt lat="41.2889198" lon="1.3885806"><ele>307.0</ele><time>2026-05-04T15:56:14.919Z</time></trkpt><trkpt lat="41.2888778" lon="1.3887173"><ele>307.75</ele><time>2026-05-04T15:56:15.92Z</time></trkpt><trkpt lat="41.2888356" lon="1.3888581"><ele>308.5</ele><time>2026-05-04T15:56:16.92Z</time></trkpt><trkpt lat="41.2887942" lon="1.3890006"><ele>309.25</ele><time>2026-05-04T15:56:17.92Z</time></trkpt><trkpt lat="41.2887504" lon="1.3891426"><ele>310.0</ele><time>2026-05-04T15:56:18.92Z</time></trkpt><trkpt lat="41.2887079" lon="1.3892854"><ele>310.0</ele><time>2026-05-04T15:56:19.92Z</time></trkpt><trkpt lat="41.2886634" lon="1.3894284"><ele>310.0</ele><time>2026-05-04T15:56:20.92Z</time></trkpt><trkpt lat="41.28862" lon="1.3895731"><ele>310.0</ele><time>2026-05-04T15:56:21.92Z</time></trkpt><trkpt lat="41.2885763" lon="1.389719"><ele>310.0</ele><time>2026-05-04T15:56:22.92Z</time></trkpt><trkpt lat="41.2885346" lon="1.3898661"><ele>310.4</ele><time>2026-05-04T15:56:23.92Z</time></trkpt><trkpt lat="41.2884911" lon="1.3900103"><ele>310.8</ele><time>2026-05-04T15:56:24.919Z</time></trkpt><trkpt lat="41.2884528" lon="1.3901514"><ele>311.2</ele><time>2026-05-04T15:56:25.92Z</time></trkpt><trkpt lat="41.2884138" lon="1.3902888"><ele>311.6</ele><time>2026-05-04T15:56:26.92Z</time></trkpt><trkpt lat="41.2883746" lon="1.3904238"><ele>312.0</ele><time>2026-05-04T15:56:27.92Z</time></trkpt><trkpt lat="41.2883359" lon="1.3905582"><ele>312.2</ele><time>2026-05-04T15:56:28.92Z</time></trkpt><trkpt lat="41.2882961" lon="1.3906899"><ele>312.4</ele><time>2026-05-04T15:56:29.92Z</time></trkpt><trkpt lat="41.2882532" lon="1.3908189"><ele>312.6</ele><time>2026-05-04T15:56:30.92Z</time></trkpt><trkpt lat="41.2882134" lon="1.3909504"><ele>312.8</ele><time>2026-05-04T15:56:31.92Z</time></trkpt><trkpt lat="41.2881749" lon="1.3910828"><ele>313.0</ele><time>2026-05-04T15:56:32.919Z</time></trkpt><trkpt lat="41.2881358" lon="1.3912168"><ele>312.8</ele><time>2026-05-04T15:56:33.919Z</time></trkpt><trkpt lat="41.2880977" lon="1.3913466"><ele>312.6</ele><time>2026-05-04T15:56:34.92Z</time></trkpt><trkpt lat="41.2880602" lon="1.3914757"><ele>312.4</ele><time>2026-05-04T15:56:35.92Z</time></trkpt><trkpt lat="41.2880192" lon="1.3916072"><ele>312.2</ele><time>2026-05-04T15:56:36.92Z</time></trkpt><trkpt lat="41.2879796" lon="1.3917378"><ele>312.0</ele><time>2026-05-04T15:56:37.92Z</time></trkpt><trkpt lat="41.2879413" lon="1.3918698"><ele>311.4</ele><time>2026-05-04T15:56:38.92Z</time></trkpt><trkpt lat="41.287905" lon="1.3920001"><ele>310.79999999999995</ele><time>2026-05-04T15:56:39.919Z</time></trkpt><trkpt lat="41.2878668" lon="1.3921265"><ele>310.2</ele><time>2026-05-04T15:56:40.92Z</time></trkpt><trkpt lat="41.2878263" lon="1.3922571"><ele>309.59999999999997</ele><time>2026-05-04T15:56:41.92Z</time></trkpt><trkpt lat="41.2877855" lon="1.3923867"><ele>309.0</ele><time>2026-05-04T15:56:42.92Z</time></trkpt><trkpt lat="41.2877454" lon="1.3925181"><ele>309.0</ele><time>2026-05-04T15:56:43.92Z</time></trkpt><trkpt lat="41.2877064" lon="1.39265"><ele>309.0</ele><time>2026-05-04T15:56:44.92Z</time></trkpt><trkpt lat="41.2876694" lon="1.3927822"><ele>309.0</ele><time>2026-05-04T15:56:45.92Z</time></trkpt><trkpt lat="41.2876309" lon="1.3929169"><ele>309.0</ele><time>2026-05-04T15:56:46.92Z</time></trkpt><trkpt lat="41.2875933" lon="1.3930516"><ele>309.0</ele><time>2026-05-04T15:56:47.92Z</time></trkpt><trkpt lat="41.287548" lon="1.3931886"><ele>309.59999999999997</ele><time>2026-05-04T15:56:48.92Z</time></trkpt><trkpt lat="41.2875067" lon="1.3933244"><ele>310.2</ele><time>2026-05-04T15:56:49.92Z</time></trkpt><trkpt lat="41.2874667" lon="1.3934647"><ele>310.79999999999995</ele><time>2026-05-04T15:56:50.92Z</time></trkpt><trkpt lat="41.2874273" lon="1.3936056"><ele>311.4</ele><time>2026-05-04T15:56:51.92Z</time></trkpt><trkpt lat="41.2873857" lon="1.3937454"><ele>312.0</ele><time>2026-05-04T15:56:52.919Z</time></trkpt><trkpt lat="41.2873447" lon="1.393889"><ele>312.75</ele><time>2026-05-04T15:56:53.92Z</time></trkpt><trkpt lat="41.2873038" lon="1.3940338"><ele>313.5</ele><time>2026-05-04T15:56:54.92Z</time></trkpt><trkpt lat="41.2872619" lon="1.3941805"><ele>314.25</ele><time>2026-05-04T15:56:55.92Z</time></trkpt><trkpt lat="41.2872198" lon="1.394327"><ele>315.0</ele><time>2026-05-04T15:56:56.92Z</time></trkpt><trkpt lat="41.2871725" lon="1.3944707"><ele>315.0</ele><time>2026-05-04T15:56:57.92Z</time></trkpt><trkpt lat="41.2871304" lon="1.3946145"><ele>315.0</ele><time>2026-05-04T15:56:58.92Z</time></trkpt><trkpt lat="41.2870865" lon="1.3947583"><ele>315.0</ele><time>2026-05-04T15:56:59.92Z</time></trkpt><trkpt lat="41.2870472" lon="1.3948993"><ele>315.0</ele><time>2026-05-04T15:57:00.92Z</time></trkpt><trkpt lat="41.2870026" lon="1.395041"><ele>315.5</ele><time>2026-05-04T15:57:01.92Z</time></trkpt><trkpt lat="41.2869588" lon="1.3951826"><ele>316.0</ele><time>2026-05-04T15:57:02.92Z</time></trkpt><trkpt lat="41.2869163" lon="1.3953247"><ele>316.5</ele><time>2026-05-04T15:57:03.92Z</time></trkpt><trkpt lat="41.2868728" lon="1.3954654"><ele>317.0</ele><time>2026-05-04T15:57:04.92Z</time></trkpt><trkpt lat="41.2868312" lon="1.3956067"><ele>317.5</ele><time>2026-05-04T15:57:05.919Z</time></trkpt><trkpt lat="41.2867923" lon="1.3957513"><ele>318.0</ele><time>2026-05-04T15:57:06.919Z</time></trkpt><trkpt lat="41.2867485" lon="1.395897"><ele>318.5</ele><time>2026-05-04T15:57:07.92Z</time></trkpt><trkpt lat="41.2867013" lon="1.396041"><ele>319.0</ele><time>2026-05-04T15:57:08.92Z</time></trkpt><trkpt lat="41.2866562" lon="1.3961864"><ele>319.0</ele><time>2026-05-04T15:57:09.92Z</time></trkpt><trkpt lat="41.2866125" lon="1.3963309"><ele>319.0</ele><time>2026-05-04T15:57:10.92Z</time></trkpt><trkpt lat="41.2865681" lon="1.3964791"><ele>319.0</ele><time>2026-05-04T15:57:11.92Z</time></trkpt><trkpt lat="41.2865261" lon="1.3966281"><ele>319.0</ele><time>2026-05-04T15:57:12.92Z</time></trkpt><trkpt lat="41.2864844" lon="1.3967764"><ele>319.0</ele><time>2026-05-04T15:57:13.919Z</time></trkpt><trkpt lat="41.2864422" lon="1.3969215"><ele>319.0</ele><time>2026-05-04T15:57:14.919Z</time></trkpt><trkpt lat="41.2863964" lon="1.3970607"><ele>319.0</ele><time>2026-05-04T15:57:15.92Z</time></trkpt><trkpt lat="41.2863543" lon="1.3972037"><ele>319.0</ele><time>2026-05-04T15:57:16.92Z</time></trkpt><trkpt lat="41.2863116" lon="1.3973452"><ele>319.0</ele><time>2026-05-04T15:57:17.92Z</time></trkpt><trkpt lat="41.2862726" lon="1.3974814"><ele>319.0</ele><time>2026-05-04T15:57:18.92Z</time></trkpt><trkpt lat="41.2862338" lon="1.3976212"><ele>319.0</ele><time>2026-05-04T15:57:19.92Z</time></trkpt><trkpt lat="41.2861953" lon="1.3977563"><ele>319.0</ele><time>2026-05-04T15:57:20.919Z</time></trkpt><trkpt lat="41.2861567" lon="1.3978884"><ele>319.0</ele><time>2026-05-04T15:57:21.92Z</time></trkpt><trkpt lat="41.2861207" lon="1.3980137"><ele>319.2</ele><time>2026-05-04T15:57:22.92Z</time></trkpt><trkpt lat="41.2860792" lon="1.3981277"><ele>319.4</ele><time>2026-05-04T15:57:23.92Z</time></trkpt><trkpt lat="41.2860224" lon="1.3982223"><ele>319.6</ele><time>2026-05-04T15:57:24.92Z</time></trkpt><trkpt lat="41.28595" lon="1.3983025"><ele>319.8</ele><time>2026-05-04T15:57:25.92Z</time></trkpt><trkpt lat="41.2858693" lon="1.3983677"><ele>320.0</ele><time>2026-05-04T15:57:26.92Z</time></trkpt><trkpt lat="41.2857899" lon="1.3984301"><ele>320.0</ele><time>2026-05-04T15:57:27.92Z</time></trkpt><trkpt lat="41.2857266" lon="1.3984996"><ele>320.0</ele><time>2026-05-04T15:57:28.92Z</time></trkpt><trkpt lat="41.285683" lon="1.3985822"><ele>320.0</ele><time>2026-05-04T15:57:29.92Z</time></trkpt><trkpt lat="41.2856634" lon="1.3986707"><ele>320.0</ele><time>2026-05-04T15:57:30.92Z</time></trkpt><trkpt lat="41.2856591" lon="1.3987795"><ele>320.0</ele><time>2026-05-04T15:57:31.92Z</time></trkpt><trkpt lat="41.2856631" lon="1.3989137"><ele>320.0</ele><time>2026-05-04T15:57:32.92Z</time></trkpt><trkpt lat="41.2856683" lon="1.3990405"><ele>320.4</ele><time>2026-05-04T15:57:33.92Z</time></trkpt><trkpt lat="41.28567" lon="1.3991705"><ele>320.8</ele><time>2026-05-04T15:57:34.92Z</time></trkpt><trkpt lat="41.2856581" lon="1.3993067"><ele>321.20000000000005</ele><time>2026-05-04T15:57:35.92Z</time></trkpt><trkpt lat="41.285638" lon="1.3994304"><ele>321.6</ele><time>2026-05-04T15:57:36.92Z</time></trkpt><trkpt lat="41.2856146" lon="1.3995474"><ele>322.0</ele><time>2026-05-04T15:57:37.92Z</time></trkpt><trkpt lat="41.2855835" lon="1.3996612"><ele>322.40000000000003</ele><time>2026-05-04T15:57:38.92Z</time></trkpt><trkpt lat="41.2855479" lon="1.3997736"><ele>322.8</ele><time>2026-05-04T15:57:39.919Z</time></trkpt><trkpt lat="41.2855117" lon="1.3998844"><ele>323.2</ele><time>2026-05-04T15:57:40.92Z</time></trkpt><trkpt lat="41.2854774" lon="1.3999947"><ele>323.6</ele><time>2026-05-04T15:57:41.92Z</time></trkpt><trkpt lat="41.285443" lon="1.4001101"><ele>324.0</ele><time>2026-05-04T15:57:42.92Z</time></trkpt><trkpt lat="41.2854083" lon="1.4002242"><ele>324.0</ele><time>2026-05-04T15:57:43.92Z</time></trkpt><trkpt lat="41.2853763" lon="1.4003412"><ele>324.0</ele><time>2026-05-04T15:57:44.92Z</time></trkpt><trkpt lat="41.2853397" lon="1.4004649"><ele>324.0</ele><time>2026-05-04T15:57:45.92Z</time></trkpt><trkpt lat="41.2853051" lon="1.400589"><ele>324.0</ele><time>2026-05-04T15:57:46.919Z</time></trkpt><trkpt lat="41.2852657" lon="1.4007162"><ele>324.0</ele><time>2026-05-04T15:57:47.92Z</time></trkpt><trkpt lat="41.2852255" lon="1.4008451"><ele>324.4</ele><time>2026-05-04T15:57:48.919Z</time></trkpt><trkpt lat="41.2851859" lon="1.400978"><ele>324.79999999999995</ele><time>2026-05-04T15:57:49.92Z</time></trkpt><trkpt lat="41.2851486" lon="1.4011142"><ele>325.20000000000005</ele><time>2026-05-04T15:57:50.92Z</time></trkpt><trkpt lat="41.2851094" lon="1.4012491"><ele>325.6</ele><time>2026-05-04T15:57:51.92Z</time></trkpt><trkpt lat="41.2850704" lon="1.4013867"><ele>326.0</ele><time>2026-05-04T15:57:52.92Z</time></trkpt><trkpt lat="41.2850293" lon="1.4015197"><ele>326.0</ele><time>2026-05-04T15:57:53.919Z</time></trkpt><trkpt lat="41.284988" lon="1.4016534"><ele>326.0</ele><time>2026-05-04T15:57:54.92Z</time></trkpt><trkpt lat="41.2849494" lon="1.4017807"><ele>326.0</ele><time>2026-05-04T15:57:55.92Z</time></trkpt><trkpt lat="41.2849116" lon="1.4019024"><ele>326.0</ele><time>2026-05-04T15:57:56.92Z</time></trkpt><trkpt lat="41.2848796" lon="1.4020265"><ele>326.0</ele><time>2026-05-04T15:57:57.919Z</time></trkpt><trkpt lat="41.2848438" lon="1.4021455"><ele>326.0</ele><time>2026-05-04T15:57:58.92Z</time></trkpt><trkpt lat="41.2848092" lon="1.402268"><ele>326.0</ele><time>2026-05-04T15:57:59.92Z</time></trkpt><trkpt lat="41.2847726" lon="1.4023924"><ele>326.0</ele><time>2026-05-04T15:58:00.92Z</time></trkpt><trkpt lat="41.2847338" lon="1.4025164"><ele>326.0</ele><time>2026-05-04T15:58:01.92Z</time></trkpt><trkpt lat="41.2846951" lon="1.4026411"><ele>326.0</ele><time>2026-05-04T15:58:02.92Z</time></trkpt><trkpt lat="41.2846596" lon="1.4027661"><ele>325.6</ele><time>2026-05-04T15:58:03.92Z</time></trkpt><trkpt lat="41.2846224" lon="1.4028925"><ele>325.20000000000005</ele><time>2026-05-04T15:58:04.92Z</time></trkpt><trkpt lat="41.2845881" lon="1.4030255"><ele>324.79999999999995</ele><time>2026-05-04T15:58:05.92Z</time></trkpt><trkpt lat="41.284552" lon="1.4031552"><ele>324.4</ele><time>2026-05-04T15:58:06.92Z</time></trkpt><trkpt lat="41.2845137" lon="1.4032863"><ele>324.0</ele><time>2026-05-04T15:58:07.92Z</time></trkpt><trkpt lat="41.2844748" lon="1.4034157"><ele>324.0</ele><time>2026-05-04T15:58:08.92Z</time></trkpt><trkpt lat="41.284435" lon="1.4035539"><ele>324.0</ele><time>2026-05-04T15:58:09.92Z</time></trkpt><trkpt lat="41.2843949" lon="1.4036932"><ele>324.0</ele><time>2026-05-04T15:58:10.919Z</time></trkpt><trkpt lat="41.2843517" lon="1.4038332"><ele>324.0</ele><time>2026-05-04T15:58:11.919Z</time></trkpt><trkpt lat="41.2843079" lon="1.4039769"><ele>323.0</ele><time>2026-05-04T15:58:12.92Z</time></trkpt><trkpt lat="41.2842636" lon="1.4041224"><ele>322.0</ele><time>2026-05-04T15:58:13.919Z</time></trkpt><trkpt lat="41.2842174" lon="1.404276"><ele>321.0</ele><time>2026-05-04T15:58:14.92Z</time></trkpt><trkpt lat="41.2841714" lon="1.4044295"><ele>320.0</ele><time>2026-05-04T15:58:15.92Z</time></trkpt><trkpt lat="41.2841253" lon="1.4045869"><ele>319.5</ele><time>2026-05-04T15:58:16.92Z</time></trkpt><trkpt lat="41.2840806" lon="1.4047454"><ele>319.0</ele><time>2026-05-04T15:58:17.92Z</time></trkpt><trkpt lat="41.2840342" lon="1.404904"><ele>318.5</ele><time>2026-05-04T15:58:18.92Z</time></trkpt><trkpt lat="41.2839891" lon="1.4050652"><ele>318.0</ele><time>2026-05-04T15:58:19.92Z</time></trkpt><trkpt lat="41.2839408" lon="1.4052282"><ele>317.75</ele><time>2026-05-04T15:58:20.92Z</time></trkpt><trkpt lat="41.2838933" lon="1.4053948"><ele>317.5</ele><time>2026-05-04T15:58:21.92Z</time></trkpt><trkpt lat="41.2838437" lon="1.4055658"><ele>317.25</ele><time>2026-05-04T15:58:22.92Z</time></trkpt><trkpt lat="41.2837897" lon="1.4057407"><ele>317.0</ele><time>2026-05-04T15:58:23.92Z</time></trkpt><trkpt lat="41.2837368" lon="1.4059171"><ele>316.0</ele><time>2026-05-04T15:58:24.919Z</time></trkpt><trkpt lat="41.283684" lon="1.4060904"><ele>315.0</ele><time>2026-05-04T15:58:25.919Z</time></trkpt><trkpt lat="41.2836318" lon="1.4062666"><ele>314.0</ele><time>2026-05-04T15:58:26.92Z</time></trkpt><trkpt lat="41.2835809" lon="1.4064378"><ele>313.0</ele><time>2026-05-04T15:58:27.92Z</time></trkpt><trkpt lat="41.2835278" lon="1.4066087"><ele>312.75</ele><time>2026-05-04T15:58:28.92Z</time></trkpt><trkpt lat="41.2834772" lon="1.40678"><ele>312.5</ele><time>2026-05-04T15:58:29.92Z</time></trkpt><trkpt lat="41.2834264" lon="1.4069501"><ele>312.25</ele><time>2026-05-04T15:58:30.92Z</time></trkpt><trkpt lat="41.2833764" lon="1.4071169"><ele>312.0</ele><time>2026-05-04T15:58:31.92Z</time></trkpt><trkpt lat="41.283327" lon="1.4072848"><ele>312.0</ele><time>2026-05-04T15:58:32.92Z</time></trkpt><trkpt lat="41.2832776" lon="1.4074515"><ele>312.0</ele><time>2026-05-04T15:58:33.92Z</time></trkpt><trkpt lat="41.2832292" lon="1.4076168"><ele>312.0</ele><time>2026-05-04T15:58:34.92Z</time></trkpt><trkpt lat="41.2831805" lon="1.4077814"><ele>312.0</ele><time>2026-05-04T15:58:35.92Z</time></trkpt><trkpt lat="41.2831364" lon="1.4079459"><ele>311.0</ele><time>2026-05-04T15:58:36.921Z</time></trkpt><trkpt lat="41.2830933" lon="1.4081107"><ele>310.0</ele><time>2026-05-04T15:58:37.92Z</time></trkpt><trkpt lat="41.2830477" lon="1.4082731"><ele>309.0</ele><time>2026-05-04T15:58:38.921Z</time></trkpt><trkpt lat="41.2830026" lon="1.4084341"><ele>308.0</ele><time>2026-05-04T15:58:39.921Z</time></trkpt><trkpt lat="41.2829618" lon="1.408599"><ele>308.0</ele><time>2026-05-04T15:58:40.921Z</time></trkpt><trkpt lat="41.2829238" lon="1.4087605"><ele>308.0</ele><time>2026-05-04T15:58:41.921Z</time></trkpt><trkpt lat="41.2828881" lon="1.4089272"><ele>308.0</ele><time>2026-05-04T15:58:42.921Z</time></trkpt><trkpt lat="41.2828535" lon="1.4090916"><ele>308.0</ele><time>2026-05-04T15:58:43.921Z</time></trkpt><trkpt lat="41.2828182" lon="1.4092568"><ele>307.75</ele><time>2026-05-04T15:58:44.921Z</time></trkpt><trkpt lat="41.282785" lon="1.4094185"><ele>307.5</ele><time>2026-05-04T15:58:45.92Z</time></trkpt><trkpt lat="41.2827542" lon="1.4095825"><ele>307.25</ele><time>2026-05-04T15:58:46.92Z</time></trkpt><trkpt lat="41.2827229" lon="1.4097439"><ele>307.0</ele><time>2026-05-04T15:58:47.921Z</time></trkpt><trkpt lat="41.2826944" lon="1.4099069"><ele>307.0</ele><time>2026-05-04T15:58:48.921Z</time></trkpt><trkpt lat="41.2826672" lon="1.4100673"><ele>307.0</ele><time>2026-05-04T15:58:49.921Z</time></trkpt><trkpt lat="41.2826423" lon="1.4102269"><ele>307.0</ele><time>2026-05-04T15:58:50.921Z</time></trkpt><trkpt lat="41.2826199" lon="1.4103886"><ele>307.0</ele><time>2026-05-04T15:58:51.921Z</time></trkpt><trkpt lat="41.2825972" lon="1.4105517"><ele>306.5</ele><time>2026-05-04T15:58:52.921Z</time></trkpt><trkpt lat="41.2825758" lon="1.4107142"><ele>306.0</ele><time>2026-05-04T15:58:53.921Z</time></trkpt><trkpt lat="41.2825573" lon="1.4108753"><ele>305.5</ele><time>2026-05-04T15:58:54.921Z</time></trkpt><trkpt lat="41.2825393" lon="1.4110408"><ele>305.0</ele><time>2026-05-04T15:58:55.921Z</time></trkpt><trkpt lat="41.2825261" lon="1.4112035"><ele>305.0</ele><time>2026-05-04T15:58:56.921Z</time></trkpt><trkpt lat="41.2825124" lon="1.4113652"><ele>305.0</ele><time>2026-05-04T15:58:57.921Z</time></trkpt><trkpt lat="41.2824979" lon="1.4115249"><ele>305.0</ele><time>2026-05-04T15:58:58.921Z</time></trkpt><trkpt lat="41.2824815" lon="1.4116866"><ele>305.0</ele><time>2026-05-04T15:58:59.921Z</time></trkpt><trkpt lat="41.2824702" lon="1.4118448"><ele>305.0</ele><time>2026-05-04T15:59:00.921Z</time></trkpt><trkpt lat="41.282462" lon="1.4120072"><ele>305.0</ele><time>2026-05-04T15:59:01.921Z</time></trkpt><trkpt lat="41.2824539" lon="1.4121672"><ele>305.0</ele><time>2026-05-04T15:59:02.921Z</time></trkpt><trkpt lat="41.2824472" lon="1.4123255"><ele>305.0</ele><time>2026-05-04T15:59:03.921Z</time></trkpt><trkpt lat="41.2824428" lon="1.4124864"><ele>305.25</ele><time>2026-05-04T15:59:04.92Z</time></trkpt><trkpt lat="41.2824397" lon="1.412652"><ele>305.5</ele><time>2026-05-04T15:59:05.92Z</time></trkpt><trkpt lat="41.2824398" lon="1.4128136"><ele>305.75</ele><time>2026-05-04T15:59:06.921Z</time></trkpt><trkpt lat="41.2824413" lon="1.412974"><ele>306.0</ele><time>2026-05-04T15:59:07.92Z</time></trkpt><trkpt lat="41.2824394" lon="1.4131346"><ele>306.0</ele><time>2026-05-04T15:59:08.921Z</time></trkpt><trkpt lat="41.2824395" lon="1.4132914"><ele>306.0</ele><time>2026-05-04T15:59:09.921Z</time></trkpt><trkpt lat="41.2824371" lon="1.4134521"><ele>306.0</ele><time>2026-05-04T15:59:10.921Z</time></trkpt><trkpt lat="41.2824383" lon="1.4136103"><ele>306.0</ele><time>2026-05-04T15:59:11.921Z</time></trkpt><trkpt lat="41.2824453" lon="1.413768"><ele>305.5</ele><time>2026-05-04T15:59:12.921Z</time></trkpt><trkpt lat="41.2824467" lon="1.4139301"><ele>305.0</ele><time>2026-05-04T15:59:13.92Z</time></trkpt><trkpt lat="41.2824482" lon="1.4140971"><ele>304.5</ele><time>2026-05-04T15:59:14.921Z</time></trkpt><trkpt lat="41.2824534" lon="1.4142643"><ele>304.0</ele><time>2026-05-04T15:59:15.921Z</time></trkpt><trkpt lat="41.28246" lon="1.4144396"><ele>304.0</ele><time>2026-05-04T15:59:16.921Z</time></trkpt><trkpt lat="41.2824677" lon="1.4146152"><ele>304.0</ele><time>2026-05-04T15:59:17.921Z</time></trkpt><trkpt lat="41.2824752" lon="1.4147911"><ele>304.0</ele><time>2026-05-04T15:59:18.921Z</time></trkpt><trkpt lat="41.2824822" lon="1.414968"><ele>304.0</ele><time>2026-05-04T15:59:19.921Z</time></trkpt><trkpt lat="41.2824887" lon="1.4151512"><ele>304.25</ele><time>2026-05-04T15:59:20.921Z</time></trkpt><trkpt lat="41.2824935" lon="1.415335"><ele>304.5</ele><time>2026-05-04T15:59:21.92Z</time></trkpt><trkpt lat="41.282497" lon="1.4155177"><ele>304.75</ele><time>2026-05-04T15:59:22.921Z</time></trkpt><trkpt lat="41.2825032" lon="1.415705"><ele>305.0</ele><time>2026-05-04T15:59:23.92Z</time></trkpt><trkpt lat="41.2825092" lon="1.4158904"><ele>305.0</ele><time>2026-05-04T15:59:24.921Z</time></trkpt><trkpt lat="41.2825135" lon="1.4160728"><ele>305.0</ele><time>2026-05-04T15:59:25.921Z</time></trkpt><trkpt lat="41.2825184" lon="1.4162594"><ele>305.0</ele><time>2026-05-04T15:59:26.921Z</time></trkpt><trkpt lat="41.2825254" lon="1.4164482"><ele>305.0</ele><time>2026-05-04T15:59:27.921Z</time></trkpt><trkpt lat="41.2825333" lon="1.4166344"><ele>305.0</ele><time>2026-05-04T15:59:28.921Z</time></trkpt><trkpt lat="41.2825382" lon="1.4168209"><ele>305.0</ele><time>2026-05-04T15:59:29.921Z</time></trkpt><trkpt lat="41.2825433" lon="1.417008"><ele>305.0</ele><time>2026-05-04T15:59:30.921Z</time></trkpt><trkpt lat="41.2825475" lon="1.4171954"><ele>305.0</ele><time>2026-05-04T15:59:31.92Z</time></trkpt><trkpt lat="41.2825548" lon="1.4173805"><ele>305.0</ele><time>2026-05-04T15:59:32.921Z</time></trkpt><trkpt lat="41.2825644" lon="1.4175641"><ele>305.0</ele><time>2026-05-04T15:59:33.921Z</time></trkpt><trkpt lat="41.2825708" lon="1.4177451"><ele>305.0</ele><time>2026-05-04T15:59:34.92Z</time></trkpt><trkpt lat="41.2825773" lon="1.4179267"><ele>305.0</ele><time>2026-05-04T15:59:35.921Z</time></trkpt><trkpt lat="41.2825837" lon="1.4181078"><ele>305.0</ele><time>2026-05-04T15:59:36.921Z</time></trkpt><trkpt lat="41.2825891" lon="1.4182848"><ele>305.0</ele><time>2026-05-04T15:59:37.921Z</time></trkpt><trkpt lat="41.2825938" lon="1.4184635"><ele>305.0</ele><time>2026-05-04T15:59:38.92Z</time></trkpt><trkpt lat="41.2826009" lon="1.4186395"><ele>305.0</ele><time>2026-05-04T15:59:39.921Z</time></trkpt><trkpt lat="41.2826082" lon="1.4188167"><ele>305.75</ele><time>2026-05-04T15:59:40.921Z</time></trkpt><trkpt lat="41.2826147" lon="1.4189921"><ele>306.5</ele><time>2026-05-04T15:59:41.921Z</time></trkpt><trkpt lat="41.2826212" lon="1.4191694"><ele>307.25</ele><time>2026-05-04T15:59:42.921Z</time></trkpt><trkpt lat="41.2826262" lon="1.4193431"><ele>308.0</ele><time>2026-05-04T15:59:43.921Z</time></trkpt><trkpt lat="41.2826311" lon="1.4195165"><ele>309.25</ele><time>2026-05-04T15:59:44.921Z</time></trkpt><trkpt lat="41.2826363" lon="1.4196885"><ele>310.5</ele><time>2026-05-04T15:59:45.921Z</time></trkpt><trkpt lat="41.2826407" lon="1.4198542"><ele>311.75</ele><time>2026-05-04T15:59:46.921Z</time></trkpt><trkpt lat="41.2826461" lon="1.4200175"><ele>313.0</ele><time>2026-05-04T15:59:47.921Z</time></trkpt><trkpt lat="41.2826515" lon="1.4201812"><ele>313.0</ele><time>2026-05-04T15:59:48.921Z</time></trkpt><trkpt lat="41.282656" lon="1.4203417"><ele>313.0</ele><time>2026-05-04T15:59:49.921Z</time></trkpt><trkpt lat="41.2826561" lon="1.4204926"><ele>313.0</ele><time>2026-05-04T15:59:50.921Z</time></trkpt><trkpt lat="41.2826558" lon="1.420643"><ele>313.0</ele><time>2026-05-04T15:59:51.921Z</time></trkpt><trkpt lat="41.282657" lon="1.4207827"><ele>313.66666666666663</ele><time>2026-05-04T15:59:52.921Z</time></trkpt><trkpt lat="41.2826547" lon="1.4209074"><ele>314.3333333333333</ele><time>2026-05-04T15:59:53.921Z</time></trkpt><trkpt lat="41.2826544" lon="1.4210273"><ele>315.0</ele><time>2026-05-04T15:59:54.921Z</time></trkpt><trkpt lat="41.2826476" lon="1.4211361"><ele>315.6666666666667</ele><time>2026-05-04T15:59:55.92Z</time></trkpt><trkpt lat="41.2826231" lon="1.4212363"><ele>316.33333333333337</ele><time>2026-05-04T15:59:56.921Z</time></trkpt><trkpt lat="41.2825837" lon="1.4213142"><ele>317.0</ele><time>2026-05-04T15:59:57.921Z</time></trkpt><trkpt lat="41.2825265" lon="1.4213768"><ele>317.1666666666667</ele><time>2026-05-04T15:59:58.92Z</time></trkpt><trkpt lat="41.2824612" lon="1.4214365"><ele>317.33333333333337</ele><time>2026-05-04T15:59:59.921Z</time></trkpt><trkpt lat="41.2824009" lon="1.4215131"><ele>317.5</ele><time>2026-05-04T16:00:00.92Z</time></trkpt><trkpt lat="41.2823488" lon="1.421603"><ele>317.6666666666667</ele><time>2026-05-04T16:00:01.921Z</time></trkpt><trkpt lat="41.2823214" lon="1.4217044"><ele>317.8333333333333</ele><time>2026-05-04T16:00:02.921Z</time></trkpt><trkpt lat="41.282315" lon="1.4218062"><ele>318.0</ele><time>2026-05-04T16:00:03.92Z</time></trkpt><trkpt lat="41.2823223" lon="1.4219118"><ele>318.0</ele><time>2026-05-04T16:00:04.921Z</time></trkpt><trkpt lat="41.2823349" lon="1.422018"><ele>318.0</ele><time>2026-05-04T16:00:05.921Z</time></trkpt><trkpt lat="41.2823506" lon="1.4221235"><ele>318.0</ele><time>2026-05-04T16:00:06.921Z</time></trkpt><trkpt lat="41.2823657" lon="1.4222301"><ele>318.0</ele><time>2026-05-04T16:00:07.921Z</time></trkpt><trkpt lat="41.2823742" lon="1.4223352"><ele>318.0</ele><time>2026-05-04T16:00:08.921Z</time></trkpt><trkpt lat="41.2823728" lon="1.4224515"><ele>318.0</ele><time>2026-05-04T16:00:09.921Z</time></trkpt><trkpt lat="41.2823608" lon="1.4225662"><ele>318.5</ele><time>2026-05-04T16:00:10.921Z</time></trkpt><trkpt lat="41.2823347" lon="1.4226732"><ele>319.0</ele><time>2026-05-04T16:00:11.921Z</time></trkpt><trkpt lat="41.2823067" lon="1.4227797"><ele>319.5</ele><time>2026-05-04T16:00:12.921Z</time></trkpt><trkpt lat="41.2822674" lon="1.4228818"><ele>320.0</ele><time>2026-05-04T16:00:13.92Z</time></trkpt><trkpt lat="41.2822286" lon="1.4229877"><ele>320.5</ele><time>2026-05-04T16:00:14.921Z</time></trkpt><trkpt lat="41.2821921" lon="1.4230928"><ele>321.0</ele><time>2026-05-04T16:00:15.921Z</time></trkpt><trkpt lat="41.282162" lon="1.4232013"><ele>323.20000000000005</ele><time>2026-05-04T16:00:16.921Z</time></trkpt><trkpt lat="41.282135" lon="1.423312"><ele>325.40000000000003</ele><time>2026-05-04T16:00:17.92Z</time></trkpt><trkpt lat="41.2821087" lon="1.4234228"><ele>327.6</ele><time>2026-05-04T16:00:18.92Z</time></trkpt><trkpt lat="41.2820842" lon="1.4235388"><ele>329.8</ele><time>2026-05-04T16:00:19.921Z</time></trkpt><trkpt lat="41.2820613" lon="1.423661"><ele>332.0</ele><time>2026-05-04T16:00:20.921Z</time></trkpt><trkpt lat="41.2820406" lon="1.42379"><ele>332.6</ele><time>2026-05-04T16:00:21.921Z</time></trkpt><trkpt lat="41.2820215" lon="1.4239239"><ele>333.20000000000005</ele><time>2026-05-04T16:00:22.921Z</time></trkpt><trkpt lat="41.2820031" lon="1.4240613"><ele>333.8</ele><time>2026-05-04T16:00:23.921Z</time></trkpt><trkpt lat="41.2819848" lon="1.4241998"><ele>334.4</ele><time>2026-05-04T16:00:24.921Z</time></trkpt><trkpt lat="41.28197" lon="1.4243419"><ele>335.0</ele><time>2026-05-04T16:00:25.92Z</time></trkpt><trkpt lat="41.2819641" lon="1.4244892"><ele>335.0</ele><time>2026-05-04T16:00:26.921Z</time></trkpt><trkpt lat="41.2819624" lon="1.4246386"><ele>335.0</ele><time>2026-05-04T16:00:27.921Z</time></trkpt><trkpt lat="41.2819632" lon="1.4247897"><ele>335.0</ele><time>2026-05-04T16:00:28.921Z</time></trkpt><trkpt lat="41.2819688" lon="1.4249417"><ele>335.0</ele><time>2026-05-04T16:00:29.921Z</time></trkpt><trkpt lat="41.2819784" lon="1.4250948"><ele>336.2</ele><time>2026-05-04T16:00:30.921Z</time></trkpt><trkpt lat="41.2819889" lon="1.4252463"><ele>337.4</ele><time>2026-05-04T16:00:31.921Z</time></trkpt><trkpt lat="41.2819996" lon="1.4253932"><ele>338.6</ele><time>2026-05-04T16:00:32.921Z</time></trkpt><trkpt lat="41.2820084" lon="1.4255363"><ele>339.8</ele><time>2026-05-04T16:00:33.921Z</time></trkpt><trkpt lat="41.2820149" lon="1.425678"><ele>341.0</ele><time>2026-05-04T16:00:34.921Z</time></trkpt><trkpt lat="41.2820222" lon="1.4258195"><ele>341.20000000000005</ele><time>2026-05-04T16:00:35.921Z</time></trkpt><trkpt lat="41.282032" lon="1.4259607"><ele>341.40000000000003</ele><time>2026-05-04T16:00:36.92Z</time></trkpt><trkpt lat="41.282041" lon="1.4261019"><ele>341.6</ele><time>2026-05-04T16:00:37.921Z</time></trkpt><trkpt lat="41.2820458" lon="1.4262429"><ele>341.8</ele><time>2026-05-04T16:00:38.921Z</time></trkpt><trkpt lat="41.2820478" lon="1.4263865"><ele>342.0</ele><time>2026-05-04T16:00:39.921Z</time></trkpt><trkpt lat="41.2820476" lon="1.4265299"><ele>342.0</ele><time>2026-05-04T16:00:40.921Z</time></trkpt><trkpt lat="41.2820435" lon="1.4266748"><ele>342.0</ele><time>2026-05-04T16:00:41.921Z</time></trkpt><trkpt lat="41.2820387" lon="1.4268175"><ele>342.0</ele><time>2026-05-04T16:00:42.921Z</time></trkpt><trkpt lat="41.2820298" lon="1.42696"><ele>342.0</ele><time>2026-05-04T16:00:43.921Z</time></trkpt><trkpt lat="41.2820173" lon="1.4271039"><ele>342.0</ele><time>2026-05-04T16:00:44.921Z</time></trkpt><trkpt lat="41.2820009" lon="1.4272463"><ele>343.20000000000005</ele><time>2026-05-04T16:00:45.921Z</time></trkpt><trkpt lat="41.2819794" lon="1.4273877"><ele>344.4</ele><time>2026-05-04T16:00:46.921Z</time></trkpt><trkpt lat="41.2819561" lon="1.4275263"><ele>345.6</ele><time>2026-05-04T16:00:47.92Z</time></trkpt><trkpt lat="41.2819273" lon="1.4276663"><ele>346.79999999999995</ele><time>2026-05-04T16:00:48.921Z</time></trkpt><trkpt lat="41.2818968" lon="1.4278044"><ele>348.0</ele><time>2026-05-04T16:00:49.921Z</time></trkpt><trkpt lat="41.2818629" lon="1.4279435"><ele>349.0</ele><time>2026-05-04T16:00:50.921Z</time></trkpt><trkpt lat="41.2818229" lon="1.4280826"><ele>350.0</ele><time>2026-05-04T16:00:51.921Z</time></trkpt><trkpt lat="41.281781" lon="1.4282232"><ele>351.0</ele><time>2026-05-04T16:00:52.921Z</time></trkpt><trkpt lat="41.2817349" lon="1.4283643"><ele>352.0</ele><time>2026-05-04T16:00:53.921Z</time></trkpt><trkpt lat="41.2816857" lon="1.4285074"><ele>352.0</ele><time>2026-05-04T16:00:54.921Z</time></trkpt><trkpt lat="41.2816291" lon="1.4286463"><ele>352.0</ele><time>2026-05-04T16:00:55.921Z</time></trkpt><trkpt lat="41.2815661" lon="1.4287848"><ele>352.0</ele><time>2026-05-04T16:00:56.921Z</time></trkpt><trkpt lat="41.2814987" lon="1.4289268"><ele>352.0</ele><time>2026-05-04T16:00:57.921Z</time></trkpt><trkpt lat="41.2814265" lon="1.4290642"><ele>353.75</ele><time>2026-05-04T16:00:58.921Z</time></trkpt><trkpt lat="41.2813512" lon="1.4291965"><ele>355.5</ele><time>2026-05-04T16:00:59.921Z</time></trkpt><trkpt lat="41.2812715" lon="1.4293271"><ele>357.25</ele><time>2026-05-04T16:01:00.921Z</time></trkpt><trkpt lat="41.2811873" lon="1.4294546"><ele>359.0</ele><time>2026-05-04T16:01:01.921Z</time></trkpt><trkpt lat="41.2811018" lon="1.4295798"><ele>357.5</ele><time>2026-05-04T16:01:02.92Z</time></trkpt><trkpt lat="41.2810035" lon="1.4297159"><ele>356.0</ele><time>2026-05-04T16:01:03.92Z</time></trkpt><trkpt lat="41.2808867" lon="1.4298462"><ele>354.5</ele><time>2026-05-04T16:01:04.921Z</time></trkpt><trkpt lat="41.280784" lon="1.4299612"><ele>353.0</ele><time>2026-05-04T16:01:05.921Z</time></trkpt><trkpt lat="41.2806777" lon="1.4300744"><ele>354.5</ele><time>2026-05-04T16:01:06.921Z</time></trkpt><trkpt lat="41.2805696" lon="1.4301813"><ele>356.0</ele><time>2026-05-04T16:01:07.921Z</time></trkpt><trkpt lat="41.2804507" lon="1.4302809"><ele>357.5</ele><time>2026-05-04T16:01:08.922Z</time></trkpt><trkpt lat="41.2803285" lon="1.430375"><ele>359.0</ele><time>2026-05-04T16:01:09.921Z</time></trkpt><trkpt lat="41.2802029" lon="1.4304674"><ele>357.75</ele><time>2026-05-04T16:01:10.922Z</time></trkpt><trkpt lat="41.280077" lon="1.4305568"><ele>356.5</ele><time>2026-05-04T16:01:11.922Z</time></trkpt><trkpt lat="41.2799462" lon="1.4306459"><ele>355.25</ele><time>2026-05-04T16:01:12.922Z</time></trkpt><trkpt lat="41.2798153" lon="1.4307346"><ele>354.0</ele><time>2026-05-04T16:01:13.922Z</time></trkpt><trkpt lat="41.2796812" lon="1.430821"><ele>354.0</ele><time>2026-05-04T16:01:14.922Z</time></trkpt><trkpt lat="41.2795469" lon="1.4309081"><ele>354.0</ele><time>2026-05-04T16:01:15.921Z</time></trkpt><trkpt lat="41.2794137" lon="1.4310007"><ele>354.0</ele><time>2026-05-04T16:01:16.921Z</time></trkpt><trkpt lat="41.2792798" lon="1.4311008"><ele>354.0</ele><time>2026-05-04T16:01:17.922Z</time></trkpt><trkpt lat="41.2791498" lon="1.4312123"><ele>354.0</ele><time>2026-05-04T16:01:18.922Z</time></trkpt><trkpt lat="41.2790239" lon="1.4313333"><ele>354.0</ele><time>2026-05-04T16:01:19.922Z</time></trkpt><trkpt lat="41.2789018" lon="1.4314627"><ele>349.25</ele><time>2026-05-04T16:01:20.922Z</time></trkpt><trkpt lat="41.2787849" lon="1.4315977"><ele>344.5</ele><time>2026-05-04T16:01:21.922Z</time></trkpt><trkpt lat="41.2786828" lon="1.4317268"><ele>339.75</ele><time>2026-05-04T16:01:22.922Z</time></trkpt><trkpt lat="41.2785808" lon="1.4318709"><ele>335.0</ele><time>2026-05-04T16:01:23.922Z</time></trkpt><trkpt lat="41.278486" lon="1.4320222"><ele>332.0</ele><time>2026-05-04T16:01:24.922Z</time></trkpt><trkpt lat="41.2783943" lon="1.4321813"><ele>329.0</ele><time>2026-05-04T16:01:25.922Z</time></trkpt><trkpt lat="41.2783053" lon="1.4323418"><ele>326.0</ele><time>2026-05-04T16:01:26.921Z</time></trkpt><trkpt lat="41.2782236" lon="1.4325092"><ele>326.0</ele><time>2026-05-04T16:01:27.922Z</time></trkpt><trkpt lat="41.2781518" lon="1.4326822"><ele>326.0</ele><time>2026-05-04T16:01:28.921Z</time></trkpt><trkpt lat="41.2780829" lon="1.4328653"><ele>326.0</ele><time>2026-05-04T16:01:29.922Z</time></trkpt><trkpt lat="41.278013" lon="1.4330461"><ele>330.0</ele><time>2026-05-04T16:01:30.922Z</time></trkpt><trkpt lat="41.2779547" lon="1.4332351"><ele>334.0</ele><time>2026-05-04T16:01:31.921Z</time></trkpt><trkpt lat="41.2778986" lon="1.4334163"><ele>338.0</ele><time>2026-05-04T16:01:32.922Z</time></trkpt><trkpt lat="41.2778484" lon="1.4335985"><ele>342.0</ele><time>2026-05-04T16:01:33.921Z</time></trkpt><trkpt lat="41.2778019" lon="1.4337871"><ele>341.0</ele><time>2026-05-04T16:01:34.921Z</time></trkpt><trkpt lat="41.2777517" lon="1.4339785"><ele>340.0</ele><time>2026-05-04T16:01:35.922Z</time></trkpt><trkpt lat="41.2776988" lon="1.4341687"><ele>339.0</ele><time>2026-05-04T16:01:36.922Z</time></trkpt><trkpt lat="41.2776415" lon="1.4343571"><ele>339.0</ele><time>2026-05-04T16:01:37.922Z</time></trkpt><trkpt lat="41.2775815" lon="1.4345388"><ele>339.0</ele><time>2026-05-04T16:01:38.922Z</time></trkpt><trkpt lat="41.2775165" lon="1.4347165"><ele>339.0</ele><time>2026-05-04T16:01:39.922Z</time></trkpt><trkpt lat="41.2774484" lon="1.4348894"><ele>339.0</ele><time>2026-05-04T16:01:40.922Z</time></trkpt><trkpt lat="41.2773719" lon="1.4350567"><ele>342.6666666666667</ele><time>2026-05-04T16:01:41.922Z</time></trkpt><trkpt lat="41.2772827" lon="1.4352189"><ele>346.33333333333337</ele><time>2026-05-04T16:01:42.922Z</time></trkpt><trkpt lat="41.2771879" lon="1.4353737"><ele>350.0</ele><time>2026-05-04T16:01:43.922Z</time></trkpt><trkpt lat="41.2770885" lon="1.4355216"><ele>342.0</ele><time>2026-05-04T16:01:44.922Z</time></trkpt><trkpt lat="41.276986" lon="1.4356682"><ele>334.0</ele><time>2026-05-04T16:01:45.921Z</time></trkpt><trkpt lat="41.2768812" lon="1.4358146"><ele>326.0</ele><time>2026-05-04T16:01:46.922Z</time></trkpt><trkpt lat="41.2767751" lon="1.4359626"><ele>326.0</ele><time>2026-05-04T16:01:47.922Z</time></trkpt><trkpt lat="41.2766724" lon="1.4361106"><ele>326.0</ele><time>2026-05-04T16:01:48.922Z</time></trkpt><trkpt lat="41.2765722" lon="1.436257"><ele>326.0</ele><time>2026-05-04T16:01:49.922Z</time></trkpt><trkpt lat="41.2764741" lon="1.4364119"><ele>323.0</ele><time>2026-05-04T16:01:50.921Z</time></trkpt><trkpt lat="41.2763778" lon="1.4365738"><ele>320.0</ele><time>2026-05-04T16:01:51.922Z</time></trkpt><trkpt lat="41.2762893" lon="1.4367458"><ele>317.0</ele><time>2026-05-04T16:01:52.922Z</time></trkpt><trkpt lat="41.2762066" lon="1.4369236"><ele>317.0</ele><time>2026-05-04T16:01:53.921Z</time></trkpt><trkpt lat="41.2761303" lon="1.4371097"><ele>317.0</ele><time>2026-05-04T16:01:54.922Z</time></trkpt><trkpt lat="41.2760619" lon="1.4372985"><ele>317.0</ele><time>2026-05-04T16:01:55.922Z</time></trkpt><trkpt lat="41.2760027" lon="1.4374914"><ele>312.0</ele><time>2026-05-04T16:01:56.922Z</time></trkpt><trkpt lat="41.2759569" lon="1.4376881"><ele>307.0</ele><time>2026-05-04T16:01:57.921Z</time></trkpt><trkpt lat="41.2759169" lon="1.4378878"><ele>302.0</ele><time>2026-05-04T16:01:58.922Z</time></trkpt><trkpt lat="41.2758875" lon="1.4380903"><ele>300.33333333333337</ele><time>2026-05-04T16:01:59.922Z</time></trkpt><trkpt lat="41.2758646" lon="1.4382958"><ele>298.6666666666667</ele><time>2026-05-04T16:02:00.922Z</time></trkpt><trkpt lat="41.2758429" lon="1.438499"><ele>297.0</ele><time>2026-05-04T16:02:01.922Z</time></trkpt><trkpt lat="41.2758247" lon="1.4387016"><ele>295.5</ele><time>2026-05-04T16:02:02.922Z</time></trkpt><trkpt lat="41.275807" lon="1.438902"><ele>294.0</ele><time>2026-05-04T16:02:03.922Z</time></trkpt><trkpt lat="41.2757914" lon="1.4390971"><ele>292.5</ele><time>2026-05-04T16:02:04.922Z</time></trkpt><trkpt lat="41.275771" lon="1.4392895"><ele>291.0</ele><time>2026-05-04T16:02:05.922Z</time></trkpt><trkpt lat="41.2757472" lon="1.4394822"><ele>289.0</ele><time>2026-05-04T16:02:06.922Z</time></trkpt><trkpt lat="41.2757195" lon="1.4396765"><ele>287.0</ele><time>2026-05-04T16:02:07.922Z</time></trkpt><trkpt lat="41.275684" lon="1.43987"><ele>285.0</ele><time>2026-05-04T16:02:08.922Z</time></trkpt><trkpt lat="41.2756437" lon="1.4400625"><ele>283.0</ele><time>2026-05-04T16:02:09.922Z</time></trkpt><trkpt lat="41.2755975" lon="1.4402486"><ele>285.0</ele><time>2026-05-04T16:02:10.922Z</time></trkpt><trkpt lat="41.2755429" lon="1.4404383"><ele>287.0</ele><time>2026-05-04T16:02:11.922Z</time></trkpt><trkpt lat="41.2754827" lon="1.4406259"><ele>289.0</ele><time>2026-05-04T16:02:12.922Z</time></trkpt><trkpt lat="41.2754173" lon="1.4408161"><ele>289.0</ele><time>2026-05-04T16:02:13.922Z</time></trkpt><trkpt lat="41.2753431" lon="1.4410041"><ele>289.0</ele><time>2026-05-04T16:02:14.922Z</time></trkpt><trkpt lat="41.2752637" lon="1.441194"><ele>289.0</ele><time>2026-05-04T16:02:15.922Z</time></trkpt><trkpt lat="41.2751824" lon="1.4413893"><ele>285.66666666666663</ele><time>2026-05-04T16:02:16.921Z</time></trkpt><trkpt lat="41.2750975" lon="1.4415851"><ele>282.3333333333333</ele><time>2026-05-04T16:02:17.922Z</time></trkpt><trkpt lat="41.2750127" lon="1.4417864"><ele>279.0</ele><time>2026-05-04T16:02:18.922Z</time></trkpt><trkpt lat="41.2749298" lon="1.4419888"><ele>276.3333333333333</ele><time>2026-05-04T16:02:19.921Z</time></trkpt><trkpt lat="41.2748486" lon="1.4421941"><ele>273.66666666666663</ele><time>2026-05-04T16:02:20.922Z</time></trkpt><trkpt lat="41.2747674" lon="1.4424032"><ele>271.0</ele><time>2026-05-04T16:02:21.922Z</time></trkpt><trkpt lat="41.2746892" lon="1.4426161"><ele>274.66666666666663</ele><time>2026-05-04T16:02:22.921Z</time></trkpt><trkpt lat="41.2746154" lon="1.4428328"><ele>278.3333333333333</ele><time>2026-05-04T16:02:23.922Z</time></trkpt><trkpt lat="41.274546" lon="1.4430549"><ele>282.0</ele><time>2026-05-04T16:02:24.922Z</time></trkpt><trkpt lat="41.2744814" lon="1.4432805"><ele>282.0</ele><time>2026-05-04T16:02:25.922Z</time></trkpt><trkpt lat="41.2744206" lon="1.4435078"><ele>282.0</ele><time>2026-05-04T16:02:26.922Z</time></trkpt><trkpt lat="41.274363" lon="1.4437371"><ele>282.0</ele><time>2026-05-04T16:02:27.922Z</time></trkpt><trkpt lat="41.2743108" lon="1.4439722"><ele>280.6666666666667</ele><time>2026-05-04T16:02:28.922Z</time></trkpt><trkpt lat="41.2742645" lon="1.444206"><ele>279.33333333333337</ele><time>2026-05-04T16:02:29.922Z</time></trkpt><trkpt lat="41.2742204" lon="1.4444419"><ele>278.0</ele><time>2026-05-04T16:02:30.922Z</time></trkpt><trkpt lat="41.2741812" lon="1.4446804"><ele>276.0</ele><time>2026-05-04T16:02:31.922Z</time></trkpt><trkpt lat="41.2741496" lon="1.4449138"><ele>274.0</ele><time>2026-05-04T16:02:32.922Z</time></trkpt><trkpt lat="41.2741218" lon="1.4451398"><ele>272.0</ele><time>2026-05-04T16:02:33.922Z</time></trkpt><trkpt lat="41.2740975" lon="1.4453563"><ele>269.33333333333337</ele><time>2026-05-04T16:02:34.921Z</time></trkpt><trkpt lat="41.2740769" lon="1.4455675"><ele>266.6666666666667</ele><time>2026-05-04T16:02:35.922Z</time></trkpt><trkpt lat="41.2740578" lon="1.445776"><ele>264.0</ele><time>2026-05-04T16:02:36.922Z</time></trkpt><trkpt lat="41.2740398" lon="1.4459837"><ele>264.0</ele><time>2026-05-04T16:02:37.922Z</time></trkpt><trkpt lat="41.2740227" lon="1.4461933"><ele>264.0</ele><time>2026-05-04T16:02:38.922Z</time></trkpt><trkpt lat="41.2740078" lon="1.4463993"><ele>264.0</ele><time>2026-05-04T16:02:39.922Z</time></trkpt><trkpt lat="41.273992" lon="1.4466066"><ele>262.0</ele><time>2026-05-04T16:02:40.922Z</time></trkpt><trkpt lat="41.2739765" lon="1.4468134"><ele>260.0</ele><time>2026-05-04T16:02:41.922Z</time></trkpt><trkpt lat="41.2739606" lon="1.4470267"><ele>258.0</ele><time>2026-05-04T16:02:42.922Z</time></trkpt><trkpt lat="41.2739443" lon="1.4472399"><ele>257.6666666666667</ele><time>2026-05-04T16:02:43.922Z</time></trkpt><trkpt lat="41.2739284" lon="1.4474476"><ele>257.33333333333337</ele><time>2026-05-04T16:02:44.922Z</time></trkpt><trkpt lat="41.2739134" lon="1.4476605"><ele>257.0</ele><time>2026-05-04T16:02:45.921Z</time></trkpt><trkpt lat="41.2738982" lon="1.4478783"><ele>257.6666666666667</ele><time>2026-05-04T16:02:46.921Z</time></trkpt><trkpt lat="41.2738794" lon="1.4480978"><ele>258.3333333333333</ele><time>2026-05-04T16:02:47.922Z</time></trkpt><trkpt lat="41.273862" lon="1.4483197"><ele>259.0</ele><time>2026-05-04T16:02:48.922Z</time></trkpt><trkpt lat="41.2738457" lon="1.4485439"><ele>259.0</ele><time>2026-05-04T16:02:49.922Z</time></trkpt><trkpt lat="41.2738281" lon="1.4487711"><ele>259.0</ele><time>2026-05-04T16:02:50.922Z</time></trkpt><trkpt lat="41.2738124" lon="1.4490001"><ele>259.0</ele><time>2026-05-04T16:02:51.922Z</time></trkpt><trkpt lat="41.273798" lon="1.4492298"><ele>258.66666666666663</ele><time>2026-05-04T16:02:52.921Z</time></trkpt><trkpt lat="41.2737798" lon="1.4494606"><ele>258.3333333333333</ele><time>2026-05-04T16:02:53.921Z</time></trkpt><trkpt lat="41.2737573" lon="1.4496906"><ele>258.0</ele><time>2026-05-04T16:02:54.922Z</time></trkpt><trkpt lat="41.2737367" lon="1.4499253"><ele>256.6666666666667</ele><time>2026-05-04T16:02:55.922Z</time></trkpt><trkpt lat="41.2737186" lon="1.4501629"><ele>255.33333333333334</ele><time>2026-05-04T16:02:56.921Z</time></trkpt><trkpt lat="41.2737001" lon="1.4504044"><ele>254.0</ele><time>2026-05-04T16:02:57.922Z</time></trkpt><trkpt lat="41.2736827" lon="1.4506436"><ele>251.33333333333334</ele><time>2026-05-04T16:02:58.921Z</time></trkpt><trkpt lat="41.2736654" lon="1.4508867"><ele>248.66666666666669</ele><time>2026-05-04T16:02:59.922Z</time></trkpt><trkpt lat="41.2736483" lon="1.4511306"><ele>246.0</ele><time>2026-05-04T16:03:00.922Z</time></trkpt><trkpt lat="41.2736297" lon="1.4513767"><ele>244.66666666666669</ele><time>2026-05-04T16:03:01.922Z</time></trkpt><trkpt lat="41.2736092" lon="1.4516216"><ele>243.33333333333334</ele><time>2026-05-04T16:03:02.922Z</time></trkpt><trkpt lat="41.2735905" lon="1.4518667"><ele>242.0</ele><time>2026-05-04T16:03:03.922Z</time></trkpt><trkpt lat="41.2735704" lon="1.4521141"><ele>240.0</ele><time>2026-05-04T16:03:04.921Z</time></trkpt><trkpt lat="41.2735504" lon="1.4523571"><ele>238.0</ele><time>2026-05-04T16:03:05.922Z</time></trkpt><trkpt lat="41.2735325" lon="1.4526028"><ele>236.0</ele><time>2026-05-04T16:03:06.922Z</time></trkpt><trkpt lat="41.2735144" lon="1.4528487"><ele>233.66666666666669</ele><time>2026-05-04T16:03:07.922Z</time></trkpt><trkpt lat="41.2734973" lon="1.4530982"><ele>231.33333333333331</ele><time>2026-05-04T16:03:08.922Z</time></trkpt><trkpt lat="41.2734794" lon="1.4533447"><ele>229.0</ele><time>2026-05-04T16:03:09.922Z</time></trkpt><trkpt lat="41.2734618" lon="1.4535932"><ele>227.66666666666666</ele><time>2026-05-04T16:03:10.922Z</time></trkpt><trkpt lat="41.2734439" lon="1.4538372"><ele>226.33333333333331</ele><time>2026-05-04T16:03:11.921Z</time></trkpt><trkpt lat="41.2734254" lon="1.4540861"><ele>225.0</ele><time>2026-05-04T16:03:12.922Z</time></trkpt><trkpt lat="41.2734066" lon="1.4543314"><ele>225.0</ele><time>2026-05-04T16:03:13.921Z</time></trkpt><trkpt lat="41.2733873" lon="1.4545752"><ele>225.0</ele><time>2026-05-04T16:03:14.922Z</time></trkpt><trkpt lat="41.2733669" lon="1.4548077"><ele>225.0</ele><time>2026-05-04T16:03:15.922Z</time></trkpt><trkpt lat="41.2733431" lon="1.4550338"><ele>225.0</ele><time>2026-05-04T16:03:16.922Z</time></trkpt><trkpt lat="41.2733165" lon="1.4552519"><ele>225.0</ele><time>2026-05-04T16:03:17.922Z</time></trkpt><trkpt lat="41.2732851" lon="1.4554628"><ele>225.0</ele><time>2026-05-04T16:03:18.922Z</time></trkpt><trkpt lat="41.2732488" lon="1.4556679"><ele>226.0</ele><time>2026-05-04T16:03:19.922Z</time></trkpt><trkpt lat="41.2732055" lon="1.4558606"><ele>227.0</ele><time>2026-05-04T16:03:20.922Z</time></trkpt><trkpt lat="41.2731562" lon="1.4560457"><ele>228.0</ele><time>2026-05-04T16:03:21.922Z</time></trkpt><trkpt lat="41.2731046" lon="1.4562237"><ele>229.0</ele><time>2026-05-04T16:03:22.922Z</time></trkpt><trkpt lat="41.2730508" lon="1.4563972"><ele>227.0</ele><time>2026-05-04T16:03:23.922Z</time></trkpt><trkpt lat="41.272992" lon="1.4565681"><ele>225.0</ele><time>2026-05-04T16:03:24.922Z</time></trkpt><trkpt lat="41.2729288" lon="1.4567375"><ele>223.0</ele><time>2026-05-04T16:03:25.922Z</time></trkpt><trkpt lat="41.2728643" lon="1.4569072"><ele>221.0</ele><time>2026-05-04T16:03:26.921Z</time></trkpt><trkpt lat="41.2727929" lon="1.4570749"><ele>218.0</ele><time>2026-05-04T16:03:27.922Z</time></trkpt><trkpt lat="41.2727138" lon="1.457239"><ele>215.0</ele><time>2026-05-04T16:03:28.921Z</time></trkpt><trkpt lat="41.2726291" lon="1.4573991"><ele>212.0</ele><time>2026-05-04T16:03:29.922Z</time></trkpt><trkpt lat="41.2725431" lon="1.4575558"><ele>209.0</ele><time>2026-05-04T16:03:30.922Z</time></trkpt><trkpt lat="41.2724535" lon="1.4577022"><ele>209.0</ele><time>2026-05-04T16:03:31.922Z</time></trkpt><trkpt lat="41.2723582" lon="1.4578461"><ele>209.0</ele><time>2026-05-04T16:03:32.922Z</time></trkpt><trkpt lat="41.2722618" lon="1.4579863"><ele>209.0</ele><time>2026-05-04T16:03:33.922Z</time></trkpt><trkpt lat="41.2721621" lon="1.4581219"><ele>209.0</ele><time>2026-05-04T16:03:34.922Z</time></trkpt><trkpt lat="41.2720558" lon="1.4582527"><ele>208.0</ele><time>2026-05-04T16:03:35.922Z</time></trkpt><trkpt lat="41.271944" lon="1.4583761"><ele>207.0</ele><time>2026-05-04T16:03:36.921Z</time></trkpt><trkpt lat="41.2718265" lon="1.4584963"><ele>206.0</ele><time>2026-05-04T16:03:37.921Z</time></trkpt><trkpt lat="41.2717061" lon="1.4586118"><ele>205.0</ele><time>2026-05-04T16:03:38.922Z</time></trkpt><trkpt lat="41.2715819" lon="1.4587243"><ele>203.66666666666666</ele><time>2026-05-04T16:03:39.922Z</time></trkpt><trkpt lat="41.2714578" lon="1.4588384"><ele>202.33333333333331</ele><time>2026-05-04T16:03:40.923Z</time></trkpt><trkpt lat="41.2713328" lon="1.4589479"><ele>201.0</ele><time>2026-05-04T16:03:41.923Z</time></trkpt><trkpt lat="41.2712063" lon="1.4590587"><ele>201.0</ele><time>2026-05-04T16:03:42.923Z</time></trkpt><trkpt lat="41.2710806" lon="1.4591714"><ele>201.0</ele><time>2026-05-04T16:03:43.923Z</time></trkpt><trkpt lat="41.2709548" lon="1.4592845"><ele>201.0</ele><time>2026-05-04T16:03:44.923Z</time></trkpt><trkpt lat="41.27083" lon="1.4593979"><ele>201.0</ele><time>2026-05-04T16:03:45.922Z</time></trkpt><trkpt lat="41.2707089" lon="1.459518"><ele>201.0</ele><time>2026-05-04T16:03:46.923Z</time></trkpt><trkpt lat="41.2705921" lon="1.4596449"><ele>201.0</ele><time>2026-05-04T16:03:47.922Z</time></trkpt><trkpt lat="41.2704783" lon="1.4597767"><ele>199.75</ele><time>2026-05-04T16:03:48.922Z</time></trkpt><trkpt lat="41.270368" lon="1.4599116"><ele>198.5</ele><time>2026-05-04T16:03:49.923Z</time></trkpt><trkpt lat="41.2702621" lon="1.46005"><ele>197.25</ele><time>2026-05-04T16:03:50.923Z</time></trkpt><trkpt lat="41.2701633" lon="1.4601949"><ele>196.0</ele><time>2026-05-04T16:03:51.923Z</time></trkpt><trkpt lat="41.2700691" lon="1.460346"><ele>196.0</ele><time>2026-05-04T16:03:52.923Z</time></trkpt><trkpt lat="41.2699779" lon="1.4604969"><ele>196.0</ele><time>2026-05-04T16:03:53.923Z</time></trkpt><trkpt lat="41.2698907" lon="1.4606537"><ele>196.0</ele><time>2026-05-04T16:03:54.923Z</time></trkpt><trkpt lat="41.2698088" lon="1.4608152"><ele>196.0</ele><time>2026-05-04T16:03:55.923Z</time></trkpt><trkpt lat="41.2697312" lon="1.4609801"><ele>196.0</ele><time>2026-05-04T16:03:56.923Z</time></trkpt><trkpt lat="41.2696605" lon="1.4611498"><ele>196.0</ele><time>2026-05-04T16:03:57.922Z</time></trkpt><trkpt lat="41.2695922" lon="1.4613238"><ele>196.0</ele><time>2026-05-04T16:03:58.923Z</time></trkpt><trkpt lat="41.2695269" lon="1.461499"><ele>196.0</ele><time>2026-05-04T16:03:59.923Z</time></trkpt><trkpt lat="41.269462" lon="1.4616775"><ele>195.0</ele><time>2026-05-04T16:04:00.922Z</time></trkpt><trkpt lat="41.2693998" lon="1.4618584"><ele>194.0</ele><time>2026-05-04T16:04:01.923Z</time></trkpt><trkpt lat="41.26934" lon="1.4620356"><ele>193.0</ele><time>2026-05-04T16:04:02.922Z</time></trkpt><trkpt lat="41.2692804" lon="1.4622064"><ele>192.0</ele><time>2026-05-04T16:04:03.923Z</time></trkpt><trkpt lat="41.2692223" lon="1.462382"><ele>190.75</ele><time>2026-05-04T16:04:04.923Z</time></trkpt><trkpt lat="41.269163" lon="1.4625558"><ele>189.5</ele><time>2026-05-04T16:04:05.923Z</time></trkpt><trkpt lat="41.269107" lon="1.462725"><ele>188.25</ele><time>2026-05-04T16:04:06.922Z</time></trkpt><trkpt lat="41.2690525" lon="1.4628882"><ele>187.0</ele><time>2026-05-04T16:04:07.923Z</time></trkpt><trkpt lat="41.2690036" lon="1.4630428"><ele>186.6</ele><time>2026-05-04T16:04:08.923Z</time></trkpt><trkpt lat="41.268953" lon="1.4631856"><ele>186.2</ele><time>2026-05-04T16:04:09.923Z</time></trkpt><trkpt lat="41.2689107" lon="1.4633096"><ele>185.8</ele><time>2026-05-04T16:04:10.923Z</time></trkpt><trkpt lat="41.2688722" lon="1.4634126"><ele>185.4</ele><time>2026-05-04T16:04:11.923Z</time></trkpt><trkpt lat="41.2688364" lon="1.4634942"><ele>185.0</ele><time>2026-05-04T16:04:12.923Z</time></trkpt><trkpt lat="41.2687747" lon="1.4635656"><ele>185.0</ele><time>2026-05-04T16:04:13.923Z</time></trkpt><trkpt lat="41.2687071" lon="1.4636259"><ele>185.0</ele><time>2026-05-04T16:04:14.923Z</time></trkpt><trkpt lat="41.2686431" lon="1.4636913"><ele>185.0</ele><time>2026-05-04T16:04:15.923Z</time></trkpt><trkpt lat="41.2685914" lon="1.4637587"><ele>185.0</ele><time>2026-05-04T16:04:16.923Z</time></trkpt><trkpt lat="41.2685667" lon="1.4639134"><ele>185.0</ele><time>2026-05-04T16:04:18.923Z</time></trkpt><trkpt lat="41.2686174" lon="1.4640496"><ele>184.66666666666666</ele><time>2026-05-04T16:04:20.923Z</time></trkpt><trkpt lat="41.2687099" lon="1.4641157"><ele>184.33333333333331</ele><time>2026-05-04T16:04:22.923Z</time></trkpt><trkpt lat="41.2688169" lon="1.4640943"><ele>184.0</ele><time>2026-05-04T16:04:24.923Z</time></trkpt><trkpt lat="41.2688733" lon="1.4640458"><ele>183.66666666666666</ele><time>2026-05-04T16:04:25.923Z</time></trkpt><trkpt lat="41.2689304" lon="1.4639885"><ele>183.33333333333334</ele><time>2026-05-04T16:04:26.923Z</time></trkpt><trkpt lat="41.2689956" lon="1.4639301"><ele>183.0</ele><time>2026-05-04T16:04:27.923Z</time></trkpt><trkpt lat="41.2690678" lon="1.4638885"><ele>182.8</ele><time>2026-05-04T16:04:28.923Z</time></trkpt><trkpt lat="41.269151" lon="1.4638782"><ele>182.60000000000002</ele><time>2026-05-04T16:04:29.923Z</time></trkpt><trkpt lat="41.2692391" lon="1.4638819"><ele>182.39999999999998</ele><time>2026-05-04T16:04:30.922Z</time></trkpt><trkpt lat="41.2693339" lon="1.4638848"><ele>182.2</ele><time>2026-05-04T16:04:31.922Z</time></trkpt><trkpt lat="41.2694335" lon="1.4638876"><ele>182.0</ele><time>2026-05-04T16:04:32.923Z</time></trkpt><trkpt lat="41.2695355" lon="1.4638837"><ele>182.0</ele><time>2026-05-04T16:04:33.923Z</time></trkpt><trkpt lat="41.2696258" lon="1.4638737"><ele>182.0</ele><time>2026-05-04T16:04:34.923Z</time></trkpt><trkpt lat="41.2697194" lon="1.4638657"><ele>182.0</ele><time>2026-05-04T16:04:35.923Z</time></trkpt><trkpt lat="41.2698128" lon="1.4638587"><ele>182.0</ele><time>2026-05-04T16:04:36.922Z</time></trkpt><trkpt lat="41.2699054" lon="1.4638528"><ele>182.0</ele><time>2026-05-04T16:04:37.923Z</time></trkpt><trkpt lat="41.2699987" lon="1.4638385"><ele>182.2</ele><time>2026-05-04T16:04:38.923Z</time></trkpt><trkpt lat="41.2700904" lon="1.4638131"><ele>182.39999999999998</ele><time>2026-05-04T16:04:39.923Z</time></trkpt><trkpt lat="41.2701807" lon="1.4637696"><ele>182.60000000000002</ele><time>2026-05-04T16:04:40.923Z</time></trkpt><trkpt lat="41.2702652" lon="1.4637097"><ele>182.8</ele><time>2026-05-04T16:04:41.923Z</time></trkpt><trkpt lat="41.2703481" lon="1.4636325"><ele>183.0</ele><time>2026-05-04T16:04:42.922Z</time></trkpt><trkpt lat="41.270428" lon="1.4635404"><ele>183.2</ele><time>2026-05-04T16:04:43.923Z</time></trkpt><trkpt lat="41.2705036" lon="1.4634445"><ele>183.4</ele><time>2026-05-04T16:04:44.923Z</time></trkpt><trkpt lat="41.2705744" lon="1.4633465"><ele>183.6</ele><time>2026-05-04T16:04:45.923Z</time></trkpt><trkpt lat="41.2706439" lon="1.4632483"><ele>183.79999999999998</ele><time>2026-05-04T16:04:46.923Z</time></trkpt><trkpt lat="41.2707197" lon="1.4631531"><ele>184.0</ele><time>2026-05-04T16:04:47.923Z</time></trkpt><trkpt lat="41.2708072" lon="1.4630707"><ele>184.0</ele><time>2026-05-04T16:04:48.923Z</time></trkpt><trkpt lat="41.2709072" lon="1.4630097"><ele>184.0</ele><time>2026-05-04T16:04:49.923Z</time></trkpt><trkpt lat="41.2710127" lon="1.4629713"><ele>184.0</ele><time>2026-05-04T16:04:50.923Z</time></trkpt><trkpt lat="41.2711205" lon="1.4629529"><ele>184.0</ele><time>2026-05-04T16:04:51.923Z</time></trkpt><trkpt lat="41.2712316" lon="1.4629566"><ele>184.0</ele><time>2026-05-04T16:04:52.923Z</time></trkpt><trkpt lat="41.2713417" lon="1.4629847"><ele>184.25</ele><time>2026-05-04T16:04:53.922Z</time></trkpt><trkpt lat="41.271445" lon="1.463041"><ele>184.5</ele><time>2026-05-04T16:04:54.923Z</time></trkpt><trkpt lat="41.2715407" lon="1.4631228"><ele>184.75</ele><time>2026-05-04T16:04:55.923Z</time></trkpt><trkpt lat="41.2716259" lon="1.4632242"><ele>185.0</ele><time>2026-05-04T16:04:56.923Z</time></trkpt><trkpt lat="41.2717024" lon="1.4633384"><ele>185.0</ele><time>2026-05-04T16:04:57.922Z</time></trkpt><trkpt lat="41.2717643" lon="1.463468"><ele>185.0</ele><time>2026-05-04T16:04:58.923Z</time></trkpt><trkpt lat="41.2718184" lon="1.4636006"><ele>185.0</ele><time>2026-05-04T16:04:59.923Z</time></trkpt><trkpt lat="41.2718747" lon="1.4637351"><ele>185.0</ele><time>2026-05-04T16:05:00.923Z</time></trkpt><trkpt lat="41.2719291" lon="1.463869"><ele>184.75</ele><time>2026-05-04T16:05:01.922Z</time></trkpt><trkpt lat="41.2719842" lon="1.4640047"><ele>184.5</ele><time>2026-05-04T16:05:02.923Z</time></trkpt><trkpt lat="41.2720376" lon="1.464146"><ele>184.25</ele><time>2026-05-04T16:05:03.923Z</time></trkpt><trkpt lat="41.2720891" lon="1.4642913"><ele>184.0</ele><time>2026-05-04T16:05:04.923Z</time></trkpt><trkpt lat="41.2721411" lon="1.4644383"><ele>184.0</ele><time>2026-05-04T16:05:05.923Z</time></trkpt><trkpt lat="41.2721854" lon="1.4645818"><ele>184.0</ele><time>2026-05-04T16:05:06.923Z</time></trkpt><trkpt lat="41.2722282" lon="1.464721"><ele>184.0</ele><time>2026-05-04T16:05:07.923Z</time></trkpt><trkpt lat="41.2722735" lon="1.464856"><ele>184.0</ele><time>2026-05-04T16:05:08.923Z</time></trkpt><trkpt lat="41.272316" lon="1.4649887"><ele>184.0</ele><time>2026-05-04T16:05:09.923Z</time></trkpt><trkpt lat="41.2723598" lon="1.4651199"><ele>185.39999999999998</ele><time>2026-05-04T16:05:10.922Z</time></trkpt><trkpt lat="41.272401" lon="1.4652497"><ele>186.8</ele><time>2026-05-04T16:05:11.923Z</time></trkpt><trkpt lat="41.2724418" lon="1.4653772"><ele>188.2</ele><time>2026-05-04T16:05:12.922Z</time></trkpt><trkpt lat="41.2724815" lon="1.4655041"><ele>189.60000000000002</ele><time>2026-05-04T16:05:13.923Z</time></trkpt><trkpt lat="41.2725208" lon="1.4656318"><ele>191.0</ele><time>2026-05-04T16:05:14.923Z</time></trkpt><trkpt lat="41.2725654" lon="1.4657539"><ele>191.0</ele><time>2026-05-04T16:05:15.923Z</time></trkpt><trkpt lat="41.2726177" lon="1.4658712"><ele>191.0</ele><time>2026-05-04T16:05:16.923Z</time></trkpt><trkpt lat="41.272671" lon="1.4659865"><ele>191.0</ele><time>2026-05-04T16:05:17.922Z</time></trkpt><trkpt lat="41.2727313" lon="1.4661014"><ele>191.0</ele><time>2026-05-04T16:05:18.922Z</time></trkpt><trkpt lat="41.2727971" lon="1.4662147"><ele>191.0</ele><time>2026-05-04T16:05:19.922Z</time></trkpt><trkpt lat="41.2728669" lon="1.4663359"><ele>190.75</ele><time>2026-05-04T16:05:20.923Z</time></trkpt><trkpt lat="41.2729372" lon="1.4664643"><ele>190.5</ele><time>2026-05-04T16:05:21.923Z</time></trkpt><trkpt lat="41.2730112" lon="1.4665995"><ele>190.25</ele><time>2026-05-04T16:05:22.923Z</time></trkpt><trkpt lat="41.2730883" lon="1.4667423"><ele>190.0</ele><time>2026-05-04T16:05:23.923Z</time></trkpt><trkpt lat="41.2731654" lon="1.4668901"><ele>189.5</ele><time>2026-05-04T16:05:24.923Z</time></trkpt><trkpt lat="41.2732454" lon="1.4670379"><ele>189.0</ele><time>2026-05-04T16:05:25.922Z</time></trkpt><trkpt lat="41.2733289" lon="1.4671885"><ele>188.5</ele><time>2026-05-04T16:05:26.922Z</time></trkpt><trkpt lat="41.2734159" lon="1.4673454"><ele>188.0</ele><time>2026-05-04T16:05:27.922Z</time></trkpt><trkpt lat="41.2735036" lon="1.4675003"><ele>187.25</ele><time>2026-05-04T16:05:28.923Z</time></trkpt><trkpt lat="41.2735918" lon="1.4676568"><ele>186.5</ele><time>2026-05-04T16:05:29.923Z</time></trkpt><trkpt lat="41.2736742" lon="1.4678186"><ele>185.75</ele><time>2026-05-04T16:05:30.923Z</time></trkpt><trkpt lat="41.2737483" lon="1.4679863"><ele>185.0</ele><time>2026-05-04T16:05:31.922Z</time></trkpt><trkpt lat="41.2738107" lon="1.4681592"><ele>184.25</ele><time>2026-05-04T16:05:32.923Z</time></trkpt><trkpt lat="41.2738624" lon="1.4683352"><ele>183.5</ele><time>2026-05-04T16:05:33.923Z</time></trkpt><trkpt lat="41.2739113" lon="1.4685122"><ele>182.75</ele><time>2026-05-04T16:05:34.923Z</time></trkpt><trkpt lat="41.2739615" lon="1.4686861"><ele>182.0</ele><time>2026-05-04T16:05:35.923Z</time></trkpt><trkpt lat="41.274014" lon="1.4688626"><ele>182.0</ele><time>2026-05-04T16:05:36.923Z</time></trkpt><trkpt lat="41.2740656" lon="1.4690387"><ele>182.0</ele><time>2026-05-04T16:05:37.922Z</time></trkpt><trkpt lat="41.2741171" lon="1.4692175"><ele>182.0</ele><time>2026-05-04T16:05:38.923Z</time></trkpt><trkpt lat="41.274169" lon="1.4693956"><ele>182.0</ele><time>2026-05-04T16:05:39.923Z</time></trkpt><trkpt lat="41.2742194" lon="1.4695744"><ele>181.75</ele><time>2026-05-04T16:05:40.922Z</time></trkpt><trkpt lat="41.2742689" lon="1.4697499"><ele>181.5</ele><time>2026-05-04T16:05:41.923Z</time></trkpt><trkpt lat="41.2743211" lon="1.4699265"><ele>181.25</ele><time>2026-05-04T16:05:42.923Z</time></trkpt><trkpt lat="41.2743731" lon="1.4701031"><ele>181.0</ele><time>2026-05-04T16:05:43.923Z</time></trkpt><trkpt lat="41.2744249" lon="1.4702799"><ele>180.25</ele><time>2026-05-04T16:05:44.923Z</time></trkpt><trkpt lat="41.2744752" lon="1.4704536"><ele>179.5</ele><time>2026-05-04T16:05:45.923Z</time></trkpt><trkpt lat="41.2745246" lon="1.4706213"><ele>178.75</ele><time>2026-05-04T16:05:46.923Z</time></trkpt><trkpt lat="41.2745733" lon="1.470785"><ele>178.0</ele><time>2026-05-04T16:05:47.923Z</time></trkpt><trkpt lat="41.2746217" lon="1.4709486"><ele>178.0</ele><time>2026-05-04T16:05:48.923Z</time></trkpt><trkpt lat="41.2746701" lon="1.4711139"><ele>178.0</ele><time>2026-05-04T16:05:49.923Z</time></trkpt><trkpt lat="41.2747151" lon="1.4712812"><ele>178.0</ele><time>2026-05-04T16:05:50.923Z</time></trkpt><trkpt lat="41.2747597" lon="1.4714462"><ele>178.0</ele><time>2026-05-04T16:05:51.923Z</time></trkpt><trkpt lat="41.2748047" lon="1.4716085"><ele>178.25</ele><time>2026-05-04T16:05:52.923Z</time></trkpt><trkpt lat="41.2748539" lon="1.471771"><ele>178.5</ele><time>2026-05-04T16:05:53.922Z</time></trkpt><trkpt lat="41.2749142" lon="1.4719191"><ele>178.75</ele><time>2026-05-04T16:05:54.923Z</time></trkpt><trkpt lat="41.2749891" lon="1.4720452"><ele>179.0</ele><time>2026-05-04T16:05:55.922Z</time></trkpt><trkpt lat="41.2750788" lon="1.4721457"><ele>181.25</ele><time>2026-05-04T16:05:56.922Z</time></trkpt><trkpt lat="41.2751822" lon="1.4722227"><ele>183.5</ele><time>2026-05-04T16:05:57.923Z</time></trkpt><trkpt lat="41.2752816" lon="1.4723011"><ele>185.75</ele><time>2026-05-04T16:05:58.923Z</time></trkpt><trkpt lat="41.275375" lon="1.4723825"><ele>188.0</ele><time>2026-05-04T16:05:59.923Z</time></trkpt><trkpt lat="41.275471" lon="1.4724619"><ele>188.0</ele><time>2026-05-04T16:06:00.923Z</time></trkpt><trkpt lat="41.2755677" lon="1.4725415"><ele>188.0</ele><time>2026-05-04T16:06:01.923Z</time></trkpt><trkpt lat="41.2756672" lon="1.4726172"><ele>188.0</ele><time>2026-05-04T16:06:02.923Z</time></trkpt><trkpt lat="41.2757637" lon="1.4726958"><ele>188.0</ele><time>2026-05-04T16:06:03.923Z</time></trkpt><trkpt lat="41.2758626" lon="1.4727757"><ele>187.0</ele><time>2026-05-04T16:06:04.923Z</time></trkpt><trkpt lat="41.2759638" lon="1.4728575"><ele>186.0</ele><time>2026-05-04T16:06:05.923Z</time></trkpt><trkpt lat="41.2760644" lon="1.4729374"><ele>185.0</ele><time>2026-05-04T16:06:06.923Z</time></trkpt><trkpt lat="41.2761666" lon="1.4730226"><ele>184.0</ele><time>2026-05-04T16:06:07.923Z</time></trkpt><trkpt lat="41.2762674" lon="1.4731121"><ele>184.79999999999998</ele><time>2026-05-04T16:06:08.923Z</time></trkpt><trkpt lat="41.2763518" lon="1.4732156"><ele>185.6</ele><time>2026-05-04T16:06:09.923Z</time></trkpt><trkpt lat="41.2764133" lon="1.4733296"><ele>186.4</ele><time>2026-05-04T16:06:10.923Z</time></trkpt><trkpt lat="41.2764517" lon="1.4734593"><ele>187.2</ele><time>2026-05-04T16:06:11.923Z</time></trkpt><trkpt lat="41.276467" lon="1.4735957"><ele>188.0</ele><time>2026-05-04T16:06:12.923Z</time></trkpt><trkpt lat="41.2764639" lon="1.4737309"><ele>190.4</ele><time>2026-05-04T16:06:13.924Z</time></trkpt><trkpt lat="41.2764503" lon="1.4738687"><ele>192.8</ele><time>2026-05-04T16:06:14.924Z</time></trkpt><trkpt lat="41.2764345" lon="1.4740086"><ele>195.2</ele><time>2026-05-04T16:06:15.924Z</time></trkpt><trkpt lat="41.2764191" lon="1.474148"><ele>197.6</ele><time>2026-05-04T16:06:16.924Z</time></trkpt><trkpt lat="41.2764069" lon="1.4742907"><ele>200.0</ele><time>2026-05-04T16:06:17.924Z</time></trkpt><trkpt lat="41.2763946" lon="1.4744298"><ele>200.6</ele><time>2026-05-04T16:06:18.924Z</time></trkpt><trkpt lat="41.2763889" lon="1.4745698"><ele>201.2</ele><time>2026-05-04T16:06:19.924Z</time></trkpt><trkpt lat="41.2763915" lon="1.4747109"><ele>201.8</ele><time>2026-05-04T16:06:20.924Z</time></trkpt><trkpt lat="41.2764037" lon="1.4748514"><ele>202.4</ele><time>2026-05-04T16:06:21.924Z</time></trkpt><trkpt lat="41.2764279" lon="1.4749921"><ele>203.0</ele><time>2026-05-04T16:06:22.923Z</time></trkpt><trkpt lat="41.2764651" lon="1.4751285"><ele>202.75</ele><time>2026-05-04T16:06:23.924Z</time></trkpt><trkpt lat="41.2765057" lon="1.4752664"><ele>202.5</ele><time>2026-05-04T16:06:24.924Z</time></trkpt><trkpt lat="41.2765473" lon="1.4754052"><ele>202.25</ele><time>2026-05-04T16:06:25.924Z</time></trkpt><trkpt lat="41.2765991" lon="1.4755397"><ele>202.0</ele><time>2026-05-04T16:06:26.924Z</time></trkpt><trkpt lat="41.2766506" lon="1.4756773"><ele>202.0</ele><time>2026-05-04T16:06:27.924Z</time></trkpt><trkpt lat="41.2767029" lon="1.4758155"><ele>202.0</ele><time>2026-05-04T16:06:28.924Z</time></trkpt><trkpt lat="41.2767519" lon="1.4759623"><ele>202.0</ele><time>2026-05-04T16:06:29.924Z</time></trkpt><trkpt lat="41.2768012" lon="1.4761106"><ele>202.0</ele><time>2026-05-04T16:06:30.924Z</time></trkpt><trkpt lat="41.2768536" lon="1.4762596"><ele>202.0</ele><time>2026-05-04T16:06:31.924Z</time></trkpt><trkpt lat="41.2769046" lon="1.4764109"><ele>202.0</ele><time>2026-05-04T16:06:32.923Z</time></trkpt><trkpt lat="41.2769574" lon="1.4765649"><ele>202.0</ele><time>2026-05-04T16:06:33.924Z</time></trkpt><trkpt lat="41.2770112" lon="1.476719"><ele>202.0</ele><time>2026-05-04T16:06:34.924Z</time></trkpt><trkpt lat="41.2770693" lon="1.4768728"><ele>202.0</ele><time>2026-05-04T16:06:35.924Z</time></trkpt><trkpt lat="41.2771244" lon="1.4770295"><ele>202.0</ele><time>2026-05-04T16:06:36.923Z</time></trkpt><trkpt lat="41.2771822" lon="1.4771855"><ele>202.0</ele><time>2026-05-04T16:06:37.923Z</time></trkpt><trkpt lat="41.2772474" lon="1.4773325"><ele>202.0</ele><time>2026-05-04T16:06:38.924Z</time></trkpt><trkpt lat="41.2773279" lon="1.4774658"><ele>201.75</ele><time>2026-05-04T16:06:39.924Z</time></trkpt><trkpt lat="41.2774184" lon="1.4775963"><ele>201.5</ele><time>2026-05-04T16:06:40.924Z</time></trkpt><trkpt lat="41.2775082" lon="1.4777199"><ele>201.25</ele><time>2026-05-04T16:06:41.924Z</time></trkpt><trkpt lat="41.2775958" lon="1.4778451"><ele>201.0</ele><time>2026-05-04T16:06:42.923Z</time></trkpt><trkpt lat="41.2776841" lon="1.4779753"><ele>201.0</ele><time>2026-05-04T16:06:43.924Z</time></trkpt><trkpt lat="41.2777682" lon="1.478113"><ele>201.0</ele><time>2026-05-04T16:06:44.924Z</time></trkpt><trkpt lat="41.2778517" lon="1.4782534"><ele>201.0</ele><time>2026-05-04T16:06:45.924Z</time></trkpt><trkpt lat="41.2779308" lon="1.4783998"><ele>201.0</ele><time>2026-05-04T16:06:46.924Z</time></trkpt><trkpt lat="41.2780014" lon="1.4785563"><ele>201.0</ele><time>2026-05-04T16:06:47.924Z</time></trkpt><trkpt lat="41.2780676" lon="1.4787189"><ele>201.0</ele><time>2026-05-04T16:06:48.923Z</time></trkpt><trkpt lat="41.2781338" lon="1.4788824"><ele>201.0</ele><time>2026-05-04T16:06:49.924Z</time></trkpt><trkpt lat="41.2782001" lon="1.4790452"><ele>201.0</ele><time>2026-05-04T16:06:50.924Z</time></trkpt><trkpt lat="41.2782658" lon="1.4792101"><ele>200.25</ele><time>2026-05-04T16:06:51.923Z</time></trkpt><trkpt lat="41.2783332" lon="1.4793757"><ele>199.5</ele><time>2026-05-04T16:06:52.923Z</time></trkpt><trkpt lat="41.2784028" lon="1.4795443"><ele>198.75</ele><time>2026-05-04T16:06:53.924Z</time></trkpt><trkpt lat="41.2784685" lon="1.4797111"><ele>198.0</ele><time>2026-05-04T16:06:54.924Z</time></trkpt><trkpt lat="41.2785335" lon="1.4798777"><ele>197.5</ele><time>2026-05-04T16:06:55.924Z</time></trkpt><trkpt lat="41.278601" lon="1.4800437"><ele>197.0</ele><time>2026-05-04T16:06:56.923Z</time></trkpt><trkpt lat="41.2786672" lon="1.4802039"><ele>196.5</ele><time>2026-05-04T16:06:57.924Z</time></trkpt><trkpt lat="41.2787313" lon="1.4803613"><ele>196.0</ele><time>2026-05-04T16:06:58.923Z</time></trkpt><trkpt lat="41.2787925" lon="1.4805191"><ele>195.75</ele><time>2026-05-04T16:06:59.924Z</time></trkpt><trkpt lat="41.2788543" lon="1.4806794"><ele>195.5</ele><time>2026-05-04T16:07:00.924Z</time></trkpt><trkpt lat="41.278906" lon="1.4808388"><ele>195.25</ele><time>2026-05-04T16:07:01.923Z</time></trkpt><trkpt lat="41.2789422" lon="1.4809992"><ele>195.0</ele><time>2026-05-04T16:07:02.924Z</time></trkpt><trkpt lat="41.2789639" lon="1.4811709"><ele>194.25</ele><time>2026-05-04T16:07:03.924Z</time></trkpt><trkpt lat="41.2789681" lon="1.4813415"><ele>193.5</ele><time>2026-05-04T16:07:04.924Z</time></trkpt><trkpt lat="41.2789638" lon="1.4815149"><ele>192.75</ele><time>2026-05-04T16:07:05.924Z</time></trkpt><trkpt lat="41.2789565" lon="1.4816885"><ele>192.0</ele><time>2026-05-04T16:07:06.924Z</time></trkpt><trkpt lat="41.2789486" lon="1.481865"><ele>192.0</ele><time>2026-05-04T16:07:07.923Z</time></trkpt><trkpt lat="41.2789426" lon="1.4820434"><ele>192.0</ele><time>2026-05-04T16:07:08.924Z</time></trkpt><trkpt lat="41.2789382" lon="1.4822263"><ele>192.0</ele><time>2026-05-04T16:07:09.924Z</time></trkpt><trkpt lat="41.2789325" lon="1.4824083"><ele>192.0</ele><time>2026-05-04T16:07:10.923Z</time></trkpt><trkpt lat="41.278925" lon="1.4825899"><ele>190.75</ele><time>2026-05-04T16:07:11.924Z</time></trkpt><trkpt lat="41.2789183" lon="1.4827706"><ele>189.5</ele><time>2026-05-04T16:07:12.924Z</time></trkpt><trkpt lat="41.2789106" lon="1.4829551"><ele>188.25</ele><time>2026-05-04T16:07:13.924Z</time></trkpt><trkpt lat="41.2789044" lon="1.483136"><ele>187.0</ele><time>2026-05-04T16:07:14.924Z</time></trkpt><trkpt lat="41.2788981" lon="1.4833183"><ele>186.0</ele><time>2026-05-04T16:07:15.924Z</time></trkpt><trkpt lat="41.2788923" lon="1.4834962"><ele>185.0</ele><time>2026-05-04T16:07:16.924Z</time></trkpt><trkpt lat="41.2788879" lon="1.4836732"><ele>184.0</ele><time>2026-05-04T16:07:17.924Z</time></trkpt><trkpt lat="41.2788803" lon="1.4838486"><ele>183.0</ele><time>2026-05-04T16:07:18.924Z</time></trkpt><trkpt lat="41.2788737" lon="1.4840205"><ele>182.75</ele><time>2026-05-04T16:07:19.923Z</time></trkpt><trkpt lat="41.2788676" lon="1.484188"><ele>182.5</ele><time>2026-05-04T16:07:20.924Z</time></trkpt><trkpt lat="41.2788613" lon="1.4843511"><ele>182.25</ele><time>2026-05-04T16:07:21.924Z</time></trkpt><trkpt lat="41.2788552" lon="1.484514"><ele>182.0</ele><time>2026-05-04T16:07:22.924Z</time></trkpt><trkpt lat="41.2788492" lon="1.4846754"><ele>181.5</ele><time>2026-05-04T16:07:23.924Z</time></trkpt><trkpt lat="41.2788417" lon="1.4848417"><ele>181.0</ele><time>2026-05-04T16:07:24.923Z</time></trkpt><trkpt lat="41.278835" lon="1.4850124"><ele>180.5</ele><time>2026-05-04T16:07:25.924Z</time></trkpt><trkpt lat="41.2788271" lon="1.4851863"><ele>180.0</ele><time>2026-05-04T16:07:26.924Z</time></trkpt><trkpt lat="41.2788201" lon="1.485365"><ele>180.5</ele><time>2026-05-04T16:07:27.924Z</time></trkpt><trkpt lat="41.2788154" lon="1.4855423"><ele>181.0</ele><time>2026-05-04T16:07:28.924Z</time></trkpt><trkpt lat="41.2788113" lon="1.4857159"><ele>181.5</ele><time>2026-05-04T16:07:29.923Z</time></trkpt><trkpt lat="41.2788047" lon="1.4858958"><ele>182.0</ele><time>2026-05-04T16:07:30.924Z</time></trkpt><trkpt lat="41.2787976" lon="1.4860803"><ele>182.0</ele><time>2026-05-04T16:07:31.924Z</time></trkpt><trkpt lat="41.2787907" lon="1.4862668"><ele>182.0</ele><time>2026-05-04T16:07:32.924Z</time></trkpt><trkpt lat="41.2787863" lon="1.4864505"><ele>182.0</ele><time>2026-05-04T16:07:33.924Z</time></trkpt><trkpt lat="41.2787819" lon="1.4866298"><ele>182.0</ele><time>2026-05-04T16:07:34.924Z</time></trkpt><trkpt lat="41.278777" lon="1.4867998"><ele>182.0</ele><time>2026-05-04T16:07:35.924Z</time></trkpt><trkpt lat="41.2787674" lon="1.4869609"><ele>182.0</ele><time>2026-05-04T16:07:36.924Z</time></trkpt><trkpt lat="41.2787434" lon="1.487107"><ele>182.0</ele><time>2026-05-04T16:07:37.924Z</time></trkpt><trkpt lat="41.2786978" lon="1.4872432"><ele>182.0</ele><time>2026-05-04T16:07:38.924Z</time></trkpt><trkpt lat="41.2786357" lon="1.4873603"><ele>181.2</ele><time>2026-05-04T16:07:39.924Z</time></trkpt><trkpt lat="41.2785613" lon="1.4874578"><ele>180.39999999999998</ele><time>2026-05-04T16:07:40.924Z</time></trkpt><trkpt lat="41.27848" lon="1.4875556"><ele>179.60000000000002</ele><time>2026-05-04T16:07:41.924Z</time></trkpt><trkpt lat="41.27841" lon="1.4876652"><ele>178.8</ele><time>2026-05-04T16:07:42.924Z</time></trkpt><trkpt lat="41.2783538" lon="1.48778"><ele>178.0</ele><time>2026-05-04T16:07:43.924Z</time></trkpt><trkpt lat="41.2783156" lon="1.4879058"><ele>177.2</ele><time>2026-05-04T16:07:44.924Z</time></trkpt><trkpt lat="41.2782987" lon="1.4880427"><ele>176.4</ele><time>2026-05-04T16:07:45.924Z</time></trkpt><trkpt lat="41.2783004" lon="1.4881813"><ele>175.6</ele><time>2026-05-04T16:07:46.924Z</time></trkpt><trkpt lat="41.2783212" lon="1.4883243"><ele>174.79999999999998</ele><time>2026-05-04T16:07:47.924Z</time></trkpt><trkpt lat="41.2783424" lon="1.4884493"><ele>174.0</ele><time>2026-05-04T16:07:48.924Z</time></trkpt><trkpt lat="41.2783393" lon="1.4885629"><ele>174.0</ele><time>2026-05-04T16:07:49.923Z</time></trkpt><trkpt lat="41.2783124" lon="1.4886571"><ele>174.0</ele><time>2026-05-04T16:07:50.923Z</time></trkpt><trkpt lat="41.278261" lon="1.4887321"><ele>174.0</ele><time>2026-05-04T16:07:51.923Z</time></trkpt><trkpt lat="41.2781805" lon="1.4887991"><ele>174.0</ele><time>2026-05-04T16:07:52.924Z</time></trkpt><trkpt lat="41.2780676" lon="1.4888829"><ele>174.0</ele><time>2026-05-04T16:07:53.924Z</time></trkpt><trkpt lat="41.2779866" lon="1.488938"><ele>173.83333333333334</ele><time>2026-05-04T16:07:54.924Z</time></trkpt><trkpt lat="41.2779118" lon="1.4889871"><ele>173.66666666666666</ele><time>2026-05-04T16:07:55.923Z</time></trkpt><trkpt lat="41.2778364" lon="1.4890324"><ele>173.5</ele><time>2026-05-04T16:07:56.924Z</time></trkpt><trkpt lat="41.2777614" lon="1.4890747"><ele>173.33333333333331</ele><time>2026-05-04T16:07:57.923Z</time></trkpt><trkpt lat="41.2776906" lon="1.4891181"><ele>173.16666666666666</ele><time>2026-05-04T16:07:58.922Z</time></trkpt><trkpt lat="41.2776272" lon="1.489158"><ele>173.0</ele><time>2026-05-04T16:07:59.923Z</time></trkpt><trkpt lat="41.2775699" lon="1.489195"><ele>173.0</ele><time>2026-05-04T16:08:00.923Z</time></trkpt><trkpt lat="41.277481" lon="1.4892531"><ele>173.0</ele><time>2026-05-04T16:08:02.923Z</time></trkpt><trkpt lat="41.277397" lon="1.4893083"><ele>173.0</ele><time>2026-05-04T16:08:15.924Z</time></trkpt><trkpt lat="41.2772984" lon="1.4893898"><ele>173.0</ele><time>2026-05-04T16:08:17.924Z</time></trkpt><trkpt lat="41.2772461" lon="1.4894561"><ele>173.0</ele><time>2026-05-04T16:08:18.923Z</time></trkpt><trkpt lat="41.2772091" lon="1.4895286"><ele>173.0</ele><time>2026-05-04T16:08:19.924Z</time></trkpt><trkpt lat="41.2771829" lon="1.4896096"><ele>173.42857142857142</ele><time>2026-05-04T16:08:20.924Z</time></trkpt><trkpt lat="41.2771698" lon="1.4896937"><ele>173.85714285714286</ele><time>2026-05-04T16:08:21.924Z</time></trkpt><trkpt lat="41.2771733" lon="1.4897812"><ele>174.28571428571428</ele><time>2026-05-04T16:08:22.924Z</time></trkpt><trkpt lat="41.2771889" lon="1.4898745"><ele>174.71428571428572</ele><time>2026-05-04T16:08:23.924Z</time></trkpt><trkpt lat="41.2772159" lon="1.4899682"><ele>175.14285714285714</ele><time>2026-05-04T16:08:24.924Z</time></trkpt><trkpt lat="41.277241" lon="1.490067"><ele>175.57142857142858</ele><time>2026-05-04T16:08:25.924Z</time></trkpt><trkpt lat="41.2772681" lon="1.4901681"><ele>176.0</ele><time>2026-05-04T16:08:26.924Z</time></trkpt><trkpt lat="41.2772909" lon="1.490272"><ele>176.4</ele><time>2026-05-04T16:08:27.924Z</time></trkpt><trkpt lat="41.2773175" lon="1.4903818"><ele>176.8</ele><time>2026-05-04T16:08:28.923Z</time></trkpt><trkpt lat="41.2773486" lon="1.4904886"><ele>177.20000000000002</ele><time>2026-05-04T16:08:29.923Z</time></trkpt><trkpt lat="41.27738" lon="1.490603"><ele>177.60000000000002</ele><time>2026-05-04T16:08:30.924Z</time></trkpt><trkpt lat="41.27741" lon="1.490732"><ele>178.0</ele><time>2026-05-04T16:08:31.924Z</time></trkpt><trkpt lat="41.2774457" lon="1.4908681"><ele>178.0</ele><time>2026-05-04T16:08:32.924Z</time></trkpt><trkpt lat="41.2774825" lon="1.4910083"><ele>178.0</ele><time>2026-05-04T16:08:33.924Z</time></trkpt><trkpt lat="41.2775178" lon="1.4911439"><ele>178.0</ele><time>2026-05-04T16:08:34.924Z</time></trkpt><trkpt lat="41.2775539" lon="1.4912833"><ele>178.0</ele><time>2026-05-04T16:08:35.924Z</time></trkpt><trkpt lat="41.2775878" lon="1.4914191"><ele>178.0</ele><time>2026-05-04T16:08:36.924Z</time></trkpt><trkpt lat="41.2776258" lon="1.4915564"><ele>177.25</ele><time>2026-05-04T16:08:37.923Z</time></trkpt><trkpt lat="41.2776693" lon="1.4916979"><ele>176.5</ele><time>2026-05-04T16:08:38.924Z</time></trkpt><trkpt lat="41.2777091" lon="1.4918484"><ele>175.75</ele><time>2026-05-04T16:08:39.924Z</time></trkpt><trkpt lat="41.2777512" lon="1.4920024"><ele>175.0</ele><time>2026-05-04T16:08:40.924Z</time></trkpt><trkpt lat="41.2777913" lon="1.4921635"><ele>174.0</ele><time>2026-05-04T16:08:41.924Z</time></trkpt><trkpt lat="41.2778315" lon="1.4923261"><ele>173.0</ele><time>2026-05-04T16:08:42.924Z</time></trkpt><trkpt lat="41.2778727" lon="1.4924922"><ele>172.0</ele><time>2026-05-04T16:08:43.924Z</time></trkpt><trkpt lat="41.2779156" lon="1.4926519"><ele>171.0</ele><time>2026-05-04T16:08:44.924Z</time></trkpt><trkpt lat="41.2779568" lon="1.4928065"><ele>170.5</ele><time>2026-05-04T16:08:45.924Z</time></trkpt><trkpt lat="41.2779952" lon="1.4929574"><ele>170.0</ele><time>2026-05-04T16:08:46.924Z</time></trkpt><trkpt lat="41.2780342" lon="1.4931058"><ele>169.5</ele><time>2026-05-04T16:08:47.924Z</time></trkpt><trkpt lat="41.2780685" lon="1.493249"><ele>169.0</ele><time>2026-05-04T16:08:48.924Z</time></trkpt><trkpt lat="41.2781025" lon="1.4933898"><ele>169.0</ele><time>2026-05-04T16:08:49.923Z</time></trkpt><trkpt lat="41.2781365" lon="1.4935308"><ele>169.0</ele><time>2026-05-04T16:08:50.924Z</time></trkpt><trkpt lat="41.278171" lon="1.4936744"><ele>169.0</ele><time>2026-05-04T16:08:51.924Z</time></trkpt><trkpt lat="41.2782022" lon="1.4938094"><ele>169.0</ele><time>2026-05-04T16:08:52.924Z</time></trkpt><trkpt lat="41.2782317" lon="1.4939402"><ele>169.0</ele><time>2026-05-04T16:08:53.924Z</time></trkpt><trkpt lat="41.2782427" lon="1.4940766"><ele>168.79999999999998</ele><time>2026-05-04T16:08:54.924Z</time></trkpt><trkpt lat="41.2782417" lon="1.4942151"><ele>168.6</ele><time>2026-05-04T16:08:55.923Z</time></trkpt><trkpt lat="41.2782611" lon="1.4943425"><ele>168.4</ele><time>2026-05-04T16:08:56.924Z</time></trkpt><trkpt lat="41.2783072" lon="1.4944519"><ele>168.2</ele><time>2026-05-04T16:08:57.924Z</time></trkpt><trkpt lat="41.278372" lon="1.494558"><ele>168.0</ele><time>2026-05-04T16:08:58.924Z</time></trkpt><trkpt lat="41.2784287" lon="1.4946768"><ele>167.75</ele><time>2026-05-04T16:08:59.924Z</time></trkpt><trkpt lat="41.2784803" lon="1.4948052"><ele>167.5</ele><time>2026-05-04T16:09:00.924Z</time></trkpt><trkpt lat="41.2785155" lon="1.494957"><ele>167.25</ele><time>2026-05-04T16:09:01.923Z</time></trkpt><trkpt lat="41.2785586" lon="1.4951062"><ele>167.0</ele><time>2026-05-04T16:09:02.924Z</time></trkpt><trkpt lat="41.2785991" lon="1.4952682"><ele>167.0</ele><time>2026-05-04T16:09:03.924Z</time></trkpt><trkpt lat="41.2786384" lon="1.4954189"><ele>167.0</ele><time>2026-05-04T16:09:04.924Z</time></trkpt><trkpt lat="41.2786725" lon="1.4955689"><ele>167.0</ele><time>2026-05-04T16:09:05.924Z</time></trkpt><trkpt lat="41.2787034" lon="1.4957195"><ele>167.0</ele><time>2026-05-04T16:09:06.924Z</time></trkpt><trkpt lat="41.2787293" lon="1.4958706"><ele>167.5</ele><time>2026-05-04T16:09:07.924Z</time></trkpt><trkpt lat="41.2787526" lon="1.4960235"><ele>168.0</ele><time>2026-05-04T16:09:08.924Z</time></trkpt><trkpt lat="41.2787691" lon="1.4961753"><ele>168.5</ele><time>2026-05-04T16:09:09.923Z</time></trkpt><trkpt lat="41.2787845" lon="1.4963304"><ele>169.0</ele><time>2026-05-04T16:09:10.924Z</time></trkpt><trkpt lat="41.2787989" lon="1.4964829"><ele>169.0</ele><time>2026-05-04T16:09:11.924Z</time></trkpt><trkpt lat="41.2788117" lon="1.4966358"><ele>169.0</ele><time>2026-05-04T16:09:12.923Z</time></trkpt><trkpt lat="41.2788245" lon="1.4967901"><ele>169.0</ele><time>2026-05-04T16:09:13.924Z</time></trkpt><trkpt lat="41.2788374" lon="1.4969453"><ele>169.0</ele><time>2026-05-04T16:09:14.924Z</time></trkpt><trkpt lat="41.2788509" lon="1.4971001"><ele>169.0</ele><time>2026-05-04T16:09:15.924Z</time></trkpt><trkpt lat="41.2788623" lon="1.4972535"><ele>169.0</ele><time>2026-05-04T16:09:16.923Z</time></trkpt><trkpt lat="41.2788758" lon="1.4974073"><ele>169.0</ele><time>2026-05-04T16:09:17.924Z</time></trkpt><trkpt lat="41.2788893" lon="1.4975623"><ele>169.0</ele><time>2026-05-04T16:09:18.924Z</time></trkpt><trkpt lat="41.2789021" lon="1.4977204"><ele>169.0</ele><time>2026-05-04T16:09:19.924Z</time></trkpt><trkpt lat="41.2789141" lon="1.4978806"><ele>169.0</ele><time>2026-05-04T16:09:20.924Z</time></trkpt><trkpt lat="41.2789275" lon="1.4980411"><ele>169.0</ele><time>2026-05-04T16:09:21.924Z</time></trkpt><trkpt lat="41.278938" lon="1.4981939"><ele>169.0</ele><time>2026-05-04T16:09:22.924Z</time></trkpt><trkpt lat="41.278947" lon="1.4983384"><ele>169.2</ele><time>2026-05-04T16:09:23.924Z</time></trkpt><trkpt lat="41.2789563" lon="1.4984719"><ele>169.39999999999998</ele><time>2026-05-04T16:09:24.924Z</time></trkpt><trkpt lat="41.2789639" lon="1.4986008"><ele>169.6</ele><time>2026-05-04T16:09:25.924Z</time></trkpt><trkpt lat="41.2789663" lon="1.4987222"><ele>169.8</ele><time>2026-05-04T16:09:26.923Z</time></trkpt><trkpt lat="41.2789602" lon="1.4988324"><ele>170.0</ele><time>2026-05-04T16:09:27.923Z</time></trkpt><trkpt lat="41.2789409" lon="1.4989473"><ele>170.0</ele><time>2026-05-04T16:09:28.924Z</time></trkpt><trkpt lat="41.278917" lon="1.4990694"><ele>170.0</ele><time>2026-05-04T16:09:29.924Z</time></trkpt><trkpt lat="41.2788957" lon="1.4991958"><ele>170.0</ele><time>2026-05-04T16:09:30.924Z</time></trkpt><trkpt lat="41.2788933" lon="1.4993144"><ele>170.0</ele><time>2026-05-04T16:09:31.924Z</time></trkpt><trkpt lat="41.2789161" lon="1.4994237"><ele>170.0</ele><time>2026-05-04T16:09:32.924Z</time></trkpt><trkpt lat="41.2789561" lon="1.4995308"><ele>169.8</ele><time>2026-05-04T16:09:33.923Z</time></trkpt><trkpt lat="41.2790084" lon="1.4996397"><ele>169.6</ele><time>2026-05-04T16:09:34.924Z</time></trkpt><trkpt lat="41.279044" lon="1.4997638"><ele>169.39999999999998</ele><time>2026-05-04T16:09:35.924Z</time></trkpt><trkpt lat="41.2790693" lon="1.4998997"><ele>169.2</ele><time>2026-05-04T16:09:36.924Z</time></trkpt><trkpt lat="41.2790874" lon="1.5000382"><ele>169.0</ele><time>2026-05-04T16:09:37.924Z</time></trkpt><trkpt lat="41.2791027" lon="1.5001846"><ele>169.0</ele><time>2026-05-04T16:09:38.924Z</time></trkpt><trkpt lat="41.2791122" lon="1.500338"><ele>169.0</ele><time>2026-05-04T16:09:39.924Z</time></trkpt><trkpt lat="41.279131" lon="1.5004955"><ele>169.0</ele><time>2026-05-04T16:09:40.923Z</time></trkpt><trkpt lat="41.2791479" lon="1.5006569"><ele>169.0</ele><time>2026-05-04T16:09:41.924Z</time></trkpt><trkpt lat="41.2791591" lon="1.5008233"><ele>169.0</ele><time>2026-05-04T16:09:42.924Z</time></trkpt><trkpt lat="41.2791702" lon="1.5009911"><ele>169.0</ele><time>2026-05-04T16:09:43.924Z</time></trkpt><trkpt lat="41.2791817" lon="1.5011581"><ele>169.0</ele><time>2026-05-04T16:09:44.923Z</time></trkpt><trkpt lat="41.2791952" lon="1.5013279"><ele>169.0</ele><time>2026-05-04T16:09:45.923Z</time></trkpt><trkpt lat="41.2792091" lon="1.5014936"><ele>169.0</ele><time>2026-05-04T16:09:46.923Z</time></trkpt><trkpt lat="41.2792228" lon="1.5016497"><ele>169.0</ele><time>2026-05-04T16:09:47.924Z</time></trkpt><trkpt lat="41.279235" lon="1.501805"><ele>169.0</ele><time>2026-05-04T16:09:48.924Z</time></trkpt><trkpt lat="41.2792465" lon="1.5019588"><ele>169.0</ele><time>2026-05-04T16:09:49.924Z</time></trkpt><trkpt lat="41.2792606" lon="1.5021165"><ele>168.5</ele><time>2026-05-04T16:09:50.923Z</time></trkpt><trkpt lat="41.2792754" lon="1.5022717"><ele>168.0</ele><time>2026-05-04T16:09:51.923Z</time></trkpt><trkpt lat="41.2792883" lon="1.502428"><ele>167.5</ele><time>2026-05-04T16:09:52.924Z</time></trkpt><trkpt lat="41.2792994" lon="1.5025856"><ele>167.0</ele><time>2026-05-04T16:09:53.924Z</time></trkpt><trkpt lat="41.2793125" lon="1.5027451"><ele>167.0</ele><time>2026-05-04T16:09:54.923Z</time></trkpt><trkpt lat="41.2793275" lon="1.5029043"><ele>167.0</ele><time>2026-05-04T16:09:55.923Z</time></trkpt><trkpt lat="41.2793422" lon="1.5030656"><ele>167.0</ele><time>2026-05-04T16:09:56.924Z</time></trkpt><trkpt lat="41.2793605" lon="1.5032209"><ele>167.0</ele><time>2026-05-04T16:09:57.923Z</time></trkpt><trkpt lat="41.2793844" lon="1.5033718"><ele>166.75</ele><time>2026-05-04T16:09:58.924Z</time></trkpt><trkpt lat="41.2794066" lon="1.503536"><ele>166.5</ele><time>2026-05-04T16:09:59.924Z</time></trkpt><trkpt lat="41.2794361" lon="1.5036874"><ele>166.25</ele><time>2026-05-04T16:10:00.924Z</time></trkpt><trkpt lat="41.2794661" lon="1.5038387"><ele>166.0</ele><time>2026-05-04T16:10:01.924Z</time></trkpt><trkpt lat="41.279496" lon="1.5039894"><ele>166.5</ele><time>2026-05-04T16:10:02.924Z</time></trkpt><trkpt lat="41.2795276" lon="1.5041386"><ele>167.0</ele><time>2026-05-04T16:10:03.924Z</time></trkpt><trkpt lat="41.2795603" lon="1.5042864"><ele>167.5</ele><time>2026-05-04T16:10:04.924Z</time></trkpt><trkpt lat="41.2795942" lon="1.5044331"><ele>168.0</ele><time>2026-05-04T16:10:05.924Z</time></trkpt><trkpt lat="41.2796276" lon="1.5045807"><ele>168.0</ele><time>2026-05-04T16:10:06.924Z</time></trkpt><trkpt lat="41.2796595" lon="1.5047302"><ele>168.0</ele><time>2026-05-04T16:10:07.924Z</time></trkpt><trkpt lat="41.2796933" lon="1.504875"><ele>168.0</ele><time>2026-05-04T16:10:08.923Z</time></trkpt><trkpt lat="41.2797279" lon="1.5050195"><ele>168.0</ele><time>2026-05-04T16:10:09.924Z</time></trkpt><trkpt lat="41.279763" lon="1.5051614"><ele>168.0</ele><time>2026-05-04T16:10:10.923Z</time></trkpt><trkpt lat="41.2797965" lon="1.5053009"><ele>168.0</ele><time>2026-05-04T16:10:11.924Z</time></trkpt><trkpt lat="41.2798317" lon="1.5054439"><ele>168.0</ele><time>2026-05-04T16:10:12.924Z</time></trkpt><trkpt lat="41.2798657" lon="1.5056001"><ele>168.0</ele><time>2026-05-04T16:10:13.924Z</time></trkpt><trkpt lat="41.2799022" lon="1.5057356"><ele>168.0</ele><time>2026-05-04T16:10:14.924Z</time></trkpt><trkpt lat="41.2799387" lon="1.5058754"><ele>168.0</ele><time>2026-05-04T16:10:15.923Z</time></trkpt><trkpt lat="41.2799748" lon="1.5060262"><ele>168.0</ele><time>2026-05-04T16:10:16.923Z</time></trkpt><trkpt lat="41.2800099" lon="1.506186"><ele>168.0</ele><time>2026-05-04T16:10:17.924Z</time></trkpt><trkpt lat="41.2800425" lon="1.5063381"><ele>167.75</ele><time>2026-05-04T16:10:18.924Z</time></trkpt><trkpt lat="41.2800763" lon="1.5064864"><ele>167.5</ele><time>2026-05-04T16:10:19.924Z</time></trkpt><trkpt lat="41.2801107" lon="1.5066349"><ele>167.25</ele><time>2026-05-04T16:10:20.924Z</time></trkpt><trkpt lat="41.2801463" lon="1.5067801"><ele>167.0</ele><time>2026-05-04T16:10:21.924Z</time></trkpt><trkpt lat="41.2801791" lon="1.5069174"><ele>167.0</ele><time>2026-05-04T16:10:22.923Z</time></trkpt><trkpt lat="41.2802117" lon="1.5070582"><ele>167.0</ele><time>2026-05-04T16:10:23.923Z</time></trkpt><trkpt lat="41.2802441" lon="1.5072017"><ele>167.0</ele><time>2026-05-04T16:10:24.924Z</time></trkpt><trkpt lat="41.2802772" lon="1.5073459"><ele>167.0</ele><time>2026-05-04T16:10:25.924Z</time></trkpt><trkpt lat="41.2803106" lon="1.5074924"><ele>167.25</ele><time>2026-05-04T16:10:26.924Z</time></trkpt><trkpt lat="41.2803436" lon="1.507643"><ele>167.5</ele><time>2026-05-04T16:10:27.924Z</time></trkpt><trkpt lat="41.2803778" lon="1.5077897"><ele>167.75</ele><time>2026-05-04T16:10:28.924Z</time></trkpt><trkpt lat="41.2804109" lon="1.5079332"><ele>168.0</ele><time>2026-05-04T16:10:29.924Z</time></trkpt><trkpt lat="41.2804407" lon="1.5080755"><ele>168.0</ele><time>2026-05-04T16:10:30.924Z</time></trkpt><trkpt lat="41.2804702" lon="1.5082192"><ele>168.0</ele><time>2026-05-04T16:10:31.924Z</time></trkpt><trkpt lat="41.2805044" lon="1.5083609"><ele>168.0</ele><time>2026-05-04T16:10:32.923Z</time></trkpt><trkpt lat="41.2805378" lon="1.5085067"><ele>168.0</ele><time>2026-05-04T16:10:33.924Z</time></trkpt><trkpt lat="41.2805722" lon="1.5086522"><ele>169.5</ele><time>2026-05-04T16:10:34.925Z</time></trkpt><trkpt lat="41.2806065" lon="1.5087994"><ele>171.0</ele><time>2026-05-04T16:10:35.925Z</time></trkpt><trkpt lat="41.2806404" lon="1.5089439"><ele>172.5</ele><time>2026-05-04T16:10:36.925Z</time></trkpt><trkpt lat="41.280675" lon="1.5090893"><ele>174.0</ele><time>2026-05-04T16:10:37.925Z</time></trkpt><trkpt lat="41.2807056" lon="1.5092367"><ele>174.0</ele><time>2026-05-04T16:10:38.925Z</time></trkpt><trkpt lat="41.28074" lon="1.509382"><ele>174.0</ele><time>2026-05-04T16:10:39.925Z</time></trkpt><trkpt lat="41.2807744" lon="1.5095225"><ele>174.0</ele><time>2026-05-04T16:10:40.925Z</time></trkpt><trkpt lat="41.2808071" lon="1.5096668"><ele>174.0</ele><time>2026-05-04T16:10:41.925Z</time></trkpt><trkpt lat="41.2808378" lon="1.5098132"><ele>174.0</ele><time>2026-05-04T16:10:42.924Z</time></trkpt><trkpt lat="41.280866" lon="1.5099588"><ele>174.0</ele><time>2026-05-04T16:10:43.925Z</time></trkpt><trkpt lat="41.2808908" lon="1.5101034"><ele>174.0</ele><time>2026-05-04T16:10:44.925Z</time></trkpt><trkpt lat="41.2809146" lon="1.5102486"><ele>174.0</ele><time>2026-05-04T16:10:45.925Z</time></trkpt><trkpt lat="41.2809421" lon="1.5104005"><ele>174.0</ele><time>2026-05-04T16:10:46.925Z</time></trkpt><trkpt lat="41.2809672" lon="1.5105548"><ele>174.0</ele><time>2026-05-04T16:10:47.925Z</time></trkpt><trkpt lat="41.2809943" lon="1.5107075"><ele>174.0</ele><time>2026-05-04T16:10:48.925Z</time></trkpt><trkpt lat="41.2810204" lon="1.510862"><ele>174.0</ele><time>2026-05-04T16:10:49.924Z</time></trkpt><trkpt lat="41.2810424" lon="1.511025"><ele>174.0</ele><time>2026-05-04T16:10:50.925Z</time></trkpt><trkpt lat="41.2810711" lon="1.5111841"><ele>174.0</ele><time>2026-05-04T16:10:51.925Z</time></trkpt><trkpt lat="41.281095" lon="1.5113423"><ele>174.0</ele><time>2026-05-04T16:10:52.925Z</time></trkpt><trkpt lat="41.2811193" lon="1.5114997"><ele>174.0</ele><time>2026-05-04T16:10:53.925Z</time></trkpt><trkpt lat="41.2811432" lon="1.5116513"><ele>174.0</ele><time>2026-05-04T16:10:54.924Z</time></trkpt><trkpt lat="41.2811682" lon="1.5118036"><ele>174.0</ele><time>2026-05-04T16:10:55.925Z</time></trkpt><trkpt lat="41.2811931" lon="1.5119558"><ele>174.0</ele><time>2026-05-04T16:10:56.925Z</time></trkpt><trkpt lat="41.2812149" lon="1.5121099"><ele>174.0</ele><time>2026-05-04T16:10:57.925Z</time></trkpt><trkpt lat="41.2812428" lon="1.5122597"><ele>174.5</ele><time>2026-05-04T16:10:58.925Z</time></trkpt><trkpt lat="41.2812684" lon="1.5124095"><ele>175.0</ele><time>2026-05-04T16:10:59.925Z</time></trkpt><trkpt lat="41.2812889" lon="1.5125559"><ele>175.5</ele><time>2026-05-04T16:11:00.925Z</time></trkpt><trkpt lat="41.2813131" lon="1.5127095"><ele>176.0</ele><time>2026-05-04T16:11:01.925Z</time></trkpt><trkpt lat="41.2813379" lon="1.5128585"><ele>176.0</ele><time>2026-05-04T16:11:02.924Z</time></trkpt><trkpt lat="41.2813592" lon="1.5130092"><ele>176.0</ele><time>2026-05-04T16:11:03.925Z</time></trkpt><trkpt lat="41.2813813" lon="1.5131561"><ele>176.0</ele><time>2026-05-04T16:11:04.925Z</time></trkpt><trkpt lat="41.2814057" lon="1.5133053"><ele>176.0</ele><time>2026-05-04T16:11:05.925Z</time></trkpt><trkpt lat="41.2814328" lon="1.513455"><ele>176.0</ele><time>2026-05-04T16:11:06.925Z</time></trkpt><trkpt lat="41.2814573" lon="1.5136084"><ele>176.0</ele><time>2026-05-04T16:11:07.924Z</time></trkpt><trkpt lat="41.2814821" lon="1.5137617"><ele>176.0</ele><time>2026-05-04T16:11:08.925Z</time></trkpt><trkpt lat="41.2815074" lon="1.513913"><ele>176.0</ele><time>2026-05-04T16:11:09.924Z</time></trkpt><trkpt lat="41.2815337" lon="1.5140674"><ele>175.75</ele><time>2026-05-04T16:11:10.925Z</time></trkpt><trkpt lat="41.2815581" lon="1.5142263"><ele>175.5</ele><time>2026-05-04T16:11:11.925Z</time></trkpt><trkpt lat="41.2815836" lon="1.5143819"><ele>175.25</ele><time>2026-05-04T16:11:12.925Z</time></trkpt><trkpt lat="41.2816089" lon="1.5145342"><ele>175.0</ele><time>2026-05-04T16:11:13.925Z</time></trkpt><trkpt lat="41.2816328" lon="1.5146869"><ele>175.0</ele><time>2026-05-04T16:11:14.925Z</time></trkpt><trkpt lat="41.2816574" lon="1.5148385"><ele>175.0</ele><time>2026-05-04T16:11:15.925Z</time></trkpt><trkpt lat="41.2816818" lon="1.5149863"><ele>175.0</ele><time>2026-05-04T16:11:16.925Z</time></trkpt><trkpt lat="41.2817081" lon="1.5151367"><ele>175.0</ele><time>2026-05-04T16:11:17.925Z</time></trkpt><trkpt lat="41.2817365" lon="1.5152784"><ele>174.25</ele><time>2026-05-04T16:11:18.925Z</time></trkpt><trkpt lat="41.2817657" lon="1.5154266"><ele>173.5</ele><time>2026-05-04T16:11:19.925Z</time></trkpt><trkpt lat="41.2818079" lon="1.5155677"><ele>172.75</ele><time>2026-05-04T16:11:20.925Z</time></trkpt><trkpt lat="41.2818569" lon="1.5157058"><ele>172.0</ele><time>2026-05-04T16:11:21.925Z</time></trkpt><trkpt lat="41.2819186" lon="1.5158362"><ele>172.0</ele><time>2026-05-04T16:11:22.925Z</time></trkpt><trkpt lat="41.2819886" lon="1.5159604"><ele>172.0</ele><time>2026-05-04T16:11:23.925Z</time></trkpt><trkpt lat="41.282063" lon="1.5160812"><ele>172.0</ele><time>2026-05-04T16:11:24.925Z</time></trkpt><trkpt lat="41.2821421" lon="1.5161913"><ele>172.0</ele><time>2026-05-04T16:11:25.925Z</time></trkpt><trkpt lat="41.2822195" lon="1.5162996"><ele>172.6</ele><time>2026-05-04T16:11:26.925Z</time></trkpt><trkpt lat="41.2822928" lon="1.5164082"><ele>173.2</ele><time>2026-05-04T16:11:27.924Z</time></trkpt><trkpt lat="41.2823677" lon="1.5165154"><ele>173.8</ele><time>2026-05-04T16:11:28.925Z</time></trkpt><trkpt lat="41.2824453" lon="1.5166226"><ele>174.4</ele><time>2026-05-04T16:11:29.925Z</time></trkpt><trkpt lat="41.2825176" lon="1.5167303"><ele>175.0</ele><time>2026-05-04T16:11:30.925Z</time></trkpt><trkpt lat="41.2825853" lon="1.5168408"><ele>175.0</ele><time>2026-05-04T16:11:31.924Z</time></trkpt><trkpt lat="41.2826479" lon="1.5169537"><ele>175.0</ele><time>2026-05-04T16:11:32.925Z</time></trkpt><trkpt lat="41.2827096" lon="1.5170773"><ele>175.0</ele><time>2026-05-04T16:11:33.925Z</time></trkpt><trkpt lat="41.2827697" lon="1.5172027"><ele>175.0</ele><time>2026-05-04T16:11:34.925Z</time></trkpt><trkpt lat="41.2828263" lon="1.5173317"><ele>175.0</ele><time>2026-05-04T16:11:35.925Z</time></trkpt><trkpt lat="41.2828756" lon="1.5174686"><ele>174.0</ele><time>2026-05-04T16:11:36.925Z</time></trkpt><trkpt lat="41.2829188" lon="1.5176071"><ele>173.0</ele><time>2026-05-04T16:11:37.925Z</time></trkpt><trkpt lat="41.2829631" lon="1.5177519"><ele>172.0</ele><time>2026-05-04T16:11:38.924Z</time></trkpt><trkpt lat="41.283002" lon="1.5178939"><ele>171.0</ele><time>2026-05-04T16:11:39.925Z</time></trkpt><trkpt lat="41.2830381" lon="1.5180336"><ele>170.8</ele><time>2026-05-04T16:11:40.925Z</time></trkpt><trkpt lat="41.2830737" lon="1.5181727"><ele>170.60000000000002</ele><time>2026-05-04T16:11:41.925Z</time></trkpt><trkpt lat="41.2831106" lon="1.5183103"><ele>170.4</ele><time>2026-05-04T16:11:42.925Z</time></trkpt><trkpt lat="41.2831483" lon="1.5184463"><ele>170.2</ele><time>2026-05-04T16:11:43.925Z</time></trkpt><trkpt lat="41.2831875" lon="1.5185828"><ele>170.0</ele><time>2026-05-04T16:11:44.925Z</time></trkpt><trkpt lat="41.2832286" lon="1.5187232"><ele>171.0</ele><time>2026-05-04T16:11:45.925Z</time></trkpt><trkpt lat="41.2832717" lon="1.5188697"><ele>172.0</ele><time>2026-05-04T16:11:46.925Z</time></trkpt><trkpt lat="41.2833142" lon="1.5190093"><ele>173.0</ele><time>2026-05-04T16:11:47.925Z</time></trkpt><trkpt lat="41.2833516" lon="1.5191511"><ele>174.0</ele><time>2026-05-04T16:11:48.925Z</time></trkpt><trkpt lat="41.2833881" lon="1.5193007"><ele>174.0</ele><time>2026-05-04T16:11:49.924Z</time></trkpt><trkpt lat="41.2834207" lon="1.519458"><ele>174.0</ele><time>2026-05-04T16:11:50.925Z</time></trkpt><trkpt lat="41.2834511" lon="1.5196204"><ele>174.0</ele><time>2026-05-04T16:11:51.925Z</time></trkpt><trkpt lat="41.2834786" lon="1.5197856"><ele>174.0</ele><time>2026-05-04T16:11:52.925Z</time></trkpt><trkpt lat="41.2835046" lon="1.519955"><ele>173.0</ele><time>2026-05-04T16:11:53.925Z</time></trkpt><trkpt lat="41.2835324" lon="1.5201279"><ele>172.0</ele><time>2026-05-04T16:11:54.925Z</time></trkpt><trkpt lat="41.2835625" lon="1.5202979"><ele>171.0</ele><time>2026-05-04T16:11:55.925Z</time></trkpt><trkpt lat="41.2835899" lon="1.5204637"><ele>170.0</ele><time>2026-05-04T16:11:56.925Z</time></trkpt><trkpt lat="41.2836161" lon="1.5206286"><ele>169.5</ele><time>2026-05-04T16:11:57.925Z</time></trkpt><trkpt lat="41.2836445" lon="1.5207972"><ele>169.0</ele><time>2026-05-04T16:11:58.925Z</time></trkpt><trkpt lat="41.2836693" lon="1.5209649"><ele>168.5</ele><time>2026-05-04T16:11:59.925Z</time></trkpt><trkpt lat="41.2836971" lon="1.521131"><ele>168.0</ele><time>2026-05-04T16:12:00.925Z</time></trkpt><trkpt lat="41.2837225" lon="1.5212966"><ele>167.75</ele><time>2026-05-04T16:12:01.925Z</time></trkpt><trkpt lat="41.2837493" lon="1.5214609"><ele>167.5</ele><time>2026-05-04T16:12:02.925Z</time></trkpt><trkpt lat="41.283777" lon="1.5216238"><ele>167.25</ele><time>2026-05-04T16:12:03.925Z</time></trkpt><trkpt lat="41.2838042" lon="1.5217871"><ele>167.0</ele><time>2026-05-04T16:12:04.924Z</time></trkpt><trkpt lat="41.2838358" lon="1.5219467"><ele>167.0</ele><time>2026-05-04T16:12:05.925Z</time></trkpt><trkpt lat="41.2838632" lon="1.5221079"><ele>167.0</ele><time>2026-05-04T16:12:06.925Z</time></trkpt><trkpt lat="41.2838847" lon="1.5222704"><ele>167.0</ele><time>2026-05-04T16:12:07.925Z</time></trkpt><trkpt lat="41.283894" lon="1.522435"><ele>167.0</ele><time>2026-05-04T16:12:08.925Z</time></trkpt><trkpt lat="41.2838961" lon="1.5226014"><ele>167.0</ele><time>2026-05-04T16:12:09.925Z</time></trkpt><trkpt lat="41.2838864" lon="1.5227635"><ele>167.0</ele><time>2026-05-04T16:12:10.924Z</time></trkpt><trkpt lat="41.2838698" lon="1.522924"><ele>167.0</ele><time>2026-05-04T16:12:11.925Z</time></trkpt><trkpt lat="41.2838559" lon="1.5230822"><ele>167.0</ele><time>2026-05-04T16:12:12.925Z</time></trkpt><trkpt lat="41.2838461" lon="1.5232389"><ele>167.0</ele><time>2026-05-04T16:12:13.925Z</time></trkpt><trkpt lat="41.2838342" lon="1.5233941"><ele>167.0</ele><time>2026-05-04T16:12:14.925Z</time></trkpt><trkpt lat="41.2838286" lon="1.5235477"><ele>167.0</ele><time>2026-05-04T16:12:15.924Z</time></trkpt><trkpt lat="41.2838311" lon="1.5236984"><ele>167.0</ele><time>2026-05-04T16:12:16.925Z</time></trkpt><trkpt lat="41.2838396" lon="1.5238429"><ele>167.6</ele><time>2026-05-04T16:12:17.925Z</time></trkpt><trkpt lat="41.283854" lon="1.5239805"><ele>168.2</ele><time>2026-05-04T16:12:18.925Z</time></trkpt><trkpt lat="41.2838751" lon="1.5241178"><ele>168.8</ele><time>2026-05-04T16:12:19.925Z</time></trkpt><trkpt lat="41.2839056" lon="1.5242441"><ele>169.4</ele><time>2026-05-04T16:12:20.924Z</time></trkpt><trkpt lat="41.2839326" lon="1.5243759"><ele>170.0</ele><time>2026-05-04T16:12:21.924Z</time></trkpt><trkpt lat="41.2839613" lon="1.5245007"><ele>170.4</ele><time>2026-05-04T16:12:22.924Z</time></trkpt><trkpt lat="41.2839925" lon="1.5246379"><ele>170.8</ele><time>2026-05-04T16:12:23.925Z</time></trkpt><trkpt lat="41.2840267" lon="1.5247662"><ele>171.2</ele><time>2026-05-04T16:12:24.925Z</time></trkpt><trkpt lat="41.2840573" lon="1.5248932"><ele>171.6</ele><time>2026-05-04T16:12:25.924Z</time></trkpt><trkpt lat="41.2840846" lon="1.5250037"><ele>172.0</ele><time>2026-05-04T16:12:26.924Z</time></trkpt><trkpt lat="41.2841106" lon="1.5251099"><ele>172.0</ele><time>2026-05-04T16:12:27.924Z</time></trkpt><trkpt lat="41.2841287" lon="1.5251958"><ele>172.0</ele><time>2026-05-04T16:12:28.924Z</time></trkpt><trkpt lat="41.2841472" lon="1.5253265"><ele>172.0</ele><time>2026-05-04T16:12:30.925Z</time></trkpt><trkpt lat="41.2841776" lon="1.5254226"><ele>172.0</ele><time>2026-05-04T16:12:53.925Z</time></trkpt><trkpt lat="41.2841997" lon="1.5255164"><ele>172.0</ele><time>2026-05-04T16:12:55.925Z</time></trkpt><trkpt lat="41.2842314" lon="1.5256439"><ele>172.0</ele><time>2026-05-04T16:12:57.925Z</time></trkpt><trkpt lat="41.2842571" lon="1.5257234"><ele>171.66666666666669</ele><time>2026-05-04T16:12:58.925Z</time></trkpt><trkpt lat="41.2842832" lon="1.5258049"><ele>171.33333333333334</ele><time>2026-05-04T16:12:59.925Z</time></trkpt><trkpt lat="41.284305" lon="1.5259006"><ele>171.0</ele><time>2026-05-04T16:13:00.925Z</time></trkpt><trkpt lat="41.2843305" lon="1.5260072"><ele>170.66666666666666</ele><time>2026-05-04T16:13:01.925Z</time></trkpt><trkpt lat="41.2843553" lon="1.52611"><ele>170.33333333333331</ele><time>2026-05-04T16:13:02.925Z</time></trkpt><trkpt lat="41.2843832" lon="1.5262188"><ele>170.0</ele><time>2026-05-04T16:13:03.925Z</time></trkpt><trkpt lat="41.2844123" lon="1.5263312"><ele>170.0</ele><time>2026-05-04T16:13:04.925Z</time></trkpt><trkpt lat="41.284443" lon="1.5264389"><ele>170.0</ele><time>2026-05-04T16:13:05.926Z</time></trkpt><trkpt lat="41.2844659" lon="1.5265565"><ele>170.0</ele><time>2026-05-04T16:13:06.925Z</time></trkpt><trkpt lat="41.2844843" lon="1.5266734"><ele>170.0</ele><time>2026-05-04T16:13:07.926Z</time></trkpt><trkpt lat="41.2844953" lon="1.5268037"><ele>170.0</ele><time>2026-05-04T16:13:08.925Z</time></trkpt><trkpt lat="41.284494" lon="1.5269363"><ele>170.0</ele><time>2026-05-04T16:13:09.926Z</time></trkpt><trkpt lat="41.2844783" lon="1.5270599"><ele>170.0</ele><time>2026-05-04T16:13:10.926Z</time></trkpt><trkpt lat="41.2844567" lon="1.5271811"><ele>170.0</ele><time>2026-05-04T16:13:11.926Z</time></trkpt><trkpt lat="41.2844276" lon="1.5272952"><ele>170.0</ele><time>2026-05-04T16:13:12.926Z</time></trkpt><trkpt lat="41.2843803" lon="1.5273986"><ele>170.0</ele><time>2026-05-04T16:13:13.926Z</time></trkpt><trkpt lat="41.2843338" lon="1.5275167"><ele>169.8</ele><time>2026-05-04T16:13:14.926Z</time></trkpt><trkpt lat="41.2843036" lon="1.5276403"><ele>169.6</ele><time>2026-05-04T16:13:15.926Z</time></trkpt><trkpt lat="41.2842792" lon="1.5277681"><ele>169.39999999999998</ele><time>2026-05-04T16:13:16.925Z</time></trkpt><trkpt lat="41.2842381" lon="1.5278833"><ele>169.2</ele><time>2026-05-04T16:13:17.926Z</time></trkpt><trkpt lat="41.2841851" lon="1.5280105"><ele>169.0</ele><time>2026-05-04T16:13:18.926Z</time></trkpt><trkpt lat="41.2841393" lon="1.5281472"><ele>168.25</ele><time>2026-05-04T16:13:19.926Z</time></trkpt><trkpt lat="41.2840975" lon="1.5282842"><ele>167.5</ele><time>2026-05-04T16:13:20.926Z</time></trkpt><trkpt lat="41.2840601" lon="1.528425"><ele>166.75</ele><time>2026-05-04T16:13:21.926Z</time></trkpt><trkpt lat="41.2840194" lon="1.5285664"><ele>166.0</ele><time>2026-05-04T16:13:22.925Z</time></trkpt><trkpt lat="41.2839774" lon="1.5287106"><ele>166.0</ele><time>2026-05-04T16:13:23.925Z</time></trkpt><trkpt lat="41.2839314" lon="1.5288573"><ele>166.0</ele><time>2026-05-04T16:13:24.926Z</time></trkpt><trkpt lat="41.2838886" lon="1.5290073"><ele>166.0</ele><time>2026-05-04T16:13:25.926Z</time></trkpt><trkpt lat="41.2838438" lon="1.5291584"><ele>166.0</ele><time>2026-05-04T16:13:26.926Z</time></trkpt><trkpt lat="41.2838007" lon="1.5293136"><ele>165.25</ele><time>2026-05-04T16:13:27.926Z</time></trkpt><trkpt lat="41.2837601" lon="1.5294592"><ele>164.5</ele><time>2026-05-04T16:13:28.925Z</time></trkpt><trkpt lat="41.2837152" lon="1.5296035"><ele>163.75</ele><time>2026-05-04T16:13:29.926Z</time></trkpt><trkpt lat="41.2836687" lon="1.5297534"><ele>163.0</ele><time>2026-05-04T16:13:30.925Z</time></trkpt><trkpt lat="41.2836255" lon="1.5299089"><ele>163.0</ele><time>2026-05-04T16:13:31.926Z</time></trkpt><trkpt lat="41.2835759" lon="1.5300685"><ele>163.0</ele><time>2026-05-04T16:13:32.926Z</time></trkpt><trkpt lat="41.2835276" lon="1.5302351"><ele>163.0</ele><time>2026-05-04T16:13:33.925Z</time></trkpt><trkpt lat="41.2834814" lon="1.5304074"><ele>163.0</ele><time>2026-05-04T16:13:34.926Z</time></trkpt><trkpt lat="41.2834284" lon="1.5305783"><ele>162.5</ele><time>2026-05-04T16:13:35.926Z</time></trkpt><trkpt lat="41.2833747" lon="1.5307561"><ele>162.0</ele><time>2026-05-04T16:13:36.926Z</time></trkpt><trkpt lat="41.2833188" lon="1.5309351"><ele>161.5</ele><time>2026-05-04T16:13:37.925Z</time></trkpt><trkpt lat="41.2832619" lon="1.5311154"><ele>161.0</ele><time>2026-05-04T16:13:38.926Z</time></trkpt><trkpt lat="41.2832074" lon="1.5313061"><ele>160.25</ele><time>2026-05-04T16:13:39.926Z</time></trkpt><trkpt lat="41.2831501" lon="1.5314913"><ele>159.5</ele><time>2026-05-04T16:13:40.926Z</time></trkpt><trkpt lat="41.2830955" lon="1.5316737"><ele>158.75</ele><time>2026-05-04T16:13:41.926Z</time></trkpt><trkpt lat="41.2830392" lon="1.5318505"><ele>158.0</ele><time>2026-05-04T16:13:42.925Z</time></trkpt><trkpt lat="41.2829879" lon="1.5320265"><ele>158.75</ele><time>2026-05-04T16:13:43.925Z</time></trkpt><trkpt lat="41.2829342" lon="1.5322018"><ele>159.5</ele><time>2026-05-04T16:13:44.926Z</time></trkpt><trkpt lat="41.2828841" lon="1.53238"><ele>160.25</ele><time>2026-05-04T16:13:45.926Z</time></trkpt><trkpt lat="41.28283" lon="1.5325525"><ele>161.0</ele><time>2026-05-04T16:13:46.926Z</time></trkpt><trkpt lat="41.2827759" lon="1.5327228"><ele>161.5</ele><time>2026-05-04T16:13:47.925Z</time></trkpt><trkpt lat="41.2827258" lon="1.5328912"><ele>162.0</ele><time>2026-05-04T16:13:48.926Z</time></trkpt><trkpt lat="41.2826787" lon="1.5330635"><ele>162.5</ele><time>2026-05-04T16:13:49.925Z</time></trkpt><trkpt lat="41.2826315" lon="1.5332306"><ele>163.0</ele><time>2026-05-04T16:13:50.926Z</time></trkpt><trkpt lat="41.2825954" lon="1.5334029"><ele>163.0</ele><time>2026-05-04T16:13:51.926Z</time></trkpt><trkpt lat="41.2825725" lon="1.533581"><ele>163.0</ele><time>2026-05-04T16:13:52.925Z</time></trkpt><trkpt lat="41.2825542" lon="1.533762"><ele>163.0</ele><time>2026-05-04T16:13:53.926Z</time></trkpt><trkpt lat="41.2825339" lon="1.5339484"><ele>163.0</ele><time>2026-05-04T16:13:54.926Z</time></trkpt><trkpt lat="41.2825147" lon="1.5341288"><ele>163.25</ele><time>2026-05-04T16:13:55.926Z</time></trkpt><trkpt lat="41.2825046" lon="1.5343158"><ele>163.5</ele><time>2026-05-04T16:13:56.925Z</time></trkpt><trkpt lat="41.2824923" lon="1.5344948"><ele>163.75</ele><time>2026-05-04T16:13:57.926Z</time></trkpt><trkpt lat="41.2824769" lon="1.5346693"><ele>164.0</ele><time>2026-05-04T16:13:58.926Z</time></trkpt><trkpt lat="41.2824634" lon="1.5348387"><ele>164.0</ele><time>2026-05-04T16:13:59.926Z</time></trkpt><trkpt lat="41.2824543" lon="1.5350093"><ele>164.0</ele><time>2026-05-04T16:14:00.926Z</time></trkpt><trkpt lat="41.2824431" lon="1.5351727"><ele>164.0</ele><time>2026-05-04T16:14:01.926Z</time></trkpt><trkpt lat="41.2824311" lon="1.5353336"><ele>164.0</ele><time>2026-05-04T16:14:02.925Z</time></trkpt><trkpt lat="41.2824174" lon="1.5354896"><ele>164.25</ele><time>2026-05-04T16:14:03.926Z</time></trkpt><trkpt lat="41.2824033" lon="1.5356511"><ele>164.5</ele><time>2026-05-04T16:14:04.926Z</time></trkpt><trkpt lat="41.2823853" lon="1.5358164"><ele>164.75</ele><time>2026-05-04T16:14:05.926Z</time></trkpt><trkpt lat="41.2823767" lon="1.5359803"><ele>165.0</ele><time>2026-05-04T16:14:06.926Z</time></trkpt><trkpt lat="41.2823661" lon="1.5361441"><ele>164.75</ele><time>2026-05-04T16:14:07.926Z</time></trkpt><trkpt lat="41.2823549" lon="1.5363144"><ele>164.5</ele><time>2026-05-04T16:14:08.926Z</time></trkpt><trkpt lat="41.2823401" lon="1.536487"><ele>164.25</ele><time>2026-05-04T16:14:09.926Z</time></trkpt><trkpt lat="41.2823274" lon="1.5366608"><ele>164.0</ele><time>2026-05-04T16:14:10.926Z</time></trkpt><trkpt lat="41.2823105" lon="1.5368333"><ele>164.0</ele><time>2026-05-04T16:14:11.926Z</time></trkpt><trkpt lat="41.2822987" lon="1.5370078"><ele>164.0</ele><time>2026-05-04T16:14:12.926Z</time></trkpt><trkpt lat="41.2822862" lon="1.5371774"><ele>164.0</ele><time>2026-05-04T16:14:13.926Z</time></trkpt><trkpt lat="41.2822763" lon="1.5373425"><ele>164.0</ele><time>2026-05-04T16:14:14.926Z</time></trkpt><trkpt lat="41.2822636" lon="1.537508"><ele>163.75</ele><time>2026-05-04T16:14:15.926Z</time></trkpt><trkpt lat="41.28225" lon="1.5376778"><ele>163.5</ele><time>2026-05-04T16:14:16.926Z</time></trkpt><trkpt lat="41.2822367" lon="1.5378419"><ele>163.25</ele><time>2026-05-04T16:14:17.925Z</time></trkpt><trkpt lat="41.2822237" lon="1.5380092"><ele>163.0</ele><time>2026-05-04T16:14:18.926Z</time></trkpt><trkpt lat="41.2822124" lon="1.5381791"><ele>163.0</ele><time>2026-05-04T16:14:19.926Z</time></trkpt><trkpt lat="41.2822003" lon="1.5383499"><ele>163.0</ele><time>2026-05-04T16:14:20.926Z</time></trkpt><trkpt lat="41.2821884" lon="1.538523"><ele>163.0</ele><time>2026-05-04T16:14:21.925Z</time></trkpt><trkpt lat="41.2821796" lon="1.5386946"><ele>163.0</ele><time>2026-05-04T16:14:22.926Z</time></trkpt><trkpt lat="41.2821665" lon="1.5388686"><ele>163.0</ele><time>2026-05-04T16:14:23.926Z</time></trkpt><trkpt lat="41.2821532" lon="1.5390416"><ele>163.0</ele><time>2026-05-04T16:14:24.926Z</time></trkpt><trkpt lat="41.2821381" lon="1.5392142"><ele>163.0</ele><time>2026-05-04T16:14:25.926Z</time></trkpt><trkpt lat="41.2821259" lon="1.5393907"><ele>163.0</ele><time>2026-05-04T16:14:26.926Z</time></trkpt><trkpt lat="41.2821138" lon="1.539569"><ele>163.75</ele><time>2026-05-04T16:14:27.926Z</time></trkpt><trkpt lat="41.2820984" lon="1.5397504"><ele>164.5</ele><time>2026-05-04T16:14:28.925Z</time></trkpt><trkpt lat="41.2820858" lon="1.5399317"><ele>165.25</ele><time>2026-05-04T16:14:29.926Z</time></trkpt><trkpt lat="41.2820749" lon="1.5401103"><ele>166.0</ele><time>2026-05-04T16:14:30.926Z</time></trkpt><trkpt lat="41.2820595" lon="1.5402863"><ele>166.75</ele><time>2026-05-04T16:14:31.926Z</time></trkpt><trkpt lat="41.2820442" lon="1.5404589"><ele>167.5</ele><time>2026-05-04T16:14:32.925Z</time></trkpt><trkpt lat="41.2820326" lon="1.5406329"><ele>168.25</ele><time>2026-05-04T16:14:33.926Z</time></trkpt><trkpt lat="41.282016" lon="1.5408122"><ele>169.0</ele><time>2026-05-04T16:14:34.926Z</time></trkpt><trkpt lat="41.2820053" lon="1.5409862"><ele>169.0</ele><time>2026-05-04T16:14:35.926Z</time></trkpt><trkpt lat="41.2819987" lon="1.5411649"><ele>169.0</ele><time>2026-05-04T16:14:36.926Z</time></trkpt><trkpt lat="41.2820006" lon="1.5413388"><ele>169.0</ele><time>2026-05-04T16:14:37.926Z</time></trkpt><trkpt lat="41.2820206" lon="1.5415053"><ele>169.0</ele><time>2026-05-04T16:14:38.926Z</time></trkpt><trkpt lat="41.2820456" lon="1.5416698"><ele>168.25</ele><time>2026-05-04T16:14:39.926Z</time></trkpt><trkpt lat="41.2820796" lon="1.5418391"><ele>167.5</ele><time>2026-05-04T16:14:40.926Z</time></trkpt><trkpt lat="41.2821177" lon="1.5420045"><ele>166.75</ele><time>2026-05-04T16:14:41.925Z</time></trkpt><trkpt lat="41.2821579" lon="1.5421735"><ele>166.0</ele><time>2026-05-04T16:14:42.926Z</time></trkpt><trkpt lat="41.2821923" lon="1.5423342"><ele>165.75</ele><time>2026-05-04T16:14:43.926Z</time></trkpt><trkpt lat="41.2822293" lon="1.5424939"><ele>165.5</ele><time>2026-05-04T16:14:44.926Z</time></trkpt><trkpt lat="41.2822614" lon="1.5426502"><ele>165.25</ele><time>2026-05-04T16:14:45.926Z</time></trkpt><trkpt lat="41.2822791" lon="1.5428049"><ele>165.0</ele><time>2026-05-04T16:14:46.926Z</time></trkpt><trkpt lat="41.282269" lon="1.5429638"><ele>164.25</ele><time>2026-05-04T16:14:47.926Z</time></trkpt><trkpt lat="41.2822344" lon="1.5431074"><ele>163.5</ele><time>2026-05-04T16:14:48.926Z</time></trkpt><trkpt lat="41.282185" lon="1.5432373"><ele>162.75</ele><time>2026-05-04T16:14:49.926Z</time></trkpt><trkpt lat="41.2821282" lon="1.5433659"><ele>162.0</ele><time>2026-05-04T16:14:50.926Z</time></trkpt><trkpt lat="41.2820677" lon="1.5434958"><ele>162.0</ele><time>2026-05-04T16:14:51.926Z</time></trkpt><trkpt lat="41.2820051" lon="1.5436284"><ele>162.0</ele><time>2026-05-04T16:14:52.926Z</time></trkpt><trkpt lat="41.2819446" lon="1.5437621"><ele>162.0</ele><time>2026-05-04T16:14:53.925Z</time></trkpt><trkpt lat="41.2818849" lon="1.5438944"><ele>162.0</ele><time>2026-05-04T16:14:54.925Z</time></trkpt><trkpt lat="41.2818386" lon="1.5440225"><ele>162.0</ele><time>2026-05-04T16:14:55.925Z</time></trkpt><trkpt lat="41.2818033" lon="1.5441475"><ele>162.0</ele><time>2026-05-04T16:14:56.926Z</time></trkpt><trkpt lat="41.2817746" lon="1.5442678"><ele>162.0</ele><time>2026-05-04T16:14:57.926Z</time></trkpt><trkpt lat="41.2817576" lon="1.5443918"><ele>162.0</ele><time>2026-05-04T16:14:58.926Z</time></trkpt><trkpt lat="41.2817352" lon="1.5445118"><ele>162.0</ele><time>2026-05-04T16:14:59.926Z</time></trkpt><trkpt lat="41.2817091" lon="1.5446255"><ele>162.0</ele><time>2026-05-04T16:15:00.925Z</time></trkpt><trkpt lat="41.2816826" lon="1.5447433"><ele>162.0</ele><time>2026-05-04T16:15:01.926Z</time></trkpt><trkpt lat="41.2816644" lon="1.5448579"><ele>162.0</ele><time>2026-05-04T16:15:02.926Z</time></trkpt><trkpt lat="41.2816695" lon="1.5449718"><ele>162.0</ele><time>2026-05-04T16:15:03.926Z</time></trkpt><trkpt lat="41.2816858" lon="1.5450895"><ele>162.0</ele><time>2026-05-04T16:15:04.926Z</time></trkpt><trkpt lat="41.2816855" lon="1.5452119"><ele>162.0</ele><time>2026-05-04T16:15:05.926Z</time></trkpt><trkpt lat="41.2816726" lon="1.5453354"><ele>161.8</ele><time>2026-05-04T16:15:06.926Z</time></trkpt><trkpt lat="41.281659" lon="1.5454717"><ele>161.6</ele><time>2026-05-04T16:15:07.925Z</time></trkpt><trkpt lat="41.2816465" lon="1.5456077"><ele>161.4</ele><time>2026-05-04T16:15:08.925Z</time></trkpt><trkpt lat="41.2816363" lon="1.5457492"><ele>161.20000000000002</ele><time>2026-05-04T16:15:09.925Z</time></trkpt><trkpt lat="41.2816217" lon="1.545899"><ele>161.0</ele><time>2026-05-04T16:15:10.926Z</time></trkpt><trkpt lat="41.2816098" lon="1.5460453"><ele>161.0</ele><time>2026-05-04T16:15:11.926Z</time></trkpt><trkpt lat="41.2815973" lon="1.5461902"><ele>161.0</ele><time>2026-05-04T16:15:12.926Z</time></trkpt><trkpt lat="41.2815834" lon="1.5463345"><ele>161.0</ele><time>2026-05-04T16:15:13.926Z</time></trkpt><trkpt lat="41.2815715" lon="1.5464795"><ele>161.0</ele><time>2026-05-04T16:15:14.925Z</time></trkpt><trkpt lat="41.281559" lon="1.5466269"><ele>161.0</ele><time>2026-05-04T16:15:15.926Z</time></trkpt><trkpt lat="41.2815454" lon="1.5467751"><ele>161.0</ele><time>2026-05-04T16:15:16.926Z</time></trkpt><trkpt lat="41.2815316" lon="1.5469279"><ele>161.0</ele><time>2026-05-04T16:15:17.926Z</time></trkpt><trkpt lat="41.2815099" lon="1.5470797"><ele>161.0</ele><time>2026-05-04T16:15:18.926Z</time></trkpt><trkpt lat="41.2814853" lon="1.547235"><ele>161.0</ele><time>2026-05-04T16:15:19.925Z</time></trkpt><trkpt lat="41.2814482" lon="1.5473924"><ele>160.60000000000002</ele><time>2026-05-04T16:15:20.925Z</time></trkpt><trkpt lat="41.2814088" lon="1.5475338"><ele>160.20000000000002</ele><time>2026-05-04T16:15:21.926Z</time></trkpt><trkpt lat="41.2813642" lon="1.547664"><ele>159.8</ele><time>2026-05-04T16:15:22.926Z</time></trkpt><trkpt lat="41.2813197" lon="1.5477764"><ele>159.4</ele><time>2026-05-04T16:15:23.926Z</time></trkpt><trkpt lat="41.2812702" lon="1.5478896"><ele>159.0</ele><time>2026-05-04T16:15:24.926Z</time></trkpt><trkpt lat="41.2812168" lon="1.5479915"><ele>158.83333333333334</ele><time>2026-05-04T16:15:25.925Z</time></trkpt><trkpt lat="41.2811576" lon="1.5480817"><ele>158.66666666666666</ele><time>2026-05-04T16:15:26.925Z</time></trkpt><trkpt lat="41.2810913" lon="1.5481573"><ele>158.5</ele><time>2026-05-04T16:15:27.926Z</time></trkpt><trkpt lat="41.2810497" lon="1.5482473"><ele>158.33333333333331</ele><time>2026-05-04T16:15:28.926Z</time></trkpt><trkpt lat="41.2810339" lon="1.5483616"><ele>158.16666666666666</ele><time>2026-05-04T16:15:29.926Z</time></trkpt><trkpt lat="41.2810268" lon="1.5484621"><ele>158.0</ele><time>2026-05-04T16:15:30.926Z</time></trkpt><trkpt lat="41.2810064" lon="1.5485662"><ele>158.0</ele><time>2026-05-04T16:15:31.925Z</time></trkpt><trkpt lat="41.2809759" lon="1.5486689"><ele>158.0</ele><time>2026-05-04T16:15:32.926Z</time></trkpt><trkpt lat="41.2809372" lon="1.5487797"><ele>158.0</ele><time>2026-05-04T16:15:33.926Z</time></trkpt><trkpt lat="41.2809035" lon="1.5488904"><ele>158.0</ele><time>2026-05-04T16:15:34.926Z</time></trkpt><trkpt lat="41.2808587" lon="1.5490076"><ele>158.0</ele><time>2026-05-04T16:15:35.926Z</time></trkpt><trkpt lat="41.2808096" lon="1.5491272"><ele>157.8</ele><time>2026-05-04T16:15:36.926Z</time></trkpt><trkpt lat="41.280759" lon="1.549251"><ele>157.60000000000002</ele><time>2026-05-04T16:15:37.927Z</time></trkpt><trkpt lat="41.2807088" lon="1.5493724"><ele>157.39999999999998</ele><time>2026-05-04T16:15:38.927Z</time></trkpt><trkpt lat="41.2806614" lon="1.5495031"><ele>157.2</ele><time>2026-05-04T16:15:39.927Z</time></trkpt><trkpt lat="41.2806115" lon="1.5496377"><ele>157.0</ele><time>2026-05-04T16:15:40.927Z</time></trkpt><trkpt lat="41.2805593" lon="1.5497683"><ele>156.2</ele><time>2026-05-04T16:15:41.927Z</time></trkpt><trkpt lat="41.2805082" lon="1.5498959"><ele>155.39999999999998</ele><time>2026-05-04T16:15:42.927Z</time></trkpt><trkpt lat="41.2804636" lon="1.5500173"><ele>154.60000000000002</ele><time>2026-05-04T16:15:43.927Z</time></trkpt><trkpt lat="41.2804161" lon="1.5501405"><ele>153.8</ele><time>2026-05-04T16:15:44.926Z</time></trkpt><trkpt lat="41.2803721" lon="1.5502699"><ele>153.0</ele><time>2026-05-04T16:15:45.927Z</time></trkpt><trkpt lat="41.2803317" lon="1.5503972"><ele>152.6</ele><time>2026-05-04T16:15:46.927Z</time></trkpt><trkpt lat="41.2802919" lon="1.550529"><ele>152.20000000000002</ele><time>2026-05-04T16:15:47.927Z</time></trkpt><trkpt lat="41.2802566" lon="1.55066"><ele>151.8</ele><time>2026-05-04T16:15:48.927Z</time></trkpt><trkpt lat="41.2802272" lon="1.5507912"><ele>151.4</ele><time>2026-05-04T16:15:49.927Z</time></trkpt><trkpt lat="41.2802006" lon="1.5509248"><ele>151.0</ele><time>2026-05-04T16:15:50.927Z</time></trkpt><trkpt lat="41.2801774" lon="1.5510609"><ele>151.0</ele><time>2026-05-04T16:15:51.926Z</time></trkpt><trkpt lat="41.2801573" lon="1.5512023"><ele>151.0</ele><time>2026-05-04T16:15:52.926Z</time></trkpt><trkpt lat="41.2801388" lon="1.5513399"><ele>151.0</ele><time>2026-05-04T16:15:53.927Z</time></trkpt><trkpt lat="41.2801199" lon="1.5514744"><ele>151.0</ele><time>2026-05-04T16:15:54.926Z</time></trkpt><trkpt lat="41.2801062" lon="1.5516065"><ele>151.0</ele><time>2026-05-04T16:15:55.927Z</time></trkpt><trkpt lat="41.2800939" lon="1.5517425"><ele>150.4</ele><time>2026-05-04T16:15:56.927Z</time></trkpt><trkpt lat="41.280081" lon="1.5518815"><ele>149.8</ele><time>2026-05-04T16:15:57.927Z</time></trkpt><trkpt lat="41.2800696" lon="1.5520222"><ele>149.20000000000002</ele><time>2026-05-04T16:15:58.927Z</time></trkpt><trkpt lat="41.2800553" lon="1.5521651"><ele>148.6</ele><time>2026-05-04T16:15:59.927Z</time></trkpt><trkpt lat="41.2800455" lon="1.5522971"><ele>148.0</ele><time>2026-05-04T16:16:00.927Z</time></trkpt><trkpt lat="41.2800335" lon="1.5524296"><ele>148.0</ele><time>2026-05-04T16:16:01.927Z</time></trkpt><trkpt lat="41.2800221" lon="1.5525497"><ele>148.0</ele><time>2026-05-04T16:16:02.927Z</time></trkpt><trkpt lat="41.2800085" lon="1.5526736"><ele>148.0</ele><time>2026-05-04T16:16:03.927Z</time></trkpt><trkpt lat="41.2799976" lon="1.5527906"><ele>148.0</ele><time>2026-05-04T16:16:04.927Z</time></trkpt><trkpt lat="41.2799847" lon="1.5529029"><ele>148.0</ele><time>2026-05-04T16:16:05.927Z</time></trkpt><trkpt lat="41.2799622" lon="1.5530106"><ele>148.0</ele><time>2026-05-04T16:16:06.927Z</time></trkpt><trkpt lat="41.279926" lon="1.5531055"><ele>148.5</ele><time>2026-05-04T16:16:07.927Z</time></trkpt><trkpt lat="41.279891" lon="1.5531861"><ele>149.0</ele><time>2026-05-04T16:16:08.927Z</time></trkpt><trkpt lat="41.2798586" lon="1.5532731"><ele>149.5</ele><time>2026-05-04T16:16:09.926Z</time></trkpt><trkpt lat="41.2798424" lon="1.5533645"><ele>150.0</ele><time>2026-05-04T16:16:10.927Z</time></trkpt><trkpt lat="41.2798643" lon="1.5534464"><ele>150.5</ele><time>2026-05-04T16:16:11.926Z</time></trkpt><trkpt lat="41.2799631" lon="1.5535195"><ele>151.0</ele><time>2026-05-04T16:16:13.927Z</time></trkpt><trkpt lat="41.2800774" lon="1.5534609"><ele>151.0</ele><time>2026-05-04T16:16:15.927Z</time></trkpt><trkpt lat="41.2801391" lon="1.5534278"><ele>151.0</ele><time>2026-05-04T16:16:16.927Z</time></trkpt><trkpt lat="41.2802136" lon="1.5534081"><ele>151.0</ele><time>2026-05-04T16:16:17.926Z</time></trkpt><trkpt lat="41.280299" lon="1.5534085"><ele>151.0</ele><time>2026-05-04T16:16:18.927Z</time></trkpt><trkpt lat="41.2803801" lon="1.5534293"><ele>151.0</ele><time>2026-05-04T16:16:19.927Z</time></trkpt><trkpt lat="41.2804644" lon="1.5534464"><ele>151.0</ele><time>2026-05-04T16:16:20.927Z</time></trkpt><trkpt lat="41.2805501" lon="1.5534627"><ele>151.66666666666669</ele><time>2026-05-04T16:16:21.927Z</time></trkpt><trkpt lat="41.2806329" lon="1.5534823"><ele>152.33333333333334</ele><time>2026-05-04T16:16:22.927Z</time></trkpt><trkpt lat="41.2807147" lon="1.553493"><ele>153.0</ele><time>2026-05-04T16:16:23.927Z</time></trkpt><trkpt lat="41.2807988" lon="1.5535085"><ele>153.66666666666666</ele><time>2026-05-04T16:16:24.927Z</time></trkpt><trkpt lat="41.2808794" lon="1.5535215"><ele>154.33333333333331</ele><time>2026-05-04T16:16:25.926Z</time></trkpt><trkpt lat="41.2809627" lon="1.5535381"><ele>155.0</ele><time>2026-05-04T16:16:26.927Z</time></trkpt><trkpt lat="41.2810416" lon="1.5535519"><ele>155.0</ele><time>2026-05-04T16:16:27.926Z</time></trkpt><trkpt lat="41.2811237" lon="1.5535684"><ele>155.0</ele><time>2026-05-04T16:16:28.927Z</time></trkpt><trkpt lat="41.2812006" lon="1.5535849"><ele>155.0</ele><time>2026-05-04T16:16:29.927Z</time></trkpt><trkpt lat="41.2812825" lon="1.553599"><ele>155.0</ele><time>2026-05-04T16:16:30.927Z</time></trkpt><trkpt lat="41.2813617" lon="1.5536138"><ele>155.0</ele><time>2026-05-04T16:16:31.927Z</time></trkpt><trkpt lat="41.2814463" lon="1.5536275"><ele>155.0</ele><time>2026-05-04T16:16:32.927Z</time></trkpt><trkpt lat="41.2815246" lon="1.5536499"><ele>155.83333333333331</ele><time>2026-05-04T16:16:33.927Z</time></trkpt><trkpt lat="41.281602" lon="1.5536701"><ele>156.66666666666666</ele><time>2026-05-04T16:16:34.927Z</time></trkpt><trkpt lat="41.2816767" lon="1.5536983"><ele>157.5</ele><time>2026-05-04T16:16:35.927Z</time></trkpt><trkpt lat="41.2817595" lon="1.5537282"><ele>158.33333333333334</ele><time>2026-05-04T16:16:36.927Z</time></trkpt><trkpt lat="41.2818406" lon="1.5537547"><ele>159.16666666666669</ele><time>2026-05-04T16:16:37.927Z</time></trkpt><trkpt lat="41.2819264" lon="1.5537824"><ele>160.0</ele><time>2026-05-04T16:16:38.927Z</time></trkpt><trkpt lat="41.2820103" lon="1.5538095"><ele>160.0</ele><time>2026-05-04T16:16:39.927Z</time></trkpt><trkpt lat="41.2820989" lon="1.5538306"><ele>160.0</ele><time>2026-05-04T16:16:40.926Z</time></trkpt><trkpt lat="41.2821836" lon="1.5538565"><ele>160.0</ele><time>2026-05-04T16:16:41.926Z</time></trkpt><trkpt lat="41.2822717" lon="1.5538845"><ele>160.0</ele><time>2026-05-04T16:16:42.927Z</time></trkpt><trkpt lat="41.2823647" lon="1.5539097"><ele>160.0</ele><time>2026-05-04T16:16:43.927Z</time></trkpt><trkpt lat="41.2824717" lon="1.5539308"><ele>160.4</ele><time>2026-05-04T16:16:44.926Z</time></trkpt><trkpt lat="41.2825666" lon="1.5539613"><ele>160.8</ele><time>2026-05-04T16:16:45.926Z</time></trkpt><trkpt lat="41.2826601" lon="1.5539966"><ele>161.2</ele><time>2026-05-04T16:16:46.927Z</time></trkpt><trkpt lat="41.2827543" lon="1.5540265"><ele>161.6</ele><time>2026-05-04T16:16:47.927Z</time></trkpt><trkpt lat="41.2828497" lon="1.5540578"><ele>162.0</ele><time>2026-05-04T16:16:48.927Z</time></trkpt><trkpt lat="41.2829452" lon="1.554087"><ele>162.0</ele><time>2026-05-04T16:16:49.926Z</time></trkpt><trkpt lat="41.2830435" lon="1.5541157"><ele>162.0</ele><time>2026-05-04T16:16:50.926Z</time></trkpt><trkpt lat="41.2831416" lon="1.5541501"><ele>162.0</ele><time>2026-05-04T16:16:51.926Z</time></trkpt><trkpt lat="41.2832419" lon="1.5541822"><ele>162.0</ele><time>2026-05-04T16:16:52.927Z</time></trkpt><trkpt lat="41.2833425" lon="1.5542191"><ele>162.0</ele><time>2026-05-04T16:16:53.927Z</time></trkpt><trkpt lat="41.2834457" lon="1.554253"><ele>161.2</ele><time>2026-05-04T16:16:54.927Z</time></trkpt><trkpt lat="41.2835475" lon="1.5542855"><ele>160.39999999999998</ele><time>2026-05-04T16:16:55.926Z</time></trkpt><trkpt lat="41.2836527" lon="1.5543158"><ele>159.60000000000002</ele><time>2026-05-04T16:16:56.926Z</time></trkpt><trkpt lat="41.2837581" lon="1.5543449"><ele>158.8</ele><time>2026-05-04T16:16:57.927Z</time></trkpt><trkpt lat="41.2838665" lon="1.5543789"><ele>158.0</ele><time>2026-05-04T16:16:58.926Z</time></trkpt><trkpt lat="41.2839733" lon="1.554413"><ele>158.0</ele><time>2026-05-04T16:16:59.927Z</time></trkpt><trkpt lat="41.2840844" lon="1.5544465"><ele>158.0</ele><time>2026-05-04T16:17:00.927Z</time></trkpt><trkpt lat="41.2841962" lon="1.5544812"><ele>158.0</ele><time>2026-05-04T16:17:01.927Z</time></trkpt><trkpt lat="41.2843099" lon="1.5545156"><ele>158.0</ele><time>2026-05-04T16:17:02.927Z</time></trkpt><trkpt lat="41.2844256" lon="1.5545491"><ele>157.75</ele><time>2026-05-04T16:17:03.927Z</time></trkpt><trkpt lat="41.284542" lon="1.5545889"><ele>157.5</ele><time>2026-05-04T16:17:04.927Z</time></trkpt><trkpt lat="41.2846599" lon="1.554628"><ele>157.25</ele><time>2026-05-04T16:17:05.927Z</time></trkpt><trkpt lat="41.2847792" lon="1.554666"><ele>157.0</ele><time>2026-05-04T16:17:06.927Z</time></trkpt><trkpt lat="41.2849" lon="1.5546933"><ele>157.5</ele><time>2026-05-04T16:17:07.927Z</time></trkpt><trkpt lat="41.2850209" lon="1.5547312"><ele>158.0</ele><time>2026-05-04T16:17:08.927Z</time></trkpt><trkpt lat="41.2851429" lon="1.554769"><ele>158.5</ele><time>2026-05-04T16:17:09.927Z</time></trkpt><trkpt lat="41.2852628" lon="1.5548046"><ele>159.0</ele><time>2026-05-04T16:17:10.927Z</time></trkpt><trkpt lat="41.2853822" lon="1.5548359"><ele>159.0</ele><time>2026-05-04T16:17:11.926Z</time></trkpt><trkpt lat="41.2854975" lon="1.5548636"><ele>159.0</ele><time>2026-05-04T16:17:12.927Z</time></trkpt><trkpt lat="41.2856016" lon="1.5548857"><ele>159.0</ele><time>2026-05-04T16:17:13.926Z</time></trkpt><trkpt lat="41.2856918" lon="1.5549115"><ele>159.0</ele><time>2026-05-04T16:17:14.927Z</time></trkpt><trkpt lat="41.2857601" lon="1.554942"><ele>159.0</ele><time>2026-05-04T16:17:15.927Z</time></trkpt><trkpt lat="41.2858284" lon="1.5549694"><ele>159.6</ele><time>2026-05-04T16:17:16.926Z</time></trkpt><trkpt lat="41.285894" lon="1.5550163"><ele>160.2</ele><time>2026-05-04T16:17:17.927Z</time></trkpt><trkpt lat="41.2859535" lon="1.5551569"><ele>160.79999999999998</ele><time>2026-05-04T16:17:19.927Z</time></trkpt><trkpt lat="41.2859722" lon="1.5552655"><ele>161.4</ele><time>2026-05-04T16:17:20.927Z</time></trkpt><trkpt lat="41.285964" lon="1.5553941"><ele>162.0</ele><time>2026-05-04T16:17:21.927Z</time></trkpt><trkpt lat="41.2859466" lon="1.5555291"><ele>162.0</ele><time>2026-05-04T16:17:22.927Z</time></trkpt><trkpt lat="41.2859241" lon="1.555671"><ele>162.0</ele><time>2026-05-04T16:17:23.927Z</time></trkpt><trkpt lat="41.2858898" lon="1.5558347"><ele>162.0</ele><time>2026-05-04T16:17:24.927Z</time></trkpt><trkpt lat="41.2858435" lon="1.5560176"><ele>162.0</ele><time>2026-05-04T16:17:25.927Z</time></trkpt><trkpt lat="41.2858037" lon="1.5562041"><ele>162.25</ele><time>2026-05-04T16:17:26.927Z</time></trkpt><trkpt lat="41.2857609" lon="1.5563916"><ele>162.5</ele><time>2026-05-04T16:17:27.927Z</time></trkpt><trkpt lat="41.2857467" lon="1.5565508"><ele>162.75</ele><time>2026-05-04T16:17:28.927Z</time></trkpt><trkpt lat="41.2857321" lon="1.556714"><ele>163.0</ele><time>2026-05-04T16:17:29.927Z</time></trkpt><trkpt lat="41.2857293" lon="1.5568447"><ele>163.0</ele><time>2026-05-04T16:17:30.927Z</time></trkpt><trkpt lat="41.285705" lon="1.5570182"><ele>163.0</ele><time>2026-05-04T16:17:31.927Z</time></trkpt><trkpt lat="41.2856898" lon="1.5571776"><ele>163.0</ele><time>2026-05-04T16:17:32.927Z</time></trkpt><trkpt lat="41.2856756" lon="1.5573377"><ele>163.0</ele><time>2026-05-04T16:17:33.927Z</time></trkpt><trkpt lat="41.2856611" lon="1.5574963"><ele>163.0</ele><time>2026-05-04T16:17:34.927Z</time></trkpt><trkpt lat="41.285646" lon="1.5576551"><ele>163.0</ele><time>2026-05-04T16:17:35.926Z</time></trkpt><trkpt lat="41.2856314" lon="1.557815"><ele>163.0</ele><time>2026-05-04T16:17:36.926Z</time></trkpt><trkpt lat="41.2856168" lon="1.5579722"><ele>163.0</ele><time>2026-05-04T16:17:37.927Z</time></trkpt><trkpt lat="41.2856021" lon="1.5581312"><ele>162.25</ele><time>2026-05-04T16:17:38.927Z</time></trkpt><trkpt lat="41.2855859" lon="1.5582981"><ele>161.5</ele><time>2026-05-04T16:17:39.927Z</time></trkpt><trkpt lat="41.2855695" lon="1.5584613"><ele>160.75</ele><time>2026-05-04T16:17:40.927Z</time></trkpt><trkpt lat="41.2855546" lon="1.5586188"><ele>160.0</ele><time>2026-05-04T16:17:41.927Z</time></trkpt><trkpt lat="41.2855438" lon="1.5587727"><ele>160.0</ele><time>2026-05-04T16:17:42.927Z</time></trkpt><trkpt lat="41.2855304" lon="1.5589222"><ele>160.0</ele><time>2026-05-04T16:17:43.926Z</time></trkpt><trkpt lat="41.2855203" lon="1.5590687"><ele>160.0</ele><time>2026-05-04T16:17:44.927Z</time></trkpt><trkpt lat="41.2855074" lon="1.559217"><ele>160.0</ele><time>2026-05-04T16:17:45.927Z</time></trkpt><trkpt lat="41.2854934" lon="1.5593653"><ele>160.0</ele><time>2026-05-04T16:17:46.927Z</time></trkpt><trkpt lat="41.2854813" lon="1.5595077"><ele>160.6</ele><time>2026-05-04T16:17:47.927Z</time></trkpt><trkpt lat="41.2854711" lon="1.5596505"><ele>161.2</ele><time>2026-05-04T16:17:48.927Z</time></trkpt><trkpt lat="41.2854592" lon="1.5597913"><ele>161.8</ele><time>2026-05-04T16:17:49.927Z</time></trkpt><trkpt lat="41.2854486" lon="1.5599242"><ele>162.4</ele><time>2026-05-04T16:17:50.927Z</time></trkpt><trkpt lat="41.2854407" lon="1.5600498"><ele>163.0</ele><time>2026-05-04T16:17:51.927Z</time></trkpt><trkpt lat="41.2854351" lon="1.5601666"><ele>163.0</ele><time>2026-05-04T16:17:52.926Z</time></trkpt><trkpt lat="41.2854269" lon="1.5602697"><ele>163.0</ele><time>2026-05-04T16:17:53.927Z</time></trkpt><trkpt lat="41.2854012" lon="1.5603603"><ele>163.0</ele><time>2026-05-04T16:17:54.927Z</time></trkpt><trkpt lat="41.285375" lon="1.5604428"><ele>163.0</ele><time>2026-05-04T16:17:55.927Z</time></trkpt><trkpt lat="41.285346" lon="1.5605284"><ele>163.0</ele><time>2026-05-04T16:17:56.927Z</time></trkpt><trkpt lat="41.2853123" lon="1.5606334"><ele>163.0</ele><time>2026-05-04T16:17:57.926Z</time></trkpt><trkpt lat="41.2852985" lon="1.5607326"><ele>162.8</ele><time>2026-05-04T16:17:58.927Z</time></trkpt><trkpt lat="41.2853001" lon="1.5608397"><ele>162.60000000000002</ele><time>2026-05-04T16:17:59.927Z</time></trkpt><trkpt lat="41.2853047" lon="1.5609262"><ele>162.39999999999998</ele><time>2026-05-04T16:18:00.927Z</time></trkpt><trkpt lat="41.2852797" lon="1.5610097"><ele>162.2</ele><time>2026-05-04T16:18:01.926Z</time></trkpt><trkpt lat="41.2852428" lon="1.5612195"><ele>162.0</ele><time>2026-05-04T16:18:03.927Z</time></trkpt><trkpt lat="41.2852164" lon="1.5613268"><ele>162.0</ele><time>2026-05-04T16:18:04.927Z</time></trkpt><trkpt lat="41.2851864" lon="1.5614593"><ele>162.0</ele><time>2026-05-04T16:18:05.927Z</time></trkpt><trkpt lat="41.2851652" lon="1.5616016"><ele>162.0</ele><time>2026-05-04T16:18:06.927Z</time></trkpt><trkpt lat="41.285152" lon="1.5617659"><ele>162.0</ele><time>2026-05-04T16:18:07.926Z</time></trkpt><trkpt lat="41.2851323" lon="1.5619149"><ele>162.75</ele><time>2026-05-04T16:18:08.927Z</time></trkpt><trkpt lat="41.2851127" lon="1.5620653"><ele>163.5</ele><time>2026-05-04T16:18:09.927Z</time></trkpt><trkpt lat="41.2850957" lon="1.5622448"><ele>164.25</ele><time>2026-05-04T16:18:10.927Z</time></trkpt><trkpt lat="41.2850713" lon="1.5623909"><ele>165.0</ele><time>2026-05-04T16:18:11.928Z</time></trkpt><trkpt lat="41.2850523" lon="1.5625623"><ele>165.0</ele><time>2026-05-04T16:18:12.928Z</time></trkpt><trkpt lat="41.2850331" lon="1.562704"><ele>165.0</ele><time>2026-05-04T16:18:13.927Z</time></trkpt><trkpt lat="41.2850138" lon="1.562846"><ele>165.0</ele><time>2026-05-04T16:18:14.928Z</time></trkpt><trkpt lat="41.2849954" lon="1.5629992"><ele>165.0</ele><time>2026-05-04T16:18:15.928Z</time></trkpt><trkpt lat="41.2849752" lon="1.5631503"><ele>165.0</ele><time>2026-05-04T16:18:16.928Z</time></trkpt><trkpt lat="41.2849563" lon="1.5633042"><ele>165.5</ele><time>2026-05-04T16:18:17.927Z</time></trkpt><trkpt lat="41.2849382" lon="1.5634621"><ele>166.0</ele><time>2026-05-04T16:18:18.928Z</time></trkpt><trkpt lat="41.2849214" lon="1.5636185"><ele>166.5</ele><time>2026-05-04T16:18:19.928Z</time></trkpt><trkpt lat="41.284908" lon="1.5637861"><ele>167.0</ele><time>2026-05-04T16:18:20.928Z</time></trkpt><trkpt lat="41.2848987" lon="1.5639534"><ele>167.25</ele><time>2026-05-04T16:18:21.928Z</time></trkpt><trkpt lat="41.2848842" lon="1.5641205"><ele>167.5</ele><time>2026-05-04T16:18:22.928Z</time></trkpt><trkpt lat="41.2848717" lon="1.5642865"><ele>167.75</ele><time>2026-05-04T16:18:23.928Z</time></trkpt><trkpt lat="41.2848598" lon="1.5644588"><ele>168.0</ele><time>2026-05-04T16:18:24.928Z</time></trkpt><trkpt lat="41.284847" lon="1.5646313"><ele>168.0</ele><time>2026-05-04T16:18:25.927Z</time></trkpt><trkpt lat="41.2848384" lon="1.564811"><ele>168.0</ele><time>2026-05-04T16:18:26.928Z</time></trkpt><trkpt lat="41.2848303" lon="1.5649905"><ele>168.0</ele><time>2026-05-04T16:18:27.928Z</time></trkpt><trkpt lat="41.2848199" lon="1.5651642"><ele>168.0</ele><time>2026-05-04T16:18:28.928Z</time></trkpt><trkpt lat="41.2848073" lon="1.5653358"><ele>167.25</ele><time>2026-05-04T16:18:29.928Z</time></trkpt><trkpt lat="41.2847995" lon="1.565508"><ele>166.5</ele><time>2026-05-04T16:18:30.928Z</time></trkpt><trkpt lat="41.2847902" lon="1.5656763"><ele>165.75</ele><time>2026-05-04T16:18:31.927Z</time></trkpt><trkpt lat="41.2847795" lon="1.565846"><ele>165.0</ele><time>2026-05-04T16:18:32.928Z</time></trkpt><trkpt lat="41.2847664" lon="1.566017"><ele>164.5</ele><time>2026-05-04T16:18:33.928Z</time></trkpt><trkpt lat="41.2847518" lon="1.5661858"><ele>164.0</ele><time>2026-05-04T16:18:34.928Z</time></trkpt><trkpt lat="41.284737" lon="1.5663599"><ele>163.5</ele><time>2026-05-04T16:18:35.928Z</time></trkpt><trkpt lat="41.2847218" lon="1.5665344"><ele>163.0</ele><time>2026-05-04T16:18:36.928Z</time></trkpt><trkpt lat="41.2847095" lon="1.5667097"><ele>162.5</ele><time>2026-05-04T16:18:37.928Z</time></trkpt><trkpt lat="41.2847002" lon="1.5668877"><ele>162.0</ele><time>2026-05-04T16:18:38.928Z</time></trkpt><trkpt lat="41.2846882" lon="1.5670664"><ele>161.5</ele><time>2026-05-04T16:18:39.928Z</time></trkpt><trkpt lat="41.284674" lon="1.567247"><ele>161.0</ele><time>2026-05-04T16:18:40.928Z</time></trkpt><trkpt lat="41.2846598" lon="1.5674288"><ele>160.75</ele><time>2026-05-04T16:18:41.928Z</time></trkpt><trkpt lat="41.2846456" lon="1.567612"><ele>160.5</ele><time>2026-05-04T16:18:42.927Z</time></trkpt><trkpt lat="41.2846306" lon="1.5677927"><ele>160.25</ele><time>2026-05-04T16:18:43.928Z</time></trkpt><trkpt lat="41.2846177" lon="1.5679743"><ele>160.0</ele><time>2026-05-04T16:18:44.928Z</time></trkpt><trkpt lat="41.2846046" lon="1.5681544"><ele>160.0</ele><time>2026-05-04T16:18:45.928Z</time></trkpt><trkpt lat="41.2845886" lon="1.5683352"><ele>160.0</ele><time>2026-05-04T16:18:46.928Z</time></trkpt><trkpt lat="41.2845744" lon="1.568519"><ele>160.0</ele><time>2026-05-04T16:18:47.928Z</time></trkpt><trkpt lat="41.2845591" lon="1.5687"><ele>160.0</ele><time>2026-05-04T16:18:48.928Z</time></trkpt><trkpt lat="41.2845452" lon="1.5688818"><ele>159.25</ele><time>2026-05-04T16:18:49.928Z</time></trkpt><trkpt lat="41.2845312" lon="1.5690621"><ele>158.5</ele><time>2026-05-04T16:18:50.928Z</time></trkpt><trkpt lat="41.2845162" lon="1.5692427"><ele>157.75</ele><time>2026-05-04T16:18:51.928Z</time></trkpt><trkpt lat="41.2845017" lon="1.5694192"><ele>157.0</ele><time>2026-05-04T16:18:52.928Z</time></trkpt><trkpt lat="41.2844868" lon="1.5695928"><ele>156.5</ele><time>2026-05-04T16:18:53.928Z</time></trkpt><trkpt lat="41.2844678" lon="1.5697614"><ele>156.0</ele><time>2026-05-04T16:18:54.928Z</time></trkpt><trkpt lat="41.2844498" lon="1.5699305"><ele>155.5</ele><time>2026-05-04T16:18:55.928Z</time></trkpt><trkpt lat="41.2844347" lon="1.5701086"><ele>155.0</ele><time>2026-05-04T16:18:56.928Z</time></trkpt><trkpt lat="41.2844167" lon="1.5702816"><ele>154.75</ele><time>2026-05-04T16:18:57.928Z</time></trkpt><trkpt lat="41.2843957" lon="1.5704576"><ele>154.5</ele><time>2026-05-04T16:18:58.928Z</time></trkpt><trkpt lat="41.2843743" lon="1.570633"><ele>154.25</ele><time>2026-05-04T16:18:59.928Z</time></trkpt><trkpt lat="41.2843521" lon="1.5708104"><ele>154.0</ele><time>2026-05-04T16:19:00.928Z</time></trkpt><trkpt lat="41.2843298" lon="1.5709893"><ele>154.0</ele><time>2026-05-04T16:19:01.928Z</time></trkpt><trkpt lat="41.2843077" lon="1.571164"><ele>154.0</ele><time>2026-05-04T16:19:02.928Z</time></trkpt><trkpt lat="41.2842851" lon="1.5713395"><ele>154.0</ele><time>2026-05-04T16:19:03.928Z</time></trkpt><trkpt lat="41.2842588" lon="1.5715146"><ele>154.0</ele><time>2026-05-04T16:19:04.928Z</time></trkpt><trkpt lat="41.2842301" lon="1.5716923"><ele>154.0</ele><time>2026-05-04T16:19:05.928Z</time></trkpt><trkpt lat="41.284199" lon="1.5718634"><ele>154.0</ele><time>2026-05-04T16:19:06.928Z</time></trkpt><trkpt lat="41.2841691" lon="1.5720356"><ele>154.0</ele><time>2026-05-04T16:19:07.927Z</time></trkpt><trkpt lat="41.2841235" lon="1.572199"><ele>154.0</ele><time>2026-05-04T16:19:08.927Z</time></trkpt><trkpt lat="41.2840909" lon="1.5723675"><ele>154.75</ele><time>2026-05-04T16:19:09.928Z</time></trkpt><trkpt lat="41.2840573" lon="1.5725351"><ele>155.5</ele><time>2026-05-04T16:19:10.928Z</time></trkpt><trkpt lat="41.2840281" lon="1.5727026"><ele>156.25</ele><time>2026-05-04T16:19:11.928Z</time></trkpt><trkpt lat="41.2839927" lon="1.5728733"><ele>157.0</ele><time>2026-05-04T16:19:12.928Z</time></trkpt><trkpt lat="41.2839529" lon="1.5730429"><ele>156.75</ele><time>2026-05-04T16:19:13.927Z</time></trkpt><trkpt lat="41.2839119" lon="1.5732104"><ele>156.5</ele><time>2026-05-04T16:19:14.928Z</time></trkpt><trkpt lat="41.2838676" lon="1.5733791"><ele>156.25</ele><time>2026-05-04T16:19:15.928Z</time></trkpt><trkpt lat="41.2838225" lon="1.573554"><ele>156.0</ele><time>2026-05-04T16:19:16.928Z</time></trkpt><trkpt lat="41.2837765" lon="1.573723"><ele>156.5</ele><time>2026-05-04T16:19:17.928Z</time></trkpt><trkpt lat="41.2837254" lon="1.5738928"><ele>157.0</ele><time>2026-05-04T16:19:18.927Z</time></trkpt><trkpt lat="41.2836741" lon="1.5740618"><ele>157.5</ele><time>2026-05-04T16:19:19.928Z</time></trkpt><trkpt lat="41.2836189" lon="1.5742337"><ele>158.0</ele><time>2026-05-04T16:19:20.928Z</time></trkpt><trkpt lat="41.283564" lon="1.574391"><ele>157.75</ele><time>2026-05-04T16:19:21.928Z</time></trkpt><trkpt lat="41.2835065" lon="1.5745522"><ele>157.5</ele><time>2026-05-04T16:19:22.928Z</time></trkpt><trkpt lat="41.2834516" lon="1.5747113"><ele>157.25</ele><time>2026-05-04T16:19:23.928Z</time></trkpt><trkpt lat="41.2833937" lon="1.5748741"><ele>157.0</ele><time>2026-05-04T16:19:24.928Z</time></trkpt><trkpt lat="41.2833428" lon="1.5750366"><ele>157.0</ele><time>2026-05-04T16:19:25.928Z</time></trkpt><trkpt lat="41.2832898" lon="1.5751974"><ele>157.0</ele><time>2026-05-04T16:19:26.928Z</time></trkpt><trkpt lat="41.2832369" lon="1.5753557"><ele>157.0</ele><time>2026-05-04T16:19:27.928Z</time></trkpt><trkpt lat="41.2831843" lon="1.5755156"><ele>157.0</ele><time>2026-05-04T16:19:28.928Z</time></trkpt><trkpt lat="41.2831269" lon="1.5756747"><ele>156.75</ele><time>2026-05-04T16:19:29.928Z</time></trkpt><trkpt lat="41.2830731" lon="1.5758305"><ele>156.5</ele><time>2026-05-04T16:19:30.928Z</time></trkpt><trkpt lat="41.2830173" lon="1.575988"><ele>156.25</ele><time>2026-05-04T16:19:31.928Z</time></trkpt><trkpt lat="41.2829623" lon="1.5761435"><ele>156.0</ele><time>2026-05-04T16:19:32.928Z</time></trkpt><trkpt lat="41.2829084" lon="1.5763036"><ele>156.5</ele><time>2026-05-04T16:19:33.928Z</time></trkpt><trkpt lat="41.2828531" lon="1.5764677"><ele>157.0</ele><time>2026-05-04T16:19:34.928Z</time></trkpt><trkpt lat="41.2828067" lon="1.5766257"><ele>157.5</ele><time>2026-05-04T16:19:35.927Z</time></trkpt><trkpt lat="41.2827581" lon="1.5767771"><ele>158.0</ele><time>2026-05-04T16:19:36.928Z</time></trkpt><trkpt lat="41.2827032" lon="1.5769329"><ele>158.5</ele><time>2026-05-04T16:19:37.928Z</time></trkpt><trkpt lat="41.2826494" lon="1.577083"><ele>159.0</ele><time>2026-05-04T16:19:38.928Z</time></trkpt><trkpt lat="41.2825956" lon="1.5772341"><ele>159.5</ele><time>2026-05-04T16:19:39.928Z</time></trkpt><trkpt lat="41.2825433" lon="1.5773852"><ele>160.0</ele><time>2026-05-04T16:19:40.927Z</time></trkpt><trkpt lat="41.2824923" lon="1.5775364"><ele>160.0</ele><time>2026-05-04T16:19:41.928Z</time></trkpt><trkpt lat="41.2824409" lon="1.5776901"><ele>160.0</ele><time>2026-05-04T16:19:42.928Z</time></trkpt><trkpt lat="41.2823848" lon="1.5778435"><ele>160.0</ele><time>2026-05-04T16:19:43.927Z</time></trkpt><trkpt lat="41.2823285" lon="1.5779923"><ele>160.0</ele><time>2026-05-04T16:19:44.928Z</time></trkpt><trkpt lat="41.2822783" lon="1.5781465"><ele>163.75</ele><time>2026-05-04T16:19:45.928Z</time></trkpt><trkpt lat="41.2822278" lon="1.5782985"><ele>167.5</ele><time>2026-05-04T16:19:46.928Z</time></trkpt><trkpt lat="41.2821775" lon="1.5784502"><ele>171.25</ele><time>2026-05-04T16:19:47.928Z</time></trkpt><trkpt lat="41.2821242" lon="1.5786023"><ele>175.0</ele><time>2026-05-04T16:19:48.928Z</time></trkpt><trkpt lat="41.2820747" lon="1.5787554"><ele>175.0</ele><time>2026-05-04T16:19:49.928Z</time></trkpt><trkpt lat="41.2820175" lon="1.578911"><ele>175.0</ele><time>2026-05-04T16:19:50.928Z</time></trkpt><trkpt lat="41.2819638" lon="1.5790641"><ele>175.0</ele><time>2026-05-04T16:19:51.927Z</time></trkpt><trkpt lat="41.2819095" lon="1.5792096"><ele>175.0</ele><time>2026-05-04T16:19:52.928Z</time></trkpt><trkpt lat="41.2818553" lon="1.5793504"><ele>175.0</ele><time>2026-05-04T16:19:53.927Z</time></trkpt><trkpt lat="41.2818007" lon="1.579481"><ele>175.0</ele><time>2026-05-04T16:19:54.928Z</time></trkpt><trkpt lat="41.2817536" lon="1.5795937"><ele>175.0</ele><time>2026-05-04T16:19:55.928Z</time></trkpt><trkpt lat="41.2817042" lon="1.5796993"><ele>175.0</ele><time>2026-05-04T16:19:56.928Z</time></trkpt><trkpt lat="41.2816533" lon="1.579802"><ele>175.0</ele><time>2026-05-04T16:19:57.928Z</time></trkpt><trkpt lat="41.2815867" lon="1.5798921"><ele>175.0</ele><time>2026-05-04T16:19:58.927Z</time></trkpt><trkpt lat="41.2815142" lon="1.5799582"><ele>175.0</ele><time>2026-05-04T16:19:59.928Z</time></trkpt><trkpt lat="41.2814542" lon="1.580025"><ele>175.0</ele><time>2026-05-04T16:20:00.928Z</time></trkpt><trkpt lat="41.2814227" lon="1.5801187"><ele>175.0</ele><time>2026-05-04T16:20:01.928Z</time></trkpt><trkpt lat="41.2814061" lon="1.5802255"><ele>175.0</ele><time>2026-05-04T16:20:02.928Z</time></trkpt><trkpt lat="41.2813908" lon="1.5803408"><ele>175.0</ele><time>2026-05-04T16:20:03.928Z</time></trkpt><trkpt lat="41.2813518" lon="1.58044"><ele>174.0</ele><time>2026-05-04T16:20:04.928Z</time></trkpt><trkpt lat="41.2813007" lon="1.5805388"><ele>173.0</ele><time>2026-05-04T16:20:05.928Z</time></trkpt><trkpt lat="41.2812444" lon="1.5806452"><ele>172.0</ele><time>2026-05-04T16:20:06.928Z</time></trkpt><trkpt lat="41.281185" lon="1.5807549"><ele>171.0</ele><time>2026-05-04T16:20:07.928Z</time></trkpt><trkpt lat="41.2811212" lon="1.5808771"><ele>170.0</ele><time>2026-05-04T16:20:08.928Z</time></trkpt><trkpt lat="41.2810551" lon="1.580996"><ele>170.0</ele><time>2026-05-04T16:20:09.928Z</time></trkpt><trkpt lat="41.2809908" lon="1.5811147"><ele>170.0</ele><time>2026-05-04T16:20:10.928Z</time></trkpt><trkpt lat="41.2809302" lon="1.5812327"><ele>170.0</ele><time>2026-05-04T16:20:11.928Z</time></trkpt><trkpt lat="41.2808717" lon="1.5813496"><ele>170.0</ele><time>2026-05-04T16:20:12.928Z</time></trkpt><trkpt lat="41.2808103" lon="1.5814671"><ele>170.0</ele><time>2026-05-04T16:20:13.928Z</time></trkpt><trkpt lat="41.2807502" lon="1.5815878"><ele>170.0</ele><time>2026-05-04T16:20:14.927Z</time></trkpt><trkpt lat="41.2806869" lon="1.5817096"><ele>170.0</ele><time>2026-05-04T16:20:15.928Z</time></trkpt><trkpt lat="41.280627" lon="1.5818287"><ele>170.0</ele><time>2026-05-04T16:20:16.928Z</time></trkpt><trkpt lat="41.2805651" lon="1.5819536"><ele>170.0</ele><time>2026-05-04T16:20:17.928Z</time></trkpt><trkpt lat="41.2805049" lon="1.5820707"><ele>170.0</ele><time>2026-05-04T16:20:18.928Z</time></trkpt><trkpt lat="41.2804464" lon="1.5821856"><ele>168.8</ele><time>2026-05-04T16:20:19.928Z</time></trkpt><trkpt lat="41.2803884" lon="1.5822963"><ele>167.6</ele><time>2026-05-04T16:20:20.927Z</time></trkpt><trkpt lat="41.2803317" lon="1.5824088"><ele>166.39999999999998</ele><time>2026-05-04T16:20:21.928Z</time></trkpt><trkpt lat="41.2802781" lon="1.582514"><ele>165.2</ele><time>2026-05-04T16:20:22.928Z</time></trkpt><trkpt lat="41.2802265" lon="1.5826183"><ele>164.0</ele><time>2026-05-04T16:20:23.928Z</time></trkpt><trkpt lat="41.2801768" lon="1.5827135"><ele>164.0</ele><time>2026-05-04T16:20:24.928Z</time></trkpt><trkpt lat="41.2801303" lon="1.5827979"><ele>164.0</ele><time>2026-05-04T16:20:25.927Z</time></trkpt><trkpt lat="41.2800884" lon="1.5828844"><ele>164.0</ele><time>2026-05-04T16:20:26.927Z</time></trkpt><trkpt lat="41.2800491" lon="1.5829607"><ele>164.0</ele><time>2026-05-04T16:20:27.928Z</time></trkpt><trkpt lat="41.2800136" lon="1.5830305"><ele>164.0</ele><time>2026-05-04T16:20:28.928Z</time></trkpt><trkpt lat="41.2799543" lon="1.583155"><ele>164.0</ele><time>2026-05-04T16:20:30.927Z</time></trkpt><trkpt lat="41.2799077" lon="1.5832361"><ele>163.5</ele><time>2026-05-04T16:20:32.928Z</time></trkpt><trkpt lat="41.2798943" lon="1.5833244"><ele>163.0</ele><time>2026-05-04T16:21:27.929Z</time></trkpt><trkpt lat="41.2798331" lon="1.5834195"><ele>162.5</ele><time>2026-05-04T16:21:30.929Z</time></trkpt><trkpt lat="41.2797691" lon="1.5835274"><ele>162.0</ele><time>2026-05-04T16:21:32.929Z</time></trkpt><trkpt lat="41.2797274" lon="1.5836147"><ele>161.5</ele><time>2026-05-04T16:21:33.929Z</time></trkpt><trkpt lat="41.2796846" lon="1.5837013"><ele>161.0</ele><time>2026-05-04T16:21:34.929Z</time></trkpt><trkpt lat="41.2796371" lon="1.5837932"><ele>160.5</ele><time>2026-05-04T16:21:35.929Z</time></trkpt><trkpt lat="41.2795896" lon="1.5838861"><ele>160.0</ele><time>2026-05-04T16:21:36.929Z</time></trkpt><trkpt lat="41.2795429" lon="1.5839733"><ele>159.5</ele><time>2026-05-04T16:21:37.929Z</time></trkpt><trkpt lat="41.2794959" lon="1.5840674"><ele>159.0</ele><time>2026-05-04T16:21:38.929Z</time></trkpt><trkpt lat="41.2794452" lon="1.584161"><ele>158.5</ele><time>2026-05-04T16:21:39.929Z</time></trkpt><trkpt lat="41.2793914" lon="1.584269"><ele>158.0</ele><time>2026-05-04T16:21:40.929Z</time></trkpt><trkpt lat="41.2793354" lon="1.584382"><ele>158.0</ele><time>2026-05-04T16:21:41.929Z</time></trkpt><trkpt lat="41.2792772" lon="1.5845072"><ele>158.0</ele><time>2026-05-04T16:21:42.929Z</time></trkpt><trkpt lat="41.2792148" lon="1.5846339"><ele>158.0</ele><time>2026-05-04T16:21:43.928Z</time></trkpt><trkpt lat="41.2791487" lon="1.5847632"><ele>158.0</ele><time>2026-05-04T16:21:44.929Z</time></trkpt><trkpt lat="41.2790753" lon="1.5848965"><ele>158.0</ele><time>2026-05-04T16:21:45.929Z</time></trkpt><trkpt lat="41.279003" lon="1.5850368"><ele>158.0</ele><time>2026-05-04T16:21:46.929Z</time></trkpt><trkpt lat="41.2789326" lon="1.5851757"><ele>158.0</ele><time>2026-05-04T16:21:47.929Z</time></trkpt><trkpt lat="41.2788667" lon="1.5853028"><ele>158.0</ele><time>2026-05-04T16:21:48.929Z</time></trkpt><trkpt lat="41.2788053" lon="1.5854368"><ele>157.75</ele><time>2026-05-04T16:21:49.929Z</time></trkpt><trkpt lat="41.2787411" lon="1.5855688"><ele>157.5</ele><time>2026-05-04T16:21:50.929Z</time></trkpt><trkpt lat="41.2786758" lon="1.5857037"><ele>157.25</ele><time>2026-05-04T16:21:51.928Z</time></trkpt><trkpt lat="41.2786093" lon="1.5858317"><ele>157.0</ele><time>2026-05-04T16:21:52.929Z</time></trkpt><trkpt lat="41.2785438" lon="1.5859645"><ele>157.0</ele><time>2026-05-04T16:21:53.929Z</time></trkpt><trkpt lat="41.2784763" lon="1.5860954"><ele>157.0</ele><time>2026-05-04T16:21:54.929Z</time></trkpt><trkpt lat="41.2784094" lon="1.5862302"><ele>157.0</ele><time>2026-05-04T16:21:55.929Z</time></trkpt><trkpt lat="41.2783405" lon="1.5863693"><ele>157.0</ele><time>2026-05-04T16:21:56.928Z</time></trkpt><trkpt lat="41.2782741" lon="1.5865057"><ele>157.0</ele><time>2026-05-04T16:21:57.929Z</time></trkpt><trkpt lat="41.2782097" lon="1.5866328"><ele>157.0</ele><time>2026-05-04T16:21:58.929Z</time></trkpt><trkpt lat="41.2781467" lon="1.5867551"><ele>157.0</ele><time>2026-05-04T16:21:59.929Z</time></trkpt><trkpt lat="41.2780868" lon="1.5868724"><ele>157.0</ele><time>2026-05-04T16:22:00.929Z</time></trkpt><trkpt lat="41.2780267" lon="1.586983"><ele>157.0</ele><time>2026-05-04T16:22:01.928Z</time></trkpt><trkpt lat="41.2779644" lon="1.587086"><ele>157.0</ele><time>2026-05-04T16:22:02.929Z</time></trkpt><trkpt lat="41.2778885" lon="1.5871786"><ele>157.0</ele><time>2026-05-04T16:22:03.928Z</time></trkpt><trkpt lat="41.2778072" lon="1.5872512"><ele>157.0</ele><time>2026-05-04T16:22:04.929Z</time></trkpt><trkpt lat="41.277741" lon="1.5873341"><ele>157.0</ele><time>2026-05-04T16:22:05.929Z</time></trkpt><trkpt lat="41.2777006" lon="1.5874317"><ele>157.0</ele><time>2026-05-04T16:22:06.929Z</time></trkpt><trkpt lat="41.2776924" lon="1.5875544"><ele>157.0</ele><time>2026-05-04T16:22:07.929Z</time></trkpt><trkpt lat="41.2776783" lon="1.5876768"><ele>157.0</ele><time>2026-05-04T16:22:08.928Z</time></trkpt><trkpt lat="41.277636" lon="1.5877928"><ele>157.0</ele><time>2026-05-04T16:22:09.929Z</time></trkpt><trkpt lat="41.277578" lon="1.5879006"><ele>157.0</ele><time>2026-05-04T16:22:10.929Z</time></trkpt><trkpt lat="41.277515" lon="1.5880189"><ele>157.0</ele><time>2026-05-04T16:22:11.929Z</time></trkpt><trkpt lat="41.2774521" lon="1.5881489"><ele>157.5</ele><time>2026-05-04T16:22:12.929Z</time></trkpt><trkpt lat="41.2773887" lon="1.5882816"><ele>158.0</ele><time>2026-05-04T16:22:13.929Z</time></trkpt><trkpt lat="41.2773216" lon="1.588411"><ele>158.5</ele><time>2026-05-04T16:22:14.929Z</time></trkpt><trkpt lat="41.2772544" lon="1.5885426"><ele>159.0</ele><time>2026-05-04T16:22:15.928Z</time></trkpt><trkpt lat="41.2771837" lon="1.5886755"><ele>157.25</ele><time>2026-05-04T16:22:16.929Z</time></trkpt><trkpt lat="41.2771127" lon="1.5888148"><ele>155.5</ele><time>2026-05-04T16:22:17.928Z</time></trkpt><trkpt lat="41.2770405" lon="1.5889599"><ele>153.75</ele><time>2026-05-04T16:22:18.929Z</time></trkpt><trkpt lat="41.2769667" lon="1.5891071"><ele>152.0</ele><time>2026-05-04T16:22:19.929Z</time></trkpt><trkpt lat="41.2768934" lon="1.5892545"><ele>152.0</ele><time>2026-05-04T16:22:20.929Z</time></trkpt><trkpt lat="41.2768206" lon="1.5894041"><ele>152.0</ele><time>2026-05-04T16:22:21.929Z</time></trkpt><trkpt lat="41.2767468" lon="1.5895526"><ele>152.0</ele><time>2026-05-04T16:22:22.929Z</time></trkpt><trkpt lat="41.2766726" lon="1.5896984"><ele>152.0</ele><time>2026-05-04T16:22:23.929Z</time></trkpt><trkpt lat="41.2765995" lon="1.5898475"><ele>152.0</ele><time>2026-05-04T16:22:24.929Z</time></trkpt><trkpt lat="41.2765274" lon="1.5899945"><ele>152.0</ele><time>2026-05-04T16:22:25.929Z</time></trkpt><trkpt lat="41.2764553" lon="1.5901396"><ele>152.0</ele><time>2026-05-04T16:22:26.929Z</time></trkpt><trkpt lat="41.2763823" lon="1.5902895"><ele>152.0</ele><time>2026-05-04T16:22:27.929Z</time></trkpt><trkpt lat="41.2763058" lon="1.59044"><ele>152.25</ele><time>2026-05-04T16:22:28.929Z</time></trkpt><trkpt lat="41.2762304" lon="1.5905893"><ele>152.5</ele><time>2026-05-04T16:22:29.929Z</time></trkpt><trkpt lat="41.2761545" lon="1.5907361"><ele>152.75</ele><time>2026-05-04T16:22:30.928Z</time></trkpt><trkpt lat="41.2760784" lon="1.5908877"><ele>153.0</ele><time>2026-05-04T16:22:31.929Z</time></trkpt><trkpt lat="41.2760002" lon="1.5910374"><ele>152.5</ele><time>2026-05-04T16:22:32.929Z</time></trkpt><trkpt lat="41.2759213" lon="1.5911919"><ele>152.0</ele><time>2026-05-04T16:22:33.928Z</time></trkpt><trkpt lat="41.2758438" lon="1.5913473"><ele>151.5</ele><time>2026-05-04T16:22:34.929Z</time></trkpt><trkpt lat="41.2757685" lon="1.5915052"><ele>151.0</ele><time>2026-05-04T16:22:35.929Z</time></trkpt><trkpt lat="41.2756921" lon="1.5916598"><ele>151.0</ele><time>2026-05-04T16:22:36.929Z</time></trkpt><trkpt lat="41.2756128" lon="1.5918163"><ele>151.0</ele><time>2026-05-04T16:22:37.929Z</time></trkpt><trkpt lat="41.2755358" lon="1.5919699"><ele>151.0</ele><time>2026-05-04T16:22:38.929Z</time></trkpt><trkpt lat="41.275459" lon="1.5921252"><ele>151.0</ele><time>2026-05-04T16:22:39.929Z</time></trkpt><trkpt lat="41.2753852" lon="1.5922799"><ele>151.0</ele><time>2026-05-04T16:22:40.929Z</time></trkpt><trkpt lat="41.2753077" lon="1.5924368"><ele>151.0</ele><time>2026-05-04T16:22:41.929Z</time></trkpt><trkpt lat="41.2752264" lon="1.5925905"><ele>151.0</ele><time>2026-05-04T16:22:42.929Z</time></trkpt><trkpt lat="41.2751457" lon="1.5927459"><ele>151.0</ele><time>2026-05-04T16:22:43.928Z</time></trkpt><trkpt lat="41.275066" lon="1.5929036"><ele>151.5</ele><time>2026-05-04T16:22:44.929Z</time></trkpt><trkpt lat="41.274989" lon="1.5930625"><ele>152.0</ele><time>2026-05-04T16:22:45.929Z</time></trkpt><trkpt lat="41.2749107" lon="1.5932214"><ele>152.5</ele><time>2026-05-04T16:22:46.929Z</time></trkpt><trkpt lat="41.2748292" lon="1.5933798"><ele>153.0</ele><time>2026-05-04T16:22:47.929Z</time></trkpt><trkpt lat="41.2747506" lon="1.5935417"><ele>151.5</ele><time>2026-05-04T16:22:48.929Z</time></trkpt><trkpt lat="41.2746722" lon="1.5936988"><ele>150.0</ele><time>2026-05-04T16:22:49.929Z</time></trkpt><trkpt lat="41.27459" lon="1.5938579"><ele>148.5</ele><time>2026-05-04T16:22:50.929Z</time></trkpt><trkpt lat="41.2745132" lon="1.5940167"><ele>147.0</ele><time>2026-05-04T16:22:51.929Z</time></trkpt><trkpt lat="41.2744368" lon="1.5941756"><ele>147.0</ele><time>2026-05-04T16:22:52.929Z</time></trkpt><trkpt lat="41.2743577" lon="1.5943286"><ele>147.0</ele><time>2026-05-04T16:22:53.929Z</time></trkpt><trkpt lat="41.2742808" lon="1.5944835"><ele>147.0</ele><time>2026-05-04T16:22:54.929Z</time></trkpt><trkpt lat="41.2742004" lon="1.5946369"><ele>147.0</ele><time>2026-05-04T16:22:55.929Z</time></trkpt><trkpt lat="41.274122" lon="1.5947893"><ele>146.75</ele><time>2026-05-04T16:22:56.929Z</time></trkpt><trkpt lat="41.2740507" lon="1.5949354"><ele>146.5</ele><time>2026-05-04T16:22:57.928Z</time></trkpt><trkpt lat="41.2739785" lon="1.5950844"><ele>146.25</ele><time>2026-05-04T16:22:58.929Z</time></trkpt><trkpt lat="41.273905" lon="1.5952333"><ele>146.0</ele><time>2026-05-04T16:22:59.928Z</time></trkpt><trkpt lat="41.2738336" lon="1.5953778"><ele>145.75</ele><time>2026-05-04T16:23:00.929Z</time></trkpt><trkpt lat="41.2737594" lon="1.5955256"><ele>145.5</ele><time>2026-05-04T16:23:01.929Z</time></trkpt><trkpt lat="41.2736878" lon="1.5956702"><ele>145.25</ele><time>2026-05-04T16:23:02.929Z</time></trkpt><trkpt lat="41.2736217" lon="1.5958105"><ele>145.0</ele><time>2026-05-04T16:23:03.928Z</time></trkpt><trkpt lat="41.2735552" lon="1.5959486"><ele>145.0</ele><time>2026-05-04T16:23:04.929Z</time></trkpt><trkpt lat="41.2734889" lon="1.5960871"><ele>145.0</ele><time>2026-05-04T16:23:05.929Z</time></trkpt><trkpt lat="41.2734191" lon="1.5962257"><ele>145.0</ele><time>2026-05-04T16:23:06.929Z</time></trkpt><trkpt lat="41.2733524" lon="1.5963647"><ele>145.0</ele><time>2026-05-04T16:23:07.929Z</time></trkpt><trkpt lat="41.2732778" lon="1.5964994"><ele>144.75</ele><time>2026-05-04T16:23:08.929Z</time></trkpt><trkpt lat="41.2732082" lon="1.5966338"><ele>144.5</ele><time>2026-05-04T16:23:09.929Z</time></trkpt><trkpt lat="41.2731394" lon="1.5967754"><ele>144.25</ele><time>2026-05-04T16:23:10.929Z</time></trkpt><trkpt lat="41.273072" lon="1.5969168"><ele>144.0</ele><time>2026-05-04T16:23:11.929Z</time></trkpt><trkpt lat="41.2730077" lon="1.5970551"><ele>144.5</ele><time>2026-05-04T16:23:12.929Z</time></trkpt><trkpt lat="41.2729462" lon="1.5971962"><ele>145.0</ele><time>2026-05-04T16:23:13.929Z</time></trkpt><trkpt lat="41.2728858" lon="1.5973314"><ele>145.5</ele><time>2026-05-04T16:23:14.929Z</time></trkpt><trkpt lat="41.2728268" lon="1.5974689"><ele>146.0</ele><time>2026-05-04T16:23:15.928Z</time></trkpt><trkpt lat="41.2727697" lon="1.5976102"><ele>146.0</ele><time>2026-05-04T16:23:16.929Z</time></trkpt><trkpt lat="41.272718" lon="1.5977503"><ele>146.0</ele><time>2026-05-04T16:23:17.929Z</time></trkpt><trkpt lat="41.27267" lon="1.597897"><ele>146.0</ele><time>2026-05-04T16:23:18.93Z</time></trkpt><trkpt lat="41.2726262" lon="1.59804"><ele>146.0</ele><time>2026-05-04T16:23:19.93Z</time></trkpt><trkpt lat="41.2725773" lon="1.5981872"><ele>146.75</ele><time>2026-05-04T16:23:20.93Z</time></trkpt><trkpt lat="41.2725317" lon="1.5983458"><ele>147.5</ele><time>2026-05-04T16:23:21.93Z</time></trkpt><trkpt lat="41.272482" lon="1.5985058"><ele>148.25</ele><time>2026-05-04T16:23:22.93Z</time></trkpt><trkpt lat="41.2724337" lon="1.5986632"><ele>149.0</ele><time>2026-05-04T16:23:23.93Z</time></trkpt><trkpt lat="41.272385" lon="1.5988189"><ele>149.25</ele><time>2026-05-04T16:23:24.93Z</time></trkpt><trkpt lat="41.2723335" lon="1.5989805"><ele>149.5</ele><time>2026-05-04T16:23:25.93Z</time></trkpt><trkpt lat="41.2722882" lon="1.5991408"><ele>149.75</ele><time>2026-05-04T16:23:26.93Z</time></trkpt><trkpt lat="41.2722411" lon="1.5992978"><ele>150.0</ele><time>2026-05-04T16:23:27.93Z</time></trkpt><trkpt lat="41.2721982" lon="1.599453"><ele>152.0</ele><time>2026-05-04T16:23:28.93Z</time></trkpt><trkpt lat="41.2721554" lon="1.5996183"><ele>154.0</ele><time>2026-05-04T16:23:29.93Z</time></trkpt><trkpt lat="41.2721093" lon="1.5997858"><ele>156.0</ele><time>2026-05-04T16:23:30.93Z</time></trkpt><trkpt lat="41.272058" lon="1.5999558"><ele>158.0</ele><time>2026-05-04T16:23:31.93Z</time></trkpt><trkpt lat="41.2720048" lon="1.6001278"><ele>158.0</ele><time>2026-05-04T16:23:32.93Z</time></trkpt><trkpt lat="41.2719536" lon="1.6002972"><ele>158.0</ele><time>2026-05-04T16:23:33.93Z</time></trkpt><trkpt lat="41.2719043" lon="1.6004573"><ele>158.0</ele><time>2026-05-04T16:23:34.93Z</time></trkpt><trkpt lat="41.271858" lon="1.600613"><ele>158.0</ele><time>2026-05-04T16:23:35.93Z</time></trkpt><trkpt lat="41.2718151" lon="1.6007575"><ele>158.0</ele><time>2026-05-04T16:23:36.93Z</time></trkpt><trkpt lat="41.2717769" lon="1.6008855"><ele>158.0</ele><time>2026-05-04T16:23:37.93Z</time></trkpt><trkpt lat="41.2717379" lon="1.6009867"><ele>158.0</ele><time>2026-05-04T16:23:38.93Z</time></trkpt><trkpt lat="41.2717112" lon="1.6010718"><ele>158.0</ele><time>2026-05-04T16:23:39.93Z</time></trkpt><trkpt lat="41.2716894" lon="1.6011507"><ele>158.0</ele><time>2026-05-04T16:23:40.93Z</time></trkpt><trkpt lat="41.2716598" lon="1.6012295"><ele>158.0</ele><time>2026-05-04T16:23:41.93Z</time></trkpt><trkpt lat="41.27158" lon="1.6013629"><ele>158.0</ele><time>2026-05-04T16:23:43.93Z</time></trkpt><trkpt lat="41.2715286" lon="1.6014182"><ele>158.0</ele><time>2026-05-04T16:23:44.93Z</time></trkpt><trkpt lat="41.2714501" lon="1.6015444"><ele>158.0</ele><time>2026-05-04T16:23:46.93Z</time></trkpt><trkpt lat="41.2714293" lon="1.6017073"><ele>158.0</ele><time>2026-05-04T16:23:48.93Z</time></trkpt><trkpt lat="41.2714496" lon="1.6018033"><ele>158.0</ele><time>2026-05-04T16:23:49.93Z</time></trkpt><trkpt lat="41.2714725" lon="1.6019025"><ele>157.8</ele><time>2026-05-04T16:23:50.93Z</time></trkpt><trkpt lat="41.271484" lon="1.6020124"><ele>157.60000000000002</ele><time>2026-05-04T16:23:51.93Z</time></trkpt><trkpt lat="41.27147" lon="1.6021361"><ele>157.39999999999998</ele><time>2026-05-04T16:23:52.93Z</time></trkpt><trkpt lat="41.2714299" lon="1.6022642"><ele>157.2</ele><time>2026-05-04T16:23:53.93Z</time></trkpt><trkpt lat="41.2713689" lon="1.6023899"><ele>157.0</ele><time>2026-05-04T16:23:54.93Z</time></trkpt><trkpt lat="41.2712991" lon="1.6025192"><ele>157.0</ele><time>2026-05-04T16:23:55.93Z</time></trkpt><trkpt lat="41.2712287" lon="1.6026615"><ele>157.0</ele><time>2026-05-04T16:23:56.929Z</time></trkpt><trkpt lat="41.2711581" lon="1.6028103"><ele>157.0</ele><time>2026-05-04T16:23:57.93Z</time></trkpt><trkpt lat="41.2710806" lon="1.6029656"><ele>157.0</ele><time>2026-05-04T16:23:58.93Z</time></trkpt><trkpt lat="41.2710062" lon="1.6031164"><ele>157.0</ele><time>2026-05-04T16:23:59.93Z</time></trkpt><trkpt lat="41.2709333" lon="1.6032615"><ele>157.0</ele><time>2026-05-04T16:24:00.93Z</time></trkpt><trkpt lat="41.2708628" lon="1.6034011"><ele>157.0</ele><time>2026-05-04T16:24:01.93Z</time></trkpt><trkpt lat="41.2707922" lon="1.603543"><ele>157.0</ele><time>2026-05-04T16:24:02.93Z</time></trkpt><trkpt lat="41.270715" lon="1.6036875"><ele>157.0</ele><time>2026-05-04T16:24:03.93Z</time></trkpt><trkpt lat="41.2706379" lon="1.603833"><ele>157.0</ele><time>2026-05-04T16:24:04.93Z</time></trkpt><trkpt lat="41.2705656" lon="1.6039756"><ele>157.0</ele><time>2026-05-04T16:24:05.93Z</time></trkpt><trkpt lat="41.2704973" lon="1.6041146"><ele>157.0</ele><time>2026-05-04T16:24:06.93Z</time></trkpt><trkpt lat="41.2704272" lon="1.6042484"><ele>157.0</ele><time>2026-05-04T16:24:07.929Z</time></trkpt><trkpt lat="41.2703598" lon="1.6043786"><ele>157.0</ele><time>2026-05-04T16:24:08.93Z</time></trkpt><trkpt lat="41.2702934" lon="1.6045058"><ele>157.0</ele><time>2026-05-04T16:24:09.93Z</time></trkpt><trkpt lat="41.2702305" lon="1.6046303"><ele>157.0</ele><time>2026-05-04T16:24:10.93Z</time></trkpt><trkpt lat="41.2701699" lon="1.60475"><ele>155.79999999999998</ele><time>2026-05-04T16:24:11.93Z</time></trkpt><trkpt lat="41.2701087" lon="1.6048695"><ele>154.6</ele><time>2026-05-04T16:24:12.93Z</time></trkpt><trkpt lat="41.2700505" lon="1.6049813"><ele>153.39999999999998</ele><time>2026-05-04T16:24:13.93Z</time></trkpt><trkpt lat="41.2699909" lon="1.6050844"><ele>152.2</ele><time>2026-05-04T16:24:14.93Z</time></trkpt><trkpt lat="41.2699252" lon="1.6051776"><ele>151.0</ele><time>2026-05-04T16:24:15.93Z</time></trkpt><trkpt lat="41.269854" lon="1.605269"><ele>151.6</ele><time>2026-05-04T16:24:16.93Z</time></trkpt><trkpt lat="41.2697917" lon="1.6053728"><ele>152.2</ele><time>2026-05-04T16:24:17.93Z</time></trkpt><trkpt lat="41.2697516" lon="1.6055021"><ele>152.8</ele><time>2026-05-04T16:24:18.93Z</time></trkpt><trkpt lat="41.269705" lon="1.6056272"><ele>153.4</ele><time>2026-05-04T16:24:19.93Z</time></trkpt><trkpt lat="41.269656" lon="1.6057444"><ele>154.0</ele><time>2026-05-04T16:24:20.929Z</time></trkpt><trkpt lat="41.2695977" lon="1.6058804"><ele>154.0</ele><time>2026-05-04T16:24:21.929Z</time></trkpt><trkpt lat="41.2695298" lon="1.6060091"><ele>154.0</ele><time>2026-05-04T16:24:22.93Z</time></trkpt><trkpt lat="41.2694642" lon="1.6061434"><ele>154.0</ele><time>2026-05-04T16:24:23.93Z</time></trkpt><trkpt lat="41.2693926" lon="1.6062769"><ele>154.0</ele><time>2026-05-04T16:24:24.929Z</time></trkpt><trkpt lat="41.2693259" lon="1.6064088"><ele>153.4</ele><time>2026-05-04T16:24:25.93Z</time></trkpt><trkpt lat="41.2692594" lon="1.6065361"><ele>152.8</ele><time>2026-05-04T16:24:26.93Z</time></trkpt><trkpt lat="41.2691973" lon="1.6066544"><ele>152.2</ele><time>2026-05-04T16:24:27.93Z</time></trkpt><trkpt lat="41.2691393" lon="1.6067657"><ele>151.6</ele><time>2026-05-04T16:24:28.93Z</time></trkpt><trkpt lat="41.2690866" lon="1.6068568"><ele>151.0</ele><time>2026-05-04T16:24:29.93Z</time></trkpt><trkpt lat="41.26904" lon="1.6069275"><ele>150.5</ele><time>2026-05-04T16:24:30.929Z</time></trkpt><trkpt lat="41.26898" lon="1.6070056"><ele>150.0</ele><time>2026-05-04T16:24:32.93Z</time></trkpt><trkpt lat="41.2688778" lon="1.6070874"><ele>149.5</ele><time>2026-05-04T16:24:34.93Z</time></trkpt><trkpt lat="41.2688134" lon="1.6071311"><ele>149.0</ele><time>2026-05-04T16:24:35.929Z</time></trkpt><trkpt lat="41.2687543" lon="1.6071819"><ele>148.5</ele><time>2026-05-04T16:24:36.93Z</time></trkpt><trkpt lat="41.2687118" lon="1.6072464"><ele>148.0</ele><time>2026-05-04T16:24:37.93Z</time></trkpt><trkpt lat="41.268693" lon="1.6073285"><ele>148.0</ele><time>2026-05-04T16:24:38.93Z</time></trkpt><trkpt lat="41.2687222" lon="1.6074779"><ele>148.0</ele><time>2026-05-04T16:24:40.93Z</time></trkpt><trkpt lat="41.2688209" lon="1.6075534"><ele>148.0</ele><time>2026-05-04T16:24:42.93Z</time></trkpt><trkpt lat="41.2688909" lon="1.6075665"><ele>148.0</ele><time>2026-05-04T16:24:43.93Z</time></trkpt><trkpt lat="41.2689652" lon="1.6075596"><ele>148.0</ele><time>2026-05-04T16:24:44.93Z</time></trkpt><trkpt lat="41.2690448" lon="1.6075527"><ele>148.0</ele><time>2026-05-04T16:24:45.93Z</time></trkpt><trkpt lat="41.2691264" lon="1.6075562"><ele>148.0</ele><time>2026-05-04T16:24:46.93Z</time></trkpt><trkpt lat="41.2692077" lon="1.6075781"><ele>148.0</ele><time>2026-05-04T16:24:47.929Z</time></trkpt><trkpt lat="41.2692899" lon="1.6076036"><ele>148.0</ele><time>2026-05-04T16:24:48.93Z</time></trkpt><trkpt lat="41.2693672" lon="1.6076375"><ele>148.0</ele><time>2026-05-04T16:24:49.929Z</time></trkpt><trkpt lat="41.2694428" lon="1.6076786"><ele>148.0</ele><time>2026-05-04T16:24:50.93Z</time></trkpt><trkpt lat="41.2695147" lon="1.6077214"><ele>148.0</ele><time>2026-05-04T16:24:51.93Z</time></trkpt><trkpt lat="41.2695875" lon="1.6077607"><ele>148.0</ele><time>2026-05-04T16:24:52.93Z</time></trkpt><trkpt lat="41.2696632" lon="1.6078048"><ele>148.0</ele><time>2026-05-04T16:24:53.93Z</time></trkpt><trkpt lat="41.2697435" lon="1.6078464"><ele>148.0</ele><time>2026-05-04T16:24:54.93Z</time></trkpt><trkpt lat="41.269822" lon="1.6078856"><ele>148.0</ele><time>2026-05-04T16:24:55.93Z</time></trkpt><trkpt lat="41.269908" lon="1.6079298"><ele>148.0</ele><time>2026-05-04T16:24:56.93Z</time></trkpt><trkpt lat="41.2700018" lon="1.6079792"><ele>146.6</ele><time>2026-05-04T16:24:57.93Z</time></trkpt><trkpt lat="41.2700966" lon="1.608027"><ele>145.20000000000002</ele><time>2026-05-04T16:24:58.929Z</time></trkpt><trkpt lat="41.2701965" lon="1.6080754"><ele>143.8</ele><time>2026-05-04T16:24:59.93Z</time></trkpt><trkpt lat="41.2703023" lon="1.6081252"><ele>142.4</ele><time>2026-05-04T16:25:00.93Z</time></trkpt><trkpt lat="41.2704122" lon="1.6081856"><ele>141.0</ele><time>2026-05-04T16:25:01.93Z</time></trkpt><trkpt lat="41.2705281" lon="1.6082486"><ele>140.25</ele><time>2026-05-04T16:25:02.93Z</time></trkpt><trkpt lat="41.2706474" lon="1.6083072"><ele>139.5</ele><time>2026-05-04T16:25:03.93Z</time></trkpt><trkpt lat="41.2707731" lon="1.6083692"><ele>138.75</ele><time>2026-05-04T16:25:04.929Z</time></trkpt><trkpt lat="41.2709009" lon="1.6084321"><ele>138.0</ele><time>2026-05-04T16:25:05.93Z</time></trkpt><trkpt lat="41.271035" lon="1.6085006"><ele>138.0</ele><time>2026-05-04T16:25:06.929Z</time></trkpt><trkpt lat="41.2711709" lon="1.6085726"><ele>138.0</ele><time>2026-05-04T16:25:07.93Z</time></trkpt><trkpt lat="41.2713058" lon="1.6086459"><ele>138.0</ele><time>2026-05-04T16:25:08.929Z</time></trkpt><trkpt lat="41.2714475" lon="1.6087243"><ele>138.0</ele><time>2026-05-04T16:25:09.93Z</time></trkpt><trkpt lat="41.271587" lon="1.6087919"><ele>136.33333333333334</ele><time>2026-05-04T16:25:10.93Z</time></trkpt><trkpt lat="41.2717278" lon="1.6088664"><ele>134.66666666666669</ele><time>2026-05-04T16:25:11.93Z</time></trkpt><trkpt lat="41.2718693" lon="1.6089433"><ele>133.0</ele><time>2026-05-04T16:25:12.93Z</time></trkpt><trkpt lat="41.2720151" lon="1.6090159"><ele>133.0</ele><time>2026-05-04T16:25:13.93Z</time></trkpt><trkpt lat="41.2721586" lon="1.609088"><ele>133.0</ele><time>2026-05-04T16:25:14.93Z</time></trkpt><trkpt lat="41.2723012" lon="1.6091615"><ele>133.0</ele><time>2026-05-04T16:25:15.929Z</time></trkpt><trkpt lat="41.2724455" lon="1.6092384"><ele>132.66666666666669</ele><time>2026-05-04T16:25:16.93Z</time></trkpt><trkpt lat="41.2725884" lon="1.6093069"><ele>132.33333333333334</ele><time>2026-05-04T16:25:17.93Z</time></trkpt><trkpt lat="41.2727342" lon="1.609376"><ele>132.0</ele><time>2026-05-04T16:25:18.93Z</time></trkpt><trkpt lat="41.2728702" lon="1.6094525"><ele>131.66666666666666</ele><time>2026-05-04T16:25:19.93Z</time></trkpt><trkpt lat="41.273009" lon="1.6095256"><ele>131.33333333333331</ele><time>2026-05-04T16:25:20.929Z</time></trkpt><trkpt lat="41.2731513" lon="1.6096003"><ele>131.0</ele><time>2026-05-04T16:25:21.93Z</time></trkpt><trkpt lat="41.2732927" lon="1.6096707"><ele>132.0</ele><time>2026-05-04T16:25:22.93Z</time></trkpt><trkpt lat="41.2734343" lon="1.6097458"><ele>133.0</ele><time>2026-05-04T16:25:23.93Z</time></trkpt><trkpt lat="41.2735782" lon="1.6098209"><ele>134.0</ele><time>2026-05-04T16:25:24.93Z</time></trkpt><trkpt lat="41.2737168" lon="1.6098939"><ele>134.0</ele><time>2026-05-04T16:25:25.929Z</time></trkpt><trkpt lat="41.2738555" lon="1.6099642"><ele>134.0</ele><time>2026-05-04T16:25:26.93Z</time></trkpt><trkpt lat="41.2739957" lon="1.610039"><ele>134.0</ele><time>2026-05-04T16:25:27.93Z</time></trkpt><trkpt lat="41.2741381" lon="1.6101131"><ele>135.0</ele><time>2026-05-04T16:25:28.93Z</time></trkpt><trkpt lat="41.2742828" lon="1.6101856"><ele>136.0</ele><time>2026-05-04T16:25:29.93Z</time></trkpt><trkpt lat="41.274426" lon="1.610258"><ele>137.0</ele><time>2026-05-04T16:25:30.93Z</time></trkpt><trkpt lat="41.2745649" lon="1.6103347"><ele>137.0</ele><time>2026-05-04T16:25:31.929Z</time></trkpt><trkpt lat="41.2747071" lon="1.6104168"><ele>137.0</ele><time>2026-05-04T16:25:32.93Z</time></trkpt><trkpt lat="41.2748503" lon="1.6104841"><ele>137.0</ele><time>2026-05-04T16:25:33.93Z</time></trkpt><trkpt lat="41.2749894" lon="1.6105596"><ele>136.75</ele><time>2026-05-04T16:25:34.93Z</time></trkpt><trkpt lat="41.2751266" lon="1.6106306"><ele>136.5</ele><time>2026-05-04T16:25:35.93Z</time></trkpt><trkpt lat="41.2752585" lon="1.6106998"><ele>136.25</ele><time>2026-05-04T16:25:36.929Z</time></trkpt><trkpt lat="41.2753858" lon="1.6107642"><ele>136.0</ele><time>2026-05-04T16:25:37.929Z</time></trkpt><trkpt lat="41.2755121" lon="1.6108289"><ele>135.75</ele><time>2026-05-04T16:25:38.93Z</time></trkpt><trkpt lat="41.2756392" lon="1.6108948"><ele>135.5</ele><time>2026-05-04T16:25:39.93Z</time></trkpt><trkpt lat="41.2757658" lon="1.6109573"><ele>135.25</ele><time>2026-05-04T16:25:40.93Z</time></trkpt><trkpt lat="41.2758936" lon="1.6110201"><ele>135.0</ele><time>2026-05-04T16:25:41.93Z</time></trkpt><trkpt lat="41.2760235" lon="1.6110828"><ele>135.0</ele><time>2026-05-04T16:25:42.93Z</time></trkpt><trkpt lat="41.2761492" lon="1.6111531"><ele>135.0</ele><time>2026-05-04T16:25:43.93Z</time></trkpt><trkpt lat="41.2762759" lon="1.6112216"><ele>135.0</ele><time>2026-05-04T16:25:44.929Z</time></trkpt><trkpt lat="41.276404" lon="1.6112857"><ele>135.0</ele><time>2026-05-04T16:25:45.93Z</time></trkpt><trkpt lat="41.276531" lon="1.6113485"><ele>135.0</ele><time>2026-05-04T16:25:46.93Z</time></trkpt><trkpt lat="41.2766609" lon="1.6114114"><ele>135.0</ele><time>2026-05-04T16:25:47.929Z</time></trkpt><trkpt lat="41.2767905" lon="1.6114742"><ele>135.0</ele><time>2026-05-04T16:25:48.93Z</time></trkpt><trkpt lat="41.2769261" lon="1.6115418"><ele>135.0</ele><time>2026-05-04T16:25:49.93Z</time></trkpt><trkpt lat="41.2770566" lon="1.6116053"><ele>135.0</ele><time>2026-05-04T16:25:50.93Z</time></trkpt><trkpt lat="41.2771972" lon="1.6116823"><ele>135.0</ele><time>2026-05-04T16:25:51.93Z</time></trkpt><trkpt lat="41.277336" lon="1.6117494"><ele>135.0</ele><time>2026-05-04T16:25:52.93Z</time></trkpt><trkpt lat="41.2774713" lon="1.6118192"><ele>135.0</ele><time>2026-05-04T16:25:53.929Z</time></trkpt><trkpt lat="41.2776087" lon="1.6118911"><ele>135.25</ele><time>2026-05-04T16:25:54.93Z</time></trkpt><trkpt lat="41.2777438" lon="1.611966"><ele>135.5</ele><time>2026-05-04T16:25:55.93Z</time></trkpt><trkpt lat="41.2778787" lon="1.6120413"><ele>135.75</ele><time>2026-05-04T16:25:56.93Z</time></trkpt><trkpt lat="41.2780142" lon="1.6121171"><ele>136.0</ele><time>2026-05-04T16:25:57.93Z</time></trkpt><trkpt lat="41.2781563" lon="1.6121872"><ele>136.0</ele><time>2026-05-04T16:25:58.93Z</time></trkpt><trkpt lat="41.2782939" lon="1.6122568"><ele>136.0</ele><time>2026-05-04T16:25:59.93Z</time></trkpt><trkpt lat="41.278434" lon="1.6123276"><ele>136.0</ele><time>2026-05-04T16:26:00.93Z</time></trkpt><trkpt lat="41.278574" lon="1.6123992"><ele>136.0</ele><time>2026-05-04T16:26:01.93Z</time></trkpt><trkpt lat="41.2787171" lon="1.612478"><ele>136.0</ele><time>2026-05-04T16:26:02.931Z</time></trkpt><trkpt lat="41.278857" lon="1.6125498"><ele>136.0</ele><time>2026-05-04T16:26:03.931Z</time></trkpt><trkpt lat="41.2789954" lon="1.6126162"><ele>136.0</ele><time>2026-05-04T16:26:04.931Z</time></trkpt><trkpt lat="41.2791318" lon="1.6126866"><ele>136.0</ele><time>2026-05-04T16:26:05.931Z</time></trkpt><trkpt lat="41.2792642" lon="1.612757"><ele>136.25</ele><time>2026-05-04T16:26:06.931Z</time></trkpt><trkpt lat="41.2793973" lon="1.6128252"><ele>136.5</ele><time>2026-05-04T16:26:07.93Z</time></trkpt><trkpt lat="41.279532" lon="1.6128956"><ele>136.75</ele><time>2026-05-04T16:26:08.931Z</time></trkpt><trkpt lat="41.2796624" lon="1.6129676"><ele>137.0</ele><time>2026-05-04T16:26:09.931Z</time></trkpt><trkpt lat="41.2797925" lon="1.6130397"><ele>137.25</ele><time>2026-05-04T16:26:10.931Z</time></trkpt><trkpt lat="41.2799208" lon="1.6131055"><ele>137.5</ele><time>2026-05-04T16:26:11.931Z</time></trkpt><trkpt lat="41.2800505" lon="1.6131724"><ele>137.75</ele><time>2026-05-04T16:26:12.931Z</time></trkpt><trkpt lat="41.2801804" lon="1.6132393"><ele>138.0</ele><time>2026-05-04T16:26:13.93Z</time></trkpt><trkpt lat="41.2803111" lon="1.6133023"><ele>138.0</ele><time>2026-05-04T16:26:14.931Z</time></trkpt><trkpt lat="41.2804345" lon="1.6133704"><ele>138.0</ele><time>2026-05-04T16:26:15.931Z</time></trkpt><trkpt lat="41.2805609" lon="1.6134345"><ele>138.0</ele><time>2026-05-04T16:26:16.931Z</time></trkpt><trkpt lat="41.280684" lon="1.6134984"><ele>138.0</ele><time>2026-05-04T16:26:17.93Z</time></trkpt><trkpt lat="41.2808076" lon="1.6135618"><ele>138.5</ele><time>2026-05-04T16:26:18.931Z</time></trkpt><trkpt lat="41.2809343" lon="1.6136265"><ele>139.0</ele><time>2026-05-04T16:26:19.931Z</time></trkpt><trkpt lat="41.2810613" lon="1.6136925"><ele>139.5</ele><time>2026-05-04T16:26:20.931Z</time></trkpt><trkpt lat="41.2811848" lon="1.6137593"><ele>140.0</ele><time>2026-05-04T16:26:21.931Z</time></trkpt><trkpt lat="41.2813134" lon="1.6138252"><ele>140.0</ele><time>2026-05-04T16:26:22.931Z</time></trkpt><trkpt lat="41.2814387" lon="1.6138878"><ele>140.0</ele><time>2026-05-04T16:26:23.931Z</time></trkpt><trkpt lat="41.281569" lon="1.6139436"><ele>140.0</ele><time>2026-05-04T16:26:24.931Z</time></trkpt><trkpt lat="41.2816975" lon="1.613998"><ele>140.0</ele><time>2026-05-04T16:26:25.931Z</time></trkpt><trkpt lat="41.2818286" lon="1.6140485"><ele>140.0</ele><time>2026-05-04T16:26:26.931Z</time></trkpt><trkpt lat="41.2819575" lon="1.614093"><ele>140.0</ele><time>2026-05-04T16:26:27.931Z</time></trkpt><trkpt lat="41.2820854" lon="1.6141448"><ele>140.0</ele><time>2026-05-04T16:26:28.931Z</time></trkpt><trkpt lat="41.282213" lon="1.6141955"><ele>140.0</ele><time>2026-05-04T16:26:29.931Z</time></trkpt><trkpt lat="41.2823391" lon="1.6142492"><ele>140.5</ele><time>2026-05-04T16:26:30.93Z</time></trkpt><trkpt lat="41.282461" lon="1.6143024"><ele>141.0</ele><time>2026-05-04T16:26:31.931Z</time></trkpt><trkpt lat="41.2825841" lon="1.614368"><ele>141.5</ele><time>2026-05-04T16:26:32.931Z</time></trkpt><trkpt lat="41.2827018" lon="1.6144359"><ele>142.0</ele><time>2026-05-04T16:26:33.931Z</time></trkpt><trkpt lat="41.282815" lon="1.6145113"><ele>140.5</ele><time>2026-05-04T16:26:34.931Z</time></trkpt><trkpt lat="41.2829263" lon="1.6146014"><ele>139.0</ele><time>2026-05-04T16:26:35.931Z</time></trkpt><trkpt lat="41.2830341" lon="1.6146964"><ele>137.5</ele><time>2026-05-04T16:26:36.931Z</time></trkpt><trkpt lat="41.2831363" lon="1.6147992"><ele>136.0</ele><time>2026-05-04T16:26:37.931Z</time></trkpt><trkpt lat="41.2832416" lon="1.614913"><ele>136.0</ele><time>2026-05-04T16:26:38.931Z</time></trkpt><trkpt lat="41.2833375" lon="1.6150291"><ele>136.0</ele><time>2026-05-04T16:26:39.931Z</time></trkpt><trkpt lat="41.2834318" lon="1.6151447"><ele>136.0</ele><time>2026-05-04T16:26:40.931Z</time></trkpt><trkpt lat="41.2835277" lon="1.6152688"><ele>136.0</ele><time>2026-05-04T16:26:41.931Z</time></trkpt><trkpt lat="41.2836183" lon="1.6153896"><ele>135.75</ele><time>2026-05-04T16:26:42.931Z</time></trkpt><trkpt lat="41.2837149" lon="1.6155076"><ele>135.5</ele><time>2026-05-04T16:26:43.931Z</time></trkpt><trkpt lat="41.2838092" lon="1.6156284"><ele>135.25</ele><time>2026-05-04T16:26:44.931Z</time></trkpt><trkpt lat="41.2839047" lon="1.6157516"><ele>135.0</ele><time>2026-05-04T16:26:45.931Z</time></trkpt><trkpt lat="41.2840004" lon="1.6158696"><ele>135.0</ele><time>2026-05-04T16:26:46.931Z</time></trkpt><trkpt lat="41.2840975" lon="1.6159892"><ele>135.0</ele><time>2026-05-04T16:26:47.931Z</time></trkpt><trkpt lat="41.2841966" lon="1.6161134"><ele>135.0</ele><time>2026-05-04T16:26:48.93Z</time></trkpt><trkpt lat="41.2842922" lon="1.6162372"><ele>135.0</ele><time>2026-05-04T16:26:49.931Z</time></trkpt><trkpt lat="41.2843954" lon="1.6163608"><ele>135.25</ele><time>2026-05-04T16:26:50.931Z</time></trkpt><trkpt lat="41.2844943" lon="1.6164839"><ele>135.5</ele><time>2026-05-04T16:26:51.93Z</time></trkpt><trkpt lat="41.2845936" lon="1.6166051"><ele>135.75</ele><time>2026-05-04T16:26:52.931Z</time></trkpt><trkpt lat="41.2846919" lon="1.6167284"><ele>136.0</ele><time>2026-05-04T16:26:53.93Z</time></trkpt><trkpt lat="41.2847897" lon="1.6168503"><ele>136.0</ele><time>2026-05-04T16:26:54.931Z</time></trkpt><trkpt lat="41.2848853" lon="1.6169674"><ele>136.0</ele><time>2026-05-04T16:26:55.931Z</time></trkpt><trkpt lat="41.2849853" lon="1.617085"><ele>136.0</ele><time>2026-05-04T16:26:56.931Z</time></trkpt><trkpt lat="41.2850938" lon="1.6172052"><ele>136.0</ele><time>2026-05-04T16:26:57.931Z</time></trkpt><trkpt lat="41.285203" lon="1.6173216"><ele>136.5</ele><time>2026-05-04T16:26:58.931Z</time></trkpt><trkpt lat="41.2853134" lon="1.6174363"><ele>137.0</ele><time>2026-05-04T16:26:59.931Z</time></trkpt><trkpt lat="41.2854289" lon="1.6175522"><ele>137.5</ele><time>2026-05-04T16:27:00.931Z</time></trkpt><trkpt lat="41.2855421" lon="1.6176651"><ele>138.0</ele><time>2026-05-04T16:27:01.93Z</time></trkpt><trkpt lat="41.285648" lon="1.6177765"><ele>139.0</ele><time>2026-05-04T16:27:02.931Z</time></trkpt><trkpt lat="41.2857581" lon="1.6178809"><ele>140.0</ele><time>2026-05-04T16:27:03.931Z</time></trkpt><trkpt lat="41.2858615" lon="1.617982"><ele>141.0</ele><time>2026-05-04T16:27:04.931Z</time></trkpt><trkpt lat="41.285968" lon="1.6180864"><ele>142.0</ele><time>2026-05-04T16:27:05.931Z</time></trkpt><trkpt lat="41.2860709" lon="1.6181851"><ele>142.0</ele><time>2026-05-04T16:27:06.931Z</time></trkpt><trkpt lat="41.2861732" lon="1.618287"><ele>142.0</ele><time>2026-05-04T16:27:07.931Z</time></trkpt><trkpt lat="41.2862726" lon="1.6183841"><ele>142.0</ele><time>2026-05-04T16:27:08.931Z</time></trkpt><trkpt lat="41.2863702" lon="1.6184794"><ele>142.0</ele><time>2026-05-04T16:27:09.93Z</time></trkpt><trkpt lat="41.2864738" lon="1.6185795"><ele>141.5</ele><time>2026-05-04T16:27:10.931Z</time></trkpt><trkpt lat="41.2865781" lon="1.6186795"><ele>141.0</ele><time>2026-05-04T16:27:11.931Z</time></trkpt><trkpt lat="41.2866809" lon="1.6187819"><ele>140.5</ele><time>2026-05-04T16:27:12.931Z</time></trkpt><trkpt lat="41.2867821" lon="1.6188815"><ele>140.0</ele><time>2026-05-04T16:27:13.931Z</time></trkpt><trkpt lat="41.2868865" lon="1.6189895"><ele>140.0</ele><time>2026-05-04T16:27:14.931Z</time></trkpt><trkpt lat="41.286992" lon="1.6190944"><ele>140.0</ele><time>2026-05-04T16:27:15.931Z</time></trkpt><trkpt lat="41.2870971" lon="1.6191965"><ele>140.0</ele><time>2026-05-04T16:27:16.931Z</time></trkpt><trkpt lat="41.2872035" lon="1.619305"><ele>140.0</ele><time>2026-05-04T16:27:17.931Z</time></trkpt><trkpt lat="41.2873118" lon="1.619409"><ele>140.75</ele><time>2026-05-04T16:27:18.931Z</time></trkpt><trkpt lat="41.2874226" lon="1.6195154"><ele>141.5</ele><time>2026-05-04T16:27:19.931Z</time></trkpt><trkpt lat="41.2875301" lon="1.6196217"><ele>142.25</ele><time>2026-05-04T16:27:20.931Z</time></trkpt><trkpt lat="41.2876364" lon="1.6197242"><ele>143.0</ele><time>2026-05-04T16:27:21.931Z</time></trkpt><trkpt lat="41.2877456" lon="1.6198323"><ele>143.0</ele><time>2026-05-04T16:27:22.931Z</time></trkpt><trkpt lat="41.2878566" lon="1.619945"><ele>143.0</ele><time>2026-05-04T16:27:23.931Z</time></trkpt><trkpt lat="41.2879658" lon="1.6200514"><ele>143.0</ele><time>2026-05-04T16:27:24.931Z</time></trkpt><trkpt lat="41.2880749" lon="1.6201593"><ele>143.0</ele><time>2026-05-04T16:27:25.931Z</time></trkpt><trkpt lat="41.2881852" lon="1.6202694"><ele>143.25</ele><time>2026-05-04T16:27:26.931Z</time></trkpt><trkpt lat="41.2882901" lon="1.6203786"><ele>143.5</ele><time>2026-05-04T16:27:27.931Z</time></trkpt><trkpt lat="41.2884035" lon="1.6204877"><ele>143.75</ele><time>2026-05-04T16:27:28.931Z</time></trkpt><trkpt lat="41.2885125" lon="1.620598"><ele>144.0</ele><time>2026-05-04T16:27:29.931Z</time></trkpt><trkpt lat="41.2886241" lon="1.6207098"><ele>144.0</ele><time>2026-05-04T16:27:30.931Z</time></trkpt><trkpt lat="41.2887367" lon="1.6208227"><ele>144.0</ele><time>2026-05-04T16:27:31.931Z</time></trkpt><trkpt lat="41.2888469" lon="1.6209332"><ele>144.0</ele><time>2026-05-04T16:27:32.931Z</time></trkpt><trkpt lat="41.2889576" lon="1.6210412"><ele>144.0</ele><time>2026-05-04T16:27:33.931Z</time></trkpt><trkpt lat="41.2890668" lon="1.6211463"><ele>143.5</ele><time>2026-05-04T16:27:34.931Z</time></trkpt><trkpt lat="41.2891771" lon="1.6212493"><ele>143.0</ele><time>2026-05-04T16:27:35.931Z</time></trkpt><trkpt lat="41.2892863" lon="1.621351"><ele>142.5</ele><time>2026-05-04T16:27:36.931Z</time></trkpt><trkpt lat="41.2893914" lon="1.6214537"><ele>142.0</ele><time>2026-05-04T16:27:37.931Z</time></trkpt><trkpt lat="41.2894975" lon="1.6215586"><ele>142.0</ele><time>2026-05-04T16:27:38.931Z</time></trkpt><trkpt lat="41.2896043" lon="1.6216631"><ele>142.0</ele><time>2026-05-04T16:27:39.93Z</time></trkpt><trkpt lat="41.2897079" lon="1.6217716"><ele>142.0</ele><time>2026-05-04T16:27:40.931Z</time></trkpt><trkpt lat="41.2898148" lon="1.6218769"><ele>142.0</ele><time>2026-05-04T16:27:41.931Z</time></trkpt><trkpt lat="41.2899197" lon="1.6219821"><ele>142.75</ele><time>2026-05-04T16:27:42.931Z</time></trkpt><trkpt lat="41.2900195" lon="1.622085"><ele>143.5</ele><time>2026-05-04T16:27:43.931Z</time></trkpt><trkpt lat="41.2901214" lon="1.6221914"><ele>144.25</ele><time>2026-05-04T16:27:44.931Z</time></trkpt><trkpt lat="41.2902306" lon="1.6222968"><ele>145.0</ele><time>2026-05-04T16:27:45.931Z</time></trkpt><trkpt lat="41.2903365" lon="1.6223983"><ele>145.0</ele><time>2026-05-04T16:27:46.931Z</time></trkpt><trkpt lat="41.2904398" lon="1.622496"><ele>145.0</ele><time>2026-05-04T16:27:47.931Z</time></trkpt><trkpt lat="41.2905424" lon="1.622595"><ele>145.0</ele><time>2026-05-04T16:27:48.931Z</time></trkpt><trkpt lat="41.2906457" lon="1.6226965"><ele>145.0</ele><time>2026-05-04T16:27:49.93Z</time></trkpt><trkpt lat="41.2907496" lon="1.6227991"><ele>146.5</ele><time>2026-05-04T16:27:50.93Z</time></trkpt><trkpt lat="41.2908518" lon="1.6228987"><ele>148.0</ele><time>2026-05-04T16:27:51.931Z</time></trkpt><trkpt lat="41.29095" lon="1.6229991"><ele>149.5</ele><time>2026-05-04T16:27:52.93Z</time></trkpt><trkpt lat="41.2910433" lon="1.623097"><ele>151.0</ele><time>2026-05-04T16:27:53.931Z</time></trkpt><trkpt lat="41.2911412" lon="1.6231938"><ele>151.0</ele><time>2026-05-04T16:27:54.931Z</time></trkpt><trkpt lat="41.2912389" lon="1.6232939"><ele>151.0</ele><time>2026-05-04T16:27:55.931Z</time></trkpt><trkpt lat="41.2913335" lon="1.6233924"><ele>151.0</ele><time>2026-05-04T16:27:56.931Z</time></trkpt><trkpt lat="41.2914323" lon="1.623488"><ele>151.0</ele><time>2026-05-04T16:27:57.931Z</time></trkpt><trkpt lat="41.2915331" lon="1.6235801"><ele>151.0</ele><time>2026-05-04T16:27:58.93Z</time></trkpt><trkpt lat="41.291638" lon="1.6236663"><ele>151.0</ele><time>2026-05-04T16:27:59.931Z</time></trkpt><trkpt lat="41.291748" lon="1.6237525"><ele>151.0</ele><time>2026-05-04T16:28:00.931Z</time></trkpt><trkpt lat="41.291854" lon="1.6238426"><ele>151.0</ele><time>2026-05-04T16:28:01.93Z</time></trkpt><trkpt lat="41.2919606" lon="1.6239359"><ele>151.0</ele><time>2026-05-04T16:28:02.931Z</time></trkpt><trkpt lat="41.2920713" lon="1.6240302"><ele>151.0</ele><time>2026-05-04T16:28:03.93Z</time></trkpt><trkpt lat="41.2921839" lon="1.6241299"><ele>151.0</ele><time>2026-05-04T16:28:04.931Z</time></trkpt><trkpt lat="41.2922953" lon="1.6242263"><ele>151.0</ele><time>2026-05-04T16:28:05.931Z</time></trkpt><trkpt lat="41.292405" lon="1.6243241"><ele>150.75</ele><time>2026-05-04T16:28:06.931Z</time></trkpt><trkpt lat="41.2925145" lon="1.6244223"><ele>150.5</ele><time>2026-05-04T16:28:07.93Z</time></trkpt><trkpt lat="41.292623" lon="1.6245186"><ele>150.25</ele><time>2026-05-04T16:28:08.931Z</time></trkpt><trkpt lat="41.2927309" lon="1.624609"><ele>150.0</ele><time>2026-05-04T16:28:09.931Z</time></trkpt><trkpt lat="41.2928345" lon="1.624696"><ele>149.5</ele><time>2026-05-04T16:28:10.931Z</time></trkpt><trkpt lat="41.2929425" lon="1.6247878"><ele>149.0</ele><time>2026-05-04T16:28:11.931Z</time></trkpt><trkpt lat="41.2930501" lon="1.6248791"><ele>148.5</ele><time>2026-05-04T16:28:12.931Z</time></trkpt><trkpt lat="41.2931595" lon="1.6249708"><ele>148.0</ele><time>2026-05-04T16:28:13.931Z</time></trkpt><trkpt lat="41.2932705" lon="1.6250656"><ele>147.75</ele><time>2026-05-04T16:28:14.931Z</time></trkpt><trkpt lat="41.2933744" lon="1.6251544"><ele>147.5</ele><time>2026-05-04T16:28:15.931Z</time></trkpt><trkpt lat="41.2934839" lon="1.6252477"><ele>147.25</ele><time>2026-05-04T16:28:16.931Z</time></trkpt><trkpt lat="41.2935912" lon="1.6253463"><ele>147.0</ele><time>2026-05-04T16:28:17.931Z</time></trkpt><trkpt lat="41.2936955" lon="1.6254451"><ele>147.0</ele><time>2026-05-04T16:28:18.93Z</time></trkpt><trkpt lat="41.2937999" lon="1.6255472"><ele>147.0</ele><time>2026-05-04T16:28:19.931Z</time></trkpt><trkpt lat="41.2939032" lon="1.6256523"><ele>147.0</ele><time>2026-05-04T16:28:20.931Z</time></trkpt><trkpt lat="41.2940041" lon="1.6257594"><ele>147.0</ele><time>2026-05-04T16:28:21.931Z</time></trkpt><trkpt lat="41.2941003" lon="1.6258763"><ele>147.0</ele><time>2026-05-04T16:28:22.931Z</time></trkpt><trkpt lat="41.2941972" lon="1.6259943"><ele>147.0</ele><time>2026-05-04T16:28:23.931Z</time></trkpt><trkpt lat="41.2942947" lon="1.626117"><ele>147.0</ele><time>2026-05-04T16:28:24.931Z</time></trkpt><trkpt lat="41.2943886" lon="1.6262383"><ele>147.0</ele><time>2026-05-04T16:28:25.93Z</time></trkpt><trkpt lat="41.2944828" lon="1.6263722"><ele>146.5</ele><time>2026-05-04T16:28:26.931Z</time></trkpt><trkpt lat="41.2945776" lon="1.6265086"><ele>146.0</ele><time>2026-05-04T16:28:27.931Z</time></trkpt><trkpt lat="41.2946633" lon="1.6266461"><ele>145.5</ele><time>2026-05-04T16:28:28.931Z</time></trkpt><trkpt lat="41.2947494" lon="1.6267938"><ele>145.0</ele><time>2026-05-04T16:28:29.93Z</time></trkpt><trkpt lat="41.2948351" lon="1.6269445"><ele>145.75</ele><time>2026-05-04T16:28:30.93Z</time></trkpt><trkpt lat="41.2949171" lon="1.6270984"><ele>146.5</ele><time>2026-05-04T16:28:31.931Z</time></trkpt><trkpt lat="41.2949979" lon="1.6272561"><ele>147.25</ele><time>2026-05-04T16:28:32.931Z</time></trkpt><trkpt lat="41.2950828" lon="1.6274274"><ele>148.0</ele><time>2026-05-04T16:28:33.931Z</time></trkpt><trkpt lat="41.2951554" lon="1.6275947"><ele>148.0</ele><time>2026-05-04T16:28:34.931Z</time></trkpt><trkpt lat="41.2952283" lon="1.6277664"><ele>148.0</ele><time>2026-05-04T16:28:35.93Z</time></trkpt><trkpt lat="41.2952939" lon="1.6279351"><ele>148.0</ele><time>2026-05-04T16:28:36.931Z</time></trkpt><trkpt lat="41.295352" lon="1.6281092"><ele>148.0</ele><time>2026-05-04T16:28:37.931Z</time></trkpt><trkpt lat="41.295412" lon="1.6282901"><ele>147.75</ele><time>2026-05-04T16:28:38.931Z</time></trkpt><trkpt lat="41.2954688" lon="1.6284667"><ele>147.5</ele><time>2026-05-04T16:28:39.931Z</time></trkpt><trkpt lat="41.2955267" lon="1.6286468"><ele>147.25</ele><time>2026-05-04T16:28:40.931Z</time></trkpt><trkpt lat="41.2955806" lon="1.6288283"><ele>147.0</ele><time>2026-05-04T16:28:41.931Z</time></trkpt><trkpt lat="41.2956342" lon="1.6290018"><ele>147.0</ele><time>2026-05-04T16:28:42.932Z</time></trkpt><trkpt lat="41.2956893" lon="1.6291776"><ele>147.0</ele><time>2026-05-04T16:28:43.932Z</time></trkpt><trkpt lat="41.2957391" lon="1.629355"><ele>147.0</ele><time>2026-05-04T16:28:44.932Z</time></trkpt><trkpt lat="41.2957911" lon="1.6295288"><ele>147.0</ele><time>2026-05-04T16:28:45.932Z</time></trkpt><trkpt lat="41.295842" lon="1.6297018"><ele>145.75</ele><time>2026-05-04T16:28:46.932Z</time></trkpt><trkpt lat="41.2958962" lon="1.6298759"><ele>144.5</ele><time>2026-05-04T16:28:47.932Z</time></trkpt><trkpt lat="41.2959497" lon="1.6300497"><ele>143.25</ele><time>2026-05-04T16:28:48.931Z</time></trkpt><trkpt lat="41.2960072" lon="1.6302108"><ele>142.0</ele><time>2026-05-04T16:28:49.932Z</time></trkpt><trkpt lat="41.2960635" lon="1.6303751"><ele>142.0</ele><time>2026-05-04T16:28:50.932Z</time></trkpt><trkpt lat="41.2961185" lon="1.6305323"><ele>142.0</ele><time>2026-05-04T16:28:51.932Z</time></trkpt><trkpt lat="41.2961772" lon="1.6306806"><ele>142.0</ele><time>2026-05-04T16:28:52.932Z</time></trkpt><trkpt lat="41.2962415" lon="1.6308293"><ele>142.0</ele><time>2026-05-04T16:28:53.931Z</time></trkpt><trkpt lat="41.2963071" lon="1.6309703"><ele>142.0</ele><time>2026-05-04T16:28:54.932Z</time></trkpt><trkpt lat="41.296377" lon="1.6311051"><ele>142.0</ele><time>2026-05-04T16:28:55.932Z</time></trkpt><trkpt lat="41.296451" lon="1.6312374"><ele>142.0</ele><time>2026-05-04T16:28:56.932Z</time></trkpt><trkpt lat="41.2965269" lon="1.6313603"><ele>142.0</ele><time>2026-05-04T16:28:57.932Z</time></trkpt><trkpt lat="41.2966077" lon="1.6314758"><ele>143.75</ele><time>2026-05-04T16:28:58.932Z</time></trkpt><trkpt lat="41.2966935" lon="1.6315931"><ele>145.5</ele><time>2026-05-04T16:28:59.932Z</time></trkpt><trkpt lat="41.2967779" lon="1.6317037"><ele>147.25</ele><time>2026-05-04T16:29:00.932Z</time></trkpt><trkpt lat="41.2968678" lon="1.6318125"><ele>149.0</ele><time>2026-05-04T16:29:01.931Z</time></trkpt><trkpt lat="41.2969614" lon="1.6319151"><ele>149.75</ele><time>2026-05-04T16:29:02.932Z</time></trkpt><trkpt lat="41.2970604" lon="1.632014"><ele>150.5</ele><time>2026-05-04T16:29:03.931Z</time></trkpt><trkpt lat="41.2971644" lon="1.6321068"><ele>151.25</ele><time>2026-05-04T16:29:04.932Z</time></trkpt><trkpt lat="41.2972713" lon="1.6321924"><ele>152.0</ele><time>2026-05-04T16:29:05.932Z</time></trkpt><trkpt lat="41.2973796" lon="1.6322704"><ele>152.75</ele><time>2026-05-04T16:29:06.932Z</time></trkpt><trkpt lat="41.2974943" lon="1.6323426"><ele>153.5</ele><time>2026-05-04T16:29:07.932Z</time></trkpt><trkpt lat="41.2976069" lon="1.6324103"><ele>154.25</ele><time>2026-05-04T16:29:08.932Z</time></trkpt><trkpt lat="41.2977193" lon="1.6324674"><ele>155.0</ele><time>2026-05-04T16:29:09.931Z</time></trkpt><trkpt lat="41.2978347" lon="1.6325212"><ele>155.0</ele><time>2026-05-04T16:29:10.932Z</time></trkpt><trkpt lat="41.2979538" lon="1.6325723"><ele>155.0</ele><time>2026-05-04T16:29:11.932Z</time></trkpt><trkpt lat="41.2980751" lon="1.6326233"><ele>155.0</ele><time>2026-05-04T16:29:12.931Z</time></trkpt><trkpt lat="41.2981964" lon="1.6326721"><ele>155.0</ele><time>2026-05-04T16:29:13.932Z</time></trkpt><trkpt lat="41.2983182" lon="1.632719"><ele>155.25</ele><time>2026-05-04T16:29:14.931Z</time></trkpt><trkpt lat="41.298441" lon="1.6327587"><ele>155.5</ele><time>2026-05-04T16:29:15.931Z</time></trkpt><trkpt lat="41.2985629" lon="1.6327996"><ele>155.75</ele><time>2026-05-04T16:29:16.932Z</time></trkpt><trkpt lat="41.2986869" lon="1.6328452"><ele>156.0</ele><time>2026-05-04T16:29:17.932Z</time></trkpt><trkpt lat="41.2988111" lon="1.6328926"><ele>155.75</ele><time>2026-05-04T16:29:18.931Z</time></trkpt><trkpt lat="41.2989347" lon="1.6329325"><ele>155.5</ele><time>2026-05-04T16:29:19.932Z</time></trkpt><trkpt lat="41.2990609" lon="1.632971"><ele>155.25</ele><time>2026-05-04T16:29:20.932Z</time></trkpt><trkpt lat="41.2991915" lon="1.6330103"><ele>155.0</ele><time>2026-05-04T16:29:21.932Z</time></trkpt><trkpt lat="41.2993175" lon="1.6330475"><ele>155.0</ele><time>2026-05-04T16:29:22.932Z</time></trkpt><trkpt lat="41.2994474" lon="1.6330894"><ele>155.0</ele><time>2026-05-04T16:29:23.932Z</time></trkpt><trkpt lat="41.2995742" lon="1.6331378"><ele>155.0</ele><time>2026-05-04T16:29:24.931Z</time></trkpt><trkpt lat="41.2997041" lon="1.6331811"><ele>155.0</ele><time>2026-05-04T16:29:25.932Z</time></trkpt><trkpt lat="41.2998368" lon="1.6332243"><ele>155.75</ele><time>2026-05-04T16:29:26.932Z</time></trkpt><trkpt lat="41.2999722" lon="1.6332675"><ele>156.5</ele><time>2026-05-04T16:29:27.931Z</time></trkpt><trkpt lat="41.3001043" lon="1.633307"><ele>157.25</ele><time>2026-05-04T16:29:28.932Z</time></trkpt><trkpt lat="41.3002393" lon="1.633347"><ele>158.0</ele><time>2026-05-04T16:29:29.932Z</time></trkpt><trkpt lat="41.3003706" lon="1.6333842"><ele>158.0</ele><time>2026-05-04T16:29:30.932Z</time></trkpt><trkpt lat="41.3005013" lon="1.6334276"><ele>158.0</ele><time>2026-05-04T16:29:31.932Z</time></trkpt><trkpt lat="41.3006286" lon="1.6334708"><ele>158.0</ele><time>2026-05-04T16:29:32.932Z</time></trkpt><trkpt lat="41.3007639" lon="1.6335125"><ele>158.0</ele><time>2026-05-04T16:29:33.931Z</time></trkpt><trkpt lat="41.3008994" lon="1.6335598"><ele>158.25</ele><time>2026-05-04T16:29:34.932Z</time></trkpt><trkpt lat="41.3010399" lon="1.6336071"><ele>158.5</ele><time>2026-05-04T16:29:35.932Z</time></trkpt><trkpt lat="41.3011778" lon="1.633655"><ele>158.75</ele><time>2026-05-04T16:29:36.932Z</time></trkpt><trkpt lat="41.3013142" lon="1.6337005"><ele>159.0</ele><time>2026-05-04T16:29:37.932Z</time></trkpt><trkpt lat="41.3014462" lon="1.6337476"><ele>158.5</ele><time>2026-05-04T16:29:38.932Z</time></trkpt><trkpt lat="41.301591" lon="1.633791"><ele>158.0</ele><time>2026-05-04T16:29:39.932Z</time></trkpt><trkpt lat="41.3017346" lon="1.6338335"><ele>157.5</ele><time>2026-05-04T16:29:40.932Z</time></trkpt><trkpt lat="41.3018791" lon="1.6338795"><ele>157.0</ele><time>2026-05-04T16:29:41.932Z</time></trkpt><trkpt lat="41.3020187" lon="1.6339226"><ele>157.0</ele><time>2026-05-04T16:29:42.932Z</time></trkpt><trkpt lat="41.3021577" lon="1.6339685"><ele>157.0</ele><time>2026-05-04T16:29:43.932Z</time></trkpt><trkpt lat="41.3022937" lon="1.6340156"><ele>157.0</ele><time>2026-05-04T16:29:44.932Z</time></trkpt><trkpt lat="41.3024301" lon="1.634054"><ele>157.0</ele><time>2026-05-04T16:29:45.932Z</time></trkpt><trkpt lat="41.3025671" lon="1.6340868"><ele>157.0</ele><time>2026-05-04T16:29:46.932Z</time></trkpt><trkpt lat="41.3027022" lon="1.6341187"><ele>157.0</ele><time>2026-05-04T16:29:47.932Z</time></trkpt><trkpt lat="41.3028397" lon="1.63415"><ele>157.0</ele><time>2026-05-04T16:29:48.932Z</time></trkpt><trkpt lat="41.3029804" lon="1.6341774"><ele>157.0</ele><time>2026-05-04T16:29:49.932Z</time></trkpt><trkpt lat="41.3031244" lon="1.6342076"><ele>157.75</ele><time>2026-05-04T16:29:50.932Z</time></trkpt><trkpt lat="41.3032717" lon="1.6342378"><ele>158.5</ele><time>2026-05-04T16:29:51.932Z</time></trkpt><trkpt lat="41.3034149" lon="1.6342573"><ele>159.25</ele><time>2026-05-04T16:29:52.932Z</time></trkpt><trkpt lat="41.3035588" lon="1.6342743"><ele>160.0</ele><time>2026-05-04T16:29:53.931Z</time></trkpt><trkpt lat="41.3037054" lon="1.6342944"><ele>160.0</ele><time>2026-05-04T16:29:54.932Z</time></trkpt><trkpt lat="41.3038564" lon="1.6343132"><ele>160.0</ele><time>2026-05-04T16:29:55.932Z</time></trkpt><trkpt lat="41.304006" lon="1.6343311"><ele>160.0</ele><time>2026-05-04T16:29:56.932Z</time></trkpt><trkpt lat="41.3041591" lon="1.6343462"><ele>158.66666666666669</ele><time>2026-05-04T16:29:57.932Z</time></trkpt><trkpt lat="41.3043158" lon="1.6343625"><ele>157.33333333333334</ele><time>2026-05-04T16:29:58.932Z</time></trkpt><trkpt lat="41.3044678" lon="1.6343829"><ele>156.0</ele><time>2026-05-04T16:29:59.932Z</time></trkpt><trkpt lat="41.3046146" lon="1.6344088"><ele>155.0</ele><time>2026-05-04T16:30:00.931Z</time></trkpt><trkpt lat="41.3047651" lon="1.6344395"><ele>154.0</ele><time>2026-05-04T16:30:01.932Z</time></trkpt><trkpt lat="41.3049109" lon="1.6344782"><ele>153.0</ele><time>2026-05-04T16:30:02.931Z</time></trkpt><trkpt lat="41.305054" lon="1.634513"><ele>152.0</ele><time>2026-05-04T16:30:03.932Z</time></trkpt><trkpt lat="41.3051961" lon="1.6345509"><ele>152.0</ele><time>2026-05-04T16:30:04.932Z</time></trkpt><trkpt lat="41.3053303" lon="1.6345916"><ele>152.0</ele><time>2026-05-04T16:30:05.932Z</time></trkpt><trkpt lat="41.3054682" lon="1.634637"><ele>152.0</ele><time>2026-05-04T16:30:06.932Z</time></trkpt><trkpt lat="41.305601" lon="1.6346867"><ele>152.0</ele><time>2026-05-04T16:30:07.932Z</time></trkpt><trkpt lat="41.3057401" lon="1.6347315"><ele>151.25</ele><time>2026-05-04T16:30:08.932Z</time></trkpt><trkpt lat="41.305869" lon="1.6347856"><ele>150.5</ele><time>2026-05-04T16:30:09.932Z</time></trkpt><trkpt lat="41.3059981" lon="1.6348481"><ele>149.75</ele><time>2026-05-04T16:30:10.932Z</time></trkpt><trkpt lat="41.3061247" lon="1.6349142"><ele>149.0</ele><time>2026-05-04T16:30:11.931Z</time></trkpt><trkpt lat="41.3062501" lon="1.6349813"><ele>149.0</ele><time>2026-05-04T16:30:12.932Z</time></trkpt><trkpt lat="41.3063734" lon="1.6350565"><ele>149.0</ele><time>2026-05-04T16:30:13.931Z</time></trkpt><trkpt lat="41.3064958" lon="1.6351306"><ele>149.0</ele><time>2026-05-04T16:30:14.932Z</time></trkpt><trkpt lat="41.3066152" lon="1.6352092"><ele>149.0</ele><time>2026-05-04T16:30:15.932Z</time></trkpt><trkpt lat="41.3067391" lon="1.6352899"><ele>148.5</ele><time>2026-05-04T16:30:16.932Z</time></trkpt><trkpt lat="41.3068575" lon="1.6353732"><ele>148.0</ele><time>2026-05-04T16:30:17.932Z</time></trkpt><trkpt lat="41.306976" lon="1.63546"><ele>147.5</ele><time>2026-05-04T16:30:18.932Z</time></trkpt><trkpt lat="41.3070951" lon="1.6355465"><ele>147.0</ele><time>2026-05-04T16:30:19.932Z</time></trkpt><trkpt lat="41.3072141" lon="1.6356393"><ele>147.25</ele><time>2026-05-04T16:30:20.932Z</time></trkpt><trkpt lat="41.3073321" lon="1.6357353"><ele>147.5</ele><time>2026-05-04T16:30:21.932Z</time></trkpt><trkpt lat="41.3074513" lon="1.6358387"><ele>147.75</ele><time>2026-05-04T16:30:22.932Z</time></trkpt><trkpt lat="41.3075673" lon="1.6359434"><ele>148.0</ele><time>2026-05-04T16:30:23.931Z</time></trkpt><trkpt lat="41.3076852" lon="1.6360509"><ele>148.5</ele><time>2026-05-04T16:30:24.932Z</time></trkpt><trkpt lat="41.3078012" lon="1.6361598"><ele>149.0</ele><time>2026-05-04T16:30:25.932Z</time></trkpt><trkpt lat="41.3079136" lon="1.6362767"><ele>149.5</ele><time>2026-05-04T16:30:26.932Z</time></trkpt><trkpt lat="41.3080261" lon="1.6364044"><ele>150.0</ele><time>2026-05-04T16:30:27.932Z</time></trkpt><trkpt lat="41.3081322" lon="1.6365342"><ele>150.0</ele><time>2026-05-04T16:30:28.932Z</time></trkpt><trkpt lat="41.3082416" lon="1.6366611"><ele>150.0</ele><time>2026-05-04T16:30:29.932Z</time></trkpt><trkpt lat="41.308352" lon="1.6367946"><ele>150.0</ele><time>2026-05-04T16:30:30.932Z</time></trkpt><trkpt lat="41.3084608" lon="1.6369254"><ele>150.0</ele><time>2026-05-04T16:30:31.932Z</time></trkpt><trkpt lat="41.3085666" lon="1.6370544"><ele>150.0</ele><time>2026-05-04T16:30:32.932Z</time></trkpt><trkpt lat="41.3086763" lon="1.6371915"><ele>150.0</ele><time>2026-05-04T16:30:33.932Z</time></trkpt><trkpt lat="41.3087891" lon="1.6373273"><ele>150.0</ele><time>2026-05-04T16:30:34.932Z</time></trkpt><trkpt lat="41.3088963" lon="1.6374559"><ele>150.0</ele><time>2026-05-04T16:30:35.932Z</time></trkpt><trkpt lat="41.3090074" lon="1.637588"><ele>150.0</ele><time>2026-05-04T16:30:36.932Z</time></trkpt><trkpt lat="41.30912" lon="1.6377215"><ele>150.0</ele><time>2026-05-04T16:30:37.932Z</time></trkpt><trkpt lat="41.3092386" lon="1.6378396"><ele>150.0</ele><time>2026-05-04T16:30:38.932Z</time></trkpt><trkpt lat="41.3093531" lon="1.6379598"><ele>150.0</ele><time>2026-05-04T16:30:39.931Z</time></trkpt><trkpt lat="41.3094736" lon="1.63808"><ele>150.0</ele><time>2026-05-04T16:30:40.932Z</time></trkpt><trkpt lat="41.3095948" lon="1.6382088"><ele>150.0</ele><time>2026-05-04T16:30:41.932Z</time></trkpt><trkpt lat="41.3097134" lon="1.6383275"><ele>150.0</ele><time>2026-05-04T16:30:42.932Z</time></trkpt><trkpt lat="41.3098323" lon="1.6384474"><ele>150.75</ele><time>2026-05-04T16:30:43.931Z</time></trkpt><trkpt lat="41.3099542" lon="1.6385628"><ele>151.5</ele><time>2026-05-04T16:30:44.931Z</time></trkpt><trkpt lat="41.3100812" lon="1.6386725"><ele>152.25</ele><time>2026-05-04T16:30:45.932Z</time></trkpt><trkpt lat="41.3102051" lon="1.6387778"><ele>153.0</ele><time>2026-05-04T16:30:46.932Z</time></trkpt><trkpt lat="41.310337" lon="1.6388843"><ele>153.5</ele><time>2026-05-04T16:30:47.932Z</time></trkpt><trkpt lat="41.3104659" lon="1.6389879"><ele>154.0</ele><time>2026-05-04T16:30:48.932Z</time></trkpt><trkpt lat="41.3105962" lon="1.6390772"><ele>154.5</ele><time>2026-05-04T16:30:49.932Z</time></trkpt><trkpt lat="41.3107288" lon="1.6391771"><ele>155.0</ele><time>2026-05-04T16:30:50.932Z</time></trkpt><trkpt lat="41.3108605" lon="1.6392754"><ele>155.0</ele><time>2026-05-04T16:30:51.932Z</time></trkpt><trkpt lat="41.3109934" lon="1.6393646"><ele>155.0</ele><time>2026-05-04T16:30:52.931Z</time></trkpt><trkpt lat="41.3111323" lon="1.6394492"><ele>155.0</ele><time>2026-05-04T16:30:53.932Z</time></trkpt><trkpt lat="41.3112626" lon="1.6395319"><ele>155.0</ele><time>2026-05-04T16:30:54.932Z</time></trkpt><trkpt lat="41.3113993" lon="1.6396123"><ele>155.25</ele><time>2026-05-04T16:30:55.932Z</time></trkpt><trkpt lat="41.3115354" lon="1.6396908"><ele>155.5</ele><time>2026-05-04T16:30:56.932Z</time></trkpt><trkpt lat="41.3116735" lon="1.639763"><ele>155.75</ele><time>2026-05-04T16:30:57.931Z</time></trkpt><trkpt lat="41.311813" lon="1.6398296"><ele>156.0</ele><time>2026-05-04T16:30:58.932Z</time></trkpt><trkpt lat="41.3119489" lon="1.6398976"><ele>156.0</ele><time>2026-05-04T16:30:59.932Z</time></trkpt><trkpt lat="41.3120908" lon="1.6399672"><ele>156.0</ele><time>2026-05-04T16:31:00.931Z</time></trkpt><trkpt lat="41.3122314" lon="1.6400335"><ele>156.0</ele><time>2026-05-04T16:31:01.932Z</time></trkpt><trkpt lat="41.3123725" lon="1.640098"><ele>156.75</ele><time>2026-05-04T16:31:02.932Z</time></trkpt><trkpt lat="41.3125172" lon="1.6401484"><ele>157.5</ele><time>2026-05-04T16:31:03.932Z</time></trkpt><trkpt lat="41.3126578" lon="1.6401958"><ele>158.25</ele><time>2026-05-04T16:31:04.932Z</time></trkpt><trkpt lat="41.312797" lon="1.6402477"><ele>159.0</ele><time>2026-05-04T16:31:05.932Z</time></trkpt><trkpt lat="41.3129393" lon="1.6402884"><ele>158.75</ele><time>2026-05-04T16:31:06.932Z</time></trkpt><trkpt lat="41.3130791" lon="1.640326"><ele>158.5</ele><time>2026-05-04T16:31:07.932Z</time></trkpt><trkpt lat="41.313224" lon="1.6403633"><ele>158.25</ele><time>2026-05-04T16:31:08.931Z</time></trkpt><trkpt lat="41.3133648" lon="1.6403997"><ele>158.0</ele><time>2026-05-04T16:31:09.931Z</time></trkpt><trkpt lat="41.3135079" lon="1.6404337"><ele>158.0</ele><time>2026-05-04T16:31:10.932Z</time></trkpt><trkpt lat="41.3136512" lon="1.6404634"><ele>158.0</ele><time>2026-05-04T16:31:11.932Z</time></trkpt><trkpt lat="41.3137922" lon="1.640492"><ele>158.0</ele><time>2026-05-04T16:31:12.932Z</time></trkpt><trkpt lat="41.313935" lon="1.6405152"><ele>158.0</ele><time>2026-05-04T16:31:13.932Z</time></trkpt><trkpt lat="41.3140763" lon="1.6405418"><ele>157.5</ele><time>2026-05-04T16:31:14.932Z</time></trkpt><trkpt lat="41.3142171" lon="1.6405657"><ele>157.0</ele><time>2026-05-04T16:31:15.932Z</time></trkpt><trkpt lat="41.3143546" lon="1.640587"><ele>156.5</ele><time>2026-05-04T16:31:16.931Z</time></trkpt><trkpt lat="41.3144953" lon="1.6406073"><ele>156.0</ele><time>2026-05-04T16:31:17.932Z</time></trkpt><trkpt lat="41.3146373" lon="1.640628"><ele>156.25</ele><time>2026-05-04T16:31:18.932Z</time></trkpt><trkpt lat="41.3147776" lon="1.6406503"><ele>156.5</ele><time>2026-05-04T16:31:19.932Z</time></trkpt><trkpt lat="41.3149174" lon="1.6406732"><ele>156.75</ele><time>2026-05-04T16:31:20.932Z</time></trkpt><trkpt lat="41.3150574" lon="1.6406986"><ele>157.0</ele><time>2026-05-04T16:31:21.932Z</time></trkpt><trkpt lat="41.3151992" lon="1.6407318"><ele>157.0</ele><time>2026-05-04T16:31:22.933Z</time></trkpt><trkpt lat="41.3153413" lon="1.6407688"><ele>157.0</ele><time>2026-05-04T16:31:23.933Z</time></trkpt><trkpt lat="41.3154833" lon="1.6408052"><ele>157.0</ele><time>2026-05-04T16:31:24.933Z</time></trkpt><trkpt lat="41.3156233" lon="1.6408435"><ele>157.0</ele><time>2026-05-04T16:31:25.933Z</time></trkpt><trkpt lat="41.3157626" lon="1.6408825"><ele>157.75</ele><time>2026-05-04T16:31:26.933Z</time></trkpt><trkpt lat="41.3159064" lon="1.6409252"><ele>158.5</ele><time>2026-05-04T16:31:27.933Z</time></trkpt><trkpt lat="41.316045" lon="1.6409645"><ele>159.25</ele><time>2026-05-04T16:31:28.933Z</time></trkpt><trkpt lat="41.3161844" lon="1.6410098"><ele>160.0</ele><time>2026-05-04T16:31:29.932Z</time></trkpt><trkpt lat="41.3163293" lon="1.641059"><ele>160.0</ele><time>2026-05-04T16:31:30.933Z</time></trkpt><trkpt lat="41.3164711" lon="1.6411109"><ele>160.0</ele><time>2026-05-04T16:31:31.933Z</time></trkpt><trkpt lat="41.3166143" lon="1.6411698"><ele>160.0</ele><time>2026-05-04T16:31:32.933Z</time></trkpt><trkpt lat="41.3167582" lon="1.6412247"><ele>160.0</ele><time>2026-05-04T16:31:33.933Z</time></trkpt><trkpt lat="41.3169006" lon="1.641288"><ele>160.0</ele><time>2026-05-04T16:31:34.933Z</time></trkpt><trkpt lat="41.3170423" lon="1.6413543"><ele>160.0</ele><time>2026-05-04T16:31:35.933Z</time></trkpt><trkpt lat="41.3171787" lon="1.6414304"><ele>160.0</ele><time>2026-05-04T16:31:36.933Z</time></trkpt><trkpt lat="41.3173163" lon="1.6415086"><ele>160.0</ele><time>2026-05-04T16:31:37.932Z</time></trkpt><trkpt lat="41.3174575" lon="1.6415863"><ele>160.33333333333334</ele><time>2026-05-04T16:31:38.933Z</time></trkpt><trkpt lat="41.3175969" lon="1.641669"><ele>160.66666666666666</ele><time>2026-05-04T16:31:39.933Z</time></trkpt><trkpt lat="41.3177328" lon="1.6417557"><ele>161.0</ele><time>2026-05-04T16:31:40.933Z</time></trkpt><trkpt lat="41.3178722" lon="1.6418444"><ele>161.0</ele><time>2026-05-04T16:31:41.933Z</time></trkpt><trkpt lat="41.3180091" lon="1.6419319"><ele>161.0</ele><time>2026-05-04T16:31:42.933Z</time></trkpt><trkpt lat="41.318137" lon="1.6420204"><ele>161.0</ele><time>2026-05-04T16:31:43.932Z</time></trkpt><trkpt lat="41.3182645" lon="1.6421132"><ele>161.0</ele><time>2026-05-04T16:31:44.933Z</time></trkpt><trkpt lat="41.3183871" lon="1.6422036"><ele>160.75</ele><time>2026-05-04T16:31:45.933Z</time></trkpt><trkpt lat="41.3185087" lon="1.6422956"><ele>160.5</ele><time>2026-05-04T16:31:46.933Z</time></trkpt><trkpt lat="41.3186264" lon="1.6423845"><ele>160.25</ele><time>2026-05-04T16:31:47.933Z</time></trkpt><trkpt lat="41.31874" lon="1.6424752"><ele>160.0</ele><time>2026-05-04T16:31:48.933Z</time></trkpt><trkpt lat="41.3188553" lon="1.6425667"><ele>160.75</ele><time>2026-05-04T16:31:49.933Z</time></trkpt><trkpt lat="41.318968" lon="1.6426589"><ele>161.5</ele><time>2026-05-04T16:31:50.932Z</time></trkpt><trkpt lat="41.3190809" lon="1.642757"><ele>162.25</ele><time>2026-05-04T16:31:51.933Z</time></trkpt><trkpt lat="41.3191899" lon="1.64285"><ele>163.0</ele><time>2026-05-04T16:31:52.933Z</time></trkpt><trkpt lat="41.3192986" lon="1.6429406"><ele>163.0</ele><time>2026-05-04T16:31:53.933Z</time></trkpt><trkpt lat="41.3194124" lon="1.6430318"><ele>163.0</ele><time>2026-05-04T16:31:54.933Z</time></trkpt><trkpt lat="41.3195234" lon="1.6431277"><ele>163.0</ele><time>2026-05-04T16:31:55.932Z</time></trkpt><trkpt lat="41.3196328" lon="1.6432134"><ele>163.0</ele><time>2026-05-04T16:31:56.933Z</time></trkpt><trkpt lat="41.3197461" lon="1.6432966"><ele>163.75</ele><time>2026-05-04T16:31:57.933Z</time></trkpt><trkpt lat="41.3198609" lon="1.6433768"><ele>164.5</ele><time>2026-05-04T16:31:58.933Z</time></trkpt><trkpt lat="41.3199774" lon="1.6434584"><ele>165.25</ele><time>2026-05-04T16:31:59.933Z</time></trkpt><trkpt lat="41.3200985" lon="1.6435318"><ele>166.0</ele><time>2026-05-04T16:32:00.933Z</time></trkpt><trkpt lat="41.3202165" lon="1.6436001"><ele>166.5</ele><time>2026-05-04T16:32:01.932Z</time></trkpt><trkpt lat="41.3203349" lon="1.6436631"><ele>167.0</ele><time>2026-05-04T16:32:02.933Z</time></trkpt><trkpt lat="41.3204545" lon="1.6437226"><ele>167.5</ele><time>2026-05-04T16:32:03.933Z</time></trkpt><trkpt lat="41.3205756" lon="1.6437822"><ele>168.0</ele><time>2026-05-04T16:32:04.933Z</time></trkpt><trkpt lat="41.3207002" lon="1.6438386"><ele>168.25</ele><time>2026-05-04T16:32:05.932Z</time></trkpt><trkpt lat="41.3208232" lon="1.643892"><ele>168.5</ele><time>2026-05-04T16:32:06.933Z</time></trkpt><trkpt lat="41.3209494" lon="1.6439385"><ele>168.75</ele><time>2026-05-04T16:32:07.932Z</time></trkpt><trkpt lat="41.3210755" lon="1.6439801"><ele>169.0</ele><time>2026-05-04T16:32:08.933Z</time></trkpt><trkpt lat="41.3212028" lon="1.6440153"><ele>169.0</ele><time>2026-05-04T16:32:09.933Z</time></trkpt><trkpt lat="41.3213341" lon="1.6440405"><ele>169.0</ele><time>2026-05-04T16:32:10.933Z</time></trkpt><trkpt lat="41.3214627" lon="1.6440641"><ele>169.0</ele><time>2026-05-04T16:32:11.933Z</time></trkpt><trkpt lat="41.3215891" lon="1.6440844"><ele>169.0</ele><time>2026-05-04T16:32:12.933Z</time></trkpt><trkpt lat="41.3217184" lon="1.6440997"><ele>169.75</ele><time>2026-05-04T16:32:13.933Z</time></trkpt><trkpt lat="41.3218492" lon="1.6441154"><ele>170.5</ele><time>2026-05-04T16:32:14.933Z</time></trkpt><trkpt lat="41.3219792" lon="1.6441179"><ele>171.25</ele><time>2026-05-04T16:32:15.932Z</time></trkpt><trkpt lat="41.3221048" lon="1.6441179"><ele>172.0</ele><time>2026-05-04T16:32:16.933Z</time></trkpt><trkpt lat="41.3222381" lon="1.6441054"><ele>173.25</ele><time>2026-05-04T16:32:17.932Z</time></trkpt><trkpt lat="41.3223676" lon="1.644094"><ele>174.5</ele><time>2026-05-04T16:32:18.933Z</time></trkpt><trkpt lat="41.3224992" lon="1.6440747"><ele>175.75</ele><time>2026-05-04T16:32:19.933Z</time></trkpt><trkpt lat="41.3226315" lon="1.6440558"><ele>177.0</ele><time>2026-05-04T16:32:20.933Z</time></trkpt><trkpt lat="41.3227601" lon="1.6440366"><ele>177.0</ele><time>2026-05-04T16:32:21.932Z</time></trkpt><trkpt lat="41.3228902" lon="1.6440129"><ele>177.0</ele><time>2026-05-04T16:32:22.933Z</time></trkpt><trkpt lat="41.323023" lon="1.6439971"><ele>177.0</ele><time>2026-05-04T16:32:23.932Z</time></trkpt><trkpt lat="41.3231518" lon="1.6439771"><ele>177.0</ele><time>2026-05-04T16:32:24.932Z</time></trkpt><trkpt lat="41.323282" lon="1.6439526"><ele>177.0</ele><time>2026-05-04T16:32:25.933Z</time></trkpt><trkpt lat="41.3234182" lon="1.6439338"><ele>177.0</ele><time>2026-05-04T16:32:26.932Z</time></trkpt><trkpt lat="41.3235526" lon="1.6439197"><ele>177.0</ele><time>2026-05-04T16:32:27.933Z</time></trkpt><trkpt lat="41.3236904" lon="1.6439034"><ele>177.0</ele><time>2026-05-04T16:32:28.933Z</time></trkpt><trkpt lat="41.3238297" lon="1.6438988"><ele>177.5</ele><time>2026-05-04T16:32:29.932Z</time></trkpt><trkpt lat="41.3239706" lon="1.6438987"><ele>178.0</ele><time>2026-05-04T16:32:30.932Z</time></trkpt><trkpt lat="41.3241123" lon="1.6439055"><ele>178.5</ele><time>2026-05-04T16:32:31.933Z</time></trkpt><trkpt lat="41.3242547" lon="1.6439178"><ele>179.0</ele><time>2026-05-04T16:32:32.933Z</time></trkpt><trkpt lat="41.324399" lon="1.6439367"><ele>179.0</ele><time>2026-05-04T16:32:33.933Z</time></trkpt><trkpt lat="41.324545" lon="1.6439614"><ele>179.0</ele><time>2026-05-04T16:32:34.933Z</time></trkpt><trkpt lat="41.3246891" lon="1.6439909"><ele>179.0</ele><time>2026-05-04T16:32:35.933Z</time></trkpt><trkpt lat="41.3248338" lon="1.6440279"><ele>179.0</ele><time>2026-05-04T16:32:36.933Z</time></trkpt><trkpt lat="41.3249792" lon="1.6440733"><ele>179.33333333333331</ele><time>2026-05-04T16:32:37.932Z</time></trkpt><trkpt lat="41.3251253" lon="1.6441272"><ele>179.66666666666666</ele><time>2026-05-04T16:32:38.933Z</time></trkpt><trkpt lat="41.3252712" lon="1.6441883"><ele>180.0</ele><time>2026-05-04T16:32:39.933Z</time></trkpt><trkpt lat="41.3254196" lon="1.6442558"><ele>179.33333333333334</ele><time>2026-05-04T16:32:40.933Z</time></trkpt><trkpt lat="41.3255667" lon="1.6443304"><ele>178.66666666666669</ele><time>2026-05-04T16:32:41.933Z</time></trkpt><trkpt lat="41.3257084" lon="1.644411"><ele>178.0</ele><time>2026-05-04T16:32:42.933Z</time></trkpt><trkpt lat="41.3258426" lon="1.6444944"><ele>177.0</ele><time>2026-05-04T16:32:43.933Z</time></trkpt><trkpt lat="41.325972" lon="1.6445802"><ele>176.0</ele><time>2026-05-04T16:32:44.932Z</time></trkpt><trkpt lat="41.3261075" lon="1.644682"><ele>175.0</ele><time>2026-05-04T16:32:45.933Z</time></trkpt><trkpt lat="41.3262401" lon="1.6447813"><ele>175.0</ele><time>2026-05-04T16:32:46.933Z</time></trkpt><trkpt lat="41.3263698" lon="1.644884"><ele>175.0</ele><time>2026-05-04T16:32:47.933Z</time></trkpt><trkpt lat="41.3265005" lon="1.6449955"><ele>175.0</ele><time>2026-05-04T16:32:48.932Z</time></trkpt><trkpt lat="41.3266279" lon="1.6451134"><ele>174.66666666666669</ele><time>2026-05-04T16:32:49.933Z</time></trkpt><trkpt lat="41.3267512" lon="1.6452439"><ele>174.33333333333334</ele><time>2026-05-04T16:32:50.933Z</time></trkpt><trkpt lat="41.3268726" lon="1.6453777"><ele>174.0</ele><time>2026-05-04T16:32:51.933Z</time></trkpt><trkpt lat="41.3269872" lon="1.6455159"><ele>174.66666666666666</ele><time>2026-05-04T16:32:52.933Z</time></trkpt><trkpt lat="41.3270954" lon="1.6456643"><ele>175.33333333333331</ele><time>2026-05-04T16:32:53.933Z</time></trkpt><trkpt lat="41.3272033" lon="1.6458163"><ele>176.0</ele><time>2026-05-04T16:32:54.933Z</time></trkpt><trkpt lat="41.3273088" lon="1.6459754"><ele>175.66666666666666</ele><time>2026-05-04T16:32:55.933Z</time></trkpt><trkpt lat="41.3274094" lon="1.6461329"><ele>175.33333333333334</ele><time>2026-05-04T16:32:56.933Z</time></trkpt><trkpt lat="41.3275033" lon="1.6462953"><ele>175.0</ele><time>2026-05-04T16:32:57.932Z</time></trkpt><trkpt lat="41.3276007" lon="1.6464601"><ele>175.0</ele><time>2026-05-04T16:32:58.932Z</time></trkpt><trkpt lat="41.3276831" lon="1.6466347"><ele>175.0</ele><time>2026-05-04T16:32:59.933Z</time></trkpt><trkpt lat="41.3277619" lon="1.6468119"><ele>175.0</ele><time>2026-05-04T16:33:00.933Z</time></trkpt><trkpt lat="41.3278378" lon="1.6469881"><ele>175.5</ele><time>2026-05-04T16:33:01.933Z</time></trkpt><trkpt lat="41.3279081" lon="1.6471612"><ele>176.0</ele><time>2026-05-04T16:33:02.933Z</time></trkpt><trkpt lat="41.3279697" lon="1.6473424"><ele>176.5</ele><time>2026-05-04T16:33:03.933Z</time></trkpt><trkpt lat="41.3280274" lon="1.6475221"><ele>177.0</ele><time>2026-05-04T16:33:04.933Z</time></trkpt><trkpt lat="41.3280808" lon="1.6477043"><ele>178.0</ele><time>2026-05-04T16:33:05.933Z</time></trkpt><trkpt lat="41.3281306" lon="1.6478835"><ele>179.0</ele><time>2026-05-04T16:33:06.933Z</time></trkpt><trkpt lat="41.3281815" lon="1.648068"><ele>180.0</ele><time>2026-05-04T16:33:07.932Z</time></trkpt><trkpt lat="41.3282334" lon="1.6482472"><ele>181.0</ele><time>2026-05-04T16:33:08.933Z</time></trkpt><trkpt lat="41.3282825" lon="1.6484251"><ele>181.0</ele><time>2026-05-04T16:33:09.933Z</time></trkpt><trkpt lat="41.3283311" lon="1.6486064"><ele>181.0</ele><time>2026-05-04T16:33:10.933Z</time></trkpt><trkpt lat="41.328379" lon="1.6487921"><ele>181.0</ele><time>2026-05-04T16:33:11.933Z</time></trkpt><trkpt lat="41.3284273" lon="1.6489752"><ele>181.0</ele><time>2026-05-04T16:33:12.933Z</time></trkpt><trkpt lat="41.3284749" lon="1.6491496"><ele>181.5</ele><time>2026-05-04T16:33:13.933Z</time></trkpt><trkpt lat="41.3285234" lon="1.6493285"><ele>182.0</ele><time>2026-05-04T16:33:14.932Z</time></trkpt><trkpt lat="41.3285752" lon="1.6495062"><ele>182.5</ele><time>2026-05-04T16:33:15.933Z</time></trkpt><trkpt lat="41.3286265" lon="1.6496813"><ele>183.0</ele><time>2026-05-04T16:33:16.933Z</time></trkpt><trkpt lat="41.3286809" lon="1.6498471"><ele>183.75</ele><time>2026-05-04T16:33:17.933Z</time></trkpt><trkpt lat="41.3287369" lon="1.6500111"><ele>184.5</ele><time>2026-05-04T16:33:18.933Z</time></trkpt><trkpt lat="41.32879" lon="1.6501777"><ele>185.25</ele><time>2026-05-04T16:33:19.932Z</time></trkpt><trkpt lat="41.3288487" lon="1.6503444"><ele>186.0</ele><time>2026-05-04T16:33:20.933Z</time></trkpt><trkpt lat="41.3289078" lon="1.6505137"><ele>186.25</ele><time>2026-05-04T16:33:21.932Z</time></trkpt><trkpt lat="41.3289709" lon="1.6506805"><ele>186.5</ele><time>2026-05-04T16:33:22.933Z</time></trkpt><trkpt lat="41.3290334" lon="1.6508449"><ele>186.75</ele><time>2026-05-04T16:33:23.933Z</time></trkpt><trkpt lat="41.3290969" lon="1.6510069"><ele>187.0</ele><time>2026-05-04T16:33:24.933Z</time></trkpt><trkpt lat="41.3291712" lon="1.6511685"><ele>187.75</ele><time>2026-05-04T16:33:25.933Z</time></trkpt><trkpt lat="41.3292392" lon="1.651331"><ele>188.5</ele><time>2026-05-04T16:33:26.933Z</time></trkpt><trkpt lat="41.3293104" lon="1.6514865"><ele>189.25</ele><time>2026-05-04T16:33:27.933Z</time></trkpt><trkpt lat="41.3293856" lon="1.651646"><ele>190.0</ele><time>2026-05-04T16:33:28.933Z</time></trkpt><trkpt lat="41.3294656" lon="1.6518054"><ele>189.5</ele><time>2026-05-04T16:33:29.933Z</time></trkpt><trkpt lat="41.3295424" lon="1.65196"><ele>189.0</ele><time>2026-05-04T16:33:30.933Z</time></trkpt><trkpt lat="41.3296224" lon="1.6521127"><ele>188.5</ele><time>2026-05-04T16:33:31.932Z</time></trkpt><trkpt lat="41.3297091" lon="1.6522623"><ele>188.0</ele><time>2026-05-04T16:33:32.933Z</time></trkpt><trkpt lat="41.3297945" lon="1.6524181"><ele>188.0</ele><time>2026-05-04T16:33:33.933Z</time></trkpt><trkpt lat="41.3298789" lon="1.6525733"><ele>188.0</ele><time>2026-05-04T16:33:34.932Z</time></trkpt><trkpt lat="41.3299646" lon="1.6527224"><ele>188.0</ele><time>2026-05-04T16:33:35.933Z</time></trkpt><trkpt lat="41.3300599" lon="1.6528704"><ele>188.0</ele><time>2026-05-04T16:33:36.933Z</time></trkpt><trkpt lat="41.3301479" lon="1.6530156"><ele>188.0</ele><time>2026-05-04T16:33:37.933Z</time></trkpt><trkpt lat="41.330243" lon="1.653162"><ele>188.0</ele><time>2026-05-04T16:33:38.932Z</time></trkpt><trkpt lat="41.3303365" lon="1.6533067"><ele>188.0</ele><time>2026-05-04T16:33:39.933Z</time></trkpt><trkpt lat="41.3304352" lon="1.6534412"><ele>188.0</ele><time>2026-05-04T16:33:40.933Z</time></trkpt><trkpt lat="41.3305312" lon="1.6535828"><ele>187.5</ele><time>2026-05-04T16:33:41.933Z</time></trkpt><trkpt lat="41.3306306" lon="1.6537187"><ele>187.0</ele><time>2026-05-04T16:33:42.933Z</time></trkpt><trkpt lat="41.3307271" lon="1.6538571"><ele>186.5</ele><time>2026-05-04T16:33:43.933Z</time></trkpt><trkpt lat="41.3308201" lon="1.6539979"><ele>186.0</ele><time>2026-05-04T16:33:44.932Z</time></trkpt><trkpt lat="41.3309129" lon="1.6541442"><ele>186.0</ele><time>2026-05-04T16:33:45.933Z</time></trkpt><trkpt lat="41.3310021" lon="1.654295"><ele>186.0</ele><time>2026-05-04T16:33:46.933Z</time></trkpt><trkpt lat="41.3310878" lon="1.654446"><ele>186.0</ele><time>2026-05-04T16:33:47.933Z</time></trkpt><trkpt lat="41.3311743" lon="1.6546005"><ele>186.0</ele><time>2026-05-04T16:33:48.933Z</time></trkpt><trkpt lat="41.3312559" lon="1.6547583"><ele>185.75</ele><time>2026-05-04T16:33:49.933Z</time></trkpt><trkpt lat="41.3313388" lon="1.6549182"><ele>185.5</ele><time>2026-05-04T16:33:50.933Z</time></trkpt><trkpt lat="41.3314206" lon="1.6550833"><ele>185.25</ele><time>2026-05-04T16:33:51.933Z</time></trkpt><trkpt lat="41.3314986" lon="1.6552483"><ele>185.0</ele><time>2026-05-04T16:33:52.933Z</time></trkpt><trkpt lat="41.3315731" lon="1.6554195"><ele>185.0</ele><time>2026-05-04T16:33:53.933Z</time></trkpt><trkpt lat="41.3316442" lon="1.6555928"><ele>185.0</ele><time>2026-05-04T16:33:54.933Z</time></trkpt><trkpt lat="41.3317109" lon="1.6557703"><ele>185.0</ele><time>2026-05-04T16:33:55.933Z</time></trkpt><trkpt lat="41.3317744" lon="1.6559514"><ele>185.0</ele><time>2026-05-04T16:33:56.933Z</time></trkpt><trkpt lat="41.3318379" lon="1.6561355"><ele>184.66666666666666</ele><time>2026-05-04T16:33:57.933Z</time></trkpt><trkpt lat="41.331901" lon="1.6563185"><ele>184.33333333333334</ele><time>2026-05-04T16:33:58.933Z</time></trkpt><trkpt lat="41.3319608" lon="1.6565081"><ele>184.0</ele><time>2026-05-04T16:33:59.933Z</time></trkpt><trkpt lat="41.332015" lon="1.6566944"><ele>184.0</ele><time>2026-05-04T16:34:00.933Z</time></trkpt><trkpt lat="41.3320679" lon="1.6568795"><ele>184.0</ele><time>2026-05-04T16:34:01.933Z</time></trkpt><trkpt lat="41.3321152" lon="1.6570715"><ele>184.0</ele><time>2026-05-04T16:34:02.934Z</time></trkpt><trkpt lat="41.3321596" lon="1.6572574"><ele>184.0</ele><time>2026-05-04T16:34:03.933Z</time></trkpt><trkpt lat="41.3322028" lon="1.6574504"><ele>183.5</ele><time>2026-05-04T16:34:04.934Z</time></trkpt><trkpt lat="41.3322401" lon="1.65764"><ele>183.0</ele><time>2026-05-04T16:34:05.934Z</time></trkpt><trkpt lat="41.3322781" lon="1.6578368"><ele>182.5</ele><time>2026-05-04T16:34:06.934Z</time></trkpt><trkpt lat="41.3323108" lon="1.6580279"><ele>182.0</ele><time>2026-05-04T16:34:07.933Z</time></trkpt><trkpt lat="41.3323419" lon="1.6582176"><ele>182.0</ele><time>2026-05-04T16:34:08.934Z</time></trkpt><trkpt lat="41.3323733" lon="1.6584098"><ele>182.0</ele><time>2026-05-04T16:34:09.934Z</time></trkpt><trkpt lat="41.3323965" lon="1.6586047"><ele>182.0</ele><time>2026-05-04T16:34:10.934Z</time></trkpt><trkpt lat="41.3324165" lon="1.6588035"><ele>182.0</ele><time>2026-05-04T16:34:11.933Z</time></trkpt><trkpt lat="41.3324315" lon="1.6590006"><ele>181.5</ele><time>2026-05-04T16:34:12.934Z</time></trkpt><trkpt lat="41.3324439" lon="1.6592015"><ele>181.0</ele><time>2026-05-04T16:34:13.934Z</time></trkpt><trkpt lat="41.3324514" lon="1.6593997"><ele>180.5</ele><time>2026-05-04T16:34:14.933Z</time></trkpt><trkpt lat="41.3324603" lon="1.6595978"><ele>180.0</ele><time>2026-05-04T16:34:15.934Z</time></trkpt><trkpt lat="41.3324709" lon="1.6597912"><ele>179.66666666666666</ele><time>2026-05-04T16:34:16.933Z</time></trkpt><trkpt lat="41.3324777" lon="1.6599959"><ele>179.33333333333331</ele><time>2026-05-04T16:34:17.934Z</time></trkpt><trkpt lat="41.3324888" lon="1.6601994"><ele>179.0</ele><time>2026-05-04T16:34:18.934Z</time></trkpt><trkpt lat="41.3325013" lon="1.6604008"><ele>179.75</ele><time>2026-05-04T16:34:19.934Z</time></trkpt><trkpt lat="41.3325073" lon="1.6606009"><ele>180.5</ele><time>2026-05-04T16:34:20.934Z</time></trkpt><trkpt lat="41.3325127" lon="1.6607974"><ele>181.25</ele><time>2026-05-04T16:34:21.934Z</time></trkpt><trkpt lat="41.3325187" lon="1.6609925"><ele>182.0</ele><time>2026-05-04T16:34:22.934Z</time></trkpt><trkpt lat="41.3325226" lon="1.6611905"><ele>183.25</ele><time>2026-05-04T16:34:23.934Z</time></trkpt><trkpt lat="41.3325261" lon="1.6613707"><ele>184.5</ele><time>2026-05-04T16:34:24.934Z</time></trkpt><trkpt lat="41.3325331" lon="1.6615611"><ele>185.75</ele><time>2026-05-04T16:34:25.934Z</time></trkpt><trkpt lat="41.3325392" lon="1.6617486"><ele>187.0</ele><time>2026-05-04T16:34:26.934Z</time></trkpt><trkpt lat="41.332547" lon="1.6619266"><ele>186.75</ele><time>2026-05-04T16:34:27.934Z</time></trkpt><trkpt lat="41.3325579" lon="1.6621141"><ele>186.5</ele><time>2026-05-04T16:34:28.934Z</time></trkpt><trkpt lat="41.3325675" lon="1.6623016"><ele>186.25</ele><time>2026-05-04T16:34:29.934Z</time></trkpt><trkpt lat="41.3325792" lon="1.6624897"><ele>186.0</ele><time>2026-05-04T16:34:30.934Z</time></trkpt><trkpt lat="41.3325898" lon="1.6626739"><ele>186.5</ele><time>2026-05-04T16:34:31.934Z</time></trkpt><trkpt lat="41.3326053" lon="1.6628585"><ele>187.0</ele><time>2026-05-04T16:34:32.934Z</time></trkpt><trkpt lat="41.3326212" lon="1.6630444"><ele>187.5</ele><time>2026-05-04T16:34:33.934Z</time></trkpt><trkpt lat="41.3326344" lon="1.6632226"><ele>188.0</ele><time>2026-05-04T16:34:34.934Z</time></trkpt><trkpt lat="41.3326501" lon="1.6634049"><ele>188.0</ele><time>2026-05-04T16:34:35.934Z</time></trkpt><trkpt lat="41.3326632" lon="1.6635779"><ele>188.0</ele><time>2026-05-04T16:34:36.934Z</time></trkpt><trkpt lat="41.3326812" lon="1.6637533"><ele>188.0</ele><time>2026-05-04T16:34:37.934Z</time></trkpt><trkpt lat="41.3327012" lon="1.6639323"><ele>188.0</ele><time>2026-05-04T16:34:38.933Z</time></trkpt><trkpt lat="41.3327205" lon="1.6641146"><ele>188.25</ele><time>2026-05-04T16:34:39.934Z</time></trkpt><trkpt lat="41.3327383" lon="1.6642929"><ele>188.5</ele><time>2026-05-04T16:34:40.933Z</time></trkpt><trkpt lat="41.3327635" lon="1.6644762"><ele>188.75</ele><time>2026-05-04T16:34:41.934Z</time></trkpt><trkpt lat="41.3327918" lon="1.6646623"><ele>189.0</ele><time>2026-05-04T16:34:42.934Z</time></trkpt><trkpt lat="41.3328171" lon="1.6648568"><ele>189.0</ele><time>2026-05-04T16:34:43.934Z</time></trkpt><trkpt lat="41.3328414" lon="1.6650477"><ele>189.0</ele><time>2026-05-04T16:34:44.934Z</time></trkpt><trkpt lat="41.3328713" lon="1.665234"><ele>189.0</ele><time>2026-05-04T16:34:45.934Z</time></trkpt><trkpt lat="41.3328993" lon="1.6654119"><ele>189.0</ele><time>2026-05-04T16:34:46.933Z</time></trkpt><trkpt lat="41.3329298" lon="1.6656028"><ele>188.75</ele><time>2026-05-04T16:34:47.934Z</time></trkpt><trkpt lat="41.332961" lon="1.6657863"><ele>188.5</ele><time>2026-05-04T16:34:48.934Z</time></trkpt><trkpt lat="41.3329933" lon="1.665971"><ele>188.25</ele><time>2026-05-04T16:34:49.933Z</time></trkpt><trkpt lat="41.3330249" lon="1.6661624"><ele>188.0</ele><time>2026-05-04T16:34:50.934Z</time></trkpt><trkpt lat="41.3330576" lon="1.6663535"><ele>188.0</ele><time>2026-05-04T16:34:51.934Z</time></trkpt><trkpt lat="41.3330829" lon="1.6665489"><ele>188.0</ele><time>2026-05-04T16:34:52.934Z</time></trkpt><trkpt lat="41.3331107" lon="1.6667398"><ele>188.0</ele><time>2026-05-04T16:34:53.934Z</time></trkpt><trkpt lat="41.3331418" lon="1.6669348"><ele>188.0</ele><time>2026-05-04T16:34:54.933Z</time></trkpt><trkpt lat="41.3331706" lon="1.6671325"><ele>187.25</ele><time>2026-05-04T16:34:55.934Z</time></trkpt><trkpt lat="41.3332011" lon="1.6673261"><ele>186.5</ele><time>2026-05-04T16:34:56.934Z</time></trkpt><trkpt lat="41.3332316" lon="1.6675192"><ele>185.75</ele><time>2026-05-04T16:34:57.934Z</time></trkpt><trkpt lat="41.3332591" lon="1.6677076"><ele>185.0</ele><time>2026-05-04T16:34:58.934Z</time></trkpt><trkpt lat="41.3332879" lon="1.6678923"><ele>183.5</ele><time>2026-05-04T16:34:59.933Z</time></trkpt><trkpt lat="41.33332" lon="1.6680782"><ele>182.0</ele><time>2026-05-04T16:35:00.934Z</time></trkpt><trkpt lat="41.3333505" lon="1.6682683"><ele>180.5</ele><time>2026-05-04T16:35:01.933Z</time></trkpt><trkpt lat="41.3333775" lon="1.6684528"><ele>179.0</ele><time>2026-05-04T16:35:02.934Z</time></trkpt><trkpt lat="41.3334049" lon="1.668641"><ele>178.5</ele><time>2026-05-04T16:35:03.934Z</time></trkpt><trkpt lat="41.3334324" lon="1.668826"><ele>178.0</ele><time>2026-05-04T16:35:04.934Z</time></trkpt><trkpt lat="41.3334599" lon="1.669011"><ele>177.5</ele><time>2026-05-04T16:35:05.934Z</time></trkpt><trkpt lat="41.3334872" lon="1.6691963"><ele>177.0</ele><time>2026-05-04T16:35:06.934Z</time></trkpt><trkpt lat="41.3335166" lon="1.6693771"><ele>177.25</ele><time>2026-05-04T16:35:07.934Z</time></trkpt><trkpt lat="41.333545" lon="1.6695648"><ele>177.5</ele><time>2026-05-04T16:35:08.933Z</time></trkpt><trkpt lat="41.3335702" lon="1.6697534"><ele>177.75</ele><time>2026-05-04T16:35:09.934Z</time></trkpt><trkpt lat="41.3335956" lon="1.6699413"><ele>178.0</ele><time>2026-05-04T16:35:10.934Z</time></trkpt><trkpt lat="41.3336226" lon="1.6701259"><ele>178.0</ele><time>2026-05-04T16:35:11.934Z</time></trkpt><trkpt lat="41.3336526" lon="1.6703157"><ele>178.0</ele><time>2026-05-04T16:35:12.933Z</time></trkpt><trkpt lat="41.3336784" lon="1.6705009"><ele>178.0</ele><time>2026-05-04T16:35:13.933Z</time></trkpt><trkpt lat="41.3337033" lon="1.670685"><ele>178.0</ele><time>2026-05-04T16:35:14.934Z</time></trkpt><trkpt lat="41.3337274" lon="1.6708685"><ele>178.0</ele><time>2026-05-04T16:35:15.934Z</time></trkpt><trkpt lat="41.3337509" lon="1.6710569"><ele>178.0</ele><time>2026-05-04T16:35:16.934Z</time></trkpt><trkpt lat="41.3337752" lon="1.6712417"><ele>178.0</ele><time>2026-05-04T16:35:17.934Z</time></trkpt><trkpt lat="41.3338002" lon="1.6714314"><ele>178.0</ele><time>2026-05-04T16:35:18.934Z</time></trkpt><trkpt lat="41.3338252" lon="1.6716216"><ele>177.75</ele><time>2026-05-04T16:35:19.934Z</time></trkpt><trkpt lat="41.3338476" lon="1.6718054"><ele>177.5</ele><time>2026-05-04T16:35:20.933Z</time></trkpt><trkpt lat="41.3338691" lon="1.6719949"><ele>177.25</ele><time>2026-05-04T16:35:21.934Z</time></trkpt><trkpt lat="41.3338895" lon="1.6721793"><ele>177.0</ele><time>2026-05-04T16:35:22.934Z</time></trkpt><trkpt lat="41.3339091" lon="1.6723617"><ele>176.75</ele><time>2026-05-04T16:35:23.934Z</time></trkpt><trkpt lat="41.3339301" lon="1.6725401"><ele>176.5</ele><time>2026-05-04T16:35:24.934Z</time></trkpt><trkpt lat="41.3339502" lon="1.6727234"><ele>176.25</ele><time>2026-05-04T16:35:25.933Z</time></trkpt><trkpt lat="41.3339731" lon="1.6729056"><ele>176.0</ele><time>2026-05-04T16:35:26.934Z</time></trkpt><trkpt lat="41.3339915" lon="1.6730906"><ele>176.0</ele><time>2026-05-04T16:35:27.934Z</time></trkpt><trkpt lat="41.3340109" lon="1.6732751"><ele>176.0</ele><time>2026-05-04T16:35:28.934Z</time></trkpt><trkpt lat="41.3340307" lon="1.6734607"><ele>176.0</ele><time>2026-05-04T16:35:29.934Z</time></trkpt><trkpt lat="41.3340546" lon="1.6736458"><ele>176.0</ele><time>2026-05-04T16:35:30.934Z</time></trkpt><trkpt lat="41.3340769" lon="1.6738294"><ele>176.0</ele><time>2026-05-04T16:35:31.933Z</time></trkpt><trkpt lat="41.3340962" lon="1.6740197"><ele>176.0</ele><time>2026-05-04T16:35:32.934Z</time></trkpt><trkpt lat="41.3341137" lon="1.6742017"><ele>176.0</ele><time>2026-05-04T16:35:33.933Z</time></trkpt><trkpt lat="41.3341281" lon="1.6743855"><ele>176.0</ele><time>2026-05-04T16:35:34.934Z</time></trkpt><trkpt lat="41.3341449" lon="1.6745696"><ele>176.25</ele><time>2026-05-04T16:35:35.934Z</time></trkpt><trkpt lat="41.3341572" lon="1.6747605"><ele>176.5</ele><time>2026-05-04T16:35:36.934Z</time></trkpt><trkpt lat="41.3341733" lon="1.6749442"><ele>176.75</ele><time>2026-05-04T16:35:37.934Z</time></trkpt><trkpt lat="41.3341878" lon="1.6751371"><ele>177.0</ele><time>2026-05-04T16:35:38.933Z</time></trkpt><trkpt lat="41.3342021" lon="1.675322"><ele>177.25</ele><time>2026-05-04T16:35:39.934Z</time></trkpt><trkpt lat="41.3342166" lon="1.6755015"><ele>177.5</ele><time>2026-05-04T16:35:40.934Z</time></trkpt><trkpt lat="41.3342286" lon="1.6756801"><ele>177.75</ele><time>2026-05-04T16:35:41.934Z</time></trkpt><trkpt lat="41.3342405" lon="1.6758641"><ele>178.0</ele><time>2026-05-04T16:35:42.933Z</time></trkpt><trkpt lat="41.3342569" lon="1.6760463"><ele>177.75</ele><time>2026-05-04T16:35:43.934Z</time></trkpt><trkpt lat="41.3342712" lon="1.6762276"><ele>177.5</ele><time>2026-05-04T16:35:44.934Z</time></trkpt><trkpt lat="41.334281" lon="1.6764058"><ele>177.25</ele><time>2026-05-04T16:35:45.934Z</time></trkpt><trkpt lat="41.3342925" lon="1.6765898"><ele>177.0</ele><time>2026-05-04T16:35:46.933Z</time></trkpt><trkpt lat="41.3343038" lon="1.6767706"><ele>176.75</ele><time>2026-05-04T16:35:47.934Z</time></trkpt><trkpt lat="41.334313" lon="1.6769488"><ele>176.5</ele><time>2026-05-04T16:35:48.934Z</time></trkpt><trkpt lat="41.334321" lon="1.6771293"><ele>176.25</ele><time>2026-05-04T16:35:49.934Z</time></trkpt><trkpt lat="41.3343304" lon="1.6773117"><ele>176.0</ele><time>2026-05-04T16:35:50.933Z</time></trkpt><trkpt lat="41.3343365" lon="1.6774989"><ele>176.0</ele><time>2026-05-04T16:35:51.934Z</time></trkpt><trkpt lat="41.3343417" lon="1.677682"><ele>176.0</ele><time>2026-05-04T16:35:52.934Z</time></trkpt><trkpt lat="41.3343452" lon="1.6778649"><ele>176.0</ele><time>2026-05-04T16:35:53.933Z</time></trkpt><trkpt lat="41.334354" lon="1.6780441"><ele>176.0</ele><time>2026-05-04T16:35:54.933Z</time></trkpt><trkpt lat="41.3343631" lon="1.6782242"><ele>176.0</ele><time>2026-05-04T16:35:55.934Z</time></trkpt><trkpt lat="41.3343717" lon="1.6784084"><ele>176.0</ele><time>2026-05-04T16:35:56.934Z</time></trkpt><trkpt lat="41.3343779" lon="1.6785919"><ele>176.0</ele><time>2026-05-04T16:35:57.934Z</time></trkpt><trkpt lat="41.3343831" lon="1.6787744"><ele>176.0</ele><time>2026-05-04T16:35:58.933Z</time></trkpt><trkpt lat="41.3343873" lon="1.6789522"><ele>176.0</ele><time>2026-05-04T16:35:59.933Z</time></trkpt><trkpt lat="41.3343912" lon="1.6791344"><ele>176.0</ele><time>2026-05-04T16:36:00.934Z</time></trkpt><trkpt lat="41.3343913" lon="1.6793134"><ele>176.0</ele><time>2026-05-04T16:36:01.934Z</time></trkpt><trkpt lat="41.334391" lon="1.6794928"><ele>176.0</ele><time>2026-05-04T16:36:02.934Z</time></trkpt><trkpt lat="41.3343898" lon="1.6796742"><ele>176.25</ele><time>2026-05-04T16:36:03.934Z</time></trkpt><trkpt lat="41.3343907" lon="1.6798559"><ele>176.5</ele><time>2026-05-04T16:36:04.933Z</time></trkpt><trkpt lat="41.3343907" lon="1.6800382"><ele>176.75</ele><time>2026-05-04T16:36:05.933Z</time></trkpt><trkpt lat="41.3343889" lon="1.6802167"><ele>177.0</ele><time>2026-05-04T16:36:06.934Z</time></trkpt><trkpt lat="41.3343895" lon="1.6803945"><ele>177.75</ele><time>2026-05-04T16:36:07.934Z</time></trkpt><trkpt lat="41.334392" lon="1.6805712"><ele>178.5</ele><time>2026-05-04T16:36:08.934Z</time></trkpt><trkpt lat="41.3343911" lon="1.6807495"><ele>179.25</ele><time>2026-05-04T16:36:09.934Z</time></trkpt><trkpt lat="41.3343907" lon="1.6809307"><ele>180.0</ele><time>2026-05-04T16:36:10.934Z</time></trkpt><trkpt lat="41.3343892" lon="1.6811082"><ele>180.75</ele><time>2026-05-04T16:36:11.934Z</time></trkpt><trkpt lat="41.3343878" lon="1.6812835"><ele>181.5</ele><time>2026-05-04T16:36:12.933Z</time></trkpt><trkpt lat="41.3343887" lon="1.6814551"><ele>182.25</ele><time>2026-05-04T16:36:13.934Z</time></trkpt><trkpt lat="41.3343888" lon="1.681628"><ele>183.0</ele><time>2026-05-04T16:36:14.934Z</time></trkpt><trkpt lat="41.3343917" lon="1.6817991"><ele>183.0</ele><time>2026-05-04T16:36:15.933Z</time></trkpt><trkpt lat="41.3343916" lon="1.6819746"><ele>183.0</ele><time>2026-05-04T16:36:16.934Z</time></trkpt><trkpt lat="41.3343887" lon="1.6821506"><ele>183.0</ele><time>2026-05-04T16:36:17.934Z</time></trkpt><trkpt lat="41.3343839" lon="1.6823234"><ele>183.0</ele><time>2026-05-04T16:36:18.934Z</time></trkpt><trkpt lat="41.3343783" lon="1.6824953"><ele>183.0</ele><time>2026-05-04T16:36:19.934Z</time></trkpt><trkpt lat="41.3343752" lon="1.6826693"><ele>183.0</ele><time>2026-05-04T16:36:20.933Z</time></trkpt><trkpt lat="41.3343689" lon="1.6828434"><ele>183.0</ele><time>2026-05-04T16:36:21.934Z</time></trkpt><trkpt lat="41.3343626" lon="1.6830215"><ele>183.0</ele><time>2026-05-04T16:36:22.934Z</time></trkpt><trkpt lat="41.3343544" lon="1.6831935"><ele>183.0</ele><time>2026-05-04T16:36:23.934Z</time></trkpt><trkpt lat="41.3343523" lon="1.6833675"><ele>183.0</ele><time>2026-05-04T16:36:24.934Z</time></trkpt><trkpt lat="41.334349" lon="1.6835405"><ele>183.0</ele><time>2026-05-04T16:36:25.934Z</time></trkpt><trkpt lat="41.3343432" lon="1.6837131"><ele>183.0</ele><time>2026-05-04T16:36:26.933Z</time></trkpt><trkpt lat="41.3343406" lon="1.6838839"><ele>184.5</ele><time>2026-05-04T16:36:27.934Z</time></trkpt><trkpt lat="41.3343353" lon="1.6840526"><ele>186.0</ele><time>2026-05-04T16:36:28.934Z</time></trkpt><trkpt lat="41.3343298" lon="1.6842202"><ele>187.5</ele><time>2026-05-04T16:36:29.934Z</time></trkpt><trkpt lat="41.3343243" lon="1.6843873"><ele>189.0</ele><time>2026-05-04T16:36:30.934Z</time></trkpt><trkpt lat="41.3343187" lon="1.6845526"><ele>189.0</ele><time>2026-05-04T16:36:31.934Z</time></trkpt><trkpt lat="41.3343141" lon="1.6847224"><ele>189.0</ele><time>2026-05-04T16:36:32.934Z</time></trkpt><trkpt lat="41.3343066" lon="1.6848863"><ele>189.0</ele><time>2026-05-04T16:36:33.934Z</time></trkpt><trkpt lat="41.3342989" lon="1.6850525"><ele>189.0</ele><time>2026-05-04T16:36:34.933Z</time></trkpt><trkpt lat="41.334293" lon="1.6852186"><ele>188.75</ele><time>2026-05-04T16:36:35.933Z</time></trkpt><trkpt lat="41.3342893" lon="1.6853886"><ele>188.5</ele><time>2026-05-04T16:36:36.934Z</time></trkpt><trkpt lat="41.3342839" lon="1.6855582"><ele>188.25</ele><time>2026-05-04T16:36:37.934Z</time></trkpt><trkpt lat="41.3342795" lon="1.6857275"><ele>188.0</ele><time>2026-05-04T16:36:38.934Z</time></trkpt><trkpt lat="41.3342747" lon="1.6858966"><ele>188.0</ele><time>2026-05-04T16:36:39.934Z</time></trkpt><trkpt lat="41.3342689" lon="1.6860635"><ele>188.0</ele><time>2026-05-04T16:36:40.934Z</time></trkpt><trkpt lat="41.334265" lon="1.686233"><ele>188.0</ele><time>2026-05-04T16:36:41.934Z</time></trkpt><trkpt lat="41.3342593" lon="1.6864013"><ele>188.0</ele><time>2026-05-04T16:36:42.935Z</time></trkpt><trkpt lat="41.3342523" lon="1.6865708"><ele>188.25</ele><time>2026-05-04T16:36:43.935Z</time></trkpt><trkpt lat="41.3342456" lon="1.6867441"><ele>188.5</ele><time>2026-05-04T16:36:44.935Z</time></trkpt><trkpt lat="41.3342422" lon="1.6869158"><ele>188.75</ele><time>2026-05-04T16:36:45.935Z</time></trkpt><trkpt lat="41.3342371" lon="1.6870872"><ele>189.0</ele><time>2026-05-04T16:36:46.935Z</time></trkpt><trkpt lat="41.3342315" lon="1.6872577"><ele>189.5</ele><time>2026-05-04T16:36:47.934Z</time></trkpt><trkpt lat="41.3342235" lon="1.6874314"><ele>190.0</ele><time>2026-05-04T16:36:48.935Z</time></trkpt><trkpt lat="41.3342175" lon="1.687609"><ele>190.5</ele><time>2026-05-04T16:36:49.935Z</time></trkpt><trkpt lat="41.3342109" lon="1.6877855"><ele>191.0</ele><time>2026-05-04T16:36:50.935Z</time></trkpt><trkpt lat="41.3342062" lon="1.6879606"><ele>191.0</ele><time>2026-05-04T16:36:51.935Z</time></trkpt><trkpt lat="41.3342005" lon="1.688142"><ele>191.0</ele><time>2026-05-04T16:36:52.935Z</time></trkpt><trkpt lat="41.334192" lon="1.6883213"><ele>191.0</ele><time>2026-05-04T16:36:53.935Z</time></trkpt><trkpt lat="41.3341881" lon="1.6885024"><ele>191.0</ele><time>2026-05-04T16:36:54.934Z</time></trkpt><trkpt lat="41.3341846" lon="1.6886834"><ele>191.75</ele><time>2026-05-04T16:36:55.935Z</time></trkpt><trkpt lat="41.334179" lon="1.6888647"><ele>192.5</ele><time>2026-05-04T16:36:56.935Z</time></trkpt><trkpt lat="41.3341767" lon="1.6890471"><ele>193.25</ele><time>2026-05-04T16:36:57.935Z</time></trkpt><trkpt lat="41.3341689" lon="1.689225"><ele>194.0</ele><time>2026-05-04T16:36:58.935Z</time></trkpt><trkpt lat="41.3341648" lon="1.6894021"><ele>194.25</ele><time>2026-05-04T16:36:59.935Z</time></trkpt><trkpt lat="41.3341595" lon="1.6895766"><ele>194.5</ele><time>2026-05-04T16:37:00.935Z</time></trkpt><trkpt lat="41.3341524" lon="1.6897578"><ele>194.75</ele><time>2026-05-04T16:37:01.935Z</time></trkpt><trkpt lat="41.3341457" lon="1.689939"><ele>195.0</ele><time>2026-05-04T16:37:02.934Z</time></trkpt><trkpt lat="41.3341388" lon="1.6901167"><ele>194.75</ele><time>2026-05-04T16:37:03.935Z</time></trkpt><trkpt lat="41.3341309" lon="1.6902878"><ele>194.5</ele><time>2026-05-04T16:37:04.934Z</time></trkpt><trkpt lat="41.3341254" lon="1.6904564"><ele>194.25</ele><time>2026-05-04T16:37:05.935Z</time></trkpt><trkpt lat="41.334121" lon="1.690628"><ele>194.0</ele><time>2026-05-04T16:37:06.935Z</time></trkpt><trkpt lat="41.3341181" lon="1.6907945"><ele>194.0</ele><time>2026-05-04T16:37:07.935Z</time></trkpt><trkpt lat="41.334112" lon="1.6909625"><ele>194.0</ele><time>2026-05-04T16:37:08.935Z</time></trkpt><trkpt lat="41.3341086" lon="1.6911231"><ele>194.0</ele><time>2026-05-04T16:37:09.935Z</time></trkpt><trkpt lat="41.3341111" lon="1.691282"><ele>194.0</ele><time>2026-05-04T16:37:10.935Z</time></trkpt><trkpt lat="41.3341051" lon="1.6914454"><ele>195.0</ele><time>2026-05-04T16:37:11.935Z</time></trkpt><trkpt lat="41.3341014" lon="1.69161"><ele>196.0</ele><time>2026-05-04T16:37:12.935Z</time></trkpt><trkpt lat="41.3340975" lon="1.6917681"><ele>197.0</ele><time>2026-05-04T16:37:13.935Z</time></trkpt><trkpt lat="41.3340924" lon="1.6919259"><ele>198.0</ele><time>2026-05-04T16:37:14.935Z</time></trkpt><trkpt lat="41.3340914" lon="1.6920829"><ele>198.5</ele><time>2026-05-04T16:37:15.935Z</time></trkpt><trkpt lat="41.3340925" lon="1.6922373"><ele>199.0</ele><time>2026-05-04T16:37:16.935Z</time></trkpt><trkpt lat="41.3340911" lon="1.6923879"><ele>199.5</ele><time>2026-05-04T16:37:17.935Z</time></trkpt><trkpt lat="41.334093" lon="1.6925405"><ele>200.0</ele><time>2026-05-04T16:37:18.935Z</time></trkpt><trkpt lat="41.3340918" lon="1.6926912"><ele>200.5</ele><time>2026-05-04T16:37:19.935Z</time></trkpt><trkpt lat="41.33409" lon="1.6928432"><ele>201.0</ele><time>2026-05-04T16:37:20.935Z</time></trkpt><trkpt lat="41.3340903" lon="1.6929959"><ele>201.5</ele><time>2026-05-04T16:37:21.934Z</time></trkpt><trkpt lat="41.3340929" lon="1.6931483"><ele>202.0</ele><time>2026-05-04T16:37:22.935Z</time></trkpt><trkpt lat="41.3340925" lon="1.6933036"><ele>202.0</ele><time>2026-05-04T16:37:23.934Z</time></trkpt><trkpt lat="41.334094" lon="1.6934606"><ele>202.0</ele><time>2026-05-04T16:37:24.935Z</time></trkpt><trkpt lat="41.3340975" lon="1.6936156"><ele>202.0</ele><time>2026-05-04T16:37:25.935Z</time></trkpt><trkpt lat="41.3341027" lon="1.6937654"><ele>202.0</ele><time>2026-05-04T16:37:26.935Z</time></trkpt><trkpt lat="41.3341011" lon="1.6939297"><ele>202.75</ele><time>2026-05-04T16:37:27.935Z</time></trkpt><trkpt lat="41.3341021" lon="1.6940829"><ele>203.5</ele><time>2026-05-04T16:37:28.935Z</time></trkpt><trkpt lat="41.3340988" lon="1.6942286"><ele>204.25</ele><time>2026-05-04T16:37:29.935Z</time></trkpt><trkpt lat="41.3340806" lon="1.6943826"><ele>205.0</ele><time>2026-05-04T16:37:30.935Z</time></trkpt><trkpt lat="41.3340875" lon="1.6945477"><ele>205.25</ele><time>2026-05-04T16:37:31.935Z</time></trkpt><trkpt lat="41.3340981" lon="1.6946893"><ele>205.5</ele><time>2026-05-04T16:37:32.935Z</time></trkpt><trkpt lat="41.3340984" lon="1.6948435"><ele>205.75</ele><time>2026-05-04T16:37:33.935Z</time></trkpt><trkpt lat="41.3340951" lon="1.6950051"><ele>206.0</ele><time>2026-05-04T16:37:34.935Z</time></trkpt><trkpt lat="41.3340949" lon="1.6951642"><ele>205.5</ele><time>2026-05-04T16:37:35.934Z</time></trkpt><trkpt lat="41.3340928" lon="1.6953201"><ele>205.0</ele><time>2026-05-04T16:37:36.935Z</time></trkpt><trkpt lat="41.3340915" lon="1.6954728"><ele>204.5</ele><time>2026-05-04T16:37:37.935Z</time></trkpt><trkpt lat="41.3340918" lon="1.6956278"><ele>204.0</ele><time>2026-05-04T16:37:38.935Z</time></trkpt><trkpt lat="41.3340908" lon="1.6957828"><ele>204.0</ele><time>2026-05-04T16:37:39.935Z</time></trkpt><trkpt lat="41.3340902" lon="1.6959414"><ele>204.0</ele><time>2026-05-04T16:37:40.935Z</time></trkpt><trkpt lat="41.3340913" lon="1.6961018"><ele>204.0</ele><time>2026-05-04T16:37:41.935Z</time></trkpt><trkpt lat="41.3340894" lon="1.6962661"><ele>204.0</ele><time>2026-05-04T16:37:42.935Z</time></trkpt><trkpt lat="41.334085" lon="1.6964302"><ele>204.25</ele><time>2026-05-04T16:37:43.934Z</time></trkpt><trkpt lat="41.3340829" lon="1.6965906"><ele>204.5</ele><time>2026-05-04T16:37:44.935Z</time></trkpt><trkpt lat="41.3340801" lon="1.6967535"><ele>204.75</ele><time>2026-05-04T16:37:45.934Z</time></trkpt><trkpt lat="41.334076" lon="1.6969159"><ele>205.0</ele><time>2026-05-04T16:37:46.935Z</time></trkpt><trkpt lat="41.3340723" lon="1.6970855"><ele>205.25</ele><time>2026-05-04T16:37:47.935Z</time></trkpt><trkpt lat="41.33407" lon="1.697254"><ele>205.5</ele><time>2026-05-04T16:37:48.935Z</time></trkpt><trkpt lat="41.3340637" lon="1.6974221"><ele>205.75</ele><time>2026-05-04T16:37:49.935Z</time></trkpt><trkpt lat="41.334058" lon="1.6975898"><ele>206.0</ele><time>2026-05-04T16:37:50.935Z</time></trkpt><trkpt lat="41.3340533" lon="1.6977642"><ele>205.0</ele><time>2026-05-04T16:37:51.934Z</time></trkpt><trkpt lat="41.3340494" lon="1.6979436"><ele>204.0</ele><time>2026-05-04T16:37:52.935Z</time></trkpt><trkpt lat="41.3340436" lon="1.6981188"><ele>203.0</ele><time>2026-05-04T16:37:53.935Z</time></trkpt><trkpt lat="41.3340391" lon="1.6982944"><ele>202.0</ele><time>2026-05-04T16:37:54.935Z</time></trkpt><trkpt lat="41.3340325" lon="1.6984687"><ele>202.25</ele><time>2026-05-04T16:37:55.934Z</time></trkpt><trkpt lat="41.3340266" lon="1.6986444"><ele>202.5</ele><time>2026-05-04T16:37:56.934Z</time></trkpt><trkpt lat="41.3340225" lon="1.6988224"><ele>202.75</ele><time>2026-05-04T16:37:57.935Z</time></trkpt><trkpt lat="41.3340159" lon="1.6989973"><ele>203.0</ele><time>2026-05-04T16:37:58.934Z</time></trkpt><trkpt lat="41.3340084" lon="1.699172"><ele>203.0</ele><time>2026-05-04T16:37:59.935Z</time></trkpt><trkpt lat="41.3340028" lon="1.6993494"><ele>203.0</ele><time>2026-05-04T16:38:00.935Z</time></trkpt><trkpt lat="41.3339986" lon="1.6995258"><ele>203.0</ele><time>2026-05-04T16:38:01.935Z</time></trkpt><trkpt lat="41.3339931" lon="1.6997059"><ele>203.0</ele><time>2026-05-04T16:38:02.935Z</time></trkpt><trkpt lat="41.3339866" lon="1.6998847"><ele>203.0</ele><time>2026-05-04T16:38:03.935Z</time></trkpt><trkpt lat="41.3339802" lon="1.7000628"><ele>203.0</ele><time>2026-05-04T16:38:04.935Z</time></trkpt><trkpt lat="41.3339736" lon="1.7002414"><ele>203.0</ele><time>2026-05-04T16:38:05.934Z</time></trkpt><trkpt lat="41.3339711" lon="1.7004232"><ele>203.0</ele><time>2026-05-04T16:38:06.935Z</time></trkpt><trkpt lat="41.3339709" lon="1.7006068"><ele>203.0</ele><time>2026-05-04T16:38:07.935Z</time></trkpt><trkpt lat="41.3339731" lon="1.7007884"><ele>203.0</ele><time>2026-05-04T16:38:08.935Z</time></trkpt><trkpt lat="41.3339773" lon="1.7009702"><ele>203.0</ele><time>2026-05-04T16:38:09.935Z</time></trkpt><trkpt lat="41.3339846" lon="1.7011539"><ele>203.0</ele><time>2026-05-04T16:38:10.935Z</time></trkpt><trkpt lat="41.3339964" lon="1.7013351"><ele>203.0</ele><time>2026-05-04T16:38:11.935Z</time></trkpt><trkpt lat="41.3340143" lon="1.7015215"><ele>203.0</ele><time>2026-05-04T16:38:12.935Z</time></trkpt><trkpt lat="41.3340373" lon="1.7017054"><ele>203.0</ele><time>2026-05-04T16:38:13.935Z</time></trkpt><trkpt lat="41.3340607" lon="1.7018889"><ele>203.0</ele><time>2026-05-04T16:38:14.935Z</time></trkpt><trkpt lat="41.3340916" lon="1.7020749"><ele>202.75</ele><time>2026-05-04T16:38:15.935Z</time></trkpt><trkpt lat="41.3341187" lon="1.7022594"><ele>202.5</ele><time>2026-05-04T16:38:16.935Z</time></trkpt><trkpt lat="41.3341531" lon="1.7024377"><ele>202.25</ele><time>2026-05-04T16:38:17.935Z</time></trkpt><trkpt lat="41.3341899" lon="1.7026172"><ele>202.0</ele><time>2026-05-04T16:38:18.935Z</time></trkpt><trkpt lat="41.3342287" lon="1.702793"><ele>202.5</ele><time>2026-05-04T16:38:19.935Z</time></trkpt><trkpt lat="41.3342691" lon="1.7029643"><ele>203.0</ele><time>2026-05-04T16:38:20.935Z</time></trkpt><trkpt lat="41.3343165" lon="1.703135"><ele>203.5</ele><time>2026-05-04T16:38:21.935Z</time></trkpt><trkpt lat="41.3343701" lon="1.7033009"><ele>204.0</ele><time>2026-05-04T16:38:22.935Z</time></trkpt><trkpt lat="41.3344208" lon="1.7034662"><ele>202.75</ele><time>2026-05-04T16:38:23.935Z</time></trkpt><trkpt lat="41.3344795" lon="1.703623"><ele>201.5</ele><time>2026-05-04T16:38:24.934Z</time></trkpt><trkpt lat="41.3345388" lon="1.7037791"><ele>200.25</ele><time>2026-05-04T16:38:25.935Z</time></trkpt><trkpt lat="41.3346035" lon="1.7039315"><ele>199.0</ele><time>2026-05-04T16:38:26.935Z</time></trkpt><trkpt lat="41.3346661" lon="1.7040733"><ele>199.25</ele><time>2026-05-04T16:38:27.935Z</time></trkpt><trkpt lat="41.3347261" lon="1.7042132"><ele>199.5</ele><time>2026-05-04T16:38:28.935Z</time></trkpt><trkpt lat="41.3347854" lon="1.7043492"><ele>199.75</ele><time>2026-05-04T16:38:29.935Z</time></trkpt><trkpt lat="41.3348476" lon="1.704482"><ele>200.0</ele><time>2026-05-04T16:38:30.935Z</time></trkpt><trkpt lat="41.3349118" lon="1.7046149"><ele>200.0</ele><time>2026-05-04T16:38:31.935Z</time></trkpt><trkpt lat="41.3349783" lon="1.7047433"><ele>200.0</ele><time>2026-05-04T16:38:32.935Z</time></trkpt><trkpt lat="41.3350451" lon="1.7048723"><ele>200.0</ele><time>2026-05-04T16:38:33.935Z</time></trkpt><trkpt lat="41.3351142" lon="1.7049953"><ele>200.0</ele><time>2026-05-04T16:38:34.935Z</time></trkpt><trkpt lat="41.3351902" lon="1.7051147"><ele>200.0</ele><time>2026-05-04T16:38:35.935Z</time></trkpt><trkpt lat="41.3352614" lon="1.7052317"><ele>200.0</ele><time>2026-05-04T16:38:36.935Z</time></trkpt><trkpt lat="41.3353389" lon="1.705347"><ele>200.0</ele><time>2026-05-04T16:38:37.934Z</time></trkpt><trkpt lat="41.3354165" lon="1.7054627"><ele>200.0</ele><time>2026-05-04T16:38:38.935Z</time></trkpt><trkpt lat="41.335499" lon="1.7055755"><ele>201.0</ele><time>2026-05-04T16:38:39.935Z</time></trkpt><trkpt lat="41.3355841" lon="1.7056867"><ele>202.0</ele><time>2026-05-04T16:38:40.935Z</time></trkpt><trkpt lat="41.3356724" lon="1.7058112"><ele>203.0</ele><time>2026-05-04T16:38:41.935Z</time></trkpt><trkpt lat="41.3357604" lon="1.7059211"><ele>204.0</ele><time>2026-05-04T16:38:42.935Z</time></trkpt><trkpt lat="41.3358537" lon="1.7060263"><ele>203.5</ele><time>2026-05-04T16:38:43.935Z</time></trkpt><trkpt lat="41.3359443" lon="1.7061386"><ele>203.0</ele><time>2026-05-04T16:38:44.935Z</time></trkpt><trkpt lat="41.3360457" lon="1.706244"><ele>202.5</ele><time>2026-05-04T16:38:45.935Z</time></trkpt><trkpt lat="41.336152" lon="1.7063516"><ele>202.0</ele><time>2026-05-04T16:38:46.935Z</time></trkpt><trkpt lat="41.3362595" lon="1.7064576"><ele>202.0</ele><time>2026-05-04T16:38:47.935Z</time></trkpt><trkpt lat="41.3363697" lon="1.7065595"><ele>202.0</ele><time>2026-05-04T16:38:48.935Z</time></trkpt><trkpt lat="41.336484" lon="1.7066502"><ele>202.0</ele><time>2026-05-04T16:38:49.935Z</time></trkpt><trkpt lat="41.3365955" lon="1.7067403"><ele>202.0</ele><time>2026-05-04T16:38:50.935Z</time></trkpt><trkpt lat="41.3367127" lon="1.7068333"><ele>202.0</ele><time>2026-05-04T16:38:51.935Z</time></trkpt><trkpt lat="41.3368336" lon="1.7069199"><ele>202.0</ele><time>2026-05-04T16:38:52.935Z</time></trkpt><trkpt lat="41.3369665" lon="1.70701"><ele>202.0</ele><time>2026-05-04T16:38:53.935Z</time></trkpt><trkpt lat="41.3370949" lon="1.7070911"><ele>202.0</ele><time>2026-05-04T16:38:54.934Z</time></trkpt><trkpt lat="41.3372314" lon="1.7071711"><ele>202.5</ele><time>2026-05-04T16:38:55.935Z</time></trkpt><trkpt lat="41.337364" lon="1.7072481"><ele>203.0</ele><time>2026-05-04T16:38:56.934Z</time></trkpt><trkpt lat="41.3374927" lon="1.7073203"><ele>203.5</ele><time>2026-05-04T16:38:57.935Z</time></trkpt><trkpt lat="41.3376223" lon="1.7073952"><ele>204.0</ele><time>2026-05-04T16:38:58.935Z</time></trkpt><trkpt lat="41.3377549" lon="1.707464"><ele>204.0</ele><time>2026-05-04T16:38:59.935Z</time></trkpt><trkpt lat="41.3378849" lon="1.7075325"><ele>204.0</ele><time>2026-05-04T16:39:00.935Z</time></trkpt><trkpt lat="41.338014" lon="1.7075994"><ele>204.0</ele><time>2026-05-04T16:39:01.934Z</time></trkpt><trkpt lat="41.3381432" lon="1.7076655"><ele>204.0</ele><time>2026-05-04T16:39:02.935Z</time></trkpt><trkpt lat="41.3382729" lon="1.7077286"><ele>204.25</ele><time>2026-05-04T16:39:03.935Z</time></trkpt><trkpt lat="41.3384026" lon="1.7077921"><ele>204.5</ele><time>2026-05-04T16:39:04.935Z</time></trkpt><trkpt lat="41.3385262" lon="1.7078592"><ele>204.75</ele><time>2026-05-04T16:39:05.935Z</time></trkpt><trkpt lat="41.3386511" lon="1.7079296"><ele>205.0</ele><time>2026-05-04T16:39:06.934Z</time></trkpt><trkpt lat="41.3387743" lon="1.7080023"><ele>205.25</ele><time>2026-05-04T16:39:07.935Z</time></trkpt><trkpt lat="41.3388996" lon="1.7080743"><ele>205.5</ele><time>2026-05-04T16:39:08.935Z</time></trkpt><trkpt lat="41.3390255" lon="1.7081483"><ele>205.75</ele><time>2026-05-04T16:39:09.934Z</time></trkpt><trkpt lat="41.3391469" lon="1.7082313"><ele>206.0</ele><time>2026-05-04T16:39:10.935Z</time></trkpt><trkpt lat="41.3392652" lon="1.7083198"><ele>206.0</ele><time>2026-05-04T16:39:11.934Z</time></trkpt><trkpt lat="41.3393874" lon="1.7084044"><ele>206.0</ele><time>2026-05-04T16:39:12.935Z</time></trkpt><trkpt lat="41.3395077" lon="1.7084903"><ele>206.0</ele><time>2026-05-04T16:39:13.935Z</time></trkpt><trkpt lat="41.3396286" lon="1.7085708"><ele>206.0</ele><time>2026-05-04T16:39:14.934Z</time></trkpt><trkpt lat="41.3397513" lon="1.7086586"><ele>205.5</ele><time>2026-05-04T16:39:15.934Z</time></trkpt><trkpt lat="41.3398642" lon="1.7087441"><ele>205.0</ele><time>2026-05-04T16:39:16.935Z</time></trkpt><trkpt lat="41.3399805" lon="1.7088272"><ele>204.5</ele><time>2026-05-04T16:39:17.935Z</time></trkpt><trkpt lat="41.3400986" lon="1.7089103"><ele>204.0</ele><time>2026-05-04T16:39:18.935Z</time></trkpt><trkpt lat="41.3402212" lon="1.7089934"><ele>204.0</ele><time>2026-05-04T16:39:19.936Z</time></trkpt><trkpt lat="41.3403421" lon="1.7090788"><ele>204.0</ele><time>2026-05-04T16:39:20.935Z</time></trkpt><trkpt lat="41.3404597" lon="1.7091664"><ele>204.0</ele><time>2026-05-04T16:39:21.936Z</time></trkpt><trkpt lat="41.3405728" lon="1.7092592"><ele>204.0</ele><time>2026-05-04T16:39:22.936Z</time></trkpt><trkpt lat="41.3406872" lon="1.7093529"><ele>204.75</ele><time>2026-05-04T16:39:23.936Z</time></trkpt><trkpt lat="41.3407988" lon="1.709441"><ele>205.5</ele><time>2026-05-04T16:39:24.936Z</time></trkpt><trkpt lat="41.3409076" lon="1.7095289"><ele>206.25</ele><time>2026-05-04T16:39:25.936Z</time></trkpt><trkpt lat="41.3410198" lon="1.7096171"><ele>207.0</ele><time>2026-05-04T16:39:26.936Z</time></trkpt><trkpt lat="41.3411318" lon="1.7097072"><ele>207.0</ele><time>2026-05-04T16:39:27.935Z</time></trkpt><trkpt lat="41.3412416" lon="1.7097931"><ele>207.0</ele><time>2026-05-04T16:39:28.935Z</time></trkpt><trkpt lat="41.3413491" lon="1.7098809"><ele>207.0</ele><time>2026-05-04T16:39:29.936Z</time></trkpt><trkpt lat="41.3414581" lon="1.7099684"><ele>207.0</ele><time>2026-05-04T16:39:30.936Z</time></trkpt><trkpt lat="41.3415699" lon="1.7100553"><ele>207.25</ele><time>2026-05-04T16:39:31.936Z</time></trkpt><trkpt lat="41.3416816" lon="1.7101401"><ele>207.5</ele><time>2026-05-04T16:39:32.936Z</time></trkpt><trkpt lat="41.3417922" lon="1.7102243"><ele>207.75</ele><time>2026-05-04T16:39:33.936Z</time></trkpt><trkpt lat="41.3419004" lon="1.7103121"><ele>208.0</ele><time>2026-05-04T16:39:34.936Z</time></trkpt><trkpt lat="41.3420127" lon="1.7104034"><ele>208.0</ele><time>2026-05-04T16:39:35.936Z</time></trkpt><trkpt lat="41.3421204" lon="1.7104915"><ele>208.0</ele><time>2026-05-04T16:39:36.936Z</time></trkpt><trkpt lat="41.3422318" lon="1.7105805"><ele>208.0</ele><time>2026-05-04T16:39:37.936Z</time></trkpt><trkpt lat="41.3423409" lon="1.7106696"><ele>208.0</ele><time>2026-05-04T16:39:38.936Z</time></trkpt><trkpt lat="41.3424503" lon="1.7107573"><ele>208.25</ele><time>2026-05-04T16:39:39.936Z</time></trkpt><trkpt lat="41.3425586" lon="1.7108429"><ele>208.5</ele><time>2026-05-04T16:39:40.935Z</time></trkpt><trkpt lat="41.3426699" lon="1.7109274"><ele>208.75</ele><time>2026-05-04T16:39:41.936Z</time></trkpt><trkpt lat="41.3427818" lon="1.711009"><ele>209.0</ele><time>2026-05-04T16:39:42.936Z</time></trkpt><trkpt lat="41.3428939" lon="1.7110955"><ele>209.0</ele><time>2026-05-04T16:39:43.936Z</time></trkpt><trkpt lat="41.3430019" lon="1.7111829"><ele>209.0</ele><time>2026-05-04T16:39:44.936Z</time></trkpt><trkpt lat="41.3431126" lon="1.7112716"><ele>209.0</ele><time>2026-05-04T16:39:45.936Z</time></trkpt><trkpt lat="41.3432315" lon="1.7113678"><ele>209.0</ele><time>2026-05-04T16:39:46.936Z</time></trkpt><trkpt lat="41.3433494" lon="1.7114599"><ele>210.0</ele><time>2026-05-04T16:39:47.936Z</time></trkpt><trkpt lat="41.3434662" lon="1.7115587"><ele>211.0</ele><time>2026-05-04T16:39:48.936Z</time></trkpt><trkpt lat="41.3435854" lon="1.7116571"><ele>212.0</ele><time>2026-05-04T16:39:49.936Z</time></trkpt><trkpt lat="41.3437042" lon="1.7117522"><ele>213.0</ele><time>2026-05-04T16:39:50.936Z</time></trkpt><trkpt lat="41.3438244" lon="1.7118466"><ele>211.75</ele><time>2026-05-04T16:39:51.936Z</time></trkpt><trkpt lat="41.3439482" lon="1.7119404"><ele>210.5</ele><time>2026-05-04T16:39:52.936Z</time></trkpt><trkpt lat="41.3440712" lon="1.7120374"><ele>209.25</ele><time>2026-05-04T16:39:53.936Z</time></trkpt><trkpt lat="41.3441933" lon="1.7121323"><ele>208.0</ele><time>2026-05-04T16:39:54.936Z</time></trkpt><trkpt lat="41.3443173" lon="1.7122291"><ele>208.0</ele><time>2026-05-04T16:39:55.936Z</time></trkpt><trkpt lat="41.3444396" lon="1.7123284"><ele>208.0</ele><time>2026-05-04T16:39:56.936Z</time></trkpt><trkpt lat="41.3445588" lon="1.7124274"><ele>208.0</ele><time>2026-05-04T16:39:57.936Z</time></trkpt><trkpt lat="41.3446791" lon="1.7125304"><ele>208.0</ele><time>2026-05-04T16:39:58.936Z</time></trkpt><trkpt lat="41.3447985" lon="1.7126262"><ele>208.5</ele><time>2026-05-04T16:39:59.936Z</time></trkpt><trkpt lat="41.3449202" lon="1.712722"><ele>209.0</ele><time>2026-05-04T16:40:00.935Z</time></trkpt><trkpt lat="41.3450379" lon="1.7128124"><ele>209.5</ele><time>2026-05-04T16:40:01.936Z</time></trkpt><trkpt lat="41.3451609" lon="1.7129022"><ele>210.0</ele><time>2026-05-04T16:40:02.936Z</time></trkpt><trkpt lat="41.3452844" lon="1.7129923"><ele>210.0</ele><time>2026-05-04T16:40:03.936Z</time></trkpt><trkpt lat="41.3454029" lon="1.7130823"><ele>210.0</ele><time>2026-05-04T16:40:04.936Z</time></trkpt><trkpt lat="41.3455193" lon="1.7131738"><ele>210.0</ele><time>2026-05-04T16:40:05.936Z</time></trkpt><trkpt lat="41.3456363" lon="1.7132645"><ele>210.0</ele><time>2026-05-04T16:40:06.936Z</time></trkpt><trkpt lat="41.3457526" lon="1.7133605"><ele>211.0</ele><time>2026-05-04T16:40:07.936Z</time></trkpt><trkpt lat="41.3458679" lon="1.7134525"><ele>212.0</ele><time>2026-05-04T16:40:08.935Z</time></trkpt><trkpt lat="41.3459874" lon="1.7135359"><ele>213.0</ele><time>2026-05-04T16:40:09.936Z</time></trkpt><trkpt lat="41.3461008" lon="1.7136263"><ele>214.0</ele><time>2026-05-04T16:40:10.936Z</time></trkpt><trkpt lat="41.3462184" lon="1.7137059"><ele>214.25</ele><time>2026-05-04T16:40:11.936Z</time></trkpt><trkpt lat="41.3463342" lon="1.7137945"><ele>214.5</ele><time>2026-05-04T16:40:12.936Z</time></trkpt><trkpt lat="41.3464501" lon="1.7138746"><ele>214.75</ele><time>2026-05-04T16:40:13.936Z</time></trkpt><trkpt lat="41.3465646" lon="1.7139637"><ele>215.0</ele><time>2026-05-04T16:40:14.936Z</time></trkpt><trkpt lat="41.3466813" lon="1.7140517"><ele>215.25</ele><time>2026-05-04T16:40:15.936Z</time></trkpt><trkpt lat="41.3467965" lon="1.714136"><ele>215.5</ele><time>2026-05-04T16:40:16.936Z</time></trkpt><trkpt lat="41.3469145" lon="1.7142225"><ele>215.75</ele><time>2026-05-04T16:40:17.936Z</time></trkpt><trkpt lat="41.3470302" lon="1.7143098"><ele>216.0</ele><time>2026-05-04T16:40:18.936Z</time></trkpt><trkpt lat="41.3471501" lon="1.7143942"><ele>216.5</ele><time>2026-05-04T16:40:19.936Z</time></trkpt><trkpt lat="41.3472679" lon="1.7144822"><ele>217.0</ele><time>2026-05-04T16:40:20.936Z</time></trkpt><trkpt lat="41.347387" lon="1.7145712"><ele>217.5</ele><time>2026-05-04T16:40:21.936Z</time></trkpt><trkpt lat="41.3475043" lon="1.7146539"><ele>218.0</ele><time>2026-05-04T16:40:22.936Z</time></trkpt><trkpt lat="41.3476235" lon="1.7147485"><ele>218.0</ele><time>2026-05-04T16:40:23.936Z</time></trkpt><trkpt lat="41.3477434" lon="1.7148387"><ele>218.0</ele><time>2026-05-04T16:40:24.935Z</time></trkpt><trkpt lat="41.3478629" lon="1.7149258"><ele>218.0</ele><time>2026-05-04T16:40:25.936Z</time></trkpt><trkpt lat="41.3479793" lon="1.715017"><ele>218.0</ele><time>2026-05-04T16:40:26.935Z</time></trkpt><trkpt lat="41.3481003" lon="1.7151044"><ele>218.25</ele><time>2026-05-04T16:40:27.936Z</time></trkpt><trkpt lat="41.3482174" lon="1.7151971"><ele>218.5</ele><time>2026-05-04T16:40:28.936Z</time></trkpt><trkpt lat="41.3483295" lon="1.7152963"><ele>218.75</ele><time>2026-05-04T16:40:29.936Z</time></trkpt><trkpt lat="41.3484386" lon="1.7153997"><ele>219.0</ele><time>2026-05-04T16:40:30.936Z</time></trkpt><trkpt lat="41.3485387" lon="1.7155033"><ele>219.25</ele><time>2026-05-04T16:40:31.936Z</time></trkpt><trkpt lat="41.3486346" lon="1.7156239"><ele>219.5</ele><time>2026-05-04T16:40:32.936Z</time></trkpt><trkpt lat="41.3487264" lon="1.7157312"><ele>219.75</ele><time>2026-05-04T16:40:33.936Z</time></trkpt><trkpt lat="41.3488107" lon="1.7158562"><ele>220.0</ele><time>2026-05-04T16:40:34.936Z</time></trkpt><trkpt lat="41.3488911" lon="1.7159833"><ele>221.0</ele><time>2026-05-04T16:40:35.936Z</time></trkpt><trkpt lat="41.3489671" lon="1.7161145"><ele>222.0</ele><time>2026-05-04T16:40:36.935Z</time></trkpt><trkpt lat="41.3490374" lon="1.7162433"><ele>223.0</ele><time>2026-05-04T16:40:37.936Z</time></trkpt><trkpt lat="41.3491055" lon="1.7163781"><ele>224.0</ele><time>2026-05-04T16:40:38.936Z</time></trkpt><trkpt lat="41.3491634" lon="1.716527"><ele>224.0</ele><time>2026-05-04T16:40:39.935Z</time></trkpt><trkpt lat="41.3492174" lon="1.7166704"><ele>224.0</ele><time>2026-05-04T16:40:40.936Z</time></trkpt><trkpt lat="41.3492678" lon="1.7168242"><ele>224.0</ele><time>2026-05-04T16:40:41.936Z</time></trkpt><trkpt lat="41.3493137" lon="1.7169874"><ele>224.0</ele><time>2026-05-04T16:40:42.936Z</time></trkpt><trkpt lat="41.3493529" lon="1.7171496"><ele>224.5</ele><time>2026-05-04T16:40:43.936Z</time></trkpt><trkpt lat="41.3493968" lon="1.7173129"><ele>225.0</ele><time>2026-05-04T16:40:44.936Z</time></trkpt><trkpt lat="41.3494412" lon="1.7174723"><ele>225.5</ele><time>2026-05-04T16:40:45.935Z</time></trkpt><trkpt lat="41.3494793" lon="1.7176398"><ele>226.0</ele><time>2026-05-04T16:40:46.935Z</time></trkpt><trkpt lat="41.3495156" lon="1.71781"><ele>226.75</ele><time>2026-05-04T16:40:47.936Z</time></trkpt><trkpt lat="41.3495424" lon="1.7179786"><ele>227.5</ele><time>2026-05-04T16:40:48.936Z</time></trkpt><trkpt lat="41.3495742" lon="1.7181517"><ele>228.25</ele><time>2026-05-04T16:40:49.936Z</time></trkpt><trkpt lat="41.3496077" lon="1.7183185"><ele>229.0</ele><time>2026-05-04T16:40:50.936Z</time></trkpt><trkpt lat="41.349644" lon="1.7184935"><ele>228.25</ele><time>2026-05-04T16:40:51.936Z</time></trkpt><trkpt lat="41.349655" lon="1.7186735"><ele>227.5</ele><time>2026-05-04T16:40:52.935Z</time></trkpt><trkpt lat="41.3496994" lon="1.718839"><ele>226.75</ele><time>2026-05-04T16:40:53.935Z</time></trkpt><trkpt lat="41.349744" lon="1.7190097"><ele>226.0</ele><time>2026-05-04T16:40:54.936Z</time></trkpt><trkpt lat="41.3497962" lon="1.7191755"><ele>226.0</ele><time>2026-05-04T16:40:55.936Z</time></trkpt><trkpt lat="41.3498343" lon="1.7193455"><ele>226.0</ele><time>2026-05-04T16:40:56.936Z</time></trkpt><trkpt lat="41.3498722" lon="1.7195174"><ele>226.0</ele><time>2026-05-04T16:40:57.936Z</time></trkpt><trkpt lat="41.3499042" lon="1.7196844"><ele>226.0</ele><time>2026-05-04T16:40:58.935Z</time></trkpt><trkpt lat="41.349939" lon="1.7198488"><ele>225.8</ele><time>2026-05-04T16:40:59.936Z</time></trkpt><trkpt lat="41.3499618" lon="1.7200015"><ele>225.60000000000002</ele><time>2026-05-04T16:41:00.936Z</time></trkpt><trkpt lat="41.3499789" lon="1.7201393"><ele>225.4</ele><time>2026-05-04T16:41:01.936Z</time></trkpt><trkpt lat="41.3499895" lon="1.7202736"><ele>225.2</ele><time>2026-05-04T16:41:02.936Z</time></trkpt><trkpt lat="41.3500056" lon="1.7204039"><ele>225.0</ele><time>2026-05-04T16:41:03.936Z</time></trkpt><trkpt lat="41.3500204" lon="1.7205231"><ele>225.0</ele><time>2026-05-04T16:41:04.936Z</time></trkpt><trkpt lat="41.3500341" lon="1.7206293"><ele>225.0</ele><time>2026-05-04T16:41:05.935Z</time></trkpt><trkpt lat="41.350047" lon="1.7207227"><ele>225.0</ele><time>2026-05-04T16:41:06.936Z</time></trkpt><trkpt lat="41.3500672" lon="1.7208672"><ele>225.0</ele><time>2026-05-04T16:41:08.936Z</time></trkpt><trkpt lat="41.3500854" lon="1.720968"><ele>225.0</ele><time>2026-05-04T16:41:10.936Z</time></trkpt><trkpt lat="41.3500515" lon="1.7210581"><ele>225.0</ele><time>2026-05-04T16:44:57.938Z</time></trkpt><trkpt lat="41.3501178" lon="1.721091"><ele>225.0</ele><time>2026-05-04T17:00:35.943Z</time></trkpt><trkpt lat="41.350168" lon="1.7211516"><ele>225.0</ele><time>2026-05-04T17:00:39.943Z</time></trkpt><trkpt lat="41.3501885" lon="1.7212547"><ele>225.0</ele><time>2026-05-04T17:00:42.943Z</time></trkpt><trkpt lat="41.350227" lon="1.7213442"><ele>225.0</ele><time>2026-05-04T17:00:44.943Z</time></trkpt><trkpt lat="41.3502815" lon="1.7214088"><ele>225.0</ele><time>2026-05-04T17:00:47.942Z</time></trkpt><trkpt lat="41.3503381" lon="1.7215114"><ele>225.0</ele><time>2026-05-04T17:01:32.944Z</time></trkpt><trkpt lat="41.3503418" lon="1.7216153"><ele>225.0</ele><time>2026-05-04T17:01:34.944Z</time></trkpt><trkpt lat="41.3503095" lon="1.721713"><ele>225.0</ele><time>2026-05-04T17:01:36.944Z</time></trkpt><trkpt lat="41.3502289" lon="1.7218421"><ele>225.0</ele><time>2026-05-04T17:01:38.943Z</time></trkpt><trkpt lat="41.3501871" lon="1.7219245"><ele>225.0</ele><time>2026-05-04T17:01:39.944Z</time></trkpt><trkpt lat="41.3501526" lon="1.7220171"><ele>225.0</ele><time>2026-05-04T17:01:40.944Z</time></trkpt><trkpt lat="41.3501241" lon="1.7221105"><ele>225.0</ele><time>2026-05-04T17:01:41.944Z</time></trkpt><trkpt lat="41.3501037" lon="1.7222087"><ele>224.83333333333334</ele><time>2026-05-04T17:01:42.944Z</time></trkpt><trkpt lat="41.3500995" lon="1.7223057"><ele>224.66666666666669</ele><time>2026-05-04T17:01:43.944Z</time></trkpt><trkpt lat="41.350109" lon="1.7224006"><ele>224.5</ele><time>2026-05-04T17:01:44.944Z</time></trkpt><trkpt lat="41.3501333" lon="1.7225043"><ele>224.33333333333334</ele><time>2026-05-04T17:01:45.944Z</time></trkpt><trkpt lat="41.3501662" lon="1.7225998"><ele>224.16666666666669</ele><time>2026-05-04T17:01:46.944Z</time></trkpt><trkpt lat="41.3502232" lon="1.7226906"><ele>224.0</ele><time>2026-05-04T17:01:47.944Z</time></trkpt><trkpt lat="41.3502876" lon="1.7227709"><ele>223.6</ele><time>2026-05-04T17:01:48.943Z</time></trkpt><trkpt lat="41.3503606" lon="1.7228282"><ele>223.2</ele><time>2026-05-04T17:01:49.944Z</time></trkpt><trkpt lat="41.3504385" lon="1.7228726"><ele>222.79999999999998</ele><time>2026-05-04T17:01:50.943Z</time></trkpt><trkpt lat="41.3505219" lon="1.7229212"><ele>222.39999999999998</ele><time>2026-05-04T17:01:51.944Z</time></trkpt><trkpt lat="41.3506005" lon="1.7229921"><ele>222.0</ele><time>2026-05-04T17:01:52.944Z</time></trkpt><trkpt lat="41.3506745" lon="1.7230792"><ele>222.0</ele><time>2026-05-04T17:01:53.944Z</time></trkpt><trkpt lat="41.3507323" lon="1.7231879"><ele>222.0</ele><time>2026-05-04T17:01:54.944Z</time></trkpt><trkpt lat="41.3507722" lon="1.7233118"><ele>222.0</ele><time>2026-05-04T17:01:55.944Z</time></trkpt><trkpt lat="41.3508065" lon="1.7234612"><ele>222.0</ele><time>2026-05-04T17:01:56.944Z</time></trkpt><trkpt lat="41.3508413" lon="1.7236108"><ele>222.0</ele><time>2026-05-04T17:01:57.943Z</time></trkpt><trkpt lat="41.3508783" lon="1.72377"><ele>221.5</ele><time>2026-05-04T17:01:58.944Z</time></trkpt><trkpt lat="41.3509191" lon="1.7239363"><ele>221.0</ele><time>2026-05-04T17:01:59.944Z</time></trkpt><trkpt lat="41.3509563" lon="1.7241024"><ele>220.5</ele><time>2026-05-04T17:02:00.943Z</time></trkpt><trkpt lat="41.3509993" lon="1.7242678"><ele>220.0</ele><time>2026-05-04T17:02:01.944Z</time></trkpt><trkpt lat="41.3510439" lon="1.7244319"><ele>219.5</ele><time>2026-05-04T17:02:02.944Z</time></trkpt><trkpt lat="41.3510794" lon="1.7245959"><ele>219.0</ele><time>2026-05-04T17:02:03.943Z</time></trkpt><trkpt lat="41.351118" lon="1.7247548"><ele>218.5</ele><time>2026-05-04T17:02:04.944Z</time></trkpt><trkpt lat="41.3511497" lon="1.7249212"><ele>218.0</ele><time>2026-05-04T17:02:05.944Z</time></trkpt><trkpt lat="41.3511894" lon="1.725088"><ele>217.75</ele><time>2026-05-04T17:02:06.944Z</time></trkpt><trkpt lat="41.3512279" lon="1.7252545"><ele>217.5</ele><time>2026-05-04T17:02:07.944Z</time></trkpt><trkpt lat="41.351264" lon="1.7254233"><ele>217.25</ele><time>2026-05-04T17:02:08.944Z</time></trkpt><trkpt lat="41.3513008" lon="1.7255858"><ele>217.0</ele><time>2026-05-04T17:02:09.944Z</time></trkpt><trkpt lat="41.3513393" lon="1.7257536"><ele>217.75</ele><time>2026-05-04T17:02:10.944Z</time></trkpt><trkpt lat="41.3513772" lon="1.7259171"><ele>218.5</ele><time>2026-05-04T17:02:11.944Z</time></trkpt><trkpt lat="41.3514119" lon="1.7260832"><ele>219.25</ele><time>2026-05-04T17:02:12.944Z</time></trkpt><trkpt lat="41.3514519" lon="1.7262531"><ele>220.0</ele><time>2026-05-04T17:02:13.944Z</time></trkpt><trkpt lat="41.3514895" lon="1.7264239"><ele>220.0</ele><time>2026-05-04T17:02:14.944Z</time></trkpt><trkpt lat="41.3515316" lon="1.7265941"><ele>220.0</ele><time>2026-05-04T17:02:15.944Z</time></trkpt><trkpt lat="41.3515719" lon="1.7267688"><ele>220.0</ele><time>2026-05-04T17:02:16.944Z</time></trkpt><trkpt lat="41.3516104" lon="1.7269478"><ele>220.0</ele><time>2026-05-04T17:02:17.944Z</time></trkpt><trkpt lat="41.351652" lon="1.7271274"><ele>220.0</ele><time>2026-05-04T17:02:18.944Z</time></trkpt><trkpt lat="41.3516939" lon="1.727304"><ele>220.0</ele><time>2026-05-04T17:02:19.944Z</time></trkpt><trkpt lat="41.3517384" lon="1.7274842"><ele>220.0</ele><time>2026-05-04T17:02:20.943Z</time></trkpt><trkpt lat="41.3517821" lon="1.7276703"><ele>220.0</ele><time>2026-05-04T17:02:21.943Z</time></trkpt><trkpt lat="41.3518227" lon="1.7278542"><ele>220.0</ele><time>2026-05-04T17:02:22.944Z</time></trkpt><trkpt lat="41.3518662" lon="1.7280483"><ele>220.0</ele><time>2026-05-04T17:02:23.944Z</time></trkpt><trkpt lat="41.351909" lon="1.7282338"><ele>220.0</ele><time>2026-05-04T17:02:24.943Z</time></trkpt><trkpt lat="41.3519513" lon="1.7284288"><ele>220.0</ele><time>2026-05-04T17:02:25.944Z</time></trkpt><trkpt lat="41.3519959" lon="1.7286215"><ele>220.0</ele><time>2026-05-04T17:02:26.943Z</time></trkpt><trkpt lat="41.3520375" lon="1.7288112"><ele>220.0</ele><time>2026-05-04T17:02:27.944Z</time></trkpt><trkpt lat="41.3520779" lon="1.7289929"><ele>220.0</ele><time>2026-05-04T17:02:28.944Z</time></trkpt><trkpt lat="41.3521202" lon="1.7291803"><ele>220.0</ele><time>2026-05-04T17:02:29.943Z</time></trkpt><trkpt lat="41.3521691" lon="1.7293769"><ele>220.0</ele><time>2026-05-04T17:02:30.944Z</time></trkpt><trkpt lat="41.3522165" lon="1.7295682"><ele>220.0</ele><time>2026-05-04T17:02:31.944Z</time></trkpt><trkpt lat="41.3522651" lon="1.7297594"><ele>221.0</ele><time>2026-05-04T17:02:32.944Z</time></trkpt><trkpt lat="41.3523103" lon="1.7299481"><ele>222.0</ele><time>2026-05-04T17:02:33.944Z</time></trkpt><trkpt lat="41.3523526" lon="1.7301333"><ele>223.0</ele><time>2026-05-04T17:02:34.944Z</time></trkpt><trkpt lat="41.3523938" lon="1.7303184"><ele>224.0</ele><time>2026-05-04T17:02:35.943Z</time></trkpt><trkpt lat="41.352432" lon="1.730496"><ele>224.75</ele><time>2026-05-04T17:02:36.944Z</time></trkpt><trkpt lat="41.3524707" lon="1.730663"><ele>225.5</ele><time>2026-05-04T17:02:37.943Z</time></trkpt><trkpt lat="41.3525038" lon="1.7308384"><ele>226.25</ele><time>2026-05-04T17:02:38.943Z</time></trkpt><trkpt lat="41.3525405" lon="1.7310029"><ele>227.0</ele><time>2026-05-04T17:02:39.943Z</time></trkpt><trkpt lat="41.3525777" lon="1.7311489"><ele>227.2</ele><time>2026-05-04T17:02:40.944Z</time></trkpt><trkpt lat="41.3526158" lon="1.7312901"><ele>227.39999999999998</ele><time>2026-05-04T17:02:41.943Z</time></trkpt><trkpt lat="41.3526481" lon="1.7314261"><ele>227.60000000000002</ele><time>2026-05-04T17:02:42.944Z</time></trkpt><trkpt lat="41.3526811" lon="1.7315683"><ele>227.8</ele><time>2026-05-04T17:02:43.944Z</time></trkpt><trkpt lat="41.3527129" lon="1.7317133"><ele>228.0</ele><time>2026-05-04T17:02:44.944Z</time></trkpt><trkpt lat="41.3527466" lon="1.7318626"><ele>228.25</ele><time>2026-05-04T17:02:45.944Z</time></trkpt><trkpt lat="41.3527771" lon="1.7320195"><ele>228.5</ele><time>2026-05-04T17:02:46.944Z</time></trkpt><trkpt lat="41.3527992" lon="1.7321874"><ele>228.75</ele><time>2026-05-04T17:02:47.943Z</time></trkpt><trkpt lat="41.3528157" lon="1.7323587"><ele>229.0</ele><time>2026-05-04T17:02:48.943Z</time></trkpt><trkpt lat="41.3528262" lon="1.7325423"><ele>229.0</ele><time>2026-05-04T17:02:49.944Z</time></trkpt><trkpt lat="41.3528259" lon="1.7327141"><ele>229.0</ele><time>2026-05-04T17:02:50.944Z</time></trkpt><trkpt lat="41.3528187" lon="1.7328784"><ele>229.0</ele><time>2026-05-04T17:02:51.944Z</time></trkpt><trkpt lat="41.3527997" lon="1.7330282"><ele>229.0</ele><time>2026-05-04T17:02:52.943Z</time></trkpt><trkpt lat="41.3527825" lon="1.7331648"><ele>228.79999999999998</ele><time>2026-05-04T17:02:53.944Z</time></trkpt><trkpt lat="41.3527708" lon="1.7332879"><ele>228.59999999999997</ele><time>2026-05-04T17:02:54.944Z</time></trkpt><trkpt lat="41.3527635" lon="1.7333989"><ele>228.4</ele><time>2026-05-04T17:02:55.944Z</time></trkpt><trkpt lat="41.3527589" lon="1.733517"><ele>228.2</ele><time>2026-05-04T17:02:56.944Z</time></trkpt><trkpt lat="41.3527507" lon="1.7336439"><ele>228.0</ele><time>2026-05-04T17:02:57.944Z</time></trkpt><trkpt lat="41.352741" lon="1.7337755"><ele>228.4</ele><time>2026-05-04T17:02:58.944Z</time></trkpt><trkpt lat="41.3527432" lon="1.7339116"><ele>228.8</ele><time>2026-05-04T17:02:59.944Z</time></trkpt><trkpt lat="41.3527639" lon="1.7340454"><ele>229.2</ele><time>2026-05-04T17:03:00.944Z</time></trkpt><trkpt lat="41.352808" lon="1.7341745"><ele>229.6</ele><time>2026-05-04T17:03:01.944Z</time></trkpt><trkpt lat="41.3528613" lon="1.734297"><ele>230.0</ele><time>2026-05-04T17:03:02.944Z</time></trkpt><trkpt lat="41.3529233" lon="1.7344214"><ele>230.5</ele><time>2026-05-04T17:03:03.944Z</time></trkpt><trkpt lat="41.3529838" lon="1.7345533"><ele>231.0</ele><time>2026-05-04T17:03:04.944Z</time></trkpt><trkpt lat="41.3530428" lon="1.734692"><ele>231.5</ele><time>2026-05-04T17:03:05.944Z</time></trkpt><trkpt lat="41.3531055" lon="1.7348335"><ele>232.0</ele><time>2026-05-04T17:03:06.944Z</time></trkpt><trkpt lat="41.3531755" lon="1.7349658"><ele>232.0</ele><time>2026-05-04T17:03:07.944Z</time></trkpt><trkpt lat="41.3532541" lon="1.7350918"><ele>232.0</ele><time>2026-05-04T17:03:08.944Z</time></trkpt><trkpt lat="41.3533384" lon="1.7352168"><ele>232.0</ele><time>2026-05-04T17:03:09.944Z</time></trkpt><trkpt lat="41.3534194" lon="1.7353487"><ele>232.0</ele><time>2026-05-04T17:03:10.944Z</time></trkpt><trkpt lat="41.3534925" lon="1.7354848"><ele>232.75</ele><time>2026-05-04T17:03:11.943Z</time></trkpt><trkpt lat="41.3535591" lon="1.7356314"><ele>233.5</ele><time>2026-05-04T17:03:12.944Z</time></trkpt><trkpt lat="41.3536118" lon="1.735785"><ele>234.25</ele><time>2026-05-04T17:03:13.943Z</time></trkpt><trkpt lat="41.353657" lon="1.7359379"><ele>235.0</ele><time>2026-05-04T17:03:14.944Z</time></trkpt><trkpt lat="41.3536993" lon="1.7361013"><ele>235.75</ele><time>2026-05-04T17:03:15.944Z</time></trkpt><trkpt lat="41.3537387" lon="1.7362637"><ele>236.5</ele><time>2026-05-04T17:03:16.943Z</time></trkpt><trkpt lat="41.3537751" lon="1.7364276"><ele>237.25</ele><time>2026-05-04T17:03:17.944Z</time></trkpt><trkpt lat="41.3538145" lon="1.7365944"><ele>238.0</ele><time>2026-05-04T17:03:18.944Z</time></trkpt><trkpt lat="41.3538556" lon="1.7367625"><ele>238.5</ele><time>2026-05-04T17:03:19.944Z</time></trkpt><trkpt lat="41.3538914" lon="1.7369317"><ele>239.0</ele><time>2026-05-04T17:03:20.943Z</time></trkpt><trkpt lat="41.35393" lon="1.7370992"><ele>239.5</ele><time>2026-05-04T17:03:21.943Z</time></trkpt><trkpt lat="41.3539699" lon="1.7372678"><ele>240.0</ele><time>2026-05-04T17:03:22.944Z</time></trkpt><trkpt lat="41.3540105" lon="1.7374395"><ele>240.0</ele><time>2026-05-04T17:03:23.944Z</time></trkpt><trkpt lat="41.3540506" lon="1.7376141"><ele>240.0</ele><time>2026-05-04T17:03:24.944Z</time></trkpt><trkpt lat="41.3540923" lon="1.7377917"><ele>240.0</ele><time>2026-05-04T17:03:25.943Z</time></trkpt><trkpt lat="41.3541345" lon="1.7379723"><ele>240.0</ele><time>2026-05-04T17:03:26.944Z</time></trkpt><trkpt lat="41.3541749" lon="1.7381522"><ele>240.5</ele><time>2026-05-04T17:03:27.944Z</time></trkpt><trkpt lat="41.3542123" lon="1.7383309"><ele>241.0</ele><time>2026-05-04T17:03:28.944Z</time></trkpt><trkpt lat="41.3542564" lon="1.7385126"><ele>241.5</ele><time>2026-05-04T17:03:29.944Z</time></trkpt><trkpt lat="41.3542997" lon="1.7386933"><ele>242.0</ele><time>2026-05-04T17:03:30.944Z</time></trkpt><trkpt lat="41.3543399" lon="1.7388751"><ele>242.0</ele><time>2026-05-04T17:03:31.944Z</time></trkpt><trkpt lat="41.3543793" lon="1.7390572"><ele>242.0</ele><time>2026-05-04T17:03:32.944Z</time></trkpt><trkpt lat="41.3544218" lon="1.7392437"><ele>242.0</ele><time>2026-05-04T17:03:33.943Z</time></trkpt><trkpt lat="41.3544647" lon="1.7394267"><ele>242.0</ele><time>2026-05-04T17:03:34.944Z</time></trkpt><trkpt lat="41.3545085" lon="1.7396127"><ele>242.0</ele><time>2026-05-04T17:03:35.944Z</time></trkpt><trkpt lat="41.3545526" lon="1.7398037"><ele>242.0</ele><time>2026-05-04T17:03:36.944Z</time></trkpt><trkpt lat="41.3545949" lon="1.7399921"><ele>242.0</ele><time>2026-05-04T17:03:37.944Z</time></trkpt><trkpt lat="41.3546394" lon="1.7401822"><ele>242.0</ele><time>2026-05-04T17:03:38.943Z</time></trkpt><trkpt lat="41.3546828" lon="1.7403729"><ele>241.66666666666669</ele><time>2026-05-04T17:03:39.944Z</time></trkpt><trkpt lat="41.3547253" lon="1.7405691"><ele>241.33333333333331</ele><time>2026-05-04T17:03:40.944Z</time></trkpt><trkpt lat="41.3547691" lon="1.7407625"><ele>241.0</ele><time>2026-05-04T17:03:41.944Z</time></trkpt><trkpt lat="41.3548123" lon="1.7409557"><ele>241.0</ele><time>2026-05-04T17:03:42.944Z</time></trkpt><trkpt lat="41.3548561" lon="1.7411482"><ele>241.0</ele><time>2026-05-04T17:03:43.944Z</time></trkpt><trkpt lat="41.3549006" lon="1.7413408"><ele>241.0</ele><time>2026-05-04T17:03:44.944Z</time></trkpt><trkpt lat="41.3549441" lon="1.7415304"><ele>241.0</ele><time>2026-05-04T17:03:45.944Z</time></trkpt><trkpt lat="41.3549856" lon="1.7417101"><ele>241.0</ele><time>2026-05-04T17:03:46.944Z</time></trkpt><trkpt lat="41.3550243" lon="1.7418808"><ele>241.0</ele><time>2026-05-04T17:03:47.943Z</time></trkpt><trkpt lat="41.3550614" lon="1.742045"><ele>241.0</ele><time>2026-05-04T17:03:48.944Z</time></trkpt><trkpt lat="41.3550957" lon="1.7421968"><ele>241.0</ele><time>2026-05-04T17:03:49.944Z</time></trkpt><trkpt lat="41.3551259" lon="1.7423388"><ele>241.00000000000003</ele><time>2026-05-04T17:03:50.943Z</time></trkpt><trkpt lat="41.3551513" lon="1.7424798"><ele>241.00000000000003</ele><time>2026-05-04T17:03:51.944Z</time></trkpt><trkpt lat="41.3551693" lon="1.7426133"><ele>241.0</ele><time>2026-05-04T17:03:52.943Z</time></trkpt><trkpt lat="41.3551805" lon="1.7427401"><ele>241.0</ele><time>2026-05-04T17:03:53.944Z</time></trkpt><trkpt lat="41.3551768" lon="1.7428742"><ele>241.0</ele><time>2026-05-04T17:03:54.944Z</time></trkpt><trkpt lat="41.3551645" lon="1.7430127"><ele>241.00000000000003</ele><time>2026-05-04T17:03:55.944Z</time></trkpt><trkpt lat="41.3551526" lon="1.743152"><ele>241.00000000000003</ele><time>2026-05-04T17:03:56.944Z</time></trkpt><trkpt lat="41.3551584" lon="1.7432773"><ele>241.0</ele><time>2026-05-04T17:03:57.944Z</time></trkpt><trkpt lat="41.3551908" lon="1.7433838"><ele>241.0</ele><time>2026-05-04T17:03:58.944Z</time></trkpt><trkpt lat="41.3552481" lon="1.7434839"><ele>240.60000000000002</ele><time>2026-05-04T17:03:59.944Z</time></trkpt><trkpt lat="41.3553199" lon="1.7435796"><ele>240.20000000000002</ele><time>2026-05-04T17:04:00.944Z</time></trkpt><trkpt lat="41.3553891" lon="1.7436794"><ele>239.79999999999998</ele><time>2026-05-04T17:04:01.944Z</time></trkpt><trkpt lat="41.3554418" lon="1.7437882"><ele>239.39999999999998</ele><time>2026-05-04T17:04:02.944Z</time></trkpt><trkpt lat="41.3554772" lon="1.7439093"><ele>239.0</ele><time>2026-05-04T17:04:03.944Z</time></trkpt><trkpt lat="41.3555083" lon="1.7440482"><ele>240.25</ele><time>2026-05-04T17:04:04.944Z</time></trkpt><trkpt lat="41.3555467" lon="1.7441886"><ele>241.5</ele><time>2026-05-04T17:04:05.943Z</time></trkpt><trkpt lat="41.3555842" lon="1.7443341"><ele>242.75</ele><time>2026-05-04T17:04:06.944Z</time></trkpt><trkpt lat="41.35562" lon="1.7444864"><ele>244.0</ele><time>2026-05-04T17:04:07.945Z</time></trkpt><trkpt lat="41.3556573" lon="1.7446379"><ele>244.0</ele><time>2026-05-04T17:04:08.944Z</time></trkpt><trkpt lat="41.3556923" lon="1.7447902"><ele>244.0</ele><time>2026-05-04T17:04:09.945Z</time></trkpt><trkpt lat="41.3557263" lon="1.7449494"><ele>244.0</ele><time>2026-05-04T17:04:10.944Z</time></trkpt><trkpt lat="41.3557599" lon="1.7451069"><ele>244.0</ele><time>2026-05-04T17:04:11.945Z</time></trkpt><trkpt lat="41.3557987" lon="1.7452696"><ele>243.25</ele><time>2026-05-04T17:04:12.945Z</time></trkpt><trkpt lat="41.3558358" lon="1.7454339"><ele>242.5</ele><time>2026-05-04T17:04:13.945Z</time></trkpt><trkpt lat="41.3558731" lon="1.7455984"><ele>241.75</ele><time>2026-05-04T17:04:14.945Z</time></trkpt><trkpt lat="41.3559107" lon="1.7457653"><ele>241.0</ele><time>2026-05-04T17:04:15.945Z</time></trkpt><trkpt lat="41.3559493" lon="1.7459339"><ele>241.0</ele><time>2026-05-04T17:04:16.945Z</time></trkpt><trkpt lat="41.3559885" lon="1.7461026"><ele>241.0</ele><time>2026-05-04T17:04:17.944Z</time></trkpt><trkpt lat="41.3560244" lon="1.7462738"><ele>241.0</ele><time>2026-05-04T17:04:18.945Z</time></trkpt><trkpt lat="41.3560624" lon="1.7464389"><ele>241.0</ele><time>2026-05-04T17:04:19.945Z</time></trkpt><trkpt lat="41.3561025" lon="1.7466129"><ele>241.0</ele><time>2026-05-04T17:04:20.945Z</time></trkpt><trkpt lat="41.3561396" lon="1.7467826"><ele>241.0</ele><time>2026-05-04T17:04:21.944Z</time></trkpt><trkpt lat="41.3561779" lon="1.7469572"><ele>241.0</ele><time>2026-05-04T17:04:22.945Z</time></trkpt><trkpt lat="41.3562161" lon="1.7471313"><ele>241.0</ele><time>2026-05-04T17:04:23.945Z</time></trkpt><trkpt lat="41.3562529" lon="1.7473062"><ele>240.5</ele><time>2026-05-04T17:04:24.945Z</time></trkpt><trkpt lat="41.3562894" lon="1.7474798"><ele>240.0</ele><time>2026-05-04T17:04:25.945Z</time></trkpt><trkpt lat="41.3563277" lon="1.7476573"><ele>239.5</ele><time>2026-05-04T17:04:26.945Z</time></trkpt><trkpt lat="41.3563653" lon="1.7478359"><ele>239.0</ele><time>2026-05-04T17:04:27.945Z</time></trkpt><trkpt lat="41.3564034" lon="1.7480165"><ele>240.25</ele><time>2026-05-04T17:04:28.945Z</time></trkpt><trkpt lat="41.3564436" lon="1.7481944"><ele>241.5</ele><time>2026-05-04T17:04:29.945Z</time></trkpt><trkpt lat="41.3564854" lon="1.7483684"><ele>242.75</ele><time>2026-05-04T17:04:30.945Z</time></trkpt><trkpt lat="41.356525" lon="1.7485467"><ele>244.0</ele><time>2026-05-04T17:04:31.945Z</time></trkpt><trkpt lat="41.3565695" lon="1.7487299"><ele>244.0</ele><time>2026-05-04T17:04:32.945Z</time></trkpt><trkpt lat="41.356612" lon="1.7489164"><ele>244.0</ele><time>2026-05-04T17:04:33.945Z</time></trkpt><trkpt lat="41.3566543" lon="1.7490998"><ele>244.0</ele><time>2026-05-04T17:04:34.945Z</time></trkpt><trkpt lat="41.3566989" lon="1.7492829"><ele>244.0</ele><time>2026-05-04T17:04:35.945Z</time></trkpt><trkpt lat="41.3567452" lon="1.7494642"><ele>244.0</ele><time>2026-05-04T17:04:36.944Z</time></trkpt><trkpt lat="41.3567903" lon="1.7496481"><ele>244.0</ele><time>2026-05-04T17:04:37.945Z</time></trkpt><trkpt lat="41.3568351" lon="1.7498372"><ele>244.0</ele><time>2026-05-04T17:04:38.945Z</time></trkpt><trkpt lat="41.3568791" lon="1.7500229"><ele>244.0</ele><time>2026-05-04T17:04:39.944Z</time></trkpt><trkpt lat="41.3569223" lon="1.7502075"><ele>244.0</ele><time>2026-05-04T17:04:40.945Z</time></trkpt><trkpt lat="41.3569647" lon="1.7503917"><ele>244.0</ele><time>2026-05-04T17:04:41.945Z</time></trkpt><trkpt lat="41.3570072" lon="1.7505793"><ele>244.0</ele><time>2026-05-04T17:04:42.945Z</time></trkpt><trkpt lat="41.3570494" lon="1.7507641"><ele>244.0</ele><time>2026-05-04T17:04:43.944Z</time></trkpt><trkpt lat="41.3570888" lon="1.7509523"><ele>244.33333333333331</ele><time>2026-05-04T17:04:44.945Z</time></trkpt><trkpt lat="41.3571315" lon="1.7511421"><ele>244.66666666666669</ele><time>2026-05-04T17:04:45.945Z</time></trkpt><trkpt lat="41.357176" lon="1.7513327"><ele>245.0</ele><time>2026-05-04T17:04:46.945Z</time></trkpt><trkpt lat="41.3572218" lon="1.7515251"><ele>245.0</ele><time>2026-05-04T17:04:47.945Z</time></trkpt><trkpt lat="41.3572669" lon="1.7517163"><ele>245.0</ele><time>2026-05-04T17:04:48.945Z</time></trkpt><trkpt lat="41.3573119" lon="1.7519092"><ele>245.0</ele><time>2026-05-04T17:04:49.945Z</time></trkpt><trkpt lat="41.3573555" lon="1.7521022"><ele>245.0</ele><time>2026-05-04T17:04:50.945Z</time></trkpt><trkpt lat="41.3573994" lon="1.7522939"><ele>245.0</ele><time>2026-05-04T17:04:51.945Z</time></trkpt><trkpt lat="41.3574431" lon="1.7524872"><ele>245.0</ele><time>2026-05-04T17:04:52.945Z</time></trkpt><trkpt lat="41.3574862" lon="1.7526801"><ele>244.33333333333334</ele><time>2026-05-04T17:04:53.945Z</time></trkpt><trkpt lat="41.3575309" lon="1.7528709"><ele>243.66666666666669</ele><time>2026-05-04T17:04:54.945Z</time></trkpt><trkpt lat="41.3575737" lon="1.7530631"><ele>243.0</ele><time>2026-05-04T17:04:55.945Z</time></trkpt><trkpt lat="41.3576178" lon="1.7532564"><ele>243.0</ele><time>2026-05-04T17:04:56.944Z</time></trkpt><trkpt lat="41.3576612" lon="1.7534486"><ele>243.0</ele><time>2026-05-04T17:04:57.945Z</time></trkpt><trkpt lat="41.3577036" lon="1.7536409"><ele>243.0</ele><time>2026-05-04T17:04:58.945Z</time></trkpt><trkpt lat="41.3577482" lon="1.753833"><ele>243.0</ele><time>2026-05-04T17:04:59.945Z</time></trkpt><trkpt lat="41.3577919" lon="1.7540225"><ele>243.0</ele><time>2026-05-04T17:05:00.944Z</time></trkpt><trkpt lat="41.3578321" lon="1.7542057"><ele>243.0</ele><time>2026-05-04T17:05:01.945Z</time></trkpt><trkpt lat="41.3578703" lon="1.7543825"><ele>243.0</ele><time>2026-05-04T17:05:02.945Z</time></trkpt><trkpt lat="41.357908" lon="1.7545515"><ele>243.25</ele><time>2026-05-04T17:05:03.945Z</time></trkpt><trkpt lat="41.3579482" lon="1.7547249"><ele>243.5</ele><time>2026-05-04T17:05:04.944Z</time></trkpt><trkpt lat="41.3579863" lon="1.7548962"><ele>243.75</ele><time>2026-05-04T17:05:05.944Z</time></trkpt><trkpt lat="41.3580237" lon="1.755067"><ele>244.0</ele><time>2026-05-04T17:05:06.945Z</time></trkpt><trkpt lat="41.3580633" lon="1.7552351"><ele>245.0</ele><time>2026-05-04T17:05:07.945Z</time></trkpt><trkpt lat="41.3581013" lon="1.7554055"><ele>246.0</ele><time>2026-05-04T17:05:08.945Z</time></trkpt><trkpt lat="41.3581407" lon="1.7555776"><ele>247.0</ele><time>2026-05-04T17:05:09.944Z</time></trkpt><trkpt lat="41.3581785" lon="1.755749"><ele>248.0</ele><time>2026-05-04T17:05:10.944Z</time></trkpt><trkpt lat="41.3582187" lon="1.7559232"><ele>247.25</ele><time>2026-05-04T17:05:11.945Z</time></trkpt><trkpt lat="41.3582589" lon="1.7561048"><ele>246.5</ele><time>2026-05-04T17:05:12.945Z</time></trkpt><trkpt lat="41.3583018" lon="1.7562846"><ele>245.75</ele><time>2026-05-04T17:05:13.945Z</time></trkpt><trkpt lat="41.3583439" lon="1.7564701"><ele>245.0</ele><time>2026-05-04T17:05:14.945Z</time></trkpt><trkpt lat="41.3583864" lon="1.756656"><ele>245.0</ele><time>2026-05-04T17:05:15.945Z</time></trkpt><trkpt lat="41.3584274" lon="1.7568429"><ele>245.0</ele><time>2026-05-04T17:05:16.944Z</time></trkpt><trkpt lat="41.3584726" lon="1.7570352"><ele>245.0</ele><time>2026-05-04T17:05:17.945Z</time></trkpt><trkpt lat="41.358518" lon="1.7572259"><ele>245.0</ele><time>2026-05-04T17:05:18.945Z</time></trkpt><trkpt lat="41.3585647" lon="1.7574184"><ele>244.66666666666669</ele><time>2026-05-04T17:05:19.945Z</time></trkpt><trkpt lat="41.3586104" lon="1.7576132"><ele>244.33333333333331</ele><time>2026-05-04T17:05:20.945Z</time></trkpt><trkpt lat="41.3586563" lon="1.7578074"><ele>244.0</ele><time>2026-05-04T17:05:21.945Z</time></trkpt><trkpt lat="41.3587011" lon="1.7580049"><ele>244.66666666666666</ele><time>2026-05-04T17:05:22.945Z</time></trkpt><trkpt lat="41.3587483" lon="1.758203"><ele>245.33333333333331</ele><time>2026-05-04T17:05:23.944Z</time></trkpt><trkpt lat="41.3587946" lon="1.7583965"><ele>246.0</ele><time>2026-05-04T17:05:24.945Z</time></trkpt><trkpt lat="41.3588384" lon="1.7585856"><ele>246.5</ele><time>2026-05-04T17:05:25.944Z</time></trkpt><trkpt lat="41.35888" lon="1.7587707"><ele>247.0</ele><time>2026-05-04T17:05:26.945Z</time></trkpt><trkpt lat="41.3589193" lon="1.7589451"><ele>247.5</ele><time>2026-05-04T17:05:27.945Z</time></trkpt><trkpt lat="41.358957" lon="1.759114"><ele>248.0</ele><time>2026-05-04T17:05:28.945Z</time></trkpt><trkpt lat="41.3589926" lon="1.7592739"><ele>249.25</ele><time>2026-05-04T17:05:29.945Z</time></trkpt><trkpt lat="41.3590264" lon="1.7594275"><ele>250.5</ele><time>2026-05-04T17:05:30.945Z</time></trkpt><trkpt lat="41.3590608" lon="1.7595797"><ele>251.75</ele><time>2026-05-04T17:05:31.945Z</time></trkpt><trkpt lat="41.3590941" lon="1.7597284"><ele>253.0</ele><time>2026-05-04T17:05:32.945Z</time></trkpt><trkpt lat="41.3591246" lon="1.7598801"><ele>253.0</ele><time>2026-05-04T17:05:33.945Z</time></trkpt><trkpt lat="41.3591452" lon="1.7600329"><ele>253.0</ele><time>2026-05-04T17:05:34.945Z</time></trkpt><trkpt lat="41.3591515" lon="1.7601852"><ele>253.0</ele><time>2026-05-04T17:05:35.945Z</time></trkpt><trkpt lat="41.3591482" lon="1.7603366"><ele>253.0</ele><time>2026-05-04T17:05:36.945Z</time></trkpt><trkpt lat="41.3591409" lon="1.7604866"><ele>253.2</ele><time>2026-05-04T17:05:37.945Z</time></trkpt><trkpt lat="41.359145" lon="1.7606293"><ele>253.4</ele><time>2026-05-04T17:05:38.945Z</time></trkpt><trkpt lat="41.3591717" lon="1.7607521"><ele>253.59999999999997</ele><time>2026-05-04T17:05:39.945Z</time></trkpt><trkpt lat="41.3592335" lon="1.7608589"><ele>253.79999999999998</ele><time>2026-05-04T17:05:40.945Z</time></trkpt><trkpt lat="41.3592991" lon="1.7609511"><ele>254.0</ele><time>2026-05-04T17:05:41.944Z</time></trkpt><trkpt lat="41.3593627" lon="1.7610572"><ele>254.25</ele><time>2026-05-04T17:05:42.945Z</time></trkpt><trkpt lat="41.3594149" lon="1.7611868"><ele>254.5</ele><time>2026-05-04T17:05:43.945Z</time></trkpt><trkpt lat="41.3594557" lon="1.7613267"><ele>254.75</ele><time>2026-05-04T17:05:44.945Z</time></trkpt><trkpt lat="41.3594884" lon="1.7614712"><ele>255.0</ele><time>2026-05-04T17:05:45.945Z</time></trkpt><trkpt lat="41.3595207" lon="1.761619"><ele>255.0</ele><time>2026-05-04T17:05:46.945Z</time></trkpt><trkpt lat="41.3595525" lon="1.7617678"><ele>255.0</ele><time>2026-05-04T17:05:47.945Z</time></trkpt><trkpt lat="41.3595869" lon="1.7619147"><ele>255.0</ele><time>2026-05-04T17:05:48.945Z</time></trkpt><trkpt lat="41.3596214" lon="1.7620649"><ele>255.0</ele><time>2026-05-04T17:05:49.945Z</time></trkpt><trkpt lat="41.3596583" lon="1.7622177"><ele>255.25</ele><time>2026-05-04T17:05:50.945Z</time></trkpt><trkpt lat="41.3596939" lon="1.7623749"><ele>255.5</ele><time>2026-05-04T17:05:51.945Z</time></trkpt><trkpt lat="41.3597325" lon="1.7625359"><ele>255.75</ele><time>2026-05-04T17:05:52.944Z</time></trkpt><trkpt lat="41.3597686" lon="1.7626987"><ele>256.0</ele><time>2026-05-04T17:05:53.945Z</time></trkpt><trkpt lat="41.3598057" lon="1.7628597"><ele>258.0</ele><time>2026-05-04T17:05:54.945Z</time></trkpt><trkpt lat="41.3598439" lon="1.7630234"><ele>260.0</ele><time>2026-05-04T17:05:55.945Z</time></trkpt><trkpt lat="41.3598824" lon="1.7631923"><ele>262.0</ele><time>2026-05-04T17:05:56.945Z</time></trkpt><trkpt lat="41.3599216" lon="1.7633606"><ele>264.0</ele><time>2026-05-04T17:05:57.945Z</time></trkpt><trkpt lat="41.3599633" lon="1.7635331"><ele>264.5</ele><time>2026-05-04T17:05:58.945Z</time></trkpt><trkpt lat="41.3600021" lon="1.7637064"><ele>265.0</ele><time>2026-05-04T17:05:59.945Z</time></trkpt><trkpt lat="41.3600399" lon="1.7638844"><ele>265.5</ele><time>2026-05-04T17:06:00.945Z</time></trkpt><trkpt lat="41.3600777" lon="1.764062"><ele>266.0</ele><time>2026-05-04T17:06:01.944Z</time></trkpt><trkpt lat="41.3601187" lon="1.7642386"><ele>266.25</ele><time>2026-05-04T17:06:02.945Z</time></trkpt><trkpt lat="41.3601603" lon="1.7644146"><ele>266.5</ele><time>2026-05-04T17:06:03.945Z</time></trkpt><trkpt lat="41.3602015" lon="1.7645914"><ele>266.75</ele><time>2026-05-04T17:06:04.945Z</time></trkpt><trkpt lat="41.3602434" lon="1.7647721"><ele>267.0</ele><time>2026-05-04T17:06:05.945Z</time></trkpt><trkpt lat="41.3602869" lon="1.7649525"><ele>267.0</ele><time>2026-05-04T17:06:06.944Z</time></trkpt><trkpt lat="41.3603262" lon="1.7651307"><ele>267.0</ele><time>2026-05-04T17:06:07.944Z</time></trkpt><trkpt lat="41.360366" lon="1.7653096"><ele>267.0</ele><time>2026-05-04T17:06:08.945Z</time></trkpt><trkpt lat="41.3604069" lon="1.7654871"><ele>267.0</ele><time>2026-05-04T17:06:09.945Z</time></trkpt><trkpt lat="41.3604459" lon="1.7656654"><ele>267.25</ele><time>2026-05-04T17:06:10.945Z</time></trkpt><trkpt lat="41.360486" lon="1.7658485"><ele>267.5</ele><time>2026-05-04T17:06:11.945Z</time></trkpt><trkpt lat="41.3605277" lon="1.7660276"><ele>267.75</ele><time>2026-05-04T17:06:12.945Z</time></trkpt><trkpt lat="41.3605719" lon="1.7662106"><ele>268.0</ele><time>2026-05-04T17:06:13.945Z</time></trkpt><trkpt lat="41.3606144" lon="1.7663923"><ele>268.75</ele><time>2026-05-04T17:06:14.945Z</time></trkpt><trkpt lat="41.3606571" lon="1.766572"><ele>269.5</ele><time>2026-05-04T17:06:15.944Z</time></trkpt><trkpt lat="41.360698" lon="1.7667496"><ele>270.25</ele><time>2026-05-04T17:06:16.945Z</time></trkpt><trkpt lat="41.3607403" lon="1.7669303"><ele>271.0</ele><time>2026-05-04T17:06:17.945Z</time></trkpt><trkpt lat="41.3607779" lon="1.7671128"><ele>271.5</ele><time>2026-05-04T17:06:18.945Z</time></trkpt><trkpt lat="41.3608166" lon="1.7672906"><ele>272.0</ele><time>2026-05-04T17:06:19.944Z</time></trkpt><trkpt lat="41.3608585" lon="1.7674704"><ele>272.5</ele><time>2026-05-04T17:06:20.945Z</time></trkpt><trkpt lat="41.3609007" lon="1.7676521"><ele>273.0</ele><time>2026-05-04T17:06:21.944Z</time></trkpt><trkpt lat="41.3609444" lon="1.7678349"><ele>273.0</ele><time>2026-05-04T17:06:22.945Z</time></trkpt><trkpt lat="41.3609818" lon="1.7680169"><ele>273.0</ele><time>2026-05-04T17:06:23.945Z</time></trkpt><trkpt lat="41.361022" lon="1.7682003"><ele>273.0</ele><time>2026-05-04T17:06:24.945Z</time></trkpt><trkpt lat="41.3610625" lon="1.768381"><ele>273.0</ele><time>2026-05-04T17:06:25.945Z</time></trkpt><trkpt lat="41.3611054" lon="1.7685662"><ele>274.0</ele><time>2026-05-04T17:06:26.945Z</time></trkpt><trkpt lat="41.3611461" lon="1.7687486"><ele>275.0</ele><time>2026-05-04T17:06:27.945Z</time></trkpt><trkpt lat="41.3611874" lon="1.7689282"><ele>276.0</ele><time>2026-05-04T17:06:28.945Z</time></trkpt><trkpt lat="41.3612287" lon="1.7691078"><ele>277.0</ele><time>2026-05-04T17:06:29.945Z</time></trkpt><trkpt lat="41.3612694" lon="1.76929"><ele>277.25</ele><time>2026-05-04T17:06:30.945Z</time></trkpt><trkpt lat="41.3613101" lon="1.7694666"><ele>277.5</ele><time>2026-05-04T17:06:31.945Z</time></trkpt><trkpt lat="41.3613476" lon="1.7696427"><ele>277.75</ele><time>2026-05-04T17:06:32.945Z</time></trkpt><trkpt lat="41.3613893" lon="1.7698233"><ele>278.0</ele><time>2026-05-04T17:06:33.945Z</time></trkpt><trkpt lat="41.361429" lon="1.7700043"><ele>278.75</ele><time>2026-05-04T17:06:34.945Z</time></trkpt><trkpt lat="41.3614689" lon="1.770182"><ele>279.5</ele><time>2026-05-04T17:06:35.945Z</time></trkpt><trkpt lat="41.3615094" lon="1.7703559"><ele>280.25</ele><time>2026-05-04T17:06:36.945Z</time></trkpt><trkpt lat="41.3615511" lon="1.7705299"><ele>281.0</ele><time>2026-05-04T17:06:37.945Z</time></trkpt><trkpt lat="41.3615933" lon="1.7707084"><ele>281.75</ele><time>2026-05-04T17:06:38.945Z</time></trkpt><trkpt lat="41.361632" lon="1.7708827"><ele>282.5</ele><time>2026-05-04T17:06:39.944Z</time></trkpt><trkpt lat="41.3616669" lon="1.7710578"><ele>283.25</ele><time>2026-05-04T17:06:40.945Z</time></trkpt><trkpt lat="41.361699" lon="1.7712383"><ele>284.0</ele><time>2026-05-04T17:06:41.945Z</time></trkpt><trkpt lat="41.3617268" lon="1.77142"><ele>284.25</ele><time>2026-05-04T17:06:42.945Z</time></trkpt><trkpt lat="41.3617474" lon="1.7716032"><ele>284.5</ele><time>2026-05-04T17:06:43.945Z</time></trkpt><trkpt lat="41.3617571" lon="1.7717862"><ele>284.75</ele><time>2026-05-04T17:06:44.945Z</time></trkpt><trkpt lat="41.3617566" lon="1.7719737"><ele>285.0</ele><time>2026-05-04T17:06:45.945Z</time></trkpt><trkpt lat="41.3617486" lon="1.7721583"><ele>285.0</ele><time>2026-05-04T17:06:46.945Z</time></trkpt><trkpt lat="41.3617334" lon="1.7723455"><ele>285.0</ele><time>2026-05-04T17:06:47.945Z</time></trkpt><trkpt lat="41.3617137" lon="1.7725371"><ele>285.0</ele><time>2026-05-04T17:06:48.945Z</time></trkpt><trkpt lat="41.3616962" lon="1.7727319"><ele>285.0</ele><time>2026-05-04T17:06:49.945Z</time></trkpt><trkpt lat="41.3616774" lon="1.7729252"><ele>284.0</ele><time>2026-05-04T17:06:50.944Z</time></trkpt><trkpt lat="41.361656" lon="1.773123"><ele>283.0</ele><time>2026-05-04T17:06:51.945Z</time></trkpt><trkpt lat="41.3616356" lon="1.7733225"><ele>282.0</ele><time>2026-05-04T17:06:52.944Z</time></trkpt><trkpt lat="41.3616119" lon="1.7735232"><ele>281.0</ele><time>2026-05-04T17:06:53.945Z</time></trkpt><trkpt lat="41.3615901" lon="1.7737245"><ele>280.0</ele><time>2026-05-04T17:06:54.945Z</time></trkpt><trkpt lat="41.3615692" lon="1.7739252"><ele>279.0</ele><time>2026-05-04T17:06:55.945Z</time></trkpt><trkpt lat="41.3615495" lon="1.7741289"><ele>279.0</ele><time>2026-05-04T17:06:56.946Z</time></trkpt><trkpt lat="41.3615281" lon="1.774328"><ele>279.0</ele><time>2026-05-04T17:06:57.946Z</time></trkpt><trkpt lat="41.3615067" lon="1.7745219"><ele>279.0</ele><time>2026-05-04T17:06:58.946Z</time></trkpt><trkpt lat="41.3614846" lon="1.774714"><ele>279.0</ele><time>2026-05-04T17:06:59.946Z</time></trkpt><trkpt lat="41.3614606" lon="1.7749021"><ele>279.0</ele><time>2026-05-04T17:07:00.946Z</time></trkpt><trkpt lat="41.3614407" lon="1.7750826"><ele>279.0</ele><time>2026-05-04T17:07:01.946Z</time></trkpt><trkpt lat="41.3614216" lon="1.7752587"><ele>279.0</ele><time>2026-05-04T17:07:02.946Z</time></trkpt><trkpt lat="41.3614024" lon="1.7754277"><ele>279.0</ele><time>2026-05-04T17:07:03.946Z</time></trkpt><trkpt lat="41.3613814" lon="1.7755894"><ele>279.75</ele><time>2026-05-04T17:07:04.946Z</time></trkpt><trkpt lat="41.3613605" lon="1.7757474"><ele>280.5</ele><time>2026-05-04T17:07:05.946Z</time></trkpt><trkpt lat="41.3613445" lon="1.775899"><ele>281.25</ele><time>2026-05-04T17:07:06.945Z</time></trkpt><trkpt lat="41.3613289" lon="1.7760452"><ele>282.0</ele><time>2026-05-04T17:07:07.946Z</time></trkpt><trkpt lat="41.3613178" lon="1.7761833"><ele>282.0</ele><time>2026-05-04T17:07:08.945Z</time></trkpt><trkpt lat="41.3613081" lon="1.7763151"><ele>282.0</ele><time>2026-05-04T17:07:09.946Z</time></trkpt><trkpt lat="41.3612896" lon="1.7764321"><ele>282.0</ele><time>2026-05-04T17:07:10.946Z</time></trkpt><trkpt lat="41.3612518" lon="1.7765255"><ele>282.0</ele><time>2026-05-04T17:07:11.946Z</time></trkpt><trkpt lat="41.3611882" lon="1.7765808"><ele>282.0</ele><time>2026-05-04T17:07:12.946Z</time></trkpt><trkpt lat="41.3611144" lon="1.7766233"><ele>282.0</ele><time>2026-05-04T17:07:13.946Z</time></trkpt><trkpt lat="41.3610392" lon="1.7766611"><ele>282.0</ele><time>2026-05-04T17:07:14.946Z</time></trkpt><trkpt lat="41.3609642" lon="1.7767045"><ele>282.0</ele><time>2026-05-04T17:07:15.945Z</time></trkpt><trkpt lat="41.3608865" lon="1.7767522"><ele>282.0</ele><time>2026-05-04T17:07:16.946Z</time></trkpt><trkpt lat="41.3608043" lon="1.7768043"><ele>282.0</ele><time>2026-05-04T17:07:17.946Z</time></trkpt><trkpt lat="41.3607174" lon="1.7768562"><ele>282.0</ele><time>2026-05-04T17:07:18.946Z</time></trkpt><trkpt lat="41.3606318" lon="1.7769124"><ele>282.0</ele><time>2026-05-04T17:07:19.946Z</time></trkpt><trkpt lat="41.3605395" lon="1.7769647"><ele>282.3333333333333</ele><time>2026-05-04T17:07:20.946Z</time></trkpt><trkpt lat="41.3604526" lon="1.777017"><ele>282.6666666666667</ele><time>2026-05-04T17:07:21.946Z</time></trkpt><trkpt lat="41.3603717" lon="1.7770709"><ele>283.0</ele><time>2026-05-04T17:07:22.946Z</time></trkpt><trkpt lat="41.3602989" lon="1.7771345"><ele>283.33333333333337</ele><time>2026-05-04T17:07:23.946Z</time></trkpt><trkpt lat="41.3602574" lon="1.7772213"><ele>283.6666666666667</ele><time>2026-05-04T17:07:24.945Z</time></trkpt><trkpt lat="41.3602327" lon="1.7773227"><ele>284.0</ele><time>2026-05-04T17:07:25.946Z</time></trkpt><trkpt lat="41.3602225" lon="1.7774412"><ele>284.0</ele><time>2026-05-04T17:07:26.946Z</time></trkpt><trkpt lat="41.3602096" lon="1.7775645"><ele>284.0</ele><time>2026-05-04T17:07:27.945Z</time></trkpt><trkpt lat="41.3601936" lon="1.777686"><ele>284.0</ele><time>2026-05-04T17:07:28.946Z</time></trkpt><trkpt lat="41.3601775" lon="1.7778074"><ele>284.0</ele><time>2026-05-04T17:07:29.945Z</time></trkpt><trkpt lat="41.3601606" lon="1.7779327"><ele>284.0</ele><time>2026-05-04T17:07:30.946Z</time></trkpt><trkpt lat="41.3601396" lon="1.7780581"><ele>283.59999999999997</ele><time>2026-05-04T17:07:31.946Z</time></trkpt><trkpt lat="41.3601129" lon="1.778189"><ele>283.2</ele><time>2026-05-04T17:07:32.946Z</time></trkpt><trkpt lat="41.3600824" lon="1.7783194"><ele>282.79999999999995</ele><time>2026-05-04T17:07:33.945Z</time></trkpt><trkpt lat="41.3600507" lon="1.7784523"><ele>282.4</ele><time>2026-05-04T17:07:34.945Z</time></trkpt><trkpt lat="41.3600135" lon="1.7785873"><ele>282.0</ele><time>2026-05-04T17:07:35.946Z</time></trkpt><trkpt lat="41.3599711" lon="1.7787291"><ele>281.75</ele><time>2026-05-04T17:07:36.946Z</time></trkpt><trkpt lat="41.3599251" lon="1.7788705"><ele>281.5</ele><time>2026-05-04T17:07:37.946Z</time></trkpt><trkpt lat="41.3598789" lon="1.7790182"><ele>281.25</ele><time>2026-05-04T17:07:38.946Z</time></trkpt><trkpt lat="41.3598346" lon="1.7791656"><ele>281.0</ele><time>2026-05-04T17:07:39.946Z</time></trkpt><trkpt lat="41.3597945" lon="1.7793068"><ele>280.8</ele><time>2026-05-04T17:07:40.946Z</time></trkpt><trkpt lat="41.3597551" lon="1.7794392"><ele>280.6</ele><time>2026-05-04T17:07:41.946Z</time></trkpt><trkpt lat="41.3597151" lon="1.7795656"><ele>280.4</ele><time>2026-05-04T17:07:42.945Z</time></trkpt><trkpt lat="41.3596763" lon="1.7796899"><ele>280.2</ele><time>2026-05-04T17:07:43.946Z</time></trkpt><trkpt lat="41.3596376" lon="1.779803"><ele>280.0</ele><time>2026-05-04T17:07:44.946Z</time></trkpt><trkpt lat="41.3596066" lon="1.7799092"><ele>279.8333333333333</ele><time>2026-05-04T17:07:45.946Z</time></trkpt><trkpt lat="41.3595782" lon="1.7799902"><ele>279.66666666666663</ele><time>2026-05-04T17:07:46.945Z</time></trkpt><trkpt lat="41.3595313" lon="1.7801322"><ele>279.5</ele><time>2026-05-04T17:07:48.946Z</time></trkpt><trkpt lat="41.3595058" lon="1.7802103"><ele>279.3333333333333</ele><time>2026-05-04T17:07:49.946Z</time></trkpt><trkpt lat="41.3594762" lon="1.7803011"><ele>279.1666666666667</ele><time>2026-05-04T17:07:50.946Z</time></trkpt><trkpt lat="41.3594392" lon="1.780405"><ele>279.0</ele><time>2026-05-04T17:07:51.946Z</time></trkpt><trkpt lat="41.3593942" lon="1.7805193"><ele>278.59999999999997</ele><time>2026-05-04T17:07:52.946Z</time></trkpt><trkpt lat="41.3593499" lon="1.78064"><ele>278.2</ele><time>2026-05-04T17:07:53.946Z</time></trkpt><trkpt lat="41.3593043" lon="1.7807721"><ele>277.79999999999995</ele><time>2026-05-04T17:07:54.946Z</time></trkpt><trkpt lat="41.3592577" lon="1.7809139"><ele>277.4</ele><time>2026-05-04T17:07:55.946Z</time></trkpt><trkpt lat="41.3592061" lon="1.7810538"><ele>277.0</ele><time>2026-05-04T17:07:56.945Z</time></trkpt><trkpt lat="41.3591535" lon="1.7811996"><ele>277.0</ele><time>2026-05-04T17:07:57.946Z</time></trkpt><trkpt lat="41.3590976" lon="1.7813491"><ele>277.0</ele><time>2026-05-04T17:07:58.946Z</time></trkpt><trkpt lat="41.3590334" lon="1.7814865"><ele>277.0</ele><time>2026-05-04T17:07:59.946Z</time></trkpt><trkpt lat="41.3589614" lon="1.781616"><ele>277.0</ele><time>2026-05-04T17:08:00.946Z</time></trkpt><trkpt lat="41.3588849" lon="1.7817392"><ele>276.5</ele><time>2026-05-04T17:08:01.946Z</time></trkpt><trkpt lat="41.3588134" lon="1.7818634"><ele>276.0</ele><time>2026-05-04T17:08:02.946Z</time></trkpt><trkpt lat="41.3587635" lon="1.7819966"><ele>275.5</ele><time>2026-05-04T17:08:03.945Z</time></trkpt><trkpt lat="41.3587198" lon="1.7821442"><ele>275.0</ele><time>2026-05-04T17:08:04.945Z</time></trkpt><trkpt lat="41.3586838" lon="1.7823034"><ele>275.0</ele><time>2026-05-04T17:08:05.945Z</time></trkpt><trkpt lat="41.3586495" lon="1.7824647"><ele>275.0</ele><time>2026-05-04T17:08:06.945Z</time></trkpt><trkpt lat="41.3586101" lon="1.7826323"><ele>275.0</ele><time>2026-05-04T17:08:07.944Z</time></trkpt><trkpt lat="41.3585658" lon="1.7828021"><ele>275.0</ele><time>2026-05-04T17:08:08.945Z</time></trkpt><trkpt lat="41.3585235" lon="1.7829805"><ele>275.0</ele><time>2026-05-04T17:08:09.945Z</time></trkpt><trkpt lat="41.3584828" lon="1.7831559"><ele>275.0</ele><time>2026-05-04T17:08:10.945Z</time></trkpt><trkpt lat="41.3584325" lon="1.7833332"><ele>275.0</ele><time>2026-05-04T17:08:11.945Z</time></trkpt><trkpt lat="41.3583905" lon="1.7835127"><ele>275.0</ele><time>2026-05-04T17:08:12.945Z</time></trkpt><trkpt lat="41.3583457" lon="1.7836891"><ele>275.25</ele><time>2026-05-04T17:08:13.944Z</time></trkpt><trkpt lat="41.3583029" lon="1.7838717"><ele>275.5</ele><time>2026-05-04T17:08:14.944Z</time></trkpt><trkpt lat="41.3582662" lon="1.7840551"><ele>275.75</ele><time>2026-05-04T17:08:15.945Z</time></trkpt><trkpt lat="41.3582317" lon="1.7842428"><ele>276.0</ele><time>2026-05-04T17:08:16.945Z</time></trkpt><trkpt lat="41.3581979" lon="1.7844355"><ele>276.25</ele><time>2026-05-04T17:08:17.945Z</time></trkpt><trkpt lat="41.3581734" lon="1.7846331"><ele>276.5</ele><time>2026-05-04T17:08:18.945Z</time></trkpt><trkpt lat="41.3581593" lon="1.7848259"><ele>276.75</ele><time>2026-05-04T17:08:19.945Z</time></trkpt><trkpt lat="41.3581395" lon="1.7850258"><ele>277.0</ele><time>2026-05-04T17:08:20.944Z</time></trkpt><trkpt lat="41.3581183" lon="1.7852256"><ele>276.0</ele><time>2026-05-04T17:08:21.945Z</time></trkpt><trkpt lat="41.358095" lon="1.7854245"><ele>275.0</ele><time>2026-05-04T17:08:22.944Z</time></trkpt><trkpt lat="41.3580783" lon="1.7856223"><ele>274.0</ele><time>2026-05-04T17:08:23.944Z</time></trkpt><trkpt lat="41.3580577" lon="1.785821"><ele>273.3333333333333</ele><time>2026-05-04T17:08:24.945Z</time></trkpt><trkpt lat="41.3580433" lon="1.7860241"><ele>272.6666666666667</ele><time>2026-05-04T17:08:25.945Z</time></trkpt><trkpt lat="41.3580291" lon="1.7862231"><ele>272.0</ele><time>2026-05-04T17:08:26.945Z</time></trkpt><trkpt lat="41.3580177" lon="1.7864204"><ele>273.25</ele><time>2026-05-04T17:08:27.945Z</time></trkpt><trkpt lat="41.3580009" lon="1.7866172"><ele>274.5</ele><time>2026-05-04T17:08:28.945Z</time></trkpt><trkpt lat="41.3579791" lon="1.7868108"><ele>275.75</ele><time>2026-05-04T17:08:29.945Z</time></trkpt><trkpt lat="41.3579545" lon="1.7870028"><ele>277.0</ele><time>2026-05-04T17:08:30.945Z</time></trkpt><trkpt lat="41.3579238" lon="1.7871923"><ele>277.0</ele><time>2026-05-04T17:08:31.945Z</time></trkpt><trkpt lat="41.3578837" lon="1.7873855"><ele>277.0</ele><time>2026-05-04T17:08:32.945Z</time></trkpt><trkpt lat="41.357838" lon="1.7875773"><ele>277.0</ele><time>2026-05-04T17:08:33.945Z</time></trkpt><trkpt lat="41.3577906" lon="1.7877655"><ele>275.0</ele><time>2026-05-04T17:08:34.945Z</time></trkpt><trkpt lat="41.357744" lon="1.7879534"><ele>273.0</ele><time>2026-05-04T17:08:35.945Z</time></trkpt><trkpt lat="41.3576949" lon="1.7881377"><ele>271.0</ele><time>2026-05-04T17:08:36.944Z</time></trkpt><trkpt lat="41.3576462" lon="1.7883235"><ele>269.0</ele><time>2026-05-04T17:08:37.945Z</time></trkpt><trkpt lat="41.3575978" lon="1.7885081"><ele>268.5</ele><time>2026-05-04T17:08:38.945Z</time></trkpt><trkpt lat="41.3575506" lon="1.7886911"><ele>268.0</ele><time>2026-05-04T17:08:39.945Z</time></trkpt><trkpt lat="41.3575002" lon="1.7888729"><ele>267.5</ele><time>2026-05-04T17:08:40.945Z</time></trkpt><trkpt lat="41.3574475" lon="1.7890576"><ele>267.0</ele><time>2026-05-04T17:08:41.945Z</time></trkpt><trkpt lat="41.3573878" lon="1.7892368"><ele>266.5</ele><time>2026-05-04T17:08:42.944Z</time></trkpt><trkpt lat="41.357326" lon="1.7894092"><ele>266.0</ele><time>2026-05-04T17:08:43.945Z</time></trkpt><trkpt lat="41.3572528" lon="1.7895637"><ele>265.5</ele><time>2026-05-04T17:08:44.945Z</time></trkpt><trkpt lat="41.3571642" lon="1.7896983"><ele>265.0</ele><time>2026-05-04T17:08:45.945Z</time></trkpt><trkpt lat="41.3570619" lon="1.7898247"><ele>265.0</ele><time>2026-05-04T17:08:46.945Z</time></trkpt><trkpt lat="41.3569525" lon="1.7899327"><ele>265.0</ele><time>2026-05-04T17:08:47.945Z</time></trkpt><trkpt lat="41.3568381" lon="1.7900371"><ele>265.0</ele><time>2026-05-04T17:08:48.945Z</time></trkpt><trkpt lat="41.3567216" lon="1.7901423"><ele>265.0</ele><time>2026-05-04T17:08:49.945Z</time></trkpt><trkpt lat="41.3566142" lon="1.7902572"><ele>264.0</ele><time>2026-05-04T17:08:50.945Z</time></trkpt><trkpt lat="41.3565148" lon="1.790395"><ele>263.0</ele><time>2026-05-04T17:08:51.946Z</time></trkpt><trkpt lat="41.3564244" lon="1.790541"><ele>262.0</ele><time>2026-05-04T17:08:52.946Z</time></trkpt><trkpt lat="41.3563384" lon="1.7906973"><ele>261.0</ele><time>2026-05-04T17:08:53.946Z</time></trkpt><trkpt lat="41.3562422" lon="1.7908517"><ele>261.25</ele><time>2026-05-04T17:08:54.946Z</time></trkpt><trkpt lat="41.3561482" lon="1.7910104"><ele>261.5</ele><time>2026-05-04T17:08:55.946Z</time></trkpt><trkpt lat="41.3560638" lon="1.7911597"><ele>261.75</ele><time>2026-05-04T17:08:56.946Z</time></trkpt><trkpt lat="41.3560045" lon="1.7913072"><ele>262.0</ele><time>2026-05-04T17:08:57.946Z</time></trkpt><trkpt lat="41.3559608" lon="1.7914469"><ele>262.0</ele><time>2026-05-04T17:08:58.946Z</time></trkpt><trkpt lat="41.3559445" lon="1.7916055"><ele>262.0</ele><time>2026-05-04T17:08:59.946Z</time></trkpt><trkpt lat="41.3559444" lon="1.7917794"><ele>262.0</ele><time>2026-05-04T17:09:00.945Z</time></trkpt><trkpt lat="41.3559532" lon="1.79196"><ele>262.0</ele><time>2026-05-04T17:09:01.945Z</time></trkpt><trkpt lat="41.3559556" lon="1.7921512"><ele>260.3333333333333</ele><time>2026-05-04T17:09:02.946Z</time></trkpt><trkpt lat="41.3559616" lon="1.7923518"><ele>258.6666666666667</ele><time>2026-05-04T17:09:03.946Z</time></trkpt><trkpt lat="41.3559658" lon="1.7925566"><ele>257.0</ele><time>2026-05-04T17:09:04.945Z</time></trkpt><trkpt lat="41.3559709" lon="1.7927639"><ele>257.0</ele><time>2026-05-04T17:09:05.946Z</time></trkpt><trkpt lat="41.355975" lon="1.7929634"><ele>257.0</ele><time>2026-05-04T17:09:06.946Z</time></trkpt><trkpt lat="41.3559811" lon="1.7931604"><ele>257.0</ele><time>2026-05-04T17:09:07.945Z</time></trkpt><trkpt lat="41.355986" lon="1.7933587"><ele>257.0</ele><time>2026-05-04T17:09:08.945Z</time></trkpt><trkpt lat="41.355991" lon="1.7935586"><ele>255.33333333333334</ele><time>2026-05-04T17:09:09.946Z</time></trkpt><trkpt lat="41.3559888" lon="1.7937622"><ele>253.66666666666669</ele><time>2026-05-04T17:09:10.946Z</time></trkpt><trkpt lat="41.3559776" lon="1.7939662"><ele>252.0</ele><time>2026-05-04T17:09:11.946Z</time></trkpt><trkpt lat="41.3559618" lon="1.7941679"><ele>250.66666666666669</ele><time>2026-05-04T17:09:12.946Z</time></trkpt><trkpt lat="41.3559387" lon="1.7943701"><ele>249.33333333333334</ele><time>2026-05-04T17:09:13.946Z</time></trkpt><trkpt lat="41.3559194" lon="1.7945713"><ele>248.0</ele><time>2026-05-04T17:09:14.946Z</time></trkpt><trkpt lat="41.355902" lon="1.7947649"><ele>248.0</ele><time>2026-05-04T17:09:15.946Z</time></trkpt><trkpt lat="41.3558869" lon="1.7949575"><ele>248.0</ele><time>2026-05-04T17:09:16.946Z</time></trkpt><trkpt lat="41.3558679" lon="1.7951555"><ele>248.0</ele><time>2026-05-04T17:09:17.946Z</time></trkpt><trkpt lat="41.355847" lon="1.7953498"><ele>248.0</ele><time>2026-05-04T17:09:18.946Z</time></trkpt><trkpt lat="41.3558243" lon="1.7955433"><ele>248.25</ele><time>2026-05-04T17:09:19.945Z</time></trkpt><trkpt lat="41.3557984" lon="1.7957371"><ele>248.5</ele><time>2026-05-04T17:09:20.946Z</time></trkpt><trkpt lat="41.3557723" lon="1.7959296"><ele>248.75</ele><time>2026-05-04T17:09:21.945Z</time></trkpt><trkpt lat="41.3557417" lon="1.7961193"><ele>249.0</ele><time>2026-05-04T17:09:22.946Z</time></trkpt><trkpt lat="41.3557127" lon="1.7963112"><ele>249.25</ele><time>2026-05-04T17:09:23.946Z</time></trkpt><trkpt lat="41.3556811" lon="1.7964962"><ele>249.5</ele><time>2026-05-04T17:09:24.946Z</time></trkpt><trkpt lat="41.3556488" lon="1.7966773"><ele>249.75</ele><time>2026-05-04T17:09:25.946Z</time></trkpt><trkpt lat="41.3556158" lon="1.7968547"><ele>250.0</ele><time>2026-05-04T17:09:26.946Z</time></trkpt><trkpt lat="41.3555768" lon="1.797029"><ele>250.0</ele><time>2026-05-04T17:09:27.946Z</time></trkpt><trkpt lat="41.3555326" lon="1.7972033"><ele>250.0</ele><time>2026-05-04T17:09:28.946Z</time></trkpt><trkpt lat="41.355485" lon="1.7973703"><ele>250.0</ele><time>2026-05-04T17:09:29.946Z</time></trkpt><trkpt lat="41.3554395" lon="1.7975417"><ele>250.0</ele><time>2026-05-04T17:09:30.946Z</time></trkpt><trkpt lat="41.3553999" lon="1.7977116"><ele>251.25</ele><time>2026-05-04T17:09:31.946Z</time></trkpt><trkpt lat="41.3553563" lon="1.7978795"><ele>252.5</ele><time>2026-05-04T17:09:32.946Z</time></trkpt><trkpt lat="41.3553113" lon="1.7980473"><ele>253.75</ele><time>2026-05-04T17:09:33.946Z</time></trkpt><trkpt lat="41.3552675" lon="1.7982143"><ele>255.0</ele><time>2026-05-04T17:09:34.946Z</time></trkpt><trkpt lat="41.3552279" lon="1.7983838"><ele>256.5</ele><time>2026-05-04T17:09:35.946Z</time></trkpt><trkpt lat="41.3551869" lon="1.7985508"><ele>258.0</ele><time>2026-05-04T17:09:36.946Z</time></trkpt><trkpt lat="41.3551426" lon="1.7987152"><ele>259.5</ele><time>2026-05-04T17:09:37.946Z</time></trkpt><trkpt lat="41.3550967" lon="1.7988799"><ele>261.0</ele><time>2026-05-04T17:09:38.946Z</time></trkpt><trkpt lat="41.3550489" lon="1.7990464"><ele>261.0</ele><time>2026-05-04T17:09:39.946Z</time></trkpt><trkpt lat="41.3550058" lon="1.7992134"><ele>261.0</ele><time>2026-05-04T17:09:40.946Z</time></trkpt><trkpt lat="41.3549609" lon="1.7993785"><ele>261.0</ele><time>2026-05-04T17:09:41.946Z</time></trkpt><trkpt lat="41.3549155" lon="1.7995463"><ele>261.0</ele><time>2026-05-04T17:09:42.946Z</time></trkpt><trkpt lat="41.3548679" lon="1.7997109"><ele>261.0</ele><time>2026-05-04T17:09:43.946Z</time></trkpt><trkpt lat="41.3548247" lon="1.7998776"><ele>261.0</ele><time>2026-05-04T17:09:44.946Z</time></trkpt><trkpt lat="41.3547806" lon="1.8000445"><ele>261.0</ele><time>2026-05-04T17:09:45.946Z</time></trkpt><trkpt lat="41.3547363" lon="1.8002113"><ele>261.0</ele><time>2026-05-04T17:09:46.946Z</time></trkpt><trkpt lat="41.3546925" lon="1.8003722"><ele>261.0</ele><time>2026-05-04T17:09:47.946Z</time></trkpt><trkpt lat="41.3546548" lon="1.8005212"><ele>261.0</ele><time>2026-05-04T17:09:48.946Z</time></trkpt><trkpt lat="41.3546176" lon="1.8006611"><ele>261.0</ele><time>2026-05-04T17:09:49.946Z</time></trkpt><trkpt lat="41.3545785" lon="1.8007941"><ele>261.0</ele><time>2026-05-04T17:09:50.945Z</time></trkpt><trkpt lat="41.354533" lon="1.8009102"><ele>261.0</ele><time>2026-05-04T17:09:51.946Z</time></trkpt><trkpt lat="41.3544752" lon="1.801007"><ele>257.6</ele><time>2026-05-04T17:09:52.945Z</time></trkpt><trkpt lat="41.3543925" lon="1.8010795"><ele>254.20000000000002</ele><time>2026-05-04T17:09:53.946Z</time></trkpt><trkpt lat="41.3542856" lon="1.8011354"><ele>250.79999999999998</ele><time>2026-05-04T17:09:54.946Z</time></trkpt><trkpt lat="41.3541794" lon="1.8011882"><ele>247.39999999999998</ele><time>2026-05-04T17:09:55.946Z</time></trkpt><trkpt lat="41.3540711" lon="1.8012381"><ele>244.0</ele><time>2026-05-04T17:09:56.946Z</time></trkpt><trkpt lat="41.3539525" lon="1.8012619"><ele>244.0</ele><time>2026-05-04T17:09:57.946Z</time></trkpt><trkpt lat="41.3538396" lon="1.8012536"><ele>244.0</ele><time>2026-05-04T17:09:58.946Z</time></trkpt><trkpt lat="41.353718" lon="1.8012287"><ele>244.0</ele><time>2026-05-04T17:09:59.946Z</time></trkpt><trkpt lat="41.3535928" lon="1.8011868"><ele>244.0</ele><time>2026-05-04T17:10:00.946Z</time></trkpt><trkpt lat="41.3534669" lon="1.8011354"><ele>244.0</ele><time>2026-05-04T17:10:01.946Z</time></trkpt><trkpt lat="41.3533467" lon="1.8010799"><ele>244.0</ele><time>2026-05-04T17:10:02.946Z</time></trkpt><trkpt lat="41.3532229" lon="1.8010416"><ele>244.0</ele><time>2026-05-04T17:10:03.946Z</time></trkpt><trkpt lat="41.3530863" lon="1.801034"><ele>244.0</ele><time>2026-05-04T17:10:04.946Z</time></trkpt><trkpt lat="41.3529424" lon="1.8010476"><ele>243.75</ele><time>2026-05-04T17:10:05.946Z</time></trkpt><trkpt lat="41.3528014" lon="1.801072"><ele>243.5</ele><time>2026-05-04T17:10:06.946Z</time></trkpt><trkpt lat="41.3526606" lon="1.8011114"><ele>243.25</ele><time>2026-05-04T17:10:07.946Z</time></trkpt><trkpt lat="41.3525208" lon="1.8011648"><ele>243.0</ele><time>2026-05-04T17:10:08.946Z</time></trkpt><trkpt lat="41.3523903" lon="1.8012207"><ele>243.0</ele><time>2026-05-04T17:10:09.946Z</time></trkpt><trkpt lat="41.3522667" lon="1.8012772"><ele>243.0</ele><time>2026-05-04T17:10:10.945Z</time></trkpt><trkpt lat="41.3521513" lon="1.8013489"><ele>243.0</ele><time>2026-05-04T17:10:11.946Z</time></trkpt><trkpt lat="41.3520455" lon="1.8014394"><ele>243.0</ele><time>2026-05-04T17:10:12.946Z</time></trkpt><trkpt lat="41.3519513" lon="1.8015587"><ele>244.0</ele><time>2026-05-04T17:10:13.946Z</time></trkpt><trkpt lat="41.3518763" lon="1.8017053"><ele>245.0</ele><time>2026-05-04T17:10:14.946Z</time></trkpt><trkpt lat="41.3517993" lon="1.8018552"><ele>246.0</ele><time>2026-05-04T17:10:15.946Z</time></trkpt><trkpt lat="41.3517226" lon="1.8020071"><ele>247.0</ele><time>2026-05-04T17:10:16.946Z</time></trkpt><trkpt lat="41.3516436" lon="1.8021363"><ele>243.75</ele><time>2026-05-04T17:10:17.946Z</time></trkpt><trkpt lat="41.3515512" lon="1.8022453"><ele>240.5</ele><time>2026-05-04T17:10:18.946Z</time></trkpt><trkpt lat="41.3514388" lon="1.8023384"><ele>237.25</ele><time>2026-05-04T17:10:19.945Z</time></trkpt><trkpt lat="41.3513187" lon="1.802413"><ele>234.0</ele><time>2026-05-04T17:10:20.946Z</time></trkpt><trkpt lat="41.3511879" lon="1.8024767"><ele>234.0</ele><time>2026-05-04T17:10:21.946Z</time></trkpt><trkpt lat="41.3510521" lon="1.8025257"><ele>234.0</ele><time>2026-05-04T17:10:22.946Z</time></trkpt><trkpt lat="41.3509235" lon="1.8025612"><ele>234.0</ele><time>2026-05-04T17:10:23.946Z</time></trkpt><trkpt lat="41.35081" lon="1.8025974"><ele>234.0</ele><time>2026-05-04T17:10:24.946Z</time></trkpt><trkpt lat="41.3507089" lon="1.8026415"><ele>233.79999999999998</ele><time>2026-05-04T17:10:25.946Z</time></trkpt><trkpt lat="41.3506249" lon="1.8026962"><ele>233.59999999999997</ele><time>2026-05-04T17:10:26.946Z</time></trkpt><trkpt lat="41.350568" lon="1.8027758"><ele>233.4</ele><time>2026-05-04T17:10:27.946Z</time></trkpt><trkpt lat="41.3505438" lon="1.8028897"><ele>233.2</ele><time>2026-05-04T17:10:28.946Z</time></trkpt><trkpt lat="41.3505388" lon="1.8030194"><ele>233.0</ele><time>2026-05-04T17:10:29.946Z</time></trkpt><trkpt lat="41.3505469" lon="1.8031666"><ele>233.0</ele><time>2026-05-04T17:10:30.946Z</time></trkpt><trkpt lat="41.3505551" lon="1.8033129"><ele>233.0</ele><time>2026-05-04T17:10:31.946Z</time></trkpt><trkpt lat="41.3505653" lon="1.803465"><ele>233.0</ele><time>2026-05-04T17:10:32.946Z</time></trkpt><trkpt lat="41.350563" lon="1.8036187"><ele>233.0</ele><time>2026-05-04T17:10:33.946Z</time></trkpt><trkpt lat="41.3505507" lon="1.8037748"><ele>232.5</ele><time>2026-05-04T17:10:34.946Z</time></trkpt><trkpt lat="41.3505342" lon="1.8039315"><ele>232.0</ele><time>2026-05-04T17:10:35.946Z</time></trkpt><trkpt lat="41.3505054" lon="1.8040861"><ele>231.5</ele><time>2026-05-04T17:10:36.945Z</time></trkpt><trkpt lat="41.3504729" lon="1.804243"><ele>231.0</ele><time>2026-05-04T17:10:37.945Z</time></trkpt><trkpt lat="41.3504433" lon="1.8044045"><ele>232.0</ele><time>2026-05-04T17:10:38.946Z</time></trkpt><trkpt lat="41.350416" lon="1.8045643"><ele>233.0</ele><time>2026-05-04T17:10:39.946Z</time></trkpt><trkpt lat="41.3503907" lon="1.8047243"><ele>234.0</ele><time>2026-05-04T17:10:40.946Z</time></trkpt><trkpt lat="41.350365" lon="1.8048905"><ele>235.0</ele><time>2026-05-04T17:10:41.946Z</time></trkpt><trkpt lat="41.350338" lon="1.8050535"><ele>235.5</ele><time>2026-05-04T17:10:42.946Z</time></trkpt><trkpt lat="41.3503125" lon="1.8052145"><ele>236.0</ele><time>2026-05-04T17:10:43.946Z</time></trkpt><trkpt lat="41.3502936" lon="1.8053785"><ele>236.5</ele><time>2026-05-04T17:10:44.946Z</time></trkpt><trkpt lat="41.3502777" lon="1.8055448"><ele>237.0</ele><time>2026-05-04T17:10:45.946Z</time></trkpt><trkpt lat="41.3502648" lon="1.8057153"><ele>237.0</ele><time>2026-05-04T17:10:46.946Z</time></trkpt><trkpt lat="41.350253" lon="1.8058825"><ele>237.0</ele><time>2026-05-04T17:10:47.945Z</time></trkpt><trkpt lat="41.3502389" lon="1.8060513"><ele>237.0</ele><time>2026-05-04T17:10:48.946Z</time></trkpt><trkpt lat="41.3502257" lon="1.8062223"><ele>237.0</ele><time>2026-05-04T17:10:49.946Z</time></trkpt><trkpt lat="41.3502164" lon="1.8063931"><ele>238.25</ele><time>2026-05-04T17:10:50.946Z</time></trkpt><trkpt lat="41.3502063" lon="1.8065614"><ele>239.5</ele><time>2026-05-04T17:10:51.946Z</time></trkpt><trkpt lat="41.3501972" lon="1.8067323"><ele>240.75</ele><time>2026-05-04T17:10:52.946Z</time></trkpt><trkpt lat="41.350191" lon="1.8069013"><ele>242.0</ele><time>2026-05-04T17:10:53.946Z</time></trkpt><trkpt lat="41.3501842" lon="1.8070641"><ele>243.0</ele><time>2026-05-04T17:10:54.946Z</time></trkpt><trkpt lat="41.350178" lon="1.80722"><ele>244.0</ele><time>2026-05-04T17:10:55.946Z</time></trkpt><trkpt lat="41.3501901" lon="1.8073754"><ele>245.0</ele><time>2026-05-04T17:10:56.945Z</time></trkpt><trkpt lat="41.3502216" lon="1.807536"><ele>246.0</ele><time>2026-05-04T17:10:57.946Z</time></trkpt><trkpt lat="41.3502611" lon="1.8076907"><ele>247.75</ele><time>2026-05-04T17:10:58.946Z</time></trkpt><trkpt lat="41.3503118" lon="1.8078432"><ele>249.5</ele><time>2026-05-04T17:10:59.946Z</time></trkpt><trkpt lat="41.3503718" lon="1.8079924"><ele>251.25</ele><time>2026-05-04T17:11:00.946Z</time></trkpt><trkpt lat="41.3504439" lon="1.8081345"><ele>253.0</ele><time>2026-05-04T17:11:01.946Z</time></trkpt><trkpt lat="41.3505253" lon="1.8082707"><ele>254.0</ele><time>2026-05-04T17:11:02.946Z</time></trkpt><trkpt lat="41.3506095" lon="1.8083964"><ele>255.0</ele><time>2026-05-04T17:11:03.946Z</time></trkpt><trkpt lat="41.350693" lon="1.8085228"><ele>256.0</ele><time>2026-05-04T17:11:04.946Z</time></trkpt><trkpt lat="41.3507646" lon="1.8086553"><ele>257.0</ele><time>2026-05-04T17:11:05.946Z</time></trkpt><trkpt lat="41.350819" lon="1.8088072"><ele>257.0</ele><time>2026-05-04T17:11:06.946Z</time></trkpt><trkpt lat="41.3508491" lon="1.8089656"><ele>257.0</ele><time>2026-05-04T17:11:07.945Z</time></trkpt><trkpt lat="41.3508583" lon="1.8091228"><ele>257.0</ele><time>2026-05-04T17:11:08.946Z</time></trkpt><trkpt lat="41.3508608" lon="1.8092708"><ele>257.0</ele><time>2026-05-04T17:11:09.946Z</time></trkpt><trkpt lat="41.3508734" lon="1.8094185"><ele>257.0</ele><time>2026-05-04T17:11:10.946Z</time></trkpt><trkpt lat="41.3509153" lon="1.8095644"><ele>257.0</ele><time>2026-05-04T17:11:11.946Z</time></trkpt><trkpt lat="41.3509731" lon="1.8097004"><ele>257.0</ele><time>2026-05-04T17:11:12.945Z</time></trkpt><trkpt lat="41.3510364" lon="1.8098423"><ele>257.0</ele><time>2026-05-04T17:11:13.946Z</time></trkpt><trkpt lat="41.3510945" lon="1.8099856"><ele>257.0</ele><time>2026-05-04T17:11:14.946Z</time></trkpt><trkpt lat="41.3511433" lon="1.8101204"><ele>257.0</ele><time>2026-05-04T17:11:15.945Z</time></trkpt><trkpt lat="41.3511638" lon="1.8102605"><ele>257.0</ele><time>2026-05-04T17:11:16.945Z</time></trkpt><trkpt lat="41.3511539" lon="1.8104009"><ele>257.0</ele><time>2026-05-04T17:11:17.946Z</time></trkpt><trkpt lat="41.3511157" lon="1.8105377"><ele>257.0</ele><time>2026-05-04T17:11:18.945Z</time></trkpt><trkpt lat="41.3510734" lon="1.8106698"><ele>258.0</ele><time>2026-05-04T17:11:19.946Z</time></trkpt><trkpt lat="41.35103" lon="1.8108053"><ele>259.0</ele><time>2026-05-04T17:11:20.946Z</time></trkpt><trkpt lat="41.3509893" lon="1.810947"><ele>260.0</ele><time>2026-05-04T17:11:21.946Z</time></trkpt><trkpt lat="41.3509474" lon="1.8110906"><ele>261.0</ele><time>2026-05-04T17:11:22.946Z</time></trkpt><trkpt lat="41.350913" lon="1.8112293"><ele>261.6</ele><time>2026-05-04T17:11:23.946Z</time></trkpt><trkpt lat="41.3508982" lon="1.8113507"><ele>262.20000000000005</ele><time>2026-05-04T17:11:24.946Z</time></trkpt><trkpt lat="41.3509297" lon="1.8114638"><ele>262.79999999999995</ele><time>2026-05-04T17:11:25.946Z</time></trkpt><trkpt lat="41.3509839" lon="1.8115718"><ele>263.4</ele><time>2026-05-04T17:11:26.946Z</time></trkpt><trkpt lat="41.3510566" lon="1.8116623"><ele>264.0</ele><time>2026-05-04T17:11:27.946Z</time></trkpt><trkpt lat="41.3511307" lon="1.8117579"><ele>264.8</ele><time>2026-05-04T17:11:28.946Z</time></trkpt><trkpt lat="41.351206" lon="1.8118614"><ele>265.59999999999997</ele><time>2026-05-04T17:11:29.945Z</time></trkpt><trkpt lat="41.3512812" lon="1.8119633"><ele>266.4</ele><time>2026-05-04T17:11:30.946Z</time></trkpt><trkpt lat="41.3513658" lon="1.8120466"><ele>267.2</ele><time>2026-05-04T17:11:31.946Z</time></trkpt><trkpt lat="41.3514548" lon="1.8120949"><ele>268.0</ele><time>2026-05-04T17:11:32.946Z</time></trkpt><trkpt lat="41.3515463" lon="1.8121204"><ele>269.0</ele><time>2026-05-04T17:11:33.946Z</time></trkpt><trkpt lat="41.3516275" lon="1.8121705"><ele>270.0</ele><time>2026-05-04T17:11:34.946Z</time></trkpt><trkpt lat="41.3516878" lon="1.8122555"><ele>271.0</ele><time>2026-05-04T17:11:35.947Z</time></trkpt><trkpt lat="41.3517217" lon="1.8123548"><ele>272.0</ele><time>2026-05-04T17:11:36.947Z</time></trkpt><trkpt lat="41.351731" lon="1.8124533"><ele>273.0</ele><time>2026-05-04T17:11:37.947Z</time></trkpt><trkpt lat="41.3517128" lon="1.8125369"><ele>274.0</ele><time>2026-05-04T17:11:38.946Z</time></trkpt><trkpt lat="41.3516172" lon="1.8125908"><ele>274.0</ele><time>2026-05-04T17:11:40.947Z</time></trkpt><trkpt lat="41.351492" lon="1.8125529"><ele>274.0</ele><time>2026-05-04T17:11:42.947Z</time></trkpt><trkpt lat="41.3514154" lon="1.8125384"><ele>274.0</ele><time>2026-05-04T17:11:43.947Z</time></trkpt><trkpt lat="41.3513286" lon="1.8125486"><ele>274.0</ele><time>2026-05-04T17:11:44.947Z</time></trkpt><trkpt lat="41.3512392" lon="1.812572"><ele>274.0</ele><time>2026-05-04T17:11:45.947Z</time></trkpt><trkpt lat="41.3511508" lon="1.8126275"><ele>274.8</ele><time>2026-05-04T17:11:46.946Z</time></trkpt><trkpt lat="41.351075" lon="1.8127117"><ele>275.59999999999997</ele><time>2026-05-04T17:11:47.947Z</time></trkpt><trkpt lat="41.3510176" lon="1.8128253"><ele>276.4</ele><time>2026-05-04T17:11:48.947Z</time></trkpt><trkpt lat="41.350971" lon="1.8129464"><ele>277.2</ele><time>2026-05-04T17:11:49.947Z</time></trkpt><trkpt lat="41.3509342" lon="1.8130715"><ele>278.0</ele><time>2026-05-04T17:11:50.947Z</time></trkpt><trkpt lat="41.3509043" lon="1.8132052"><ele>278.0</ele><time>2026-05-04T17:11:51.947Z</time></trkpt><trkpt lat="41.3508817" lon="1.8133375"><ele>278.0</ele><time>2026-05-04T17:11:52.947Z</time></trkpt><trkpt lat="41.3508543" lon="1.8134693"><ele>278.0</ele><time>2026-05-04T17:11:53.946Z</time></trkpt><trkpt lat="41.3508208" lon="1.813593"><ele>278.0</ele><time>2026-05-04T17:11:54.946Z</time></trkpt><trkpt lat="41.3507769" lon="1.8136852"><ele>278.0</ele><time>2026-05-04T17:11:55.946Z</time></trkpt><trkpt lat="41.3507154" lon="1.8137603"><ele>278.5</ele><time>2026-05-04T17:11:56.947Z</time></trkpt><trkpt lat="41.3506435" lon="1.8137795"><ele>279.0</ele><time>2026-05-04T17:11:57.947Z</time></trkpt><trkpt lat="41.3505633" lon="1.8137548"><ele>279.5</ele><time>2026-05-04T17:11:58.947Z</time></trkpt><trkpt lat="41.3504917" lon="1.8136956"><ele>280.0</ele><time>2026-05-04T17:11:59.947Z</time></trkpt><trkpt lat="41.3504192" lon="1.8136311"><ele>280.5</ele><time>2026-05-04T17:12:00.947Z</time></trkpt><trkpt lat="41.3503443" lon="1.8135627"><ele>281.0</ele><time>2026-05-04T17:12:01.947Z</time></trkpt><trkpt lat="41.3502668" lon="1.8134887"><ele>281.0</ele><time>2026-05-04T17:12:02.947Z</time></trkpt><trkpt lat="41.3501824" lon="1.8134188"><ele>281.0</ele><time>2026-05-04T17:12:03.947Z</time></trkpt><trkpt lat="41.3500981" lon="1.8133494"><ele>281.0</ele><time>2026-05-04T17:12:04.947Z</time></trkpt><trkpt lat="41.3500124" lon="1.8132925"><ele>281.0</ele><time>2026-05-04T17:12:05.947Z</time></trkpt><trkpt lat="41.3499153" lon="1.8132704"><ele>281.0</ele><time>2026-05-04T17:12:06.947Z</time></trkpt><trkpt lat="41.3498172" lon="1.8132965"><ele>281.0</ele><time>2026-05-04T17:12:07.947Z</time></trkpt><trkpt lat="41.3497171" lon="1.813336"><ele>281.0</ele><time>2026-05-04T17:12:08.947Z</time></trkpt><trkpt lat="41.3496179" lon="1.8133905"><ele>281.0</ele><time>2026-05-04T17:12:09.947Z</time></trkpt><trkpt lat="41.349522" lon="1.8134506"><ele>281.0</ele><time>2026-05-04T17:12:10.947Z</time></trkpt><trkpt lat="41.3494255" lon="1.8135121"><ele>281.0</ele><time>2026-05-04T17:12:11.947Z</time></trkpt><trkpt lat="41.3493317" lon="1.8135792"><ele>283.40000000000003</ele><time>2026-05-04T17:12:12.946Z</time></trkpt><trkpt lat="41.3492424" lon="1.8136516"><ele>285.8</ele><time>2026-05-04T17:12:13.947Z</time></trkpt><trkpt lat="41.3491741" lon="1.8137499"><ele>288.20000000000005</ele><time>2026-05-04T17:12:14.947Z</time></trkpt><trkpt lat="41.3491298" lon="1.8138752"><ele>290.6</ele><time>2026-05-04T17:12:15.947Z</time></trkpt><trkpt lat="41.349109" lon="1.8140218"><ele>293.0</ele><time>2026-05-04T17:12:16.947Z</time></trkpt><trkpt lat="41.3490915" lon="1.8141733"><ele>295.0</ele><time>2026-05-04T17:12:17.947Z</time></trkpt><trkpt lat="41.3490724" lon="1.8143241"><ele>297.0</ele><time>2026-05-04T17:12:18.947Z</time></trkpt><trkpt lat="41.3490491" lon="1.8144737"><ele>299.0</ele><time>2026-05-04T17:12:19.947Z</time></trkpt><trkpt lat="41.3490302" lon="1.8146243"><ele>301.0</ele><time>2026-05-04T17:12:20.947Z</time></trkpt><trkpt lat="41.3490159" lon="1.8147802"><ele>301.0</ele><time>2026-05-04T17:12:21.947Z</time></trkpt><trkpt lat="41.3490089" lon="1.814944"><ele>301.0</ele><time>2026-05-04T17:12:22.947Z</time></trkpt><trkpt lat="41.3490107" lon="1.8151081"><ele>301.0</ele><time>2026-05-04T17:12:23.947Z</time></trkpt><trkpt lat="41.3490213" lon="1.8152687"><ele>301.0</ele><time>2026-05-04T17:12:24.947Z</time></trkpt><trkpt lat="41.3490351" lon="1.8154282"><ele>301.25</ele><time>2026-05-04T17:12:25.947Z</time></trkpt><trkpt lat="41.3490463" lon="1.8155881"><ele>301.5</ele><time>2026-05-04T17:12:26.947Z</time></trkpt><trkpt lat="41.3490594" lon="1.8157445"><ele>301.75</ele><time>2026-05-04T17:12:27.947Z</time></trkpt><trkpt lat="41.3490736" lon="1.8159148"><ele>302.0</ele><time>2026-05-04T17:12:28.947Z</time></trkpt><trkpt lat="41.3490863" lon="1.8160705"><ele>301.0</ele><time>2026-05-04T17:12:29.947Z</time></trkpt><trkpt lat="41.3490953" lon="1.8162276"><ele>300.0</ele><time>2026-05-04T17:12:30.946Z</time></trkpt><trkpt lat="41.3491115" lon="1.8163805"><ele>299.0</ele><time>2026-05-04T17:12:31.947Z</time></trkpt><trkpt lat="41.3491332" lon="1.8165333"><ele>298.0</ele><time>2026-05-04T17:12:32.946Z</time></trkpt><trkpt lat="41.3491608" lon="1.8166879"><ele>298.5</ele><time>2026-05-04T17:12:33.947Z</time></trkpt><trkpt lat="41.3491913" lon="1.8168407"><ele>299.0</ele><time>2026-05-04T17:12:34.947Z</time></trkpt><trkpt lat="41.3492215" lon="1.8169889"><ele>299.5</ele><time>2026-05-04T17:12:35.947Z</time></trkpt><trkpt lat="41.349251" lon="1.8171354"><ele>300.0</ele><time>2026-05-04T17:12:36.947Z</time></trkpt><trkpt lat="41.3492938" lon="1.8172805"><ele>300.0</ele><time>2026-05-04T17:12:37.946Z</time></trkpt><trkpt lat="41.3493583" lon="1.8174206"><ele>300.0</ele><time>2026-05-04T17:12:38.947Z</time></trkpt><trkpt lat="41.3494357" lon="1.8175449"><ele>300.0</ele><time>2026-05-04T17:12:39.947Z</time></trkpt><trkpt lat="41.3495215" lon="1.8176659"><ele>300.0</ele><time>2026-05-04T17:12:40.947Z</time></trkpt><trkpt lat="41.3496078" lon="1.8177877"><ele>300.25</ele><time>2026-05-04T17:12:41.947Z</time></trkpt><trkpt lat="41.3496987" lon="1.8179087"><ele>300.5</ele><time>2026-05-04T17:12:42.947Z</time></trkpt><trkpt lat="41.3497939" lon="1.8180299"><ele>300.75</ele><time>2026-05-04T17:12:43.947Z</time></trkpt><trkpt lat="41.349888" lon="1.8181559"><ele>301.0</ele><time>2026-05-04T17:12:44.947Z</time></trkpt><trkpt lat="41.3499743" lon="1.8182915"><ele>301.0</ele><time>2026-05-04T17:12:45.947Z</time></trkpt><trkpt lat="41.350044" lon="1.8184378"><ele>301.0</ele><time>2026-05-04T17:12:46.947Z</time></trkpt><trkpt lat="41.3501014" lon="1.8185893"><ele>301.0</ele><time>2026-05-04T17:12:47.947Z</time></trkpt><trkpt lat="41.3501415" lon="1.8187343"><ele>301.0</ele><time>2026-05-04T17:12:48.947Z</time></trkpt><trkpt lat="41.3501628" lon="1.8188556"><ele>301.16666666666663</ele><time>2026-05-04T17:12:49.947Z</time></trkpt><trkpt lat="41.350157" lon="1.8189634"><ele>301.3333333333333</ele><time>2026-05-04T17:12:50.947Z</time></trkpt><trkpt lat="41.3501185" lon="1.8190442"><ele>301.5</ele><time>2026-05-04T17:12:51.947Z</time></trkpt><trkpt lat="41.350054" lon="1.8190884"><ele>301.6666666666667</ele><time>2026-05-04T17:12:52.946Z</time></trkpt><trkpt lat="41.3499695" lon="1.8190955"><ele>301.83333333333337</ele><time>2026-05-04T17:12:53.947Z</time></trkpt><trkpt lat="41.3498762" lon="1.8190884"><ele>302.0</ele><time>2026-05-04T17:12:54.946Z</time></trkpt><trkpt lat="41.349778" lon="1.8190848"><ele>300.2</ele><time>2026-05-04T17:12:55.947Z</time></trkpt><trkpt lat="41.3496805" lon="1.8190959"><ele>298.4</ele><time>2026-05-04T17:12:56.947Z</time></trkpt><trkpt lat="41.3495885" lon="1.8191411"><ele>296.6</ele><time>2026-05-04T17:12:57.947Z</time></trkpt><trkpt lat="41.3495155" lon="1.8192042"><ele>294.8</ele><time>2026-05-04T17:12:58.946Z</time></trkpt><trkpt lat="41.349472" lon="1.8193054"><ele>293.0</ele><time>2026-05-04T17:12:59.947Z</time></trkpt><trkpt lat="41.3494484" lon="1.8194258"><ele>293.0</ele><time>2026-05-04T17:13:00.946Z</time></trkpt><trkpt lat="41.3494488" lon="1.8195561"><ele>293.0</ele><time>2026-05-04T17:13:01.947Z</time></trkpt><trkpt lat="41.3494629" lon="1.8196972"><ele>293.0</ele><time>2026-05-04T17:13:02.947Z</time></trkpt><trkpt lat="41.3494769" lon="1.8198486"><ele>293.0</ele><time>2026-05-04T17:13:03.947Z</time></trkpt><trkpt lat="41.3494929" lon="1.8199888"><ele>293.0</ele><time>2026-05-04T17:13:04.947Z</time></trkpt><trkpt lat="41.3495141" lon="1.8201152"><ele>292.6</ele><time>2026-05-04T17:13:05.947Z</time></trkpt><trkpt lat="41.3495529" lon="1.8202402"><ele>292.20000000000005</ele><time>2026-05-04T17:13:06.947Z</time></trkpt><trkpt lat="41.3496277" lon="1.8203487"><ele>291.8</ele><time>2026-05-04T17:13:07.946Z</time></trkpt><trkpt lat="41.3497262" lon="1.8204159"><ele>291.40000000000003</ele><time>2026-05-04T17:13:08.947Z</time></trkpt><trkpt lat="41.3498426" lon="1.8204635"><ele>291.0</ele><time>2026-05-04T17:13:09.946Z</time></trkpt><trkpt lat="41.3499584" lon="1.8205005"><ele>292.25</ele><time>2026-05-04T17:13:10.947Z</time></trkpt><trkpt lat="41.3500611" lon="1.8205603"><ele>293.5</ele><time>2026-05-04T17:13:11.947Z</time></trkpt><trkpt lat="41.3501447" lon="1.8206533"><ele>294.75</ele><time>2026-05-04T17:13:12.946Z</time></trkpt><trkpt lat="41.3502117" lon="1.8207752"><ele>296.0</ele><time>2026-05-04T17:13:13.946Z</time></trkpt><trkpt lat="41.3502555" lon="1.8209193"><ele>294.40000000000003</ele><time>2026-05-04T17:13:14.947Z</time></trkpt><trkpt lat="41.350293" lon="1.8210654"><ele>292.8</ele><time>2026-05-04T17:13:15.947Z</time></trkpt><trkpt lat="41.3503288" lon="1.8212104"><ele>291.20000000000005</ele><time>2026-05-04T17:13:16.946Z</time></trkpt><trkpt lat="41.3503744" lon="1.8213404"><ele>289.6</ele><time>2026-05-04T17:13:17.947Z</time></trkpt><trkpt lat="41.3504321" lon="1.8214412"><ele>288.0</ele><time>2026-05-04T17:13:18.947Z</time></trkpt><trkpt lat="41.3505115" lon="1.8215207"><ele>290.0</ele><time>2026-05-04T17:13:19.946Z</time></trkpt><trkpt lat="41.3506145" lon="1.821584"><ele>292.0</ele><time>2026-05-04T17:13:20.947Z</time></trkpt><trkpt lat="41.3507313" lon="1.8216322"><ele>294.0</ele><time>2026-05-04T17:13:21.947Z</time></trkpt><trkpt lat="41.3508504" lon="1.8216756"><ele>296.0</ele><time>2026-05-04T17:13:22.947Z</time></trkpt><trkpt lat="41.350977" lon="1.8217292"><ele>296.0</ele><time>2026-05-04T17:13:23.947Z</time></trkpt><trkpt lat="41.3511025" lon="1.8217808"><ele>296.0</ele><time>2026-05-04T17:13:24.946Z</time></trkpt><trkpt lat="41.3512237" lon="1.8218343"><ele>296.0</ele><time>2026-05-04T17:13:25.947Z</time></trkpt><trkpt lat="41.3513342" lon="1.8218837"><ele>296.0</ele><time>2026-05-04T17:13:26.947Z</time></trkpt><trkpt lat="41.3514342" lon="1.8219278"><ele>296.2</ele><time>2026-05-04T17:13:27.947Z</time></trkpt><trkpt lat="41.3515237" lon="1.8219769"><ele>296.40000000000003</ele><time>2026-05-04T17:13:28.946Z</time></trkpt><trkpt lat="41.3516081" lon="1.8220362"><ele>296.6</ele><time>2026-05-04T17:13:29.947Z</time></trkpt><trkpt lat="41.3516622" lon="1.8221252"><ele>296.8</ele><time>2026-05-04T17:13:30.947Z</time></trkpt><trkpt lat="41.35168" lon="1.822233"><ele>297.0</ele><time>2026-05-04T17:13:31.947Z</time></trkpt><trkpt lat="41.3516592" lon="1.8223482"><ele>297.0</ele><time>2026-05-04T17:13:32.947Z</time></trkpt><trkpt lat="41.3516197" lon="1.8224661"><ele>297.0</ele><time>2026-05-04T17:13:33.947Z</time></trkpt><trkpt lat="41.3515846" lon="1.8225997"><ele>297.0</ele><time>2026-05-04T17:13:34.947Z</time></trkpt><trkpt lat="41.3515718" lon="1.82275"><ele>297.0</ele><time>2026-05-04T17:13:35.947Z</time></trkpt><trkpt lat="41.3515796" lon="1.8228953"><ele>297.0</ele><time>2026-05-04T17:13:36.947Z</time></trkpt><trkpt lat="41.3515978" lon="1.8230405"><ele>296.4</ele><time>2026-05-04T17:13:37.947Z</time></trkpt><trkpt lat="41.351627" lon="1.8231777"><ele>295.79999999999995</ele><time>2026-05-04T17:13:38.947Z</time></trkpt><trkpt lat="41.3516749" lon="1.8233048"><ele>295.2</ele><time>2026-05-04T17:13:39.946Z</time></trkpt><trkpt lat="41.3517518" lon="1.8234053"><ele>294.59999999999997</ele><time>2026-05-04T17:13:40.947Z</time></trkpt><trkpt lat="41.3518476" lon="1.8234842"><ele>294.0</ele><time>2026-05-04T17:13:41.947Z</time></trkpt><trkpt lat="41.3519359" lon="1.8235733"><ele>292.4</ele><time>2026-05-04T17:13:42.947Z</time></trkpt><trkpt lat="41.3520013" lon="1.8236819"><ele>290.79999999999995</ele><time>2026-05-04T17:13:43.947Z</time></trkpt><trkpt lat="41.3520305" lon="1.8238141"><ele>289.20000000000005</ele><time>2026-05-04T17:13:44.946Z</time></trkpt><trkpt lat="41.352017" lon="1.8239352"><ele>287.6</ele><time>2026-05-04T17:13:45.946Z</time></trkpt><trkpt lat="41.3519844" lon="1.8240501"><ele>286.0</ele><time>2026-05-04T17:13:46.947Z</time></trkpt><trkpt lat="41.3519704" lon="1.8241729"><ele>286.0</ele><time>2026-05-04T17:13:47.947Z</time></trkpt><trkpt lat="41.3519949" lon="1.824293"><ele>286.0</ele><time>2026-05-04T17:13:48.947Z</time></trkpt><trkpt lat="41.352049" lon="1.8243981"><ele>286.0</ele><time>2026-05-04T17:13:49.947Z</time></trkpt><trkpt lat="41.3521046" lon="1.8245107"><ele>286.0</ele><time>2026-05-04T17:13:50.947Z</time></trkpt><trkpt lat="41.3521396" lon="1.8246379"><ele>286.0</ele><time>2026-05-04T17:13:51.947Z</time></trkpt><trkpt lat="41.3521431" lon="1.8247688"><ele>285.8</ele><time>2026-05-04T17:13:52.947Z</time></trkpt><trkpt lat="41.3521131" lon="1.8248953"><ele>285.6</ele><time>2026-05-04T17:13:53.947Z</time></trkpt><trkpt lat="41.352062" lon="1.8250228"><ele>285.4</ele><time>2026-05-04T17:13:54.946Z</time></trkpt><trkpt lat="41.3519992" lon="1.8251442"><ele>285.2</ele><time>2026-05-04T17:13:55.946Z</time></trkpt><trkpt lat="41.3519426" lon="1.8252648"><ele>285.0</ele><time>2026-05-04T17:13:56.947Z</time></trkpt><trkpt lat="41.3518948" lon="1.8253851"><ele>284.6</ele><time>2026-05-04T17:13:57.947Z</time></trkpt><trkpt lat="41.3518589" lon="1.8255035"><ele>284.2</ele><time>2026-05-04T17:13:58.947Z</time></trkpt><trkpt lat="41.3518472" lon="1.8256297"><ele>283.8</ele><time>2026-05-04T17:13:59.947Z</time></trkpt><trkpt lat="41.3518662" lon="1.8257711"><ele>283.4</ele><time>2026-05-04T17:14:00.947Z</time></trkpt><trkpt lat="41.3519018" lon="1.8259075"><ele>283.0</ele><time>2026-05-04T17:14:01.947Z</time></trkpt><trkpt lat="41.3519411" lon="1.8260426"><ele>281.8</ele><time>2026-05-04T17:14:02.947Z</time></trkpt><trkpt lat="41.3519814" lon="1.8261743"><ele>280.6</ele><time>2026-05-04T17:14:03.947Z</time></trkpt><trkpt lat="41.3520326" lon="1.8262874"><ele>279.4</ele><time>2026-05-04T17:14:04.947Z</time></trkpt><trkpt lat="41.3521113" lon="1.8263801"><ele>278.2</ele><time>2026-05-04T17:14:05.947Z</time></trkpt><trkpt lat="41.3522078" lon="1.8264588"><ele>277.0</ele><time>2026-05-04T17:14:06.947Z</time></trkpt><trkpt lat="41.3523032" lon="1.8265409"><ele>279.4</ele><time>2026-05-04T17:14:07.947Z</time></trkpt><trkpt lat="41.3523819" lon="1.8266218"><ele>281.79999999999995</ele><time>2026-05-04T17:14:08.947Z</time></trkpt><trkpt lat="41.3524397" lon="1.8267184"><ele>284.2</ele><time>2026-05-04T17:14:09.947Z</time></trkpt><trkpt lat="41.3524568" lon="1.8268377"><ele>286.59999999999997</ele><time>2026-05-04T17:14:10.947Z</time></trkpt><trkpt lat="41.3524364" lon="1.8269569"><ele>289.0</ele><time>2026-05-04T17:14:11.947Z</time></trkpt><trkpt lat="41.3524013" lon="1.8270743"><ele>289.0</ele><time>2026-05-04T17:14:12.947Z</time></trkpt><trkpt lat="41.3523727" lon="1.8271956"><ele>289.0</ele><time>2026-05-04T17:14:13.947Z</time></trkpt><trkpt lat="41.3523633" lon="1.8273404"><ele>289.0</ele><time>2026-05-04T17:14:14.947Z</time></trkpt><trkpt lat="41.3523683" lon="1.8274973"><ele>289.0</ele><time>2026-05-04T17:14:15.946Z</time></trkpt><trkpt lat="41.3523813" lon="1.8276561"><ele>289.0</ele><time>2026-05-04T17:14:16.947Z</time></trkpt><trkpt lat="41.3523913" lon="1.8278133"><ele>287.8</ele><time>2026-05-04T17:14:17.946Z</time></trkpt><trkpt lat="41.3524006" lon="1.8279715"><ele>286.59999999999997</ele><time>2026-05-04T17:14:18.947Z</time></trkpt><trkpt lat="41.3524176" lon="1.8281215"><ele>285.4</ele><time>2026-05-04T17:14:19.946Z</time></trkpt><trkpt lat="41.3524518" lon="1.8282543"><ele>284.2</ele><time>2026-05-04T17:14:20.948Z</time></trkpt><trkpt lat="41.3525073" lon="1.8283632"><ele>283.0</ele><time>2026-05-04T17:14:21.948Z</time></trkpt><trkpt lat="41.3525782" lon="1.8284426"><ele>283.5</ele><time>2026-05-04T17:14:22.948Z</time></trkpt><trkpt lat="41.3526287" lon="1.8285187"><ele>284.0</ele><time>2026-05-04T17:14:23.948Z</time></trkpt><trkpt lat="41.3526485" lon="1.8286205"><ele>284.5</ele><time>2026-05-04T17:14:24.948Z</time></trkpt><trkpt lat="41.3526287" lon="1.8287287"><ele>285.0</ele><time>2026-05-04T17:14:25.947Z</time></trkpt><trkpt lat="41.3525863" lon="1.8288319"><ele>285.5</ele><time>2026-05-04T17:14:26.947Z</time></trkpt><trkpt lat="41.3525308" lon="1.8289342"><ele>286.0</ele><time>2026-05-04T17:14:27.948Z</time></trkpt><trkpt lat="41.352471" lon="1.8290382"><ele>286.0</ele><time>2026-05-04T17:14:28.948Z</time></trkpt><trkpt lat="41.352393" lon="1.8291299"><ele>286.0</ele><time>2026-05-04T17:14:29.948Z</time></trkpt><trkpt lat="41.352305" lon="1.8291975"><ele>286.0</ele><time>2026-05-04T17:14:30.948Z</time></trkpt><trkpt lat="41.3522128" lon="1.829257"><ele>286.0</ele><time>2026-05-04T17:14:31.948Z</time></trkpt><trkpt lat="41.3521193" lon="1.829319"><ele>286.0</ele><time>2026-05-04T17:14:32.948Z</time></trkpt><trkpt lat="41.3520239" lon="1.8293837"><ele>287.5</ele><time>2026-05-04T17:14:33.948Z</time></trkpt><trkpt lat="41.3519277" lon="1.8294473"><ele>289.0</ele><time>2026-05-04T17:14:34.947Z</time></trkpt><trkpt lat="41.3518263" lon="1.8295208"><ele>290.5</ele><time>2026-05-04T17:14:35.948Z</time></trkpt><trkpt lat="41.3517212" lon="1.8295889"><ele>292.0</ele><time>2026-05-04T17:14:36.948Z</time></trkpt><trkpt lat="41.3516219" lon="1.8296562"><ele>292.0</ele><time>2026-05-04T17:14:37.947Z</time></trkpt><trkpt lat="41.351523" lon="1.8297153"><ele>292.0</ele><time>2026-05-04T17:14:38.948Z</time></trkpt><trkpt lat="41.3514285" lon="1.8297457"><ele>292.0</ele><time>2026-05-04T17:14:39.948Z</time></trkpt><trkpt lat="41.3513338" lon="1.8297407"><ele>292.0</ele><time>2026-05-04T17:14:40.948Z</time></trkpt><trkpt lat="41.3512436" lon="1.8297008"><ele>292.0</ele><time>2026-05-04T17:14:41.948Z</time></trkpt><trkpt lat="41.3511597" lon="1.8296307"><ele>294.0</ele><time>2026-05-04T17:14:42.948Z</time></trkpt><trkpt lat="41.3510978" lon="1.8295328"><ele>296.0</ele><time>2026-05-04T17:14:43.948Z</time></trkpt><trkpt lat="41.3510478" lon="1.8294117"><ele>298.0</ele><time>2026-05-04T17:14:44.948Z</time></trkpt><trkpt lat="41.3510089" lon="1.8292909"><ele>300.0</ele><time>2026-05-04T17:14:45.948Z</time></trkpt><trkpt lat="41.3509734" lon="1.8291642"><ele>302.0</ele><time>2026-05-04T17:14:46.948Z</time></trkpt><trkpt lat="41.3509243" lon="1.8290443"><ele>302.0</ele><time>2026-05-04T17:14:47.948Z</time></trkpt><trkpt lat="41.350854" lon="1.828938"><ele>302.0</ele><time>2026-05-04T17:14:48.948Z</time></trkpt><trkpt lat="41.3507758" lon="1.8288475"><ele>302.0</ele><time>2026-05-04T17:14:49.948Z</time></trkpt><trkpt lat="41.3506816" lon="1.8287747"><ele>302.0</ele><time>2026-05-04T17:14:50.948Z</time></trkpt><trkpt lat="41.350587" lon="1.8287058"><ele>302.0</ele><time>2026-05-04T17:14:51.948Z</time></trkpt><trkpt lat="41.3504932" lon="1.8286316"><ele>303.2</ele><time>2026-05-04T17:14:52.948Z</time></trkpt><trkpt lat="41.3504023" lon="1.8285551"><ele>304.4</ele><time>2026-05-04T17:14:53.948Z</time></trkpt><trkpt lat="41.3503109" lon="1.828479"><ele>305.6</ele><time>2026-05-04T17:14:54.948Z</time></trkpt><trkpt lat="41.35022" lon="1.8283968"><ele>306.8</ele><time>2026-05-04T17:14:55.948Z</time></trkpt><trkpt lat="41.3501232" lon="1.8283186"><ele>308.0</ele><time>2026-05-04T17:14:56.948Z</time></trkpt><trkpt lat="41.3500275" lon="1.8282496"><ele>308.0</ele><time>2026-05-04T17:14:57.948Z</time></trkpt><trkpt lat="41.3499302" lon="1.828187"><ele>308.0</ele><time>2026-05-04T17:14:58.948Z</time></trkpt><trkpt lat="41.3498318" lon="1.828148"><ele>308.0</ele><time>2026-05-04T17:14:59.948Z</time></trkpt><trkpt lat="41.3497246" lon="1.8281322"><ele>308.0</ele><time>2026-05-04T17:15:00.948Z</time></trkpt><trkpt lat="41.3496155" lon="1.828131"><ele>308.0</ele><time>2026-05-04T17:15:01.947Z</time></trkpt><trkpt lat="41.349502" lon="1.8281556"><ele>307.8</ele><time>2026-05-04T17:15:02.948Z</time></trkpt><trkpt lat="41.3494018" lon="1.8282125"><ele>307.6</ele><time>2026-05-04T17:15:03.947Z</time></trkpt><trkpt lat="41.3493225" lon="1.8282918"><ele>307.4</ele><time>2026-05-04T17:15:04.948Z</time></trkpt><trkpt lat="41.3492675" lon="1.8283913"><ele>307.2</ele><time>2026-05-04T17:15:05.948Z</time></trkpt><trkpt lat="41.3492389" lon="1.8285021"><ele>307.0</ele><time>2026-05-04T17:15:06.948Z</time></trkpt><trkpt lat="41.3492333" lon="1.8286306"><ele>307.0</ele><time>2026-05-04T17:15:07.947Z</time></trkpt><trkpt lat="41.3492431" lon="1.8287751"><ele>307.0</ele><time>2026-05-04T17:15:08.948Z</time></trkpt><trkpt lat="41.349257" lon="1.8289287"><ele>307.0</ele><time>2026-05-04T17:15:09.948Z</time></trkpt><trkpt lat="41.3492665" lon="1.8290916"><ele>307.0</ele><time>2026-05-04T17:15:10.948Z</time></trkpt><trkpt lat="41.3492639" lon="1.8292566"><ele>307.25</ele><time>2026-05-04T17:15:11.947Z</time></trkpt><trkpt lat="41.3492435" lon="1.8294231"><ele>307.5</ele><time>2026-05-04T17:15:12.947Z</time></trkpt><trkpt lat="41.349204" lon="1.829586"><ele>307.75</ele><time>2026-05-04T17:15:13.948Z</time></trkpt><trkpt lat="41.3491569" lon="1.8297487"><ele>308.0</ele><time>2026-05-04T17:15:14.947Z</time></trkpt><trkpt lat="41.3491078" lon="1.829908"><ele>308.0</ele><time>2026-05-04T17:15:15.948Z</time></trkpt><trkpt lat="41.3490628" lon="1.830062"><ele>308.0</ele><time>2026-05-04T17:15:16.948Z</time></trkpt><trkpt lat="41.3490279" lon="1.8302104"><ele>308.0</ele><time>2026-05-04T17:15:17.947Z</time></trkpt><trkpt lat="41.3490111" lon="1.8303632"><ele>308.0</ele><time>2026-05-04T17:15:18.948Z</time></trkpt><trkpt lat="41.3490177" lon="1.8305235"><ele>308.25</ele><time>2026-05-04T17:15:19.947Z</time></trkpt><trkpt lat="41.3490452" lon="1.8306827"><ele>308.5</ele><time>2026-05-04T17:15:20.948Z</time></trkpt><trkpt lat="41.3490892" lon="1.8308366"><ele>308.75</ele><time>2026-05-04T17:15:21.948Z</time></trkpt><trkpt lat="41.3491508" lon="1.8309868"><ele>309.0</ele><time>2026-05-04T17:15:22.948Z</time></trkpt><trkpt lat="41.3492288" lon="1.8311214"><ele>307.5</ele><time>2026-05-04T17:15:23.947Z</time></trkpt><trkpt lat="41.3493154" lon="1.8312507"><ele>306.0</ele><time>2026-05-04T17:15:24.948Z</time></trkpt><trkpt lat="41.349408" lon="1.8313689"><ele>304.5</ele><time>2026-05-04T17:15:25.948Z</time></trkpt><trkpt lat="41.3494981" lon="1.8314853"><ele>303.0</ele><time>2026-05-04T17:15:26.948Z</time></trkpt><trkpt lat="41.3495731" lon="1.8316193"><ele>303.0</ele><time>2026-05-04T17:15:27.947Z</time></trkpt><trkpt lat="41.3496261" lon="1.8317773"><ele>303.0</ele><time>2026-05-04T17:15:28.947Z</time></trkpt><trkpt lat="41.3496587" lon="1.8319452"><ele>303.0</ele><time>2026-05-04T17:15:29.948Z</time></trkpt><trkpt lat="41.3496965" lon="1.8321135"><ele>303.0</ele><time>2026-05-04T17:15:30.947Z</time></trkpt><trkpt lat="41.3497493" lon="1.8322735"><ele>304.75</ele><time>2026-05-04T17:15:31.948Z</time></trkpt><trkpt lat="41.3498128" lon="1.8324083"><ele>306.5</ele><time>2026-05-04T17:15:32.948Z</time></trkpt><trkpt lat="41.3498758" lon="1.8325341"><ele>308.25</ele><time>2026-05-04T17:15:33.947Z</time></trkpt><trkpt lat="41.3499305" lon="1.8326666"><ele>310.0</ele><time>2026-05-04T17:15:34.948Z</time></trkpt><trkpt lat="41.3499569" lon="1.8328202"><ele>310.0</ele><time>2026-05-04T17:15:35.948Z</time></trkpt><trkpt lat="41.3499446" lon="1.8329707"><ele>310.0</ele><time>2026-05-04T17:15:36.948Z</time></trkpt><trkpt lat="41.3499085" lon="1.833114"><ele>310.0</ele><time>2026-05-04T17:15:37.948Z</time></trkpt><trkpt lat="41.349852" lon="1.8332493"><ele>310.0</ele><time>2026-05-04T17:15:38.948Z</time></trkpt><trkpt lat="41.3497812" lon="1.8333735"><ele>308.25</ele><time>2026-05-04T17:15:39.948Z</time></trkpt><trkpt lat="41.3496955" lon="1.8334863"><ele>306.5</ele><time>2026-05-04T17:15:40.948Z</time></trkpt><trkpt lat="41.3495992" lon="1.83358"><ele>304.75</ele><time>2026-05-04T17:15:41.947Z</time></trkpt><trkpt lat="41.3494947" lon="1.8336671"><ele>303.0</ele><time>2026-05-04T17:15:42.948Z</time></trkpt><trkpt lat="41.349383" lon="1.833746"><ele>303.0</ele><time>2026-05-04T17:15:43.948Z</time></trkpt><trkpt lat="41.3492845" lon="1.8338259"><ele>303.0</ele><time>2026-05-04T17:15:44.948Z</time></trkpt><trkpt lat="41.3492001" lon="1.833901"><ele>303.0</ele><time>2026-05-04T17:15:45.947Z</time></trkpt><trkpt lat="41.3491307" lon="1.8339829"><ele>303.0</ele><time>2026-05-04T17:15:46.948Z</time></trkpt><trkpt lat="41.3490783" lon="1.8340825"><ele>303.0</ele><time>2026-05-04T17:15:47.947Z</time></trkpt><trkpt lat="41.3490544" lon="1.834202"><ele>302.8333333333333</ele><time>2026-05-04T17:15:48.948Z</time></trkpt><trkpt lat="41.3490422" lon="1.8343218"><ele>302.6666666666667</ele><time>2026-05-04T17:15:49.948Z</time></trkpt><trkpt lat="41.3490346" lon="1.8344382"><ele>302.5</ele><time>2026-05-04T17:15:50.948Z</time></trkpt><trkpt lat="41.3490413" lon="1.834545"><ele>302.33333333333337</ele><time>2026-05-04T17:15:51.948Z</time></trkpt><trkpt lat="41.3490778" lon="1.8346468"><ele>302.1666666666667</ele><time>2026-05-04T17:15:52.947Z</time></trkpt><trkpt lat="41.3491423" lon="1.8347257"><ele>302.0</ele><time>2026-05-04T17:15:53.948Z</time></trkpt><trkpt lat="41.349222" lon="1.8347551"><ele>302.0</ele><time>2026-05-04T17:15:54.947Z</time></trkpt><trkpt lat="41.3493186" lon="1.8347574"><ele>302.0</ele><time>2026-05-04T17:15:55.948Z</time></trkpt><trkpt lat="41.3494287" lon="1.8347531"><ele>302.0</ele><time>2026-05-04T17:15:56.948Z</time></trkpt><trkpt lat="41.3495418" lon="1.8347439"><ele>302.0</ele><time>2026-05-04T17:15:57.948Z</time></trkpt><trkpt lat="41.3496664" lon="1.8347339"><ele>302.0</ele><time>2026-05-04T17:15:58.948Z</time></trkpt><trkpt lat="41.3497896" lon="1.8347295"><ele>302.2</ele><time>2026-05-04T17:15:59.948Z</time></trkpt><trkpt lat="41.3499046" lon="1.8347243"><ele>302.4</ele><time>2026-05-04T17:16:00.948Z</time></trkpt><trkpt lat="41.3500007" lon="1.8347166"><ele>302.6</ele><time>2026-05-04T17:16:01.948Z</time></trkpt><trkpt lat="41.3500903" lon="1.8347293"><ele>302.8</ele><time>2026-05-04T17:16:02.948Z</time></trkpt><trkpt lat="41.3501656" lon="1.8347721"><ele>303.0</ele><time>2026-05-04T17:16:03.948Z</time></trkpt><trkpt lat="41.3502143" lon="1.8348555"><ele>303.0</ele><time>2026-05-04T17:16:04.948Z</time></trkpt><trkpt lat="41.3502208" lon="1.8349579"><ele>303.0</ele><time>2026-05-04T17:16:05.948Z</time></trkpt><trkpt lat="41.3501895" lon="1.835051"><ele>303.0</ele><time>2026-05-04T17:16:06.948Z</time></trkpt><trkpt lat="41.350128" lon="1.8351184"><ele>303.0</ele><time>2026-05-04T17:16:07.948Z</time></trkpt><trkpt lat="41.3500463" lon="1.8351713"><ele>303.0</ele><time>2026-05-04T17:16:08.947Z</time></trkpt><trkpt lat="41.3499602" lon="1.8352343"><ele>303.0</ele><time>2026-05-04T17:16:09.948Z</time></trkpt><trkpt lat="41.3498608" lon="1.8353101"><ele>301.75</ele><time>2026-05-04T17:16:10.948Z</time></trkpt><trkpt lat="41.3497556" lon="1.835392"><ele>300.5</ele><time>2026-05-04T17:16:11.948Z</time></trkpt><trkpt lat="41.3496422" lon="1.8354772"><ele>299.25</ele><time>2026-05-04T17:16:12.948Z</time></trkpt><trkpt lat="41.3495272" lon="1.8355722"><ele>298.0</ele><time>2026-05-04T17:16:13.947Z</time></trkpt><trkpt lat="41.3494109" lon="1.8356759"><ele>298.0</ele><time>2026-05-04T17:16:14.948Z</time></trkpt><trkpt lat="41.3492992" lon="1.8357904"><ele>298.0</ele><time>2026-05-04T17:16:15.948Z</time></trkpt><trkpt lat="41.3491878" lon="1.8359135"><ele>298.0</ele><time>2026-05-04T17:16:16.948Z</time></trkpt><trkpt lat="41.3490796" lon="1.8360376"><ele>298.0</ele><time>2026-05-04T17:16:17.947Z</time></trkpt><trkpt lat="41.3489744" lon="1.8361626"><ele>295.75</ele><time>2026-05-04T17:16:18.948Z</time></trkpt><trkpt lat="41.3488639" lon="1.8362772"><ele>293.5</ele><time>2026-05-04T17:16:19.947Z</time></trkpt><trkpt lat="41.3487599" lon="1.8363944"><ele>291.25</ele><time>2026-05-04T17:16:20.948Z</time></trkpt><trkpt lat="41.3486577" lon="1.8365138"><ele>289.0</ele><time>2026-05-04T17:16:21.948Z</time></trkpt><trkpt lat="41.3485513" lon="1.8366364"><ele>289.0</ele><time>2026-05-04T17:16:22.948Z</time></trkpt><trkpt lat="41.3484489" lon="1.8367595"><ele>289.0</ele><time>2026-05-04T17:16:23.948Z</time></trkpt><trkpt lat="41.3483535" lon="1.8368813"><ele>289.0</ele><time>2026-05-04T17:16:24.948Z</time></trkpt><trkpt lat="41.3482616" lon="1.8370044"><ele>289.0</ele><time>2026-05-04T17:16:25.948Z</time></trkpt><trkpt lat="41.3481732" lon="1.8371387"><ele>289.5</ele><time>2026-05-04T17:16:26.948Z</time></trkpt><trkpt lat="41.3480864" lon="1.8372611"><ele>290.0</ele><time>2026-05-04T17:16:27.948Z</time></trkpt><trkpt lat="41.3480071" lon="1.8373817"><ele>290.5</ele><time>2026-05-04T17:16:28.948Z</time></trkpt><trkpt lat="41.3479342" lon="1.8374936"><ele>291.0</ele><time>2026-05-04T17:16:29.948Z</time></trkpt><trkpt lat="41.3478615" lon="1.8376013"><ele>287.25</ele><time>2026-05-04T17:16:30.947Z</time></trkpt><trkpt lat="41.3477964" lon="1.8377153"><ele>283.5</ele><time>2026-05-04T17:16:31.947Z</time></trkpt><trkpt lat="41.3477478" lon="1.837842"><ele>279.75</ele><time>2026-05-04T17:16:32.948Z</time></trkpt><trkpt lat="41.3477162" lon="1.8379918"><ele>276.0</ele><time>2026-05-04T17:16:33.948Z</time></trkpt><trkpt lat="41.3477017" lon="1.838153"><ele>276.0</ele><time>2026-05-04T17:16:34.948Z</time></trkpt><trkpt lat="41.3477043" lon="1.8383209"><ele>276.0</ele><time>2026-05-04T17:16:35.948Z</time></trkpt><trkpt lat="41.3477249" lon="1.8384685"><ele>276.0</ele><time>2026-05-04T17:16:36.948Z</time></trkpt><trkpt lat="41.3477683" lon="1.8385936"><ele>276.0</ele><time>2026-05-04T17:16:37.947Z</time></trkpt><trkpt lat="41.3478354" lon="1.8387071"><ele>275.0</ele><time>2026-05-04T17:16:38.948Z</time></trkpt><trkpt lat="41.3479245" lon="1.8388192"><ele>274.0</ele><time>2026-05-04T17:16:39.948Z</time></trkpt><trkpt lat="41.3480145" lon="1.8389272"><ele>273.0</ele><time>2026-05-04T17:16:40.948Z</time></trkpt><trkpt lat="41.348094" lon="1.8390321"><ele>272.0</ele><time>2026-05-04T17:16:41.948Z</time></trkpt><trkpt lat="41.3481578" lon="1.8391442"><ele>273.6</ele><time>2026-05-04T17:16:42.948Z</time></trkpt><trkpt lat="41.3481954" lon="1.8392734"><ele>275.2</ele><time>2026-05-04T17:16:43.947Z</time></trkpt><trkpt lat="41.3482106" lon="1.8394268"><ele>276.8</ele><time>2026-05-04T17:16:44.948Z</time></trkpt><trkpt lat="41.3482063" lon="1.8395749"><ele>278.4</ele><time>2026-05-04T17:16:45.948Z</time></trkpt><trkpt lat="41.3481863" lon="1.8397075"><ele>280.0</ele><time>2026-05-04T17:16:46.948Z</time></trkpt><trkpt lat="41.3481451" lon="1.8398159"><ele>280.2</ele><time>2026-05-04T17:16:47.948Z</time></trkpt><trkpt lat="41.3480826" lon="1.8398937"><ele>280.4</ele><time>2026-05-04T17:16:48.948Z</time></trkpt><trkpt lat="41.3480031" lon="1.8399483"><ele>280.6</ele><time>2026-05-04T17:16:49.948Z</time></trkpt><trkpt lat="41.3479081" lon="1.8399757"><ele>280.8</ele><time>2026-05-04T17:16:50.948Z</time></trkpt><trkpt lat="41.3478117" lon="1.8399672"><ele>281.0</ele><time>2026-05-04T17:16:51.948Z</time></trkpt><trkpt lat="41.3477171" lon="1.839935"><ele>281.0</ele><time>2026-05-04T17:16:52.948Z</time></trkpt><trkpt lat="41.3476254" lon="1.839885"><ele>281.0</ele><time>2026-05-04T17:16:53.948Z</time></trkpt><trkpt lat="41.3475342" lon="1.8398311"><ele>281.0</ele><time>2026-05-04T17:16:54.948Z</time></trkpt><trkpt lat="41.3474349" lon="1.8397831"><ele>281.0</ele><time>2026-05-04T17:16:55.948Z</time></trkpt><trkpt lat="41.3473323" lon="1.8397494"><ele>281.0</ele><time>2026-05-04T17:16:56.948Z</time></trkpt><trkpt lat="41.3472246" lon="1.8397461"><ele>279.0</ele><time>2026-05-04T17:16:57.947Z</time></trkpt><trkpt lat="41.3471083" lon="1.8397818"><ele>277.0</ele><time>2026-05-04T17:16:58.948Z</time></trkpt><trkpt lat="41.3469949" lon="1.8398377"><ele>275.0</ele><time>2026-05-04T17:16:59.948Z</time></trkpt><trkpt lat="41.3468819" lon="1.8399133"><ele>273.0</ele><time>2026-05-04T17:17:00.948Z</time></trkpt><trkpt lat="41.3467784" lon="1.8400025"><ele>273.0</ele><time>2026-05-04T17:17:01.948Z</time></trkpt><trkpt lat="41.3466845" lon="1.8400967"><ele>273.0</ele><time>2026-05-04T17:17:02.949Z</time></trkpt><trkpt lat="41.3466109" lon="1.8402022"><ele>273.0</ele><time>2026-05-04T17:17:03.948Z</time></trkpt><trkpt lat="41.3465571" lon="1.8403313"><ele>273.0</ele><time>2026-05-04T17:17:04.949Z</time></trkpt><trkpt lat="41.3465161" lon="1.8404775"><ele>274.8</ele><time>2026-05-04T17:17:05.949Z</time></trkpt><trkpt lat="41.3464886" lon="1.8406286"><ele>276.6</ele><time>2026-05-04T17:17:06.949Z</time></trkpt><trkpt lat="41.3464598" lon="1.8407816"><ele>278.4</ele><time>2026-05-04T17:17:07.949Z</time></trkpt><trkpt lat="41.3464117" lon="1.8409062"><ele>280.2</ele><time>2026-05-04T17:17:08.949Z</time></trkpt><trkpt lat="41.3463468" lon="1.8409842"><ele>282.0</ele><time>2026-05-04T17:17:09.949Z</time></trkpt><trkpt lat="41.3462623" lon="1.8410178"><ele>282.6</ele><time>2026-05-04T17:17:10.948Z</time></trkpt><trkpt lat="41.3461719" lon="1.8410022"><ele>283.2</ele><time>2026-05-04T17:17:11.949Z</time></trkpt><trkpt lat="41.346077" lon="1.8409559"><ele>283.8</ele><time>2026-05-04T17:17:12.949Z</time></trkpt><trkpt lat="41.3459815" lon="1.8409007"><ele>284.4</ele><time>2026-05-04T17:17:13.949Z</time></trkpt><trkpt lat="41.3458817" lon="1.8408498"><ele>285.0</ele><time>2026-05-04T17:17:14.949Z</time></trkpt><trkpt lat="41.3457774" lon="1.8407983"><ele>282.25</ele><time>2026-05-04T17:17:15.949Z</time></trkpt><trkpt lat="41.3456696" lon="1.8407774"><ele>279.5</ele><time>2026-05-04T17:17:16.949Z</time></trkpt><trkpt lat="41.3455562" lon="1.8407918"><ele>276.75</ele><time>2026-05-04T17:17:17.949Z</time></trkpt><trkpt lat="41.345442" lon="1.8408337"><ele>274.0</ele><time>2026-05-04T17:17:18.949Z</time></trkpt><trkpt lat="41.3453297" lon="1.8408907"><ele>273.0</ele><time>2026-05-04T17:17:19.948Z</time></trkpt><trkpt lat="41.3452112" lon="1.8409503"><ele>272.0</ele><time>2026-05-04T17:17:20.949Z</time></trkpt><trkpt lat="41.3450901" lon="1.8410123"><ele>271.0</ele><time>2026-05-04T17:17:21.949Z</time></trkpt><trkpt lat="41.3449667" lon="1.8410694"><ele>270.0</ele><time>2026-05-04T17:17:22.949Z</time></trkpt><trkpt lat="41.3448385" lon="1.8411298"><ele>270.5</ele><time>2026-05-04T17:17:23.948Z</time></trkpt><trkpt lat="41.3447066" lon="1.8411839"><ele>271.0</ele><time>2026-05-04T17:17:24.949Z</time></trkpt><trkpt lat="41.3445852" lon="1.8412364"><ele>271.5</ele><time>2026-05-04T17:17:25.949Z</time></trkpt><trkpt lat="41.3444747" lon="1.8412871"><ele>272.0</ele><time>2026-05-04T17:17:26.949Z</time></trkpt><trkpt lat="41.3443728" lon="1.8413316"><ele>272.0</ele><time>2026-05-04T17:17:27.949Z</time></trkpt><trkpt lat="41.3442819" lon="1.8413786"><ele>272.0</ele><time>2026-05-04T17:17:28.949Z</time></trkpt><trkpt lat="41.3442056" lon="1.8414508"><ele>272.0</ele><time>2026-05-04T17:17:29.949Z</time></trkpt><trkpt lat="41.3441588" lon="1.8415494"><ele>272.0</ele><time>2026-05-04T17:17:30.948Z</time></trkpt><trkpt lat="41.3441461" lon="1.841661"><ele>272.0</ele><time>2026-05-04T17:17:31.949Z</time></trkpt><trkpt lat="41.3441638" lon="1.8417799"><ele>270.6</ele><time>2026-05-04T17:17:32.949Z</time></trkpt><trkpt lat="41.3442085" lon="1.8418976"><ele>269.2</ele><time>2026-05-04T17:17:33.949Z</time></trkpt><trkpt lat="41.3442688" lon="1.8420158"><ele>267.8</ele><time>2026-05-04T17:17:34.949Z</time></trkpt><trkpt lat="41.3443313" lon="1.8421429"><ele>266.4</ele><time>2026-05-04T17:17:35.949Z</time></trkpt><trkpt lat="41.3444002" lon="1.8422741"><ele>265.0</ele><time>2026-05-04T17:17:36.949Z</time></trkpt><trkpt lat="41.3444727" lon="1.8424105"><ele>265.0</ele><time>2026-05-04T17:17:37.949Z</time></trkpt><trkpt lat="41.3445465" lon="1.8425541"><ele>265.0</ele><time>2026-05-04T17:17:38.949Z</time></trkpt><trkpt lat="41.3446162" lon="1.8426919"><ele>265.0</ele><time>2026-05-04T17:17:39.949Z</time></trkpt><trkpt lat="41.3446845" lon="1.8428278"><ele>265.0</ele><time>2026-05-04T17:17:40.949Z</time></trkpt><trkpt lat="41.3447518" lon="1.8429582"><ele>264.25</ele><time>2026-05-04T17:17:41.949Z</time></trkpt><trkpt lat="41.3448119" lon="1.8430888"><ele>263.5</ele><time>2026-05-04T17:17:42.949Z</time></trkpt><trkpt lat="41.3448763" lon="1.8432202"><ele>262.75</ele><time>2026-05-04T17:17:43.949Z</time></trkpt><trkpt lat="41.3449462" lon="1.8433528"><ele>262.0</ele><time>2026-05-04T17:17:44.949Z</time></trkpt><trkpt lat="41.3450306" lon="1.8434778"><ele>262.0</ele><time>2026-05-04T17:17:45.949Z</time></trkpt><trkpt lat="41.345129" lon="1.8435884"><ele>262.0</ele><time>2026-05-04T17:17:46.948Z</time></trkpt><trkpt lat="41.3452337" lon="1.8436939"><ele>262.0</ele><time>2026-05-04T17:17:47.948Z</time></trkpt><trkpt lat="41.3453382" lon="1.8438076"><ele>262.0</ele><time>2026-05-04T17:17:48.949Z</time></trkpt><trkpt lat="41.3454434" lon="1.8439247"><ele>262.0</ele><time>2026-05-04T17:17:49.949Z</time></trkpt><trkpt lat="41.3455463" lon="1.8440341"><ele>262.0</ele><time>2026-05-04T17:17:50.949Z</time></trkpt><trkpt lat="41.3456467" lon="1.8441407"><ele>262.0</ele><time>2026-05-04T17:17:51.949Z</time></trkpt><trkpt lat="41.345745" lon="1.8442474"><ele>262.0</ele><time>2026-05-04T17:17:52.949Z</time></trkpt><trkpt lat="41.3458379" lon="1.8443515"><ele>262.0</ele><time>2026-05-04T17:17:53.948Z</time></trkpt><trkpt lat="41.3459316" lon="1.8444483"><ele>262.0</ele><time>2026-05-04T17:17:54.948Z</time></trkpt><trkpt lat="41.3460246" lon="1.844539"><ele>262.0</ele><time>2026-05-04T17:17:55.949Z</time></trkpt><trkpt lat="41.3461212" lon="1.8446178"><ele>262.0</ele><time>2026-05-04T17:17:56.948Z</time></trkpt><trkpt lat="41.3462266" lon="1.8446789"><ele>262.0</ele><time>2026-05-04T17:17:57.949Z</time></trkpt><trkpt lat="41.3463365" lon="1.8447197"><ele>262.0</ele><time>2026-05-04T17:17:58.949Z</time></trkpt><trkpt lat="41.346449" lon="1.8447518"><ele>262.0</ele><time>2026-05-04T17:17:59.949Z</time></trkpt><trkpt lat="41.3465649" lon="1.8447811"><ele>262.0</ele><time>2026-05-04T17:18:00.949Z</time></trkpt><trkpt lat="41.3466728" lon="1.844807"><ele>261.8</ele><time>2026-05-04T17:18:01.949Z</time></trkpt><trkpt lat="41.3467749" lon="1.8448438"><ele>261.6</ele><time>2026-05-04T17:18:02.949Z</time></trkpt><trkpt lat="41.3468618" lon="1.8449073"><ele>261.40000000000003</ele><time>2026-05-04T17:18:03.949Z</time></trkpt><trkpt lat="41.3469252" lon="1.8449995"><ele>261.2</ele><time>2026-05-04T17:18:04.948Z</time></trkpt><trkpt lat="41.3469513" lon="1.8451083"><ele>261.0</ele><time>2026-05-04T17:18:05.949Z</time></trkpt><trkpt lat="41.3469425" lon="1.8452288"><ele>261.0</ele><time>2026-05-04T17:18:06.949Z</time></trkpt><trkpt lat="41.346925" lon="1.845356"><ele>261.0</ele><time>2026-05-04T17:18:07.949Z</time></trkpt><trkpt lat="41.3469048" lon="1.8454857"><ele>261.0</ele><time>2026-05-04T17:18:08.949Z</time></trkpt><trkpt lat="41.3468952" lon="1.8456232"><ele>261.0</ele><time>2026-05-04T17:18:09.949Z</time></trkpt><trkpt lat="41.3468825" lon="1.8457703"><ele>261.0</ele><time>2026-05-04T17:18:10.949Z</time></trkpt><trkpt lat="41.3468683" lon="1.8459224"><ele>261.25</ele><time>2026-05-04T17:18:11.949Z</time></trkpt><trkpt lat="41.3468543" lon="1.8460806"><ele>261.5</ele><time>2026-05-04T17:18:12.949Z</time></trkpt><trkpt lat="41.3468405" lon="1.8462417"><ele>261.75</ele><time>2026-05-04T17:18:13.949Z</time></trkpt><trkpt lat="41.3468265" lon="1.8464063"><ele>262.0</ele><time>2026-05-04T17:18:14.949Z</time></trkpt><trkpt lat="41.3468107" lon="1.8465707"><ele>262.0</ele><time>2026-05-04T17:18:15.949Z</time></trkpt><trkpt lat="41.3467954" lon="1.8467398"><ele>262.0</ele><time>2026-05-04T17:18:16.948Z</time></trkpt><trkpt lat="41.3467789" lon="1.8469039"><ele>262.0</ele><time>2026-05-04T17:18:17.949Z</time></trkpt><trkpt lat="41.3467605" lon="1.8470697"><ele>262.0</ele><time>2026-05-04T17:18:18.949Z</time></trkpt><trkpt lat="41.3467335" lon="1.8472322"><ele>263.0</ele><time>2026-05-04T17:18:19.948Z</time></trkpt><trkpt lat="41.3467032" lon="1.8473917"><ele>264.0</ele><time>2026-05-04T17:18:20.949Z</time></trkpt><trkpt lat="41.3466663" lon="1.8475423"><ele>265.0</ele><time>2026-05-04T17:18:21.949Z</time></trkpt><trkpt lat="41.3466274" lon="1.8476942"><ele>266.0</ele><time>2026-05-04T17:18:22.949Z</time></trkpt><trkpt lat="41.3465891" lon="1.8478484"><ele>267.0</ele><time>2026-05-04T17:18:23.949Z</time></trkpt><trkpt lat="41.3465559" lon="1.848008"><ele>268.0</ele><time>2026-05-04T17:18:24.949Z</time></trkpt><trkpt lat="41.3465327" lon="1.8481719"><ele>269.0</ele><time>2026-05-04T17:18:25.949Z</time></trkpt><trkpt lat="41.3465166" lon="1.8483422"><ele>270.0</ele><time>2026-05-04T17:18:26.949Z</time></trkpt><trkpt lat="41.3465083" lon="1.8485198"><ele>270.25</ele><time>2026-05-04T17:18:27.949Z</time></trkpt><trkpt lat="41.3465009" lon="1.8487012"><ele>270.5</ele><time>2026-05-04T17:18:28.948Z</time></trkpt><trkpt lat="41.3464932" lon="1.8488855"><ele>270.75</ele><time>2026-05-04T17:18:29.949Z</time></trkpt><trkpt lat="41.3464827" lon="1.8490705"><ele>271.0</ele><time>2026-05-04T17:18:30.949Z</time></trkpt><trkpt lat="41.346466" lon="1.849257"><ele>271.5</ele><time>2026-05-04T17:18:31.949Z</time></trkpt><trkpt lat="41.3464451" lon="1.8494456"><ele>272.0</ele><time>2026-05-04T17:18:32.948Z</time></trkpt><trkpt lat="41.3464232" lon="1.8496362"><ele>272.5</ele><time>2026-05-04T17:18:33.949Z</time></trkpt><trkpt lat="41.3464037" lon="1.8498262"><ele>273.0</ele><time>2026-05-04T17:18:34.948Z</time></trkpt><trkpt lat="41.3463859" lon="1.8500173"><ele>270.75</ele><time>2026-05-04T17:18:35.948Z</time></trkpt><trkpt lat="41.3463677" lon="1.8501993"><ele>268.5</ele><time>2026-05-04T17:18:36.949Z</time></trkpt><trkpt lat="41.346345" lon="1.8503843"><ele>266.25</ele><time>2026-05-04T17:18:37.949Z</time></trkpt><trkpt lat="41.3463249" lon="1.8505733"><ele>264.0</ele><time>2026-05-04T17:18:38.949Z</time></trkpt><trkpt lat="41.3463025" lon="1.8507608"><ele>264.0</ele><time>2026-05-04T17:18:39.948Z</time></trkpt><trkpt lat="41.3462777" lon="1.8509491"><ele>264.0</ele><time>2026-05-04T17:18:40.949Z</time></trkpt><trkpt lat="41.3462519" lon="1.8511336"><ele>264.0</ele><time>2026-05-04T17:18:41.949Z</time></trkpt><trkpt lat="41.3462325" lon="1.8513238"><ele>264.0</ele><time>2026-05-04T17:18:42.949Z</time></trkpt><trkpt lat="41.34621" lon="1.8515079"><ele>264.5</ele><time>2026-05-04T17:18:43.949Z</time></trkpt><trkpt lat="41.3461868" lon="1.8516882"><ele>265.0</ele><time>2026-05-04T17:18:44.949Z</time></trkpt><trkpt lat="41.346165" lon="1.8518705"><ele>265.5</ele><time>2026-05-04T17:18:45.949Z</time></trkpt><trkpt lat="41.3461411" lon="1.8520519"><ele>266.0</ele><time>2026-05-04T17:18:46.949Z</time></trkpt><trkpt lat="41.3461202" lon="1.8522355"><ele>267.0</ele><time>2026-05-04T17:18:47.949Z</time></trkpt><trkpt lat="41.3461022" lon="1.8524184"><ele>268.0</ele><time>2026-05-04T17:18:48.949Z</time></trkpt><trkpt lat="41.3460826" lon="1.8525964"><ele>269.0</ele><time>2026-05-04T17:18:49.949Z</time></trkpt><trkpt lat="41.3460616" lon="1.8527642"><ele>270.0</ele><time>2026-05-04T17:18:50.949Z</time></trkpt><trkpt lat="41.3460421" lon="1.8529277"><ele>270.25</ele><time>2026-05-04T17:18:51.949Z</time></trkpt><trkpt lat="41.3460224" lon="1.8530904"><ele>270.5</ele><time>2026-05-04T17:18:52.949Z</time></trkpt><trkpt lat="41.3460125" lon="1.8532588"><ele>270.75</ele><time>2026-05-04T17:18:53.949Z</time></trkpt><trkpt lat="41.346019" lon="1.853428"><ele>271.0</ele><time>2026-05-04T17:18:54.949Z</time></trkpt><trkpt lat="41.3460478" lon="1.8535989"><ele>271.0</ele><time>2026-05-04T17:18:55.948Z</time></trkpt><trkpt lat="41.3460806" lon="1.8537714"><ele>271.0</ele><time>2026-05-04T17:18:56.949Z</time></trkpt><trkpt lat="41.3461162" lon="1.8539487"><ele>271.0</ele><time>2026-05-04T17:18:57.949Z</time></trkpt><trkpt lat="41.3461596" lon="1.8541287"><ele>271.0</ele><time>2026-05-04T17:18:58.949Z</time></trkpt><trkpt lat="41.3462096" lon="1.8543086"><ele>270.0</ele><time>2026-05-04T17:18:59.949Z</time></trkpt><trkpt lat="41.3462667" lon="1.8544803"><ele>269.0</ele><time>2026-05-04T17:19:00.949Z</time></trkpt><trkpt lat="41.3463312" lon="1.8546496"><ele>268.0</ele><time>2026-05-04T17:19:01.949Z</time></trkpt><trkpt lat="41.3463981" lon="1.8548105"><ele>267.0</ele><time>2026-05-04T17:19:02.949Z</time></trkpt><trkpt lat="41.346467" lon="1.854968"><ele>269.25</ele><time>2026-05-04T17:19:03.949Z</time></trkpt><trkpt lat="41.3465313" lon="1.8551276"><ele>271.5</ele><time>2026-05-04T17:19:04.949Z</time></trkpt><trkpt lat="41.3465966" lon="1.8552804"><ele>273.75</ele><time>2026-05-04T17:19:05.949Z</time></trkpt><trkpt lat="41.3466647" lon="1.8554269"><ele>276.0</ele><time>2026-05-04T17:19:06.949Z</time></trkpt><trkpt lat="41.3467392" lon="1.8555642"><ele>276.0</ele><time>2026-05-04T17:19:07.949Z</time></trkpt><trkpt lat="41.3468151" lon="1.8556901"><ele>276.0</ele><time>2026-05-04T17:19:08.949Z</time></trkpt><trkpt lat="41.3468881" lon="1.8558168"><ele>276.0</ele><time>2026-05-04T17:19:09.949Z</time></trkpt><trkpt lat="41.3469503" lon="1.8559487"><ele>276.0</ele><time>2026-05-04T17:19:10.949Z</time></trkpt><trkpt lat="41.3469918" lon="1.8560903"><ele>277.75</ele><time>2026-05-04T17:19:11.949Z</time></trkpt><trkpt lat="41.3470146" lon="1.856241"><ele>279.5</ele><time>2026-05-04T17:19:12.949Z</time></trkpt><trkpt lat="41.3470272" lon="1.8563912"><ele>281.25</ele><time>2026-05-04T17:19:13.949Z</time></trkpt><trkpt lat="41.3470318" lon="1.8565439"><ele>283.0</ele><time>2026-05-04T17:19:14.949Z</time></trkpt><trkpt lat="41.3470184" lon="1.8566896"><ele>282.4</ele><time>2026-05-04T17:19:15.949Z</time></trkpt><trkpt lat="41.3469867" lon="1.8568288"><ele>281.8</ele><time>2026-05-04T17:19:16.949Z</time></trkpt><trkpt lat="41.3469445" lon="1.8569605"><ele>281.2</ele><time>2026-05-04T17:19:17.949Z</time></trkpt><trkpt lat="41.346896" lon="1.8570781"><ele>280.6</ele><time>2026-05-04T17:19:18.949Z</time></trkpt><trkpt lat="41.346834" lon="1.8571931"><ele>280.0</ele><time>2026-05-04T17:19:19.948Z</time></trkpt><trkpt lat="41.3467572" lon="1.8572935"><ele>280.0</ele><time>2026-05-04T17:19:20.949Z</time></trkpt><trkpt lat="41.3466712" lon="1.8573908"><ele>280.0</ele><time>2026-05-04T17:19:21.949Z</time></trkpt><trkpt lat="41.3465811" lon="1.8574881"><ele>280.0</ele><time>2026-05-04T17:19:22.949Z</time></trkpt><trkpt lat="41.3464878" lon="1.8575826"><ele>280.0</ele><time>2026-05-04T17:19:23.948Z</time></trkpt><trkpt lat="41.3463921" lon="1.8576763"><ele>280.5</ele><time>2026-05-04T17:19:24.949Z</time></trkpt><trkpt lat="41.3462934" lon="1.8577747"><ele>281.0</ele><time>2026-05-04T17:19:25.949Z</time></trkpt><trkpt lat="41.3461941" lon="1.8578715"><ele>281.5</ele><time>2026-05-04T17:19:26.949Z</time></trkpt><trkpt lat="41.3460902" lon="1.8579658"><ele>282.0</ele><time>2026-05-04T17:19:27.949Z</time></trkpt><trkpt lat="41.3459863" lon="1.8580514"><ele>282.0</ele><time>2026-05-04T17:19:28.949Z</time></trkpt><trkpt lat="41.345887" lon="1.8581166"><ele>282.0</ele><time>2026-05-04T17:19:29.949Z</time></trkpt><trkpt lat="41.3457806" lon="1.8581548"><ele>282.0</ele><time>2026-05-04T17:19:30.949Z</time></trkpt><trkpt lat="41.3456719" lon="1.8581568"><ele>282.0</ele><time>2026-05-04T17:19:31.949Z</time></trkpt><trkpt lat="41.3455667" lon="1.8581295"><ele>282.0</ele><time>2026-05-04T17:19:32.948Z</time></trkpt><trkpt lat="41.3454668" lon="1.8580681"><ele>281.0</ele><time>2026-05-04T17:19:33.949Z</time></trkpt><trkpt lat="41.3453728" lon="1.8579774"><ele>280.0</ele><time>2026-05-04T17:19:34.949Z</time></trkpt><trkpt lat="41.3452866" lon="1.8578649"><ele>279.0</ele><time>2026-05-04T17:19:35.949Z</time></trkpt><trkpt lat="41.3451982" lon="1.857747"><ele>278.0</ele><time>2026-05-04T17:19:36.948Z</time></trkpt><trkpt lat="41.3451054" lon="1.8576258"><ele>280.5</ele><time>2026-05-04T17:19:37.949Z</time></trkpt><trkpt lat="41.3450099" lon="1.8575191"><ele>283.0</ele><time>2026-05-04T17:19:38.949Z</time></trkpt><trkpt lat="41.3449061" lon="1.8574324"><ele>285.5</ele><time>2026-05-04T17:19:39.949Z</time></trkpt><trkpt lat="41.3447902" lon="1.8573682"><ele>288.0</ele><time>2026-05-04T17:19:40.949Z</time></trkpt><trkpt lat="41.3446663" lon="1.8573362"><ele>288.0</ele><time>2026-05-04T17:19:41.949Z</time></trkpt><trkpt lat="41.3445414" lon="1.8573194"><ele>288.0</ele><time>2026-05-04T17:19:42.95Z</time></trkpt><trkpt lat="41.344417" lon="1.8573092"><ele>288.0</ele><time>2026-05-04T17:19:43.95Z</time></trkpt><trkpt lat="41.3442893" lon="1.857317"><ele>288.0</ele><time>2026-05-04T17:19:44.95Z</time></trkpt><trkpt lat="41.3441614" lon="1.85734"><ele>288.0</ele><time>2026-05-04T17:19:45.95Z</time></trkpt><trkpt lat="41.3440387" lon="1.8573841"><ele>288.0</ele><time>2026-05-04T17:19:46.95Z</time></trkpt><trkpt lat="41.3439191" lon="1.8574372"><ele>288.0</ele><time>2026-05-04T17:19:47.95Z</time></trkpt><trkpt lat="41.3438031" lon="1.8575026"><ele>288.0</ele><time>2026-05-04T17:19:48.95Z</time></trkpt><trkpt lat="41.3436901" lon="1.8575779"><ele>288.0</ele><time>2026-05-04T17:19:49.95Z</time></trkpt><trkpt lat="41.343582" lon="1.8576571"><ele>288.0</ele><time>2026-05-04T17:19:50.95Z</time></trkpt><trkpt lat="41.3434734" lon="1.8577457"><ele>288.0</ele><time>2026-05-04T17:19:51.95Z</time></trkpt><trkpt lat="41.3433702" lon="1.8578545"><ele>288.0</ele><time>2026-05-04T17:19:52.95Z</time></trkpt><trkpt lat="41.3432789" lon="1.8579684"><ele>288.0</ele><time>2026-05-04T17:19:53.949Z</time></trkpt><trkpt lat="41.343189" lon="1.8580887"><ele>288.0</ele><time>2026-05-04T17:19:54.95Z</time></trkpt><trkpt lat="41.3431008" lon="1.8582122"><ele>288.0</ele><time>2026-05-04T17:19:55.95Z</time></trkpt><trkpt lat="41.3430088" lon="1.8583334"><ele>288.0</ele><time>2026-05-04T17:19:56.95Z</time></trkpt><trkpt lat="41.3429261" lon="1.8584539"><ele>288.0</ele><time>2026-05-04T17:19:57.95Z</time></trkpt><trkpt lat="41.3428453" lon="1.8585685"><ele>288.0</ele><time>2026-05-04T17:19:58.949Z</time></trkpt><trkpt lat="41.3427601" lon="1.8586799"><ele>288.0</ele><time>2026-05-04T17:19:59.95Z</time></trkpt><trkpt lat="41.3426744" lon="1.8587813"><ele>288.0</ele><time>2026-05-04T17:20:00.95Z</time></trkpt><trkpt lat="41.3425851" lon="1.8588548"><ele>288.0</ele><time>2026-05-04T17:20:01.95Z</time></trkpt><trkpt lat="41.3424998" lon="1.8588848"><ele>288.0</ele><time>2026-05-04T17:20:02.949Z</time></trkpt><trkpt lat="41.342414" lon="1.8588639"><ele>288.0</ele><time>2026-05-04T17:20:03.95Z</time></trkpt><trkpt lat="41.3423352" lon="1.8587958"><ele>288.0</ele><time>2026-05-04T17:20:04.95Z</time></trkpt><trkpt lat="41.3422714" lon="1.8586912"><ele>288.0</ele><time>2026-05-04T17:20:05.95Z</time></trkpt><trkpt lat="41.342202" lon="1.8585995"><ele>288.0</ele><time>2026-05-04T17:20:06.949Z</time></trkpt><trkpt lat="41.3421203" lon="1.8585393"><ele>288.0</ele><time>2026-05-04T17:20:07.949Z</time></trkpt><trkpt lat="41.3420201" lon="1.8585141"><ele>288.0</ele><time>2026-05-04T17:20:08.95Z</time></trkpt><trkpt lat="41.3419011" lon="1.8585273"><ele>288.0</ele><time>2026-05-04T17:20:09.95Z</time></trkpt><trkpt lat="41.3417715" lon="1.8585966"><ele>288.0</ele><time>2026-05-04T17:20:10.949Z</time></trkpt><trkpt lat="41.3416613" lon="1.8586615"><ele>288.0</ele><time>2026-05-04T17:20:11.95Z</time></trkpt><trkpt lat="41.3415517" lon="1.8587469"><ele>288.0</ele><time>2026-05-04T17:20:12.95Z</time></trkpt><trkpt lat="41.341443" lon="1.8588431"><ele>288.0</ele><time>2026-05-04T17:20:13.95Z</time></trkpt><trkpt lat="41.341331" lon="1.8589356"><ele>289.0</ele><time>2026-05-04T17:20:14.95Z</time></trkpt><trkpt lat="41.3412184" lon="1.8590303"><ele>290.0</ele><time>2026-05-04T17:20:15.949Z</time></trkpt><trkpt lat="41.3411056" lon="1.8591273"><ele>291.0</ele><time>2026-05-04T17:20:16.95Z</time></trkpt><trkpt lat="41.3409897" lon="1.8592242"><ele>292.0</ele><time>2026-05-04T17:20:17.95Z</time></trkpt><trkpt lat="41.3408746" lon="1.8593243"><ele>293.75</ele><time>2026-05-04T17:20:18.95Z</time></trkpt><trkpt lat="41.3407629" lon="1.8594235"><ele>295.5</ele><time>2026-05-04T17:20:19.95Z</time></trkpt><trkpt lat="41.3406603" lon="1.8595261"><ele>297.25</ele><time>2026-05-04T17:20:20.95Z</time></trkpt><trkpt lat="41.3405756" lon="1.8596302"><ele>299.0</ele><time>2026-05-04T17:20:21.95Z</time></trkpt><trkpt lat="41.3405036" lon="1.8597459"><ele>299.2</ele><time>2026-05-04T17:20:22.95Z</time></trkpt><trkpt lat="41.3404469" lon="1.8598566"><ele>299.4</ele><time>2026-05-04T17:20:23.949Z</time></trkpt><trkpt lat="41.3403899" lon="1.8599614"><ele>299.6</ele><time>2026-05-04T17:20:24.949Z</time></trkpt><trkpt lat="41.3403162" lon="1.8600351"><ele>299.8</ele><time>2026-05-04T17:20:25.95Z</time></trkpt><trkpt lat="41.340228" lon="1.8600615"><ele>300.0</ele><time>2026-05-04T17:20:26.95Z</time></trkpt><trkpt lat="41.3401363" lon="1.8600497"><ele>300.0</ele><time>2026-05-04T17:20:27.95Z</time></trkpt><trkpt lat="41.3400429" lon="1.8600176"><ele>300.0</ele><time>2026-05-04T17:20:28.949Z</time></trkpt><trkpt lat="41.3399528" lon="1.8599747"><ele>300.0</ele><time>2026-05-04T17:20:29.95Z</time></trkpt><trkpt lat="41.3398592" lon="1.859927"><ele>300.0</ele><time>2026-05-04T17:20:30.949Z</time></trkpt><trkpt lat="41.3397607" lon="1.8598776"><ele>300.0</ele><time>2026-05-04T17:20:31.95Z</time></trkpt><trkpt lat="41.3396585" lon="1.8598296"><ele>300.5</ele><time>2026-05-04T17:20:32.95Z</time></trkpt><trkpt lat="41.3395547" lon="1.8597791"><ele>301.0</ele><time>2026-05-04T17:20:33.95Z</time></trkpt><trkpt lat="41.3394481" lon="1.8597305"><ele>301.5</ele><time>2026-05-04T17:20:34.95Z</time></trkpt><trkpt lat="41.3393366" lon="1.8596866"><ele>302.0</ele><time>2026-05-04T17:20:35.95Z</time></trkpt><trkpt lat="41.3392218" lon="1.859659"><ele>302.0</ele><time>2026-05-04T17:20:36.95Z</time></trkpt><trkpt lat="41.3391071" lon="1.8596599"><ele>302.0</ele><time>2026-05-04T17:20:37.95Z</time></trkpt><trkpt lat="41.3389941" lon="1.8596888"><ele>302.0</ele><time>2026-05-04T17:20:38.95Z</time></trkpt><trkpt lat="41.3388919" lon="1.8597534"><ele>302.0</ele><time>2026-05-04T17:20:39.95Z</time></trkpt><trkpt lat="41.3387891" lon="1.8598633"><ele>302.0</ele><time>2026-05-04T17:20:40.95Z</time></trkpt><trkpt lat="41.338705" lon="1.8599764"><ele>302.0</ele><time>2026-05-04T17:20:41.95Z</time></trkpt><trkpt lat="41.338621" lon="1.8600974"><ele>302.0</ele><time>2026-05-04T17:20:42.95Z</time></trkpt><trkpt lat="41.3385405" lon="1.8602229"><ele>302.0</ele><time>2026-05-04T17:20:43.949Z</time></trkpt><trkpt lat="41.3384592" lon="1.8603497"><ele>302.0</ele><time>2026-05-04T17:20:44.95Z</time></trkpt><trkpt lat="41.3383778" lon="1.860478"><ele>302.0</ele><time>2026-05-04T17:20:45.95Z</time></trkpt><trkpt lat="41.3383067" lon="1.8606174"><ele>302.0</ele><time>2026-05-04T17:20:46.95Z</time></trkpt><trkpt lat="41.3382485" lon="1.8607686"><ele>302.0</ele><time>2026-05-04T17:20:47.95Z</time></trkpt><trkpt lat="41.3381897" lon="1.8609186"><ele>301.0</ele><time>2026-05-04T17:20:48.95Z</time></trkpt><trkpt lat="41.338131" lon="1.861073"><ele>300.0</ele><time>2026-05-04T17:20:49.95Z</time></trkpt><trkpt lat="41.3380666" lon="1.8612238"><ele>299.0</ele><time>2026-05-04T17:20:50.95Z</time></trkpt><trkpt lat="41.3379911" lon="1.8613671"><ele>298.0</ele><time>2026-05-04T17:20:51.95Z</time></trkpt><trkpt lat="41.3379056" lon="1.8615044"><ele>298.0</ele><time>2026-05-04T17:20:52.95Z</time></trkpt><trkpt lat="41.3378205" lon="1.8616417"><ele>298.0</ele><time>2026-05-04T17:20:53.95Z</time></trkpt><trkpt lat="41.3377308" lon="1.8617765"><ele>298.0</ele><time>2026-05-04T17:20:54.95Z</time></trkpt><trkpt lat="41.3376399" lon="1.8619132"><ele>298.0</ele><time>2026-05-04T17:20:55.95Z</time></trkpt><trkpt lat="41.3375525" lon="1.8620448"><ele>299.25</ele><time>2026-05-04T17:20:56.95Z</time></trkpt><trkpt lat="41.3374654" lon="1.8621767"><ele>300.5</ele><time>2026-05-04T17:20:57.95Z</time></trkpt><trkpt lat="41.3373775" lon="1.8623086"><ele>301.75</ele><time>2026-05-04T17:20:58.95Z</time></trkpt><trkpt lat="41.3372919" lon="1.8624398"><ele>303.0</ele><time>2026-05-04T17:20:59.95Z</time></trkpt><trkpt lat="41.3372122" lon="1.862573"><ele>304.75</ele><time>2026-05-04T17:21:00.95Z</time></trkpt><trkpt lat="41.3371339" lon="1.8627036"><ele>306.5</ele><time>2026-05-04T17:21:01.949Z</time></trkpt><trkpt lat="41.3370578" lon="1.8628285"><ele>308.25</ele><time>2026-05-04T17:21:02.95Z</time></trkpt><trkpt lat="41.3369785" lon="1.8629471"><ele>310.0</ele><time>2026-05-04T17:21:03.95Z</time></trkpt><trkpt lat="41.3368952" lon="1.8630584"><ele>310.0</ele><time>2026-05-04T17:21:04.95Z</time></trkpt><trkpt lat="41.3368031" lon="1.863161"><ele>310.0</ele><time>2026-05-04T17:21:05.95Z</time></trkpt><trkpt lat="41.3367062" lon="1.8632457"><ele>310.0</ele><time>2026-05-04T17:21:06.95Z</time></trkpt><trkpt lat="41.3365953" lon="1.8633071"><ele>310.0</ele><time>2026-05-04T17:21:07.95Z</time></trkpt><trkpt lat="41.3364777" lon="1.8633459"><ele>309.25</ele><time>2026-05-04T17:21:08.949Z</time></trkpt><trkpt lat="41.3363544" lon="1.8633571"><ele>308.5</ele><time>2026-05-04T17:21:09.95Z</time></trkpt><trkpt lat="41.3362292" lon="1.863349"><ele>307.75</ele><time>2026-05-04T17:21:10.949Z</time></trkpt><trkpt lat="41.3361045" lon="1.8633179"><ele>307.0</ele><time>2026-05-04T17:21:11.95Z</time></trkpt><trkpt lat="41.3359824" lon="1.8632624"><ele>307.0</ele><time>2026-05-04T17:21:12.95Z</time></trkpt><trkpt lat="41.3358636" lon="1.8631887"><ele>307.0</ele><time>2026-05-04T17:21:13.95Z</time></trkpt><trkpt lat="41.3357466" lon="1.8631061"><ele>307.0</ele><time>2026-05-04T17:21:14.95Z</time></trkpt><trkpt lat="41.3356281" lon="1.8630254"><ele>307.0</ele><time>2026-05-04T17:21:15.95Z</time></trkpt><trkpt lat="41.3355088" lon="1.8629389"><ele>307.5</ele><time>2026-05-04T17:21:16.95Z</time></trkpt><trkpt lat="41.3353946" lon="1.8628393"><ele>308.0</ele><time>2026-05-04T17:21:17.95Z</time></trkpt><trkpt lat="41.3352818" lon="1.8627389"><ele>308.5</ele><time>2026-05-04T17:21:18.95Z</time></trkpt><trkpt lat="41.3351708" lon="1.8626519"><ele>309.0</ele><time>2026-05-04T17:21:19.95Z</time></trkpt><trkpt lat="41.3350602" lon="1.8625815"><ele>308.0</ele><time>2026-05-04T17:21:20.949Z</time></trkpt><trkpt lat="41.334939" lon="1.8625457"><ele>307.0</ele><time>2026-05-04T17:21:21.95Z</time></trkpt><trkpt lat="41.334817" lon="1.8625384"><ele>306.0</ele><time>2026-05-04T17:21:22.949Z</time></trkpt><trkpt lat="41.3346983" lon="1.8625583"><ele>305.0</ele><time>2026-05-04T17:21:23.95Z</time></trkpt><trkpt lat="41.3345823" lon="1.8626068"><ele>305.5</ele><time>2026-05-04T17:21:24.949Z</time></trkpt><trkpt lat="41.3344766" lon="1.8626815"><ele>306.0</ele><time>2026-05-04T17:21:25.949Z</time></trkpt><trkpt lat="41.33438" lon="1.8627799"><ele>306.5</ele><time>2026-05-04T17:21:26.95Z</time></trkpt><trkpt lat="41.3342971" lon="1.8629011"><ele>307.0</ele><time>2026-05-04T17:21:27.949Z</time></trkpt><trkpt lat="41.3342328" lon="1.8630403"><ele>307.0</ele><time>2026-05-04T17:21:28.95Z</time></trkpt><trkpt lat="41.3341883" lon="1.8631952"><ele>307.0</ele><time>2026-05-04T17:21:29.95Z</time></trkpt><trkpt lat="41.3341549" lon="1.8633583"><ele>307.0</ele><time>2026-05-04T17:21:30.95Z</time></trkpt><trkpt lat="41.334147" lon="1.8635218"><ele>307.0</ele><time>2026-05-04T17:21:31.95Z</time></trkpt><trkpt lat="41.3341607" lon="1.8636879"><ele>307.0</ele><time>2026-05-04T17:21:32.95Z</time></trkpt><trkpt lat="41.3341838" lon="1.8638545"><ele>307.0</ele><time>2026-05-04T17:21:33.949Z</time></trkpt><trkpt lat="41.3342159" lon="1.8640204"><ele>307.0</ele><time>2026-05-04T17:21:34.949Z</time></trkpt><trkpt lat="41.3342578" lon="1.8641863"><ele>307.0</ele><time>2026-05-04T17:21:35.95Z</time></trkpt><trkpt lat="41.3343077" lon="1.8643519"><ele>307.0</ele><time>2026-05-04T17:21:36.95Z</time></trkpt><trkpt lat="41.3343633" lon="1.864516"><ele>307.0</ele><time>2026-05-04T17:21:37.95Z</time></trkpt><trkpt lat="41.3344336" lon="1.8646658"><ele>307.0</ele><time>2026-05-04T17:21:38.95Z</time></trkpt><trkpt lat="41.3345126" lon="1.8648099"><ele>307.0</ele><time>2026-05-04T17:21:39.949Z</time></trkpt><trkpt lat="41.3345945" lon="1.8649549"><ele>307.0</ele><time>2026-05-04T17:21:40.95Z</time></trkpt><trkpt lat="41.3346758" lon="1.8651002"><ele>307.0</ele><time>2026-05-04T17:21:41.95Z</time></trkpt><trkpt lat="41.3347529" lon="1.8652437"><ele>307.0</ele><time>2026-05-04T17:21:42.95Z</time></trkpt><trkpt lat="41.33482" lon="1.8653942"><ele>307.0</ele><time>2026-05-04T17:21:43.95Z</time></trkpt><trkpt lat="41.334869" lon="1.8655519"><ele>309.75</ele><time>2026-05-04T17:21:44.95Z</time></trkpt><trkpt lat="41.3349052" lon="1.8657233"><ele>312.5</ele><time>2026-05-04T17:21:45.949Z</time></trkpt><trkpt lat="41.3349324" lon="1.865892"><ele>315.25</ele><time>2026-05-04T17:21:46.949Z</time></trkpt><trkpt lat="41.3349512" lon="1.8660633"><ele>318.0</ele><time>2026-05-04T17:21:47.95Z</time></trkpt><trkpt lat="41.3349651" lon="1.8662365"><ele>318.0</ele><time>2026-05-04T17:21:48.95Z</time></trkpt><trkpt lat="41.3349796" lon="1.8664089"><ele>318.0</ele><time>2026-05-04T17:21:49.95Z</time></trkpt><trkpt lat="41.3349907" lon="1.8665803"><ele>318.0</ele><time>2026-05-04T17:21:50.949Z</time></trkpt><trkpt lat="41.3349932" lon="1.8667523"><ele>318.0</ele><time>2026-05-04T17:21:51.95Z</time></trkpt><trkpt lat="41.3349914" lon="1.8669224"><ele>317.75</ele><time>2026-05-04T17:21:52.95Z</time></trkpt><trkpt lat="41.3349862" lon="1.8670885"><ele>317.5</ele><time>2026-05-04T17:21:53.95Z</time></trkpt><trkpt lat="41.3349738" lon="1.8672598"><ele>317.25</ele><time>2026-05-04T17:21:54.95Z</time></trkpt><trkpt lat="41.3349494" lon="1.867433"><ele>317.0</ele><time>2026-05-04T17:21:55.95Z</time></trkpt><trkpt lat="41.3349147" lon="1.8676075"><ele>317.5</ele><time>2026-05-04T17:21:56.95Z</time></trkpt><trkpt lat="41.3348779" lon="1.8677873"><ele>318.0</ele><time>2026-05-04T17:21:57.949Z</time></trkpt><trkpt lat="41.3348403" lon="1.8679691"><ele>318.5</ele><time>2026-05-04T17:21:58.95Z</time></trkpt><trkpt lat="41.3348043" lon="1.8681499"><ele>319.0</ele><time>2026-05-04T17:21:59.95Z</time></trkpt><trkpt lat="41.3347652" lon="1.8683362"><ele>319.75</ele><time>2026-05-04T17:22:00.95Z</time></trkpt><trkpt lat="41.3347259" lon="1.8685214"><ele>320.5</ele><time>2026-05-04T17:22:01.95Z</time></trkpt><trkpt lat="41.3346844" lon="1.868709"><ele>321.25</ele><time>2026-05-04T17:22:02.95Z</time></trkpt><trkpt lat="41.334639" lon="1.8688984"><ele>322.0</ele><time>2026-05-04T17:22:03.95Z</time></trkpt><trkpt lat="41.334579" lon="1.8690797"><ele>321.0</ele><time>2026-05-04T17:22:04.95Z</time></trkpt><trkpt lat="41.3345052" lon="1.8692509"><ele>320.0</ele><time>2026-05-04T17:22:05.95Z</time></trkpt><trkpt lat="41.3344255" lon="1.869414"><ele>319.0</ele><time>2026-05-04T17:22:06.95Z</time></trkpt><trkpt lat="41.3343404" lon="1.8695736"><ele>318.0</ele><time>2026-05-04T17:22:07.95Z</time></trkpt><trkpt lat="41.334253" lon="1.8697338"><ele>318.0</ele><time>2026-05-04T17:22:08.95Z</time></trkpt><trkpt lat="41.3341661" lon="1.869893"><ele>318.0</ele><time>2026-05-04T17:22:09.949Z</time></trkpt><trkpt lat="41.3340818" lon="1.8700517"><ele>318.0</ele><time>2026-05-04T17:22:10.95Z</time></trkpt><trkpt lat="41.3340068" lon="1.8702142"><ele>318.0</ele><time>2026-05-04T17:22:11.95Z</time></trkpt><trkpt lat="41.3339455" lon="1.8703863"><ele>318.75</ele><time>2026-05-04T17:22:12.949Z</time></trkpt><trkpt lat="41.3339008" lon="1.8705675"><ele>319.5</ele><time>2026-05-04T17:22:13.95Z</time></trkpt><trkpt lat="41.3338666" lon="1.8707523"><ele>320.25</ele><time>2026-05-04T17:22:14.95Z</time></trkpt><trkpt lat="41.3338391" lon="1.8709384"><ele>321.0</ele><time>2026-05-04T17:22:15.95Z</time></trkpt><trkpt lat="41.3338192" lon="1.8711067"><ele>319.0</ele><time>2026-05-04T17:22:16.95Z</time></trkpt><trkpt lat="41.33381" lon="1.8712611"><ele>317.0</ele><time>2026-05-04T17:22:17.95Z</time></trkpt><trkpt lat="41.3338195" lon="1.87141"><ele>315.0</ele><time>2026-05-04T17:22:18.95Z</time></trkpt><trkpt lat="41.3338599" lon="1.8715515"><ele>313.0</ele><time>2026-05-04T17:22:19.949Z</time></trkpt><trkpt lat="41.3339312" lon="1.8716835"><ele>313.5</ele><time>2026-05-04T17:22:20.95Z</time></trkpt><trkpt lat="41.334011" lon="1.8718107"><ele>314.0</ele><time>2026-05-04T17:22:21.95Z</time></trkpt><trkpt lat="41.3341006" lon="1.8719386"><ele>314.5</ele><time>2026-05-04T17:22:22.95Z</time></trkpt><trkpt lat="41.334199" lon="1.8720616"><ele>315.0</ele><time>2026-05-04T17:22:23.95Z</time></trkpt><trkpt lat="41.3343087" lon="1.8721732"><ele>315.0</ele><time>2026-05-04T17:22:24.95Z</time></trkpt><trkpt lat="41.3344252" lon="1.8722764"><ele>315.0</ele><time>2026-05-04T17:22:25.95Z</time></trkpt><trkpt lat="41.3345429" lon="1.8723826"><ele>315.0</ele><time>2026-05-04T17:22:26.951Z</time></trkpt><trkpt lat="41.3346565" lon="1.872488"><ele>315.0</ele><time>2026-05-04T17:22:27.951Z</time></trkpt><trkpt lat="41.3347628" lon="1.8725867"><ele>316.75</ele><time>2026-05-04T17:22:28.951Z</time></trkpt><trkpt lat="41.3348683" lon="1.872692"><ele>318.5</ele><time>2026-05-04T17:22:29.951Z</time></trkpt><trkpt lat="41.3349638" lon="1.8728129"><ele>320.25</ele><time>2026-05-04T17:22:30.951Z</time></trkpt><trkpt lat="41.335044" lon="1.8729537"><ele>322.0</ele><time>2026-05-04T17:22:31.951Z</time></trkpt><trkpt lat="41.3351101" lon="1.8731083"><ele>322.0</ele><time>2026-05-04T17:22:32.951Z</time></trkpt><trkpt lat="41.335163" lon="1.8732742"><ele>322.0</ele><time>2026-05-04T17:22:33.95Z</time></trkpt><trkpt lat="41.3352051" lon="1.873445"><ele>322.0</ele><time>2026-05-04T17:22:34.951Z</time></trkpt><trkpt lat="41.3352378" lon="1.8736209"><ele>322.0</ele><time>2026-05-04T17:22:35.951Z</time></trkpt><trkpt lat="41.3352655" lon="1.8737966"><ele>323.0</ele><time>2026-05-04T17:22:36.951Z</time></trkpt><trkpt lat="41.3352905" lon="1.873972"><ele>324.0</ele><time>2026-05-04T17:22:37.95Z</time></trkpt><trkpt lat="41.3353144" lon="1.8741462"><ele>325.0</ele><time>2026-05-04T17:22:38.951Z</time></trkpt><trkpt lat="41.3353341" lon="1.8743209"><ele>326.0</ele><time>2026-05-04T17:22:39.951Z</time></trkpt><trkpt lat="41.3353396" lon="1.8744953"><ele>326.75</ele><time>2026-05-04T17:22:40.951Z</time></trkpt><trkpt lat="41.3353321" lon="1.8746697"><ele>327.5</ele><time>2026-05-04T17:22:41.951Z</time></trkpt><trkpt lat="41.3353163" lon="1.8748421"><ele>328.25</ele><time>2026-05-04T17:22:42.951Z</time></trkpt><trkpt lat="41.3353034" lon="1.8750152"><ele>329.0</ele><time>2026-05-04T17:22:43.951Z</time></trkpt><trkpt lat="41.3352966" lon="1.8751874"><ele>329.75</ele><time>2026-05-04T17:22:44.951Z</time></trkpt><trkpt lat="41.3353032" lon="1.8753565"><ele>330.5</ele><time>2026-05-04T17:22:45.951Z</time></trkpt><trkpt lat="41.3353277" lon="1.8755258"><ele>331.25</ele><time>2026-05-04T17:22:46.951Z</time></trkpt><trkpt lat="41.335363" lon="1.8756912"><ele>332.0</ele><time>2026-05-04T17:22:47.951Z</time></trkpt><trkpt lat="41.335401" lon="1.8758544"><ele>333.0</ele><time>2026-05-04T17:22:48.951Z</time></trkpt><trkpt lat="41.3354432" lon="1.8760162"><ele>334.0</ele><time>2026-05-04T17:22:49.95Z</time></trkpt><trkpt lat="41.3354696" lon="1.8761666"><ele>335.0</ele><time>2026-05-04T17:22:50.951Z</time></trkpt><trkpt lat="41.3354715" lon="1.8762978"><ele>336.0</ele><time>2026-05-04T17:22:51.95Z</time></trkpt><trkpt lat="41.3354455" lon="1.8764134"><ele>337.0</ele><time>2026-05-04T17:22:52.951Z</time></trkpt><trkpt lat="41.335391" lon="1.8765221"><ele>337.0</ele><time>2026-05-04T17:22:53.95Z</time></trkpt><trkpt lat="41.3353228" lon="1.8766163"><ele>337.0</ele><time>2026-05-04T17:22:54.95Z</time></trkpt><trkpt lat="41.3352457" lon="1.8767109"><ele>337.0</ele><time>2026-05-04T17:22:55.951Z</time></trkpt><trkpt lat="41.335166" lon="1.8768121"><ele>337.0</ele><time>2026-05-04T17:22:56.95Z</time></trkpt><trkpt lat="41.3350731" lon="1.8769074"><ele>337.0</ele><time>2026-05-04T17:22:57.951Z</time></trkpt><trkpt lat="41.3349732" lon="1.8770023"><ele>337.0</ele><time>2026-05-04T17:22:58.951Z</time></trkpt><trkpt lat="41.3348652" lon="1.8771038"><ele>337.0</ele><time>2026-05-04T17:22:59.951Z</time></trkpt><trkpt lat="41.3347533" lon="1.877207"><ele>337.0</ele><time>2026-05-04T17:23:00.951Z</time></trkpt><trkpt lat="41.3346418" lon="1.8773125"><ele>337.0</ele><time>2026-05-04T17:23:01.951Z</time></trkpt><trkpt lat="41.3345406" lon="1.8774145"><ele>337.0</ele><time>2026-05-04T17:23:02.951Z</time></trkpt><trkpt lat="41.3344549" lon="1.8775297"><ele>337.0</ele><time>2026-05-04T17:23:03.951Z</time></trkpt><trkpt lat="41.3343961" lon="1.8776647"><ele>337.0</ele><time>2026-05-04T17:23:04.951Z</time></trkpt><trkpt lat="41.3343674" lon="1.8778184"><ele>337.0</ele><time>2026-05-04T17:23:05.95Z</time></trkpt><trkpt lat="41.3343732" lon="1.8779838"><ele>337.0</ele><time>2026-05-04T17:23:06.951Z</time></trkpt><trkpt lat="41.3343896" lon="1.8781575"><ele>337.0</ele><time>2026-05-04T17:23:07.951Z</time></trkpt><trkpt lat="41.3344119" lon="1.8783344"><ele>337.0</ele><time>2026-05-04T17:23:08.951Z</time></trkpt><trkpt lat="41.3344272" lon="1.8785184"><ele>337.0</ele><time>2026-05-04T17:23:09.951Z</time></trkpt><trkpt lat="41.3344437" lon="1.8787049"><ele>337.25</ele><time>2026-05-04T17:23:10.951Z</time></trkpt><trkpt lat="41.3344611" lon="1.8788831"><ele>337.5</ele><time>2026-05-04T17:23:11.951Z</time></trkpt><trkpt lat="41.3344744" lon="1.8790638"><ele>337.75</ele><time>2026-05-04T17:23:12.95Z</time></trkpt><trkpt lat="41.3344854" lon="1.8792492"><ele>338.0</ele><time>2026-05-04T17:23:13.951Z</time></trkpt><trkpt lat="41.3344973" lon="1.8794186"><ele>337.25</ele><time>2026-05-04T17:23:14.951Z</time></trkpt><trkpt lat="41.3345172" lon="1.8795793"><ele>336.5</ele><time>2026-05-04T17:23:15.951Z</time></trkpt><trkpt lat="41.3345536" lon="1.879743"><ele>335.75</ele><time>2026-05-04T17:23:16.951Z</time></trkpt><trkpt lat="41.3346106" lon="1.8799023"><ele>335.0</ele><time>2026-05-04T17:23:17.951Z</time></trkpt><trkpt lat="41.3346827" lon="1.880047"><ele>335.5</ele><time>2026-05-04T17:23:18.951Z</time></trkpt><trkpt lat="41.3347535" lon="1.8801802"><ele>336.0</ele><time>2026-05-04T17:23:19.951Z</time></trkpt><trkpt lat="41.3348087" lon="1.8803139"><ele>336.5</ele><time>2026-05-04T17:23:20.951Z</time></trkpt><trkpt lat="41.3348306" lon="1.8804667"><ele>337.0</ele><time>2026-05-04T17:23:21.951Z</time></trkpt><trkpt lat="41.3348207" lon="1.8806232"><ele>337.0</ele><time>2026-05-04T17:23:22.951Z</time></trkpt><trkpt lat="41.334782" lon="1.8807692"><ele>337.0</ele><time>2026-05-04T17:23:23.951Z</time></trkpt><trkpt lat="41.3347318" lon="1.8809077"><ele>337.0</ele><time>2026-05-04T17:23:24.951Z</time></trkpt><trkpt lat="41.3346877" lon="1.8810485"><ele>337.0</ele><time>2026-05-04T17:23:25.951Z</time></trkpt><trkpt lat="41.3346455" lon="1.8811901"><ele>336.5</ele><time>2026-05-04T17:23:26.951Z</time></trkpt><trkpt lat="41.3346005" lon="1.8813307"><ele>336.0</ele><time>2026-05-04T17:23:27.951Z</time></trkpt><trkpt lat="41.3345561" lon="1.8814723"><ele>335.5</ele><time>2026-05-04T17:23:28.951Z</time></trkpt><trkpt lat="41.3345122" lon="1.8816161"><ele>335.0</ele><time>2026-05-04T17:23:29.951Z</time></trkpt><trkpt lat="41.3344715" lon="1.8817601"><ele>335.5</ele><time>2026-05-04T17:23:30.951Z</time></trkpt><trkpt lat="41.3344414" lon="1.8819103"><ele>336.0</ele><time>2026-05-04T17:23:31.951Z</time></trkpt><trkpt lat="41.3344173" lon="1.882064"><ele>336.5</ele><time>2026-05-04T17:23:32.951Z</time></trkpt><trkpt lat="41.3344007" lon="1.8822214"><ele>337.0</ele><time>2026-05-04T17:23:33.95Z</time></trkpt><trkpt lat="41.3343998" lon="1.8823806"><ele>337.0</ele><time>2026-05-04T17:23:34.951Z</time></trkpt><trkpt lat="41.3344104" lon="1.8825423"><ele>337.0</ele><time>2026-05-04T17:23:35.951Z</time></trkpt><trkpt lat="41.3344432" lon="1.8826991"><ele>337.0</ele><time>2026-05-04T17:23:36.951Z</time></trkpt><trkpt lat="41.3345028" lon="1.8828393"><ele>337.0</ele><time>2026-05-04T17:23:37.951Z</time></trkpt><trkpt lat="41.3345847" lon="1.8829621"><ele>336.25</ele><time>2026-05-04T17:23:38.951Z</time></trkpt><trkpt lat="41.3346805" lon="1.8830714"><ele>335.5</ele><time>2026-05-04T17:23:39.951Z</time></trkpt><trkpt lat="41.3347859" lon="1.883171"><ele>334.75</ele><time>2026-05-04T17:23:40.95Z</time></trkpt><trkpt lat="41.3348979" lon="1.8832674"><ele>334.0</ele><time>2026-05-04T17:23:41.95Z</time></trkpt><trkpt lat="41.335013" lon="1.8833659"><ele>335.25</ele><time>2026-05-04T17:23:42.951Z</time></trkpt><trkpt lat="41.3351278" lon="1.8834678"><ele>336.5</ele><time>2026-05-04T17:23:43.951Z</time></trkpt><trkpt lat="41.335243" lon="1.8835703"><ele>337.75</ele><time>2026-05-04T17:23:44.951Z</time></trkpt><trkpt lat="41.3353506" lon="1.8836847"><ele>339.0</ele><time>2026-05-04T17:23:45.95Z</time></trkpt><trkpt lat="41.3354453" lon="1.8838094"><ele>339.0</ele><time>2026-05-04T17:23:46.951Z</time></trkpt><trkpt lat="41.3355311" lon="1.8839458"><ele>339.0</ele><time>2026-05-04T17:23:47.951Z</time></trkpt><trkpt lat="41.3356084" lon="1.8840944"><ele>339.0</ele><time>2026-05-04T17:23:48.951Z</time></trkpt><trkpt lat="41.335683" lon="1.8842459"><ele>339.0</ele><time>2026-05-04T17:23:49.951Z</time></trkpt><trkpt lat="41.3357547" lon="1.8843975"><ele>340.75</ele><time>2026-05-04T17:23:50.951Z</time></trkpt><trkpt lat="41.335817" lon="1.8845588"><ele>342.5</ele><time>2026-05-04T17:23:51.951Z</time></trkpt><trkpt lat="41.3358674" lon="1.8847196"><ele>344.25</ele><time>2026-05-04T17:23:52.951Z</time></trkpt><trkpt lat="41.3359153" lon="1.8848745"><ele>346.0</ele><time>2026-05-04T17:23:53.951Z</time></trkpt><trkpt lat="41.3359669" lon="1.8850288"><ele>345.75</ele><time>2026-05-04T17:23:54.951Z</time></trkpt><trkpt lat="41.3360116" lon="1.885187"><ele>345.5</ele><time>2026-05-04T17:23:55.951Z</time></trkpt><trkpt lat="41.3360461" lon="1.8853531"><ele>345.25</ele><time>2026-05-04T17:23:56.951Z</time></trkpt><trkpt lat="41.3360597" lon="1.8855229"><ele>345.0</ele><time>2026-05-04T17:23:57.951Z</time></trkpt><trkpt lat="41.3360498" lon="1.8856941"><ele>345.0</ele><time>2026-05-04T17:23:58.951Z</time></trkpt><trkpt lat="41.336028" lon="1.885864"><ele>345.0</ele><time>2026-05-04T17:23:59.951Z</time></trkpt><trkpt lat="41.3360011" lon="1.8860321"><ele>345.0</ele><time>2026-05-04T17:24:00.951Z</time></trkpt><trkpt lat="41.3359915" lon="1.8861889"><ele>345.0</ele><time>2026-05-04T17:24:01.951Z</time></trkpt><trkpt lat="41.3359908" lon="1.8863523"><ele>344.5</ele><time>2026-05-04T17:24:02.951Z</time></trkpt><trkpt lat="41.3360107" lon="1.8865097"><ele>344.0</ele><time>2026-05-04T17:24:03.951Z</time></trkpt><trkpt lat="41.3360511" lon="1.8866578"><ele>343.5</ele><time>2026-05-04T17:24:04.951Z</time></trkpt><trkpt lat="41.3361198" lon="1.8867875"><ele>343.0</ele><time>2026-05-04T17:24:05.951Z</time></trkpt><trkpt lat="41.3362103" lon="1.8868978"><ele>342.75</ele><time>2026-05-04T17:24:06.951Z</time></trkpt><trkpt lat="41.3363158" lon="1.8869921"><ele>342.5</ele><time>2026-05-04T17:24:07.951Z</time></trkpt><trkpt lat="41.3364289" lon="1.8870829"><ele>342.25</ele><time>2026-05-04T17:24:08.951Z</time></trkpt><trkpt lat="41.3365451" lon="1.8871718"><ele>342.0</ele><time>2026-05-04T17:24:09.951Z</time></trkpt><trkpt lat="41.3366586" lon="1.8872738"><ele>342.25</ele><time>2026-05-04T17:24:10.951Z</time></trkpt><trkpt lat="41.3367662" lon="1.887395"><ele>342.5</ele><time>2026-05-04T17:24:11.951Z</time></trkpt><trkpt lat="41.3368578" lon="1.8875346"><ele>342.75</ele><time>2026-05-04T17:24:12.951Z</time></trkpt><trkpt lat="41.3369358" lon="1.8876944"><ele>343.0</ele><time>2026-05-04T17:24:13.951Z</time></trkpt><trkpt lat="41.3369993" lon="1.8878663"><ele>343.0</ele><time>2026-05-04T17:24:14.95Z</time></trkpt><trkpt lat="41.3370543" lon="1.8880467"><ele>343.0</ele><time>2026-05-04T17:24:15.951Z</time></trkpt><trkpt lat="41.3371022" lon="1.8882305"><ele>343.0</ele><time>2026-05-04T17:24:16.951Z</time></trkpt><trkpt lat="41.3371478" lon="1.8884158"><ele>343.0</ele><time>2026-05-04T17:24:17.951Z</time></trkpt><trkpt lat="41.3371962" lon="1.8886014"><ele>345.5</ele><time>2026-05-04T17:24:18.95Z</time></trkpt><trkpt lat="41.3372418" lon="1.8887838"><ele>348.0</ele><time>2026-05-04T17:24:19.951Z</time></trkpt><trkpt lat="41.3372922" lon="1.8889646"><ele>350.5</ele><time>2026-05-04T17:24:20.951Z</time></trkpt><trkpt lat="41.3373407" lon="1.8891444"><ele>353.0</ele><time>2026-05-04T17:24:21.951Z</time></trkpt><trkpt lat="41.3373912" lon="1.8893252"><ele>353.25</ele><time>2026-05-04T17:24:22.951Z</time></trkpt><trkpt lat="41.3374366" lon="1.8895077"><ele>353.5</ele><time>2026-05-04T17:24:23.95Z</time></trkpt><trkpt lat="41.3374821" lon="1.8896903"><ele>353.75</ele><time>2026-05-04T17:24:24.951Z</time></trkpt><trkpt lat="41.3375279" lon="1.889872"><ele>354.0</ele><time>2026-05-04T17:24:25.951Z</time></trkpt><trkpt lat="41.3375726" lon="1.890055"><ele>353.5</ele><time>2026-05-04T17:24:26.95Z</time></trkpt><trkpt lat="41.3376201" lon="1.8902371"><ele>353.0</ele><time>2026-05-04T17:24:27.951Z</time></trkpt><trkpt lat="41.3376697" lon="1.8904171"><ele>352.5</ele><time>2026-05-04T17:24:28.951Z</time></trkpt><trkpt lat="41.3377097" lon="1.8906033"><ele>352.0</ele><time>2026-05-04T17:24:29.95Z</time></trkpt><trkpt lat="41.3377459" lon="1.8907895"><ele>351.75</ele><time>2026-05-04T17:24:30.951Z</time></trkpt><trkpt lat="41.3377705" lon="1.890976"><ele>351.5</ele><time>2026-05-04T17:24:31.951Z</time></trkpt><trkpt lat="41.3377841" lon="1.8911661"><ele>351.25</ele><time>2026-05-04T17:24:32.951Z</time></trkpt><trkpt lat="41.3377874" lon="1.8913569"><ele>351.0</ele><time>2026-05-04T17:24:33.951Z</time></trkpt><trkpt lat="41.3377864" lon="1.8915426"><ele>351.0</ele><time>2026-05-04T17:24:34.951Z</time></trkpt><trkpt lat="41.3377868" lon="1.891729"><ele>351.0</ele><time>2026-05-04T17:24:35.951Z</time></trkpt><trkpt lat="41.3377945" lon="1.8919143"><ele>351.0</ele><time>2026-05-04T17:24:36.951Z</time></trkpt><trkpt lat="41.337815" lon="1.8920985"><ele>351.0</ele><time>2026-05-04T17:24:37.951Z</time></trkpt><trkpt lat="41.3378464" lon="1.8922783"><ele>350.75</ele><time>2026-05-04T17:24:38.95Z</time></trkpt><trkpt lat="41.3378936" lon="1.8924536"><ele>350.5</ele><time>2026-05-04T17:24:39.951Z</time></trkpt><trkpt lat="41.33796" lon="1.8926183"><ele>350.25</ele><time>2026-05-04T17:24:40.951Z</time></trkpt><trkpt lat="41.3380377" lon="1.8927761"><ele>350.0</ele><time>2026-05-04T17:24:41.951Z</time></trkpt><trkpt lat="41.3381206" lon="1.8929279"><ele>351.5</ele><time>2026-05-04T17:24:42.95Z</time></trkpt><trkpt lat="41.3382011" lon="1.8930838"><ele>353.0</ele><time>2026-05-04T17:24:43.951Z</time></trkpt><trkpt lat="41.3382812" lon="1.8932436"><ele>354.5</ele><time>2026-05-04T17:24:44.951Z</time></trkpt><trkpt lat="41.3383646" lon="1.8933982"><ele>356.0</ele><time>2026-05-04T17:24:45.951Z</time></trkpt><trkpt lat="41.3384438" lon="1.8935526"><ele>356.0</ele><time>2026-05-04T17:24:46.951Z</time></trkpt><trkpt lat="41.3385187" lon="1.8937016"><ele>356.0</ele><time>2026-05-04T17:24:47.951Z</time></trkpt><trkpt lat="41.338593" lon="1.8938544"><ele>356.0</ele><time>2026-05-04T17:24:48.95Z</time></trkpt><trkpt lat="41.3386677" lon="1.8940062"><ele>356.0</ele><time>2026-05-04T17:24:49.951Z</time></trkpt><trkpt lat="41.3387375" lon="1.8941486"><ele>355.5</ele><time>2026-05-04T17:24:50.951Z</time></trkpt><trkpt lat="41.3387997" lon="1.8942899"><ele>355.0</ele><time>2026-05-04T17:24:51.951Z</time></trkpt><trkpt lat="41.3388505" lon="1.8944449"><ele>354.5</ele><time>2026-05-04T17:24:52.95Z</time></trkpt><trkpt lat="41.338888" lon="1.8946053"><ele>354.0</ele><time>2026-05-04T17:24:53.951Z</time></trkpt><trkpt lat="41.3389125" lon="1.8947741"><ele>360.0</ele><time>2026-05-04T17:24:54.951Z</time></trkpt><trkpt lat="41.3389287" lon="1.8949472"><ele>366.0</ele><time>2026-05-04T17:24:55.95Z</time></trkpt><trkpt lat="41.3389359" lon="1.8951188"><ele>372.0</ele><time>2026-05-04T17:24:56.951Z</time></trkpt><trkpt lat="41.3389318" lon="1.8952964"><ele>378.0</ele><time>2026-05-04T17:24:57.951Z</time></trkpt><trkpt lat="41.3389153" lon="1.8954713"><ele>372.5</ele><time>2026-05-04T17:24:58.951Z</time></trkpt><trkpt lat="41.3388833" lon="1.8956445"><ele>367.0</ele><time>2026-05-04T17:24:59.951Z</time></trkpt><trkpt lat="41.3388414" lon="1.8958144"><ele>361.5</ele><time>2026-05-04T17:25:00.951Z</time></trkpt><trkpt lat="41.3387896" lon="1.895982"><ele>356.0</ele><time>2026-05-04T17:25:01.952Z</time></trkpt><trkpt lat="41.3387324" lon="1.8961502"><ele>356.0</ele><time>2026-05-04T17:25:02.952Z</time></trkpt><trkpt lat="41.3386774" lon="1.8963254"><ele>356.0</ele><time>2026-05-04T17:25:03.952Z</time></trkpt><trkpt lat="41.3386158" lon="1.8964913"><ele>356.0</ele><time>2026-05-04T17:25:04.952Z</time></trkpt><trkpt lat="41.3385448" lon="1.8966565"><ele>356.0</ele><time>2026-05-04T17:25:05.952Z</time></trkpt><trkpt lat="41.3384744" lon="1.8968203"><ele>357.25</ele><time>2026-05-04T17:25:06.952Z</time></trkpt><trkpt lat="41.3384021" lon="1.8969841"><ele>358.5</ele><time>2026-05-04T17:25:07.952Z</time></trkpt><trkpt lat="41.338332" lon="1.8971438"><ele>359.75</ele><time>2026-05-04T17:25:08.952Z</time></trkpt><trkpt lat="41.3382575" lon="1.897308"><ele>361.0</ele><time>2026-05-04T17:25:09.952Z</time></trkpt><trkpt lat="41.3381782" lon="1.8974695"><ele>360.75</ele><time>2026-05-04T17:25:10.952Z</time></trkpt><trkpt lat="41.3380933" lon="1.8976288"><ele>360.5</ele><time>2026-05-04T17:25:11.952Z</time></trkpt><trkpt lat="41.3380007" lon="1.8977832"><ele>360.25</ele><time>2026-05-04T17:25:12.952Z</time></trkpt><trkpt lat="41.3379119" lon="1.8979331"><ele>360.0</ele><time>2026-05-04T17:25:13.952Z</time></trkpt><trkpt lat="41.3378208" lon="1.8980807"><ele>359.0</ele><time>2026-05-04T17:25:14.951Z</time></trkpt><trkpt lat="41.3377302" lon="1.8982298"><ele>358.0</ele><time>2026-05-04T17:25:15.952Z</time></trkpt><trkpt lat="41.3376393" lon="1.8983776"><ele>357.0</ele><time>2026-05-04T17:25:16.952Z</time></trkpt><trkpt lat="41.3375519" lon="1.8985198"><ele>356.0</ele><time>2026-05-04T17:25:17.952Z</time></trkpt><trkpt lat="41.3374695" lon="1.8986541"><ele>356.0</ele><time>2026-05-04T17:25:18.952Z</time></trkpt><trkpt lat="41.3373932" lon="1.898782"><ele>356.0</ele><time>2026-05-04T17:25:19.952Z</time></trkpt><trkpt lat="41.3373244" lon="1.8989114"><ele>356.0</ele><time>2026-05-04T17:25:20.952Z</time></trkpt><trkpt lat="41.337265" lon="1.8990326"><ele>356.0</ele><time>2026-05-04T17:25:21.952Z</time></trkpt><trkpt lat="41.3372199" lon="1.8991514"><ele>355.33333333333337</ele><time>2026-05-04T17:25:22.952Z</time></trkpt><trkpt lat="41.3371863" lon="1.8992658"><ele>354.6666666666667</ele><time>2026-05-04T17:25:23.952Z</time></trkpt><trkpt lat="41.3371551" lon="1.8993723"><ele>354.0</ele><time>2026-05-04T17:25:24.951Z</time></trkpt><trkpt lat="41.3371076" lon="1.899459"><ele>353.3333333333333</ele><time>2026-05-04T17:25:25.952Z</time></trkpt><trkpt lat="41.3370504" lon="1.8995319"><ele>352.66666666666663</ele><time>2026-05-04T17:25:26.952Z</time></trkpt><trkpt lat="41.3370044" lon="1.8996186"><ele>352.0</ele><time>2026-05-04T17:25:27.951Z</time></trkpt><trkpt lat="41.3369861" lon="1.8997181"><ele>352.0</ele><time>2026-05-04T17:25:28.952Z</time></trkpt><trkpt lat="41.3369941" lon="1.8998165"><ele>352.0</ele><time>2026-05-04T17:25:29.952Z</time></trkpt><trkpt lat="41.337024" lon="1.8999068"><ele>352.0</ele><time>2026-05-04T17:25:30.952Z</time></trkpt><trkpt lat="41.3370446" lon="1.8999966"><ele>352.0</ele><time>2026-05-04T17:25:31.952Z</time></trkpt><trkpt lat="41.3370502" lon="1.9000894"><ele>352.0</ele><time>2026-05-04T17:25:32.952Z</time></trkpt><trkpt lat="41.3370409" lon="1.9001943"><ele>352.0</ele><time>2026-05-04T17:25:33.951Z</time></trkpt><trkpt lat="41.3370269" lon="1.9003065"><ele>352.20000000000005</ele><time>2026-05-04T17:25:34.951Z</time></trkpt><trkpt lat="41.3370094" lon="1.9004277"><ele>352.4</ele><time>2026-05-04T17:25:35.952Z</time></trkpt><trkpt lat="41.3369903" lon="1.9005554"><ele>352.6</ele><time>2026-05-04T17:25:36.951Z</time></trkpt><trkpt lat="41.3369711" lon="1.9006916"><ele>352.79999999999995</ele><time>2026-05-04T17:25:37.952Z</time></trkpt><trkpt lat="41.3369526" lon="1.9008325"><ele>353.0</ele><time>2026-05-04T17:25:38.952Z</time></trkpt><trkpt lat="41.3369315" lon="1.9009792"><ele>353.25</ele><time>2026-05-04T17:25:39.952Z</time></trkpt><trkpt lat="41.336909" lon="1.9011327"><ele>353.5</ele><time>2026-05-04T17:25:40.951Z</time></trkpt><trkpt lat="41.3368854" lon="1.9012891"><ele>353.75</ele><time>2026-05-04T17:25:41.952Z</time></trkpt><trkpt lat="41.3368603" lon="1.9014526"><ele>354.0</ele><time>2026-05-04T17:25:42.951Z</time></trkpt><trkpt lat="41.3368338" lon="1.901618"><ele>354.25</ele><time>2026-05-04T17:25:43.952Z</time></trkpt><trkpt lat="41.3368077" lon="1.9017875"><ele>354.5</ele><time>2026-05-04T17:25:44.952Z</time></trkpt><trkpt lat="41.3367839" lon="1.9019604"><ele>354.75</ele><time>2026-05-04T17:25:45.952Z</time></trkpt><trkpt lat="41.3367574" lon="1.9021361"><ele>355.0</ele><time>2026-05-04T17:25:46.951Z</time></trkpt><trkpt lat="41.3367308" lon="1.9023149"><ele>355.0</ele><time>2026-05-04T17:25:47.952Z</time></trkpt><trkpt lat="41.336703" lon="1.9024955"><ele>355.0</ele><time>2026-05-04T17:25:48.952Z</time></trkpt><trkpt lat="41.3366745" lon="1.9026692"><ele>355.0</ele><time>2026-05-04T17:25:49.952Z</time></trkpt><trkpt lat="41.3366433" lon="1.9028359"><ele>355.0</ele><time>2026-05-04T17:25:50.952Z</time></trkpt><trkpt lat="41.3366035" lon="1.9029882"><ele>354.4</ele><time>2026-05-04T17:25:51.952Z</time></trkpt><trkpt lat="41.3365551" lon="1.9031142"><ele>353.8</ele><time>2026-05-04T17:25:52.952Z</time></trkpt><trkpt lat="41.3365021" lon="1.9032188"><ele>353.20000000000005</ele><time>2026-05-04T17:25:53.952Z</time></trkpt><trkpt lat="41.3364482" lon="1.9033005"><ele>352.6</ele><time>2026-05-04T17:25:54.952Z</time></trkpt><trkpt lat="41.3363575" lon="1.9033607"><ele>352.0</ele><time>2026-05-04T17:25:56.952Z</time></trkpt><trkpt lat="41.3362316" lon="1.9033597"><ele>352.0</ele><time>2026-05-04T17:25:58.952Z</time></trkpt><trkpt lat="41.3361536" lon="1.9033764"><ele>352.0</ele><time>2026-05-04T17:25:59.951Z</time></trkpt><trkpt lat="41.3360676" lon="1.9034161"><ele>352.0</ele><time>2026-05-04T17:26:00.951Z</time></trkpt><trkpt lat="41.3359776" lon="1.903472"><ele>352.0</ele><time>2026-05-04T17:26:01.951Z</time></trkpt><trkpt lat="41.3358737" lon="1.9035195"><ele>352.0</ele><time>2026-05-04T17:26:02.952Z</time></trkpt><trkpt lat="41.3357635" lon="1.903558"><ele>352.5</ele><time>2026-05-04T17:26:03.952Z</time></trkpt><trkpt lat="41.3356509" lon="1.9035861"><ele>353.0</ele><time>2026-05-04T17:26:04.952Z</time></trkpt><trkpt lat="41.3355329" lon="1.9036196"><ele>353.5</ele><time>2026-05-04T17:26:05.952Z</time></trkpt><trkpt lat="41.3354151" lon="1.903673"><ele>354.0</ele><time>2026-05-04T17:26:06.952Z</time></trkpt><trkpt lat="41.3352934" lon="1.9037243"><ele>354.0</ele><time>2026-05-04T17:26:07.952Z</time></trkpt><trkpt lat="41.3351665" lon="1.9037673"><ele>354.0</ele><time>2026-05-04T17:26:08.952Z</time></trkpt><trkpt lat="41.3350372" lon="1.903819"><ele>354.0</ele><time>2026-05-04T17:26:09.952Z</time></trkpt><trkpt lat="41.334912" lon="1.9038781"><ele>354.0</ele><time>2026-05-04T17:26:10.952Z</time></trkpt><trkpt lat="41.3347898" lon="1.9039448"><ele>354.0</ele><time>2026-05-04T17:26:11.952Z</time></trkpt><trkpt lat="41.3346675" lon="1.904015"><ele>354.0</ele><time>2026-05-04T17:26:12.952Z</time></trkpt><trkpt lat="41.3345436" lon="1.9040931"><ele>354.0</ele><time>2026-05-04T17:26:13.951Z</time></trkpt><trkpt lat="41.3344262" lon="1.9041775"><ele>354.0</ele><time>2026-05-04T17:26:14.951Z</time></trkpt><trkpt lat="41.3343179" lon="1.9042584"><ele>354.5</ele><time>2026-05-04T17:26:15.952Z</time></trkpt><trkpt lat="41.3342097" lon="1.9043462"><ele>355.0</ele><time>2026-05-04T17:26:16.952Z</time></trkpt><trkpt lat="41.334103" lon="1.9044373"><ele>355.5</ele><time>2026-05-04T17:26:17.952Z</time></trkpt><trkpt lat="41.3339976" lon="1.9045313"><ele>356.0</ele><time>2026-05-04T17:26:18.951Z</time></trkpt><trkpt lat="41.3338949" lon="1.9046303"><ele>356.0</ele><time>2026-05-04T17:26:19.952Z</time></trkpt><trkpt lat="41.333791" lon="1.9047333"><ele>356.0</ele><time>2026-05-04T17:26:20.952Z</time></trkpt><trkpt lat="41.3336893" lon="1.9048418"><ele>356.0</ele><time>2026-05-04T17:26:21.952Z</time></trkpt><trkpt lat="41.3335892" lon="1.9049576"><ele>356.0</ele><time>2026-05-04T17:26:22.952Z</time></trkpt><trkpt lat="41.3334865" lon="1.905079"><ele>356.5</ele><time>2026-05-04T17:26:23.952Z</time></trkpt><trkpt lat="41.3333852" lon="1.9052024"><ele>357.0</ele><time>2026-05-04T17:26:24.952Z</time></trkpt><trkpt lat="41.3332842" lon="1.9053318"><ele>357.5</ele><time>2026-05-04T17:26:25.952Z</time></trkpt><trkpt lat="41.3331836" lon="1.9054657"><ele>358.0</ele><time>2026-05-04T17:26:26.952Z</time></trkpt><trkpt lat="41.3330842" lon="1.9056027"><ele>357.25</ele><time>2026-05-04T17:26:27.951Z</time></trkpt><trkpt lat="41.3329813" lon="1.905742"><ele>356.5</ele><time>2026-05-04T17:26:28.951Z</time></trkpt><trkpt lat="41.3328773" lon="1.9058782"><ele>355.75</ele><time>2026-05-04T17:26:29.952Z</time></trkpt><trkpt lat="41.3327707" lon="1.9060158"><ele>355.0</ele><time>2026-05-04T17:26:30.951Z</time></trkpt><trkpt lat="41.332667" lon="1.9061531"><ele>355.0</ele><time>2026-05-04T17:26:31.952Z</time></trkpt><trkpt lat="41.3325626" lon="1.9062916"><ele>355.0</ele><time>2026-05-04T17:26:32.952Z</time></trkpt><trkpt lat="41.3324596" lon="1.9064321"><ele>355.0</ele><time>2026-05-04T17:26:33.951Z</time></trkpt><trkpt lat="41.3323552" lon="1.9065714"><ele>355.0</ele><time>2026-05-04T17:26:34.952Z</time></trkpt><trkpt lat="41.3322487" lon="1.9067116"><ele>356.25</ele><time>2026-05-04T17:26:35.952Z</time></trkpt><trkpt lat="41.3321429" lon="1.906851"><ele>357.5</ele><time>2026-05-04T17:26:36.951Z</time></trkpt><trkpt lat="41.3320368" lon="1.9069915"><ele>358.75</ele><time>2026-05-04T17:26:37.952Z</time></trkpt><trkpt lat="41.3319309" lon="1.907129"><ele>360.0</ele><time>2026-05-04T17:26:38.952Z</time></trkpt><trkpt lat="41.3318242" lon="1.9072663"><ele>360.0</ele><time>2026-05-04T17:26:39.952Z</time></trkpt><trkpt lat="41.3317177" lon="1.9074083"><ele>360.0</ele><time>2026-05-04T17:26:40.951Z</time></trkpt><trkpt lat="41.3316141" lon="1.9075489"><ele>360.0</ele><time>2026-05-04T17:26:41.952Z</time></trkpt><trkpt lat="41.3315077" lon="1.9076852"><ele>360.0</ele><time>2026-05-04T17:26:42.952Z</time></trkpt><trkpt lat="41.3314047" lon="1.9078252"><ele>360.5</ele><time>2026-05-04T17:26:43.952Z</time></trkpt><trkpt lat="41.3313029" lon="1.9079649"><ele>361.0</ele><time>2026-05-04T17:26:44.952Z</time></trkpt><trkpt lat="41.3312031" lon="1.9081003"><ele>361.5</ele><time>2026-05-04T17:26:45.951Z</time></trkpt><trkpt lat="41.3311033" lon="1.9082349"><ele>362.0</ele><time>2026-05-04T17:26:46.952Z</time></trkpt><trkpt lat="41.331004" lon="1.9083682"><ele>362.0</ele><time>2026-05-04T17:26:47.951Z</time></trkpt><trkpt lat="41.3309044" lon="1.9084972"><ele>362.0</ele><time>2026-05-04T17:26:48.952Z</time></trkpt><trkpt lat="41.330803" lon="1.908626"><ele>362.0</ele><time>2026-05-04T17:26:49.952Z</time></trkpt><trkpt lat="41.3307073" lon="1.9087563"><ele>362.0</ele><time>2026-05-04T17:26:50.952Z</time></trkpt><trkpt lat="41.3306099" lon="1.9088867"><ele>363.25</ele><time>2026-05-04T17:26:51.952Z</time></trkpt><trkpt lat="41.3305117" lon="1.909017"><ele>364.5</ele><time>2026-05-04T17:26:52.952Z</time></trkpt><trkpt lat="41.3304145" lon="1.9091464"><ele>365.75</ele><time>2026-05-04T17:26:53.952Z</time></trkpt><trkpt lat="41.3303211" lon="1.9092743"><ele>367.0</ele><time>2026-05-04T17:26:54.952Z</time></trkpt><trkpt lat="41.3302255" lon="1.9094041"><ele>367.0</ele><time>2026-05-04T17:26:55.952Z</time></trkpt><trkpt lat="41.3301283" lon="1.9095357"><ele>367.0</ele><time>2026-05-04T17:26:56.952Z</time></trkpt><trkpt lat="41.3300334" lon="1.9096686"><ele>367.0</ele><time>2026-05-04T17:26:57.951Z</time></trkpt><trkpt lat="41.3299409" lon="1.9098055"><ele>367.0</ele><time>2026-05-04T17:26:58.951Z</time></trkpt><trkpt lat="41.3298502" lon="1.9099426"><ele>368.25</ele><time>2026-05-04T17:26:59.952Z</time></trkpt><trkpt lat="41.3297613" lon="1.9100823"><ele>369.5</ele><time>2026-05-04T17:27:00.952Z</time></trkpt><trkpt lat="41.3296755" lon="1.9102263"><ele>370.75</ele><time>2026-05-04T17:27:01.952Z</time></trkpt><trkpt lat="41.3295936" lon="1.9103714"><ele>372.0</ele><time>2026-05-04T17:27:02.951Z</time></trkpt><trkpt lat="41.3295123" lon="1.9105234"><ele>372.5</ele><time>2026-05-04T17:27:03.952Z</time></trkpt><trkpt lat="41.3294331" lon="1.9106753"><ele>373.0</ele><time>2026-05-04T17:27:04.952Z</time></trkpt><trkpt lat="41.3293568" lon="1.910832"><ele>373.5</ele><time>2026-05-04T17:27:05.952Z</time></trkpt><trkpt lat="41.3292846" lon="1.9109923"><ele>374.0</ele><time>2026-05-04T17:27:06.952Z</time></trkpt><trkpt lat="41.3292131" lon="1.9111555"><ele>374.0</ele><time>2026-05-04T17:27:07.951Z</time></trkpt><trkpt lat="41.3291447" lon="1.91132"><ele>374.0</ele><time>2026-05-04T17:27:08.952Z</time></trkpt><trkpt lat="41.3290795" lon="1.9114877"><ele>374.0</ele><time>2026-05-04T17:27:09.952Z</time></trkpt><trkpt lat="41.3290179" lon="1.911658"><ele>374.0</ele><time>2026-05-04T17:27:10.951Z</time></trkpt><trkpt lat="41.32896" lon="1.911834"><ele>374.0</ele><time>2026-05-04T17:27:11.952Z</time></trkpt><trkpt lat="41.328907" lon="1.9120131"><ele>374.0</ele><time>2026-05-04T17:27:12.952Z</time></trkpt><trkpt lat="41.3288508" lon="1.9121922"><ele>374.0</ele><time>2026-05-04T17:27:13.952Z</time></trkpt><trkpt lat="41.3288011" lon="1.9123728"><ele>374.0</ele><time>2026-05-04T17:27:14.951Z</time></trkpt><trkpt lat="41.3287575" lon="1.9125533"><ele>374.75</ele><time>2026-05-04T17:27:15.952Z</time></trkpt><trkpt lat="41.3287147" lon="1.9127369"><ele>375.5</ele><time>2026-05-04T17:27:16.952Z</time></trkpt><trkpt lat="41.3286755" lon="1.9129224"><ele>376.25</ele><time>2026-05-04T17:27:17.952Z</time></trkpt><trkpt lat="41.3286459" lon="1.9131104"><ele>377.0</ele><time>2026-05-04T17:27:18.952Z</time></trkpt><trkpt lat="41.3286167" lon="1.9132971"><ele>377.0</ele><time>2026-05-04T17:27:19.951Z</time></trkpt><trkpt lat="41.3285917" lon="1.913486"><ele>377.0</ele><time>2026-05-04T17:27:20.952Z</time></trkpt><trkpt lat="41.3285666" lon="1.913672"><ele>377.0</ele><time>2026-05-04T17:27:21.952Z</time></trkpt><trkpt lat="41.3285531" lon="1.913871"><ele>377.0</ele><time>2026-05-04T17:27:22.952Z</time></trkpt><trkpt lat="41.3285345" lon="1.9140588"><ele>377.25</ele><time>2026-05-04T17:27:23.951Z</time></trkpt><trkpt lat="41.32852" lon="1.9142518"><ele>377.5</ele><time>2026-05-04T17:27:24.952Z</time></trkpt><trkpt lat="41.3285101" lon="1.914445"><ele>377.75</ele><time>2026-05-04T17:27:25.952Z</time></trkpt><trkpt lat="41.3285058" lon="1.9146406"><ele>378.0</ele><time>2026-05-04T17:27:26.952Z</time></trkpt><trkpt lat="41.3285051" lon="1.9148361"><ele>378.0</ele><time>2026-05-04T17:27:27.952Z</time></trkpt><trkpt lat="41.3285085" lon="1.9150341"><ele>378.0</ele><time>2026-05-04T17:27:28.952Z</time></trkpt><trkpt lat="41.3285202" lon="1.9152342"><ele>378.0</ele><time>2026-05-04T17:27:29.951Z</time></trkpt><trkpt lat="41.3285303" lon="1.9154343"><ele>377.3333333333333</ele><time>2026-05-04T17:27:30.952Z</time></trkpt><trkpt lat="41.3285461" lon="1.9156403"><ele>376.66666666666663</ele><time>2026-05-04T17:27:31.952Z</time></trkpt><trkpt lat="41.328567" lon="1.9158465"><ele>376.0</ele><time>2026-05-04T17:27:32.952Z</time></trkpt><trkpt lat="41.3285876" lon="1.9160537"><ele>375.0</ele><time>2026-05-04T17:27:33.952Z</time></trkpt><trkpt lat="41.328612" lon="1.9162518"><ele>374.0</ele><time>2026-05-04T17:27:34.952Z</time></trkpt><trkpt lat="41.3286393" lon="1.9164437"><ele>373.0</ele><time>2026-05-04T17:27:35.952Z</time></trkpt><trkpt lat="41.3286649" lon="1.9166337"><ele>372.0</ele><time>2026-05-04T17:27:36.952Z</time></trkpt><trkpt lat="41.3286903" lon="1.9168234"><ele>371.75</ele><time>2026-05-04T17:27:37.952Z</time></trkpt><trkpt lat="41.3287152" lon="1.9170161"><ele>371.5</ele><time>2026-05-04T17:27:38.952Z</time></trkpt><trkpt lat="41.328741" lon="1.9172079"><ele>371.25</ele><time>2026-05-04T17:27:39.952Z</time></trkpt><trkpt lat="41.3287666" lon="1.9173997"><ele>371.0</ele><time>2026-05-04T17:27:40.952Z</time></trkpt><trkpt lat="41.3287896" lon="1.9175841"><ele>371.0</ele><time>2026-05-04T17:27:41.953Z</time></trkpt><trkpt lat="41.3288081" lon="1.9177661"><ele>371.0</ele><time>2026-05-04T17:27:42.952Z</time></trkpt><trkpt lat="41.3288242" lon="1.9179473"><ele>371.0</ele><time>2026-05-04T17:27:43.952Z</time></trkpt><trkpt lat="41.3288363" lon="1.918127"><ele>371.0</ele><time>2026-05-04T17:27:44.953Z</time></trkpt><trkpt lat="41.3288463" lon="1.9183077"><ele>371.0</ele><time>2026-05-04T17:27:45.953Z</time></trkpt><trkpt lat="41.3288544" lon="1.9184876"><ele>371.0</ele><time>2026-05-04T17:27:46.953Z</time></trkpt><trkpt lat="41.32886" lon="1.9186626"><ele>371.0</ele><time>2026-05-04T17:27:47.952Z</time></trkpt><trkpt lat="41.3288659" lon="1.9188381"><ele>371.0</ele><time>2026-05-04T17:27:48.953Z</time></trkpt><trkpt lat="41.3288683" lon="1.9190064"><ele>371.0</ele><time>2026-05-04T17:27:49.952Z</time></trkpt><trkpt lat="41.3288703" lon="1.9191671"><ele>371.0</ele><time>2026-05-04T17:27:50.953Z</time></trkpt><trkpt lat="41.3288682" lon="1.9193196"><ele>371.0</ele><time>2026-05-04T17:27:51.953Z</time></trkpt><trkpt lat="41.3288672" lon="1.9194607"><ele>371.0</ele><time>2026-05-04T17:27:52.953Z</time></trkpt><trkpt lat="41.3288652" lon="1.919595"><ele>371.0</ele><time>2026-05-04T17:27:53.953Z</time></trkpt><trkpt lat="41.3288628" lon="1.9197157"><ele>371.0</ele><time>2026-05-04T17:27:54.953Z</time></trkpt><trkpt lat="41.3288488" lon="1.91983"><ele>371.0</ele><time>2026-05-04T17:27:55.953Z</time></trkpt><trkpt lat="41.3288201" lon="1.91994"><ele>371.0</ele><time>2026-05-04T17:27:56.953Z</time></trkpt><trkpt lat="41.3287821" lon="1.9200427"><ele>371.0</ele><time>2026-05-04T17:27:57.953Z</time></trkpt><trkpt lat="41.3287548" lon="1.9201492"><ele>371.0</ele><time>2026-05-04T17:27:58.952Z</time></trkpt><trkpt lat="41.3287573" lon="1.9202527"><ele>371.0</ele><time>2026-05-04T17:27:59.953Z</time></trkpt><trkpt lat="41.3287804" lon="1.9203629"><ele>371.0</ele><time>2026-05-04T17:28:00.953Z</time></trkpt><trkpt lat="41.3288194" lon="1.9204711"><ele>371.0</ele><time>2026-05-04T17:28:01.953Z</time></trkpt><trkpt lat="41.328856" lon="1.920591"><ele>371.0</ele><time>2026-05-04T17:28:02.953Z</time></trkpt><trkpt lat="41.3288771" lon="1.9207212"><ele>371.0</ele><time>2026-05-04T17:28:03.953Z</time></trkpt><trkpt lat="41.3288785" lon="1.9208623"><ele>371.0</ele><time>2026-05-04T17:28:04.953Z</time></trkpt><trkpt lat="41.3288758" lon="1.9210063"><ele>371.0</ele><time>2026-05-04T17:28:05.952Z</time></trkpt><trkpt lat="41.328878" lon="1.9211572"><ele>371.0</ele><time>2026-05-04T17:28:06.953Z</time></trkpt><trkpt lat="41.3288745" lon="1.9213079"><ele>371.0</ele><time>2026-05-04T17:28:07.952Z</time></trkpt><trkpt lat="41.3288746" lon="1.9214608"><ele>371.0</ele><time>2026-05-04T17:28:08.952Z</time></trkpt><trkpt lat="41.3288739" lon="1.9216167"><ele>371.0</ele><time>2026-05-04T17:28:09.953Z</time></trkpt><trkpt lat="41.3288745" lon="1.9217736"><ele>371.0</ele><time>2026-05-04T17:28:10.953Z</time></trkpt><trkpt lat="41.3288737" lon="1.9219306"><ele>371.0</ele><time>2026-05-04T17:28:11.952Z</time></trkpt><trkpt lat="41.3288696" lon="1.9220915"><ele>371.0</ele><time>2026-05-04T17:28:12.953Z</time></trkpt><trkpt lat="41.328868" lon="1.9222515"><ele>371.0</ele><time>2026-05-04T17:28:13.953Z</time></trkpt><trkpt lat="41.3288661" lon="1.9224128"><ele>371.0</ele><time>2026-05-04T17:28:14.953Z</time></trkpt><trkpt lat="41.3288645" lon="1.9225764"><ele>371.0</ele><time>2026-05-04T17:28:15.952Z</time></trkpt><trkpt lat="41.3288609" lon="1.9227414"><ele>371.0</ele><time>2026-05-04T17:28:16.953Z</time></trkpt><trkpt lat="41.3288556" lon="1.9229071"><ele>371.0</ele><time>2026-05-04T17:28:17.953Z</time></trkpt><trkpt lat="41.3288498" lon="1.9230754"><ele>371.0</ele><time>2026-05-04T17:28:18.952Z</time></trkpt><trkpt lat="41.3288425" lon="1.9232473"><ele>371.0</ele><time>2026-05-04T17:28:19.953Z</time></trkpt><trkpt lat="41.3288329" lon="1.9234157"><ele>371.0</ele><time>2026-05-04T17:28:20.953Z</time></trkpt><trkpt lat="41.328822" lon="1.9235831"><ele>371.0</ele><time>2026-05-04T17:28:21.953Z</time></trkpt><trkpt lat="41.3288097" lon="1.9237479"><ele>371.0</ele><time>2026-05-04T17:28:22.953Z</time></trkpt><trkpt lat="41.3287972" lon="1.9239128"><ele>371.0</ele><time>2026-05-04T17:28:23.953Z</time></trkpt><trkpt lat="41.3287803" lon="1.9240735"><ele>371.0</ele><time>2026-05-04T17:28:24.953Z</time></trkpt><trkpt lat="41.3287622" lon="1.9242365"><ele>371.25</ele><time>2026-05-04T17:28:25.953Z</time></trkpt><trkpt lat="41.3287423" lon="1.9243981"><ele>371.5</ele><time>2026-05-04T17:28:26.953Z</time></trkpt><trkpt lat="41.3287231" lon="1.9245574"><ele>371.75</ele><time>2026-05-04T17:28:27.953Z</time></trkpt><trkpt lat="41.3286998" lon="1.9247191"><ele>372.0</ele><time>2026-05-04T17:28:28.953Z</time></trkpt><trkpt lat="41.3286751" lon="1.9248808"><ele>372.0</ele><time>2026-05-04T17:28:29.953Z</time></trkpt><trkpt lat="41.3286512" lon="1.9250385"><ele>372.0</ele><time>2026-05-04T17:28:30.953Z</time></trkpt><trkpt lat="41.3286229" lon="1.9251986"><ele>372.0</ele><time>2026-05-04T17:28:31.953Z</time></trkpt><trkpt lat="41.3285949" lon="1.9253524"><ele>372.0</ele><time>2026-05-04T17:28:32.953Z</time></trkpt><trkpt lat="41.3285666" lon="1.9255027"><ele>372.20000000000005</ele><time>2026-05-04T17:28:33.952Z</time></trkpt><trkpt lat="41.3285389" lon="1.925637"><ele>372.4</ele><time>2026-05-04T17:28:34.953Z</time></trkpt><trkpt lat="41.3285105" lon="1.9257687"><ele>372.6</ele><time>2026-05-04T17:28:35.953Z</time></trkpt><trkpt lat="41.3284866" lon="1.9258883"><ele>372.79999999999995</ele><time>2026-05-04T17:28:36.953Z</time></trkpt><trkpt lat="41.3284578" lon="1.9260062"><ele>373.0</ele><time>2026-05-04T17:28:37.953Z</time></trkpt><trkpt lat="41.3284284" lon="1.9261111"><ele>373.5</ele><time>2026-05-04T17:28:38.953Z</time></trkpt><trkpt lat="41.3283851" lon="1.9262007"><ele>374.0</ele><time>2026-05-04T17:28:39.953Z</time></trkpt><trkpt lat="41.3283253" lon="1.9262765"><ele>374.5</ele><time>2026-05-04T17:28:40.952Z</time></trkpt><trkpt lat="41.3282613" lon="1.9263446"><ele>375.0</ele><time>2026-05-04T17:28:41.952Z</time></trkpt><trkpt lat="41.3282136" lon="1.9264318"><ele>375.5</ele><time>2026-05-04T17:28:42.953Z</time></trkpt><trkpt lat="41.3281889" lon="1.9265306"><ele>376.0</ele><time>2026-05-04T17:28:43.953Z</time></trkpt><trkpt lat="41.3281865" lon="1.9266368"><ele>376.20000000000005</ele><time>2026-05-04T17:28:44.953Z</time></trkpt><trkpt lat="41.3282036" lon="1.9267512"><ele>376.40000000000003</ele><time>2026-05-04T17:28:45.953Z</time></trkpt><trkpt lat="41.3282172" lon="1.9268745"><ele>376.6</ele><time>2026-05-04T17:28:46.953Z</time></trkpt><trkpt lat="41.3282226" lon="1.927002"><ele>376.8</ele><time>2026-05-04T17:28:47.953Z</time></trkpt><trkpt lat="41.3282151" lon="1.9271311"><ele>377.0</ele><time>2026-05-04T17:28:48.953Z</time></trkpt><trkpt lat="41.328193" lon="1.9272758"><ele>377.0</ele><time>2026-05-04T17:28:49.953Z</time></trkpt><trkpt lat="41.3281659" lon="1.9274132"><ele>377.0</ele><time>2026-05-04T17:28:50.953Z</time></trkpt><trkpt lat="41.3281428" lon="1.9275573"><ele>377.0</ele><time>2026-05-04T17:28:51.953Z</time></trkpt><trkpt lat="41.3281204" lon="1.9277061"><ele>377.0</ele><time>2026-05-04T17:28:52.953Z</time></trkpt><trkpt lat="41.3280976" lon="1.9278574"><ele>377.0</ele><time>2026-05-04T17:28:53.952Z</time></trkpt><trkpt lat="41.3280747" lon="1.9280096"><ele>379.5</ele><time>2026-05-04T17:28:54.953Z</time></trkpt><trkpt lat="41.3280559" lon="1.9281638"><ele>382.0</ele><time>2026-05-04T17:28:55.953Z</time></trkpt><trkpt lat="41.3280395" lon="1.9283201"><ele>384.5</ele><time>2026-05-04T17:28:56.952Z</time></trkpt><trkpt lat="41.3280224" lon="1.92848"><ele>387.0</ele><time>2026-05-04T17:28:57.953Z</time></trkpt><trkpt lat="41.3280086" lon="1.9286408"><ele>387.75</ele><time>2026-05-04T17:28:58.953Z</time></trkpt><trkpt lat="41.327996" lon="1.9288064"><ele>388.5</ele><time>2026-05-04T17:28:59.953Z</time></trkpt><trkpt lat="41.3279855" lon="1.9289726"><ele>389.25</ele><time>2026-05-04T17:29:00.953Z</time></trkpt><trkpt lat="41.3279766" lon="1.9291425"><ele>390.0</ele><time>2026-05-04T17:29:01.953Z</time></trkpt><trkpt lat="41.3279671" lon="1.9293058"><ele>388.5</ele><time>2026-05-04T17:29:02.953Z</time></trkpt><trkpt lat="41.3279575" lon="1.9294713"><ele>387.0</ele><time>2026-05-04T17:29:03.952Z</time></trkpt><trkpt lat="41.3279485" lon="1.9296385"><ele>385.5</ele><time>2026-05-04T17:29:04.953Z</time></trkpt><trkpt lat="41.3279385" lon="1.9298076"><ele>384.0</ele><time>2026-05-04T17:29:05.953Z</time></trkpt><trkpt lat="41.327928" lon="1.9299777"><ele>382.0</ele><time>2026-05-04T17:29:06.952Z</time></trkpt><trkpt lat="41.3279176" lon="1.9301499"><ele>380.0</ele><time>2026-05-04T17:29:07.953Z</time></trkpt><trkpt lat="41.3279078" lon="1.93032"><ele>378.0</ele><time>2026-05-04T17:29:08.952Z</time></trkpt><trkpt lat="41.3278981" lon="1.9304877"><ele>376.0</ele><time>2026-05-04T17:29:09.953Z</time></trkpt><trkpt lat="41.3278888" lon="1.930658"><ele>376.0</ele><time>2026-05-04T17:29:10.953Z</time></trkpt><trkpt lat="41.3278788" lon="1.9308287"><ele>376.0</ele><time>2026-05-04T17:29:11.953Z</time></trkpt><trkpt lat="41.3278673" lon="1.9309995"><ele>376.0</ele><time>2026-05-04T17:29:12.953Z</time></trkpt><trkpt lat="41.3278569" lon="1.9311725"><ele>376.0</ele><time>2026-05-04T17:29:13.952Z</time></trkpt><trkpt lat="41.3278475" lon="1.931347"><ele>377.5</ele><time>2026-05-04T17:29:14.953Z</time></trkpt><trkpt lat="41.3278365" lon="1.9315237"><ele>379.0</ele><time>2026-05-04T17:29:15.953Z</time></trkpt><trkpt lat="41.3278275" lon="1.931698"><ele>380.5</ele><time>2026-05-04T17:29:16.953Z</time></trkpt><trkpt lat="41.3278164" lon="1.9318756"><ele>382.0</ele><time>2026-05-04T17:29:17.953Z</time></trkpt><trkpt lat="41.3278056" lon="1.9320511"><ele>383.5</ele><time>2026-05-04T17:29:18.953Z</time></trkpt><trkpt lat="41.327796" lon="1.9322318"><ele>385.0</ele><time>2026-05-04T17:29:19.953Z</time></trkpt><trkpt lat="41.3277867" lon="1.932412"><ele>386.5</ele><time>2026-05-04T17:29:20.953Z</time></trkpt><trkpt lat="41.3277764" lon="1.9325938"><ele>388.0</ele><time>2026-05-04T17:29:21.953Z</time></trkpt><trkpt lat="41.3277695" lon="1.9327775"><ele>388.75</ele><time>2026-05-04T17:29:22.953Z</time></trkpt><trkpt lat="41.3277697" lon="1.9329598"><ele>389.5</ele><time>2026-05-04T17:29:23.953Z</time></trkpt><trkpt lat="41.3277737" lon="1.933141"><ele>390.25</ele><time>2026-05-04T17:29:24.953Z</time></trkpt><trkpt lat="41.3277876" lon="1.9333253"><ele>391.0</ele><time>2026-05-04T17:29:25.953Z</time></trkpt><trkpt lat="41.3278087" lon="1.9335077"><ele>391.25</ele><time>2026-05-04T17:29:26.953Z</time></trkpt><trkpt lat="41.3278381" lon="1.9336891"><ele>391.5</ele><time>2026-05-04T17:29:27.953Z</time></trkpt><trkpt lat="41.3278743" lon="1.9338672"><ele>391.75</ele><time>2026-05-04T17:29:28.953Z</time></trkpt><trkpt lat="41.3279146" lon="1.9340446"><ele>392.0</ele><time>2026-05-04T17:29:29.953Z</time></trkpt><trkpt lat="41.3279572" lon="1.9342204"><ele>393.0</ele><time>2026-05-04T17:29:30.953Z</time></trkpt><trkpt lat="41.3280022" lon="1.9343853"><ele>394.0</ele><time>2026-05-04T17:29:31.953Z</time></trkpt><trkpt lat="41.3280471" lon="1.9345526"><ele>395.0</ele><time>2026-05-04T17:29:32.953Z</time></trkpt><trkpt lat="41.3280886" lon="1.934716"><ele>396.0</ele><time>2026-05-04T17:29:33.953Z</time></trkpt><trkpt lat="41.3281323" lon="1.9348764"><ele>394.25</ele><time>2026-05-04T17:29:34.952Z</time></trkpt><trkpt lat="41.3281734" lon="1.9350374"><ele>392.5</ele><time>2026-05-04T17:29:35.953Z</time></trkpt><trkpt lat="41.3282103" lon="1.9352048"><ele>390.75</ele><time>2026-05-04T17:29:36.953Z</time></trkpt><trkpt lat="41.3282408" lon="1.9353716"><ele>389.0</ele><time>2026-05-04T17:29:37.953Z</time></trkpt><trkpt lat="41.328266" lon="1.9355398"><ele>389.0</ele><time>2026-05-04T17:29:38.952Z</time></trkpt><trkpt lat="41.328282" lon="1.9357084"><ele>389.0</ele><time>2026-05-04T17:29:39.953Z</time></trkpt><trkpt lat="41.3282881" lon="1.9358778"><ele>389.0</ele><time>2026-05-04T17:29:40.953Z</time></trkpt><trkpt lat="41.3282898" lon="1.9360464"><ele>389.0</ele><time>2026-05-04T17:29:41.952Z</time></trkpt><trkpt lat="41.3282859" lon="1.9362142"><ele>389.25</ele><time>2026-05-04T17:29:42.953Z</time></trkpt><trkpt lat="41.3282794" lon="1.9363802"><ele>389.5</ele><time>2026-05-04T17:29:43.953Z</time></trkpt><trkpt lat="41.328274" lon="1.9365457"><ele>389.75</ele><time>2026-05-04T17:29:44.953Z</time></trkpt><trkpt lat="41.3282645" lon="1.9367055"><ele>390.0</ele><time>2026-05-04T17:29:45.953Z</time></trkpt><trkpt lat="41.3282561" lon="1.9368673"><ele>390.2</ele><time>2026-05-04T17:29:46.953Z</time></trkpt><trkpt lat="41.3282444" lon="1.937025"><ele>390.4</ele><time>2026-05-04T17:29:47.953Z</time></trkpt><trkpt lat="41.3282328" lon="1.9371701"><ele>390.6</ele><time>2026-05-04T17:29:48.953Z</time></trkpt><trkpt lat="41.3282221" lon="1.9373103"><ele>390.8</ele><time>2026-05-04T17:29:49.953Z</time></trkpt><trkpt lat="41.3282182" lon="1.9374375"><ele>391.0</ele><time>2026-05-04T17:29:50.952Z</time></trkpt><trkpt lat="41.3282084" lon="1.9375562"><ele>391.00000000000006</ele><time>2026-05-04T17:29:51.953Z</time></trkpt><trkpt lat="41.3281828" lon="1.9376638"><ele>391.0</ele><time>2026-05-04T17:29:52.952Z</time></trkpt><trkpt lat="41.328142" lon="1.9377638"><ele>391.0</ele><time>2026-05-04T17:29:53.953Z</time></trkpt><trkpt lat="41.3280963" lon="1.9378671"><ele>391.0</ele><time>2026-05-04T17:29:54.953Z</time></trkpt><trkpt lat="41.3280767" lon="1.9379797"><ele>391.00000000000006</ele><time>2026-05-04T17:29:55.953Z</time></trkpt><trkpt lat="41.3280859" lon="1.9380911"><ele>391.0</ele><time>2026-05-04T17:29:56.953Z</time></trkpt><trkpt lat="41.3281237" lon="1.9382095"><ele>391.0</ele><time>2026-05-04T17:29:57.953Z</time></trkpt><trkpt lat="41.3281601" lon="1.9383278"><ele>391.0</ele><time>2026-05-04T17:29:58.952Z</time></trkpt><trkpt lat="41.328188" lon="1.9384585"><ele>391.0</ele><time>2026-05-04T17:29:59.953Z</time></trkpt><trkpt lat="41.3282032" lon="1.9385894"><ele>391.0</ele><time>2026-05-04T17:30:00.953Z</time></trkpt><trkpt lat="41.3282133" lon="1.9387438"><ele>391.0</ele><time>2026-05-04T17:30:01.953Z</time></trkpt><trkpt lat="41.328224" lon="1.9388914"><ele>391.5</ele><time>2026-05-04T17:30:02.953Z</time></trkpt><trkpt lat="41.3282282" lon="1.9390396"><ele>392.0</ele><time>2026-05-04T17:30:03.952Z</time></trkpt><trkpt lat="41.3282293" lon="1.9391914"><ele>392.5</ele><time>2026-05-04T17:30:04.953Z</time></trkpt><trkpt lat="41.3282248" lon="1.9393463"><ele>393.0</ele><time>2026-05-04T17:30:05.953Z</time></trkpt><trkpt lat="41.3282145" lon="1.9395017"><ele>393.0</ele><time>2026-05-04T17:30:06.953Z</time></trkpt><trkpt lat="41.3281994" lon="1.9396583"><ele>393.0</ele><time>2026-05-04T17:30:07.953Z</time></trkpt><trkpt lat="41.3281807" lon="1.9398154"><ele>393.0</ele><time>2026-05-04T17:30:08.953Z</time></trkpt><trkpt lat="41.3281624" lon="1.9399742"><ele>393.0</ele><time>2026-05-04T17:30:09.953Z</time></trkpt><trkpt lat="41.3281437" lon="1.9401355"><ele>392.75</ele><time>2026-05-04T17:30:10.953Z</time></trkpt><trkpt lat="41.328124" lon="1.9402984"><ele>392.5</ele><time>2026-05-04T17:30:11.953Z</time></trkpt><trkpt lat="41.3281062" lon="1.940461"><ele>392.25</ele><time>2026-05-04T17:30:12.953Z</time></trkpt><trkpt lat="41.3280868" lon="1.940621"><ele>392.0</ele><time>2026-05-04T17:30:13.953Z</time></trkpt><trkpt lat="41.328067" lon="1.9407832"><ele>392.75</ele><time>2026-05-04T17:30:14.953Z</time></trkpt><trkpt lat="41.3280445" lon="1.9409453"><ele>393.5</ele><time>2026-05-04T17:30:15.954Z</time></trkpt><trkpt lat="41.3280249" lon="1.9411078"><ele>394.25</ele><time>2026-05-04T17:30:16.954Z</time></trkpt><trkpt lat="41.3280041" lon="1.9412691"><ele>395.0</ele><time>2026-05-04T17:30:17.954Z</time></trkpt><trkpt lat="41.3279839" lon="1.9414288"><ele>395.0</ele><time>2026-05-04T17:30:18.954Z</time></trkpt><trkpt lat="41.3279644" lon="1.9415892"><ele>395.0</ele><time>2026-05-04T17:30:19.954Z</time></trkpt><trkpt lat="41.327942" lon="1.9417483"><ele>395.0</ele><time>2026-05-04T17:30:20.954Z</time></trkpt><trkpt lat="41.3279221" lon="1.9419062"><ele>395.0</ele><time>2026-05-04T17:30:21.954Z</time></trkpt><trkpt lat="41.3279018" lon="1.9420639"><ele>396.0</ele><time>2026-05-04T17:30:22.953Z</time></trkpt><trkpt lat="41.327881" lon="1.9422225"><ele>397.0</ele><time>2026-05-04T17:30:23.954Z</time></trkpt><trkpt lat="41.3278592" lon="1.9423791"><ele>398.0</ele><time>2026-05-04T17:30:24.954Z</time></trkpt><trkpt lat="41.3278387" lon="1.9425355"><ele>399.0</ele><time>2026-05-04T17:30:25.954Z</time></trkpt><trkpt lat="41.3278191" lon="1.9426916"><ele>399.75</ele><time>2026-05-04T17:30:26.954Z</time></trkpt><trkpt lat="41.327799" lon="1.9428477"><ele>400.5</ele><time>2026-05-04T17:30:27.953Z</time></trkpt><trkpt lat="41.3277782" lon="1.9430028"><ele>401.25</ele><time>2026-05-04T17:30:28.954Z</time></trkpt><trkpt lat="41.3277584" lon="1.9431575"><ele>402.0</ele><time>2026-05-04T17:30:29.954Z</time></trkpt><trkpt lat="41.3277399" lon="1.9433135"><ele>402.75</ele><time>2026-05-04T17:30:30.954Z</time></trkpt><trkpt lat="41.3277188" lon="1.9434708"><ele>403.5</ele><time>2026-05-04T17:30:31.953Z</time></trkpt><trkpt lat="41.3276982" lon="1.9436243"><ele>404.25</ele><time>2026-05-04T17:30:32.954Z</time></trkpt><trkpt lat="41.3276796" lon="1.9437808"><ele>405.0</ele><time>2026-05-04T17:30:33.954Z</time></trkpt><trkpt lat="41.3276588" lon="1.9439332"><ele>405.0</ele><time>2026-05-04T17:30:34.954Z</time></trkpt><trkpt lat="41.3276351" lon="1.9440845"><ele>405.0</ele><time>2026-05-04T17:30:35.954Z</time></trkpt><trkpt lat="41.327608" lon="1.9442348"><ele>405.0</ele><time>2026-05-04T17:30:36.954Z</time></trkpt><trkpt lat="41.3275768" lon="1.9443834"><ele>405.0</ele><time>2026-05-04T17:30:37.954Z</time></trkpt><trkpt lat="41.3275409" lon="1.94453"><ele>405.25</ele><time>2026-05-04T17:30:38.954Z</time></trkpt><trkpt lat="41.3275027" lon="1.9446698"><ele>405.5</ele><time>2026-05-04T17:30:39.953Z</time></trkpt><trkpt lat="41.327458" lon="1.9448136"><ele>405.75</ele><time>2026-05-04T17:30:40.954Z</time></trkpt><trkpt lat="41.3274116" lon="1.944955"><ele>406.0</ele><time>2026-05-04T17:30:41.953Z</time></trkpt><trkpt lat="41.3273625" lon="1.9450964"><ele>407.0</ele><time>2026-05-04T17:30:42.953Z</time></trkpt><trkpt lat="41.3273123" lon="1.9452371"><ele>408.0</ele><time>2026-05-04T17:30:43.954Z</time></trkpt><trkpt lat="41.3272609" lon="1.9453787"><ele>409.0</ele><time>2026-05-04T17:30:44.954Z</time></trkpt><trkpt lat="41.3272092" lon="1.9455223"><ele>410.0</ele><time>2026-05-04T17:30:45.954Z</time></trkpt><trkpt lat="41.3271566" lon="1.9456578"><ele>410.16666666666663</ele><time>2026-05-04T17:30:46.954Z</time></trkpt><trkpt lat="41.3271085" lon="1.9457844"><ele>410.3333333333333</ele><time>2026-05-04T17:30:47.954Z</time></trkpt><trkpt lat="41.3270656" lon="1.9459008"><ele>410.5</ele><time>2026-05-04T17:30:48.954Z</time></trkpt><trkpt lat="41.32703" lon="1.9459903"><ele>410.66666666666663</ele><time>2026-05-04T17:30:49.954Z</time></trkpt><trkpt lat="41.3269926" lon="1.9460603"><ele>410.8333333333333</ele><time>2026-05-04T17:30:50.954Z</time></trkpt><trkpt lat="41.3269448" lon="1.9461227"><ele>411.0</ele><time>2026-05-04T17:30:51.954Z</time></trkpt><trkpt lat="41.326882" lon="1.9461672"><ele>411.0</ele><time>2026-05-04T17:30:52.954Z</time></trkpt><trkpt lat="41.326812" lon="1.9462168"><ele>411.0</ele><time>2026-05-04T17:30:53.954Z</time></trkpt><trkpt lat="41.3267606" lon="1.9462964"><ele>411.0</ele><time>2026-05-04T17:30:54.953Z</time></trkpt><trkpt lat="41.3267334" lon="1.9463908"><ele>411.0</ele><time>2026-05-04T17:30:55.954Z</time></trkpt><trkpt lat="41.3267214" lon="1.9464944"><ele>411.0</ele><time>2026-05-04T17:30:56.953Z</time></trkpt><trkpt lat="41.3267215" lon="1.9466082"><ele>411.0</ele><time>2026-05-04T17:30:57.954Z</time></trkpt><trkpt lat="41.3267008" lon="1.9467224"><ele>411.4</ele><time>2026-05-04T17:30:58.954Z</time></trkpt><trkpt lat="41.3266603" lon="1.946829"><ele>411.8</ele><time>2026-05-04T17:30:59.954Z</time></trkpt><trkpt lat="41.3265892" lon="1.9469093"><ele>412.2</ele><time>2026-05-04T17:31:00.954Z</time></trkpt><trkpt lat="41.3265143" lon="1.9469817"><ele>412.59999999999997</ele><time>2026-05-04T17:31:01.954Z</time></trkpt><trkpt lat="41.3264266" lon="1.9470412"><ele>413.0</ele><time>2026-05-04T17:31:02.954Z</time></trkpt><trkpt lat="41.3263303" lon="1.947091"><ele>413.0</ele><time>2026-05-04T17:31:03.954Z</time></trkpt><trkpt lat="41.3262321" lon="1.9471381"><ele>413.0</ele><time>2026-05-04T17:31:04.954Z</time></trkpt><trkpt lat="41.3261354" lon="1.947182"><ele>413.0</ele><time>2026-05-04T17:31:05.954Z</time></trkpt><trkpt lat="41.3260431" lon="1.947237"><ele>413.0</ele><time>2026-05-04T17:31:06.953Z</time></trkpt><trkpt lat="41.3259558" lon="1.9473101"><ele>413.0</ele><time>2026-05-04T17:31:07.954Z</time></trkpt><trkpt lat="41.325873" lon="1.9473935"><ele>413.0</ele><time>2026-05-04T17:31:08.954Z</time></trkpt><trkpt lat="41.3257967" lon="1.9474815"><ele>413.0</ele><time>2026-05-04T17:31:09.954Z</time></trkpt><trkpt lat="41.3257267" lon="1.9475757"><ele>413.0</ele><time>2026-05-04T17:31:10.953Z</time></trkpt><trkpt lat="41.3256602" lon="1.9476768"><ele>413.0</ele><time>2026-05-04T17:31:11.954Z</time></trkpt><trkpt lat="41.3255966" lon="1.9477787"><ele>413.0</ele><time>2026-05-04T17:31:12.953Z</time></trkpt><trkpt lat="41.3255387" lon="1.9478766"><ele>415.0</ele><time>2026-05-04T17:31:13.954Z</time></trkpt><trkpt lat="41.3254802" lon="1.9479791"><ele>417.0</ele><time>2026-05-04T17:31:14.954Z</time></trkpt><trkpt lat="41.3254262" lon="1.9480804"><ele>419.0</ele><time>2026-05-04T17:31:15.953Z</time></trkpt><trkpt lat="41.3253763" lon="1.9481985"><ele>421.0</ele><time>2026-05-04T17:31:16.953Z</time></trkpt><trkpt lat="41.3253244" lon="1.9483279"><ele>423.0</ele><time>2026-05-04T17:31:17.954Z</time></trkpt><trkpt lat="41.3252621" lon="1.9484556"><ele>415.0</ele><time>2026-05-04T17:31:18.954Z</time></trkpt><trkpt lat="41.3251905" lon="1.9485738"><ele>407.0</ele><time>2026-05-04T17:31:19.953Z</time></trkpt><trkpt lat="41.3251079" lon="1.9486828"><ele>399.0</ele><time>2026-05-04T17:31:20.954Z</time></trkpt><trkpt lat="41.3250185" lon="1.9487823"><ele>391.0</ele><time>2026-05-04T17:31:21.954Z</time></trkpt><trkpt lat="41.3249284" lon="1.9488693"><ele>391.0</ele><time>2026-05-04T17:31:22.954Z</time></trkpt><trkpt lat="41.3248329" lon="1.948954"><ele>391.0</ele><time>2026-05-04T17:31:23.953Z</time></trkpt><trkpt lat="41.3247346" lon="1.9490216"><ele>391.0</ele><time>2026-05-04T17:31:24.954Z</time></trkpt><trkpt lat="41.3246298" lon="1.9490673"><ele>391.0</ele><time>2026-05-04T17:31:25.954Z</time></trkpt><trkpt lat="41.3245166" lon="1.9490894"><ele>393.25</ele><time>2026-05-04T17:31:26.954Z</time></trkpt><trkpt lat="41.324395" lon="1.9490869"><ele>395.5</ele><time>2026-05-04T17:31:27.954Z</time></trkpt><trkpt lat="41.3242672" lon="1.9490699"><ele>397.75</ele><time>2026-05-04T17:31:28.953Z</time></trkpt><trkpt lat="41.3241356" lon="1.9490585"><ele>400.0</ele><time>2026-05-04T17:31:29.954Z</time></trkpt><trkpt lat="41.3239977" lon="1.9490645"><ele>402.25</ele><time>2026-05-04T17:31:30.954Z</time></trkpt><trkpt lat="41.3238639" lon="1.9490875"><ele>404.5</ele><time>2026-05-04T17:31:31.954Z</time></trkpt><trkpt lat="41.3237355" lon="1.9491325"><ele>406.75</ele><time>2026-05-04T17:31:32.954Z</time></trkpt><trkpt lat="41.3236028" lon="1.9491867"><ele>409.0</ele><time>2026-05-04T17:31:33.954Z</time></trkpt><trkpt lat="41.3234666" lon="1.9492492"><ele>401.25</ele><time>2026-05-04T17:31:34.953Z</time></trkpt><trkpt lat="41.3233323" lon="1.9493081"><ele>393.5</ele><time>2026-05-04T17:31:35.953Z</time></trkpt><trkpt lat="41.323201" lon="1.9493615"><ele>385.75</ele><time>2026-05-04T17:31:36.954Z</time></trkpt><trkpt lat="41.3230711" lon="1.9494091"><ele>378.0</ele><time>2026-05-04T17:31:37.953Z</time></trkpt><trkpt lat="41.3229483" lon="1.949449"><ele>378.0</ele><time>2026-05-04T17:31:38.953Z</time></trkpt><trkpt lat="41.3228415" lon="1.9494841"><ele>378.0</ele><time>2026-05-04T17:31:39.954Z</time></trkpt><trkpt lat="41.3227455" lon="1.9495116"><ele>378.0</ele><time>2026-05-04T17:31:40.954Z</time></trkpt><trkpt lat="41.3226582" lon="1.9495406"><ele>378.0</ele><time>2026-05-04T17:31:41.954Z</time></trkpt><trkpt lat="41.3225807" lon="1.9495815"><ele>378.0</ele><time>2026-05-04T17:31:42.954Z</time></trkpt><trkpt lat="41.3225209" lon="1.9496393"><ele>378.0</ele><time>2026-05-04T17:31:43.954Z</time></trkpt><trkpt lat="41.3224894" lon="1.9497246"><ele>378.0</ele><time>2026-05-04T17:31:44.953Z</time></trkpt><trkpt lat="41.3225424" lon="1.9498603"><ele>378.0</ele><time>2026-05-04T17:31:46.954Z</time></trkpt><trkpt lat="41.3226702" lon="1.9498505"><ele>378.0</ele><time>2026-05-04T17:31:48.954Z</time></trkpt><trkpt lat="41.3227467" lon="1.9498049"><ele>378.0</ele><time>2026-05-04T17:31:49.954Z</time></trkpt><trkpt lat="41.3228363" lon="1.9497503"><ele>378.0</ele><time>2026-05-04T17:31:50.953Z</time></trkpt><trkpt lat="41.3229374" lon="1.9497046"><ele>378.0</ele><time>2026-05-04T17:31:51.954Z</time></trkpt><trkpt lat="41.3230465" lon="1.9496677"><ele>378.0</ele><time>2026-05-04T17:31:52.954Z</time></trkpt><trkpt lat="41.3231609" lon="1.9496407"><ele>378.0</ele><time>2026-05-04T17:31:53.954Z</time></trkpt><trkpt lat="41.323276" lon="1.9496236"><ele>374.75</ele><time>2026-05-04T17:31:54.954Z</time></trkpt><trkpt lat="41.3233958" lon="1.9496039"><ele>371.5</ele><time>2026-05-04T17:31:55.953Z</time></trkpt><trkpt lat="41.3235144" lon="1.9495834"><ele>368.25</ele><time>2026-05-04T17:31:56.954Z</time></trkpt><trkpt lat="41.3236367" lon="1.9495643"><ele>365.0</ele><time>2026-05-04T17:31:57.954Z</time></trkpt><trkpt lat="41.3237606" lon="1.9495434"><ele>365.0</ele><time>2026-05-04T17:31:58.954Z</time></trkpt><trkpt lat="41.3238849" lon="1.9495246"><ele>365.0</ele><time>2026-05-04T17:31:59.954Z</time></trkpt><trkpt lat="41.3240119" lon="1.9495166"><ele>365.0</ele><time>2026-05-04T17:32:00.954Z</time></trkpt><trkpt lat="41.3241334" lon="1.9495464"><ele>365.0</ele><time>2026-05-04T17:32:01.954Z</time></trkpt><trkpt lat="41.3242449" lon="1.9496112"><ele>364.25</ele><time>2026-05-04T17:32:02.954Z</time></trkpt><trkpt lat="41.3243568" lon="1.9496849"><ele>363.5</ele><time>2026-05-04T17:32:03.954Z</time></trkpt><trkpt lat="41.3244728" lon="1.9497338"><ele>362.75</ele><time>2026-05-04T17:32:04.954Z</time></trkpt><trkpt lat="41.3245906" lon="1.9497604"><ele>362.0</ele><time>2026-05-04T17:32:05.954Z</time></trkpt><trkpt lat="41.3247145" lon="1.9497562"><ele>361.0</ele><time>2026-05-04T17:32:06.954Z</time></trkpt><trkpt lat="41.3248427" lon="1.9497241"><ele>360.0</ele><time>2026-05-04T17:32:07.954Z</time></trkpt><trkpt lat="41.3249667" lon="1.9496794"><ele>359.0</ele><time>2026-05-04T17:32:08.954Z</time></trkpt><trkpt lat="41.3250864" lon="1.9496264"><ele>358.0</ele><time>2026-05-04T17:32:09.954Z</time></trkpt><trkpt lat="41.3252076" lon="1.9495744"><ele>358.0</ele><time>2026-05-04T17:32:10.954Z</time></trkpt><trkpt lat="41.3253275" lon="1.9495272"><ele>358.0</ele><time>2026-05-04T17:32:11.953Z</time></trkpt><trkpt lat="41.3254436" lon="1.9494816"><ele>358.0</ele><time>2026-05-04T17:32:12.954Z</time></trkpt><trkpt lat="41.3255456" lon="1.9494361"><ele>358.0</ele><time>2026-05-04T17:32:13.954Z</time></trkpt><trkpt lat="41.3256351" lon="1.9493956"><ele>358.0</ele><time>2026-05-04T17:32:14.954Z</time></trkpt><trkpt lat="41.3257251" lon="1.9493634"><ele>356.7142857142857</ele><time>2026-05-04T17:32:15.954Z</time></trkpt><trkpt lat="41.3258154" lon="1.9493493"><ele>355.42857142857144</ele><time>2026-05-04T17:32:16.954Z</time></trkpt><trkpt lat="41.3258919" lon="1.949359"><ele>354.1428571428571</ele><time>2026-05-04T17:32:17.954Z</time></trkpt><trkpt lat="41.3259556" lon="1.9494104"><ele>352.8571428571429</ele><time>2026-05-04T17:32:18.953Z</time></trkpt><trkpt lat="41.3259865" lon="1.9494911"><ele>351.57142857142856</ele><time>2026-05-04T17:32:19.954Z</time></trkpt><trkpt lat="41.3259735" lon="1.9495733"><ele>350.2857142857143</ele><time>2026-05-04T17:32:20.954Z</time></trkpt><trkpt lat="41.3259209" lon="1.9496355"><ele>349.0</ele><time>2026-05-04T17:32:21.954Z</time></trkpt><trkpt lat="41.3258479" lon="1.9496681"><ele>349.0</ele><time>2026-05-04T17:32:22.954Z</time></trkpt><trkpt lat="41.3257589" lon="1.9496756"><ele>349.0</ele><time>2026-05-04T17:32:23.954Z</time></trkpt><trkpt lat="41.3256588" lon="1.9496726"><ele>349.0</ele><time>2026-05-04T17:32:24.954Z</time></trkpt><trkpt lat="41.3255489" lon="1.9496934"><ele>349.0</ele><time>2026-05-04T17:32:25.954Z</time></trkpt><trkpt lat="41.3254353" lon="1.9497399"><ele>349.0</ele><time>2026-05-04T17:32:26.954Z</time></trkpt><trkpt lat="41.3253267" lon="1.9498162"><ele>351.25</ele><time>2026-05-04T17:32:27.953Z</time></trkpt><trkpt lat="41.3252169" lon="1.9499175"><ele>353.5</ele><time>2026-05-04T17:32:28.954Z</time></trkpt><trkpt lat="41.3251035" lon="1.9500237"><ele>355.75</ele><time>2026-05-04T17:32:29.954Z</time></trkpt><trkpt lat="41.3249862" lon="1.9501291"><ele>358.0</ele><time>2026-05-04T17:32:30.954Z</time></trkpt><trkpt lat="41.3248755" lon="1.9502307"><ele>350.5</ele><time>2026-05-04T17:32:31.953Z</time></trkpt><trkpt lat="41.3247692" lon="1.9503136"><ele>343.0</ele><time>2026-05-04T17:32:32.954Z</time></trkpt><trkpt lat="41.3246647" lon="1.9503659"><ele>335.5</ele><time>2026-05-04T17:32:33.953Z</time></trkpt><trkpt lat="41.3245503" lon="1.9503855"><ele>328.0</ele><time>2026-05-04T17:32:34.953Z</time></trkpt><trkpt lat="41.3244344" lon="1.9503742"><ele>327.75</ele><time>2026-05-04T17:32:35.954Z</time></trkpt><trkpt lat="41.3243232" lon="1.9503406"><ele>327.5</ele><time>2026-05-04T17:32:36.954Z</time></trkpt><trkpt lat="41.3242017" lon="1.9503213"><ele>327.25</ele><time>2026-05-04T17:32:37.953Z</time></trkpt><trkpt lat="41.3240685" lon="1.9503209"><ele>327.0</ele><time>2026-05-04T17:32:38.953Z</time></trkpt><trkpt lat="41.3239362" lon="1.9503155"><ele>327.0</ele><time>2026-05-04T17:32:39.953Z</time></trkpt><trkpt lat="41.323805" lon="1.9503234"><ele>327.0</ele><time>2026-05-04T17:32:40.954Z</time></trkpt><trkpt lat="41.3236751" lon="1.9503497"><ele>327.0</ele><time>2026-05-04T17:32:41.953Z</time></trkpt><trkpt lat="41.3235467" lon="1.9503953"><ele>327.0</ele><time>2026-05-04T17:32:42.954Z</time></trkpt><trkpt lat="41.32342" lon="1.9504609"><ele>327.0</ele><time>2026-05-04T17:32:43.954Z</time></trkpt><trkpt lat="41.3232957" lon="1.9505285"><ele>327.0</ele><time>2026-05-04T17:32:44.954Z</time></trkpt><trkpt lat="41.3231734" lon="1.9505957"><ele>327.0</ele><time>2026-05-04T17:32:45.954Z</time></trkpt><trkpt lat="41.3230537" lon="1.9506649"><ele>327.0</ele><time>2026-05-04T17:32:46.954Z</time></trkpt><trkpt lat="41.3229354" lon="1.9507228"><ele>329.0</ele><time>2026-05-04T17:32:47.954Z</time></trkpt><trkpt lat="41.3228123" lon="1.9507694"><ele>331.0</ele><time>2026-05-04T17:32:48.954Z</time></trkpt><trkpt lat="41.3226893" lon="1.9508083"><ele>333.0</ele><time>2026-05-04T17:32:49.954Z</time></trkpt><trkpt lat="41.3225663" lon="1.9508466"><ele>335.0</ele><time>2026-05-04T17:32:50.953Z</time></trkpt><trkpt lat="41.322442" lon="1.9508758"><ele>334.0</ele><time>2026-05-04T17:32:51.954Z</time></trkpt><trkpt lat="41.3223102" lon="1.9508932"><ele>333.0</ele><time>2026-05-04T17:32:52.955Z</time></trkpt><trkpt lat="41.3221842" lon="1.9509167"><ele>332.0</ele><time>2026-05-04T17:32:53.954Z</time></trkpt><trkpt lat="41.322066" lon="1.9509647"><ele>331.0</ele><time>2026-05-04T17:32:54.955Z</time></trkpt><trkpt lat="41.3219608" lon="1.9510261"><ele>331.0</ele><time>2026-05-04T17:32:55.954Z</time></trkpt><trkpt lat="41.3218706" lon="1.9511141"><ele>331.0</ele><time>2026-05-04T17:32:56.954Z</time></trkpt><trkpt lat="41.3217926" lon="1.9512133"><ele>331.0</ele><time>2026-05-04T17:32:57.955Z</time></trkpt><trkpt lat="41.3217409" lon="1.951326"><ele>331.0</ele><time>2026-05-04T17:32:58.954Z</time></trkpt><trkpt lat="41.3217116" lon="1.9514538"><ele>331.0</ele><time>2026-05-04T17:32:59.954Z</time></trkpt><trkpt lat="41.3217024" lon="1.9515919"><ele>327.2</ele><time>2026-05-04T17:33:00.955Z</time></trkpt><trkpt lat="41.3217219" lon="1.9517246"><ele>323.40000000000003</ele><time>2026-05-04T17:33:01.955Z</time></trkpt><trkpt lat="41.3217525" lon="1.9518564"><ele>319.6</ele><time>2026-05-04T17:33:02.955Z</time></trkpt><trkpt lat="41.3217658" lon="1.9519825"><ele>315.8</ele><time>2026-05-04T17:33:03.955Z</time></trkpt><trkpt lat="41.3217538" lon="1.9521116"><ele>312.0</ele><time>2026-05-04T17:33:04.955Z</time></trkpt><trkpt lat="41.321712" lon="1.9522266"><ele>312.0</ele><time>2026-05-04T17:33:05.955Z</time></trkpt><trkpt lat="41.3216435" lon="1.9523331"><ele>312.0</ele><time>2026-05-04T17:33:06.955Z</time></trkpt><trkpt lat="41.3215569" lon="1.9524283"><ele>312.0</ele><time>2026-05-04T17:33:07.954Z</time></trkpt><trkpt lat="41.3214658" lon="1.9525166"><ele>312.0</ele><time>2026-05-04T17:33:08.955Z</time></trkpt><trkpt lat="41.321374" lon="1.952611"><ele>312.0</ele><time>2026-05-04T17:33:09.954Z</time></trkpt><trkpt lat="41.3212997" lon="1.9527256"><ele>311.6</ele><time>2026-05-04T17:33:10.955Z</time></trkpt><trkpt lat="41.3212398" lon="1.9528641"><ele>311.2</ele><time>2026-05-04T17:33:11.955Z</time></trkpt><trkpt lat="41.3211919" lon="1.9530016"><ele>310.8</ele><time>2026-05-04T17:33:12.955Z</time></trkpt><trkpt lat="41.3211489" lon="1.9531367"><ele>310.4</ele><time>2026-05-04T17:33:13.954Z</time></trkpt><trkpt lat="41.3211004" lon="1.9532596"><ele>310.0</ele><time>2026-05-04T17:33:14.954Z</time></trkpt><trkpt lat="41.3210371" lon="1.953363"><ele>304.6</ele><time>2026-05-04T17:33:15.955Z</time></trkpt><trkpt lat="41.3209607" lon="1.9534342"><ele>299.2</ele><time>2026-05-04T17:33:16.955Z</time></trkpt><trkpt lat="41.3208654" lon="1.9534718"><ele>293.8</ele><time>2026-05-04T17:33:17.955Z</time></trkpt><trkpt lat="41.3207573" lon="1.9534879"><ele>288.4</ele><time>2026-05-04T17:33:18.955Z</time></trkpt><trkpt lat="41.320641" lon="1.9534827"><ele>283.0</ele><time>2026-05-04T17:33:19.955Z</time></trkpt><trkpt lat="41.3205186" lon="1.9534744"><ele>282.0</ele><time>2026-05-04T17:33:20.955Z</time></trkpt><trkpt lat="41.3203986" lon="1.9534585"><ele>281.0</ele><time>2026-05-04T17:33:21.955Z</time></trkpt><trkpt lat="41.3202921" lon="1.9534325"><ele>280.0</ele><time>2026-05-04T17:33:22.955Z</time></trkpt><trkpt lat="41.3201946" lon="1.9533788"><ele>279.0</ele><time>2026-05-04T17:33:23.954Z</time></trkpt><trkpt lat="41.3201072" lon="1.9532998"><ele>278.0</ele><time>2026-05-04T17:33:24.955Z</time></trkpt><trkpt lat="41.3200336" lon="1.9532066"><ele>282.2</ele><time>2026-05-04T17:33:25.954Z</time></trkpt><trkpt lat="41.3199553" lon="1.953115"><ele>286.4</ele><time>2026-05-04T17:33:26.955Z</time></trkpt><trkpt lat="41.3198657" lon="1.9530504"><ele>290.59999999999997</ele><time>2026-05-04T17:33:27.955Z</time></trkpt><trkpt lat="41.3197664" lon="1.9530015"><ele>294.8</ele><time>2026-05-04T17:33:28.955Z</time></trkpt><trkpt lat="41.3196687" lon="1.9529887"><ele>299.0</ele><time>2026-05-04T17:33:29.955Z</time></trkpt><trkpt lat="41.3195765" lon="1.9530071"><ele>300.8</ele><time>2026-05-04T17:33:30.955Z</time></trkpt><trkpt lat="41.3194989" lon="1.9530587"><ele>302.59999999999997</ele><time>2026-05-04T17:33:31.955Z</time></trkpt><trkpt lat="41.3194428" lon="1.9531469"><ele>304.4</ele><time>2026-05-04T17:33:32.955Z</time></trkpt><trkpt lat="41.3194" lon="1.9532676"><ele>306.2</ele><time>2026-05-04T17:33:33.955Z</time></trkpt><trkpt lat="41.3193658" lon="1.9534054"><ele>308.0</ele><time>2026-05-04T17:33:34.955Z</time></trkpt><trkpt lat="41.3193386" lon="1.9535576"><ele>308.0</ele><time>2026-05-04T17:33:35.955Z</time></trkpt><trkpt lat="41.3193044" lon="1.9537203"><ele>308.0</ele><time>2026-05-04T17:33:36.955Z</time></trkpt><trkpt lat="41.3192738" lon="1.9538841"><ele>308.0</ele><time>2026-05-04T17:33:37.955Z</time></trkpt><trkpt lat="41.3192513" lon="1.9540507"><ele>308.0</ele><time>2026-05-04T17:33:38.955Z</time></trkpt><trkpt lat="41.3192479" lon="1.9542212"><ele>305.5</ele><time>2026-05-04T17:33:39.954Z</time></trkpt><trkpt lat="41.3192776" lon="1.954395"><ele>303.0</ele><time>2026-05-04T17:33:40.954Z</time></trkpt><trkpt lat="41.3193015" lon="1.9545611"><ele>300.5</ele><time>2026-05-04T17:33:41.955Z</time></trkpt><trkpt lat="41.3193059" lon="1.9547192"><ele>298.0</ele><time>2026-05-04T17:33:42.955Z</time></trkpt><trkpt lat="41.3192786" lon="1.9548683"><ele>298.0</ele><time>2026-05-04T17:33:43.955Z</time></trkpt><trkpt lat="41.3192339" lon="1.9550142"><ele>298.0</ele><time>2026-05-04T17:33:44.954Z</time></trkpt><trkpt lat="41.3192009" lon="1.9551494"><ele>298.0</ele><time>2026-05-04T17:33:45.955Z</time></trkpt><trkpt lat="41.3191889" lon="1.9552865"><ele>298.0</ele><time>2026-05-04T17:33:46.955Z</time></trkpt><trkpt lat="41.3192111" lon="1.9554191"><ele>298.0</ele><time>2026-05-04T17:33:47.955Z</time></trkpt><trkpt lat="41.3192558" lon="1.9555533"><ele>297.75</ele><time>2026-05-04T17:33:48.955Z</time></trkpt><trkpt lat="41.3193075" lon="1.9556838"><ele>297.5</ele><time>2026-05-04T17:33:49.955Z</time></trkpt><trkpt lat="41.3193632" lon="1.9558198"><ele>297.25</ele><time>2026-05-04T17:33:50.954Z</time></trkpt><trkpt lat="41.3194199" lon="1.9559622"><ele>297.0</ele><time>2026-05-04T17:33:51.955Z</time></trkpt><trkpt lat="41.3194611" lon="1.9561074"><ele>296.0</ele><time>2026-05-04T17:33:52.954Z</time></trkpt><trkpt lat="41.3194814" lon="1.9562567"><ele>295.0</ele><time>2026-05-04T17:33:53.955Z</time></trkpt><trkpt lat="41.3194805" lon="1.9564069"><ele>294.0</ele><time>2026-05-04T17:33:54.955Z</time></trkpt><trkpt lat="41.3194515" lon="1.9565344"><ele>293.0</ele><time>2026-05-04T17:33:55.955Z</time></trkpt><trkpt lat="41.3193974" lon="1.9566505"><ele>292.0</ele><time>2026-05-04T17:33:56.955Z</time></trkpt><trkpt lat="41.3193195" lon="1.956754"><ele>289.0</ele><time>2026-05-04T17:33:57.955Z</time></trkpt><trkpt lat="41.3192339" lon="1.9568555"><ele>286.0</ele><time>2026-05-04T17:33:58.955Z</time></trkpt><trkpt lat="41.3191588" lon="1.9569729"><ele>283.0</ele><time>2026-05-04T17:33:59.955Z</time></trkpt><trkpt lat="41.3191072" lon="1.957107"><ele>280.0</ele><time>2026-05-04T17:34:00.955Z</time></trkpt><trkpt lat="41.3190759" lon="1.9572578"><ele>280.0</ele><time>2026-05-04T17:34:01.955Z</time></trkpt><trkpt lat="41.3190618" lon="1.9574182"><ele>280.0</ele><time>2026-05-04T17:34:02.955Z</time></trkpt><trkpt lat="41.3190539" lon="1.9575641"><ele>280.0</ele><time>2026-05-04T17:34:03.954Z</time></trkpt><trkpt lat="41.3190264" lon="1.9576937"><ele>280.0</ele><time>2026-05-04T17:34:04.955Z</time></trkpt><trkpt lat="41.3189833" lon="1.9577961"><ele>280.0</ele><time>2026-05-04T17:34:05.954Z</time></trkpt><trkpt lat="41.3189235" lon="1.9578599"><ele>279.0</ele><time>2026-05-04T17:34:06.954Z</time></trkpt><trkpt lat="41.3188551" lon="1.9578719"><ele>278.0</ele><time>2026-05-04T17:34:07.954Z</time></trkpt><trkpt lat="41.3187898" lon="1.9578494"><ele>277.0</ele><time>2026-05-04T17:34:08.955Z</time></trkpt><trkpt lat="41.3187238" lon="1.9577887"><ele>276.0</ele><time>2026-05-04T17:34:09.955Z</time></trkpt><trkpt lat="41.3186683" lon="1.9576999"><ele>275.0</ele><time>2026-05-04T17:34:10.955Z</time></trkpt><trkpt lat="41.3186158" lon="1.9575911"><ele>274.0</ele><time>2026-05-04T17:34:11.955Z</time></trkpt><trkpt lat="41.3185712" lon="1.9574647"><ele>274.0</ele><time>2026-05-04T17:34:12.955Z</time></trkpt><trkpt lat="41.3185366" lon="1.9573257"><ele>274.0</ele><time>2026-05-04T17:34:13.955Z</time></trkpt><trkpt lat="41.3184999" lon="1.9571767"><ele>274.0</ele><time>2026-05-04T17:34:14.955Z</time></trkpt><trkpt lat="41.3184516" lon="1.9570289"><ele>274.0</ele><time>2026-05-04T17:34:15.955Z</time></trkpt><trkpt lat="41.318386" lon="1.9568861"><ele>274.0</ele><time>2026-05-04T17:34:16.955Z</time></trkpt><trkpt lat="41.3183113" lon="1.9567477"><ele>274.0</ele><time>2026-05-04T17:34:17.954Z</time></trkpt><trkpt lat="41.3182299" lon="1.9566265"><ele>274.0</ele><time>2026-05-04T17:34:18.955Z</time></trkpt><trkpt lat="41.3181454" lon="1.9565018"><ele>274.0</ele><time>2026-05-04T17:34:19.955Z</time></trkpt><trkpt lat="41.3180554" lon="1.9563849"><ele>271.0</ele><time>2026-05-04T17:34:20.954Z</time></trkpt><trkpt lat="41.3179633" lon="1.9562857"><ele>268.0</ele><time>2026-05-04T17:34:21.955Z</time></trkpt><trkpt lat="41.3178783" lon="1.9561785"><ele>265.0</ele><time>2026-05-04T17:34:22.955Z</time></trkpt><trkpt lat="41.3178089" lon="1.9560495"><ele>262.0</ele><time>2026-05-04T17:34:23.955Z</time></trkpt><trkpt lat="41.3177488" lon="1.955915"><ele>266.75</ele><time>2026-05-04T17:34:24.955Z</time></trkpt><trkpt lat="41.3176778" lon="1.9557828"><ele>271.5</ele><time>2026-05-04T17:34:25.955Z</time></trkpt><trkpt lat="41.3175913" lon="1.9556649"><ele>276.25</ele><time>2026-05-04T17:34:26.954Z</time></trkpt><trkpt lat="41.3174987" lon="1.9555517"><ele>281.0</ele><time>2026-05-04T17:34:27.955Z</time></trkpt><trkpt lat="41.3173992" lon="1.9554547"><ele>281.0</ele><time>2026-05-04T17:34:28.954Z</time></trkpt><trkpt lat="41.3172956" lon="1.9553718"><ele>281.0</ele><time>2026-05-04T17:34:29.955Z</time></trkpt><trkpt lat="41.3172029" lon="1.9552746"><ele>281.0</ele><time>2026-05-04T17:34:30.955Z</time></trkpt><trkpt lat="41.3171302" lon="1.9551621"><ele>281.0</ele><time>2026-05-04T17:34:31.955Z</time></trkpt><trkpt lat="41.3170681" lon="1.9550491"><ele>282.0</ele><time>2026-05-04T17:34:32.955Z</time></trkpt><trkpt lat="41.3170085" lon="1.9549539"><ele>283.0</ele><time>2026-05-04T17:34:33.955Z</time></trkpt><trkpt lat="41.3169368" lon="1.9548689"><ele>284.0</ele><time>2026-05-04T17:34:34.955Z</time></trkpt><trkpt lat="41.3168624" lon="1.954813"><ele>285.0</ele><time>2026-05-04T17:34:35.955Z</time></trkpt><trkpt lat="41.3167848" lon="1.9547976"><ele>286.0</ele><time>2026-05-04T17:34:36.955Z</time></trkpt><trkpt lat="41.3167084" lon="1.9548306"><ele>287.0</ele><time>2026-05-04T17:34:37.954Z</time></trkpt><trkpt lat="41.3166426" lon="1.9549113"><ele>287.0</ele><time>2026-05-04T17:34:38.954Z</time></trkpt><trkpt lat="41.3165848" lon="1.9550194"><ele>287.0</ele><time>2026-05-04T17:34:39.955Z</time></trkpt><trkpt lat="41.3165287" lon="1.9551421"><ele>287.0</ele><time>2026-05-04T17:34:40.955Z</time></trkpt><trkpt lat="41.3164724" lon="1.9552766"><ele>287.0</ele><time>2026-05-04T17:34:41.955Z</time></trkpt><trkpt lat="41.3164139" lon="1.9554287"><ele>285.0</ele><time>2026-05-04T17:34:42.955Z</time></trkpt><trkpt lat="41.3163666" lon="1.9555886"><ele>283.0</ele><time>2026-05-04T17:34:43.954Z</time></trkpt><trkpt lat="41.3163272" lon="1.9557548"><ele>281.0</ele><time>2026-05-04T17:34:44.955Z</time></trkpt><trkpt lat="41.3162833" lon="1.9559221"><ele>279.0</ele><time>2026-05-04T17:34:45.955Z</time></trkpt><trkpt lat="41.3162341" lon="1.9560971"><ele>279.0</ele><time>2026-05-04T17:34:46.955Z</time></trkpt><trkpt lat="41.3161719" lon="1.9562648"><ele>279.0</ele><time>2026-05-04T17:34:47.955Z</time></trkpt><trkpt lat="41.3160989" lon="1.9564214"><ele>279.0</ele><time>2026-05-04T17:34:48.955Z</time></trkpt><trkpt lat="41.316015" lon="1.9565782"><ele>279.0</ele><time>2026-05-04T17:34:49.954Z</time></trkpt><trkpt lat="41.3159352" lon="1.9567319"><ele>275.0</ele><time>2026-05-04T17:34:50.955Z</time></trkpt><trkpt lat="41.3158577" lon="1.956884"><ele>271.0</ele><time>2026-05-04T17:34:51.955Z</time></trkpt><trkpt lat="41.3157842" lon="1.9570254"><ele>267.0</ele><time>2026-05-04T17:34:52.954Z</time></trkpt><trkpt lat="41.3157171" lon="1.9571608"><ele>263.0</ele><time>2026-05-04T17:34:53.955Z</time></trkpt><trkpt lat="41.3156593" lon="1.9573004"><ele>263.0</ele><time>2026-05-04T17:34:54.955Z</time></trkpt><trkpt lat="41.3156179" lon="1.9574543"><ele>263.0</ele><time>2026-05-04T17:34:55.955Z</time></trkpt><trkpt lat="41.3156054" lon="1.9576122"><ele>263.0</ele><time>2026-05-04T17:34:56.955Z</time></trkpt><trkpt lat="41.3156161" lon="1.9577666"><ele>263.0</ele><time>2026-05-04T17:34:57.954Z</time></trkpt><trkpt lat="41.3156467" lon="1.9579105"><ele>262.2</ele><time>2026-05-04T17:34:58.955Z</time></trkpt><trkpt lat="41.3156945" lon="1.9580492"><ele>261.4</ele><time>2026-05-04T17:34:59.955Z</time></trkpt><trkpt lat="41.3157507" lon="1.9581819"><ele>260.59999999999997</ele><time>2026-05-04T17:35:00.955Z</time></trkpt><trkpt lat="41.3157964" lon="1.9583141"><ele>259.8</ele><time>2026-05-04T17:35:01.954Z</time></trkpt><trkpt lat="41.3158176" lon="1.9584546"><ele>259.0</ele><time>2026-05-04T17:35:02.955Z</time></trkpt><trkpt lat="41.3158097" lon="1.9586119"><ele>258.0</ele><time>2026-05-04T17:35:03.955Z</time></trkpt><trkpt lat="41.3157883" lon="1.958779"><ele>257.0</ele><time>2026-05-04T17:35:04.955Z</time></trkpt><trkpt lat="41.3157706" lon="1.9589562"><ele>256.0</ele><time>2026-05-04T17:35:05.955Z</time></trkpt><trkpt lat="41.3157522" lon="1.9591325"><ele>255.0</ele><time>2026-05-04T17:35:06.955Z</time></trkpt><trkpt lat="41.3157309" lon="1.9592928"><ele>255.6</ele><time>2026-05-04T17:35:07.955Z</time></trkpt><trkpt lat="41.3156959" lon="1.9594331"><ele>256.2</ele><time>2026-05-04T17:35:08.955Z</time></trkpt><trkpt lat="41.3156441" lon="1.9595526"><ele>256.8</ele><time>2026-05-04T17:35:09.955Z</time></trkpt><trkpt lat="41.3155752" lon="1.95963"><ele>257.4</ele><time>2026-05-04T17:35:10.955Z</time></trkpt><trkpt lat="41.3154765" lon="1.9596731"><ele>258.0</ele><time>2026-05-04T17:35:11.954Z</time></trkpt><trkpt lat="41.3153717" lon="1.9597137"><ele>258.0</ele><time>2026-05-04T17:35:12.955Z</time></trkpt><trkpt lat="41.3152772" lon="1.9597841"><ele>258.0</ele><time>2026-05-04T17:35:13.955Z</time></trkpt><trkpt lat="41.3151975" lon="1.9598885"><ele>258.0</ele><time>2026-05-04T17:35:14.954Z</time></trkpt><trkpt lat="41.3151364" lon="1.96002"><ele>258.0</ele><time>2026-05-04T17:35:15.955Z</time></trkpt><trkpt lat="41.3150869" lon="1.960163"><ele>254.75</ele><time>2026-05-04T17:35:16.954Z</time></trkpt><trkpt lat="41.3150391" lon="1.9603071"><ele>251.5</ele><time>2026-05-04T17:35:17.955Z</time></trkpt><trkpt lat="41.3149798" lon="1.9604355"><ele>248.25</ele><time>2026-05-04T17:35:18.955Z</time></trkpt><trkpt lat="41.314919" lon="1.9605747"><ele>245.0</ele><time>2026-05-04T17:35:19.955Z</time></trkpt><trkpt lat="41.3148643" lon="1.9607266"><ele>244.0</ele><time>2026-05-04T17:35:20.955Z</time></trkpt><trkpt lat="41.3148234" lon="1.9608923"><ele>243.0</ele><time>2026-05-04T17:35:21.954Z</time></trkpt><trkpt lat="41.3147981" lon="1.9610683"><ele>242.0</ele><time>2026-05-04T17:35:22.955Z</time></trkpt><trkpt lat="41.3147814" lon="1.9612475"><ele>241.0</ele><time>2026-05-04T17:35:23.955Z</time></trkpt><trkpt lat="41.3147753" lon="1.9614268"><ele>241.0</ele><time>2026-05-04T17:35:24.955Z</time></trkpt><trkpt lat="41.314769" lon="1.9616079"><ele>241.0</ele><time>2026-05-04T17:35:25.955Z</time></trkpt><trkpt lat="41.3147594" lon="1.9617908"><ele>241.0</ele><time>2026-05-04T17:35:26.955Z</time></trkpt><trkpt lat="41.3147514" lon="1.9619698"><ele>241.0</ele><time>2026-05-04T17:35:27.955Z</time></trkpt><trkpt lat="41.3147423" lon="1.9621435"><ele>236.75</ele><time>2026-05-04T17:35:28.955Z</time></trkpt><trkpt lat="41.3147375" lon="1.9623068"><ele>232.5</ele><time>2026-05-04T17:35:29.955Z</time></trkpt><trkpt lat="41.3147272" lon="1.9624642"><ele>228.25</ele><time>2026-05-04T17:35:30.955Z</time></trkpt><trkpt lat="41.3147237" lon="1.9626186"><ele>224.0</ele><time>2026-05-04T17:35:31.955Z</time></trkpt><trkpt lat="41.3147265" lon="1.9627664"><ele>229.75</ele><time>2026-05-04T17:35:32.955Z</time></trkpt><trkpt lat="41.3147379" lon="1.9629174"><ele>235.5</ele><time>2026-05-04T17:35:33.955Z</time></trkpt><trkpt lat="41.3147599" lon="1.9630689"><ele>241.25</ele><time>2026-05-04T17:35:34.955Z</time></trkpt><trkpt lat="41.3147845" lon="1.9632248"><ele>247.0</ele><time>2026-05-04T17:35:35.956Z</time></trkpt><trkpt lat="41.3147987" lon="1.9633884"><ele>247.0</ele><time>2026-05-04T17:35:36.956Z</time></trkpt><trkpt lat="41.3147887" lon="1.9635525"><ele>247.0</ele><time>2026-05-04T17:35:37.956Z</time></trkpt><trkpt lat="41.3147653" lon="1.963721"><ele>247.0</ele><time>2026-05-04T17:35:38.956Z</time></trkpt><trkpt lat="41.3147357" lon="1.9638829"><ele>247.0</ele><time>2026-05-04T17:35:39.956Z</time></trkpt><trkpt lat="41.314704" lon="1.9640429"><ele>237.75</ele><time>2026-05-04T17:35:40.955Z</time></trkpt><trkpt lat="41.3146726" lon="1.9642052"><ele>228.5</ele><time>2026-05-04T17:35:41.956Z</time></trkpt><trkpt lat="41.3146558" lon="1.9643691"><ele>219.25</ele><time>2026-05-04T17:35:42.956Z</time></trkpt><trkpt lat="41.3146485" lon="1.9645371"><ele>210.0</ele><time>2026-05-04T17:35:43.956Z</time></trkpt><trkpt lat="41.314657" lon="1.9647002"><ele>210.0</ele><time>2026-05-04T17:35:44.956Z</time></trkpt><trkpt lat="41.3146782" lon="1.9648487"><ele>210.0</ele><time>2026-05-04T17:35:45.956Z</time></trkpt><trkpt lat="41.3146969" lon="1.9649935"><ele>210.0</ele><time>2026-05-04T17:35:46.955Z</time></trkpt><trkpt lat="41.3146932" lon="1.965139"><ele>210.0</ele><time>2026-05-04T17:35:47.956Z</time></trkpt><trkpt lat="41.3146556" lon="1.9652793"><ele>210.0</ele><time>2026-05-04T17:35:48.956Z</time></trkpt><trkpt lat="41.3145985" lon="1.9654016"><ele>212.5</ele><time>2026-05-04T17:35:49.956Z</time></trkpt><trkpt lat="41.3145236" lon="1.9655198"><ele>215.0</ele><time>2026-05-04T17:35:50.955Z</time></trkpt><trkpt lat="41.3144423" lon="1.9656432"><ele>217.5</ele><time>2026-05-04T17:35:51.956Z</time></trkpt><trkpt lat="41.3143607" lon="1.9657623"><ele>220.0</ele><time>2026-05-04T17:35:52.956Z</time></trkpt><trkpt lat="41.3142746" lon="1.9658823"><ele>222.5</ele><time>2026-05-04T17:35:53.956Z</time></trkpt><trkpt lat="41.3141869" lon="1.966004"><ele>225.0</ele><time>2026-05-04T17:35:54.956Z</time></trkpt><trkpt lat="41.3140975" lon="1.9661309"><ele>227.5</ele><time>2026-05-04T17:35:55.956Z</time></trkpt><trkpt lat="41.3140111" lon="1.9662552"><ele>230.0</ele><time>2026-05-04T17:35:56.956Z</time></trkpt><trkpt lat="41.3139307" lon="1.9663718"><ele>224.5</ele><time>2026-05-04T17:35:57.956Z</time></trkpt><trkpt lat="41.3138551" lon="1.9664924"><ele>219.0</ele><time>2026-05-04T17:35:58.956Z</time></trkpt><trkpt lat="41.3137925" lon="1.9666321"><ele>213.5</ele><time>2026-05-04T17:35:59.956Z</time></trkpt><trkpt lat="41.3137423" lon="1.9667883"><ele>208.0</ele><time>2026-05-04T17:36:00.955Z</time></trkpt><trkpt lat="41.3137061" lon="1.9669485"><ele>208.0</ele><time>2026-05-04T17:36:01.956Z</time></trkpt><trkpt lat="41.3136827" lon="1.9671271"><ele>208.0</ele><time>2026-05-04T17:36:02.956Z</time></trkpt><trkpt lat="41.3136748" lon="1.967302"><ele>208.0</ele><time>2026-05-04T17:36:03.956Z</time></trkpt><trkpt lat="41.3136741" lon="1.9674733"><ele>208.0</ele><time>2026-05-04T17:36:04.956Z</time></trkpt><trkpt lat="41.3136744" lon="1.9676348"><ele>206.75</ele><time>2026-05-04T17:36:05.956Z</time></trkpt><trkpt lat="41.3136689" lon="1.9677889"><ele>205.5</ele><time>2026-05-04T17:36:06.956Z</time></trkpt><trkpt lat="41.3136562" lon="1.9679428"><ele>204.25</ele><time>2026-05-04T17:36:07.956Z</time></trkpt><trkpt lat="41.313627" lon="1.9680959"><ele>203.0</ele><time>2026-05-04T17:36:08.956Z</time></trkpt><trkpt lat="41.3135784" lon="1.9682471"><ele>200.75</ele><time>2026-05-04T17:36:09.955Z</time></trkpt><trkpt lat="41.3135177" lon="1.9684026"><ele>198.5</ele><time>2026-05-04T17:36:10.955Z</time></trkpt><trkpt lat="41.313448" lon="1.9685644"><ele>196.25</ele><time>2026-05-04T17:36:11.956Z</time></trkpt><trkpt lat="41.3133798" lon="1.9687371"><ele>194.0</ele><time>2026-05-04T17:36:12.956Z</time></trkpt><trkpt lat="41.3133063" lon="1.9689154"><ele>194.0</ele><time>2026-05-04T17:36:13.956Z</time></trkpt><trkpt lat="41.3132306" lon="1.9690995"><ele>194.0</ele><time>2026-05-04T17:36:14.956Z</time></trkpt><trkpt lat="41.3131562" lon="1.9692871"><ele>194.0</ele><time>2026-05-04T17:36:15.956Z</time></trkpt><trkpt lat="41.3130783" lon="1.9694809"><ele>191.33333333333334</ele><time>2026-05-04T17:36:16.956Z</time></trkpt><trkpt lat="41.3130002" lon="1.9696783"><ele>188.66666666666669</ele><time>2026-05-04T17:36:17.955Z</time></trkpt><trkpt lat="41.3129238" lon="1.9698756"><ele>186.0</ele><time>2026-05-04T17:36:18.956Z</time></trkpt><trkpt lat="41.3128496" lon="1.9700648"><ele>185.66666666666666</ele><time>2026-05-04T17:36:19.956Z</time></trkpt><trkpt lat="41.3127762" lon="1.97025"><ele>185.33333333333331</ele><time>2026-05-04T17:36:20.956Z</time></trkpt><trkpt lat="41.3127047" lon="1.9704319"><ele>185.0</ele><time>2026-05-04T17:36:21.956Z</time></trkpt><trkpt lat="41.3126336" lon="1.9706081"><ele>185.0</ele><time>2026-05-04T17:36:22.956Z</time></trkpt><trkpt lat="41.3125587" lon="1.9707786"><ele>185.0</ele><time>2026-05-04T17:36:23.956Z</time></trkpt><trkpt lat="41.3124812" lon="1.9709503"><ele>185.0</ele><time>2026-05-04T17:36:24.955Z</time></trkpt><trkpt lat="41.3124038" lon="1.9711148"><ele>185.0</ele><time>2026-05-04T17:36:25.956Z</time></trkpt><trkpt lat="41.3123304" lon="1.9712772"><ele>185.0</ele><time>2026-05-04T17:36:26.955Z</time></trkpt><trkpt lat="41.312257" lon="1.9714356"><ele>185.0</ele><time>2026-05-04T17:36:27.956Z</time></trkpt><trkpt lat="41.3121794" lon="1.9715959"><ele>185.0</ele><time>2026-05-04T17:36:28.956Z</time></trkpt><trkpt lat="41.3121054" lon="1.9717591"><ele>185.0</ele><time>2026-05-04T17:36:29.956Z</time></trkpt><trkpt lat="41.3120384" lon="1.9719222"><ele>183.5</ele><time>2026-05-04T17:36:30.956Z</time></trkpt><trkpt lat="41.3119779" lon="1.9720866"><ele>182.0</ele><time>2026-05-04T17:36:31.956Z</time></trkpt><trkpt lat="41.3119251" lon="1.9722513"><ele>180.5</ele><time>2026-05-04T17:36:32.956Z</time></trkpt><trkpt lat="41.3118743" lon="1.9724026"><ele>179.0</ele><time>2026-05-04T17:36:33.955Z</time></trkpt><trkpt lat="41.3118168" lon="1.9725354"><ele>179.0</ele><time>2026-05-04T17:36:34.956Z</time></trkpt><trkpt lat="41.3117436" lon="1.9726453"><ele>179.0</ele><time>2026-05-04T17:36:35.956Z</time></trkpt><trkpt lat="41.3116525" lon="1.9727279"><ele>179.0</ele><time>2026-05-04T17:36:36.955Z</time></trkpt><trkpt lat="41.311556" lon="1.9727836"><ele>179.0</ele><time>2026-05-04T17:36:37.956Z</time></trkpt><trkpt lat="41.311464" lon="1.9728389"><ele>179.0</ele><time>2026-05-04T17:36:38.955Z</time></trkpt><trkpt lat="41.3113873" lon="1.9729108"><ele>172.75</ele><time>2026-05-04T17:36:39.956Z</time></trkpt><trkpt lat="41.3113253" lon="1.9730108"><ele>166.5</ele><time>2026-05-04T17:36:40.956Z</time></trkpt><trkpt lat="41.311279" lon="1.9731595"><ele>160.25</ele><time>2026-05-04T17:36:41.956Z</time></trkpt><trkpt lat="41.3112369" lon="1.9733286"><ele>154.0</ele><time>2026-05-04T17:36:42.956Z</time></trkpt><trkpt lat="41.3112019" lon="1.9734913"><ele>154.0</ele><time>2026-05-04T17:36:43.956Z</time></trkpt><trkpt lat="41.3111714" lon="1.9736639"><ele>154.0</ele><time>2026-05-04T17:36:44.956Z</time></trkpt><trkpt lat="41.311142" lon="1.9738343"><ele>154.0</ele><time>2026-05-04T17:36:45.956Z</time></trkpt><trkpt lat="41.3111176" lon="1.9740046"><ele>154.0</ele><time>2026-05-04T17:36:46.956Z</time></trkpt><trkpt lat="41.3110897" lon="1.9741789"><ele>156.75</ele><time>2026-05-04T17:36:47.956Z</time></trkpt><trkpt lat="41.3110593" lon="1.9743506"><ele>159.5</ele><time>2026-05-04T17:36:48.956Z</time></trkpt><trkpt lat="41.3110247" lon="1.9745119"><ele>162.25</ele><time>2026-05-04T17:36:49.955Z</time></trkpt><trkpt lat="41.31098" lon="1.9746593"><ele>165.0</ele><time>2026-05-04T17:36:50.956Z</time></trkpt><trkpt lat="41.3109208" lon="1.9747895"><ele>165.0</ele><time>2026-05-04T17:36:51.956Z</time></trkpt><trkpt lat="41.3108436" lon="1.9748995"><ele>165.0</ele><time>2026-05-04T17:36:52.956Z</time></trkpt><trkpt lat="41.3107474" lon="1.974989"><ele>165.0</ele><time>2026-05-04T17:36:53.956Z</time></trkpt><trkpt lat="41.3106374" lon="1.9750686"><ele>165.0</ele><time>2026-05-04T17:36:54.956Z</time></trkpt><trkpt lat="41.3105207" lon="1.9751415"><ele>162.5</ele><time>2026-05-04T17:36:55.956Z</time></trkpt><trkpt lat="41.3104085" lon="1.9752117"><ele>160.0</ele><time>2026-05-04T17:36:56.956Z</time></trkpt><trkpt lat="41.3103076" lon="1.9752905"><ele>157.5</ele><time>2026-05-04T17:36:57.956Z</time></trkpt><trkpt lat="41.3102138" lon="1.9753842"><ele>155.0</ele><time>2026-05-04T17:36:58.956Z</time></trkpt><trkpt lat="41.3101323" lon="1.9754996"><ele>155.0</ele><time>2026-05-04T17:36:59.956Z</time></trkpt><trkpt lat="41.3100572" lon="1.9756376"><ele>155.0</ele><time>2026-05-04T17:37:00.956Z</time></trkpt><trkpt lat="41.3099909" lon="1.9757895"><ele>155.0</ele><time>2026-05-04T17:37:01.956Z</time></trkpt><trkpt lat="41.3099364" lon="1.9759611"><ele>155.0</ele><time>2026-05-04T17:37:02.955Z</time></trkpt><trkpt lat="41.3098914" lon="1.9761412"><ele>153.75</ele><time>2026-05-04T17:37:03.956Z</time></trkpt><trkpt lat="41.309851" lon="1.9763306"><ele>152.5</ele><time>2026-05-04T17:37:04.955Z</time></trkpt><trkpt lat="41.3098082" lon="1.9765216"><ele>151.25</ele><time>2026-05-04T17:37:05.956Z</time></trkpt><trkpt lat="41.3097638" lon="1.9767147"><ele>150.0</ele><time>2026-05-04T17:37:06.956Z</time></trkpt><trkpt lat="41.3097199" lon="1.9769133"><ele>142.66666666666666</ele><time>2026-05-04T17:37:07.956Z</time></trkpt><trkpt lat="41.3096738" lon="1.977112"><ele>135.33333333333331</ele><time>2026-05-04T17:37:08.956Z</time></trkpt><trkpt lat="41.3096281" lon="1.9773168"><ele>128.0</ele><time>2026-05-04T17:37:09.956Z</time></trkpt><trkpt lat="41.3095834" lon="1.9775148"><ele>127.0</ele><time>2026-05-04T17:37:10.955Z</time></trkpt><trkpt lat="41.3095414" lon="1.9777116"><ele>126.0</ele><time>2026-05-04T17:37:11.956Z</time></trkpt><trkpt lat="41.3094964" lon="1.9779029"><ele>125.0</ele><time>2026-05-04T17:37:12.956Z</time></trkpt><trkpt lat="41.3094524" lon="1.9780959"><ele>125.0</ele><time>2026-05-04T17:37:13.955Z</time></trkpt><trkpt lat="41.3094074" lon="1.9782916"><ele>125.0</ele><time>2026-05-04T17:37:14.955Z</time></trkpt><trkpt lat="41.3093657" lon="1.978489"><ele>125.0</ele><time>2026-05-04T17:37:15.956Z</time></trkpt><trkpt lat="41.3093321" lon="1.9786869"><ele>125.0</ele><time>2026-05-04T17:37:16.955Z</time></trkpt><trkpt lat="41.3093129" lon="1.9788904"><ele>125.0</ele><time>2026-05-04T17:37:17.956Z</time></trkpt><trkpt lat="41.3093095" lon="1.9790888"><ele>125.0</ele><time>2026-05-04T17:37:18.956Z</time></trkpt><trkpt lat="41.3093201" lon="1.9792786"><ele>125.0</ele><time>2026-05-04T17:37:19.956Z</time></trkpt><trkpt lat="41.3093405" lon="1.9794542"><ele>125.6</ele><time>2026-05-04T17:37:20.956Z</time></trkpt><trkpt lat="41.3093565" lon="1.9796115"><ele>126.2</ele><time>2026-05-04T17:37:21.955Z</time></trkpt><trkpt lat="41.3093522" lon="1.9797574"><ele>126.80000000000001</ele><time>2026-05-04T17:37:22.956Z</time></trkpt><trkpt lat="41.3093219" lon="1.9798814"><ele>127.4</ele><time>2026-05-04T17:37:23.956Z</time></trkpt><trkpt lat="41.3092631" lon="1.9799975"><ele>128.0</ele><time>2026-05-04T17:37:24.956Z</time></trkpt><trkpt lat="41.309172" lon="1.980103"><ele>129.75</ele><time>2026-05-04T17:37:25.956Z</time></trkpt><trkpt lat="41.3090673" lon="1.9801871"><ele>131.5</ele><time>2026-05-04T17:37:26.956Z</time></trkpt><trkpt lat="41.3089559" lon="1.980275"><ele>133.25</ele><time>2026-05-04T17:37:27.956Z</time></trkpt><trkpt lat="41.3088606" lon="1.9803737"><ele>135.0</ele><time>2026-05-04T17:37:28.956Z</time></trkpt><trkpt lat="41.3087852" lon="1.9804922"><ele>130.8</ele><time>2026-05-04T17:37:29.956Z</time></trkpt><trkpt lat="41.3087377" lon="1.9806239"><ele>126.6</ele><time>2026-05-04T17:37:30.956Z</time></trkpt><trkpt lat="41.3087154" lon="1.9807663"><ele>122.4</ele><time>2026-05-04T17:37:31.955Z</time></trkpt><trkpt lat="41.3087197" lon="1.9809097"><ele>118.2</ele><time>2026-05-04T17:37:32.956Z</time></trkpt><trkpt lat="41.3087494" lon="1.9810489"><ele>114.0</ele><time>2026-05-04T17:37:33.956Z</time></trkpt><trkpt lat="41.308788" lon="1.9811802"><ele>114.0</ele><time>2026-05-04T17:37:34.956Z</time></trkpt><trkpt lat="41.3087903" lon="1.9813097"><ele>114.0</ele><time>2026-05-04T17:37:35.956Z</time></trkpt><trkpt lat="41.3087563" lon="1.9814274"><ele>114.0</ele><time>2026-05-04T17:37:36.956Z</time></trkpt><trkpt lat="41.3086961" lon="1.9815288"><ele>114.0</ele><time>2026-05-04T17:37:37.956Z</time></trkpt><trkpt lat="41.3086145" lon="1.9816191"><ele>114.0</ele><time>2026-05-04T17:37:38.955Z</time></trkpt><trkpt lat="41.3085209" lon="1.9817"><ele>113.2</ele><time>2026-05-04T17:37:39.956Z</time></trkpt><trkpt lat="41.3084329" lon="1.9817922"><ele>112.4</ele><time>2026-05-04T17:37:40.956Z</time></trkpt><trkpt lat="41.3083659" lon="1.9819018"><ele>111.6</ele><time>2026-05-04T17:37:41.956Z</time></trkpt><trkpt lat="41.3083213" lon="1.9820288"><ele>110.8</ele><time>2026-05-04T17:37:42.956Z</time></trkpt><trkpt lat="41.3083192" lon="1.9821945"><ele>110.0</ele><time>2026-05-04T17:37:43.956Z</time></trkpt><trkpt lat="41.3083457" lon="1.9823302"><ele>110.0</ele><time>2026-05-04T17:37:44.956Z</time></trkpt><trkpt lat="41.308403" lon="1.9824578"><ele>110.0</ele><time>2026-05-04T17:37:45.955Z</time></trkpt><trkpt lat="41.3084887" lon="1.9825691"><ele>110.0</ele><time>2026-05-04T17:37:46.956Z</time></trkpt><trkpt lat="41.3085792" lon="1.9826462"><ele>110.0</ele><time>2026-05-04T17:37:47.955Z</time></trkpt><trkpt lat="41.3086725" lon="1.9827539"><ele>110.16666666666666</ele><time>2026-05-04T17:37:48.956Z</time></trkpt><trkpt lat="41.3087406" lon="1.982852"><ele>110.33333333333333</ele><time>2026-05-04T17:37:49.956Z</time></trkpt><trkpt lat="41.3087868" lon="1.9829477"><ele>110.5</ele><time>2026-05-04T17:37:50.956Z</time></trkpt><trkpt lat="41.3088012" lon="1.9830519"><ele>110.66666666666666</ele><time>2026-05-04T17:37:51.956Z</time></trkpt><trkpt lat="41.3087808" lon="1.9831488"><ele>110.83333333333333</ele><time>2026-05-04T17:37:52.956Z</time></trkpt><trkpt lat="41.3087256" lon="1.9832253"><ele>111.0</ele><time>2026-05-04T17:37:53.956Z</time></trkpt><trkpt lat="41.3086557" lon="1.9832787"><ele>111.0</ele><time>2026-05-04T17:37:54.956Z</time></trkpt><trkpt lat="41.3085663" lon="1.9833025"><ele>111.0</ele><time>2026-05-04T17:37:55.956Z</time></trkpt><trkpt lat="41.3084646" lon="1.983309"><ele>111.0</ele><time>2026-05-04T17:37:56.956Z</time></trkpt><trkpt lat="41.308353" lon="1.9833156"><ele>111.0</ele><time>2026-05-04T17:37:57.955Z</time></trkpt><trkpt lat="41.3082361" lon="1.9833403"><ele>111.0</ele><time>2026-05-04T17:37:58.956Z</time></trkpt><trkpt lat="41.3081135" lon="1.9833854"><ele>108.5</ele><time>2026-05-04T17:37:59.956Z</time></trkpt><trkpt lat="41.3079895" lon="1.9834548"><ele>106.0</ele><time>2026-05-04T17:38:00.956Z</time></trkpt><trkpt lat="41.3078647" lon="1.9835384"><ele>103.5</ele><time>2026-05-04T17:38:01.956Z</time></trkpt><trkpt lat="41.3077503" lon="1.9836278"><ele>101.0</ele><time>2026-05-04T17:38:02.955Z</time></trkpt><trkpt lat="41.3076523" lon="1.9837112"><ele>101.0</ele><time>2026-05-04T17:38:03.956Z</time></trkpt><trkpt lat="41.307562" lon="1.9838167"><ele>101.0</ele><time>2026-05-04T17:38:04.956Z</time></trkpt><trkpt lat="41.30749" lon="1.9839409"><ele>101.0</ele><time>2026-05-04T17:38:05.956Z</time></trkpt><trkpt lat="41.307441" lon="1.9840849"><ele>101.0</ele><time>2026-05-04T17:38:06.956Z</time></trkpt><trkpt lat="41.3074137" lon="1.9842498"><ele>101.5</ele><time>2026-05-04T17:38:07.956Z</time></trkpt><trkpt lat="41.307403" lon="1.9844261"><ele>102.0</ele><time>2026-05-04T17:38:08.955Z</time></trkpt><trkpt lat="41.3073985" lon="1.9846101"><ele>102.5</ele><time>2026-05-04T17:38:09.956Z</time></trkpt><trkpt lat="41.3073909" lon="1.9848034"><ele>103.0</ele><time>2026-05-04T17:38:10.956Z</time></trkpt><trkpt lat="41.3073733" lon="1.9849871"><ele>102.33333333333334</ele><time>2026-05-04T17:38:11.956Z</time></trkpt><trkpt lat="41.3073416" lon="1.985179"><ele>101.66666666666666</ele><time>2026-05-04T17:38:12.957Z</time></trkpt><trkpt lat="41.3072963" lon="1.9853689"><ele>101.0</ele><time>2026-05-04T17:38:13.957Z</time></trkpt><trkpt lat="41.3072519" lon="1.9855639"><ele>92.66666666666666</ele><time>2026-05-04T17:38:14.957Z</time></trkpt><trkpt lat="41.3072086" lon="1.9857627"><ele>84.33333333333333</ele><time>2026-05-04T17:38:15.956Z</time></trkpt><trkpt lat="41.307176" lon="1.9859671"><ele>76.0</ele><time>2026-05-04T17:38:16.957Z</time></trkpt><trkpt lat="41.3071552" lon="1.9861733"><ele>76.0</ele><time>2026-05-04T17:38:17.957Z</time></trkpt><trkpt lat="41.3071426" lon="1.9863747"><ele>76.0</ele><time>2026-05-04T17:38:18.957Z</time></trkpt><trkpt lat="41.3071311" lon="1.9865737"><ele>76.0</ele><time>2026-05-04T17:38:19.957Z</time></trkpt><trkpt lat="41.3071164" lon="1.9867556"><ele>76.0</ele><time>2026-05-04T17:38:20.956Z</time></trkpt><trkpt lat="41.3070933" lon="1.9869239"><ele>75.75</ele><time>2026-05-04T17:38:21.957Z</time></trkpt><trkpt lat="41.3070498" lon="1.9870805"><ele>75.5</ele><time>2026-05-04T17:38:22.957Z</time></trkpt><trkpt lat="41.3069837" lon="1.987224"><ele>75.25</ele><time>2026-05-04T17:38:23.957Z</time></trkpt><trkpt lat="41.3069023" lon="1.9873599"><ele>75.0</ele><time>2026-05-04T17:38:24.957Z</time></trkpt><trkpt lat="41.3068199" lon="1.987503"><ele>74.75</ele><time>2026-05-04T17:38:25.957Z</time></trkpt><trkpt lat="41.3067527" lon="1.9876518"><ele>74.5</ele><time>2026-05-04T17:38:26.957Z</time></trkpt><trkpt lat="41.306701" lon="1.9878104"><ele>74.25</ele><time>2026-05-04T17:38:27.957Z</time></trkpt><trkpt lat="41.3066669" lon="1.9879739"><ele>74.0</ele><time>2026-05-04T17:38:28.957Z</time></trkpt><trkpt lat="41.3066386" lon="1.9881435"><ele>74.0</ele><time>2026-05-04T17:38:29.957Z</time></trkpt><trkpt lat="41.3066185" lon="1.9883147"><ele>74.0</ele><time>2026-05-04T17:38:30.957Z</time></trkpt><trkpt lat="41.3066135" lon="1.9884802"><ele>74.0</ele><time>2026-05-04T17:38:31.957Z</time></trkpt><trkpt lat="41.3066336" lon="1.988635"><ele>74.0</ele><time>2026-05-04T17:38:32.957Z</time></trkpt><trkpt lat="41.3066807" lon="1.9887688"><ele>72.5</ele><time>2026-05-04T17:38:33.957Z</time></trkpt><trkpt lat="41.3067535" lon="1.9888926"><ele>71.0</ele><time>2026-05-04T17:38:34.957Z</time></trkpt><trkpt lat="41.3068478" lon="1.9889957"><ele>69.5</ele><time>2026-05-04T17:38:35.956Z</time></trkpt><trkpt lat="41.3069555" lon="1.9890966"><ele>68.0</ele><time>2026-05-04T17:38:36.957Z</time></trkpt><trkpt lat="41.3070662" lon="1.9891979"><ele>66.75</ele><time>2026-05-04T17:38:37.957Z</time></trkpt><trkpt lat="41.3071755" lon="1.9892997"><ele>65.5</ele><time>2026-05-04T17:38:38.956Z</time></trkpt><trkpt lat="41.3072818" lon="1.989401"><ele>64.25</ele><time>2026-05-04T17:38:39.956Z</time></trkpt><trkpt lat="41.3073865" lon="1.9895057"><ele>63.0</ele><time>2026-05-04T17:38:40.957Z</time></trkpt><trkpt lat="41.3074866" lon="1.9896163"><ele>63.0</ele><time>2026-05-04T17:38:41.957Z</time></trkpt><trkpt lat="41.3075758" lon="1.9897236"><ele>63.0</ele><time>2026-05-04T17:38:42.957Z</time></trkpt><trkpt lat="41.3076474" lon="1.9898317"><ele>63.0</ele><time>2026-05-04T17:38:43.957Z</time></trkpt><trkpt lat="41.3076994" lon="1.989943"><ele>63.0</ele><time>2026-05-04T17:38:44.957Z</time></trkpt><trkpt lat="41.3077276" lon="1.9900569"><ele>63.0</ele><time>2026-05-04T17:38:45.957Z</time></trkpt><trkpt lat="41.3077307" lon="1.9901627"><ele>61.857142857142854</ele><time>2026-05-04T17:38:46.957Z</time></trkpt><trkpt lat="41.3077185" lon="1.9902462"><ele>60.714285714285715</ele><time>2026-05-04T17:38:47.957Z</time></trkpt><trkpt lat="41.3076932" lon="1.9903246"><ele>59.57142857142857</ele><time>2026-05-04T17:38:48.957Z</time></trkpt><trkpt lat="41.3076605" lon="1.9904009"><ele>58.42857142857143</ele><time>2026-05-04T17:38:49.957Z</time></trkpt><trkpt lat="41.3076244" lon="1.9904855"><ele>57.285714285714285</ele><time>2026-05-04T17:38:50.957Z</time></trkpt><trkpt lat="41.3076011" lon="1.9905743"><ele>56.14285714285714</ele><time>2026-05-04T17:38:51.957Z</time></trkpt><trkpt lat="41.3075915" lon="1.9906589"><ele>55.0</ele><time>2026-05-04T17:38:52.957Z</time></trkpt><trkpt lat="41.3075692" lon="1.9907954"><ele>54.4</ele><time>2026-05-04T17:38:54.957Z</time></trkpt><trkpt lat="41.3075816" lon="1.990923"><ele>53.8</ele><time>2026-05-04T17:38:56.957Z</time></trkpt><trkpt lat="41.3075984" lon="1.9910498"><ele>53.2</ele><time>2026-05-04T17:38:58.957Z</time></trkpt><trkpt lat="41.3075929" lon="1.9911763"><ele>52.6</ele><time>2026-05-04T17:39:00.957Z</time></trkpt><trkpt lat="41.3075709" lon="1.9913017"><ele>52.0</ele><time>2026-05-04T17:39:02.956Z</time></trkpt><trkpt lat="41.3075344" lon="1.9914282"><ele>51.99999999999999</ele><time>2026-05-04T17:39:04.957Z</time></trkpt><trkpt lat="41.307509" lon="1.9915246"><ele>52.0</ele><time>2026-05-04T17:39:06.957Z</time></trkpt><trkpt lat="41.3074845" lon="1.9916043"><ele>52.0</ele><time>2026-05-04T17:39:08.957Z</time></trkpt><trkpt lat="41.3074485" lon="1.991718"><ele>52.0</ele><time>2026-05-04T17:39:11.957Z</time></trkpt><trkpt lat="41.3074149" lon="1.9918132"><ele>51.99999999999999</ele><time>2026-05-04T17:39:14.957Z</time></trkpt><trkpt lat="41.3073798" lon="1.9919197"><ele>52.0</ele><time>2026-05-04T17:39:54.957Z</time></trkpt><trkpt lat="41.3073555" lon="1.9920309"><ele>51.666666666666664</ele><time>2026-05-04T17:39:56.957Z</time></trkpt><trkpt lat="41.3073063" lon="1.99216"><ele>51.33333333333333</ele><time>2026-05-04T17:39:58.957Z</time></trkpt><trkpt lat="41.3072546" lon="1.992304"><ele>51.0</ele><time>2026-05-04T17:40:00.957Z</time></trkpt><trkpt lat="41.3072254" lon="1.9923822"><ele>50.66666666666667</ele><time>2026-05-04T17:40:01.956Z</time></trkpt><trkpt lat="41.3071906" lon="1.9924573"><ele>50.333333333333336</ele><time>2026-05-04T17:40:02.956Z</time></trkpt><trkpt lat="41.3071515" lon="1.9925362"><ele>50.0</ele><time>2026-05-04T17:40:03.957Z</time></trkpt><trkpt lat="41.3071186" lon="1.9926171"><ele>48.66666666666667</ele><time>2026-05-04T17:40:04.957Z</time></trkpt><trkpt lat="41.3070755" lon="1.9926943"><ele>47.333333333333336</ele><time>2026-05-04T17:40:05.956Z</time></trkpt><trkpt lat="41.3070247" lon="1.9927701"><ele>46.0</ele><time>2026-05-04T17:40:06.957Z</time></trkpt><trkpt lat="41.3069768" lon="1.9928428"><ele>44.66666666666667</ele><time>2026-05-04T17:40:07.956Z</time></trkpt><trkpt lat="41.3069272" lon="1.9929095"><ele>43.333333333333336</ele><time>2026-05-04T17:40:08.957Z</time></trkpt><trkpt lat="41.3068532" lon="1.99301"><ele>42.0</ele><time>2026-05-04T17:40:10.957Z</time></trkpt><trkpt lat="41.3067715" lon="1.9931103"><ele>42.0</ele><time>2026-05-04T17:40:12.957Z</time></trkpt><trkpt lat="41.3067169" lon="1.9931741"><ele>42.0</ele><time>2026-05-04T17:40:13.957Z</time></trkpt><trkpt lat="41.3066572" lon="1.9932326"><ele>42.0</ele><time>2026-05-04T17:40:14.956Z</time></trkpt><trkpt lat="41.3065948" lon="1.993286"><ele>42.0</ele><time>2026-05-04T17:40:15.957Z</time></trkpt><trkpt lat="41.306503" lon="1.9933655"><ele>42.0</ele><time>2026-05-04T17:40:17.957Z</time></trkpt><trkpt lat="41.3064323" lon="1.9934117"><ele>42.0</ele><time>2026-05-04T17:40:19.956Z</time></trkpt><trkpt lat="41.30634" lon="1.9934608"><ele>41.0</ele><time>2026-05-04T17:40:22.957Z</time></trkpt><trkpt lat="41.3062413" lon="1.9934757"><ele>40.0</ele><time>2026-05-04T17:40:24.957Z</time></trkpt><trkpt lat="41.3061489" lon="1.9935331"><ele>39.0</ele><time>2026-05-04T17:40:26.957Z</time></trkpt><trkpt lat="41.3060967" lon="1.9935845"><ele>38.0</ele><time>2026-05-04T17:40:31.957Z</time></trkpt><trkpt lat="41.3060046" lon="1.9936338"><ele>37.0</ele><time>2026-05-04T17:40:34.956Z</time></trkpt><trkpt lat="41.3058882" lon="1.99367"><ele>37.0</ele><time>2026-05-04T17:40:36.957Z</time></trkpt><trkpt lat="41.3057618" lon="1.9937212"><ele>37.0</ele><time>2026-05-04T17:40:38.957Z</time></trkpt><trkpt lat="41.3056903" lon="1.9937621"><ele>37.0</ele><time>2026-05-04T17:40:39.957Z</time></trkpt><trkpt lat="41.305615" lon="1.9937943"><ele>37.0</ele><time>2026-05-04T17:40:40.957Z</time></trkpt><trkpt lat="41.3055449" lon="1.9938371"><ele>37.0</ele><time>2026-05-04T17:40:41.956Z</time></trkpt><trkpt lat="41.3054745" lon="1.9938798"><ele>37.0</ele><time>2026-05-04T17:40:42.956Z</time></trkpt><trkpt lat="41.3054037" lon="1.9939186"><ele>36.0</ele><time>2026-05-04T17:40:43.956Z</time></trkpt><trkpt lat="41.3053326" lon="1.9939556"><ele>35.0</ele><time>2026-05-04T17:40:44.957Z</time></trkpt><trkpt lat="41.3052619" lon="1.993992"><ele>34.0</ele><time>2026-05-04T17:40:45.957Z</time></trkpt><trkpt lat="41.3051998" lon="1.9940223"><ele>33.0</ele><time>2026-05-04T17:40:46.957Z</time></trkpt><trkpt lat="41.3051369" lon="1.9940559"><ele>32.0</ele><time>2026-05-04T17:40:47.957Z</time></trkpt><trkpt lat="41.3050348" lon="1.9941129"><ele>31.0</ele><time>2026-05-04T17:40:49.957Z</time></trkpt><trkpt lat="41.3049323" lon="1.9941665"><ele>30.833333333333336</ele><time>2026-05-04T17:40:51.957Z</time></trkpt><trkpt lat="41.3048706" lon="1.9941942"><ele>30.666666666666668</ele><time>2026-05-04T17:40:52.956Z</time></trkpt><trkpt lat="41.3048048" lon="1.994224"><ele>30.5</ele><time>2026-05-04T17:40:53.957Z</time></trkpt><trkpt lat="41.3047265" lon="1.9942614"><ele>30.333333333333336</ele><time>2026-05-04T17:40:54.957Z</time></trkpt><trkpt lat="41.30465" lon="1.9943066"><ele>30.166666666666668</ele><time>2026-05-04T17:40:55.958Z</time></trkpt><trkpt lat="41.3045648" lon="1.994349"><ele>30.0</ele><time>2026-05-04T17:40:56.957Z</time></trkpt><trkpt lat="41.3044775" lon="1.994371"><ele>30.0</ele><time>2026-05-04T17:40:57.958Z</time></trkpt><trkpt lat="41.3043906" lon="1.9944126"><ele>30.0</ele><time>2026-05-04T17:40:58.957Z</time></trkpt><trkpt lat="41.3042965" lon="1.994456"><ele>30.0</ele><time>2026-05-04T17:40:59.958Z</time></trkpt><trkpt lat="41.3042022" lon="1.9945072"><ele>30.0</ele><time>2026-05-04T17:41:00.958Z</time></trkpt><trkpt lat="41.3041059" lon="1.9945626"><ele>30.0</ele><time>2026-05-04T17:41:01.958Z</time></trkpt><trkpt lat="41.3040211" lon="1.9946161"><ele>30.0</ele><time>2026-05-04T17:41:02.958Z</time></trkpt><trkpt lat="41.303945" lon="1.9946645"><ele>30.0</ele><time>2026-05-04T17:41:03.957Z</time></trkpt><trkpt lat="41.3038676" lon="1.9947158"><ele>30.0</ele><time>2026-05-04T17:41:04.957Z</time></trkpt><trkpt lat="41.3037929" lon="1.9947726"><ele>30.0</ele><time>2026-05-04T17:41:05.958Z</time></trkpt><trkpt lat="41.30372" lon="1.994833"><ele>30.0</ele><time>2026-05-04T17:41:06.957Z</time></trkpt><trkpt lat="41.3036449" lon="1.9948946"><ele>30.0</ele><time>2026-05-04T17:41:07.957Z</time></trkpt><trkpt lat="41.3035698" lon="1.9949565"><ele>29.666666666666668</ele><time>2026-05-04T17:41:08.958Z</time></trkpt><trkpt lat="41.3035025" lon="1.9950208"><ele>29.333333333333336</ele><time>2026-05-04T17:41:09.958Z</time></trkpt><trkpt lat="41.3034425" lon="1.9950773"><ele>29.0</ele><time>2026-05-04T17:41:10.958Z</time></trkpt><trkpt lat="41.3033482" lon="1.9951605"><ele>28.666666666666668</ele><time>2026-05-04T17:41:12.958Z</time></trkpt><trkpt lat="41.3032647" lon="1.9952503"><ele>28.333333333333336</ele><time>2026-05-04T17:41:14.958Z</time></trkpt><trkpt lat="41.3032157" lon="1.9953132"><ele>28.0</ele><time>2026-05-04T17:41:15.958Z</time></trkpt><trkpt lat="41.3031661" lon="1.9953729"><ele>28.666666666666668</ele><time>2026-05-04T17:41:16.957Z</time></trkpt><trkpt lat="41.303072" lon="1.9954775"><ele>29.333333333333336</ele><time>2026-05-04T17:41:18.958Z</time></trkpt><trkpt lat="41.3030217" lon="1.9955402"><ele>30.0</ele><time>2026-05-04T17:41:19.957Z</time></trkpt><trkpt lat="41.30296" lon="1.9956101"><ele>30.666666666666664</ele><time>2026-05-04T17:41:20.958Z</time></trkpt><trkpt lat="41.302898" lon="1.995679"><ele>31.333333333333332</ele><time>2026-05-04T17:41:21.958Z</time></trkpt><trkpt lat="41.3028383" lon="1.9957503"><ele>32.0</ele><time>2026-05-04T17:41:22.957Z</time></trkpt><trkpt lat="41.3027897" lon="1.995808"><ele>31.166666666666664</ele><time>2026-05-04T17:41:23.958Z</time></trkpt><trkpt lat="41.3026815" lon="1.9958874"><ele>30.333333333333332</ele><time>2026-05-04T17:41:25.957Z</time></trkpt><trkpt lat="41.3026142" lon="1.9959085"><ele>29.5</ele><time>2026-05-04T17:41:26.957Z</time></trkpt><trkpt lat="41.3025454" lon="1.9959307"><ele>28.666666666666664</ele><time>2026-05-04T17:41:27.957Z</time></trkpt><trkpt lat="41.3024775" lon="1.9959647"><ele>27.833333333333332</ele><time>2026-05-04T17:41:28.958Z</time></trkpt><trkpt lat="41.3024293" lon="1.9960256"><ele>27.0</ele><time>2026-05-04T17:41:29.958Z</time></trkpt><trkpt lat="41.302398" lon="1.9961856"><ele>27.0</ele><time>2026-05-04T17:41:31.957Z</time></trkpt><trkpt lat="41.3023724" lon="1.9963131"><ele>27.000000000000004</ele><time>2026-05-04T17:41:33.958Z</time></trkpt><trkpt lat="41.3023289" lon="1.9963857"><ele>27.000000000000004</ele><time>2026-05-04T17:41:40.958Z</time></trkpt><trkpt lat="41.3022765" lon="1.9964492"><ele>27.0</ele><time>2026-05-04T17:41:42.957Z</time></trkpt><trkpt lat="41.3021813" lon="1.9965753"><ele>27.0</ele><time>2026-05-04T17:41:44.957Z</time></trkpt><trkpt lat="41.3021204" lon="1.9966498"><ele>27.166666666666668</ele><time>2026-05-04T17:41:45.958Z</time></trkpt><trkpt lat="41.3020615" lon="1.9967258"><ele>27.333333333333336</ele><time>2026-05-04T17:41:46.958Z</time></trkpt><trkpt lat="41.3019969" lon="1.9968058"><ele>27.5</ele><time>2026-05-04T17:41:47.958Z</time></trkpt><trkpt lat="41.3019306" lon="1.9968873"><ele>27.666666666666668</ele><time>2026-05-04T17:41:48.958Z</time></trkpt><trkpt lat="41.3018657" lon="1.9969617"><ele>27.833333333333336</ele><time>2026-05-04T17:41:49.957Z</time></trkpt><trkpt lat="41.3018023" lon="1.9970327"><ele>28.0</ele><time>2026-05-04T17:41:50.958Z</time></trkpt><trkpt lat="41.3017324" lon="1.9971052"><ele>28.0</ele><time>2026-05-04T17:41:51.958Z</time></trkpt><trkpt lat="41.3016628" lon="1.9971894"><ele>27.999999999999996</ele><time>2026-05-04T17:41:52.958Z</time></trkpt><trkpt lat="41.3015868" lon="1.9972807"><ele>27.999999999999996</ele><time>2026-05-04T17:41:53.958Z</time></trkpt><trkpt lat="41.3015097" lon="1.997372"><ele>28.0</ele><time>2026-05-04T17:41:54.958Z</time></trkpt><trkpt lat="41.3014393" lon="1.9974554"><ele>28.0</ele><time>2026-05-04T17:41:55.957Z</time></trkpt><trkpt lat="41.3013724" lon="1.9975319"><ele>28.000000000000004</ele><time>2026-05-04T17:41:56.958Z</time></trkpt><trkpt lat="41.3013089" lon="1.9976072"><ele>28.0</ele><time>2026-05-04T17:41:57.957Z</time></trkpt><trkpt lat="41.3012525" lon="1.9976666"><ele>28.0</ele><time>2026-05-04T17:41:58.958Z</time></trkpt><trkpt lat="41.3011995" lon="1.9977244"><ele>28.0</ele><time>2026-05-04T17:41:59.957Z</time></trkpt><trkpt lat="41.3011389" lon="1.997794"><ele>28.000000000000004</ele><time>2026-05-04T17:42:00.958Z</time></trkpt><trkpt lat="41.3010747" lon="1.9978718"><ele>28.0</ele><time>2026-05-04T17:42:01.958Z</time></trkpt><trkpt lat="41.3010025" lon="1.997956"><ele>28.0</ele><time>2026-05-04T17:42:02.957Z</time></trkpt><trkpt lat="41.3009274" lon="1.998049"><ele>27.999999999999996</ele><time>2026-05-04T17:42:03.958Z</time></trkpt><trkpt lat="41.3008542" lon="1.9981379"><ele>27.999999999999996</ele><time>2026-05-04T17:42:04.958Z</time></trkpt><trkpt lat="41.3007861" lon="1.9982238"><ele>28.0</ele><time>2026-05-04T17:42:05.958Z</time></trkpt><trkpt lat="41.3007162" lon="1.9983067"><ele>28.0</ele><time>2026-05-04T17:42:06.958Z</time></trkpt><trkpt lat="41.3006483" lon="1.9983885"><ele>27.500000000000004</ele><time>2026-05-04T17:42:07.958Z</time></trkpt><trkpt lat="41.3005851" lon="1.9984652"><ele>27.0</ele><time>2026-05-04T17:42:08.958Z</time></trkpt><trkpt lat="41.300525" lon="1.9985409"><ele>26.5</ele><time>2026-05-04T17:42:09.958Z</time></trkpt><trkpt lat="41.3004706" lon="1.9986035"><ele>26.0</ele><time>2026-05-04T17:42:10.958Z</time></trkpt><trkpt lat="41.3004205" lon="1.9986624"><ele>25.500000000000004</ele><time>2026-05-04T17:42:11.958Z</time></trkpt><trkpt lat="41.3003634" lon="1.9987252"><ele>25.0</ele><time>2026-05-04T17:42:13.958Z</time></trkpt><trkpt lat="41.3003015" lon="1.9987679"><ele>25.000000000000004</ele><time>2026-05-04T17:42:15.958Z</time></trkpt><trkpt lat="41.3002028" lon="1.9988295"><ele>25.0</ele><time>2026-05-04T17:42:17.958Z</time></trkpt><trkpt lat="41.3001558" lon="1.9988858"><ele>25.0</ele><time>2026-05-04T17:42:18.957Z</time></trkpt><trkpt lat="41.3001205" lon="1.9989666"><ele>25.0</ele><time>2026-05-04T17:42:19.958Z</time></trkpt><trkpt lat="41.3000829" lon="1.9990575"><ele>25.000000000000004</ele><time>2026-05-04T17:42:20.958Z</time></trkpt><trkpt lat="41.3000359" lon="1.9991463"><ele>25.0</ele><time>2026-05-04T17:42:21.958Z</time></trkpt><trkpt lat="41.2999745" lon="1.9992298"><ele>23.8</ele><time>2026-05-04T17:42:22.958Z</time></trkpt><trkpt lat="41.2999097" lon="1.9993163"><ele>22.6</ele><time>2026-05-04T17:42:23.957Z</time></trkpt><trkpt lat="41.2998414" lon="1.9994118"><ele>21.4</ele><time>2026-05-04T17:42:24.958Z</time></trkpt><trkpt lat="41.2997795" lon="1.9995333"><ele>20.2</ele><time>2026-05-04T17:42:25.958Z</time></trkpt><trkpt lat="41.2997121" lon="1.999646"><ele>19.0</ele><time>2026-05-04T17:42:26.958Z</time></trkpt><trkpt lat="41.299653" lon="1.999752"><ele>19.0</ele><time>2026-05-04T17:42:27.958Z</time></trkpt><trkpt lat="41.2996009" lon="1.9998519"><ele>19.0</ele><time>2026-05-04T17:42:28.958Z</time></trkpt><trkpt lat="41.2995515" lon="1.9999491"><ele>19.0</ele><time>2026-05-04T17:42:29.958Z</time></trkpt><trkpt lat="41.2995071" lon="2.0000528"><ele>19.0</ele><time>2026-05-04T17:42:30.958Z</time></trkpt><trkpt lat="41.2994611" lon="2.000171"><ele>19.0</ele><time>2026-05-04T17:42:31.958Z</time></trkpt><trkpt lat="41.2994172" lon="2.0002995"><ele>19.0</ele><time>2026-05-04T17:42:32.958Z</time></trkpt><trkpt lat="41.299375" lon="2.0004277"><ele>19.0</ele><time>2026-05-04T17:42:33.958Z</time></trkpt><trkpt lat="41.2993287" lon="2.0005621"><ele>19.0</ele><time>2026-05-04T17:42:34.958Z</time></trkpt><trkpt lat="41.2992808" lon="2.0007071"><ele>19.0</ele><time>2026-05-04T17:42:35.957Z</time></trkpt><trkpt lat="41.2992307" lon="2.0008549"><ele>18.25</ele><time>2026-05-04T17:42:36.958Z</time></trkpt><trkpt lat="41.2991855" lon="2.0010088"><ele>17.5</ele><time>2026-05-04T17:42:37.958Z</time></trkpt><trkpt lat="41.2991432" lon="2.001166"><ele>16.75</ele><time>2026-05-04T17:42:38.957Z</time></trkpt><trkpt lat="41.2990997" lon="2.0013258"><ele>16.0</ele><time>2026-05-04T17:42:39.958Z</time></trkpt><trkpt lat="41.2990545" lon="2.0014873"><ele>16.0</ele><time>2026-05-04T17:42:40.958Z</time></trkpt><trkpt lat="41.2990142" lon="2.001654"><ele>16.0</ele><time>2026-05-04T17:42:41.958Z</time></trkpt><trkpt lat="41.2989768" lon="2.0018115"><ele>16.0</ele><time>2026-05-04T17:42:42.958Z</time></trkpt><trkpt lat="41.2989385" lon="2.0019706"><ele>16.0</ele><time>2026-05-04T17:42:43.958Z</time></trkpt><trkpt lat="41.2989031" lon="2.0021195"><ele>16.5</ele><time>2026-05-04T17:42:44.957Z</time></trkpt><trkpt lat="41.2988645" lon="2.0022665"><ele>17.0</ele><time>2026-05-04T17:42:45.958Z</time></trkpt><trkpt lat="41.2988255" lon="2.0024104"><ele>17.5</ele><time>2026-05-04T17:42:46.958Z</time></trkpt><trkpt lat="41.2987874" lon="2.0025508"><ele>18.0</ele><time>2026-05-04T17:42:47.958Z</time></trkpt><trkpt lat="41.2987445" lon="2.0026857"><ele>16.4</ele><time>2026-05-04T17:42:48.958Z</time></trkpt><trkpt lat="41.2986961" lon="2.002812"><ele>14.8</ele><time>2026-05-04T17:42:49.958Z</time></trkpt><trkpt lat="41.2986457" lon="2.0029341"><ele>13.2</ele><time>2026-05-04T17:42:50.957Z</time></trkpt><trkpt lat="41.2985944" lon="2.0030527"><ele>11.6</ele><time>2026-05-04T17:42:51.958Z</time></trkpt><trkpt lat="41.2985418" lon="2.0031633"><ele>10.0</ele><time>2026-05-04T17:42:52.958Z</time></trkpt><trkpt lat="41.2984842" lon="2.003272"><ele>9.6</ele><time>2026-05-04T17:42:53.958Z</time></trkpt><trkpt lat="41.2984241" lon="2.003375"><ele>9.2</ele><time>2026-05-04T17:42:54.958Z</time></trkpt><trkpt lat="41.2983594" lon="2.003476"><ele>8.8</ele><time>2026-05-04T17:42:55.958Z</time></trkpt><trkpt lat="41.2982944" lon="2.0035735"><ele>8.4</ele><time>2026-05-04T17:42:56.957Z</time></trkpt><trkpt lat="41.2982248" lon="2.0036697"><ele>8.0</ele><time>2026-05-04T17:42:57.958Z</time></trkpt><trkpt lat="41.2981508" lon="2.0037654"><ele>8.0</ele><time>2026-05-04T17:42:58.958Z</time></trkpt><trkpt lat="41.2980701" lon="2.0038622"><ele>8.0</ele><time>2026-05-04T17:42:59.958Z</time></trkpt><trkpt lat="41.2979852" lon="2.0039561"><ele>8.0</ele><time>2026-05-04T17:43:00.958Z</time></trkpt><trkpt lat="41.2978937" lon="2.0040494"><ele>8.0</ele><time>2026-05-04T17:43:01.957Z</time></trkpt><trkpt lat="41.2977999" lon="2.0041349"><ele>8.0</ele><time>2026-05-04T17:43:02.958Z</time></trkpt><trkpt lat="41.2977018" lon="2.0042192"><ele>8.25</ele><time>2026-05-04T17:43:03.957Z</time></trkpt><trkpt lat="41.2976008" lon="2.0043037"><ele>8.5</ele><time>2026-05-04T17:43:04.958Z</time></trkpt><trkpt lat="41.2975008" lon="2.0043872"><ele>8.75</ele><time>2026-05-04T17:43:05.958Z</time></trkpt><trkpt lat="41.2973996" lon="2.0044739"><ele>9.0</ele><time>2026-05-04T17:43:06.958Z</time></trkpt><trkpt lat="41.2972966" lon="2.0045588"><ele>8.25</ele><time>2026-05-04T17:43:07.957Z</time></trkpt><trkpt lat="41.2971901" lon="2.0046463"><ele>7.5</ele><time>2026-05-04T17:43:08.958Z</time></trkpt><trkpt lat="41.2970842" lon="2.0047359"><ele>6.75</ele><time>2026-05-04T17:43:09.958Z</time></trkpt><trkpt lat="41.2969773" lon="2.0048259"><ele>6.0</ele><time>2026-05-04T17:43:10.958Z</time></trkpt><trkpt lat="41.2968694" lon="2.0049161"><ele>6.75</ele><time>2026-05-04T17:43:11.958Z</time></trkpt><trkpt lat="41.2967634" lon="2.005005"><ele>7.5</ele><time>2026-05-04T17:43:12.957Z</time></trkpt><trkpt lat="41.2966593" lon="2.0050961"><ele>8.25</ele><time>2026-05-04T17:43:13.958Z</time></trkpt><trkpt lat="41.2965522" lon="2.0051841"><ele>9.0</ele><time>2026-05-04T17:43:14.958Z</time></trkpt><trkpt lat="41.2964511" lon="2.0052686"><ele>8.25</ele><time>2026-05-04T17:43:15.958Z</time></trkpt><trkpt lat="41.2963467" lon="2.0053558"><ele>7.5</ele><time>2026-05-04T17:43:16.957Z</time></trkpt><trkpt lat="41.2962444" lon="2.0054438"><ele>6.75</ele><time>2026-05-04T17:43:17.958Z</time></trkpt><trkpt lat="41.2961452" lon="2.0055276"><ele>6.0</ele><time>2026-05-04T17:43:18.957Z</time></trkpt><trkpt lat="41.2960459" lon="2.0056106"><ele>6.0</ele><time>2026-05-04T17:43:19.958Z</time></trkpt><trkpt lat="41.2959519" lon="2.0056895"><ele>6.0</ele><time>2026-05-04T17:43:20.958Z</time></trkpt><trkpt lat="41.2958614" lon="2.005766"><ele>6.0</ele><time>2026-05-04T17:43:21.958Z</time></trkpt><trkpt lat="41.2957692" lon="2.0058444"><ele>6.0</ele><time>2026-05-04T17:43:22.958Z</time></trkpt><trkpt lat="41.2956798" lon="2.0059209"><ele>6.0</ele><time>2026-05-04T17:43:23.958Z</time></trkpt><trkpt lat="41.2955926" lon="2.0059941"><ele>6.0</ele><time>2026-05-04T17:43:24.958Z</time></trkpt><trkpt lat="41.2955064" lon="2.0060679"><ele>6.0</ele><time>2026-05-04T17:43:25.958Z</time></trkpt><trkpt lat="41.2954167" lon="2.0061453"><ele>6.0</ele><time>2026-05-04T17:43:26.958Z</time></trkpt><trkpt lat="41.2953334" lon="2.0062208"><ele>6.0</ele><time>2026-05-04T17:43:27.958Z</time></trkpt><trkpt lat="41.2952477" lon="2.0062947"><ele>6.0</ele><time>2026-05-04T17:43:28.958Z</time></trkpt><trkpt lat="41.2951627" lon="2.0063674"><ele>6.0</ele><time>2026-05-04T17:43:29.958Z</time></trkpt><trkpt lat="41.2950768" lon="2.006441"><ele>6.0</ele><time>2026-05-04T17:43:30.958Z</time></trkpt><trkpt lat="41.29499" lon="2.0065135"><ele>6.0</ele><time>2026-05-04T17:43:31.957Z</time></trkpt><trkpt lat="41.2949074" lon="2.0065819"><ele>6.0</ele><time>2026-05-04T17:43:32.958Z</time></trkpt><trkpt lat="41.2948239" lon="2.0066532"><ele>6.0</ele><time>2026-05-04T17:43:33.958Z</time></trkpt><trkpt lat="41.294745" lon="2.0067176"><ele>5.6</ele><time>2026-05-04T17:43:34.957Z</time></trkpt><trkpt lat="41.2946675" lon="2.0067866"><ele>5.199999999999999</ele><time>2026-05-04T17:43:35.958Z</time></trkpt><trkpt lat="41.2945901" lon="2.0068541"><ele>4.800000000000001</ele><time>2026-05-04T17:43:36.959Z</time></trkpt><trkpt lat="41.2945103" lon="2.0069222"><ele>4.4</ele><time>2026-05-04T17:43:37.959Z</time></trkpt><trkpt lat="41.2944284" lon="2.0069906"><ele>4.0</ele><time>2026-05-04T17:43:38.959Z</time></trkpt><trkpt lat="41.2943479" lon="2.0070594"><ele>4.0</ele><time>2026-05-04T17:43:39.959Z</time></trkpt><trkpt lat="41.2942672" lon="2.0071312"><ele>4.0</ele><time>2026-05-04T17:43:40.959Z</time></trkpt><trkpt lat="41.2941871" lon="2.0072019"><ele>4.0</ele><time>2026-05-04T17:43:41.958Z</time></trkpt><trkpt lat="41.2941054" lon="2.0072735"><ele>4.0</ele><time>2026-05-04T17:43:42.959Z</time></trkpt><trkpt lat="41.2940219" lon="2.0073428"><ele>4.0</ele><time>2026-05-04T17:43:43.959Z</time></trkpt><trkpt lat="41.293941" lon="2.0074144"><ele>4.2</ele><time>2026-05-04T17:43:44.959Z</time></trkpt><trkpt lat="41.2938603" lon="2.0074859"><ele>4.4</ele><time>2026-05-04T17:43:45.959Z</time></trkpt><trkpt lat="41.2937805" lon="2.007556"><ele>4.6</ele><time>2026-05-04T17:43:46.959Z</time></trkpt><trkpt lat="41.2936989" lon="2.007627"><ele>4.8</ele><time>2026-05-04T17:43:47.959Z</time></trkpt><trkpt lat="41.2936166" lon="2.0076942"><ele>5.0</ele><time>2026-05-04T17:43:48.959Z</time></trkpt><trkpt lat="41.2935368" lon="2.0077635"><ele>5.2</ele><time>2026-05-04T17:43:49.959Z</time></trkpt><trkpt lat="41.2934591" lon="2.0078337"><ele>5.4</ele><time>2026-05-04T17:43:50.959Z</time></trkpt><trkpt lat="41.2933833" lon="2.0079055"><ele>5.6</ele><time>2026-05-04T17:43:51.959Z</time></trkpt><trkpt lat="41.2933066" lon="2.0079776"><ele>5.8</ele><time>2026-05-04T17:43:52.959Z</time></trkpt><trkpt lat="41.293228" lon="2.0080468"><ele>6.0</ele><time>2026-05-04T17:43:53.958Z</time></trkpt><trkpt lat="41.2931495" lon="2.0081146"><ele>5.8</ele><time>2026-05-04T17:43:54.959Z</time></trkpt><trkpt lat="41.2930742" lon="2.0081846"><ele>5.6</ele><time>2026-05-04T17:43:55.959Z</time></trkpt><trkpt lat="41.2929983" lon="2.0082562"><ele>5.4</ele><time>2026-05-04T17:43:56.959Z</time></trkpt><trkpt lat="41.2929239" lon="2.0083347"><ele>5.2</ele><time>2026-05-04T17:43:57.959Z</time></trkpt><trkpt lat="41.2928482" lon="2.0084121"><ele>5.0</ele><time>2026-05-04T17:43:58.959Z</time></trkpt><trkpt lat="41.2927751" lon="2.0084908"><ele>5.0</ele><time>2026-05-04T17:43:59.959Z</time></trkpt><trkpt lat="41.2927035" lon="2.0085643"><ele>5.0</ele><time>2026-05-04T17:44:00.959Z</time></trkpt><trkpt lat="41.2926314" lon="2.0086366"><ele>5.0</ele><time>2026-05-04T17:44:01.958Z</time></trkpt><trkpt lat="41.2925587" lon="2.0087069"><ele>5.0</ele><time>2026-05-04T17:44:02.959Z</time></trkpt><trkpt lat="41.2924852" lon="2.008781"><ele>5.0</ele><time>2026-05-04T17:44:03.959Z</time></trkpt><trkpt lat="41.2924097" lon="2.0088549"><ele>5.0</ele><time>2026-05-04T17:44:04.959Z</time></trkpt><trkpt lat="41.2923363" lon="2.0089303"><ele>5.0</ele><time>2026-05-04T17:44:05.959Z</time></trkpt><trkpt lat="41.2922629" lon="2.009008"><ele>5.0</ele><time>2026-05-04T17:44:06.959Z</time></trkpt><trkpt lat="41.2921839" lon="2.0090851"><ele>5.0</ele><time>2026-05-04T17:44:07.959Z</time></trkpt><trkpt lat="41.2921047" lon="2.0091678"><ele>5.0</ele><time>2026-05-04T17:44:08.959Z</time></trkpt><trkpt lat="41.2920224" lon="2.009255"><ele>5.2</ele><time>2026-05-04T17:44:09.958Z</time></trkpt><trkpt lat="41.2919362" lon="2.0093402"><ele>5.4</ele><time>2026-05-04T17:44:10.959Z</time></trkpt><trkpt lat="41.2918466" lon="2.009433"><ele>5.6</ele><time>2026-05-04T17:44:11.959Z</time></trkpt><trkpt lat="41.291759" lon="2.009526"><ele>5.8</ele><time>2026-05-04T17:44:12.959Z</time></trkpt><trkpt lat="41.2916673" lon="2.0096183"><ele>6.0</ele><time>2026-05-04T17:44:13.959Z</time></trkpt><trkpt lat="41.2915773" lon="2.0097102"><ele>6.0</ele><time>2026-05-04T17:44:14.959Z</time></trkpt><trkpt lat="41.2914839" lon="2.0098052"><ele>6.0</ele><time>2026-05-04T17:44:15.959Z</time></trkpt><trkpt lat="41.2913903" lon="2.0099002"><ele>6.0</ele><time>2026-05-04T17:44:16.959Z</time></trkpt><trkpt lat="41.2912917" lon="2.0100048"><ele>6.0</ele><time>2026-05-04T17:44:17.958Z</time></trkpt><trkpt lat="41.2911892" lon="2.0101086"><ele>6.0</ele><time>2026-05-04T17:44:18.958Z</time></trkpt><trkpt lat="41.2910807" lon="2.0102124"><ele>6.0</ele><time>2026-05-04T17:44:19.959Z</time></trkpt><trkpt lat="41.2909698" lon="2.0103183"><ele>6.0</ele><time>2026-05-04T17:44:20.959Z</time></trkpt><trkpt lat="41.2908652" lon="2.0104203"><ele>6.0</ele><time>2026-05-04T17:44:21.959Z</time></trkpt><trkpt lat="41.2907589" lon="2.0105191"><ele>6.0</ele><time>2026-05-04T17:44:22.959Z</time></trkpt><trkpt lat="41.2906526" lon="2.0106111"><ele>6.0</ele><time>2026-05-04T17:44:23.959Z</time></trkpt><trkpt lat="41.290549" lon="2.0106992"><ele>6.0</ele><time>2026-05-04T17:44:24.959Z</time></trkpt><trkpt lat="41.2904521" lon="2.0107789"><ele>6.0</ele><time>2026-05-04T17:44:25.959Z</time></trkpt><trkpt lat="41.2903671" lon="2.0108466"><ele>6.0</ele><time>2026-05-04T17:44:26.958Z</time></trkpt><trkpt lat="41.2902971" lon="2.0108947"><ele>6.0</ele><time>2026-05-04T17:44:27.959Z</time></trkpt><trkpt lat="41.2901925" lon="2.0109281"><ele>6.0</ele><time>2026-05-04T17:44:29.958Z</time></trkpt><trkpt lat="41.2900973" lon="2.0108915"><ele>6.0</ele><time>2026-05-04T17:44:31.959Z</time></trkpt><trkpt lat="41.2900447" lon="2.0108309"><ele>6.0</ele><time>2026-05-04T17:44:32.959Z</time></trkpt><trkpt lat="41.2899888" lon="2.0107511"><ele>6.0</ele><time>2026-05-04T17:44:33.959Z</time></trkpt><trkpt lat="41.2899265" lon="2.010667"><ele>6.0</ele><time>2026-05-04T17:44:34.958Z</time></trkpt><trkpt lat="41.289854" lon="2.0105794"><ele>6.0</ele><time>2026-05-04T17:44:35.959Z</time></trkpt><trkpt lat="41.289781" lon="2.0104836"><ele>6.0</ele><time>2026-05-04T17:44:36.959Z</time></trkpt><trkpt lat="41.2897098" lon="2.0103974"><ele>6.0</ele><time>2026-05-04T17:44:37.959Z</time></trkpt><trkpt lat="41.289644" lon="2.010336"><ele>6.0</ele><time>2026-05-04T17:44:38.958Z</time></trkpt><trkpt lat="41.2895794" lon="2.0103109"><ele>6.0</ele><time>2026-05-04T17:44:39.958Z</time></trkpt><trkpt lat="41.2894732" lon="2.0103872"><ele>5.8</ele><time>2026-05-04T17:44:41.958Z</time></trkpt><trkpt lat="41.2894848" lon="2.0105346"><ele>5.6</ele><time>2026-05-04T17:44:43.959Z</time></trkpt><trkpt lat="41.2895152" lon="2.0106283"><ele>5.4</ele><time>2026-05-04T17:44:44.958Z</time></trkpt><trkpt lat="41.2895551" lon="2.0107275"><ele>5.2</ele><time>2026-05-04T17:44:45.959Z</time></trkpt><trkpt lat="41.2895987" lon="2.0108413"><ele>5.0</ele><time>2026-05-04T17:44:46.958Z</time></trkpt><trkpt lat="41.2896478" lon="2.0109657"><ele>5.0</ele><time>2026-05-04T17:44:47.959Z</time></trkpt><trkpt lat="41.2896967" lon="2.0110981"><ele>5.0</ele><time>2026-05-04T17:44:48.959Z</time></trkpt><trkpt lat="41.2897463" lon="2.0112414"><ele>5.0</ele><time>2026-05-04T17:44:49.959Z</time></trkpt><trkpt lat="41.2897965" lon="2.0113913"><ele>5.0</ele><time>2026-05-04T17:44:50.959Z</time></trkpt><trkpt lat="41.2898546" lon="2.0115447"><ele>4.5</ele><time>2026-05-04T17:44:51.959Z</time></trkpt><trkpt lat="41.2899113" lon="2.011691"><ele>4.0</ele><time>2026-05-04T17:44:52.958Z</time></trkpt><trkpt lat="41.2899656" lon="2.0118305"><ele>3.5</ele><time>2026-05-04T17:44:53.959Z</time></trkpt><trkpt lat="41.2900189" lon="2.0119623"><ele>3.0</ele><time>2026-05-04T17:44:54.959Z</time></trkpt><trkpt lat="41.2900746" lon="2.0120905"><ele>3.0</ele><time>2026-05-04T17:44:55.959Z</time></trkpt><trkpt lat="41.2901294" lon="2.0122177"><ele>3.0</ele><time>2026-05-04T17:44:56.959Z</time></trkpt><trkpt lat="41.2901853" lon="2.0123344"><ele>3.0</ele><time>2026-05-04T17:44:57.959Z</time></trkpt><trkpt lat="41.2902478" lon="2.0124483"><ele>3.0</ele><time>2026-05-04T17:44:58.959Z</time></trkpt><trkpt lat="41.2903073" lon="2.0125632"><ele>3.0</ele><time>2026-05-04T17:44:59.959Z</time></trkpt><trkpt lat="41.2903663" lon="2.0126792"><ele>3.0</ele><time>2026-05-04T17:45:00.959Z</time></trkpt><trkpt lat="41.290422" lon="2.0127984"><ele>3.0</ele><time>2026-05-04T17:45:01.959Z</time></trkpt><trkpt lat="41.2904749" lon="2.0129202"><ele>3.0</ele><time>2026-05-04T17:45:02.959Z</time></trkpt><trkpt lat="41.290529" lon="2.0130444"><ele>3.0</ele><time>2026-05-04T17:45:03.959Z</time></trkpt><trkpt lat="41.2905805" lon="2.013171"><ele>3.0</ele><time>2026-05-04T17:45:04.958Z</time></trkpt><trkpt lat="41.2906334" lon="2.0132964"><ele>3.2</ele><time>2026-05-04T17:45:05.959Z</time></trkpt><trkpt lat="41.2906901" lon="2.0134209"><ele>3.4</ele><time>2026-05-04T17:45:06.959Z</time></trkpt><trkpt lat="41.2907474" lon="2.0135447"><ele>3.6000000000000005</ele><time>2026-05-04T17:45:07.959Z</time></trkpt><trkpt lat="41.290807" lon="2.0136672"><ele>3.8000000000000003</ele><time>2026-05-04T17:45:08.959Z</time></trkpt><trkpt lat="41.2908679" lon="2.0137921"><ele>4.0</ele><time>2026-05-04T17:45:09.959Z</time></trkpt><trkpt lat="41.290928" lon="2.013913"><ele>3.9999999999999996</ele><time>2026-05-04T17:45:10.959Z</time></trkpt><trkpt lat="41.2909823" lon="2.0140212"><ele>4.0</ele><time>2026-05-04T17:45:11.959Z</time></trkpt><trkpt lat="41.2910336" lon="2.0141209"><ele>4.0</ele><time>2026-05-04T17:45:12.959Z</time></trkpt><trkpt lat="41.2910789" lon="2.01421"><ele>4.0</ele><time>2026-05-04T17:45:13.958Z</time></trkpt><trkpt lat="41.2911161" lon="2.0142947"><ele>3.9999999999999996</ele><time>2026-05-04T17:45:14.959Z</time></trkpt><trkpt lat="41.2911496" lon="2.0143833"><ele>4.0</ele><time>2026-05-04T17:45:15.959Z</time></trkpt><trkpt lat="41.2911791" lon="2.0144813"><ele>4.166666666666666</ele><time>2026-05-04T17:45:16.959Z</time></trkpt><trkpt lat="41.2911879" lon="2.0145849"><ele>4.333333333333333</ele><time>2026-05-04T17:45:17.959Z</time></trkpt><trkpt lat="41.2911751" lon="2.0146825"><ele>4.5</ele><time>2026-05-04T17:45:18.959Z</time></trkpt><trkpt lat="41.2911355" lon="2.0147593"><ele>4.666666666666667</ele><time>2026-05-04T17:45:19.959Z</time></trkpt><trkpt lat="41.2910788" lon="2.0148188"><ele>4.833333333333334</ele><time>2026-05-04T17:45:20.959Z</time></trkpt><trkpt lat="41.2910112" lon="2.0148659"><ele>5.0</ele><time>2026-05-04T17:45:21.959Z</time></trkpt><trkpt lat="41.2909285" lon="2.0149109"><ele>5.0</ele><time>2026-05-04T17:45:22.958Z</time></trkpt><trkpt lat="41.2908351" lon="2.0149534"><ele>5.0</ele><time>2026-05-04T17:45:23.958Z</time></trkpt><trkpt lat="41.2907356" lon="2.0150005"><ele>5.0</ele><time>2026-05-04T17:45:24.959Z</time></trkpt><trkpt lat="41.2906162" lon="2.0150625"><ele>5.0</ele><time>2026-05-04T17:45:25.959Z</time></trkpt><trkpt lat="41.2905126" lon="2.0151077"><ele>5.0</ele><time>2026-05-04T17:45:26.958Z</time></trkpt><trkpt lat="41.2904055" lon="2.0151527"><ele>4.75</ele><time>2026-05-04T17:45:27.959Z</time></trkpt><trkpt lat="41.2902968" lon="2.0151961"><ele>4.5</ele><time>2026-05-04T17:45:28.958Z</time></trkpt><trkpt lat="41.2901919" lon="2.0152479"><ele>4.25</ele><time>2026-05-04T17:45:29.959Z</time></trkpt><trkpt lat="41.2900877" lon="2.0152974"><ele>4.0</ele><time>2026-05-04T17:45:30.959Z</time></trkpt><trkpt lat="41.2899765" lon="2.015336"><ele>4.0</ele><time>2026-05-04T17:45:31.958Z</time></trkpt><trkpt lat="41.2898677" lon="2.0153854"><ele>4.0</ele><time>2026-05-04T17:45:32.959Z</time></trkpt><trkpt lat="41.2897554" lon="2.015431"><ele>4.0</ele><time>2026-05-04T17:45:33.959Z</time></trkpt><trkpt lat="41.2896432" lon="2.0154755"><ele>4.0</ele><time>2026-05-04T17:45:34.959Z</time></trkpt><trkpt lat="41.2895309" lon="2.0155181"><ele>4.25</ele><time>2026-05-04T17:45:35.959Z</time></trkpt><trkpt lat="41.2894209" lon="2.0155643"><ele>4.5</ele><time>2026-05-04T17:45:36.959Z</time></trkpt><trkpt lat="41.2893121" lon="2.0156072"><ele>4.75</ele><time>2026-05-04T17:45:37.959Z</time></trkpt><trkpt lat="41.2892033" lon="2.01565"><ele>5.0</ele><time>2026-05-04T17:45:38.959Z</time></trkpt><trkpt lat="41.2890949" lon="2.0156993"><ele>5.0</ele><time>2026-05-04T17:45:39.959Z</time></trkpt><trkpt lat="41.2889867" lon="2.0157449"><ele>5.0</ele><time>2026-05-04T17:45:40.959Z</time></trkpt><trkpt lat="41.2888757" lon="2.0157864"><ele>5.0</ele><time>2026-05-04T17:45:41.959Z</time></trkpt><trkpt lat="41.2887672" lon="2.0158264"><ele>5.0</ele><time>2026-05-04T17:45:42.959Z</time></trkpt><trkpt lat="41.2886608" lon="2.0158742"><ele>4.8</ele><time>2026-05-04T17:45:43.959Z</time></trkpt><trkpt lat="41.2885545" lon="2.0159175"><ele>4.6</ele><time>2026-05-04T17:45:44.959Z</time></trkpt><trkpt lat="41.2884562" lon="2.0159475"><ele>4.4</ele><time>2026-05-04T17:45:45.959Z</time></trkpt><trkpt lat="41.2883653" lon="2.0159862"><ele>4.2</ele><time>2026-05-04T17:45:46.959Z</time></trkpt><trkpt lat="41.2882789" lon="2.0160236"><ele>4.0</ele><time>2026-05-04T17:45:47.958Z</time></trkpt><trkpt lat="41.2882058" lon="2.0160445"><ele>3.9999999999999996</ele><time>2026-05-04T17:45:48.959Z</time></trkpt><trkpt lat="41.2881356" lon="2.0160466"><ele>4.0</ele><time>2026-05-04T17:45:49.959Z</time></trkpt><trkpt lat="41.2880637" lon="2.01605"><ele>4.0</ele><time>2026-05-04T17:45:50.959Z</time></trkpt><trkpt lat="41.2879524" lon="2.0161305"><ele>4.0</ele><time>2026-05-04T17:45:52.959Z</time></trkpt><trkpt lat="41.2878803" lon="2.0161896"><ele>3.9999999999999996</ele><time>2026-05-04T17:45:53.959Z</time></trkpt><trkpt lat="41.2878004" lon="2.0162254"><ele>4.0</ele><time>2026-05-04T17:45:54.959Z</time></trkpt><trkpt lat="41.2877146" lon="2.0162588"><ele>4.0</ele><time>2026-05-04T17:45:55.958Z</time></trkpt><trkpt lat="41.2876284" lon="2.0162922"><ele>4.0</ele><time>2026-05-04T17:45:56.959Z</time></trkpt><trkpt lat="41.2875404" lon="2.0163301"><ele>4.0</ele><time>2026-05-04T17:45:57.959Z</time></trkpt><trkpt lat="41.2874464" lon="2.0163707"><ele>4.0</ele><time>2026-05-04T17:45:58.958Z</time></trkpt><trkpt lat="41.2873503" lon="2.0164151"><ele>4.0</ele><time>2026-05-04T17:45:59.958Z</time></trkpt><trkpt lat="41.2872522" lon="2.0164613"><ele>3.8000000000000003</ele><time>2026-05-04T17:46:00.958Z</time></trkpt><trkpt lat="41.287153" lon="2.0164982"><ele>3.6000000000000005</ele><time>2026-05-04T17:46:01.959Z</time></trkpt><trkpt lat="41.2870513" lon="2.0165335"><ele>3.4</ele><time>2026-05-04T17:46:02.959Z</time></trkpt><trkpt lat="41.2869479" lon="2.016573"><ele>3.2</ele><time>2026-05-04T17:46:03.959Z</time></trkpt><trkpt lat="41.286852" lon="2.0166146"><ele>3.0</ele><time>2026-05-04T17:46:04.959Z</time></trkpt><trkpt lat="41.2867592" lon="2.0166558"><ele>3.0</ele><time>2026-05-04T17:46:05.958Z</time></trkpt><trkpt lat="41.2866682" lon="2.0166848"><ele>3.0</ele><time>2026-05-04T17:46:06.959Z</time></trkpt><trkpt lat="41.2865799" lon="2.0167215"><ele>3.0</ele><time>2026-05-04T17:46:07.959Z</time></trkpt><trkpt lat="41.2864905" lon="2.01676"><ele>3.0</ele><time>2026-05-04T17:46:08.959Z</time></trkpt><trkpt lat="41.2864016" lon="2.0167977"><ele>3.0</ele><time>2026-05-04T17:46:09.958Z</time></trkpt><trkpt lat="41.2863041" lon="2.0168404"><ele>3.2</ele><time>2026-05-04T17:46:10.959Z</time></trkpt><trkpt lat="41.2862097" lon="2.0168812"><ele>3.4</ele><time>2026-05-04T17:46:11.959Z</time></trkpt><trkpt lat="41.2861104" lon="2.016918"><ele>3.6000000000000005</ele><time>2026-05-04T17:46:12.959Z</time></trkpt><trkpt lat="41.2860034" lon="2.0169614"><ele>3.8000000000000003</ele><time>2026-05-04T17:46:13.959Z</time></trkpt><trkpt lat="41.2858982" lon="2.0170079"><ele>4.0</ele><time>2026-05-04T17:46:14.959Z</time></trkpt><trkpt lat="41.2857871" lon="2.0170533"><ele>4.0</ele><time>2026-05-04T17:46:15.959Z</time></trkpt><trkpt lat="41.285673" lon="2.0171002"><ele>4.0</ele><time>2026-05-04T17:46:16.959Z</time></trkpt><trkpt lat="41.2855563" lon="2.0171466"><ele>4.0</ele><time>2026-05-04T17:46:17.96Z</time></trkpt><trkpt lat="41.2854421" lon="2.0171944"><ele>4.0</ele><time>2026-05-04T17:46:18.96Z</time></trkpt><trkpt lat="41.2853199" lon="2.0172432"><ele>4.0</ele><time>2026-05-04T17:46:19.959Z</time></trkpt><trkpt lat="41.2851986" lon="2.0172924"><ele>4.0</ele><time>2026-05-04T17:46:20.96Z</time></trkpt><trkpt lat="41.2850823" lon="2.0173409"><ele>4.0</ele><time>2026-05-04T17:46:21.96Z</time></trkpt><trkpt lat="41.2849598" lon="2.0173884"><ele>4.0</ele><time>2026-05-04T17:46:22.96Z</time></trkpt><trkpt lat="41.2848375" lon="2.0174434"><ele>4.25</ele><time>2026-05-04T17:46:23.959Z</time></trkpt><trkpt lat="41.2847207" lon="2.0174939"><ele>4.5</ele><time>2026-05-04T17:46:24.96Z</time></trkpt><trkpt lat="41.2846067" lon="2.0175435"><ele>4.75</ele><time>2026-05-04T17:46:25.959Z</time></trkpt><trkpt lat="41.2844892" lon="2.0175914"><ele>5.0</ele><time>2026-05-04T17:46:26.96Z</time></trkpt><trkpt lat="41.2843697" lon="2.0176396"><ele>5.0</ele><time>2026-05-04T17:46:27.96Z</time></trkpt><trkpt lat="41.2842468" lon="2.0176922"><ele>5.0</ele><time>2026-05-04T17:46:28.96Z</time></trkpt><trkpt lat="41.2841257" lon="2.0177451"><ele>5.0</ele><time>2026-05-04T17:46:29.96Z</time></trkpt><trkpt lat="41.2840099" lon="2.0177885"><ele>5.0</ele><time>2026-05-04T17:46:30.96Z</time></trkpt><trkpt lat="41.2838992" lon="2.0178306"><ele>4.75</ele><time>2026-05-04T17:46:31.96Z</time></trkpt><trkpt lat="41.2837852" lon="2.0178823"><ele>4.5</ele><time>2026-05-04T17:46:32.96Z</time></trkpt><trkpt lat="41.2836676" lon="2.0179242"><ele>4.25</ele><time>2026-05-04T17:46:33.96Z</time></trkpt><trkpt lat="41.2835479" lon="2.0179719"><ele>4.0</ele><time>2026-05-04T17:46:34.96Z</time></trkpt><trkpt lat="41.2834306" lon="2.018022"><ele>4.0</ele><time>2026-05-04T17:46:35.96Z</time></trkpt><trkpt lat="41.2833063" lon="2.0180738"><ele>4.0</ele><time>2026-05-04T17:46:36.96Z</time></trkpt><trkpt lat="41.2831845" lon="2.0181171"><ele>4.0</ele><time>2026-05-04T17:46:37.96Z</time></trkpt><trkpt lat="41.2830675" lon="2.0181651"><ele>4.0</ele><time>2026-05-04T17:46:38.96Z</time></trkpt><trkpt lat="41.2829598" lon="2.0182138"><ele>4.0</ele><time>2026-05-04T17:46:39.993Z</time></trkpt><trkpt lat="41.2828455" lon="2.0182642"><ele>4.0</ele><time>2026-05-04T17:46:40.96Z</time></trkpt><trkpt lat="41.2827305" lon="2.0183101"><ele>4.0</ele><time>2026-05-04T17:46:41.96Z</time></trkpt><trkpt lat="41.2826169" lon="2.0183609"><ele>4.0</ele><time>2026-05-04T17:46:42.96Z</time></trkpt><trkpt lat="41.2825023" lon="2.0184025"><ele>4.0</ele><time>2026-05-04T17:46:43.96Z</time></trkpt><trkpt lat="41.2823891" lon="2.0184489"><ele>4.0</ele><time>2026-05-04T17:46:44.96Z</time></trkpt><trkpt lat="41.2822754" lon="2.0184965"><ele>4.0</ele><time>2026-05-04T17:46:45.96Z</time></trkpt><trkpt lat="41.2821585" lon="2.0185425"><ele>4.0</ele><time>2026-05-04T17:46:46.96Z</time></trkpt><trkpt lat="41.282039" lon="2.0185933"><ele>3.5</ele><time>2026-05-04T17:46:47.96Z</time></trkpt><trkpt lat="41.281918" lon="2.0186425"><ele>3.0</ele><time>2026-05-04T17:46:48.96Z</time></trkpt><trkpt lat="41.2817954" lon="2.0186931"><ele>2.5</ele><time>2026-05-04T17:46:49.96Z</time></trkpt><trkpt lat="41.2816717" lon="2.0187423"><ele>2.0</ele><time>2026-05-04T17:46:50.96Z</time></trkpt><trkpt lat="41.2815509" lon="2.0187918"><ele>2.0</ele><time>2026-05-04T17:46:51.959Z</time></trkpt><trkpt lat="41.2814345" lon="2.018838"><ele>2.0</ele><time>2026-05-04T17:46:52.959Z</time></trkpt><trkpt lat="41.2813153" lon="2.0188843"><ele>2.0</ele><time>2026-05-04T17:46:53.96Z</time></trkpt><trkpt lat="41.281199" lon="2.0189338"><ele>2.0</ele><time>2026-05-04T17:46:54.96Z</time></trkpt><trkpt lat="41.2810812" lon="2.0189836"><ele>2.25</ele><time>2026-05-04T17:46:55.96Z</time></trkpt><trkpt lat="41.2809609" lon="2.019034"><ele>2.5</ele><time>2026-05-04T17:46:56.96Z</time></trkpt><trkpt lat="41.2808427" lon="2.0190775"><ele>2.75</ele><time>2026-05-04T17:46:57.96Z</time></trkpt><trkpt lat="41.2807221" lon="2.0191188"><ele>3.0</ele><time>2026-05-04T17:46:58.96Z</time></trkpt><trkpt lat="41.2805979" lon="2.0191645"><ele>3.25</ele><time>2026-05-04T17:46:59.96Z</time></trkpt><trkpt lat="41.2804752" lon="2.0192041"><ele>3.5</ele><time>2026-05-04T17:47:00.96Z</time></trkpt><trkpt lat="41.2803536" lon="2.0192506"><ele>3.75</ele><time>2026-05-04T17:47:01.96Z</time></trkpt><trkpt lat="41.2802258" lon="2.0192956"><ele>4.0</ele><time>2026-05-04T17:47:02.96Z</time></trkpt><trkpt lat="41.280098" lon="2.0193292"><ele>4.0</ele><time>2026-05-04T17:47:03.959Z</time></trkpt><trkpt lat="41.2799741" lon="2.0193674"><ele>4.0</ele><time>2026-05-04T17:47:04.96Z</time></trkpt><trkpt lat="41.2798504" lon="2.0194037"><ele>4.0</ele><time>2026-05-04T17:47:05.96Z</time></trkpt><trkpt lat="41.2797319" lon="2.0194303"><ele>4.0</ele><time>2026-05-04T17:47:06.96Z</time></trkpt><trkpt lat="41.2796087" lon="2.0194556"><ele>4.5</ele><time>2026-05-04T17:47:07.96Z</time></trkpt><trkpt lat="41.2794903" lon="2.0194824"><ele>5.0</ele><time>2026-05-04T17:47:08.96Z</time></trkpt><trkpt lat="41.2793671" lon="2.0195046"><ele>5.5</ele><time>2026-05-04T17:47:09.96Z</time></trkpt><trkpt lat="41.2792485" lon="2.0195267"><ele>6.0</ele><time>2026-05-04T17:47:10.96Z</time></trkpt><trkpt lat="41.2791274" lon="2.0195487"><ele>6.0</ele><time>2026-05-04T17:47:11.96Z</time></trkpt><trkpt lat="41.2790057" lon="2.0195677"><ele>6.0</ele><time>2026-05-04T17:47:12.96Z</time></trkpt><trkpt lat="41.2788856" lon="2.0195772"><ele>6.0</ele><time>2026-05-04T17:47:13.96Z</time></trkpt><trkpt lat="41.2787621" lon="2.0195895"><ele>6.0</ele><time>2026-05-04T17:47:14.96Z</time></trkpt><trkpt lat="41.27864" lon="2.0196068"><ele>6.0</ele><time>2026-05-04T17:47:15.96Z</time></trkpt><trkpt lat="41.2785182" lon="2.0196228"><ele>6.0</ele><time>2026-05-04T17:47:16.96Z</time></trkpt><trkpt lat="41.278393" lon="2.0196327"><ele>6.0</ele><time>2026-05-04T17:47:17.96Z</time></trkpt><trkpt lat="41.2782687" lon="2.0196435"><ele>6.0</ele><time>2026-05-04T17:47:18.96Z</time></trkpt><trkpt lat="41.2781451" lon="2.0196512"><ele>5.25</ele><time>2026-05-04T17:47:19.96Z</time></trkpt><trkpt lat="41.2780228" lon="2.0196486"><ele>4.5</ele><time>2026-05-04T17:47:20.96Z</time></trkpt><trkpt lat="41.2778939" lon="2.0196505"><ele>3.75</ele><time>2026-05-04T17:47:21.96Z</time></trkpt><trkpt lat="41.2777639" lon="2.0196492"><ele>3.0</ele><time>2026-05-04T17:47:22.96Z</time></trkpt><trkpt lat="41.2776311" lon="2.0196549"><ele>3.0</ele><time>2026-05-04T17:47:23.959Z</time></trkpt><trkpt lat="41.2774949" lon="2.0196575"><ele>3.0</ele><time>2026-05-04T17:47:24.96Z</time></trkpt><trkpt lat="41.2773638" lon="2.0196604"><ele>3.0</ele><time>2026-05-04T17:47:25.96Z</time></trkpt><trkpt lat="41.2772389" lon="2.0196597"><ele>3.0</ele><time>2026-05-04T17:47:26.96Z</time></trkpt><trkpt lat="41.2771109" lon="2.0196592"><ele>3.0</ele><time>2026-05-04T17:47:27.96Z</time></trkpt><trkpt lat="41.2769822" lon="2.0196584"><ele>3.0</ele><time>2026-05-04T17:47:28.96Z</time></trkpt><trkpt lat="41.276855" lon="2.0196632"><ele>3.0</ele><time>2026-05-04T17:47:29.96Z</time></trkpt><trkpt lat="41.2767271" lon="2.0196641"><ele>3.0</ele><time>2026-05-04T17:47:30.959Z</time></trkpt><trkpt lat="41.2765952" lon="2.0196643"><ele>3.0</ele><time>2026-05-04T17:47:31.96Z</time></trkpt><trkpt lat="41.2764678" lon="2.019671"><ele>3.0</ele><time>2026-05-04T17:47:32.96Z</time></trkpt><trkpt lat="41.2763356" lon="2.0196697"><ele>3.0</ele><time>2026-05-04T17:47:33.96Z</time></trkpt><trkpt lat="41.2762035" lon="2.0196706"><ele>3.0</ele><time>2026-05-04T17:47:34.96Z</time></trkpt><trkpt lat="41.2760747" lon="2.0196663"><ele>3.5</ele><time>2026-05-04T17:47:35.96Z</time></trkpt><trkpt lat="41.2759474" lon="2.0196636"><ele>4.0</ele><time>2026-05-04T17:47:36.959Z</time></trkpt><trkpt lat="41.2758216" lon="2.0196652"><ele>4.5</ele><time>2026-05-04T17:47:37.96Z</time></trkpt><trkpt lat="41.2756915" lon="2.0196695"><ele>5.0</ele><time>2026-05-04T17:47:38.96Z</time></trkpt><trkpt lat="41.2755602" lon="2.0196665"><ele>4.0</ele><time>2026-05-04T17:47:39.96Z</time></trkpt><trkpt lat="41.2754302" lon="2.0196651"><ele>3.0</ele><time>2026-05-04T17:47:40.96Z</time></trkpt><trkpt lat="41.2753028" lon="2.019666"><ele>2.0</ele><time>2026-05-04T17:47:41.96Z</time></trkpt><trkpt lat="41.2751707" lon="2.0196731"><ele>1.0</ele><time>2026-05-04T17:47:42.96Z</time></trkpt><trkpt lat="41.2750383" lon="2.0196777"><ele>1.0</ele><time>2026-05-04T17:47:43.96Z</time></trkpt><trkpt lat="41.2749084" lon="2.0196837"><ele>1.0</ele><time>2026-05-04T17:47:44.959Z</time></trkpt><trkpt lat="41.2747756" lon="2.0196926"><ele>1.0</ele><time>2026-05-04T17:47:45.959Z</time></trkpt><trkpt lat="41.2746481" lon="2.0196901"><ele>1.0</ele><time>2026-05-04T17:47:46.96Z</time></trkpt><trkpt lat="41.2745152" lon="2.0196903"><ele>1.75</ele><time>2026-05-04T17:47:47.96Z</time></trkpt><trkpt lat="41.2743845" lon="2.0196874"><ele>2.5</ele><time>2026-05-04T17:47:48.96Z</time></trkpt><trkpt lat="41.2742521" lon="2.0196887"><ele>3.25</ele><time>2026-05-04T17:47:49.96Z</time></trkpt><trkpt lat="41.2741234" lon="2.0196843"><ele>4.0</ele><time>2026-05-04T17:47:50.96Z</time></trkpt><trkpt lat="41.2739992" lon="2.019685"><ele>5.25</ele><time>2026-05-04T17:47:51.96Z</time></trkpt><trkpt lat="41.2738759" lon="2.0196853"><ele>6.5</ele><time>2026-05-04T17:47:52.96Z</time></trkpt><trkpt lat="41.2737553" lon="2.0196882"><ele>7.75</ele><time>2026-05-04T17:47:53.959Z</time></trkpt><trkpt lat="41.273632" lon="2.019694"><ele>9.0</ele><time>2026-05-04T17:47:54.96Z</time></trkpt><trkpt lat="41.2735157" lon="2.0196964"><ele>9.0</ele><time>2026-05-04T17:47:55.96Z</time></trkpt><trkpt lat="41.2733993" lon="2.0197025"><ele>9.0</ele><time>2026-05-04T17:47:56.96Z</time></trkpt><trkpt lat="41.2732857" lon="2.0197057"><ele>9.0</ele><time>2026-05-04T17:47:57.96Z</time></trkpt><trkpt lat="41.2731785" lon="2.0197053"><ele>9.0</ele><time>2026-05-04T17:47:58.96Z</time></trkpt><trkpt lat="41.2730716" lon="2.0197005"><ele>9.0</ele><time>2026-05-04T17:47:59.96Z</time></trkpt><trkpt lat="41.2729688" lon="2.0196967"><ele>8.4</ele><time>2026-05-04T17:48:00.96Z</time></trkpt><trkpt lat="41.2728683" lon="2.0196962"><ele>7.800000000000001</ele><time>2026-05-04T17:48:01.96Z</time></trkpt><trkpt lat="41.2727831" lon="2.0196911"><ele>7.199999999999999</ele><time>2026-05-04T17:48:02.96Z</time></trkpt><trkpt lat="41.2727154" lon="2.0196858"><ele>6.6</ele><time>2026-05-04T17:48:03.96Z</time></trkpt><trkpt lat="41.2726119" lon="2.0196813"><ele>6.0</ele><time>2026-05-04T17:48:05.96Z</time></trkpt><trkpt lat="41.2725198" lon="2.0196507"><ele>6.0</ele><time>2026-05-04T17:48:07.96Z</time></trkpt><trkpt lat="41.2724011" lon="2.0196626"><ele>6.0</ele><time>2026-05-04T17:48:09.96Z</time></trkpt><trkpt lat="41.2723291" lon="2.0196792"><ele>6.0</ele><time>2026-05-04T17:48:10.96Z</time></trkpt><trkpt lat="41.2722421" lon="2.0196801"><ele>6.0</ele><time>2026-05-04T17:48:11.96Z</time></trkpt><trkpt lat="41.2721471" lon="2.0196708"><ele>6.0</ele><time>2026-05-04T17:48:12.96Z</time></trkpt><trkpt lat="41.2720485" lon="2.0196687"><ele>5.2</ele><time>2026-05-04T17:48:13.96Z</time></trkpt><trkpt lat="41.2719397" lon="2.0196724"><ele>4.3999999999999995</ele><time>2026-05-04T17:48:14.959Z</time></trkpt><trkpt lat="41.2718294" lon="2.0196769"><ele>3.6</ele><time>2026-05-04T17:48:15.959Z</time></trkpt><trkpt lat="41.2717177" lon="2.0196805"><ele>2.8</ele><time>2026-05-04T17:48:16.959Z</time></trkpt><trkpt lat="41.2716028" lon="2.0196834"><ele>2.0</ele><time>2026-05-04T17:48:17.96Z</time></trkpt><trkpt lat="41.2714884" lon="2.0196857"><ele>3.0</ele><time>2026-05-04T17:48:18.96Z</time></trkpt><trkpt lat="41.2713693" lon="2.0196848"><ele>4.0</ele><time>2026-05-04T17:48:19.96Z</time></trkpt><trkpt lat="41.2712553" lon="2.0196888"><ele>5.0</ele><time>2026-05-04T17:48:20.96Z</time></trkpt><trkpt lat="41.2711351" lon="2.0196877"><ele>6.0</ele><time>2026-05-04T17:48:21.96Z</time></trkpt><trkpt lat="41.2710186" lon="2.0196871"><ele>6.0</ele><time>2026-05-04T17:48:22.959Z</time></trkpt><trkpt lat="41.2708946" lon="2.0196872"><ele>6.0</ele><time>2026-05-04T17:48:23.96Z</time></trkpt><trkpt lat="41.2707733" lon="2.0196897"><ele>6.0</ele><time>2026-05-04T17:48:24.96Z</time></trkpt><trkpt lat="41.270654" lon="2.0196917"><ele>6.0</ele><time>2026-05-04T17:48:25.96Z</time></trkpt><trkpt lat="41.2705425" lon="2.0196977"><ele>6.5</ele><time>2026-05-04T17:48:26.96Z</time></trkpt><trkpt lat="41.2704352" lon="2.0196943"><ele>7.0</ele><time>2026-05-04T17:48:27.96Z</time></trkpt><trkpt lat="41.2703356" lon="2.0196959"><ele>7.5</ele><time>2026-05-04T17:48:28.96Z</time></trkpt><trkpt lat="41.2702499" lon="2.0197001"><ele>8.0</ele><time>2026-05-04T17:48:29.96Z</time></trkpt><trkpt lat="41.2701753" lon="2.0197031"><ele>8.5</ele><time>2026-05-04T17:48:30.96Z</time></trkpt><trkpt lat="41.270105" lon="2.0197012"><ele>9.0</ele><time>2026-05-04T17:48:31.96Z</time></trkpt><trkpt lat="41.2700419" lon="2.0196945"><ele>9.0</ele><time>2026-05-04T17:48:32.96Z</time></trkpt><trkpt lat="41.2699424" lon="2.0196865"><ele>9.0</ele><time>2026-05-04T17:48:34.96Z</time></trkpt><trkpt lat="41.26983" lon="2.0196946"><ele>9.0</ele><time>2026-05-04T17:48:36.96Z</time></trkpt><trkpt lat="41.2697665" lon="2.019692"><ele>9.0</ele><time>2026-05-04T17:48:37.959Z</time></trkpt><trkpt lat="41.2696986" lon="2.0196803"><ele>9.0</ele><time>2026-05-04T17:48:38.96Z</time></trkpt><trkpt lat="41.2696335" lon="2.0196488"><ele>9.0</ele><time>2026-05-04T17:48:39.96Z</time></trkpt><trkpt lat="41.2695784" lon="2.019595"><ele>9.4</ele><time>2026-05-04T17:48:40.96Z</time></trkpt><trkpt lat="41.2695213" lon="2.0194389"><ele>9.8</ele><time>2026-05-04T17:48:42.96Z</time></trkpt><trkpt lat="41.2695081" lon="2.0193442"><ele>10.200000000000001</ele><time>2026-05-04T17:48:43.96Z</time></trkpt><trkpt lat="41.2694931" lon="2.0192457"><ele>10.600000000000001</ele><time>2026-05-04T17:48:44.96Z</time></trkpt><trkpt lat="41.2694738" lon="2.0191281"><ele>11.0</ele><time>2026-05-04T17:48:45.96Z</time></trkpt><trkpt lat="41.2694567" lon="2.0189931"><ele>11.0</ele><time>2026-05-04T17:48:46.959Z</time></trkpt><trkpt lat="41.2694396" lon="2.0188696"><ele>11.0</ele><time>2026-05-04T17:48:47.96Z</time></trkpt><trkpt lat="41.269433" lon="2.0187433"><ele>11.0</ele><time>2026-05-04T17:48:48.96Z</time></trkpt><trkpt lat="41.2694237" lon="2.0186197"><ele>11.0</ele><time>2026-05-04T17:48:49.96Z</time></trkpt><trkpt lat="41.2694117" lon="2.0184971"><ele>11.0</ele><time>2026-05-04T17:48:50.96Z</time></trkpt><trkpt lat="41.2694017" lon="2.0183727"><ele>10.666666666666666</ele><time>2026-05-04T17:48:51.96Z</time></trkpt><trkpt lat="41.2693968" lon="2.0182582"><ele>10.333333333333332</ele><time>2026-05-04T17:48:52.959Z</time></trkpt><trkpt lat="41.2693901" lon="2.0181498"><ele>10.0</ele><time>2026-05-04T17:48:53.96Z</time></trkpt><trkpt lat="41.2693795" lon="2.0180423"><ele>9.666666666666666</ele><time>2026-05-04T17:48:54.96Z</time></trkpt><trkpt lat="41.2693724" lon="2.0179415"><ele>9.333333333333334</ele><time>2026-05-04T17:48:55.96Z</time></trkpt><trkpt lat="41.2693774" lon="2.0178456"><ele>9.0</ele><time>2026-05-04T17:48:56.961Z</time></trkpt><trkpt lat="41.2693971" lon="2.0177534"><ele>9.000000000000002</ele><time>2026-05-04T17:48:57.961Z</time></trkpt><trkpt lat="41.2694334" lon="2.0176807"><ele>9.0</ele><time>2026-05-04T17:48:58.96Z</time></trkpt><trkpt lat="41.2694805" lon="2.0176166"><ele>9.0</ele><time>2026-05-04T17:48:59.961Z</time></trkpt><trkpt lat="41.2695474" lon="2.0175832"><ele>9.0</ele><time>2026-05-04T17:49:00.961Z</time></trkpt><trkpt lat="41.2696246" lon="2.0175689"><ele>9.0</ele><time>2026-05-04T17:49:01.961Z</time></trkpt><trkpt lat="41.2697071" lon="2.0175715"><ele>9.000000000000002</ele><time>2026-05-04T17:49:02.961Z</time></trkpt><trkpt lat="41.2697764" lon="2.0175834"><ele>9.0</ele><time>2026-05-04T17:49:03.961Z</time></trkpt><trkpt lat="41.2698769" lon="2.0176357"><ele>8.8</ele><time>2026-05-04T17:49:05.961Z</time></trkpt><trkpt lat="41.269936" lon="2.0177411"><ele>8.600000000000001</ele><time>2026-05-04T17:49:07.961Z</time></trkpt><trkpt lat="41.2699752" lon="2.0178631"><ele>8.4</ele><time>2026-05-04T17:49:09.961Z</time></trkpt><trkpt lat="41.2699777" lon="2.0180212"><ele>8.200000000000001</ele><time>2026-05-04T17:49:11.961Z</time></trkpt><trkpt lat="41.2699837" lon="2.0181095"><ele>8.0</ele><time>2026-05-04T17:49:12.96Z</time></trkpt><trkpt lat="41.2699938" lon="2.0182034"><ele>8.0</ele><time>2026-05-04T17:49:13.961Z</time></trkpt><trkpt lat="41.2700023" lon="2.0183114"><ele>8.0</ele><time>2026-05-04T17:49:14.961Z</time></trkpt><trkpt lat="41.2700114" lon="2.0184257"><ele>8.0</ele><time>2026-05-04T17:49:15.961Z</time></trkpt><trkpt lat="41.2700241" lon="2.0185528"><ele>8.0</ele><time>2026-05-04T17:49:16.96Z</time></trkpt><trkpt lat="41.2700389" lon="2.0186891"><ele>8.0</ele><time>2026-05-04T17:49:17.961Z</time></trkpt><trkpt lat="41.270052" lon="2.0188263"><ele>8.200000000000001</ele><time>2026-05-04T17:49:18.961Z</time></trkpt><trkpt lat="41.2700629" lon="2.0189551"><ele>8.4</ele><time>2026-05-04T17:49:19.961Z</time></trkpt><trkpt lat="41.2700793" lon="2.0190805"><ele>8.600000000000001</ele><time>2026-05-04T17:49:20.961Z</time></trkpt><trkpt lat="41.2701009" lon="2.0192104"><ele>8.8</ele><time>2026-05-04T17:49:21.961Z</time></trkpt><trkpt lat="41.2701184" lon="2.0193483"><ele>9.0</ele><time>2026-05-04T17:49:22.961Z</time></trkpt><trkpt lat="41.2701354" lon="2.0194921"><ele>9.0</ele><time>2026-05-04T17:49:23.961Z</time></trkpt><trkpt lat="41.2701491" lon="2.0196374"><ele>9.0</ele><time>2026-05-04T17:49:24.961Z</time></trkpt><trkpt lat="41.270159" lon="2.0197862"><ele>9.0</ele><time>2026-05-04T17:49:25.961Z</time></trkpt><trkpt lat="41.2701713" lon="2.0199382"><ele>9.0</ele><time>2026-05-04T17:49:26.96Z</time></trkpt><trkpt lat="41.2701802" lon="2.0200938"><ele>8.75</ele><time>2026-05-04T17:49:27.961Z</time></trkpt><trkpt lat="41.270196" lon="2.0202516"><ele>8.5</ele><time>2026-05-04T17:49:28.961Z</time></trkpt><trkpt lat="41.2702154" lon="2.0204128"><ele>8.25</ele><time>2026-05-04T17:49:29.961Z</time></trkpt><trkpt lat="41.270232" lon="2.0205752"><ele>8.0</ele><time>2026-05-04T17:49:30.961Z</time></trkpt><trkpt lat="41.270247" lon="2.0207305"><ele>8.0</ele><time>2026-05-04T17:49:31.961Z</time></trkpt><trkpt lat="41.2702632" lon="2.0208841"><ele>8.0</ele><time>2026-05-04T17:49:32.961Z</time></trkpt><trkpt lat="41.2702802" lon="2.0210422"><ele>8.0</ele><time>2026-05-04T17:49:33.961Z</time></trkpt><trkpt lat="41.2702974" lon="2.0212024"><ele>8.0</ele><time>2026-05-04T17:49:34.961Z</time></trkpt><trkpt lat="41.2703152" lon="2.0213645"><ele>8.0</ele><time>2026-05-04T17:49:35.961Z</time></trkpt><trkpt lat="41.270331" lon="2.0215249"><ele>8.0</ele><time>2026-05-04T17:49:36.96Z</time></trkpt><trkpt lat="41.2703453" lon="2.0216855"><ele>8.0</ele><time>2026-05-04T17:49:37.961Z</time></trkpt><trkpt lat="41.27036" lon="2.0218456"><ele>8.0</ele><time>2026-05-04T17:49:38.96Z</time></trkpt><trkpt lat="41.2703786" lon="2.0220114"><ele>7.75</ele><time>2026-05-04T17:49:39.961Z</time></trkpt><trkpt lat="41.2703991" lon="2.0221761"><ele>7.5</ele><time>2026-05-04T17:49:40.961Z</time></trkpt><trkpt lat="41.2704174" lon="2.0223414"><ele>7.25</ele><time>2026-05-04T17:49:41.961Z</time></trkpt><trkpt lat="41.2704342" lon="2.0225096"><ele>7.0</ele><time>2026-05-04T17:49:42.961Z</time></trkpt><trkpt lat="41.2704556" lon="2.0226773"><ele>7.25</ele><time>2026-05-04T17:49:43.961Z</time></trkpt><trkpt lat="41.2704777" lon="2.0228495"><ele>7.5</ele><time>2026-05-04T17:49:44.961Z</time></trkpt><trkpt lat="41.2704977" lon="2.0230175"><ele>7.75</ele><time>2026-05-04T17:49:45.961Z</time></trkpt><trkpt lat="41.2705172" lon="2.023182"><ele>8.0</ele><time>2026-05-04T17:49:46.96Z</time></trkpt><trkpt lat="41.2705389" lon="2.0233463"><ele>8.0</ele><time>2026-05-04T17:49:47.961Z</time></trkpt><trkpt lat="41.2705631" lon="2.0235167"><ele>8.0</ele><time>2026-05-04T17:49:48.961Z</time></trkpt><trkpt lat="41.2705884" lon="2.0236947"><ele>8.0</ele><time>2026-05-04T17:49:49.961Z</time></trkpt><trkpt lat="41.2706085" lon="2.0238703"><ele>8.0</ele><time>2026-05-04T17:49:50.96Z</time></trkpt><trkpt lat="41.2706262" lon="2.0240476"><ele>9.0</ele><time>2026-05-04T17:49:51.96Z</time></trkpt><trkpt lat="41.2706433" lon="2.02422"><ele>10.0</ele><time>2026-05-04T17:49:52.961Z</time></trkpt><trkpt lat="41.2706585" lon="2.0243902"><ele>11.0</ele><time>2026-05-04T17:49:53.961Z</time></trkpt><trkpt lat="41.2706746" lon="2.0245614"><ele>12.0</ele><time>2026-05-04T17:49:54.96Z</time></trkpt><trkpt lat="41.2706888" lon="2.024733"><ele>12.0</ele><time>2026-05-04T17:49:55.961Z</time></trkpt><trkpt lat="41.2707049" lon="2.0249076"><ele>12.0</ele><time>2026-05-04T17:49:56.96Z</time></trkpt><trkpt lat="41.2707206" lon="2.0250788"><ele>12.0</ele><time>2026-05-04T17:49:57.961Z</time></trkpt><trkpt lat="41.2707388" lon="2.0252504"><ele>12.0</ele><time>2026-05-04T17:49:58.961Z</time></trkpt><trkpt lat="41.2707572" lon="2.0254186"><ele>11.75</ele><time>2026-05-04T17:49:59.961Z</time></trkpt><trkpt lat="41.2707738" lon="2.0255867"><ele>11.5</ele><time>2026-05-04T17:50:00.961Z</time></trkpt><trkpt lat="41.2707889" lon="2.0257553"><ele>11.25</ele><time>2026-05-04T17:50:01.96Z</time></trkpt><trkpt lat="41.2708044" lon="2.025923"><ele>11.0</ele><time>2026-05-04T17:50:02.961Z</time></trkpt><trkpt lat="41.2708172" lon="2.0260916"><ele>10.75</ele><time>2026-05-04T17:50:03.961Z</time></trkpt><trkpt lat="41.2708283" lon="2.0262609"><ele>10.5</ele><time>2026-05-04T17:50:04.961Z</time></trkpt><trkpt lat="41.270847" lon="2.02643"><ele>10.25</ele><time>2026-05-04T17:50:05.961Z</time></trkpt><trkpt lat="41.270869" lon="2.0266031"><ele>10.0</ele><time>2026-05-04T17:50:06.961Z</time></trkpt><trkpt lat="41.2708811" lon="2.0267774"><ele>10.0</ele><time>2026-05-04T17:50:07.961Z</time></trkpt><trkpt lat="41.2708939" lon="2.0269514"><ele>10.0</ele><time>2026-05-04T17:50:08.961Z</time></trkpt><trkpt lat="41.2709051" lon="2.0271205"><ele>10.0</ele><time>2026-05-04T17:50:09.961Z</time></trkpt><trkpt lat="41.2709223" lon="2.0272888"><ele>10.0</ele><time>2026-05-04T17:50:10.96Z</time></trkpt><trkpt lat="41.2709399" lon="2.0274603"><ele>10.25</ele><time>2026-05-04T17:50:11.96Z</time></trkpt><trkpt lat="41.2709583" lon="2.0276371"><ele>10.5</ele><time>2026-05-04T17:50:12.961Z</time></trkpt><trkpt lat="41.270973" lon="2.0278112"><ele>10.75</ele><time>2026-05-04T17:50:13.961Z</time></trkpt><trkpt lat="41.2709892" lon="2.0279809"><ele>11.0</ele><time>2026-05-04T17:50:14.961Z</time></trkpt><trkpt lat="41.2710069" lon="2.0281561"><ele>10.5</ele><time>2026-05-04T17:50:15.961Z</time></trkpt><trkpt lat="41.2710246" lon="2.0283305"><ele>10.0</ele><time>2026-05-04T17:50:16.961Z</time></trkpt><trkpt lat="41.2710414" lon="2.0285047"><ele>9.5</ele><time>2026-05-04T17:50:17.96Z</time></trkpt><trkpt lat="41.2710575" lon="2.0286751"><ele>9.0</ele><time>2026-05-04T17:50:18.961Z</time></trkpt><trkpt lat="41.2710761" lon="2.0288465"><ele>9.0</ele><time>2026-05-04T17:50:19.96Z</time></trkpt><trkpt lat="41.2710911" lon="2.0290208"><ele>9.0</ele><time>2026-05-04T17:50:20.961Z</time></trkpt><trkpt lat="41.2711065" lon="2.029196"><ele>9.0</ele><time>2026-05-04T17:50:21.961Z</time></trkpt><trkpt lat="41.2711248" lon="2.029378"><ele>9.0</ele><time>2026-05-04T17:50:22.961Z</time></trkpt><trkpt lat="41.2711398" lon="2.0295565"><ele>8.75</ele><time>2026-05-04T17:50:23.961Z</time></trkpt><trkpt lat="41.2711555" lon="2.0297357"><ele>8.5</ele><time>2026-05-04T17:50:24.961Z</time></trkpt><trkpt lat="41.2711694" lon="2.0299158"><ele>8.25</ele><time>2026-05-04T17:50:25.961Z</time></trkpt><trkpt lat="41.2711847" lon="2.0300988"><ele>8.0</ele><time>2026-05-04T17:50:26.961Z</time></trkpt><trkpt lat="41.271198" lon="2.0302842"><ele>8.0</ele><time>2026-05-04T17:50:27.961Z</time></trkpt><trkpt lat="41.2712111" lon="2.0304656"><ele>8.0</ele><time>2026-05-04T17:50:28.961Z</time></trkpt><trkpt lat="41.2712293" lon="2.0306538"><ele>8.0</ele><time>2026-05-04T17:50:29.961Z</time></trkpt><trkpt lat="41.2712464" lon="2.0308403"><ele>8.0</ele><time>2026-05-04T17:50:30.961Z</time></trkpt><trkpt lat="41.2712637" lon="2.0310354"><ele>8.333333333333332</ele><time>2026-05-04T17:50:31.961Z</time></trkpt><trkpt lat="41.2712802" lon="2.0312323"><ele>8.666666666666666</ele><time>2026-05-04T17:50:32.961Z</time></trkpt><trkpt lat="41.2713018" lon="2.0314322"><ele>9.0</ele><time>2026-05-04T17:50:33.961Z</time></trkpt><trkpt lat="41.2713199" lon="2.0316369"><ele>9.0</ele><time>2026-05-04T17:50:34.961Z</time></trkpt><trkpt lat="41.2713379" lon="2.0318473"><ele>9.0</ele><time>2026-05-04T17:50:35.961Z</time></trkpt><trkpt lat="41.2713581" lon="2.0320624"><ele>9.0</ele><time>2026-05-04T17:50:36.96Z</time></trkpt><trkpt lat="41.2713786" lon="2.0322718"><ele>8.666666666666666</ele><time>2026-05-04T17:50:37.961Z</time></trkpt><trkpt lat="41.2714002" lon="2.0324808"><ele>8.333333333333332</ele><time>2026-05-04T17:50:38.961Z</time></trkpt><trkpt lat="41.2714182" lon="2.0326911"><ele>8.0</ele><time>2026-05-04T17:50:39.961Z</time></trkpt><trkpt lat="41.2714356" lon="2.0329025"><ele>8.0</ele><time>2026-05-04T17:50:40.96Z</time></trkpt><trkpt lat="41.2714538" lon="2.0331157"><ele>8.0</ele><time>2026-05-04T17:50:41.961Z</time></trkpt><trkpt lat="41.2714782" lon="2.0333306"><ele>8.0</ele><time>2026-05-04T17:50:42.96Z</time></trkpt><trkpt lat="41.2715006" lon="2.0335425"><ele>8.333333333333332</ele><time>2026-05-04T17:50:43.961Z</time></trkpt><trkpt lat="41.2715253" lon="2.0337582"><ele>8.666666666666666</ele><time>2026-05-04T17:50:44.961Z</time></trkpt><trkpt lat="41.2715443" lon="2.0339748"><ele>9.0</ele><time>2026-05-04T17:50:45.961Z</time></trkpt><trkpt lat="41.2715643" lon="2.0341924"><ele>9.0</ele><time>2026-05-04T17:50:46.961Z</time></trkpt><trkpt lat="41.2715785" lon="2.0344109"><ele>9.0</ele><time>2026-05-04T17:50:47.96Z</time></trkpt><trkpt lat="41.2715957" lon="2.034631"><ele>9.0</ele><time>2026-05-04T17:50:48.961Z</time></trkpt><trkpt lat="41.2716138" lon="2.0348473"><ele>8.333333333333334</ele><time>2026-05-04T17:50:49.961Z</time></trkpt><trkpt lat="41.2716332" lon="2.0350623"><ele>7.666666666666667</ele><time>2026-05-04T17:50:50.96Z</time></trkpt><trkpt lat="41.2716532" lon="2.035281"><ele>7.0</ele><time>2026-05-04T17:50:51.96Z</time></trkpt><trkpt lat="41.271676" lon="2.0355009"><ele>7.0</ele><time>2026-05-04T17:50:52.961Z</time></trkpt><trkpt lat="41.2716946" lon="2.0357167"><ele>7.0</ele><time>2026-05-04T17:50:53.96Z</time></trkpt><trkpt lat="41.2717132" lon="2.0359347"><ele>7.0</ele><time>2026-05-04T17:50:54.961Z</time></trkpt><trkpt lat="41.2717353" lon="2.0361558"><ele>7.333333333333334</ele><time>2026-05-04T17:50:55.961Z</time></trkpt><trkpt lat="41.2717567" lon="2.0363721"><ele>7.666666666666666</ele><time>2026-05-04T17:50:56.961Z</time></trkpt><trkpt lat="41.2717743" lon="2.0365867"><ele>8.0</ele><time>2026-05-04T17:50:57.961Z</time></trkpt><trkpt lat="41.2717956" lon="2.0368047"><ele>8.0</ele><time>2026-05-04T17:50:58.961Z</time></trkpt><trkpt lat="41.2718126" lon="2.0370214"><ele>8.0</ele><time>2026-05-04T17:50:59.961Z</time></trkpt><trkpt lat="41.2718327" lon="2.0372422"><ele>8.0</ele><time>2026-05-04T17:51:00.961Z</time></trkpt><trkpt lat="41.2718536" lon="2.0374587"><ele>8.333333333333332</ele><time>2026-05-04T17:51:01.961Z</time></trkpt><trkpt lat="41.2718718" lon="2.0376702"><ele>8.666666666666666</ele><time>2026-05-04T17:51:02.961Z</time></trkpt><trkpt lat="41.2718921" lon="2.0378901"><ele>9.0</ele><time>2026-05-04T17:51:03.961Z</time></trkpt><trkpt lat="41.2719109" lon="2.0381137"><ele>10.0</ele><time>2026-05-04T17:51:04.961Z</time></trkpt><trkpt lat="41.2719329" lon="2.0383324"><ele>11.0</ele><time>2026-05-04T17:51:05.961Z</time></trkpt><trkpt lat="41.2719564" lon="2.038556"><ele>12.0</ele><time>2026-05-04T17:51:06.961Z</time></trkpt><trkpt lat="41.2719785" lon="2.0387619"><ele>12.0</ele><time>2026-05-04T17:51:07.96Z</time></trkpt><trkpt lat="41.2719967" lon="2.0389826"><ele>12.0</ele><time>2026-05-04T17:51:08.961Z</time></trkpt><trkpt lat="41.2720154" lon="2.0391974"><ele>12.0</ele><time>2026-05-04T17:51:09.96Z</time></trkpt><trkpt lat="41.2720375" lon="2.0394188"><ele>11.333333333333334</ele><time>2026-05-04T17:51:10.961Z</time></trkpt><trkpt lat="41.2720661" lon="2.0396339"><ele>10.666666666666668</ele><time>2026-05-04T17:51:11.961Z</time></trkpt><trkpt lat="41.2720906" lon="2.039845"><ele>10.0</ele><time>2026-05-04T17:51:12.961Z</time></trkpt><trkpt lat="41.2721148" lon="2.0400512"><ele>9.666666666666668</ele><time>2026-05-04T17:51:13.961Z</time></trkpt><trkpt lat="41.2721438" lon="2.040253"><ele>9.333333333333334</ele><time>2026-05-04T17:51:14.96Z</time></trkpt><trkpt lat="41.2721741" lon="2.040452"><ele>9.0</ele><time>2026-05-04T17:51:15.961Z</time></trkpt><trkpt lat="41.2722097" lon="2.0406498"><ele>9.0</ele><time>2026-05-04T17:51:16.961Z</time></trkpt><trkpt lat="41.272241" lon="2.0408335"><ele>9.0</ele><time>2026-05-04T17:51:17.961Z</time></trkpt><trkpt lat="41.2722717" lon="2.0410079"><ele>9.0</ele><time>2026-05-04T17:51:18.961Z</time></trkpt><trkpt lat="41.2723048" lon="2.0411792"><ele>9.0</ele><time>2026-05-04T17:51:19.96Z</time></trkpt><trkpt lat="41.2723384" lon="2.0413365"><ele>8.8</ele><time>2026-05-04T17:51:20.961Z</time></trkpt><trkpt lat="41.2723737" lon="2.0414903"><ele>8.600000000000001</ele><time>2026-05-04T17:51:21.961Z</time></trkpt><trkpt lat="41.2724047" lon="2.0416367"><ele>8.4</ele><time>2026-05-04T17:51:22.961Z</time></trkpt><trkpt lat="41.2724364" lon="2.0417757"><ele>8.200000000000001</ele><time>2026-05-04T17:51:23.961Z</time></trkpt><trkpt lat="41.2724651" lon="2.0419053"><ele>8.0</ele><time>2026-05-04T17:51:24.961Z</time></trkpt><trkpt lat="41.2724913" lon="2.0420199"><ele>7.833333333333333</ele><time>2026-05-04T17:51:25.961Z</time></trkpt><trkpt lat="41.272516" lon="2.0421248"><ele>7.666666666666666</ele><time>2026-05-04T17:51:26.96Z</time></trkpt><trkpt lat="41.2725383" lon="2.0422163"><ele>7.5</ele><time>2026-05-04T17:51:27.96Z</time></trkpt><trkpt lat="41.272556" lon="2.042366"><ele>7.333333333333334</ele><time>2026-05-04T17:51:29.961Z</time></trkpt><trkpt lat="41.2725156" lon="2.0424761"><ele>7.166666666666667</ele><time>2026-05-04T17:51:31.961Z</time></trkpt><trkpt lat="41.2724546" lon="2.0425546"><ele>7.0</ele><time>2026-05-04T17:51:33.961Z</time></trkpt><trkpt lat="41.2724048" lon="2.0426353"><ele>7.0</ele><time>2026-05-04T17:51:36.962Z</time></trkpt><trkpt lat="41.2723748" lon="2.0427138"><ele>7.0</ele><time>2026-05-04T17:51:57.962Z</time></trkpt><trkpt lat="41.2723352" lon="2.0427805"><ele>7.0</ele><time>2026-05-04T17:52:01.962Z</time></trkpt><trkpt lat="41.2723017" lon="2.0428628"><ele>7.0</ele><time>2026-05-04T17:52:05.962Z</time></trkpt><trkpt lat="41.2722887" lon="2.0429596"><ele>7.0</ele><time>2026-05-04T17:52:11.962Z</time></trkpt><trkpt lat="41.2723204" lon="2.0430456"><ele>7.0</ele><time>2026-05-04T17:52:26.962Z</time></trkpt><trkpt lat="41.2723271" lon="2.0431474"><ele>7.0</ele><time>2026-05-04T17:52:29.962Z</time></trkpt><trkpt lat="41.2723382" lon="2.0432324"><ele>7.000000000000001</ele><time>2026-05-04T17:52:31.961Z</time></trkpt><trkpt lat="41.2722929" lon="2.0432976"><ele>7.0</ele><time>2026-05-04T17:52:35.962Z</time></trkpt><trkpt lat="41.2722261" lon="2.0433062"><ele>7.0</ele><time>2026-05-04T17:52:38.962Z</time></trkpt><trkpt lat="41.2721304" lon="2.0432629"><ele>7.0</ele><time>2026-05-04T17:52:40.961Z</time></trkpt><trkpt lat="41.2720463" lon="2.0431979"><ele>7.000000000000001</ele><time>2026-05-04T17:52:42.962Z</time></trkpt><trkpt lat="41.2719909" lon="2.0431432"><ele>7.0</ele><time>2026-05-04T17:52:44.962Z</time></trkpt><trkpt lat="41.2719159" lon="2.0431366"><ele>7.000000000000001</ele><time>2026-05-04T17:52:47.962Z</time></trkpt><trkpt lat="41.2718513" lon="2.0431695"><ele>7.0</ele><time>2026-05-04T17:52:50.962Z</time></trkpt><trkpt lat="41.2717916" lon="2.0432265"><ele>7.0</ele><time>2026-05-04T17:52:54.961Z</time></trkpt><trkpt lat="41.2718045" lon="2.0433265"><ele>7.0</ele><time>2026-05-04T17:52:58.962Z</time></trkpt><trkpt lat="41.2718325" lon="2.0434209"><ele>7.000000000000001</ele><time>2026-05-04T17:53:01.961Z</time></trkpt><trkpt lat="41.2718371" lon="2.043525"><ele>7.0</ele><time>2026-05-04T17:53:04.962Z</time></trkpt><trkpt lat="41.2718384" lon="2.0436421"><ele>7.000000000000001</ele><time>2026-05-04T17:53:07.962Z</time></trkpt><trkpt lat="41.2718332" lon="2.0437733"><ele>7.0</ele><time>2026-05-04T17:53:10.962Z</time></trkpt><trkpt lat="41.2718104" lon="2.0439053"><ele>7.0</ele><time>2026-05-04T17:53:12.962Z</time></trkpt><trkpt lat="41.2717901" lon="2.0440009"><ele>7.0</ele><time>2026-05-04T17:53:14.962Z</time></trkpt><trkpt lat="41.2717083" lon="2.044052"><ele>7.000000000000001</ele><time>2026-05-04T17:53:17.962Z</time></trkpt><trkpt lat="41.2716458" lon="2.0441035"><ele>7.0</ele><time>2026-05-04T17:53:19.962Z</time></trkpt><trkpt lat="41.271647" lon="2.0442299"><ele>6.0</ele><time>2026-05-04T17:53:22.962Z</time></trkpt><trkpt lat="41.2716503" lon="2.0443143"><ele>6.0</ele><time>2026-05-04T17:53:24.962Z</time></trkpt><trkpt lat="41.2716579" lon="2.0444419"><ele>6.0</ele><time>2026-05-04T17:53:27.962Z</time></trkpt><trkpt lat="41.2716405" lon="2.044552"><ele>6.0</ele><time>2026-05-04T17:53:30.962Z</time></trkpt><trkpt lat="41.2716344" lon="2.0446376"><ele>6.0</ele><time>2026-05-04T17:53:36.962Z</time></trkpt></trkseg></trk></gpx>